<?xml version="1.0" encoding="UTF-8" standalone="no" ?>
<gpx xmlns="http://www.topografix.com/GPX/1/1" xmlns:xsi="http://www.w3.org/2001/XMLSchema-instance" xsi:schemaLocation="http://www.topografix.com/GPX/1/1 http://www.topografix.com/GPX/1/1/gpx.xsd" version="1.1" creator="VisuGPX - https://www.visugpx.com">
  <metadata>
    <name>Les Chemins du Soleil 2013 - Etape 3</name>
    <desc><![CDATA[Serre/Gap. Une sacrée montée au km20. Trois belles séances de portage dont une de 45minutes.]]></desc>
  </metadata>
  <trk>
    <name><![CDATA[Raid Les Chemins du Soleil]]></name>
    <trkseg>
      <trkpt lat="44.42803" lon="5.71685">
        <ele>667</ele>
        <time>2013-05-12T04:52:15Z</time>
      </trkpt>
      <trkpt lat="44.42798" lon="5.7168">
        <ele>667</ele>
        <time>2013-05-12T04:52:16Z</time>
      </trkpt>
      <trkpt lat="44.42785" lon="5.71667">
        <ele>667</ele>
        <time>2013-05-12T04:52:19Z</time>
      </trkpt>
      <trkpt lat="44.42754" lon="5.7163">
        <ele>666.40002441406</ele>
        <time>2013-05-12T04:52:27Z</time>
      </trkpt>
      <trkpt lat="44.42738" lon="5.71615">
        <ele>666.40002441406</ele>
        <time>2013-05-12T04:52:31Z</time>
      </trkpt>
      <trkpt lat="44.42722" lon="5.71601">
        <ele>666.40002441406</ele>
        <time>2013-05-12T04:52:35Z</time>
      </trkpt>
      <trkpt lat="44.4269" lon="5.71581">
        <ele>666.40002441406</ele>
        <time>2013-05-12T04:52:42Z</time>
      </trkpt>
      <trkpt lat="44.42646" lon="5.71572">
        <ele>666.40002441406</ele>
        <time>2013-05-12T04:52:50Z</time>
      </trkpt>
      <trkpt lat="44.42602" lon="5.71559">
        <ele>666.40002441406</ele>
        <time>2013-05-12T04:52:58Z</time>
      </trkpt>
      <trkpt lat="44.42564" lon="5.71542">
        <ele>666.40002441406</ele>
        <time>2013-05-12T04:53:05Z</time>
      </trkpt>
      <trkpt lat="44.42529" lon="5.71524">
        <ele>666.40002441406</ele>
        <time>2013-05-12T04:53:11Z</time>
      </trkpt>
      <trkpt lat="44.4249" lon="5.71505">
        <ele>666.40002441406</ele>
        <time>2013-05-12T04:53:18Z</time>
      </trkpt>
      <trkpt lat="44.42453" lon="5.71495">
        <ele>666</ele>
        <time>2013-05-12T04:53:24Z</time>
      </trkpt>
      <trkpt lat="44.42447" lon="5.71493">
        <ele>665.40002441406</ele>
        <time>2013-05-12T04:53:25Z</time>
      </trkpt>
      <trkpt lat="44.42435" lon="5.71491">
        <ele>664.59997558594</ele>
        <time>2013-05-12T04:53:27Z</time>
      </trkpt>
      <trkpt lat="44.42429" lon="5.71491">
        <ele>664.20001220703</ele>
        <time>2013-05-12T04:53:28Z</time>
      </trkpt>
      <trkpt lat="44.42404" lon="5.71491">
        <ele>664.20001220703</ele>
        <time>2013-05-12T04:53:32Z</time>
      </trkpt>
      <trkpt lat="44.42381" lon="5.71493">
        <ele>664.20001220703</ele>
        <time>2013-05-12T04:53:36Z</time>
      </trkpt>
      <trkpt lat="44.4237" lon="5.71496">
        <ele>664.20001220703</ele>
        <time>2013-05-12T04:53:38Z</time>
      </trkpt>
      <trkpt lat="44.42336" lon="5.71512">
        <ele>664.20001220703</ele>
        <time>2013-05-12T04:53:44Z</time>
      </trkpt>
      <trkpt lat="44.42303" lon="5.71529">
        <ele>664.20001220703</ele>
        <time>2013-05-12T04:53:50Z</time>
      </trkpt>
      <trkpt lat="44.42266" lon="5.71548">
        <ele>664.20001220703</ele>
        <time>2013-05-12T04:53:57Z</time>
      </trkpt>
      <trkpt lat="44.42256" lon="5.71552">
        <ele>664.20001220703</ele>
        <time>2013-05-12T04:53:59Z</time>
      </trkpt>
      <trkpt lat="44.42218" lon="5.71567">
        <ele>664.20001220703</ele>
        <time>2013-05-12T04:54:06Z</time>
      </trkpt>
      <trkpt lat="44.42187" lon="5.71571">
        <ele>664.20001220703</ele>
        <time>2013-05-12T04:54:12Z</time>
      </trkpt>
      <trkpt lat="44.42141" lon="5.7158">
        <ele>664.20001220703</ele>
        <time>2013-05-12T04:54:21Z</time>
      </trkpt>
      <trkpt lat="44.421" lon="5.71592">
        <ele>664.20001220703</ele>
        <time>2013-05-12T04:54:29Z</time>
      </trkpt>
      <trkpt lat="44.4207" lon="5.71598">
        <ele>664.20001220703</ele>
        <time>2013-05-12T04:54:34Z</time>
      </trkpt>
      <trkpt lat="44.42038" lon="5.71597">
        <ele>663.79998779297</ele>
        <time>2013-05-12T04:54:40Z</time>
      </trkpt>
      <trkpt lat="44.42027" lon="5.71596">
        <ele>662.79998779297</ele>
        <time>2013-05-12T04:54:42Z</time>
      </trkpt>
      <trkpt lat="44.42016" lon="5.71596">
        <ele>662</ele>
        <time>2013-05-12T04:54:44Z</time>
      </trkpt>
      <trkpt lat="44.42006" lon="5.71596">
        <ele>662</ele>
        <time>2013-05-12T04:54:46Z</time>
      </trkpt>
      <trkpt lat="44.41975" lon="5.71593">
        <ele>662</ele>
        <time>2013-05-12T04:54:51Z</time>
      </trkpt>
      <trkpt lat="44.41943" lon="5.71583">
        <ele>662</ele>
        <time>2013-05-12T04:54:56Z</time>
      </trkpt>
      <trkpt lat="44.41937" lon="5.7158">
        <ele>662</ele>
        <time>2013-05-12T04:54:57Z</time>
      </trkpt>
      <trkpt lat="44.41911" lon="5.71567">
        <ele>662</ele>
        <time>2013-05-12T04:55:01Z</time>
      </trkpt>
      <trkpt lat="44.41893" lon="5.71565">
        <ele>661.40002441406</ele>
        <time>2013-05-12T04:55:04Z</time>
      </trkpt>
      <trkpt lat="44.41888" lon="5.71565">
        <ele>661</ele>
        <time>2013-05-12T04:55:05Z</time>
      </trkpt>
      <trkpt lat="44.41875" lon="5.71565">
        <ele>660.20001220703</ele>
        <time>2013-05-12T04:55:07Z</time>
      </trkpt>
      <trkpt lat="44.41868" lon="5.71566">
        <ele>659.79998779297</ele>
        <time>2013-05-12T04:55:08Z</time>
      </trkpt>
      <trkpt lat="44.41822" lon="5.71573">
        <ele>659.79998779297</ele>
        <time>2013-05-12T04:55:15Z</time>
      </trkpt>
      <trkpt lat="44.41777" lon="5.71583">
        <ele>659.79998779297</ele>
        <time>2013-05-12T04:55:22Z</time>
      </trkpt>
      <trkpt lat="44.41733" lon="5.71592">
        <ele>659.40002441406</ele>
        <time>2013-05-12T04:55:29Z</time>
      </trkpt>
      <trkpt lat="44.41726" lon="5.71593">
        <ele>659</ele>
        <time>2013-05-12T04:55:30Z</time>
      </trkpt>
      <trkpt lat="44.41714" lon="5.71596">
        <ele>658.20001220703</ele>
        <time>2013-05-12T04:55:32Z</time>
      </trkpt>
      <trkpt lat="44.41708" lon="5.71596">
        <ele>657.79998779297</ele>
        <time>2013-05-12T04:55:33Z</time>
      </trkpt>
      <trkpt lat="44.41671" lon="5.71603">
        <ele>657.79998779297</ele>
        <time>2013-05-12T04:55:39Z</time>
      </trkpt>
      <trkpt lat="44.41618" lon="5.71613">
        <ele>657.79998779297</ele>
        <time>2013-05-12T04:55:48Z</time>
      </trkpt>
      <trkpt lat="44.41563" lon="5.71622">
        <ele>657.79998779297</ele>
        <time>2013-05-12T04:55:57Z</time>
      </trkpt>
      <trkpt lat="44.41525" lon="5.71629">
        <ele>657.79998779297</ele>
        <time>2013-05-12T04:56:04Z</time>
      </trkpt>
      <trkpt lat="44.41489" lon="5.71636">
        <ele>657.79998779297</ele>
        <time>2013-05-12T04:56:10Z</time>
      </trkpt>
      <trkpt lat="44.41464" lon="5.7164">
        <ele>657.40002441406</ele>
        <time>2013-05-12T04:56:14Z</time>
      </trkpt>
      <trkpt lat="44.41458" lon="5.71642">
        <ele>657</ele>
        <time>2013-05-12T04:56:15Z</time>
      </trkpt>
      <trkpt lat="44.41446" lon="5.71644">
        <ele>656</ele>
        <time>2013-05-12T04:56:17Z</time>
      </trkpt>
      <trkpt lat="44.4144" lon="5.71645">
        <ele>655.59997558594</ele>
        <time>2013-05-12T04:56:18Z</time>
      </trkpt>
      <trkpt lat="44.41385" lon="5.71655">
        <ele>655.59997558594</ele>
        <time>2013-05-12T04:56:27Z</time>
      </trkpt>
      <trkpt lat="44.41341" lon="5.71663">
        <ele>655.59997558594</ele>
        <time>2013-05-12T04:56:34Z</time>
      </trkpt>
      <trkpt lat="44.41283" lon="5.71673">
        <ele>655.59997558594</ele>
        <time>2013-05-12T04:56:44Z</time>
      </trkpt>
      <trkpt lat="44.41237" lon="5.71681">
        <ele>655.59997558594</ele>
        <time>2013-05-12T04:56:52Z</time>
      </trkpt>
      <trkpt lat="44.41184" lon="5.71691">
        <ele>655.59997558594</ele>
        <time>2013-05-12T04:57:01Z</time>
      </trkpt>
      <trkpt lat="44.41154" lon="5.71698">
        <ele>655.20001220703</ele>
        <time>2013-05-12T04:57:06Z</time>
      </trkpt>
      <trkpt lat="44.41148" lon="5.71699">
        <ele>654.79998779297</ele>
        <time>2013-05-12T04:57:07Z</time>
      </trkpt>
      <trkpt lat="44.41137" lon="5.71701">
        <ele>654</ele>
        <time>2013-05-12T04:57:09Z</time>
      </trkpt>
      <trkpt lat="44.41085" lon="5.71713">
        <ele>653.59997558594</ele>
        <time>2013-05-12T04:57:18Z</time>
      </trkpt>
      <trkpt lat="44.4105" lon="5.71729">
        <ele>653.59997558594</ele>
        <time>2013-05-12T04:57:24Z</time>
      </trkpt>
      <trkpt lat="44.41028" lon="5.71742">
        <ele>653.59997558594</ele>
        <time>2013-05-12T04:57:28Z</time>
      </trkpt>
      <trkpt lat="44.40984" lon="5.71773">
        <ele>653.59997558594</ele>
        <time>2013-05-12T04:57:36Z</time>
      </trkpt>
      <trkpt lat="44.4096" lon="5.71793">
        <ele>653.59997558594</ele>
        <time>2013-05-12T04:57:41Z</time>
      </trkpt>
      <trkpt lat="44.4095" lon="5.71803">
        <ele>653.59997558594</ele>
        <time>2013-05-12T04:57:43Z</time>
      </trkpt>
      <trkpt lat="44.40928" lon="5.71824">
        <ele>653.59997558594</ele>
        <time>2013-05-12T04:57:48Z</time>
      </trkpt>
      <trkpt lat="44.40908" lon="5.71843">
        <ele>653.20001220703</ele>
        <time>2013-05-12T04:57:52Z</time>
      </trkpt>
      <trkpt lat="44.40894" lon="5.71856">
        <ele>652.20001220703</ele>
        <time>2013-05-12T04:57:55Z</time>
      </trkpt>
      <trkpt lat="44.4089" lon="5.7186">
        <ele>651.79998779297</ele>
        <time>2013-05-12T04:57:56Z</time>
      </trkpt>
      <trkpt lat="44.40856" lon="5.71892">
        <ele>651.40002441406</ele>
        <time>2013-05-12T04:58:03Z</time>
      </trkpt>
      <trkpt lat="44.4085" lon="5.71909">
        <ele>651.40002441406</ele>
        <time>2013-05-12T04:58:05Z</time>
      </trkpt>
      <trkpt lat="44.40849" lon="5.7194">
        <ele>651.40002441406</ele>
        <time>2013-05-12T04:58:08Z</time>
      </trkpt>
      <trkpt lat="44.4085" lon="5.71949">
        <ele>651.40002441406</ele>
        <time>2013-05-12T04:58:09Z</time>
      </trkpt>
      <trkpt lat="44.40851" lon="5.71995">
        <ele>650.79998779297</ele>
        <time>2013-05-12T04:58:14Z</time>
      </trkpt>
      <trkpt lat="44.40851" lon="5.72003">
        <ele>650.40002441406</ele>
        <time>2013-05-12T04:58:15Z</time>
      </trkpt>
      <trkpt lat="44.40851" lon="5.72011">
        <ele>650</ele>
        <time>2013-05-12T04:58:16Z</time>
      </trkpt>
      <trkpt lat="44.40852" lon="5.72028">
        <ele>649</ele>
        <time>2013-05-12T04:58:18Z</time>
      </trkpt>
      <trkpt lat="44.40853" lon="5.72095">
        <ele>649</ele>
        <time>2013-05-12T04:58:26Z</time>
      </trkpt>
      <trkpt lat="44.40853" lon="5.72152">
        <ele>649</ele>
        <time>2013-05-12T04:58:33Z</time>
      </trkpt>
      <trkpt lat="44.4085" lon="5.72187">
        <ele>649</ele>
        <time>2013-05-12T04:58:37Z</time>
      </trkpt>
      <trkpt lat="44.40843" lon="5.72201">
        <ele>649</ele>
        <time>2013-05-12T04:58:39Z</time>
      </trkpt>
      <trkpt lat="44.40827" lon="5.72217">
        <ele>649</ele>
        <time>2013-05-12T04:58:42Z</time>
      </trkpt>
      <trkpt lat="44.40822" lon="5.72221">
        <ele>649</ele>
        <time>2013-05-12T04:58:43Z</time>
      </trkpt>
      <trkpt lat="44.40785" lon="5.72263">
        <ele>649</ele>
        <time>2013-05-12T04:58:51Z</time>
      </trkpt>
      <trkpt lat="44.40784" lon="5.72288">
        <ele>649</ele>
        <time>2013-05-12T04:58:54Z</time>
      </trkpt>
      <trkpt lat="44.40786" lon="5.72305">
        <ele>649</ele>
        <time>2013-05-12T04:58:56Z</time>
      </trkpt>
      <trkpt lat="44.40786" lon="5.72313">
        <ele>649</ele>
        <time>2013-05-12T04:58:57Z</time>
      </trkpt>
      <trkpt lat="44.40788" lon="5.72329">
        <ele>649</ele>
        <time>2013-05-12T04:58:59Z</time>
      </trkpt>
      <trkpt lat="44.40791" lon="5.72349">
        <ele>649</ele>
        <time>2013-05-12T04:59:02Z</time>
      </trkpt>
      <trkpt lat="44.40796" lon="5.72362">
        <ele>649</ele>
        <time>2013-05-12T04:59:04Z</time>
      </trkpt>
      <trkpt lat="44.40805" lon="5.72378">
        <ele>649</ele>
        <time>2013-05-12T04:59:07Z</time>
      </trkpt>
      <trkpt lat="44.40808" lon="5.72384">
        <ele>649</ele>
        <time>2013-05-12T04:59:08Z</time>
      </trkpt>
      <trkpt lat="44.40811" lon="5.72391">
        <ele>649</ele>
        <time>2013-05-12T04:59:09Z</time>
      </trkpt>
      <trkpt lat="44.40826" lon="5.72429">
        <ele>649</ele>
        <time>2013-05-12T04:59:15Z</time>
      </trkpt>
      <trkpt lat="44.40842" lon="5.72458">
        <ele>649</ele>
        <time>2013-05-12T04:59:20Z</time>
      </trkpt>
      <trkpt lat="44.40849" lon="5.72469">
        <ele>649</ele>
        <time>2013-05-12T04:59:22Z</time>
      </trkpt>
      <trkpt lat="44.40855" lon="5.72479">
        <ele>649</ele>
        <time>2013-05-12T04:59:24Z</time>
      </trkpt>
      <trkpt lat="44.40873" lon="5.72504">
        <ele>649</ele>
        <time>2013-05-12T04:59:29Z</time>
      </trkpt>
      <trkpt lat="44.40876" lon="5.72526">
        <ele>649.59997558594</ele>
        <time>2013-05-12T04:59:33Z</time>
      </trkpt>
      <trkpt lat="44.40874" lon="5.7253">
        <ele>650</ele>
        <time>2013-05-12T04:59:34Z</time>
      </trkpt>
      <trkpt lat="44.40867" lon="5.72538">
        <ele>650.79998779297</ele>
        <time>2013-05-12T04:59:36Z</time>
      </trkpt>
      <trkpt lat="44.40864" lon="5.72543">
        <ele>651.40002441406</ele>
        <time>2013-05-12T04:59:37Z</time>
      </trkpt>
      <trkpt lat="44.40854" lon="5.72568">
        <ele>651.79998779297</ele>
        <time>2013-05-12T04:59:42Z</time>
      </trkpt>
      <trkpt lat="44.40852" lon="5.72574">
        <ele>652.20001220703</ele>
        <time>2013-05-12T04:59:43Z</time>
      </trkpt>
      <trkpt lat="44.40849" lon="5.72584">
        <ele>653.20001220703</ele>
        <time>2013-05-12T04:59:45Z</time>
      </trkpt>
      <trkpt lat="44.40839" lon="5.72612">
        <ele>653.59997558594</ele>
        <time>2013-05-12T04:59:51Z</time>
      </trkpt>
      <trkpt lat="44.40825" lon="5.72626">
        <ele>653.59997558594</ele>
        <time>2013-05-12T04:59:56Z</time>
      </trkpt>
      <trkpt lat="44.40819" lon="5.72631">
        <ele>654.40002441406</ele>
        <time>2013-05-12T04:59:58Z</time>
      </trkpt>
      <trkpt lat="44.40804" lon="5.72638">
        <ele>655.59997558594</ele>
        <time>2013-05-12T05:00:03Z</time>
      </trkpt>
      <trkpt lat="44.40779" lon="5.72645">
        <ele>655.20001220703</ele>
        <time>2013-05-12T05:00:07Z</time>
      </trkpt>
      <trkpt lat="44.40765" lon="5.7265">
        <ele>654</ele>
        <time>2013-05-12T05:00:09Z</time>
      </trkpt>
      <trkpt lat="44.40758" lon="5.72652">
        <ele>653.40002441406</ele>
        <time>2013-05-12T05:00:10Z</time>
      </trkpt>
      <trkpt lat="44.4073" lon="5.72661">
        <ele>652.40002441406</ele>
        <time>2013-05-12T05:00:14Z</time>
      </trkpt>
      <trkpt lat="44.40717" lon="5.72666">
        <ele>651.40002441406</ele>
        <time>2013-05-12T05:00:16Z</time>
      </trkpt>
      <trkpt lat="44.4071" lon="5.72671">
        <ele>651</ele>
        <time>2013-05-12T05:00:17Z</time>
      </trkpt>
      <trkpt lat="44.40704" lon="5.72677">
        <ele>650.59997558594</ele>
        <time>2013-05-12T05:00:18Z</time>
      </trkpt>
      <trkpt lat="44.40699" lon="5.72682">
        <ele>650.59997558594</ele>
        <time>2013-05-12T05:00:19Z</time>
      </trkpt>
      <trkpt lat="44.40679" lon="5.72703">
        <ele>650.59997558594</ele>
        <time>2013-05-12T05:00:23Z</time>
      </trkpt>
      <trkpt lat="44.40665" lon="5.72715">
        <ele>650.59997558594</ele>
        <time>2013-05-12T05:00:26Z</time>
      </trkpt>
      <trkpt lat="44.40651" lon="5.72726">
        <ele>650.59997558594</ele>
        <time>2013-05-12T05:00:29Z</time>
      </trkpt>
      <trkpt lat="44.40638" lon="5.72741">
        <ele>650.59997558594</ele>
        <time>2013-05-12T05:00:32Z</time>
      </trkpt>
      <trkpt lat="44.40631" lon="5.72751">
        <ele>650.59997558594</ele>
        <time>2013-05-12T05:00:34Z</time>
      </trkpt>
      <trkpt lat="44.40616" lon="5.72774">
        <ele>650.59997558594</ele>
        <time>2013-05-12T05:00:39Z</time>
      </trkpt>
      <trkpt lat="44.40597" lon="5.72803">
        <ele>650.59997558594</ele>
        <time>2013-05-12T05:00:46Z</time>
      </trkpt>
      <trkpt lat="44.40588" lon="5.72814">
        <ele>651</ele>
        <time>2013-05-12T05:00:49Z</time>
      </trkpt>
      <trkpt lat="44.40578" lon="5.72822">
        <ele>652.59997558594</ele>
        <time>2013-05-12T05:00:52Z</time>
      </trkpt>
      <trkpt lat="44.40548" lon="5.72846">
        <ele>652.59997558594</ele>
        <time>2013-05-12T05:01:02Z</time>
      </trkpt>
      <trkpt lat="44.40543" lon="5.72853">
        <ele>653.20001220703</ele>
        <time>2013-05-12T05:01:04Z</time>
      </trkpt>
      <trkpt lat="44.40537" lon="5.72856">
        <ele>654</ele>
        <time>2013-05-12T05:01:06Z</time>
      </trkpt>
      <trkpt lat="44.40522" lon="5.72845">
        <ele>655</ele>
        <time>2013-05-12T05:01:10Z</time>
      </trkpt>
      <trkpt lat="44.40514" lon="5.72839">
        <ele>655</ele>
        <time>2013-05-12T05:01:12Z</time>
      </trkpt>
      <trkpt lat="44.40501" lon="5.72832">
        <ele>655</ele>
        <time>2013-05-12T05:01:15Z</time>
      </trkpt>
      <trkpt lat="44.40497" lon="5.72828">
        <ele>655</ele>
        <time>2013-05-12T05:01:16Z</time>
      </trkpt>
      <trkpt lat="44.40479" lon="5.72803">
        <ele>655</ele>
        <time>2013-05-12T05:01:21Z</time>
      </trkpt>
      <trkpt lat="44.40475" lon="5.72797">
        <ele>655</ele>
        <time>2013-05-12T05:01:22Z</time>
      </trkpt>
      <trkpt lat="44.40466" lon="5.72778">
        <ele>655</ele>
        <time>2013-05-12T05:01:25Z</time>
      </trkpt>
      <trkpt lat="44.40463" lon="5.7277">
        <ele>654.40002441406</ele>
        <time>2013-05-12T05:01:26Z</time>
      </trkpt>
      <trkpt lat="44.4046" lon="5.72762">
        <ele>654</ele>
        <time>2013-05-12T05:01:27Z</time>
      </trkpt>
      <trkpt lat="44.40456" lon="5.72754">
        <ele>653.40002441406</ele>
        <time>2013-05-12T05:01:28Z</time>
      </trkpt>
      <trkpt lat="44.40452" lon="5.72747">
        <ele>653</ele>
        <time>2013-05-12T05:01:29Z</time>
      </trkpt>
      <trkpt lat="44.40446" lon="5.72742">
        <ele>652.40002441406</ele>
        <time>2013-05-12T05:01:30Z</time>
      </trkpt>
      <trkpt lat="44.40429" lon="5.72738">
        <ele>652.40002441406</ele>
        <time>2013-05-12T05:01:33Z</time>
      </trkpt>
      <trkpt lat="44.40414" lon="5.7275">
        <ele>652.40002441406</ele>
        <time>2013-05-12T05:01:36Z</time>
      </trkpt>
      <trkpt lat="44.40403" lon="5.72777">
        <ele>652.40002441406</ele>
        <time>2013-05-12T05:01:40Z</time>
      </trkpt>
      <trkpt lat="44.40399" lon="5.72799">
        <ele>652.40002441406</ele>
        <time>2013-05-12T05:01:43Z</time>
      </trkpt>
      <trkpt lat="44.40397" lon="5.72818">
        <ele>652.40002441406</ele>
        <time>2013-05-12T05:01:46Z</time>
      </trkpt>
      <trkpt lat="44.40396" lon="5.72831">
        <ele>652.40002441406</ele>
        <time>2013-05-12T05:01:48Z</time>
      </trkpt>
      <trkpt lat="44.40389" lon="5.72863">
        <ele>652.79998779297</ele>
        <time>2013-05-12T05:01:54Z</time>
      </trkpt>
      <trkpt lat="44.40385" lon="5.72872">
        <ele>653.79998779297</ele>
        <time>2013-05-12T05:01:56Z</time>
      </trkpt>
      <trkpt lat="44.40381" lon="5.72881">
        <ele>654.79998779297</ele>
        <time>2013-05-12T05:01:58Z</time>
      </trkpt>
      <trkpt lat="44.40373" lon="5.72892">
        <ele>654.79998779297</ele>
        <time>2013-05-12T05:02:01Z</time>
      </trkpt>
      <trkpt lat="44.40357" lon="5.72908">
        <ele>654.79998779297</ele>
        <time>2013-05-12T05:02:06Z</time>
      </trkpt>
      <trkpt lat="44.40337" lon="5.7292">
        <ele>654.79998779297</ele>
        <time>2013-05-12T05:02:11Z</time>
      </trkpt>
      <trkpt lat="44.40329" lon="5.72924">
        <ele>654.79998779297</ele>
        <time>2013-05-12T05:02:13Z</time>
      </trkpt>
      <trkpt lat="44.40299" lon="5.72943">
        <ele>655.20001220703</ele>
        <time>2013-05-12T05:02:20Z</time>
      </trkpt>
      <trkpt lat="44.4029" lon="5.72949">
        <ele>656.20001220703</ele>
        <time>2013-05-12T05:02:22Z</time>
      </trkpt>
      <trkpt lat="44.40285" lon="5.72951">
        <ele>656.59997558594</ele>
        <time>2013-05-12T05:02:23Z</time>
      </trkpt>
      <trkpt lat="44.40255" lon="5.72957">
        <ele>657</ele>
        <time>2013-05-12T05:02:29Z</time>
      </trkpt>
      <trkpt lat="44.40221" lon="5.72949">
        <ele>657</ele>
        <time>2013-05-12T05:02:36Z</time>
      </trkpt>
      <trkpt lat="44.40189" lon="5.72937">
        <ele>657</ele>
        <time>2013-05-12T05:02:43Z</time>
      </trkpt>
      <trkpt lat="44.40152" lon="5.72923">
        <ele>657</ele>
        <time>2013-05-12T05:02:51Z</time>
      </trkpt>
      <trkpt lat="44.40125" lon="5.72914">
        <ele>657.40002441406</ele>
        <time>2013-05-12T05:02:57Z</time>
      </trkpt>
      <trkpt lat="44.40116" lon="5.72911">
        <ele>658.20001220703</ele>
        <time>2013-05-12T05:02:59Z</time>
      </trkpt>
      <trkpt lat="44.40107" lon="5.7291">
        <ele>659</ele>
        <time>2013-05-12T05:03:01Z</time>
      </trkpt>
      <trkpt lat="44.40098" lon="5.72911">
        <ele>659</ele>
        <time>2013-05-12T05:03:03Z</time>
      </trkpt>
      <trkpt lat="44.40089" lon="5.72914">
        <ele>659</ele>
        <time>2013-05-12T05:03:05Z</time>
      </trkpt>
      <trkpt lat="44.40076" lon="5.72923">
        <ele>659</ele>
        <time>2013-05-12T05:03:08Z</time>
      </trkpt>
      <trkpt lat="44.40064" lon="5.72934">
        <ele>659</ele>
        <time>2013-05-12T05:03:11Z</time>
      </trkpt>
      <trkpt lat="44.40056" lon="5.72942">
        <ele>659</ele>
        <time>2013-05-12T05:03:13Z</time>
      </trkpt>
      <trkpt lat="44.40041" lon="5.72957">
        <ele>659.40002441406</ele>
        <time>2013-05-12T05:03:17Z</time>
      </trkpt>
      <trkpt lat="44.40033" lon="5.72964">
        <ele>659.79998779297</ele>
        <time>2013-05-12T05:03:19Z</time>
      </trkpt>
      <trkpt lat="44.40029" lon="5.72968">
        <ele>660.40002441406</ele>
        <time>2013-05-12T05:03:20Z</time>
      </trkpt>
      <trkpt lat="44.40025" lon="5.72971">
        <ele>660.79998779297</ele>
        <time>2013-05-12T05:03:21Z</time>
      </trkpt>
      <trkpt lat="44.40014" lon="5.72982">
        <ele>661.20001220703</ele>
        <time>2013-05-12T05:03:24Z</time>
      </trkpt>
      <trkpt lat="44.3998" lon="5.73018">
        <ele>661.20001220703</ele>
        <time>2013-05-12T05:03:33Z</time>
      </trkpt>
      <trkpt lat="44.39948" lon="5.73043">
        <ele>661.20001220703</ele>
        <time>2013-05-12T05:03:40Z</time>
      </trkpt>
      <trkpt lat="44.39906" lon="5.73072">
        <ele>661.20001220703</ele>
        <time>2013-05-12T05:03:48Z</time>
      </trkpt>
      <trkpt lat="44.39889" lon="5.7308">
        <ele>661.20001220703</ele>
        <time>2013-05-12T05:03:51Z</time>
      </trkpt>
      <trkpt lat="44.3984" lon="5.73101">
        <ele>661.20001220703</ele>
        <time>2013-05-12T05:04:00Z</time>
      </trkpt>
      <trkpt lat="44.39819" lon="5.73119">
        <ele>661.20001220703</ele>
        <time>2013-05-12T05:04:04Z</time>
      </trkpt>
      <trkpt lat="44.39809" lon="5.73132">
        <ele>660.59997558594</ele>
        <time>2013-05-12T05:04:06Z</time>
      </trkpt>
      <trkpt lat="44.39804" lon="5.7314">
        <ele>660.20001220703</ele>
        <time>2013-05-12T05:04:07Z</time>
      </trkpt>
      <trkpt lat="44.39798" lon="5.73148">
        <ele>659.79998779297</ele>
        <time>2013-05-12T05:04:08Z</time>
      </trkpt>
      <trkpt lat="44.39792" lon="5.73156">
        <ele>659.40002441406</ele>
        <time>2013-05-12T05:04:09Z</time>
      </trkpt>
      <trkpt lat="44.39784" lon="5.73163">
        <ele>658.79998779297</ele>
        <time>2013-05-12T05:04:10Z</time>
      </trkpt>
      <trkpt lat="44.39776" lon="5.73169">
        <ele>658.20001220703</ele>
        <time>2013-05-12T05:04:11Z</time>
      </trkpt>
      <trkpt lat="44.39767" lon="5.73173">
        <ele>657.79998779297</ele>
        <time>2013-05-12T05:04:12Z</time>
      </trkpt>
      <trkpt lat="44.39759" lon="5.73177">
        <ele>657</ele>
        <time>2013-05-12T05:04:13Z</time>
      </trkpt>
      <trkpt lat="44.39751" lon="5.73181">
        <ele>656.40002441406</ele>
        <time>2013-05-12T05:04:14Z</time>
      </trkpt>
      <trkpt lat="44.39744" lon="5.73185">
        <ele>655.59997558594</ele>
        <time>2013-05-12T05:04:15Z</time>
      </trkpt>
      <trkpt lat="44.39737" lon="5.7319">
        <ele>655</ele>
        <time>2013-05-12T05:04:16Z</time>
      </trkpt>
      <trkpt lat="44.3972" lon="5.73209">
        <ele>654.20001220703</ele>
        <time>2013-05-12T05:04:19Z</time>
      </trkpt>
      <trkpt lat="44.39716" lon="5.73216">
        <ele>654.20001220703</ele>
        <time>2013-05-12T05:04:20Z</time>
      </trkpt>
      <trkpt lat="44.39677" lon="5.73274">
        <ele>654.20001220703</ele>
        <time>2013-05-12T05:04:29Z</time>
      </trkpt>
      <trkpt lat="44.39671" lon="5.73297">
        <ele>654.20001220703</ele>
        <time>2013-05-12T05:04:32Z</time>
      </trkpt>
      <trkpt lat="44.39668" lon="5.73312">
        <ele>654.20001220703</ele>
        <time>2013-05-12T05:04:34Z</time>
      </trkpt>
      <trkpt lat="44.39666" lon="5.73328">
        <ele>654.20001220703</ele>
        <time>2013-05-12T05:04:36Z</time>
      </trkpt>
      <trkpt lat="44.39667" lon="5.73354">
        <ele>654.20001220703</ele>
        <time>2013-05-12T05:04:39Z</time>
      </trkpt>
      <trkpt lat="44.39669" lon="5.73412">
        <ele>653.79998779297</ele>
        <time>2013-05-12T05:04:46Z</time>
      </trkpt>
      <trkpt lat="44.39669" lon="5.73427">
        <ele>653.40002441406</ele>
        <time>2013-05-12T05:04:48Z</time>
      </trkpt>
      <trkpt lat="44.3967" lon="5.73435">
        <ele>652.59997558594</ele>
        <time>2013-05-12T05:04:49Z</time>
      </trkpt>
      <trkpt lat="44.3967" lon="5.73444">
        <ele>652.20001220703</ele>
        <time>2013-05-12T05:04:50Z</time>
      </trkpt>
      <trkpt lat="44.39669" lon="5.73466">
        <ele>652.20001220703</ele>
        <time>2013-05-12T05:04:53Z</time>
      </trkpt>
      <trkpt lat="44.39666" lon="5.73481">
        <ele>652.20001220703</ele>
        <time>2013-05-12T05:04:55Z</time>
      </trkpt>
      <trkpt lat="44.39656" lon="5.73497">
        <ele>652.20001220703</ele>
        <time>2013-05-12T05:05:00Z</time>
      </trkpt>
      <trkpt lat="44.39655" lon="5.73487">
        <ele>652.20001220703</ele>
        <time>2013-05-12T05:05:02Z</time>
      </trkpt>
      <trkpt lat="44.39658" lon="5.73473">
        <ele>652.20001220703</ele>
        <time>2013-05-12T05:05:04Z</time>
      </trkpt>
      <trkpt lat="44.39659" lon="5.73455">
        <ele>651.79998779297</ele>
        <time>2013-05-12T05:05:06Z</time>
      </trkpt>
      <trkpt lat="44.39658" lon="5.73445">
        <ele>651.40002441406</ele>
        <time>2013-05-12T05:05:07Z</time>
      </trkpt>
      <trkpt lat="44.39655" lon="5.73436">
        <ele>651</ele>
        <time>2013-05-12T05:05:08Z</time>
      </trkpt>
      <trkpt lat="44.3965" lon="5.73429">
        <ele>650.20001220703</ele>
        <time>2013-05-12T05:05:09Z</time>
      </trkpt>
      <trkpt lat="44.39636" lon="5.73418">
        <ele>649</ele>
        <time>2013-05-12T05:05:11Z</time>
      </trkpt>
      <trkpt lat="44.39629" lon="5.73412">
        <ele>648.40002441406</ele>
        <time>2013-05-12T05:05:12Z</time>
      </trkpt>
      <trkpt lat="44.39622" lon="5.73406">
        <ele>647.79998779297</ele>
        <time>2013-05-12T05:05:13Z</time>
      </trkpt>
      <trkpt lat="44.39616" lon="5.73398">
        <ele>647.20001220703</ele>
        <time>2013-05-12T05:05:14Z</time>
      </trkpt>
      <trkpt lat="44.3961" lon="5.73391">
        <ele>646.59997558594</ele>
        <time>2013-05-12T05:05:15Z</time>
      </trkpt>
      <trkpt lat="44.39602" lon="5.73384">
        <ele>646</ele>
        <time>2013-05-12T05:05:16Z</time>
      </trkpt>
      <trkpt lat="44.39593" lon="5.73378">
        <ele>645.20001220703</ele>
        <time>2013-05-12T05:05:17Z</time>
      </trkpt>
      <trkpt lat="44.39585" lon="5.73372">
        <ele>644.59997558594</ele>
        <time>2013-05-12T05:05:18Z</time>
      </trkpt>
      <trkpt lat="44.39578" lon="5.73365">
        <ele>643.59997558594</ele>
        <time>2013-05-12T05:05:19Z</time>
      </trkpt>
      <trkpt lat="44.39567" lon="5.73356">
        <ele>642.79998779297</ele>
        <time>2013-05-12T05:05:20Z</time>
      </trkpt>
      <trkpt lat="44.39561" lon="5.73349">
        <ele>642</ele>
        <time>2013-05-12T05:05:21Z</time>
      </trkpt>
      <trkpt lat="44.39554" lon="5.73343">
        <ele>641.20001220703</ele>
        <time>2013-05-12T05:05:22Z</time>
      </trkpt>
      <trkpt lat="44.3955" lon="5.73337">
        <ele>640.40002441406</ele>
        <time>2013-05-12T05:05:23Z</time>
      </trkpt>
      <trkpt lat="44.39546" lon="5.73332">
        <ele>639.59997558594</ele>
        <time>2013-05-12T05:05:24Z</time>
      </trkpt>
      <trkpt lat="44.39545" lon="5.73329">
        <ele>638.59997558594</ele>
        <time>2013-05-12T05:05:25Z</time>
      </trkpt>
      <trkpt lat="44.39553" lon="5.73331">
        <ele>637.79998779297</ele>
        <time>2013-05-12T05:05:30Z</time>
      </trkpt>
      <trkpt lat="44.39549" lon="5.73338">
        <ele>637.79998779297</ele>
        <time>2013-05-12T05:05:33Z</time>
      </trkpt>
      <trkpt lat="44.39537" lon="5.73341">
        <ele>637.79998779297</ele>
        <time>2013-05-12T05:05:38Z</time>
      </trkpt>
      <trkpt lat="44.39532" lon="5.73351">
        <ele>638.40002441406</ele>
        <time>2013-05-12T05:05:43Z</time>
      </trkpt>
      <trkpt lat="44.3953" lon="5.73361">
        <ele>640</ele>
        <time>2013-05-12T05:05:47Z</time>
      </trkpt>
      <trkpt lat="44.39528" lon="5.73374">
        <ele>640</ele>
        <time>2013-05-12T05:05:53Z</time>
      </trkpt>
      <trkpt lat="44.39528" lon="5.73382">
        <ele>641.40002441406</ele>
        <time>2013-05-12T05:05:57Z</time>
      </trkpt>
      <trkpt lat="44.39529" lon="5.73396">
        <ele>642.79998779297</ele>
        <time>2013-05-12T05:06:05Z</time>
      </trkpt>
      <trkpt lat="44.3953" lon="5.73401">
        <ele>644</ele>
        <time>2013-05-12T05:06:08Z</time>
      </trkpt>
      <trkpt lat="44.3952" lon="5.7341">
        <ele>647.20001220703</ele>
        <time>2013-05-12T05:06:22Z</time>
      </trkpt>
      <trkpt lat="44.39518" lon="5.7341">
        <ele>647.59997558594</ele>
        <time>2013-05-12T05:06:23Z</time>
      </trkpt>
      <trkpt lat="44.39503" lon="5.73415">
        <ele>649</ele>
        <time>2013-05-12T05:06:30Z</time>
      </trkpt>
      <trkpt lat="44.39489" lon="5.73431">
        <ele>649</ele>
        <time>2013-05-12T05:06:37Z</time>
      </trkpt>
      <trkpt lat="44.39485" lon="5.7345">
        <ele>649</ele>
        <time>2013-05-12T05:06:42Z</time>
      </trkpt>
      <trkpt lat="44.39483" lon="5.73475">
        <ele>649</ele>
        <time>2013-05-12T05:06:48Z</time>
      </trkpt>
      <trkpt lat="44.39468" lon="5.73489">
        <ele>649</ele>
        <time>2013-05-12T05:06:53Z</time>
      </trkpt>
      <trkpt lat="44.39463" lon="5.73495">
        <ele>648.40002441406</ele>
        <time>2013-05-12T05:06:55Z</time>
      </trkpt>
      <trkpt lat="44.3946" lon="5.73498">
        <ele>648</ele>
        <time>2013-05-12T05:06:56Z</time>
      </trkpt>
      <trkpt lat="44.39457" lon="5.73503">
        <ele>647.59997558594</ele>
        <time>2013-05-12T05:06:57Z</time>
      </trkpt>
      <trkpt lat="44.3945" lon="5.73511">
        <ele>646.59997558594</ele>
        <time>2013-05-12T05:06:59Z</time>
      </trkpt>
      <trkpt lat="44.3943" lon="5.73529">
        <ele>646.59997558594</ele>
        <time>2013-05-12T05:07:04Z</time>
      </trkpt>
      <trkpt lat="44.39404" lon="5.73547">
        <ele>646.59997558594</ele>
        <time>2013-05-12T05:07:11Z</time>
      </trkpt>
      <trkpt lat="44.39384" lon="5.73566">
        <ele>646.59997558594</ele>
        <time>2013-05-12T05:07:17Z</time>
      </trkpt>
      <trkpt lat="44.39365" lon="5.73574">
        <ele>646.59997558594</ele>
        <time>2013-05-12T05:07:21Z</time>
      </trkpt>
      <trkpt lat="44.39356" lon="5.73577">
        <ele>646.59997558594</ele>
        <time>2013-05-12T05:07:23Z</time>
      </trkpt>
      <trkpt lat="44.39346" lon="5.73586">
        <ele>646.20001220703</ele>
        <time>2013-05-12T05:07:25Z</time>
      </trkpt>
      <trkpt lat="44.39341" lon="5.73591">
        <ele>645.59997558594</ele>
        <time>2013-05-12T05:07:26Z</time>
      </trkpt>
      <trkpt lat="44.39336" lon="5.73595">
        <ele>645.20001220703</ele>
        <time>2013-05-12T05:07:27Z</time>
      </trkpt>
      <trkpt lat="44.39327" lon="5.73603">
        <ele>644.20001220703</ele>
        <time>2013-05-12T05:07:29Z</time>
      </trkpt>
      <trkpt lat="44.3931" lon="5.73607">
        <ele>644.20001220703</ele>
        <time>2013-05-12T05:07:33Z</time>
      </trkpt>
      <trkpt lat="44.39292" lon="5.73596">
        <ele>644.20001220703</ele>
        <time>2013-05-12T05:07:38Z</time>
      </trkpt>
      <trkpt lat="44.39271" lon="5.73584">
        <ele>644.20001220703</ele>
        <time>2013-05-12T05:07:43Z</time>
      </trkpt>
      <trkpt lat="44.39257" lon="5.73566">
        <ele>644.20001220703</ele>
        <time>2013-05-12T05:07:47Z</time>
      </trkpt>
      <trkpt lat="44.39246" lon="5.73552">
        <ele>644.20001220703</ele>
        <time>2013-05-12T05:07:50Z</time>
      </trkpt>
      <trkpt lat="44.39237" lon="5.73545">
        <ele>644.20001220703</ele>
        <time>2013-05-12T05:07:52Z</time>
      </trkpt>
      <trkpt lat="44.39211" lon="5.73533">
        <ele>644.20001220703</ele>
        <time>2013-05-12T05:07:58Z</time>
      </trkpt>
      <trkpt lat="44.39206" lon="5.7353">
        <ele>644.20001220703</ele>
        <time>2013-05-12T05:07:59Z</time>
      </trkpt>
      <trkpt lat="44.39192" lon="5.73528">
        <ele>644.20001220703</ele>
        <time>2013-05-12T05:08:02Z</time>
      </trkpt>
      <trkpt lat="44.39182" lon="5.73534">
        <ele>644.20001220703</ele>
        <time>2013-05-12T05:08:04Z</time>
      </trkpt>
      <trkpt lat="44.39169" lon="5.73553">
        <ele>644.20001220703</ele>
        <time>2013-05-12T05:08:08Z</time>
      </trkpt>
      <trkpt lat="44.39155" lon="5.73581">
        <ele>644.20001220703</ele>
        <time>2013-05-12T05:08:13Z</time>
      </trkpt>
      <trkpt lat="44.39137" lon="5.73625">
        <ele>644.20001220703</ele>
        <time>2013-05-12T05:08:20Z</time>
      </trkpt>
      <trkpt lat="44.39114" lon="5.73664">
        <ele>643.79998779297</ele>
        <time>2013-05-12T05:08:27Z</time>
      </trkpt>
      <trkpt lat="44.39108" lon="5.73675">
        <ele>643</ele>
        <time>2013-05-12T05:08:29Z</time>
      </trkpt>
      <trkpt lat="44.39104" lon="5.73682">
        <ele>642.59997558594</ele>
        <time>2013-05-12T05:08:30Z</time>
      </trkpt>
      <trkpt lat="44.39097" lon="5.73701">
        <ele>642.20001220703</ele>
        <time>2013-05-12T05:08:33Z</time>
      </trkpt>
      <trkpt lat="44.39093" lon="5.73714">
        <ele>642.20001220703</ele>
        <time>2013-05-12T05:08:35Z</time>
      </trkpt>
      <trkpt lat="44.39085" lon="5.73756">
        <ele>642.20001220703</ele>
        <time>2013-05-12T05:08:41Z</time>
      </trkpt>
      <trkpt lat="44.39085" lon="5.7379">
        <ele>642.20001220703</ele>
        <time>2013-05-12T05:08:46Z</time>
      </trkpt>
      <trkpt lat="44.39079" lon="5.73814">
        <ele>642.20001220703</ele>
        <time>2013-05-12T05:08:50Z</time>
      </trkpt>
      <trkpt lat="44.39072" lon="5.73836">
        <ele>642.20001220703</ele>
        <time>2013-05-12T05:08:53Z</time>
      </trkpt>
      <trkpt lat="44.3907" lon="5.73861">
        <ele>641.79998779297</ele>
        <time>2013-05-12T05:08:56Z</time>
      </trkpt>
      <trkpt lat="44.39068" lon="5.73877">
        <ele>640.79998779297</ele>
        <time>2013-05-12T05:08:58Z</time>
      </trkpt>
      <trkpt lat="44.39066" lon="5.73885">
        <ele>640.40002441406</ele>
        <time>2013-05-12T05:08:59Z</time>
      </trkpt>
      <trkpt lat="44.39064" lon="5.73892">
        <ele>640</ele>
        <time>2013-05-12T05:09:00Z</time>
      </trkpt>
      <trkpt lat="44.39058" lon="5.73905">
        <ele>640</ele>
        <time>2013-05-12T05:09:02Z</time>
      </trkpt>
      <trkpt lat="44.39051" lon="5.73915">
        <ele>640</ele>
        <time>2013-05-12T05:09:05Z</time>
      </trkpt>
      <trkpt lat="44.39046" lon="5.73908">
        <ele>640</ele>
        <time>2013-05-12T05:09:07Z</time>
      </trkpt>
      <trkpt lat="44.39044" lon="5.73876">
        <ele>640</ele>
        <time>2013-05-12T05:09:12Z</time>
      </trkpt>
      <trkpt lat="44.39042" lon="5.73869">
        <ele>639.59997558594</ele>
        <time>2013-05-12T05:09:13Z</time>
      </trkpt>
      <trkpt lat="44.39039" lon="5.73855">
        <ele>638.59997558594</ele>
        <time>2013-05-12T05:09:15Z</time>
      </trkpt>
      <trkpt lat="44.39038" lon="5.73847">
        <ele>638.20001220703</ele>
        <time>2013-05-12T05:09:16Z</time>
      </trkpt>
      <trkpt lat="44.39037" lon="5.73839">
        <ele>637.79998779297</ele>
        <time>2013-05-12T05:09:17Z</time>
      </trkpt>
      <trkpt lat="44.39032" lon="5.73805">
        <ele>637.40002441406</ele>
        <time>2013-05-12T05:09:21Z</time>
      </trkpt>
      <trkpt lat="44.3903" lon="5.73795">
        <ele>637</ele>
        <time>2013-05-12T05:09:22Z</time>
      </trkpt>
      <trkpt lat="44.39029" lon="5.73784">
        <ele>636.59997558594</ele>
        <time>2013-05-12T05:09:23Z</time>
      </trkpt>
      <trkpt lat="44.39027" lon="5.73774">
        <ele>636.20001220703</ele>
        <time>2013-05-12T05:09:24Z</time>
      </trkpt>
      <trkpt lat="44.39026" lon="5.73765">
        <ele>635.79998779297</ele>
        <time>2013-05-12T05:09:25Z</time>
      </trkpt>
      <trkpt lat="44.39023" lon="5.73746">
        <ele>635.40002441406</ele>
        <time>2013-05-12T05:09:27Z</time>
      </trkpt>
      <trkpt lat="44.39021" lon="5.73735">
        <ele>634.79998779297</ele>
        <time>2013-05-12T05:09:28Z</time>
      </trkpt>
      <trkpt lat="44.39018" lon="5.73728">
        <ele>634.40002441406</ele>
        <time>2013-05-12T05:09:29Z</time>
      </trkpt>
      <trkpt lat="44.39008" lon="5.73721">
        <ele>633.59997558594</ele>
        <time>2013-05-12T05:09:31Z</time>
      </trkpt>
      <trkpt lat="44.38988" lon="5.73728">
        <ele>633.59997558594</ele>
        <time>2013-05-12T05:09:34Z</time>
      </trkpt>
      <trkpt lat="44.38976" lon="5.73735">
        <ele>633.20001220703</ele>
        <time>2013-05-12T05:09:36Z</time>
      </trkpt>
      <trkpt lat="44.3897" lon="5.73738">
        <ele>632.79998779297</ele>
        <time>2013-05-12T05:09:37Z</time>
      </trkpt>
      <trkpt lat="44.38964" lon="5.73741">
        <ele>632.40002441406</ele>
        <time>2013-05-12T05:09:38Z</time>
      </trkpt>
      <trkpt lat="44.38958" lon="5.73743">
        <ele>632</ele>
        <time>2013-05-12T05:09:39Z</time>
      </trkpt>
      <trkpt lat="44.38931" lon="5.73733">
        <ele>631.59997558594</ele>
        <time>2013-05-12T05:09:43Z</time>
      </trkpt>
      <trkpt lat="44.38925" lon="5.73728">
        <ele>631.20001220703</ele>
        <time>2013-05-12T05:09:44Z</time>
      </trkpt>
      <trkpt lat="44.38918" lon="5.73725">
        <ele>630.59997558594</ele>
        <time>2013-05-12T05:09:45Z</time>
      </trkpt>
      <trkpt lat="44.38905" lon="5.73728">
        <ele>629.59997558594</ele>
        <time>2013-05-12T05:09:47Z</time>
      </trkpt>
      <trkpt lat="44.38899" lon="5.73732">
        <ele>629.20001220703</ele>
        <time>2013-05-12T05:09:48Z</time>
      </trkpt>
      <trkpt lat="44.38888" lon="5.73742">
        <ele>629.20001220703</ele>
        <time>2013-05-12T05:09:50Z</time>
      </trkpt>
      <trkpt lat="44.38846" lon="5.73783">
        <ele>629.20001220703</ele>
        <time>2013-05-12T05:09:58Z</time>
      </trkpt>
      <trkpt lat="44.38813" lon="5.73811">
        <ele>629.20001220703</ele>
        <time>2013-05-12T05:10:04Z</time>
      </trkpt>
      <trkpt lat="44.38766" lon="5.73862">
        <ele>629.20001220703</ele>
        <time>2013-05-12T05:10:13Z</time>
      </trkpt>
      <trkpt lat="44.3872" lon="5.73912">
        <ele>629.20001220703</ele>
        <time>2013-05-12T05:10:22Z</time>
      </trkpt>
      <trkpt lat="44.38715" lon="5.73918">
        <ele>629.20001220703</ele>
        <time>2013-05-12T05:10:23Z</time>
      </trkpt>
      <trkpt lat="44.3867" lon="5.73969">
        <ele>629.20001220703</ele>
        <time>2013-05-12T05:10:32Z</time>
      </trkpt>
      <trkpt lat="44.3866" lon="5.73981">
        <ele>629.20001220703</ele>
        <time>2013-05-12T05:10:34Z</time>
      </trkpt>
      <trkpt lat="44.38624" lon="5.74018">
        <ele>629.20001220703</ele>
        <time>2013-05-12T05:10:41Z</time>
      </trkpt>
      <trkpt lat="44.38613" lon="5.74026">
        <ele>628.79998779297</ele>
        <time>2013-05-12T05:10:43Z</time>
      </trkpt>
      <trkpt lat="44.38607" lon="5.7403">
        <ele>628.40002441406</ele>
        <time>2013-05-12T05:10:44Z</time>
      </trkpt>
      <trkpt lat="44.38596" lon="5.74038">
        <ele>627.59997558594</ele>
        <time>2013-05-12T05:10:46Z</time>
      </trkpt>
      <trkpt lat="44.38591" lon="5.74041">
        <ele>627.20001220703</ele>
        <time>2013-05-12T05:10:47Z</time>
      </trkpt>
      <trkpt lat="44.38574" lon="5.74054">
        <ele>627.20001220703</ele>
        <time>2013-05-12T05:10:50Z</time>
      </trkpt>
      <trkpt lat="44.3854" lon="5.74087">
        <ele>627.20001220703</ele>
        <time>2013-05-12T05:10:57Z</time>
      </trkpt>
      <trkpt lat="44.38536" lon="5.74092">
        <ele>627.20001220703</ele>
        <time>2013-05-12T05:10:58Z</time>
      </trkpt>
      <trkpt lat="44.38531" lon="5.74114">
        <ele>627.20001220703</ele>
        <time>2013-05-12T05:11:01Z</time>
      </trkpt>
      <trkpt lat="44.38532" lon="5.74129">
        <ele>627.20001220703</ele>
        <time>2013-05-12T05:11:03Z</time>
      </trkpt>
      <trkpt lat="44.38535" lon="5.74156">
        <ele>627.20001220703</ele>
        <time>2013-05-12T05:11:07Z</time>
      </trkpt>
      <trkpt lat="44.3854" lon="5.74207">
        <ele>627.20001220703</ele>
        <time>2013-05-12T05:11:15Z</time>
      </trkpt>
      <trkpt lat="44.3854" lon="5.74212">
        <ele>627.20001220703</ele>
        <time>2013-05-12T05:11:16Z</time>
      </trkpt>
      <trkpt lat="44.38542" lon="5.74239">
        <ele>627.59997558594</ele>
        <time>2013-05-12T05:11:21Z</time>
      </trkpt>
      <trkpt lat="44.38543" lon="5.74244">
        <ele>628</ele>
        <time>2013-05-12T05:11:22Z</time>
      </trkpt>
      <trkpt lat="44.38549" lon="5.74292">
        <ele>629.40002441406</ele>
        <time>2013-05-12T05:11:31Z</time>
      </trkpt>
      <trkpt lat="44.3855" lon="5.74309">
        <ele>629.40002441406</ele>
        <time>2013-05-12T05:11:34Z</time>
      </trkpt>
      <trkpt lat="44.38551" lon="5.74335">
        <ele>630.79998779297</ele>
        <time>2013-05-12T05:11:39Z</time>
      </trkpt>
      <trkpt lat="44.38551" lon="5.74347">
        <ele>630.79998779297</ele>
        <time>2013-05-12T05:11:41Z</time>
      </trkpt>
      <trkpt lat="44.38546" lon="5.74387">
        <ele>632.20001220703</ele>
        <time>2013-05-12T05:11:47Z</time>
      </trkpt>
      <trkpt lat="44.38544" lon="5.74394">
        <ele>633</ele>
        <time>2013-05-12T05:11:48Z</time>
      </trkpt>
      <trkpt lat="44.38542" lon="5.74401">
        <ele>633.79998779297</ele>
        <time>2013-05-12T05:11:49Z</time>
      </trkpt>
      <trkpt lat="44.3854" lon="5.74425">
        <ele>633.79998779297</ele>
        <time>2013-05-12T05:11:53Z</time>
      </trkpt>
      <trkpt lat="44.38544" lon="5.74439">
        <ele>633.79998779297</ele>
        <time>2013-05-12T05:11:56Z</time>
      </trkpt>
      <trkpt lat="44.38554" lon="5.74442">
        <ele>633.79998779297</ele>
        <time>2013-05-12T05:11:59Z</time>
      </trkpt>
      <trkpt lat="44.3856" lon="5.7444">
        <ele>634.59997558594</ele>
        <time>2013-05-12T05:12:01Z</time>
      </trkpt>
      <trkpt lat="44.38563" lon="5.74439">
        <ele>635</ele>
        <time>2013-05-12T05:12:02Z</time>
      </trkpt>
      <trkpt lat="44.38572" lon="5.74433">
        <ele>635.79998779297</ele>
        <time>2013-05-12T05:12:05Z</time>
      </trkpt>
      <trkpt lat="44.38586" lon="5.74418">
        <ele>635.79998779297</ele>
        <time>2013-05-12T05:12:11Z</time>
      </trkpt>
      <trkpt lat="44.38591" lon="5.74415">
        <ele>636.40002441406</ele>
        <time>2013-05-12T05:12:13Z</time>
      </trkpt>
      <trkpt lat="44.38602" lon="5.74411">
        <ele>638.20001220703</ele>
        <time>2013-05-12T05:12:17Z</time>
      </trkpt>
      <trkpt lat="44.38616" lon="5.74409">
        <ele>638.59997558594</ele>
        <time>2013-05-12T05:12:22Z</time>
      </trkpt>
      <trkpt lat="44.38622" lon="5.74409">
        <ele>639.40002441406</ele>
        <time>2013-05-12T05:12:24Z</time>
      </trkpt>
      <trkpt lat="44.38648" lon="5.74406">
        <ele>640.79998779297</ele>
        <time>2013-05-12T05:12:33Z</time>
      </trkpt>
      <trkpt lat="44.38651" lon="5.74406">
        <ele>641.20001220703</ele>
        <time>2013-05-12T05:12:34Z</time>
      </trkpt>
      <trkpt lat="44.38665" lon="5.74404">
        <ele>642.40002441406</ele>
        <time>2013-05-12T05:12:39Z</time>
      </trkpt>
      <trkpt lat="44.3868" lon="5.74402">
        <ele>642.79998779297</ele>
        <time>2013-05-12T05:12:44Z</time>
      </trkpt>
      <trkpt lat="44.38683" lon="5.74402">
        <ele>643.20001220703</ele>
        <time>2013-05-12T05:12:45Z</time>
      </trkpt>
      <trkpt lat="44.38692" lon="5.744">
        <ele>644.59997558594</ele>
        <time>2013-05-12T05:12:48Z</time>
      </trkpt>
      <trkpt lat="44.3871" lon="5.74397">
        <ele>645</ele>
        <time>2013-05-12T05:12:54Z</time>
      </trkpt>
      <trkpt lat="44.38712" lon="5.74397">
        <ele>645.40002441406</ele>
        <time>2013-05-12T05:12:55Z</time>
      </trkpt>
      <trkpt lat="44.3872" lon="5.74394">
        <ele>646.59997558594</ele>
        <time>2013-05-12T05:12:58Z</time>
      </trkpt>
      <trkpt lat="44.38736" lon="5.74391">
        <ele>647</ele>
        <time>2013-05-12T05:13:04Z</time>
      </trkpt>
      <trkpt lat="44.38741" lon="5.74391">
        <ele>647.79998779297</ele>
        <time>2013-05-12T05:13:06Z</time>
      </trkpt>
      <trkpt lat="44.38759" lon="5.74402">
        <ele>648.59997558594</ele>
        <time>2013-05-12T05:13:14Z</time>
      </trkpt>
      <trkpt lat="44.38774" lon="5.74432">
        <ele>648.59997558594</ele>
        <time>2013-05-12T05:13:22Z</time>
      </trkpt>
      <trkpt lat="44.38785" lon="5.7444">
        <ele>648.59997558594</ele>
        <time>2013-05-12T05:13:25Z</time>
      </trkpt>
      <trkpt lat="44.38789" lon="5.7444">
        <ele>648.59997558594</ele>
        <time>2013-05-12T05:13:26Z</time>
      </trkpt>
      <trkpt lat="44.38802" lon="5.74431">
        <ele>648.59997558594</ele>
        <time>2013-05-12T05:13:29Z</time>
      </trkpt>
      <trkpt lat="44.3881" lon="5.74417">
        <ele>648.59997558594</ele>
        <time>2013-05-12T05:13:31Z</time>
      </trkpt>
      <trkpt lat="44.3882" lon="5.74402">
        <ele>648.59997558594</ele>
        <time>2013-05-12T05:13:33Z</time>
      </trkpt>
      <trkpt lat="44.38826" lon="5.74396">
        <ele>648.20001220703</ele>
        <time>2013-05-12T05:13:34Z</time>
      </trkpt>
      <trkpt lat="44.38833" lon="5.7439">
        <ele>647.59997558594</ele>
        <time>2013-05-12T05:13:35Z</time>
      </trkpt>
      <trkpt lat="44.3884" lon="5.74384">
        <ele>647.20001220703</ele>
        <time>2013-05-12T05:13:36Z</time>
      </trkpt>
      <trkpt lat="44.38847" lon="5.74378">
        <ele>646.59997558594</ele>
        <time>2013-05-12T05:13:37Z</time>
      </trkpt>
      <trkpt lat="44.38855" lon="5.74372">
        <ele>645.79998779297</ele>
        <time>2013-05-12T05:13:38Z</time>
      </trkpt>
      <trkpt lat="44.38861" lon="5.74367">
        <ele>645.20001220703</ele>
        <time>2013-05-12T05:13:39Z</time>
      </trkpt>
      <trkpt lat="44.38875" lon="5.74355">
        <ele>644</ele>
        <time>2013-05-12T05:13:41Z</time>
      </trkpt>
      <trkpt lat="44.38889" lon="5.74346">
        <ele>644</ele>
        <time>2013-05-12T05:13:43Z</time>
      </trkpt>
      <trkpt lat="44.38896" lon="5.74345">
        <ele>644</ele>
        <time>2013-05-12T05:13:44Z</time>
      </trkpt>
      <trkpt lat="44.38907" lon="5.74353">
        <ele>644</ele>
        <time>2013-05-12T05:13:46Z</time>
      </trkpt>
      <trkpt lat="44.38916" lon="5.74376">
        <ele>644</ele>
        <time>2013-05-12T05:13:49Z</time>
      </trkpt>
      <trkpt lat="44.38921" lon="5.74392">
        <ele>643.59997558594</ele>
        <time>2013-05-12T05:13:51Z</time>
      </trkpt>
      <trkpt lat="44.38923" lon="5.74401">
        <ele>643</ele>
        <time>2013-05-12T05:13:52Z</time>
      </trkpt>
      <trkpt lat="44.38927" lon="5.74419">
        <ele>642.20001220703</ele>
        <time>2013-05-12T05:13:54Z</time>
      </trkpt>
      <trkpt lat="44.38929" lon="5.74429">
        <ele>641.59997558594</ele>
        <time>2013-05-12T05:13:55Z</time>
      </trkpt>
      <trkpt lat="44.38931" lon="5.7444">
        <ele>641.20001220703</ele>
        <time>2013-05-12T05:13:56Z</time>
      </trkpt>
      <trkpt lat="44.38933" lon="5.74449">
        <ele>640.79998779297</ele>
        <time>2013-05-12T05:13:57Z</time>
      </trkpt>
      <trkpt lat="44.38936" lon="5.74458">
        <ele>640.20001220703</ele>
        <time>2013-05-12T05:13:58Z</time>
      </trkpt>
      <trkpt lat="44.38939" lon="5.74467">
        <ele>639.79998779297</ele>
        <time>2013-05-12T05:13:59Z</time>
      </trkpt>
      <trkpt lat="44.38942" lon="5.74475">
        <ele>639.40002441406</ele>
        <time>2013-05-12T05:14:00Z</time>
      </trkpt>
      <trkpt lat="44.38956" lon="5.74507">
        <ele>639.40002441406</ele>
        <time>2013-05-12T05:14:05Z</time>
      </trkpt>
      <trkpt lat="44.38974" lon="5.74547">
        <ele>639.40002441406</ele>
        <time>2013-05-12T05:14:13Z</time>
      </trkpt>
      <trkpt lat="44.38993" lon="5.74583">
        <ele>639.40002441406</ele>
        <time>2013-05-12T05:14:22Z</time>
      </trkpt>
      <trkpt lat="44.38998" lon="5.7459">
        <ele>639.79998779297</ele>
        <time>2013-05-12T05:14:24Z</time>
      </trkpt>
      <trkpt lat="44.39001" lon="5.74594">
        <ele>640.20001220703</ele>
        <time>2013-05-12T05:14:25Z</time>
      </trkpt>
      <trkpt lat="44.39005" lon="5.74603">
        <ele>641</ele>
        <time>2013-05-12T05:14:27Z</time>
      </trkpt>
      <trkpt lat="44.3901" lon="5.74617">
        <ele>641.40002441406</ele>
        <time>2013-05-12T05:14:30Z</time>
      </trkpt>
      <trkpt lat="44.39012" lon="5.74638">
        <ele>641.40002441406</ele>
        <time>2013-05-12T05:14:35Z</time>
      </trkpt>
      <trkpt lat="44.39009" lon="5.74641">
        <ele>641.79998779297</ele>
        <time>2013-05-12T05:14:36Z</time>
      </trkpt>
      <trkpt lat="44.39" lon="5.74646">
        <ele>643.59997558594</ele>
        <time>2013-05-12T05:14:40Z</time>
      </trkpt>
      <trkpt lat="44.38993" lon="5.7465">
        <ele>644</ele>
        <time>2013-05-12T05:14:45Z</time>
      </trkpt>
      <trkpt lat="44.38988" lon="5.74652">
        <ele>645</ele>
        <time>2013-05-12T05:14:47Z</time>
      </trkpt>
      <trkpt lat="44.38977" lon="5.74655">
        <ele>645.79998779297</ele>
        <time>2013-05-12T05:14:52Z</time>
      </trkpt>
      <trkpt lat="44.3896" lon="5.74657">
        <ele>646.20001220703</ele>
        <time>2013-05-12T05:14:59Z</time>
      </trkpt>
      <trkpt lat="44.3895" lon="5.74658">
        <ele>647.79998779297</ele>
        <time>2013-05-12T05:15:03Z</time>
      </trkpt>
      <trkpt lat="44.38933" lon="5.74663">
        <ele>647.79998779297</ele>
        <time>2013-05-12T05:15:09Z</time>
      </trkpt>
      <trkpt lat="44.38926" lon="5.74675">
        <ele>647.79998779297</ele>
        <time>2013-05-12T05:15:13Z</time>
      </trkpt>
      <trkpt lat="44.38927" lon="5.74695">
        <ele>647.79998779297</ele>
        <time>2013-05-12T05:15:18Z</time>
      </trkpt>
      <trkpt lat="44.38928" lon="5.74709">
        <ele>648.40002441406</ele>
        <time>2013-05-12T05:15:22Z</time>
      </trkpt>
      <trkpt lat="44.38928" lon="5.74713">
        <ele>648.79998779297</ele>
        <time>2013-05-12T05:15:23Z</time>
      </trkpt>
      <trkpt lat="44.38924" lon="5.74721">
        <ele>650.20001220703</ele>
        <time>2013-05-12T05:15:26Z</time>
      </trkpt>
      <trkpt lat="44.38919" lon="5.74723">
        <ele>650.20001220703</ele>
        <time>2013-05-12T05:15:28Z</time>
      </trkpt>
      <trkpt lat="44.38898" lon="5.74729">
        <ele>650.20001220703</ele>
        <time>2013-05-12T05:15:35Z</time>
      </trkpt>
      <trkpt lat="44.38865" lon="5.74739">
        <ele>650.20001220703</ele>
        <time>2013-05-12T05:15:44Z</time>
      </trkpt>
      <trkpt lat="44.38848" lon="5.74746">
        <ele>650.20001220703</ele>
        <time>2013-05-12T05:15:48Z</time>
      </trkpt>
      <trkpt lat="44.38838" lon="5.74752">
        <ele>650.20001220703</ele>
        <time>2013-05-12T05:15:51Z</time>
      </trkpt>
      <trkpt lat="44.38829" lon="5.74755">
        <ele>649.20001220703</ele>
        <time>2013-05-12T05:15:54Z</time>
      </trkpt>
      <trkpt lat="44.38821" lon="5.74761">
        <ele>647.79998779297</ele>
        <time>2013-05-12T05:15:56Z</time>
      </trkpt>
      <trkpt lat="44.38818" lon="5.74764">
        <ele>647.20001220703</ele>
        <time>2013-05-12T05:15:57Z</time>
      </trkpt>
      <trkpt lat="44.38815" lon="5.7477">
        <ele>645.40002441406</ele>
        <time>2013-05-12T05:16:00Z</time>
      </trkpt>
      <trkpt lat="44.38809" lon="5.74776">
        <ele>643</ele>
        <time>2013-05-12T05:16:15Z</time>
      </trkpt>
      <trkpt lat="44.38803" lon="5.74783">
        <ele>641.59997558594</ele>
        <time>2013-05-12T05:16:34Z</time>
      </trkpt>
      <trkpt lat="44.388" lon="5.74789">
        <ele>644.20001220703</ele>
        <time>2013-05-12T05:16:44Z</time>
      </trkpt>
      <trkpt lat="44.38791" lon="5.7479">
        <ele>648</ele>
        <time>2013-05-12T05:17:14Z</time>
      </trkpt>
      <trkpt lat="44.38789" lon="5.7479">
        <ele>649.79998779297</ele>
        <time>2013-05-12T05:17:18Z</time>
      </trkpt>
      <trkpt lat="44.3878" lon="5.74797">
        <ele>653.79998779297</ele>
        <time>2013-05-12T05:17:41Z</time>
      </trkpt>
      <trkpt lat="44.38775" lon="5.74801">
        <ele>654.20001220703</ele>
        <time>2013-05-12T05:17:52Z</time>
      </trkpt>
      <trkpt lat="44.3877" lon="5.74809">
        <ele>656.59997558594</ele>
        <time>2013-05-12T05:18:07Z</time>
      </trkpt>
      <trkpt lat="44.38769" lon="5.7481">
        <ele>657.40002441406</ele>
        <time>2013-05-12T05:18:09Z</time>
      </trkpt>
      <trkpt lat="44.38762" lon="5.7482">
        <ele>660.40002441406</ele>
        <time>2013-05-12T05:18:25Z</time>
      </trkpt>
      <trkpt lat="44.38759" lon="5.74827">
        <ele>660.79998779297</ele>
        <time>2013-05-12T05:18:39Z</time>
      </trkpt>
      <trkpt lat="44.38756" lon="5.7483">
        <ele>662.40002441406</ele>
        <time>2013-05-12T05:18:43Z</time>
      </trkpt>
      <trkpt lat="44.3875" lon="5.7484">
        <ele>663.59997558594</ele>
        <time>2013-05-12T05:18:54Z</time>
      </trkpt>
      <trkpt lat="44.3875" lon="5.74842">
        <ele>664.59997558594</ele>
        <time>2013-05-12T05:18:56Z</time>
      </trkpt>
      <trkpt lat="44.38742" lon="5.74853">
        <ele>665</ele>
        <time>2013-05-12T05:19:10Z</time>
      </trkpt>
      <trkpt lat="44.38736" lon="5.74864">
        <ele>666.59997558594</ele>
        <time>2013-05-12T05:19:22Z</time>
      </trkpt>
      <trkpt lat="44.38734" lon="5.74871">
        <ele>667.59997558594</ele>
        <time>2013-05-12T05:19:30Z</time>
      </trkpt>
      <trkpt lat="44.38727" lon="5.74878">
        <ele>669</ele>
        <time>2013-05-12T05:19:41Z</time>
      </trkpt>
      <trkpt lat="44.38721" lon="5.74883">
        <ele>671</ele>
        <time>2013-05-12T05:20:02Z</time>
      </trkpt>
      <trkpt lat="44.38718" lon="5.74882">
        <ele>671</ele>
        <time>2013-05-12T05:20:09Z</time>
      </trkpt>
      <trkpt lat="44.38703" lon="5.74887">
        <ele>671</ele>
        <time>2013-05-12T05:20:27Z</time>
      </trkpt>
      <trkpt lat="44.38694" lon="5.74889">
        <ele>671</ele>
        <time>2013-05-12T05:20:32Z</time>
      </trkpt>
      <trkpt lat="44.38684" lon="5.74902">
        <ele>671</ele>
        <time>2013-05-12T05:20:38Z</time>
      </trkpt>
      <trkpt lat="44.3868" lon="5.74907">
        <ele>671.79998779297</ele>
        <time>2013-05-12T05:20:42Z</time>
      </trkpt>
      <trkpt lat="44.38678" lon="5.74911">
        <ele>673.20001220703</ele>
        <time>2013-05-12T05:20:45Z</time>
      </trkpt>
      <trkpt lat="44.38674" lon="5.7492">
        <ele>673.59997558594</ele>
        <time>2013-05-12T05:20:52Z</time>
      </trkpt>
      <trkpt lat="44.38668" lon="5.74931">
        <ele>675.79998779297</ele>
        <time>2013-05-12T05:21:02Z</time>
      </trkpt>
      <trkpt lat="44.38664" lon="5.7494">
        <ele>678.40002441406</ele>
        <time>2013-05-12T05:21:14Z</time>
      </trkpt>
      <trkpt lat="44.38659" lon="5.74951">
        <ele>680.20001220703</ele>
        <time>2013-05-12T05:21:26Z</time>
      </trkpt>
      <trkpt lat="44.38654" lon="5.74961">
        <ele>683.20001220703</ele>
        <time>2013-05-12T05:21:39Z</time>
      </trkpt>
      <trkpt lat="44.3865" lon="5.74973">
        <ele>684.79998779297</ele>
        <time>2013-05-12T05:21:53Z</time>
      </trkpt>
      <trkpt lat="44.38644" lon="5.74984">
        <ele>686.79998779297</ele>
        <time>2013-05-12T05:22:04Z</time>
      </trkpt>
      <trkpt lat="44.38638" lon="5.74993">
        <ele>688.59997558594</ele>
        <time>2013-05-12T05:22:14Z</time>
      </trkpt>
      <trkpt lat="44.3863" lon="5.74999">
        <ele>688.59997558594</ele>
        <time>2013-05-12T05:22:24Z</time>
      </trkpt>
      <trkpt lat="44.38628" lon="5.75">
        <ele>689</ele>
        <time>2013-05-12T05:22:27Z</time>
      </trkpt>
      <trkpt lat="44.38615" lon="5.75009">
        <ele>692.79998779297</ele>
        <time>2013-05-12T05:22:58Z</time>
      </trkpt>
      <trkpt lat="44.38612" lon="5.7501">
        <ele>694.59997558594</ele>
        <time>2013-05-12T05:23:02Z</time>
      </trkpt>
      <trkpt lat="44.38609" lon="5.75012">
        <ele>695.40002441406</ele>
        <time>2013-05-12T05:23:07Z</time>
      </trkpt>
      <trkpt lat="44.38597" lon="5.75017">
        <ele>699.59997558594</ele>
        <time>2013-05-12T05:23:28Z</time>
      </trkpt>
      <trkpt lat="44.38592" lon="5.75021">
        <ele>701.59997558594</ele>
        <time>2013-05-12T05:24:00Z</time>
      </trkpt>
      <trkpt lat="44.38589" lon="5.75022">
        <ele>703.40002441406</ele>
        <time>2013-05-12T05:24:04Z</time>
      </trkpt>
      <trkpt lat="44.38582" lon="5.7503">
        <ele>707.40002441406</ele>
        <time>2013-05-12T05:24:27Z</time>
      </trkpt>
      <trkpt lat="44.38577" lon="5.75029">
        <ele>708</ele>
        <time>2013-05-12T05:24:36Z</time>
      </trkpt>
      <trkpt lat="44.38575" lon="5.7503">
        <ele>709.79998779297</ele>
        <time>2013-05-12T05:24:40Z</time>
      </trkpt>
      <trkpt lat="44.3857" lon="5.75034">
        <ele>711</ele>
        <time>2013-05-12T05:24:47Z</time>
      </trkpt>
      <trkpt lat="44.3856" lon="5.7504">
        <ele>712.79998779297</ele>
        <time>2013-05-12T05:24:58Z</time>
      </trkpt>
      <trkpt lat="44.3856" lon="5.75041">
        <ele>713.40002441406</ele>
        <time>2013-05-12T05:24:59Z</time>
      </trkpt>
      <trkpt lat="44.38549" lon="5.75047">
        <ele>715.20001220703</ele>
        <time>2013-05-12T05:25:11Z</time>
      </trkpt>
      <trkpt lat="44.38539" lon="5.75054">
        <ele>716.40002441406</ele>
        <time>2013-05-12T05:25:23Z</time>
      </trkpt>
      <trkpt lat="44.38534" lon="5.75067">
        <ele>716.40002441406</ele>
        <time>2013-05-12T05:25:44Z</time>
      </trkpt>
      <trkpt lat="44.38526" lon="5.75079">
        <ele>716.40002441406</ele>
        <time>2013-05-12T05:25:51Z</time>
      </trkpt>
      <trkpt lat="44.38514" lon="5.75095">
        <ele>716.40002441406</ele>
        <time>2013-05-12T05:25:58Z</time>
      </trkpt>
      <trkpt lat="44.38509" lon="5.75105">
        <ele>716.79998779297</ele>
        <time>2013-05-12T05:26:03Z</time>
      </trkpt>
      <trkpt lat="44.38505" lon="5.75111">
        <ele>718</ele>
        <time>2013-05-12T05:26:06Z</time>
      </trkpt>
      <trkpt lat="44.38495" lon="5.75123">
        <ele>719</ele>
        <time>2013-05-12T05:26:13Z</time>
      </trkpt>
      <trkpt lat="44.3849" lon="5.75128">
        <ele>720.20001220703</ele>
        <time>2013-05-12T05:26:16Z</time>
      </trkpt>
      <trkpt lat="44.38486" lon="5.7513">
        <ele>720.59997558594</ele>
        <time>2013-05-12T05:26:17Z</time>
      </trkpt>
      <trkpt lat="44.38476" lon="5.75132">
        <ele>720.59997558594</ele>
        <time>2013-05-12T05:26:20Z</time>
      </trkpt>
      <trkpt lat="44.38465" lon="5.75131">
        <ele>720.59997558594</ele>
        <time>2013-05-12T05:26:25Z</time>
      </trkpt>
      <trkpt lat="44.38451" lon="5.75116">
        <ele>720.59997558594</ele>
        <time>2013-05-12T05:26:32Z</time>
      </trkpt>
      <trkpt lat="44.38439" lon="5.75106">
        <ele>720.59997558594</ele>
        <time>2013-05-12T05:26:39Z</time>
      </trkpt>
      <trkpt lat="44.3843" lon="5.75099">
        <ele>720.59997558594</ele>
        <time>2013-05-12T05:26:44Z</time>
      </trkpt>
      <trkpt lat="44.38419" lon="5.75089">
        <ele>720.59997558594</ele>
        <time>2013-05-12T05:26:49Z</time>
      </trkpt>
      <trkpt lat="44.38409" lon="5.75088">
        <ele>720.59997558594</ele>
        <time>2013-05-12T05:26:55Z</time>
      </trkpt>
      <trkpt lat="44.38405" lon="5.7509">
        <ele>720.59997558594</ele>
        <time>2013-05-12T05:26:58Z</time>
      </trkpt>
      <trkpt lat="44.38395" lon="5.75102">
        <ele>722.20001220703</ele>
        <time>2013-05-12T05:27:08Z</time>
      </trkpt>
      <trkpt lat="44.3839" lon="5.75115">
        <ele>723.59997558594</ele>
        <time>2013-05-12T05:27:16Z</time>
      </trkpt>
      <trkpt lat="44.3839" lon="5.75117">
        <ele>723.59997558594</ele>
        <time>2013-05-12T05:27:19Z</time>
      </trkpt>
      <trkpt lat="44.3839" lon="5.75122">
        <ele>723.59997558594</ele>
        <time>2013-05-12T05:27:24Z</time>
      </trkpt>
      <trkpt lat="44.38393" lon="5.75136">
        <ele>725</ele>
        <time>2013-05-12T05:27:36Z</time>
      </trkpt>
      <trkpt lat="44.38394" lon="5.75147">
        <ele>728</ele>
        <time>2013-05-12T05:27:45Z</time>
      </trkpt>
      <trkpt lat="44.38395" lon="5.75156">
        <ele>729.79998779297</ele>
        <time>2013-05-12T05:27:53Z</time>
      </trkpt>
      <trkpt lat="44.38396" lon="5.75164">
        <ele>731.20001220703</ele>
        <time>2013-05-12T05:28:01Z</time>
      </trkpt>
      <trkpt lat="44.38397" lon="5.75173">
        <ele>732.59997558594</ele>
        <time>2013-05-12T05:28:09Z</time>
      </trkpt>
      <trkpt lat="44.38399" lon="5.75181">
        <ele>734</ele>
        <time>2013-05-12T05:28:17Z</time>
      </trkpt>
      <trkpt lat="44.384" lon="5.75192">
        <ele>734.59997558594</ele>
        <time>2013-05-12T05:28:25Z</time>
      </trkpt>
      <trkpt lat="44.38402" lon="5.75203">
        <ele>735.20001220703</ele>
        <time>2013-05-12T05:28:33Z</time>
      </trkpt>
      <trkpt lat="44.38405" lon="5.7521">
        <ele>735.79998779297</ele>
        <time>2013-05-12T05:28:41Z</time>
      </trkpt>
      <trkpt lat="44.38407" lon="5.7522">
        <ele>738.40002441406</ele>
        <time>2013-05-12T05:28:51Z</time>
      </trkpt>
      <trkpt lat="44.38409" lon="5.7523">
        <ele>740.79998779297</ele>
        <time>2013-05-12T05:29:01Z</time>
      </trkpt>
      <trkpt lat="44.38411" lon="5.75232">
        <ele>741.59997558594</ele>
        <time>2013-05-12T05:29:03Z</time>
      </trkpt>
      <trkpt lat="44.38414" lon="5.75241">
        <ele>742.40002441406</ele>
        <time>2013-05-12T05:29:13Z</time>
      </trkpt>
      <trkpt lat="44.38419" lon="5.75251">
        <ele>744.40002441406</ele>
        <time>2013-05-12T05:29:27Z</time>
      </trkpt>
      <trkpt lat="44.3842" lon="5.75255">
        <ele>745.79998779297</ele>
        <time>2013-05-12T05:29:31Z</time>
      </trkpt>
      <trkpt lat="44.38423" lon="5.7526">
        <ele>747</ele>
        <time>2013-05-12T05:29:38Z</time>
      </trkpt>
      <trkpt lat="44.38427" lon="5.75271">
        <ele>749.40002441406</ele>
        <time>2013-05-12T05:29:51Z</time>
      </trkpt>
      <trkpt lat="44.38433" lon="5.75277">
        <ele>751.59997558594</ele>
        <time>2013-05-12T05:30:00Z</time>
      </trkpt>
      <trkpt lat="44.38435" lon="5.75281">
        <ele>753</ele>
        <time>2013-05-12T05:30:03Z</time>
      </trkpt>
      <trkpt lat="44.38441" lon="5.75295">
        <ele>753.79998779297</ele>
        <time>2013-05-12T05:30:16Z</time>
      </trkpt>
      <trkpt lat="44.38443" lon="5.753">
        <ele>755.40002441406</ele>
        <time>2013-05-12T05:30:21Z</time>
      </trkpt>
      <trkpt lat="44.38444" lon="5.75312">
        <ele>755.40002441406</ele>
        <time>2013-05-12T05:30:42Z</time>
      </trkpt>
      <trkpt lat="44.38446" lon="5.75324">
        <ele>755.79998779297</ele>
        <time>2013-05-12T05:30:48Z</time>
      </trkpt>
      <trkpt lat="44.38446" lon="5.75332">
        <ele>757.40002441406</ele>
        <time>2013-05-12T05:30:52Z</time>
      </trkpt>
      <trkpt lat="44.38445" lon="5.75341">
        <ele>757.79998779297</ele>
        <time>2013-05-12T05:30:57Z</time>
      </trkpt>
      <trkpt lat="44.38446" lon="5.7535">
        <ele>759.59997558594</ele>
        <time>2013-05-12T05:31:01Z</time>
      </trkpt>
      <trkpt lat="44.38446" lon="5.7539">
        <ele>759.59997558594</ele>
        <time>2013-05-12T05:31:13Z</time>
      </trkpt>
      <trkpt lat="44.38444" lon="5.7541">
        <ele>759.59997558594</ele>
        <time>2013-05-12T05:31:22Z</time>
      </trkpt>
      <trkpt lat="44.38441" lon="5.75424">
        <ele>761.79998779297</ele>
        <time>2013-05-12T05:31:28Z</time>
      </trkpt>
      <trkpt lat="44.38446" lon="5.75452">
        <ele>761.79998779297</ele>
        <time>2013-05-12T05:31:40Z</time>
      </trkpt>
      <trkpt lat="44.3845" lon="5.75478">
        <ele>761.79998779297</ele>
        <time>2013-05-12T05:31:45Z</time>
      </trkpt>
      <trkpt lat="44.38449" lon="5.755">
        <ele>761.20001220703</ele>
        <time>2013-05-12T05:31:48Z</time>
      </trkpt>
      <trkpt lat="44.38448" lon="5.75505">
        <ele>760.79998779297</ele>
        <time>2013-05-12T05:31:49Z</time>
      </trkpt>
      <trkpt lat="44.38448" lon="5.75513">
        <ele>760</ele>
        <time>2013-05-12T05:31:50Z</time>
      </trkpt>
      <trkpt lat="44.38446" lon="5.75522">
        <ele>759.20001220703</ele>
        <time>2013-05-12T05:31:51Z</time>
      </trkpt>
      <trkpt lat="44.38443" lon="5.75533">
        <ele>758.40002441406</ele>
        <time>2013-05-12T05:31:52Z</time>
      </trkpt>
      <trkpt lat="44.38441" lon="5.75541">
        <ele>757.40002441406</ele>
        <time>2013-05-12T05:31:53Z</time>
      </trkpt>
      <trkpt lat="44.38438" lon="5.75551">
        <ele>755.40002441406</ele>
        <time>2013-05-12T05:31:55Z</time>
      </trkpt>
      <trkpt lat="44.38427" lon="5.7556">
        <ele>754.40002441406</ele>
        <time>2013-05-12T05:31:58Z</time>
      </trkpt>
      <trkpt lat="44.38413" lon="5.75572">
        <ele>754.40002441406</ele>
        <time>2013-05-12T05:32:03Z</time>
      </trkpt>
      <trkpt lat="44.38387" lon="5.75593">
        <ele>754.40002441406</ele>
        <time>2013-05-12T05:32:12Z</time>
      </trkpt>
      <trkpt lat="44.38369" lon="5.75604">
        <ele>754</ele>
        <time>2013-05-12T05:32:17Z</time>
      </trkpt>
      <trkpt lat="44.38359" lon="5.75613">
        <ele>752.79998779297</ele>
        <time>2013-05-12T05:32:20Z</time>
      </trkpt>
      <trkpt lat="44.38353" lon="5.75629">
        <ele>752.20001220703</ele>
        <time>2013-05-12T05:32:25Z</time>
      </trkpt>
      <trkpt lat="44.38349" lon="5.75637">
        <ele>752.20001220703</ele>
        <time>2013-05-12T05:32:30Z</time>
      </trkpt>
      <trkpt lat="44.38339" lon="5.75647">
        <ele>752.20001220703</ele>
        <time>2013-05-12T05:32:34Z</time>
      </trkpt>
      <trkpt lat="44.38331" lon="5.75662">
        <ele>752.59997558594</ele>
        <time>2013-05-12T05:32:39Z</time>
      </trkpt>
      <trkpt lat="44.38329" lon="5.75667">
        <ele>753.59997558594</ele>
        <time>2013-05-12T05:32:41Z</time>
      </trkpt>
      <trkpt lat="44.38326" lon="5.75672">
        <ele>754.40002441406</ele>
        <time>2013-05-12T05:32:43Z</time>
      </trkpt>
      <trkpt lat="44.38318" lon="5.75685">
        <ele>754.40002441406</ele>
        <time>2013-05-12T05:32:47Z</time>
      </trkpt>
      <trkpt lat="44.38302" lon="5.75698">
        <ele>754.40002441406</ele>
        <time>2013-05-12T05:32:52Z</time>
      </trkpt>
      <trkpt lat="44.38282" lon="5.75712">
        <ele>754.40002441406</ele>
        <time>2013-05-12T05:32:57Z</time>
      </trkpt>
      <trkpt lat="44.38272" lon="5.75722">
        <ele>754.40002441406</ele>
        <time>2013-05-12T05:33:02Z</time>
      </trkpt>
      <trkpt lat="44.3826" lon="5.75732">
        <ele>754.40002441406</ele>
        <time>2013-05-12T05:33:09Z</time>
      </trkpt>
      <trkpt lat="44.38258" lon="5.75732">
        <ele>754.40002441406</ele>
        <time>2013-05-12T05:33:10Z</time>
      </trkpt>
      <trkpt lat="44.38248" lon="5.75732">
        <ele>755.59997558594</ele>
        <time>2013-05-12T05:33:14Z</time>
      </trkpt>
      <trkpt lat="44.38242" lon="5.75729">
        <ele>756.40002441406</ele>
        <time>2013-05-12T05:33:16Z</time>
      </trkpt>
      <trkpt lat="44.38231" lon="5.75722">
        <ele>756.40002441406</ele>
        <time>2013-05-12T05:33:21Z</time>
      </trkpt>
      <trkpt lat="44.38213" lon="5.75728">
        <ele>756.40002441406</ele>
        <time>2013-05-12T05:33:27Z</time>
      </trkpt>
      <trkpt lat="44.38206" lon="5.75735">
        <ele>756.40002441406</ele>
        <time>2013-05-12T05:33:30Z</time>
      </trkpt>
      <trkpt lat="44.38201" lon="5.7574">
        <ele>756.40002441406</ele>
        <time>2013-05-12T05:33:32Z</time>
      </trkpt>
      <trkpt lat="44.38197" lon="5.75743">
        <ele>756</ele>
        <time>2013-05-12T05:33:33Z</time>
      </trkpt>
      <trkpt lat="44.38188" lon="5.75751">
        <ele>754.40002441406</ele>
        <time>2013-05-12T05:33:36Z</time>
      </trkpt>
      <trkpt lat="44.3818" lon="5.75761">
        <ele>751.79998779297</ele>
        <time>2013-05-12T05:33:39Z</time>
      </trkpt>
      <trkpt lat="44.38172" lon="5.75773">
        <ele>748.40002441406</ele>
        <time>2013-05-12T05:33:42Z</time>
      </trkpt>
      <trkpt lat="44.38169" lon="5.75777">
        <ele>747.20001220703</ele>
        <time>2013-05-12T05:33:43Z</time>
      </trkpt>
      <trkpt lat="44.38166" lon="5.75781">
        <ele>745.79998779297</ele>
        <time>2013-05-12T05:33:44Z</time>
      </trkpt>
      <trkpt lat="44.38158" lon="5.75794">
        <ele>741.40002441406</ele>
        <time>2013-05-12T05:33:47Z</time>
      </trkpt>
      <trkpt lat="44.38153" lon="5.75801">
        <ele>739.79998779297</ele>
        <time>2013-05-12T05:33:48Z</time>
      </trkpt>
      <trkpt lat="44.38148" lon="5.75811">
        <ele>736.59997558594</ele>
        <time>2013-05-12T05:33:50Z</time>
      </trkpt>
      <trkpt lat="44.38143" lon="5.7582">
        <ele>732</ele>
        <time>2013-05-12T05:33:53Z</time>
      </trkpt>
      <trkpt lat="44.38136" lon="5.75831">
        <ele>727.40002441406</ele>
        <time>2013-05-12T05:34:04Z</time>
      </trkpt>
      <trkpt lat="44.38131" lon="5.75844">
        <ele>725.40002441406</ele>
        <time>2013-05-12T05:34:13Z</time>
      </trkpt>
      <trkpt lat="44.3812" lon="5.75867">
        <ele>724.79998779297</ele>
        <time>2013-05-12T05:34:20Z</time>
      </trkpt>
      <trkpt lat="44.38117" lon="5.75871">
        <ele>724.40002441406</ele>
        <time>2013-05-12T05:34:21Z</time>
      </trkpt>
      <trkpt lat="44.38111" lon="5.75886">
        <ele>723</ele>
        <time>2013-05-12T05:34:23Z</time>
      </trkpt>
      <trkpt lat="44.38108" lon="5.75891">
        <ele>722</ele>
        <time>2013-05-12T05:34:24Z</time>
      </trkpt>
      <trkpt lat="44.38104" lon="5.75901">
        <ele>719</ele>
        <time>2013-05-12T05:34:27Z</time>
      </trkpt>
      <trkpt lat="44.38098" lon="5.75899">
        <ele>717.40002441406</ele>
        <time>2013-05-12T05:34:29Z</time>
      </trkpt>
      <trkpt lat="44.38089" lon="5.75894">
        <ele>715.40002441406</ele>
        <time>2013-05-12T05:34:31Z</time>
      </trkpt>
      <trkpt lat="44.38076" lon="5.75887">
        <ele>712.79998779297</ele>
        <time>2013-05-12T05:34:33Z</time>
      </trkpt>
      <trkpt lat="44.38065" lon="5.75884">
        <ele>709.79998779297</ele>
        <time>2013-05-12T05:34:35Z</time>
      </trkpt>
      <trkpt lat="44.38059" lon="5.75884">
        <ele>708.40002441406</ele>
        <time>2013-05-12T05:34:36Z</time>
      </trkpt>
      <trkpt lat="44.38047" lon="5.75882">
        <ele>705.40002441406</ele>
        <time>2013-05-12T05:34:38Z</time>
      </trkpt>
      <trkpt lat="44.38034" lon="5.7588">
        <ele>702.40002441406</ele>
        <time>2013-05-12T05:34:40Z</time>
      </trkpt>
      <trkpt lat="44.38029" lon="5.7588">
        <ele>701</ele>
        <time>2013-05-12T05:34:41Z</time>
      </trkpt>
      <trkpt lat="44.38018" lon="5.75877">
        <ele>697.79998779297</ele>
        <time>2013-05-12T05:34:43Z</time>
      </trkpt>
      <trkpt lat="44.38008" lon="5.75872">
        <ele>694.59997558594</ele>
        <time>2013-05-12T05:34:45Z</time>
      </trkpt>
      <trkpt lat="44.38004" lon="5.75867">
        <ele>693.20001220703</ele>
        <time>2013-05-12T05:34:46Z</time>
      </trkpt>
      <trkpt lat="44.37999" lon="5.75864">
        <ele>691.79998779297</ele>
        <time>2013-05-12T05:34:47Z</time>
      </trkpt>
      <trkpt lat="44.37989" lon="5.75861">
        <ele>689.20001220703</ele>
        <time>2013-05-12T05:34:49Z</time>
      </trkpt>
      <trkpt lat="44.37981" lon="5.7586">
        <ele>687</ele>
        <time>2013-05-12T05:34:51Z</time>
      </trkpt>
      <trkpt lat="44.37977" lon="5.75859">
        <ele>685.79998779297</ele>
        <time>2013-05-12T05:34:52Z</time>
      </trkpt>
      <trkpt lat="44.37967" lon="5.75857">
        <ele>683.40002441406</ele>
        <time>2013-05-12T05:34:54Z</time>
      </trkpt>
      <trkpt lat="44.37957" lon="5.75854">
        <ele>680.59997558594</ele>
        <time>2013-05-12T05:34:56Z</time>
      </trkpt>
      <trkpt lat="44.37948" lon="5.75853">
        <ele>678.20001220703</ele>
        <time>2013-05-12T05:34:58Z</time>
      </trkpt>
      <trkpt lat="44.3794" lon="5.75854">
        <ele>676</ele>
        <time>2013-05-12T05:35:00Z</time>
      </trkpt>
      <trkpt lat="44.3793" lon="5.75852">
        <ele>673.20001220703</ele>
        <time>2013-05-12T05:35:03Z</time>
      </trkpt>
      <trkpt lat="44.37926" lon="5.75849">
        <ele>672.40002441406</ele>
        <time>2013-05-12T05:35:04Z</time>
      </trkpt>
      <trkpt lat="44.37917" lon="5.75846">
        <ele>670.59997558594</ele>
        <time>2013-05-12T05:35:06Z</time>
      </trkpt>
      <trkpt lat="44.37909" lon="5.75845">
        <ele>670</ele>
        <time>2013-05-12T05:35:07Z</time>
      </trkpt>
      <trkpt lat="44.37898" lon="5.75847">
        <ele>668.79998779297</ele>
        <time>2013-05-12T05:35:09Z</time>
      </trkpt>
      <trkpt lat="44.37893" lon="5.75851">
        <ele>668</ele>
        <time>2013-05-12T05:35:10Z</time>
      </trkpt>
      <trkpt lat="44.37888" lon="5.75854">
        <ele>667.40002441406</ele>
        <time>2013-05-12T05:35:11Z</time>
      </trkpt>
      <trkpt lat="44.37881" lon="5.75863">
        <ele>665.79998779297</ele>
        <time>2013-05-12T05:35:13Z</time>
      </trkpt>
      <trkpt lat="44.37879" lon="5.75877">
        <ele>665.20001220703</ele>
        <time>2013-05-12T05:35:15Z</time>
      </trkpt>
      <trkpt lat="44.37878" lon="5.75884">
        <ele>664.59997558594</ele>
        <time>2013-05-12T05:35:16Z</time>
      </trkpt>
      <trkpt lat="44.37877" lon="5.7589">
        <ele>664.20001220703</ele>
        <time>2013-05-12T05:35:17Z</time>
      </trkpt>
      <trkpt lat="44.37872" lon="5.75903">
        <ele>663.20001220703</ele>
        <time>2013-05-12T05:35:19Z</time>
      </trkpt>
      <trkpt lat="44.37868" lon="5.75908">
        <ele>662.79998779297</ele>
        <time>2013-05-12T05:35:20Z</time>
      </trkpt>
      <trkpt lat="44.37866" lon="5.75912">
        <ele>662.79998779297</ele>
        <time>2013-05-12T05:35:21Z</time>
      </trkpt>
      <trkpt lat="44.37852" lon="5.75928">
        <ele>662.79998779297</ele>
        <time>2013-05-12T05:35:25Z</time>
      </trkpt>
      <trkpt lat="44.37835" lon="5.75946">
        <ele>663.20001220703</ele>
        <time>2013-05-12T05:35:30Z</time>
      </trkpt>
      <trkpt lat="44.37828" lon="5.75953">
        <ele>664</ele>
        <time>2013-05-12T05:35:32Z</time>
      </trkpt>
      <trkpt lat="44.37823" lon="5.7596">
        <ele>664.79998779297</ele>
        <time>2013-05-12T05:35:34Z</time>
      </trkpt>
      <trkpt lat="44.3782" lon="5.75964">
        <ele>664.79998779297</ele>
        <time>2013-05-12T05:35:35Z</time>
      </trkpt>
      <trkpt lat="44.37797" lon="5.75993">
        <ele>664.79998779297</ele>
        <time>2013-05-12T05:35:43Z</time>
      </trkpt>
      <trkpt lat="44.37793" lon="5.76003">
        <ele>664.79998779297</ele>
        <time>2013-05-12T05:35:45Z</time>
      </trkpt>
      <trkpt lat="44.37791" lon="5.76013">
        <ele>665.20001220703</ele>
        <time>2013-05-12T05:35:47Z</time>
      </trkpt>
      <trkpt lat="44.37789" lon="5.76018">
        <ele>665.59997558594</ele>
        <time>2013-05-12T05:35:48Z</time>
      </trkpt>
      <trkpt lat="44.37788" lon="5.76023">
        <ele>666</ele>
        <time>2013-05-12T05:35:49Z</time>
      </trkpt>
      <trkpt lat="44.37786" lon="5.76033">
        <ele>666.79998779297</ele>
        <time>2013-05-12T05:35:51Z</time>
      </trkpt>
      <trkpt lat="44.37775" lon="5.76058">
        <ele>666.79998779297</ele>
        <time>2013-05-12T05:35:57Z</time>
      </trkpt>
      <trkpt lat="44.37766" lon="5.76075">
        <ele>667.20001220703</ele>
        <time>2013-05-12T05:36:02Z</time>
      </trkpt>
      <trkpt lat="44.37762" lon="5.76082">
        <ele>668</ele>
        <time>2013-05-12T05:36:04Z</time>
      </trkpt>
      <trkpt lat="44.37759" lon="5.76089">
        <ele>668.79998779297</ele>
        <time>2013-05-12T05:36:06Z</time>
      </trkpt>
      <trkpt lat="44.37746" lon="5.76121">
        <ele>668.79998779297</ele>
        <time>2013-05-12T05:36:14Z</time>
      </trkpt>
      <trkpt lat="44.37737" lon="5.76156">
        <ele>668.79998779297</ele>
        <time>2013-05-12T05:36:21Z</time>
      </trkpt>
      <trkpt lat="44.37735" lon="5.76161">
        <ele>668.79998779297</ele>
        <time>2013-05-12T05:36:22Z</time>
      </trkpt>
      <trkpt lat="44.37712" lon="5.7618">
        <ele>668.79998779297</ele>
        <time>2013-05-12T05:36:29Z</time>
      </trkpt>
      <trkpt lat="44.37709" lon="5.76181">
        <ele>668.79998779297</ele>
        <time>2013-05-12T05:36:30Z</time>
      </trkpt>
      <trkpt lat="44.37694" lon="5.76194">
        <ele>669.40002441406</ele>
        <time>2013-05-12T05:36:36Z</time>
      </trkpt>
      <trkpt lat="44.3769" lon="5.762">
        <ele>670.20001220703</ele>
        <time>2013-05-12T05:36:38Z</time>
      </trkpt>
      <trkpt lat="44.37682" lon="5.76212">
        <ele>671</ele>
        <time>2013-05-12T05:36:42Z</time>
      </trkpt>
      <trkpt lat="44.37674" lon="5.76226">
        <ele>671.40002441406</ele>
        <time>2013-05-12T05:36:47Z</time>
      </trkpt>
      <trkpt lat="44.37671" lon="5.76231">
        <ele>672.40002441406</ele>
        <time>2013-05-12T05:36:49Z</time>
      </trkpt>
      <trkpt lat="44.37669" lon="5.76234">
        <ele>672.79998779297</ele>
        <time>2013-05-12T05:36:50Z</time>
      </trkpt>
      <trkpt lat="44.37654" lon="5.76255">
        <ele>673.20001220703</ele>
        <time>2013-05-12T05:36:58Z</time>
      </trkpt>
      <trkpt lat="44.37651" lon="5.76261">
        <ele>674</ele>
        <time>2013-05-12T05:37:00Z</time>
      </trkpt>
      <trkpt lat="44.37649" lon="5.76264">
        <ele>674.40002441406</ele>
        <time>2013-05-12T05:37:01Z</time>
      </trkpt>
      <trkpt lat="44.37642" lon="5.76278">
        <ele>675.20001220703</ele>
        <time>2013-05-12T05:37:06Z</time>
      </trkpt>
      <trkpt lat="44.37638" lon="5.76304">
        <ele>675.59997558594</ele>
        <time>2013-05-12T05:37:14Z</time>
      </trkpt>
      <trkpt lat="44.37635" lon="5.76313">
        <ele>676.79998779297</ele>
        <time>2013-05-12T05:37:17Z</time>
      </trkpt>
      <trkpt lat="44.37629" lon="5.76322">
        <ele>677.20001220703</ele>
        <time>2013-05-12T05:37:21Z</time>
      </trkpt>
      <trkpt lat="44.37619" lon="5.7633">
        <ele>678.20001220703</ele>
        <time>2013-05-12T05:37:26Z</time>
      </trkpt>
      <trkpt lat="44.37605" lon="5.76365">
        <ele>679.40002441406</ele>
        <time>2013-05-12T05:37:38Z</time>
      </trkpt>
      <trkpt lat="44.37603" lon="5.76375">
        <ele>679.79998779297</ele>
        <time>2013-05-12T05:37:41Z</time>
      </trkpt>
      <trkpt lat="44.37601" lon="5.76381">
        <ele>680.79998779297</ele>
        <time>2013-05-12T05:37:43Z</time>
      </trkpt>
      <trkpt lat="44.376" lon="5.76387">
        <ele>681.79998779297</ele>
        <time>2013-05-12T05:37:45Z</time>
      </trkpt>
      <trkpt lat="44.37599" lon="5.76396">
        <ele>681.79998779297</ele>
        <time>2013-05-12T05:37:48Z</time>
      </trkpt>
      <trkpt lat="44.37596" lon="5.76408">
        <ele>682.20001220703</ele>
        <time>2013-05-12T05:37:52Z</time>
      </trkpt>
      <trkpt lat="44.37596" lon="5.76411">
        <ele>682.59997558594</ele>
        <time>2013-05-12T05:37:53Z</time>
      </trkpt>
      <trkpt lat="44.37594" lon="5.76421">
        <ele>683.79998779297</ele>
        <time>2013-05-12T05:37:56Z</time>
      </trkpt>
      <trkpt lat="44.37589" lon="5.76442">
        <ele>683.79998779297</ele>
        <time>2013-05-12T05:38:03Z</time>
      </trkpt>
      <trkpt lat="44.37589" lon="5.76452">
        <ele>684.20001220703</ele>
        <time>2013-05-12T05:38:06Z</time>
      </trkpt>
      <trkpt lat="44.3759" lon="5.7646">
        <ele>685.59997558594</ele>
        <time>2013-05-12T05:38:09Z</time>
      </trkpt>
      <trkpt lat="44.37591" lon="5.76483">
        <ele>686.40002441406</ele>
        <time>2013-05-12T05:38:17Z</time>
      </trkpt>
      <trkpt lat="44.37593" lon="5.76491">
        <ele>687.79998779297</ele>
        <time>2013-05-12T05:38:20Z</time>
      </trkpt>
      <trkpt lat="44.37598" lon="5.76506">
        <ele>688.40002441406</ele>
        <time>2013-05-12T05:38:25Z</time>
      </trkpt>
      <trkpt lat="44.3761" lon="5.76535">
        <ele>688.40002441406</ele>
        <time>2013-05-12T05:38:34Z</time>
      </trkpt>
      <trkpt lat="44.37624" lon="5.76561">
        <ele>688.40002441406</ele>
        <time>2013-05-12T05:38:42Z</time>
      </trkpt>
      <trkpt lat="44.3764" lon="5.76584">
        <ele>688.79998779297</ele>
        <time>2013-05-12T05:38:51Z</time>
      </trkpt>
      <trkpt lat="44.37645" lon="5.76593">
        <ele>690</ele>
        <time>2013-05-12T05:38:54Z</time>
      </trkpt>
      <trkpt lat="44.37651" lon="5.76608">
        <ele>690.40002441406</ele>
        <time>2013-05-12T05:38:59Z</time>
      </trkpt>
      <trkpt lat="44.37664" lon="5.76623">
        <ele>690.40002441406</ele>
        <time>2013-05-12T05:39:06Z</time>
      </trkpt>
      <trkpt lat="44.37677" lon="5.76628">
        <ele>690.79998779297</ele>
        <time>2013-05-12T05:39:12Z</time>
      </trkpt>
      <trkpt lat="44.37681" lon="5.76629">
        <ele>691.79998779297</ele>
        <time>2013-05-12T05:39:14Z</time>
      </trkpt>
      <trkpt lat="44.377" lon="5.76624">
        <ele>692.79998779297</ele>
        <time>2013-05-12T05:39:22Z</time>
      </trkpt>
      <trkpt lat="44.37702" lon="5.76623">
        <ele>693.20001220703</ele>
        <time>2013-05-12T05:39:23Z</time>
      </trkpt>
      <trkpt lat="44.37708" lon="5.7662">
        <ele>694.40002441406</ele>
        <time>2013-05-12T05:39:26Z</time>
      </trkpt>
      <trkpt lat="44.37717" lon="5.76613">
        <ele>694.79998779297</ele>
        <time>2013-05-12T05:39:31Z</time>
      </trkpt>
      <trkpt lat="44.37742" lon="5.766">
        <ele>694.79998779297</ele>
        <time>2013-05-12T05:39:44Z</time>
      </trkpt>
      <trkpt lat="44.37756" lon="5.766">
        <ele>694.79998779297</ele>
        <time>2013-05-12T05:39:51Z</time>
      </trkpt>
      <trkpt lat="44.37765" lon="5.76611">
        <ele>695.40002441406</ele>
        <time>2013-05-12T05:39:57Z</time>
      </trkpt>
      <trkpt lat="44.37769" lon="5.7662">
        <ele>696.59997558594</ele>
        <time>2013-05-12T05:40:01Z</time>
      </trkpt>
      <trkpt lat="44.3777" lon="5.76623">
        <ele>697</ele>
        <time>2013-05-12T05:40:02Z</time>
      </trkpt>
      <trkpt lat="44.37773" lon="5.76631">
        <ele>697.40002441406</ele>
        <time>2013-05-12T05:40:05Z</time>
      </trkpt>
      <trkpt lat="44.37777" lon="5.76641">
        <ele>699.40002441406</ele>
        <time>2013-05-12T05:40:09Z</time>
      </trkpt>
      <trkpt lat="44.3778" lon="5.7666">
        <ele>699.40002441406</ele>
        <time>2013-05-12T05:40:17Z</time>
      </trkpt>
      <trkpt lat="44.37785" lon="5.76678">
        <ele>700.40002441406</ele>
        <time>2013-05-12T05:40:25Z</time>
      </trkpt>
      <trkpt lat="44.37786" lon="5.76683">
        <ele>701.20001220703</ele>
        <time>2013-05-12T05:40:27Z</time>
      </trkpt>
      <trkpt lat="44.37792" lon="5.76692">
        <ele>701.59997558594</ele>
        <time>2013-05-12T05:40:32Z</time>
      </trkpt>
      <trkpt lat="44.37799" lon="5.76701">
        <ele>702.59997558594</ele>
        <time>2013-05-12T05:40:38Z</time>
      </trkpt>
      <trkpt lat="44.37801" lon="5.76703">
        <ele>703</ele>
        <time>2013-05-12T05:40:39Z</time>
      </trkpt>
      <trkpt lat="44.3781" lon="5.76712">
        <ele>704</ele>
        <time>2013-05-12T05:40:47Z</time>
      </trkpt>
      <trkpt lat="44.37821" lon="5.76719">
        <ele>704.79998779297</ele>
        <time>2013-05-12T05:40:54Z</time>
      </trkpt>
      <trkpt lat="44.37824" lon="5.76721">
        <ele>705.79998779297</ele>
        <time>2013-05-12T05:40:56Z</time>
      </trkpt>
      <trkpt lat="44.37839" lon="5.76728">
        <ele>706.20001220703</ele>
        <time>2013-05-12T05:41:05Z</time>
      </trkpt>
      <trkpt lat="44.37847" lon="5.76733">
        <ele>706.79998779297</ele>
        <time>2013-05-12T05:41:10Z</time>
      </trkpt>
      <trkpt lat="44.37851" lon="5.76736">
        <ele>708.20001220703</ele>
        <time>2013-05-12T05:41:13Z</time>
      </trkpt>
      <trkpt lat="44.37858" lon="5.76742">
        <ele>709</ele>
        <time>2013-05-12T05:41:18Z</time>
      </trkpt>
      <trkpt lat="44.3786" lon="5.76743">
        <ele>709.40002441406</ele>
        <time>2013-05-12T05:41:19Z</time>
      </trkpt>
      <trkpt lat="44.37878" lon="5.76756">
        <ele>710.59997558594</ele>
        <time>2013-05-12T05:41:30Z</time>
      </trkpt>
      <trkpt lat="44.37883" lon="5.76762">
        <ele>711.20001220703</ele>
        <time>2013-05-12T05:41:33Z</time>
      </trkpt>
      <trkpt lat="44.37886" lon="5.76771">
        <ele>712.20001220703</ele>
        <time>2013-05-12T05:41:36Z</time>
      </trkpt>
      <trkpt lat="44.37896" lon="5.76796">
        <ele>713.79998779297</ele>
        <time>2013-05-12T05:41:45Z</time>
      </trkpt>
      <trkpt lat="44.37898" lon="5.76802">
        <ele>714.59997558594</ele>
        <time>2013-05-12T05:41:47Z</time>
      </trkpt>
      <trkpt lat="44.379" lon="5.76807">
        <ele>715.40002441406</ele>
        <time>2013-05-12T05:41:49Z</time>
      </trkpt>
      <trkpt lat="44.37904" lon="5.76824">
        <ele>715.40002441406</ele>
        <time>2013-05-12T05:41:56Z</time>
      </trkpt>
      <trkpt lat="44.37905" lon="5.76831">
        <ele>716.20001220703</ele>
        <time>2013-05-12T05:41:59Z</time>
      </trkpt>
      <trkpt lat="44.37907" lon="5.76849">
        <ele>718</ele>
        <time>2013-05-12T05:42:06Z</time>
      </trkpt>
      <trkpt lat="44.37907" lon="5.76851">
        <ele>718.40002441406</ele>
        <time>2013-05-12T05:42:07Z</time>
      </trkpt>
      <trkpt lat="44.37911" lon="5.76871">
        <ele>720.20001220703</ele>
        <time>2013-05-12T05:42:15Z</time>
      </trkpt>
      <trkpt lat="44.37915" lon="5.7688">
        <ele>722</ele>
        <time>2013-05-12T05:42:19Z</time>
      </trkpt>
      <trkpt lat="44.37931" lon="5.7689">
        <ele>722</ele>
        <time>2013-05-12T05:42:28Z</time>
      </trkpt>
      <trkpt lat="44.37941" lon="5.76891">
        <ele>722</ele>
        <time>2013-05-12T05:42:31Z</time>
      </trkpt>
      <trkpt lat="44.37953" lon="5.76897">
        <ele>722</ele>
        <time>2013-05-12T05:42:34Z</time>
      </trkpt>
      <trkpt lat="44.37968" lon="5.76908">
        <ele>722</ele>
        <time>2013-05-12T05:42:40Z</time>
      </trkpt>
      <trkpt lat="44.37975" lon="5.76912">
        <ele>722.59997558594</ele>
        <time>2013-05-12T05:42:43Z</time>
      </trkpt>
      <trkpt lat="44.3798" lon="5.76912">
        <ele>723.40002441406</ele>
        <time>2013-05-12T05:42:45Z</time>
      </trkpt>
      <trkpt lat="44.38" lon="5.7691">
        <ele>724.79998779297</ele>
        <time>2013-05-12T05:42:54Z</time>
      </trkpt>
      <trkpt lat="44.38006" lon="5.7691">
        <ele>726</ele>
        <time>2013-05-12T05:42:57Z</time>
      </trkpt>
      <trkpt lat="44.38015" lon="5.7691">
        <ele>726.59997558594</ele>
        <time>2013-05-12T05:43:02Z</time>
      </trkpt>
      <trkpt lat="44.38032" lon="5.76908">
        <ele>727</ele>
        <time>2013-05-12T05:43:10Z</time>
      </trkpt>
      <trkpt lat="44.38041" lon="5.76908">
        <ele>728.59997558594</ele>
        <time>2013-05-12T05:43:14Z</time>
      </trkpt>
      <trkpt lat="44.38058" lon="5.76906">
        <ele>729</ele>
        <time>2013-05-12T05:43:22Z</time>
      </trkpt>
      <trkpt lat="44.38062" lon="5.76904">
        <ele>729.79998779297</ele>
        <time>2013-05-12T05:43:24Z</time>
      </trkpt>
      <trkpt lat="44.38073" lon="5.76892">
        <ele>730.59997558594</ele>
        <time>2013-05-12T05:43:31Z</time>
      </trkpt>
      <trkpt lat="44.38084" lon="5.76877">
        <ele>730.59997558594</ele>
        <time>2013-05-12T05:43:38Z</time>
      </trkpt>
      <trkpt lat="44.38099" lon="5.76873">
        <ele>731</ele>
        <time>2013-05-12T05:43:44Z</time>
      </trkpt>
      <trkpt lat="44.38101" lon="5.76874">
        <ele>731.40002441406</ele>
        <time>2013-05-12T05:43:45Z</time>
      </trkpt>
      <trkpt lat="44.38116" lon="5.76884">
        <ele>732.59997558594</ele>
        <time>2013-05-12T05:43:52Z</time>
      </trkpt>
      <trkpt lat="44.38121" lon="5.76901">
        <ele>732.59997558594</ele>
        <time>2013-05-12T05:43:57Z</time>
      </trkpt>
      <trkpt lat="44.38124" lon="5.76918">
        <ele>733.20001220703</ele>
        <time>2013-05-12T05:44:02Z</time>
      </trkpt>
      <trkpt lat="44.38124" lon="5.76922">
        <ele>733.59997558594</ele>
        <time>2013-05-12T05:44:03Z</time>
      </trkpt>
      <trkpt lat="44.38125" lon="5.76932">
        <ele>735</ele>
        <time>2013-05-12T05:44:06Z</time>
      </trkpt>
      <trkpt lat="44.38116" lon="5.76953">
        <ele>735</ele>
        <time>2013-05-12T05:44:13Z</time>
      </trkpt>
      <trkpt lat="44.38101" lon="5.76979">
        <ele>735.40002441406</ele>
        <time>2013-05-12T05:44:21Z</time>
      </trkpt>
      <trkpt lat="44.381" lon="5.76982">
        <ele>735.79998779297</ele>
        <time>2013-05-12T05:44:22Z</time>
      </trkpt>
      <trkpt lat="44.38099" lon="5.76985">
        <ele>736.20001220703</ele>
        <time>2013-05-12T05:44:23Z</time>
      </trkpt>
      <trkpt lat="44.38098" lon="5.76991">
        <ele>737</ele>
        <time>2013-05-12T05:44:25Z</time>
      </trkpt>
      <trkpt lat="44.38099" lon="5.77014">
        <ele>737.40002441406</ele>
        <time>2013-05-12T05:44:33Z</time>
      </trkpt>
      <trkpt lat="44.381" lon="5.77022">
        <ele>738.79998779297</ele>
        <time>2013-05-12T05:44:36Z</time>
      </trkpt>
      <trkpt lat="44.38106" lon="5.77038">
        <ele>739.20001220703</ele>
        <time>2013-05-12T05:44:42Z</time>
      </trkpt>
      <trkpt lat="44.38108" lon="5.77046">
        <ele>739.59997558594</ele>
        <time>2013-05-12T05:44:46Z</time>
      </trkpt>
      <trkpt lat="44.3811" lon="5.77049">
        <ele>740.40002441406</ele>
        <time>2013-05-12T05:44:48Z</time>
      </trkpt>
      <trkpt lat="44.38111" lon="5.77051">
        <ele>741</ele>
        <time>2013-05-12T05:44:49Z</time>
      </trkpt>
      <trkpt lat="44.38116" lon="5.77062">
        <ele>742.20001220703</ele>
        <time>2013-05-12T05:44:55Z</time>
      </trkpt>
      <trkpt lat="44.38121" lon="5.77067">
        <ele>743.59997558594</ele>
        <time>2013-05-12T05:44:58Z</time>
      </trkpt>
      <trkpt lat="44.38128" lon="5.77072">
        <ele>743.59997558594</ele>
        <time>2013-05-12T05:45:01Z</time>
      </trkpt>
      <trkpt lat="44.38136" lon="5.77076">
        <ele>744</ele>
        <time>2013-05-12T05:45:06Z</time>
      </trkpt>
      <trkpt lat="44.38141" lon="5.77078">
        <ele>744.79998779297</ele>
        <time>2013-05-12T05:45:08Z</time>
      </trkpt>
      <trkpt lat="44.3815" lon="5.77079">
        <ele>747.20001220703</ele>
        <time>2013-05-12T05:45:13Z</time>
      </trkpt>
      <trkpt lat="44.38152" lon="5.7708">
        <ele>747.79998779297</ele>
        <time>2013-05-12T05:45:14Z</time>
      </trkpt>
      <trkpt lat="44.38163" lon="5.77086">
        <ele>747.79998779297</ele>
        <time>2013-05-12T05:45:20Z</time>
      </trkpt>
      <trkpt lat="44.38173" lon="5.77088">
        <ele>747.79998779297</ele>
        <time>2013-05-12T05:45:25Z</time>
      </trkpt>
      <trkpt lat="44.38187" lon="5.77097">
        <ele>747.79998779297</ele>
        <time>2013-05-12T05:45:32Z</time>
      </trkpt>
      <trkpt lat="44.38203" lon="5.77108">
        <ele>747.79998779297</ele>
        <time>2013-05-12T05:45:38Z</time>
      </trkpt>
      <trkpt lat="44.38216" lon="5.77097">
        <ele>747.79998779297</ele>
        <time>2013-05-12T05:45:43Z</time>
      </trkpt>
      <trkpt lat="44.38231" lon="5.7708">
        <ele>747.79998779297</ele>
        <time>2013-05-12T05:45:50Z</time>
      </trkpt>
      <trkpt lat="44.38237" lon="5.77065">
        <ele>747.79998779297</ele>
        <time>2013-05-12T05:45:55Z</time>
      </trkpt>
      <trkpt lat="44.38246" lon="5.77049">
        <ele>747.40002441406</ele>
        <time>2013-05-12T05:46:02Z</time>
      </trkpt>
      <trkpt lat="44.38252" lon="5.77049">
        <ele>746.40002441406</ele>
        <time>2013-05-12T05:46:04Z</time>
      </trkpt>
      <trkpt lat="44.38255" lon="5.7705">
        <ele>746</ele>
        <time>2013-05-12T05:46:05Z</time>
      </trkpt>
      <trkpt lat="44.38262" lon="5.77072">
        <ele>745.40002441406</ele>
        <time>2013-05-12T05:46:11Z</time>
      </trkpt>
      <trkpt lat="44.38266" lon="5.77082">
        <ele>745.40002441406</ele>
        <time>2013-05-12T05:46:14Z</time>
      </trkpt>
      <trkpt lat="44.38271" lon="5.77091">
        <ele>745.40002441406</ele>
        <time>2013-05-12T05:46:17Z</time>
      </trkpt>
      <trkpt lat="44.38271" lon="5.77119">
        <ele>745.40002441406</ele>
        <time>2013-05-12T05:46:23Z</time>
      </trkpt>
      <trkpt lat="44.38266" lon="5.77137">
        <ele>745</ele>
        <time>2013-05-12T05:46:26Z</time>
      </trkpt>
      <trkpt lat="44.38263" lon="5.77144">
        <ele>744.59997558594</ele>
        <time>2013-05-12T05:46:27Z</time>
      </trkpt>
      <trkpt lat="44.38261" lon="5.77151">
        <ele>744.20001220703</ele>
        <time>2013-05-12T05:46:28Z</time>
      </trkpt>
      <trkpt lat="44.38257" lon="5.77156">
        <ele>743.79998779297</ele>
        <time>2013-05-12T05:46:29Z</time>
      </trkpt>
      <trkpt lat="44.38254" lon="5.77162">
        <ele>743.20001220703</ele>
        <time>2013-05-12T05:46:30Z</time>
      </trkpt>
      <trkpt lat="44.38248" lon="5.77206">
        <ele>743.20001220703</ele>
        <time>2013-05-12T05:46:38Z</time>
      </trkpt>
      <trkpt lat="44.38255" lon="5.77228">
        <ele>743.20001220703</ele>
        <time>2013-05-12T05:46:42Z</time>
      </trkpt>
      <trkpt lat="44.38256" lon="5.77235">
        <ele>743.20001220703</ele>
        <time>2013-05-12T05:46:43Z</time>
      </trkpt>
      <trkpt lat="44.38259" lon="5.77248">
        <ele>742.79998779297</ele>
        <time>2013-05-12T05:46:45Z</time>
      </trkpt>
      <trkpt lat="44.38262" lon="5.77254">
        <ele>742.20001220703</ele>
        <time>2013-05-12T05:46:46Z</time>
      </trkpt>
      <trkpt lat="44.38266" lon="5.7726">
        <ele>741.79998779297</ele>
        <time>2013-05-12T05:46:47Z</time>
      </trkpt>
      <trkpt lat="44.38274" lon="5.77269">
        <ele>740.79998779297</ele>
        <time>2013-05-12T05:46:49Z</time>
      </trkpt>
      <trkpt lat="44.38279" lon="5.77278">
        <ele>740.79998779297</ele>
        <time>2013-05-12T05:46:51Z</time>
      </trkpt>
      <trkpt lat="44.38289" lon="5.77309">
        <ele>740.79998779297</ele>
        <time>2013-05-12T05:46:57Z</time>
      </trkpt>
      <trkpt lat="44.38297" lon="5.77334">
        <ele>740.79998779297</ele>
        <time>2013-05-12T05:47:02Z</time>
      </trkpt>
      <trkpt lat="44.38303" lon="5.77376">
        <ele>740.79998779297</ele>
        <time>2013-05-12T05:47:09Z</time>
      </trkpt>
      <trkpt lat="44.38304" lon="5.77387">
        <ele>741.20001220703</ele>
        <time>2013-05-12T05:47:11Z</time>
      </trkpt>
      <trkpt lat="44.38305" lon="5.77392">
        <ele>741.79998779297</ele>
        <time>2013-05-12T05:47:12Z</time>
      </trkpt>
      <trkpt lat="44.38309" lon="5.77403">
        <ele>742.59997558594</ele>
        <time>2013-05-12T05:47:14Z</time>
      </trkpt>
      <trkpt lat="44.38312" lon="5.77407">
        <ele>743.20001220703</ele>
        <time>2013-05-12T05:47:15Z</time>
      </trkpt>
      <trkpt lat="44.38318" lon="5.77437">
        <ele>743.20001220703</ele>
        <time>2013-05-12T05:47:21Z</time>
      </trkpt>
      <trkpt lat="44.3834" lon="5.77458">
        <ele>743.20001220703</ele>
        <time>2013-05-12T05:47:27Z</time>
      </trkpt>
      <trkpt lat="44.38354" lon="5.77481">
        <ele>743.20001220703</ele>
        <time>2013-05-12T05:47:32Z</time>
      </trkpt>
      <trkpt lat="44.3836" lon="5.7751">
        <ele>743.20001220703</ele>
        <time>2013-05-12T05:47:37Z</time>
      </trkpt>
      <trkpt lat="44.38362" lon="5.77529">
        <ele>743.20001220703</ele>
        <time>2013-05-12T05:47:40Z</time>
      </trkpt>
      <trkpt lat="44.38366" lon="5.77546">
        <ele>743.20001220703</ele>
        <time>2013-05-12T05:47:43Z</time>
      </trkpt>
      <trkpt lat="44.38374" lon="5.77567">
        <ele>743.20001220703</ele>
        <time>2013-05-12T05:47:47Z</time>
      </trkpt>
      <trkpt lat="44.38378" lon="5.77577">
        <ele>743.20001220703</ele>
        <time>2013-05-12T05:47:49Z</time>
      </trkpt>
      <trkpt lat="44.38385" lon="5.77592">
        <ele>743.20001220703</ele>
        <time>2013-05-12T05:47:53Z</time>
      </trkpt>
      <trkpt lat="44.38392" lon="5.77623">
        <ele>743.20001220703</ele>
        <time>2013-05-12T05:47:59Z</time>
      </trkpt>
      <trkpt lat="44.38396" lon="5.7766">
        <ele>743.20001220703</ele>
        <time>2013-05-12T05:48:05Z</time>
      </trkpt>
      <trkpt lat="44.38402" lon="5.77703">
        <ele>743.20001220703</ele>
        <time>2013-05-12T05:48:12Z</time>
      </trkpt>
      <trkpt lat="44.38401" lon="5.77723">
        <ele>743.20001220703</ele>
        <time>2013-05-12T05:48:16Z</time>
      </trkpt>
      <trkpt lat="44.384" lon="5.77728">
        <ele>743.20001220703</ele>
        <time>2013-05-12T05:48:17Z</time>
      </trkpt>
      <trkpt lat="44.38396" lon="5.77751">
        <ele>743.20001220703</ele>
        <time>2013-05-12T05:48:21Z</time>
      </trkpt>
      <trkpt lat="44.38394" lon="5.77803">
        <ele>743.20001220703</ele>
        <time>2013-05-12T05:48:29Z</time>
      </trkpt>
      <trkpt lat="44.38393" lon="5.77818">
        <ele>742.59997558594</ele>
        <time>2013-05-12T05:48:31Z</time>
      </trkpt>
      <trkpt lat="44.38394" lon="5.77826">
        <ele>742</ele>
        <time>2013-05-12T05:48:32Z</time>
      </trkpt>
      <trkpt lat="44.38395" lon="5.77831">
        <ele>741.59997558594</ele>
        <time>2013-05-12T05:48:33Z</time>
      </trkpt>
      <trkpt lat="44.38398" lon="5.77842">
        <ele>740.59997558594</ele>
        <time>2013-05-12T05:48:35Z</time>
      </trkpt>
      <trkpt lat="44.384" lon="5.77856">
        <ele>739.59997558594</ele>
        <time>2013-05-12T05:48:37Z</time>
      </trkpt>
      <trkpt lat="44.38402" lon="5.77863">
        <ele>739.20001220703</ele>
        <time>2013-05-12T05:48:38Z</time>
      </trkpt>
      <trkpt lat="44.38403" lon="5.77871">
        <ele>738.79998779297</ele>
        <time>2013-05-12T05:48:39Z</time>
      </trkpt>
      <trkpt lat="44.38406" lon="5.77905">
        <ele>738.40002441406</ele>
        <time>2013-05-12T05:48:44Z</time>
      </trkpt>
      <trkpt lat="44.38411" lon="5.77961">
        <ele>738.40002441406</ele>
        <time>2013-05-12T05:48:53Z</time>
      </trkpt>
      <trkpt lat="44.38413" lon="5.77995">
        <ele>738.40002441406</ele>
        <time>2013-05-12T05:49:00Z</time>
      </trkpt>
      <trkpt lat="44.38421" lon="5.78013">
        <ele>738.40002441406</ele>
        <time>2013-05-12T05:49:05Z</time>
      </trkpt>
      <trkpt lat="44.38437" lon="5.78035">
        <ele>738.40002441406</ele>
        <time>2013-05-12T05:49:12Z</time>
      </trkpt>
      <trkpt lat="44.38449" lon="5.78061">
        <ele>738.40002441406</ele>
        <time>2013-05-12T05:49:18Z</time>
      </trkpt>
      <trkpt lat="44.38459" lon="5.78085">
        <ele>738.40002441406</ele>
        <time>2013-05-12T05:49:23Z</time>
      </trkpt>
      <trkpt lat="44.38461" lon="5.78092">
        <ele>738.40002441406</ele>
        <time>2013-05-12T05:49:24Z</time>
      </trkpt>
      <trkpt lat="44.38463" lon="5.78111">
        <ele>738</ele>
        <time>2013-05-12T05:49:27Z</time>
      </trkpt>
      <trkpt lat="44.38465" lon="5.78125">
        <ele>737.20001220703</ele>
        <time>2013-05-12T05:49:29Z</time>
      </trkpt>
      <trkpt lat="44.38466" lon="5.78132">
        <ele>736.79998779297</ele>
        <time>2013-05-12T05:49:30Z</time>
      </trkpt>
      <trkpt lat="44.3847" lon="5.78154">
        <ele>736.40002441406</ele>
        <time>2013-05-12T05:49:33Z</time>
      </trkpt>
      <trkpt lat="44.38476" lon="5.7817">
        <ele>736.40002441406</ele>
        <time>2013-05-12T05:49:35Z</time>
      </trkpt>
      <trkpt lat="44.38483" lon="5.78193">
        <ele>735.79998779297</ele>
        <time>2013-05-12T05:49:38Z</time>
      </trkpt>
      <trkpt lat="44.38485" lon="5.78201">
        <ele>735.40002441406</ele>
        <time>2013-05-12T05:49:39Z</time>
      </trkpt>
      <trkpt lat="44.3849" lon="5.78218">
        <ele>734.40002441406</ele>
        <time>2013-05-12T05:49:41Z</time>
      </trkpt>
      <trkpt lat="44.38493" lon="5.78225">
        <ele>733.79998779297</ele>
        <time>2013-05-12T05:49:42Z</time>
      </trkpt>
      <trkpt lat="44.38496" lon="5.78231">
        <ele>733.79998779297</ele>
        <time>2013-05-12T05:49:43Z</time>
      </trkpt>
      <trkpt lat="44.38501" lon="5.78237">
        <ele>733.79998779297</ele>
        <time>2013-05-12T05:49:44Z</time>
      </trkpt>
      <trkpt lat="44.38528" lon="5.78301">
        <ele>733.79998779297</ele>
        <time>2013-05-12T05:49:53Z</time>
      </trkpt>
      <trkpt lat="44.38544" lon="5.7833">
        <ele>733.79998779297</ele>
        <time>2013-05-12T05:49:58Z</time>
      </trkpt>
      <trkpt lat="44.38563" lon="5.78349">
        <ele>733.40002441406</ele>
        <time>2013-05-12T05:50:02Z</time>
      </trkpt>
      <trkpt lat="44.38566" lon="5.78355">
        <ele>733</ele>
        <time>2013-05-12T05:50:03Z</time>
      </trkpt>
      <trkpt lat="44.3857" lon="5.7836">
        <ele>732.59997558594</ele>
        <time>2013-05-12T05:50:04Z</time>
      </trkpt>
      <trkpt lat="44.3858" lon="5.78371">
        <ele>731.79998779297</ele>
        <time>2013-05-12T05:50:06Z</time>
      </trkpt>
      <trkpt lat="44.38593" lon="5.78385">
        <ele>731.79998779297</ele>
        <time>2013-05-12T05:50:09Z</time>
      </trkpt>
      <trkpt lat="44.38604" lon="5.78399">
        <ele>731.79998779297</ele>
        <time>2013-05-12T05:50:13Z</time>
      </trkpt>
      <trkpt lat="44.38609" lon="5.78407">
        <ele>731.79998779297</ele>
        <time>2013-05-12T05:50:18Z</time>
      </trkpt>
      <trkpt lat="44.38611" lon="5.7842">
        <ele>731.79998779297</ele>
        <time>2013-05-12T05:50:39Z</time>
      </trkpt>
      <trkpt lat="44.38612" lon="5.78422">
        <ele>732.20001220703</ele>
        <time>2013-05-12T05:50:41Z</time>
      </trkpt>
      <trkpt lat="44.38617" lon="5.78433">
        <ele>733.79998779297</ele>
        <time>2013-05-12T05:50:53Z</time>
      </trkpt>
      <trkpt lat="44.38619" lon="5.78446">
        <ele>733.79998779297</ele>
        <time>2013-05-12T05:51:02Z</time>
      </trkpt>
      <trkpt lat="44.38621" lon="5.78455">
        <ele>734.20001220703</ele>
        <time>2013-05-12T05:51:05Z</time>
      </trkpt>
      <trkpt lat="44.38624" lon="5.78461">
        <ele>735.20001220703</ele>
        <time>2013-05-12T05:51:07Z</time>
      </trkpt>
      <trkpt lat="44.3863" lon="5.78478">
        <ele>736</ele>
        <time>2013-05-12T05:51:12Z</time>
      </trkpt>
      <trkpt lat="44.38637" lon="5.78497">
        <ele>736</ele>
        <time>2013-05-12T05:51:18Z</time>
      </trkpt>
      <trkpt lat="44.38636" lon="5.78507">
        <ele>736.40002441406</ele>
        <time>2013-05-12T05:51:21Z</time>
      </trkpt>
      <trkpt lat="44.38636" lon="5.78511">
        <ele>736.79998779297</ele>
        <time>2013-05-12T05:51:22Z</time>
      </trkpt>
      <trkpt lat="44.38649" lon="5.78538">
        <ele>738</ele>
        <time>2013-05-12T05:51:31Z</time>
      </trkpt>
      <trkpt lat="44.38656" lon="5.78557">
        <ele>738</ele>
        <time>2013-05-12T05:51:38Z</time>
      </trkpt>
      <trkpt lat="44.38661" lon="5.7858">
        <ele>738</ele>
        <time>2013-05-12T05:51:47Z</time>
      </trkpt>
      <trkpt lat="44.38662" lon="5.78605">
        <ele>738</ele>
        <time>2013-05-12T05:51:55Z</time>
      </trkpt>
      <trkpt lat="44.38661" lon="5.78611">
        <ele>738</ele>
        <time>2013-05-12T05:51:57Z</time>
      </trkpt>
      <trkpt lat="44.38657" lon="5.78639">
        <ele>738</ele>
        <time>2013-05-12T05:52:07Z</time>
      </trkpt>
      <trkpt lat="44.3866" lon="5.78647">
        <ele>738.40002441406</ele>
        <time>2013-05-12T05:52:09Z</time>
      </trkpt>
      <trkpt lat="44.38665" lon="5.7865">
        <ele>738.79998779297</ele>
        <time>2013-05-12T05:52:10Z</time>
      </trkpt>
      <trkpt lat="44.3867" lon="5.78657">
        <ele>739.59997558594</ele>
        <time>2013-05-12T05:52:12Z</time>
      </trkpt>
      <trkpt lat="44.38672" lon="5.7866">
        <ele>740</ele>
        <time>2013-05-12T05:52:13Z</time>
      </trkpt>
      <trkpt lat="44.38681" lon="5.78675">
        <ele>740</ele>
        <time>2013-05-12T05:52:19Z</time>
      </trkpt>
      <trkpt lat="44.38693" lon="5.78684">
        <ele>740</ele>
        <time>2013-05-12T05:52:25Z</time>
      </trkpt>
      <trkpt lat="44.38702" lon="5.78686">
        <ele>740.40002441406</ele>
        <time>2013-05-12T05:52:27Z</time>
      </trkpt>
      <trkpt lat="44.38711" lon="5.7869">
        <ele>741.79998779297</ele>
        <time>2013-05-12T05:52:30Z</time>
      </trkpt>
      <trkpt lat="44.38711" lon="5.78691">
        <ele>742.20001220703</ele>
        <time>2013-05-12T05:52:31Z</time>
      </trkpt>
      <trkpt lat="44.38728" lon="5.78705">
        <ele>742.59997558594</ele>
        <time>2013-05-12T05:52:38Z</time>
      </trkpt>
      <trkpt lat="44.3873" lon="5.78711">
        <ele>743.59997558594</ele>
        <time>2013-05-12T05:52:40Z</time>
      </trkpt>
      <trkpt lat="44.3873" lon="5.78713">
        <ele>744.20001220703</ele>
        <time>2013-05-12T05:52:41Z</time>
      </trkpt>
      <trkpt lat="44.3873" lon="5.78716">
        <ele>744.59997558594</ele>
        <time>2013-05-12T05:52:42Z</time>
      </trkpt>
      <trkpt lat="44.3873" lon="5.78733">
        <ele>744.59997558594</ele>
        <time>2013-05-12T05:52:48Z</time>
      </trkpt>
      <trkpt lat="44.38732" lon="5.78753">
        <ele>745</ele>
        <time>2013-05-12T05:52:55Z</time>
      </trkpt>
      <trkpt lat="44.38734" lon="5.78761">
        <ele>746.40002441406</ele>
        <time>2013-05-12T05:52:58Z</time>
      </trkpt>
      <trkpt lat="44.38738" lon="5.78777">
        <ele>746.79998779297</ele>
        <time>2013-05-12T05:53:04Z</time>
      </trkpt>
      <trkpt lat="44.38737" lon="5.78797">
        <ele>747.20001220703</ele>
        <time>2013-05-12T05:53:11Z</time>
      </trkpt>
      <trkpt lat="44.38737" lon="5.78801">
        <ele>748.20001220703</ele>
        <time>2013-05-12T05:53:13Z</time>
      </trkpt>
      <trkpt lat="44.38741" lon="5.7881">
        <ele>749</ele>
        <time>2013-05-12T05:53:17Z</time>
      </trkpt>
      <trkpt lat="44.3875" lon="5.78822">
        <ele>749.79998779297</ele>
        <time>2013-05-12T05:53:24Z</time>
      </trkpt>
      <trkpt lat="44.38762" lon="5.78833">
        <ele>751.20001220703</ele>
        <time>2013-05-12T05:53:30Z</time>
      </trkpt>
      <trkpt lat="44.38777" lon="5.78836">
        <ele>751.20001220703</ele>
        <time>2013-05-12T05:53:36Z</time>
      </trkpt>
      <trkpt lat="44.3878" lon="5.7884">
        <ele>752</ele>
        <time>2013-05-12T05:53:38Z</time>
      </trkpt>
      <trkpt lat="44.38781" lon="5.78842">
        <ele>752.40002441406</ele>
        <time>2013-05-12T05:53:39Z</time>
      </trkpt>
      <trkpt lat="44.388" lon="5.78858">
        <ele>753.20001220703</ele>
        <time>2013-05-12T05:53:47Z</time>
      </trkpt>
      <trkpt lat="44.38801" lon="5.78862">
        <ele>753.20001220703</ele>
        <time>2013-05-12T05:53:49Z</time>
      </trkpt>
      <trkpt lat="44.38817" lon="5.78888">
        <ele>753.20001220703</ele>
        <time>2013-05-12T05:53:57Z</time>
      </trkpt>
      <trkpt lat="44.38818" lon="5.78894">
        <ele>753.20001220703</ele>
        <time>2013-05-12T05:53:58Z</time>
      </trkpt>
      <trkpt lat="44.38816" lon="5.78903">
        <ele>753.20001220703</ele>
        <time>2013-05-12T05:54:00Z</time>
      </trkpt>
      <trkpt lat="44.38814" lon="5.78912">
        <ele>754.40002441406</ele>
        <time>2013-05-12T05:54:03Z</time>
      </trkpt>
      <trkpt lat="44.38815" lon="5.78925">
        <ele>755.40002441406</ele>
        <time>2013-05-12T05:54:07Z</time>
      </trkpt>
      <trkpt lat="44.38815" lon="5.78931">
        <ele>756.59997558594</ele>
        <time>2013-05-12T05:54:11Z</time>
      </trkpt>
      <trkpt lat="44.3881" lon="5.78945">
        <ele>757.79998779297</ele>
        <time>2013-05-12T05:54:19Z</time>
      </trkpt>
      <trkpt lat="44.388" lon="5.78949">
        <ele>759.59997558594</ele>
        <time>2013-05-12T05:54:23Z</time>
      </trkpt>
      <trkpt lat="44.38804" lon="5.78959">
        <ele>759.59997558594</ele>
        <time>2013-05-12T05:54:27Z</time>
      </trkpt>
      <trkpt lat="44.38802" lon="5.78965">
        <ele>760.20001220703</ele>
        <time>2013-05-12T05:54:30Z</time>
      </trkpt>
      <trkpt lat="44.38799" lon="5.78968">
        <ele>761</ele>
        <time>2013-05-12T05:54:32Z</time>
      </trkpt>
      <trkpt lat="44.38796" lon="5.7897">
        <ele>761.79998779297</ele>
        <time>2013-05-12T05:54:34Z</time>
      </trkpt>
      <trkpt lat="44.38792" lon="5.7898">
        <ele>762.20001220703</ele>
        <time>2013-05-12T05:54:43Z</time>
      </trkpt>
      <trkpt lat="44.3879" lon="5.78982">
        <ele>764</ele>
        <time>2013-05-12T05:54:47Z</time>
      </trkpt>
      <trkpt lat="44.38791" lon="5.78983">
        <ele>764</ele>
        <time>2013-05-12T05:54:49Z</time>
      </trkpt>
      <trkpt lat="44.38803" lon="5.78986">
        <ele>766.20001220703</ele>
        <time>2013-05-12T05:55:10Z</time>
      </trkpt>
      <trkpt lat="44.38808" lon="5.78994">
        <ele>766.59997558594</ele>
        <time>2013-05-12T05:55:23Z</time>
      </trkpt>
      <trkpt lat="44.38811" lon="5.78997">
        <ele>767.40002441406</ele>
        <time>2013-05-12T05:55:25Z</time>
      </trkpt>
      <trkpt lat="44.38812" lon="5.79001">
        <ele>768.20001220703</ele>
        <time>2013-05-12T05:55:29Z</time>
      </trkpt>
      <trkpt lat="44.3881" lon="5.79013">
        <ele>768.20001220703</ele>
        <time>2013-05-12T05:55:42Z</time>
      </trkpt>
      <trkpt lat="44.38803" lon="5.79027">
        <ele>770.40002441406</ele>
        <time>2013-05-12T05:55:55Z</time>
      </trkpt>
      <trkpt lat="44.388" lon="5.7903">
        <ele>772.20001220703</ele>
        <time>2013-05-12T05:55:59Z</time>
      </trkpt>
      <trkpt lat="44.388" lon="5.79032">
        <ele>772.59997558594</ele>
        <time>2013-05-12T05:56:00Z</time>
      </trkpt>
      <trkpt lat="44.38796" lon="5.79041">
        <ele>773</ele>
        <time>2013-05-12T05:56:06Z</time>
      </trkpt>
      <trkpt lat="44.38795" lon="5.79061">
        <ele>774.79998779297</ele>
        <time>2013-05-12T05:56:19Z</time>
      </trkpt>
      <trkpt lat="44.38799" lon="5.79071">
        <ele>776.79998779297</ele>
        <time>2013-05-12T05:56:29Z</time>
      </trkpt>
      <trkpt lat="44.38791" lon="5.79065">
        <ele>776.79998779297</ele>
        <time>2013-05-12T05:56:45Z</time>
      </trkpt>
      <trkpt lat="44.38792" lon="5.79084">
        <ele>776.79998779297</ele>
        <time>2013-05-12T05:57:30Z</time>
      </trkpt>
      <trkpt lat="44.38791" lon="5.79093">
        <ele>777.40002441406</ele>
        <time>2013-05-12T05:57:35Z</time>
      </trkpt>
      <trkpt lat="44.3879" lon="5.79094">
        <ele>777.79998779297</ele>
        <time>2013-05-12T05:57:36Z</time>
      </trkpt>
      <trkpt lat="44.38791" lon="5.79095">
        <ele>778.20001220703</ele>
        <time>2013-05-12T05:57:37Z</time>
      </trkpt>
      <trkpt lat="44.3879" lon="5.79097">
        <ele>778.79998779297</ele>
        <time>2013-05-12T05:57:38Z</time>
      </trkpt>
      <trkpt lat="44.38789" lon="5.79101">
        <ele>779.20001220703</ele>
        <time>2013-05-12T05:57:41Z</time>
      </trkpt>
      <trkpt lat="44.38779" lon="5.79109">
        <ele>779.59997558594</ele>
        <time>2013-05-12T05:57:50Z</time>
      </trkpt>
      <trkpt lat="44.38774" lon="5.7911">
        <ele>781</ele>
        <time>2013-05-12T05:57:53Z</time>
      </trkpt>
      <trkpt lat="44.38769" lon="5.79113">
        <ele>781.40002441406</ele>
        <time>2013-05-12T05:57:58Z</time>
      </trkpt>
      <trkpt lat="44.38757" lon="5.79123">
        <ele>783.59997558594</ele>
        <time>2013-05-12T05:58:10Z</time>
      </trkpt>
      <trkpt lat="44.38749" lon="5.79131">
        <ele>784</ele>
        <time>2013-05-12T05:58:24Z</time>
      </trkpt>
      <trkpt lat="44.38754" lon="5.7914">
        <ele>785.79998779297</ele>
        <time>2013-05-12T05:58:36Z</time>
      </trkpt>
      <trkpt lat="44.38757" lon="5.79139">
        <ele>785.79998779297</ele>
        <time>2013-05-12T05:58:43Z</time>
      </trkpt>
      <trkpt lat="44.38762" lon="5.79138">
        <ele>785.79998779297</ele>
        <time>2013-05-12T05:58:53Z</time>
      </trkpt>
      <trkpt lat="44.38765" lon="5.7914">
        <ele>787</ele>
        <time>2013-05-12T05:58:58Z</time>
      </trkpt>
      <trkpt lat="44.3877" lon="5.79142">
        <ele>789.59997558594</ele>
        <time>2013-05-12T05:59:08Z</time>
      </trkpt>
      <trkpt lat="44.3878" lon="5.79148">
        <ele>791.59997558594</ele>
        <time>2013-05-12T05:59:23Z</time>
      </trkpt>
      <trkpt lat="44.38785" lon="5.79154">
        <ele>792</ele>
        <time>2013-05-12T05:59:29Z</time>
      </trkpt>
      <trkpt lat="44.38789" lon="5.79169">
        <ele>794.20001220703</ele>
        <time>2013-05-12T06:01:27Z</time>
      </trkpt>
      <trkpt lat="44.38789" lon="5.79174">
        <ele>794.59997558594</ele>
        <time>2013-05-12T06:01:32Z</time>
      </trkpt>
      <trkpt lat="44.38785" lon="5.7918">
        <ele>796.40002441406</ele>
        <time>2013-05-12T06:01:37Z</time>
      </trkpt>
      <trkpt lat="44.38786" lon="5.79193">
        <ele>796.79998779297</ele>
        <time>2013-05-12T06:01:44Z</time>
      </trkpt>
      <trkpt lat="44.38787" lon="5.79211">
        <ele>799</ele>
        <time>2013-05-12T06:01:58Z</time>
      </trkpt>
      <trkpt lat="44.38788" lon="5.79222">
        <ele>801.20001220703</ele>
        <time>2013-05-12T06:02:07Z</time>
      </trkpt>
      <trkpt lat="44.38791" lon="5.79237">
        <ele>802.79998779297</ele>
        <time>2013-05-12T06:02:20Z</time>
      </trkpt>
      <trkpt lat="44.38786" lon="5.79243">
        <ele>803.40002441406</ele>
        <time>2013-05-12T06:02:28Z</time>
      </trkpt>
      <trkpt lat="44.38791" lon="5.79244">
        <ele>805</ele>
        <time>2013-05-12T06:02:37Z</time>
      </trkpt>
      <trkpt lat="44.38793" lon="5.7924">
        <ele>805.40002441406</ele>
        <time>2013-05-12T06:02:42Z</time>
      </trkpt>
      <trkpt lat="44.38792" lon="5.79228">
        <ele>807</ele>
        <time>2013-05-12T06:02:52Z</time>
      </trkpt>
      <trkpt lat="44.38794" lon="5.79219">
        <ele>807.79998779297</ele>
        <time>2013-05-12T06:02:58Z</time>
      </trkpt>
      <trkpt lat="44.388" lon="5.79207">
        <ele>809.59997558594</ele>
        <time>2013-05-12T06:03:08Z</time>
      </trkpt>
      <trkpt lat="44.388" lon="5.79207">
        <ele>810</ele>
        <time>2013-05-12T06:03:09Z</time>
      </trkpt>
      <trkpt lat="44.38807" lon="5.79199">
        <ele>811.79998779297</ele>
        <time>2013-05-12T06:03:17Z</time>
      </trkpt>
      <trkpt lat="44.3881" lon="5.79195">
        <ele>813.40002441406</ele>
        <time>2013-05-12T06:03:21Z</time>
      </trkpt>
      <trkpt lat="44.38817" lon="5.79187">
        <ele>813.40002441406</ele>
        <time>2013-05-12T06:03:31Z</time>
      </trkpt>
      <trkpt lat="44.38822" lon="5.79181">
        <ele>813.40002441406</ele>
        <time>2013-05-12T06:03:39Z</time>
      </trkpt>
      <trkpt lat="44.38831" lon="5.7919">
        <ele>815.40002441406</ele>
        <time>2013-05-12T06:03:54Z</time>
      </trkpt>
      <trkpt lat="44.38834" lon="5.79201">
        <ele>816</ele>
        <time>2013-05-12T06:04:04Z</time>
      </trkpt>
      <trkpt lat="44.38839" lon="5.7921">
        <ele>817.79998779297</ele>
        <time>2013-05-12T06:04:15Z</time>
      </trkpt>
      <trkpt lat="44.38842" lon="5.79214">
        <ele>818.20001220703</ele>
        <time>2013-05-12T06:04:20Z</time>
      </trkpt>
      <trkpt lat="44.38849" lon="5.79225">
        <ele>820</ele>
        <time>2013-05-12T06:04:32Z</time>
      </trkpt>
      <trkpt lat="44.38853" lon="5.7923">
        <ele>820.40002441406</ele>
        <time>2013-05-12T06:04:38Z</time>
      </trkpt>
      <trkpt lat="44.3886" lon="5.79237">
        <ele>823.20001220703</ele>
        <time>2013-05-12T06:04:46Z</time>
      </trkpt>
      <trkpt lat="44.38863" lon="5.7924">
        <ele>824.59997558594</ele>
        <time>2013-05-12T06:04:49Z</time>
      </trkpt>
      <trkpt lat="44.38873" lon="5.79248">
        <ele>825</ele>
        <time>2013-05-12T06:05:05Z</time>
      </trkpt>
      <trkpt lat="44.38875" lon="5.79251">
        <ele>826.59997558594</ele>
        <time>2013-05-12T06:05:09Z</time>
      </trkpt>
      <trkpt lat="44.38882" lon="5.79256">
        <ele>827.20001220703</ele>
        <time>2013-05-12T06:05:18Z</time>
      </trkpt>
      <trkpt lat="44.38898" lon="5.79267">
        <ele>829.40002441406</ele>
        <time>2013-05-12T06:05:34Z</time>
      </trkpt>
      <trkpt lat="44.38901" lon="5.79268">
        <ele>830.59997558594</ele>
        <time>2013-05-12T06:05:37Z</time>
      </trkpt>
      <trkpt lat="44.38908" lon="5.79271">
        <ele>831.59997558594</ele>
        <time>2013-05-12T06:05:45Z</time>
      </trkpt>
      <trkpt lat="44.38911" lon="5.79272">
        <ele>832.79998779297</ele>
        <time>2013-05-12T06:05:48Z</time>
      </trkpt>
      <trkpt lat="44.38915" lon="5.7928">
        <ele>835.40002441406</ele>
        <time>2013-05-12T06:06:02Z</time>
      </trkpt>
      <trkpt lat="44.38906" lon="5.79288">
        <ele>835.40002441406</ele>
        <time>2013-05-12T06:06:12Z</time>
      </trkpt>
      <trkpt lat="44.38903" lon="5.79292">
        <ele>835.40002441406</ele>
        <time>2013-05-12T06:06:19Z</time>
      </trkpt>
      <trkpt lat="44.38905" lon="5.79289">
        <ele>835.40002441406</ele>
        <time>2013-05-12T06:06:34Z</time>
      </trkpt>
      <trkpt lat="44.38904" lon="5.79293">
        <ele>835.20001220703</ele>
        <time>2013-05-12T06:10:16Z</time>
      </trkpt>
      <trkpt lat="44.38897" lon="5.79307">
        <ele>837.20001220703</ele>
        <time>2013-05-12T06:10:34Z</time>
      </trkpt>
      <trkpt lat="44.38895" lon="5.79312">
        <ele>836.79998779297</ele>
        <time>2013-05-12T06:10:36Z</time>
      </trkpt>
      <trkpt lat="44.38892" lon="5.79321">
        <ele>835.40002441406</ele>
        <time>2013-05-12T06:10:39Z</time>
      </trkpt>
      <trkpt lat="44.3889" lon="5.79326">
        <ele>834.40002441406</ele>
        <time>2013-05-12T06:10:41Z</time>
      </trkpt>
      <trkpt lat="44.38888" lon="5.7933">
        <ele>833.40002441406</ele>
        <time>2013-05-12T06:10:43Z</time>
      </trkpt>
      <trkpt lat="44.38893" lon="5.79345">
        <ele>832.40002441406</ele>
        <time>2013-05-12T06:10:54Z</time>
      </trkpt>
      <trkpt lat="44.38894" lon="5.7935">
        <ele>830.59997558594</ele>
        <time>2013-05-12T06:11:02Z</time>
      </trkpt>
      <trkpt lat="44.38899" lon="5.79362">
        <ele>828</ele>
        <time>2013-05-12T06:11:11Z</time>
      </trkpt>
      <trkpt lat="44.38898" lon="5.79376">
        <ele>828</ele>
        <time>2013-05-12T06:11:16Z</time>
      </trkpt>
      <trkpt lat="44.38898" lon="5.79381">
        <ele>826.59997558594</ele>
        <time>2013-05-12T06:11:18Z</time>
      </trkpt>
      <trkpt lat="44.389" lon="5.79387">
        <ele>825.79998779297</ele>
        <time>2013-05-12T06:11:20Z</time>
      </trkpt>
      <trkpt lat="44.38904" lon="5.79394">
        <ele>824.40002441406</ele>
        <time>2013-05-12T06:11:22Z</time>
      </trkpt>
      <trkpt lat="44.3891" lon="5.79403">
        <ele>822.59997558594</ele>
        <time>2013-05-12T06:11:24Z</time>
      </trkpt>
      <trkpt lat="44.3892" lon="5.79409">
        <ele>820.79998779297</ele>
        <time>2013-05-12T06:11:26Z</time>
      </trkpt>
      <trkpt lat="44.38923" lon="5.79411">
        <ele>819.79998779297</ele>
        <time>2013-05-12T06:11:27Z</time>
      </trkpt>
      <trkpt lat="44.38932" lon="5.79409">
        <ele>817.20001220703</ele>
        <time>2013-05-12T06:11:30Z</time>
      </trkpt>
      <trkpt lat="44.38942" lon="5.79406">
        <ele>814.79998779297</ele>
        <time>2013-05-12T06:11:33Z</time>
      </trkpt>
      <trkpt lat="44.38951" lon="5.79409">
        <ele>812.40002441406</ele>
        <time>2013-05-12T06:11:36Z</time>
      </trkpt>
      <trkpt lat="44.38953" lon="5.7941">
        <ele>811.59997558594</ele>
        <time>2013-05-12T06:11:37Z</time>
      </trkpt>
      <trkpt lat="44.38962" lon="5.79416">
        <ele>808.20001220703</ele>
        <time>2013-05-12T06:11:41Z</time>
      </trkpt>
      <trkpt lat="44.38967" lon="5.79422">
        <ele>805.40002441406</ele>
        <time>2013-05-12T06:11:45Z</time>
      </trkpt>
      <trkpt lat="44.38972" lon="5.79426">
        <ele>802.40002441406</ele>
        <time>2013-05-12T06:11:47Z</time>
      </trkpt>
      <trkpt lat="44.38977" lon="5.79432">
        <ele>800.40002441406</ele>
        <time>2013-05-12T06:11:49Z</time>
      </trkpt>
      <trkpt lat="44.3898" lon="5.79435">
        <ele>799.59997558594</ele>
        <time>2013-05-12T06:11:50Z</time>
      </trkpt>
      <trkpt lat="44.38984" lon="5.79442">
        <ele>797.20001220703</ele>
        <time>2013-05-12T06:11:53Z</time>
      </trkpt>
      <trkpt lat="44.3899" lon="5.79447">
        <ele>796.40002441406</ele>
        <time>2013-05-12T06:11:58Z</time>
      </trkpt>
      <trkpt lat="44.38992" lon="5.79452">
        <ele>796.40002441406</ele>
        <time>2013-05-12T06:12:04Z</time>
      </trkpt>
      <trkpt lat="44.38993" lon="5.7946">
        <ele>798.40002441406</ele>
        <time>2013-05-12T06:12:10Z</time>
      </trkpt>
      <trkpt lat="44.38992" lon="5.79481">
        <ele>800.40002441406</ele>
        <time>2013-05-12T06:12:29Z</time>
      </trkpt>
      <trkpt lat="44.38993" lon="5.79498">
        <ele>800.40002441406</ele>
        <time>2013-05-12T06:12:34Z</time>
      </trkpt>
      <trkpt lat="44.38991" lon="5.79505">
        <ele>800.40002441406</ele>
        <time>2013-05-12T06:12:36Z</time>
      </trkpt>
      <trkpt lat="44.3899" lon="5.79512">
        <ele>800.40002441406</ele>
        <time>2013-05-12T06:12:39Z</time>
      </trkpt>
      <trkpt lat="44.38997" lon="5.79524">
        <ele>800.40002441406</ele>
        <time>2013-05-12T06:12:43Z</time>
      </trkpt>
      <trkpt lat="44.38996" lon="5.79542">
        <ele>800.40002441406</ele>
        <time>2013-05-12T06:12:48Z</time>
      </trkpt>
      <trkpt lat="44.38999" lon="5.79554">
        <ele>800.40002441406</ele>
        <time>2013-05-12T06:12:53Z</time>
      </trkpt>
      <trkpt lat="44.39004" lon="5.79571">
        <ele>800.40002441406</ele>
        <time>2013-05-12T06:13:02Z</time>
      </trkpt>
      <trkpt lat="44.39007" lon="5.79581">
        <ele>801.79998779297</ele>
        <time>2013-05-12T06:13:09Z</time>
      </trkpt>
      <trkpt lat="44.39016" lon="5.79598">
        <ele>802.59997558594</ele>
        <time>2013-05-12T06:13:17Z</time>
      </trkpt>
      <trkpt lat="44.39025" lon="5.79613">
        <ele>802.59997558594</ele>
        <time>2013-05-12T06:13:25Z</time>
      </trkpt>
      <trkpt lat="44.39032" lon="5.79623">
        <ele>804.79998779297</ele>
        <time>2013-05-12T06:13:37Z</time>
      </trkpt>
      <trkpt lat="44.39041" lon="5.79629">
        <ele>807.40002441406</ele>
        <time>2013-05-12T06:13:51Z</time>
      </trkpt>
      <trkpt lat="44.39043" lon="5.7963">
        <ele>808.59997558594</ele>
        <time>2013-05-12T06:13:53Z</time>
      </trkpt>
      <trkpt lat="44.39055" lon="5.79642">
        <ele>809</ele>
        <time>2013-05-12T06:14:06Z</time>
      </trkpt>
      <trkpt lat="44.39062" lon="5.79642">
        <ele>809</ele>
        <time>2013-05-12T06:14:20Z</time>
      </trkpt>
      <trkpt lat="44.39072" lon="5.79642">
        <ele>813.79998779297</ele>
        <time>2013-05-12T06:14:53Z</time>
      </trkpt>
      <trkpt lat="44.39081" lon="5.79648">
        <ele>815.79998779297</ele>
        <time>2013-05-12T06:15:08Z</time>
      </trkpt>
      <trkpt lat="44.39093" lon="5.79639">
        <ele>817.59997558594</ele>
        <time>2013-05-12T06:15:25Z</time>
      </trkpt>
      <trkpt lat="44.39105" lon="5.79635">
        <ele>820.59997558594</ele>
        <time>2013-05-12T06:15:41Z</time>
      </trkpt>
      <trkpt lat="44.39113" lon="5.79634">
        <ele>822.40002441406</ele>
        <time>2013-05-12T06:15:52Z</time>
      </trkpt>
      <trkpt lat="44.3912" lon="5.79631">
        <ele>824.79998779297</ele>
        <time>2013-05-12T06:16:03Z</time>
      </trkpt>
      <trkpt lat="44.39131" lon="5.79631">
        <ele>828.20001220703</ele>
        <time>2013-05-12T06:16:17Z</time>
      </trkpt>
      <trkpt lat="44.39141" lon="5.79632">
        <ele>831</ele>
        <time>2013-05-12T06:16:37Z</time>
      </trkpt>
      <trkpt lat="44.3915" lon="5.79632">
        <ele>833.20001220703</ele>
        <time>2013-05-12T06:16:52Z</time>
      </trkpt>
      <trkpt lat="44.39168" lon="5.79634">
        <ele>836.59997558594</ele>
        <time>2013-05-12T06:17:19Z</time>
      </trkpt>
      <trkpt lat="44.3917" lon="5.79638">
        <ele>838.20001220703</ele>
        <time>2013-05-12T06:17:23Z</time>
      </trkpt>
      <trkpt lat="44.39183" lon="5.79633">
        <ele>841.20001220703</ele>
        <time>2013-05-12T06:17:42Z</time>
      </trkpt>
      <trkpt lat="44.39195" lon="5.7963">
        <ele>842.79998779297</ele>
        <time>2013-05-12T06:17:54Z</time>
      </trkpt>
      <trkpt lat="44.39201" lon="5.79626">
        <ele>843.20001220703</ele>
        <time>2013-05-12T06:18:00Z</time>
      </trkpt>
      <trkpt lat="44.39206" lon="5.79619">
        <ele>845.40002441406</ele>
        <time>2013-05-12T06:18:12Z</time>
      </trkpt>
      <trkpt lat="44.39212" lon="5.79618">
        <ele>847.20001220703</ele>
        <time>2013-05-12T06:18:18Z</time>
      </trkpt>
      <trkpt lat="44.3922" lon="5.79614">
        <ele>848.40002441406</ele>
        <time>2013-05-12T06:18:28Z</time>
      </trkpt>
      <trkpt lat="44.3923" lon="5.79607">
        <ele>849.59997558594</ele>
        <time>2013-05-12T06:18:39Z</time>
      </trkpt>
      <trkpt lat="44.39231" lon="5.79607">
        <ele>850.20001220703</ele>
        <time>2013-05-12T06:18:40Z</time>
      </trkpt>
      <trkpt lat="44.39245" lon="5.796">
        <ele>851.79998779297</ele>
        <time>2013-05-12T06:18:51Z</time>
      </trkpt>
      <trkpt lat="44.39246" lon="5.79599">
        <ele>852.40002441406</ele>
        <time>2013-05-12T06:18:53Z</time>
      </trkpt>
      <trkpt lat="44.39257" lon="5.79595">
        <ele>854</ele>
        <time>2013-05-12T06:19:05Z</time>
      </trkpt>
      <trkpt lat="44.3926" lon="5.79595">
        <ele>854.40002441406</ele>
        <time>2013-05-12T06:19:07Z</time>
      </trkpt>
      <trkpt lat="44.3927" lon="5.79597">
        <ele>857.40002441406</ele>
        <time>2013-05-12T06:19:19Z</time>
      </trkpt>
      <trkpt lat="44.39292" lon="5.79598">
        <ele>857.79998779297</ele>
        <time>2013-05-12T06:19:36Z</time>
      </trkpt>
      <trkpt lat="44.393" lon="5.79601">
        <ele>857.79998779297</ele>
        <time>2013-05-12T06:19:41Z</time>
      </trkpt>
      <trkpt lat="44.39305" lon="5.79602">
        <ele>858.79998779297</ele>
        <time>2013-05-12T06:19:45Z</time>
      </trkpt>
      <trkpt lat="44.39311" lon="5.79602">
        <ele>860.20001220703</ele>
        <time>2013-05-12T06:19:51Z</time>
      </trkpt>
      <trkpt lat="44.39322" lon="5.79601">
        <ele>861</ele>
        <time>2013-05-12T06:19:57Z</time>
      </trkpt>
      <trkpt lat="44.39339" lon="5.79602">
        <ele>862.20001220703</ele>
        <time>2013-05-12T06:20:05Z</time>
      </trkpt>
      <trkpt lat="44.39351" lon="5.796">
        <ele>862.20001220703</ele>
        <time>2013-05-12T06:20:12Z</time>
      </trkpt>
      <trkpt lat="44.39357" lon="5.79599">
        <ele>863</ele>
        <time>2013-05-12T06:20:15Z</time>
      </trkpt>
      <trkpt lat="44.39365" lon="5.79597">
        <ele>863.79998779297</ele>
        <time>2013-05-12T06:20:18Z</time>
      </trkpt>
      <trkpt lat="44.39374" lon="5.79594">
        <ele>864.59997558594</ele>
        <time>2013-05-12T06:20:24Z</time>
      </trkpt>
      <trkpt lat="44.39385" lon="5.79592">
        <ele>866.59997558594</ele>
        <time>2013-05-12T06:20:32Z</time>
      </trkpt>
      <trkpt lat="44.39399" lon="5.79592">
        <ele>866.59997558594</ele>
        <time>2013-05-12T06:20:39Z</time>
      </trkpt>
      <trkpt lat="44.39402" lon="5.79592">
        <ele>867</ele>
        <time>2013-05-12T06:20:41Z</time>
      </trkpt>
      <trkpt lat="44.39421" lon="5.79592">
        <ele>868.59997558594</ele>
        <time>2013-05-12T06:20:51Z</time>
      </trkpt>
      <trkpt lat="44.39432" lon="5.79591">
        <ele>869.40002441406</ele>
        <time>2013-05-12T06:20:56Z</time>
      </trkpt>
      <trkpt lat="44.39442" lon="5.79592">
        <ele>870.79998779297</ele>
        <time>2013-05-12T06:21:00Z</time>
      </trkpt>
      <trkpt lat="44.39463" lon="5.79586">
        <ele>870.79998779297</ele>
        <time>2013-05-12T06:21:10Z</time>
      </trkpt>
      <trkpt lat="44.39472" lon="5.79583">
        <ele>871.20001220703</ele>
        <time>2013-05-12T06:21:15Z</time>
      </trkpt>
      <trkpt lat="44.39503" lon="5.79582">
        <ele>873.20001220703</ele>
        <time>2013-05-12T06:21:25Z</time>
      </trkpt>
      <trkpt lat="44.39511" lon="5.7958">
        <ele>874</ele>
        <time>2013-05-12T06:21:29Z</time>
      </trkpt>
      <trkpt lat="44.39525" lon="5.79576">
        <ele>875.40002441406</ele>
        <time>2013-05-12T06:21:36Z</time>
      </trkpt>
      <trkpt lat="44.39542" lon="5.79571">
        <ele>875.40002441406</ele>
        <time>2013-05-12T06:21:44Z</time>
      </trkpt>
      <trkpt lat="44.39552" lon="5.79565">
        <ele>875.79998779297</ele>
        <time>2013-05-12T06:21:49Z</time>
      </trkpt>
      <trkpt lat="44.39561" lon="5.79561">
        <ele>877.20001220703</ele>
        <time>2013-05-12T06:21:52Z</time>
      </trkpt>
      <trkpt lat="44.39562" lon="5.7956">
        <ele>877.79998779297</ele>
        <time>2013-05-12T06:21:53Z</time>
      </trkpt>
      <trkpt lat="44.39575" lon="5.79557">
        <ele>877.79998779297</ele>
        <time>2013-05-12T06:21:58Z</time>
      </trkpt>
      <trkpt lat="44.39584" lon="5.79555">
        <ele>878.20001220703</ele>
        <time>2013-05-12T06:22:02Z</time>
      </trkpt>
      <trkpt lat="44.39592" lon="5.79552">
        <ele>879.40002441406</ele>
        <time>2013-05-12T06:22:05Z</time>
      </trkpt>
      <trkpt lat="44.39616" lon="5.79547">
        <ele>879.79998779297</ele>
        <time>2013-05-12T06:22:13Z</time>
      </trkpt>
      <trkpt lat="44.3963" lon="5.7954">
        <ele>879.79998779297</ele>
        <time>2013-05-12T06:22:19Z</time>
      </trkpt>
      <trkpt lat="44.39639" lon="5.79536">
        <ele>879.79998779297</ele>
        <time>2013-05-12T06:22:23Z</time>
      </trkpt>
      <trkpt lat="44.39645" lon="5.79535">
        <ele>879.79998779297</ele>
        <time>2013-05-12T06:22:26Z</time>
      </trkpt>
      <trkpt lat="44.39651" lon="5.79533">
        <ele>880.20001220703</ele>
        <time>2013-05-12T06:22:29Z</time>
      </trkpt>
      <trkpt lat="44.39674" lon="5.79528">
        <ele>881.79998779297</ele>
        <time>2013-05-12T06:22:39Z</time>
      </trkpt>
      <trkpt lat="44.3969" lon="5.79528">
        <ele>881.79998779297</ele>
        <time>2013-05-12T06:22:46Z</time>
      </trkpt>
      <trkpt lat="44.39701" lon="5.79539">
        <ele>881.79998779297</ele>
        <time>2013-05-12T06:22:52Z</time>
      </trkpt>
      <trkpt lat="44.39711" lon="5.79548">
        <ele>882.59997558594</ele>
        <time>2013-05-12T06:22:58Z</time>
      </trkpt>
      <trkpt lat="44.39715" lon="5.7955">
        <ele>883.59997558594</ele>
        <time>2013-05-12T06:23:00Z</time>
      </trkpt>
      <trkpt lat="44.39722" lon="5.79554">
        <ele>884</ele>
        <time>2013-05-12T06:23:03Z</time>
      </trkpt>
      <trkpt lat="44.39731" lon="5.79559">
        <ele>884.79998779297</ele>
        <time>2013-05-12T06:23:08Z</time>
      </trkpt>
      <trkpt lat="44.39736" lon="5.79561">
        <ele>886.20001220703</ele>
        <time>2013-05-12T06:23:11Z</time>
      </trkpt>
      <trkpt lat="44.39745" lon="5.79567">
        <ele>886.20001220703</ele>
        <time>2013-05-12T06:23:16Z</time>
      </trkpt>
      <trkpt lat="44.39752" lon="5.79572">
        <ele>886.59997558594</ele>
        <time>2013-05-12T06:23:21Z</time>
      </trkpt>
      <trkpt lat="44.39761" lon="5.79576">
        <ele>887.79998779297</ele>
        <time>2013-05-12T06:23:24Z</time>
      </trkpt>
      <trkpt lat="44.39769" lon="5.79581">
        <ele>888.59997558594</ele>
        <time>2013-05-12T06:23:27Z</time>
      </trkpt>
      <trkpt lat="44.39772" lon="5.79582">
        <ele>889</ele>
        <time>2013-05-12T06:23:28Z</time>
      </trkpt>
      <trkpt lat="44.3978" lon="5.79585">
        <ele>890.20001220703</ele>
        <time>2013-05-12T06:23:31Z</time>
      </trkpt>
      <trkpt lat="44.39793" lon="5.79585">
        <ele>890.20001220703</ele>
        <time>2013-05-12T06:23:34Z</time>
      </trkpt>
      <trkpt lat="44.39806" lon="5.79576">
        <ele>890.20001220703</ele>
        <time>2013-05-12T06:23:38Z</time>
      </trkpt>
      <trkpt lat="44.39828" lon="5.79558">
        <ele>890.20001220703</ele>
        <time>2013-05-12T06:23:44Z</time>
      </trkpt>
      <trkpt lat="44.39839" lon="5.79546">
        <ele>890.20001220703</ele>
        <time>2013-05-12T06:23:48Z</time>
      </trkpt>
      <trkpt lat="44.39868" lon="5.79527">
        <ele>890.20001220703</ele>
        <time>2013-05-12T06:23:55Z</time>
      </trkpt>
      <trkpt lat="44.39876" lon="5.79523">
        <ele>890.20001220703</ele>
        <time>2013-05-12T06:23:57Z</time>
      </trkpt>
      <trkpt lat="44.39883" lon="5.79518">
        <ele>891</ele>
        <time>2013-05-12T06:23:59Z</time>
      </trkpt>
      <trkpt lat="44.39892" lon="5.7951">
        <ele>892.20001220703</ele>
        <time>2013-05-12T06:24:02Z</time>
      </trkpt>
      <trkpt lat="44.39909" lon="5.79496">
        <ele>892.20001220703</ele>
        <time>2013-05-12T06:24:08Z</time>
      </trkpt>
      <trkpt lat="44.3992" lon="5.79488">
        <ele>892.59997558594</ele>
        <time>2013-05-12T06:24:13Z</time>
      </trkpt>
      <trkpt lat="44.3993" lon="5.7948">
        <ele>894.20001220703</ele>
        <time>2013-05-12T06:24:17Z</time>
      </trkpt>
      <trkpt lat="44.39936" lon="5.79474">
        <ele>894.20001220703</ele>
        <time>2013-05-12T06:24:20Z</time>
      </trkpt>
      <trkpt lat="44.39955" lon="5.7946">
        <ele>894.20001220703</ele>
        <time>2013-05-12T06:24:27Z</time>
      </trkpt>
      <trkpt lat="44.39964" lon="5.79452">
        <ele>894.20001220703</ele>
        <time>2013-05-12T06:24:31Z</time>
      </trkpt>
      <trkpt lat="44.3997" lon="5.7945">
        <ele>894.20001220703</ele>
        <time>2013-05-12T06:24:36Z</time>
      </trkpt>
      <trkpt lat="44.39972" lon="5.7945">
        <ele>894.20001220703</ele>
        <time>2013-05-12T06:24:42Z</time>
      </trkpt>
      <trkpt lat="44.3998" lon="5.79448">
        <ele>894.20001220703</ele>
        <time>2013-05-12T06:25:57Z</time>
      </trkpt>
      <trkpt lat="44.39987" lon="5.79453">
        <ele>894.20001220703</ele>
        <time>2013-05-12T06:26:41Z</time>
      </trkpt>
      <trkpt lat="44.39996" lon="5.79456">
        <ele>894.20001220703</ele>
        <time>2013-05-12T06:26:44Z</time>
      </trkpt>
      <trkpt lat="44.40004" lon="5.79452">
        <ele>893.79998779297</ele>
        <time>2013-05-12T06:26:48Z</time>
      </trkpt>
      <trkpt lat="44.4001" lon="5.79448">
        <ele>891.40002441406</ele>
        <time>2013-05-12T06:26:51Z</time>
      </trkpt>
      <trkpt lat="44.40015" lon="5.79438">
        <ele>888.59997558594</ele>
        <time>2013-05-12T06:26:55Z</time>
      </trkpt>
      <trkpt lat="44.40019" lon="5.79428">
        <ele>885.79998779297</ele>
        <time>2013-05-12T06:26:59Z</time>
      </trkpt>
      <trkpt lat="44.4002" lon="5.79425">
        <ele>884.59997558594</ele>
        <time>2013-05-12T06:27:00Z</time>
      </trkpt>
      <trkpt lat="44.40023" lon="5.79419">
        <ele>884</ele>
        <time>2013-05-12T06:27:02Z</time>
      </trkpt>
      <trkpt lat="44.40031" lon="5.79408">
        <ele>880</ele>
        <time>2013-05-12T06:27:06Z</time>
      </trkpt>
      <trkpt lat="44.40038" lon="5.79394">
        <ele>878.79998779297</ele>
        <time>2013-05-12T06:27:09Z</time>
      </trkpt>
      <trkpt lat="44.4004" lon="5.79389">
        <ele>877.40002441406</ele>
        <time>2013-05-12T06:27:10Z</time>
      </trkpt>
      <trkpt lat="44.40042" lon="5.79373">
        <ele>876.40002441406</ele>
        <time>2013-05-12T06:27:13Z</time>
      </trkpt>
      <trkpt lat="44.40042" lon="5.79368">
        <ele>875.79998779297</ele>
        <time>2013-05-12T06:27:14Z</time>
      </trkpt>
      <trkpt lat="44.40044" lon="5.79357">
        <ele>873.59997558594</ele>
        <time>2013-05-12T06:27:17Z</time>
      </trkpt>
      <trkpt lat="44.40047" lon="5.79347">
        <ele>872.40002441406</ele>
        <time>2013-05-12T06:27:20Z</time>
      </trkpt>
      <trkpt lat="44.40049" lon="5.79339">
        <ele>871.40002441406</ele>
        <time>2013-05-12T06:27:22Z</time>
      </trkpt>
      <trkpt lat="44.4005" lon="5.79335">
        <ele>870.59997558594</ele>
        <time>2013-05-12T06:27:23Z</time>
      </trkpt>
      <trkpt lat="44.40053" lon="5.7932">
        <ele>869.20001220703</ele>
        <time>2013-05-12T06:27:27Z</time>
      </trkpt>
      <trkpt lat="44.40052" lon="5.79316">
        <ele>868.20001220703</ele>
        <time>2013-05-12T06:27:28Z</time>
      </trkpt>
      <trkpt lat="44.40054" lon="5.79307">
        <ele>866.40002441406</ele>
        <time>2013-05-12T06:27:30Z</time>
      </trkpt>
      <trkpt lat="44.40057" lon="5.79299">
        <ele>863.79998779297</ele>
        <time>2013-05-12T06:27:34Z</time>
      </trkpt>
      <trkpt lat="44.40061" lon="5.79285">
        <ele>860</ele>
        <time>2013-05-12T06:27:48Z</time>
      </trkpt>
      <trkpt lat="44.40073" lon="5.7927">
        <ele>859.59997558594</ele>
        <time>2013-05-12T06:27:51Z</time>
      </trkpt>
      <trkpt lat="44.40081" lon="5.7926">
        <ele>859.20001220703</ele>
        <time>2013-05-12T06:27:53Z</time>
      </trkpt>
      <trkpt lat="44.40086" lon="5.79257">
        <ele>858.79998779297</ele>
        <time>2013-05-12T06:27:54Z</time>
      </trkpt>
      <trkpt lat="44.40095" lon="5.79256">
        <ele>857.79998779297</ele>
        <time>2013-05-12T06:27:55Z</time>
      </trkpt>
      <trkpt lat="44.40105" lon="5.79255">
        <ele>857.20001220703</ele>
        <time>2013-05-12T06:27:56Z</time>
      </trkpt>
      <trkpt lat="44.40123" lon="5.7925">
        <ele>856.79998779297</ele>
        <time>2013-05-12T06:27:58Z</time>
      </trkpt>
      <trkpt lat="44.40132" lon="5.79246">
        <ele>856</ele>
        <time>2013-05-12T06:27:59Z</time>
      </trkpt>
      <trkpt lat="44.4014" lon="5.79241">
        <ele>854.20001220703</ele>
        <time>2013-05-12T06:28:00Z</time>
      </trkpt>
      <trkpt lat="44.40148" lon="5.79237">
        <ele>853.20001220703</ele>
        <time>2013-05-12T06:28:01Z</time>
      </trkpt>
      <trkpt lat="44.40161" lon="5.79226">
        <ele>852.20001220703</ele>
        <time>2013-05-12T06:28:03Z</time>
      </trkpt>
      <trkpt lat="44.40164" lon="5.79219">
        <ele>851</ele>
        <time>2013-05-12T06:28:04Z</time>
      </trkpt>
      <trkpt lat="44.40175" lon="5.79207">
        <ele>848.20001220703</ele>
        <time>2013-05-12T06:28:06Z</time>
      </trkpt>
      <trkpt lat="44.40182" lon="5.79204">
        <ele>848.20001220703</ele>
        <time>2013-05-12T06:28:07Z</time>
      </trkpt>
      <trkpt lat="44.40192" lon="5.792">
        <ele>846.59997558594</ele>
        <time>2013-05-12T06:28:09Z</time>
      </trkpt>
      <trkpt lat="44.40199" lon="5.79198">
        <ele>845.20001220703</ele>
        <time>2013-05-12T06:28:10Z</time>
      </trkpt>
      <trkpt lat="44.40207" lon="5.79198">
        <ele>845.20001220703</ele>
        <time>2013-05-12T06:28:11Z</time>
      </trkpt>
      <trkpt lat="44.40218" lon="5.79197">
        <ele>844.40002441406</ele>
        <time>2013-05-12T06:28:12Z</time>
      </trkpt>
      <trkpt lat="44.40228" lon="5.79197">
        <ele>843.40002441406</ele>
        <time>2013-05-12T06:28:13Z</time>
      </trkpt>
      <trkpt lat="44.40239" lon="5.79197">
        <ele>841.20001220703</ele>
        <time>2013-05-12T06:28:14Z</time>
      </trkpt>
      <trkpt lat="44.40249" lon="5.79197">
        <ele>840</ele>
        <time>2013-05-12T06:28:15Z</time>
      </trkpt>
      <trkpt lat="44.40268" lon="5.79194">
        <ele>838.79998779297</ele>
        <time>2013-05-12T06:28:17Z</time>
      </trkpt>
      <trkpt lat="44.40277" lon="5.79192">
        <ele>837.59997558594</ele>
        <time>2013-05-12T06:28:18Z</time>
      </trkpt>
      <trkpt lat="44.40284" lon="5.7919">
        <ele>835.20001220703</ele>
        <time>2013-05-12T06:28:19Z</time>
      </trkpt>
      <trkpt lat="44.4029" lon="5.7919">
        <ele>834</ele>
        <time>2013-05-12T06:28:20Z</time>
      </trkpt>
      <trkpt lat="44.40304" lon="5.79199">
        <ele>832.79998779297</ele>
        <time>2013-05-12T06:28:22Z</time>
      </trkpt>
      <trkpt lat="44.40311" lon="5.79215">
        <ele>832.40002441406</ele>
        <time>2013-05-12T06:28:24Z</time>
      </trkpt>
      <trkpt lat="44.40313" lon="5.79222">
        <ele>832</ele>
        <time>2013-05-12T06:28:25Z</time>
      </trkpt>
      <trkpt lat="44.40318" lon="5.79238">
        <ele>831.59997558594</ele>
        <time>2013-05-12T06:28:27Z</time>
      </trkpt>
      <trkpt lat="44.40322" lon="5.79245">
        <ele>831</ele>
        <time>2013-05-12T06:28:28Z</time>
      </trkpt>
      <trkpt lat="44.40328" lon="5.79252">
        <ele>830</ele>
        <time>2013-05-12T06:28:29Z</time>
      </trkpt>
      <trkpt lat="44.40334" lon="5.7926">
        <ele>829.59997558594</ele>
        <time>2013-05-12T06:28:30Z</time>
      </trkpt>
      <trkpt lat="44.40341" lon="5.79267">
        <ele>829.59997558594</ele>
        <time>2013-05-12T06:28:31Z</time>
      </trkpt>
      <trkpt lat="44.40349" lon="5.79273">
        <ele>829</ele>
        <time>2013-05-12T06:28:32Z</time>
      </trkpt>
      <trkpt lat="44.40357" lon="5.79279">
        <ele>828.20001220703</ele>
        <time>2013-05-12T06:28:33Z</time>
      </trkpt>
      <trkpt lat="44.40366" lon="5.79282">
        <ele>826.79998779297</ele>
        <time>2013-05-12T06:28:34Z</time>
      </trkpt>
      <trkpt lat="44.40374" lon="5.79282">
        <ele>826</ele>
        <time>2013-05-12T06:28:35Z</time>
      </trkpt>
      <trkpt lat="44.40392" lon="5.79275">
        <ele>825.40002441406</ele>
        <time>2013-05-12T06:28:37Z</time>
      </trkpt>
      <trkpt lat="44.40401" lon="5.7927">
        <ele>824.79998779297</ele>
        <time>2013-05-12T06:28:38Z</time>
      </trkpt>
      <trkpt lat="44.40411" lon="5.79265">
        <ele>823.40002441406</ele>
        <time>2013-05-12T06:28:39Z</time>
      </trkpt>
      <trkpt lat="44.4042" lon="5.79261">
        <ele>822.59997558594</ele>
        <time>2013-05-12T06:28:40Z</time>
      </trkpt>
      <trkpt lat="44.40442" lon="5.79259">
        <ele>821.79998779297</ele>
        <time>2013-05-12T06:28:42Z</time>
      </trkpt>
      <trkpt lat="44.40453" lon="5.79259">
        <ele>821</ele>
        <time>2013-05-12T06:28:43Z</time>
      </trkpt>
      <trkpt lat="44.40466" lon="5.79261">
        <ele>819.20001220703</ele>
        <time>2013-05-12T06:28:44Z</time>
      </trkpt>
      <trkpt lat="44.40477" lon="5.79262">
        <ele>818.40002441406</ele>
        <time>2013-05-12T06:28:45Z</time>
      </trkpt>
      <trkpt lat="44.40489" lon="5.79266">
        <ele>818.40002441406</ele>
        <time>2013-05-12T06:28:46Z</time>
      </trkpt>
      <trkpt lat="44.40501" lon="5.79271">
        <ele>817</ele>
        <time>2013-05-12T06:28:47Z</time>
      </trkpt>
      <trkpt lat="44.40515" lon="5.79276">
        <ele>815.79998779297</ele>
        <time>2013-05-12T06:28:48Z</time>
      </trkpt>
      <trkpt lat="44.40528" lon="5.79279">
        <ele>812.79998779297</ele>
        <time>2013-05-12T06:28:49Z</time>
      </trkpt>
      <trkpt lat="44.40541" lon="5.79281">
        <ele>811.40002441406</ele>
        <time>2013-05-12T06:28:50Z</time>
      </trkpt>
      <trkpt lat="44.40554" lon="5.79284">
        <ele>811.40002441406</ele>
        <time>2013-05-12T06:28:51Z</time>
      </trkpt>
      <trkpt lat="44.40566" lon="5.79289">
        <ele>810</ele>
        <time>2013-05-12T06:28:52Z</time>
      </trkpt>
      <trkpt lat="44.40578" lon="5.79294">
        <ele>808.79998779297</ele>
        <time>2013-05-12T06:28:53Z</time>
      </trkpt>
      <trkpt lat="44.40592" lon="5.79298">
        <ele>806.20001220703</ele>
        <time>2013-05-12T06:28:54Z</time>
      </trkpt>
      <trkpt lat="44.40619" lon="5.79307">
        <ele>804.79998779297</ele>
        <time>2013-05-12T06:28:56Z</time>
      </trkpt>
      <trkpt lat="44.40636" lon="5.79313">
        <ele>803.40002441406</ele>
        <time>2013-05-12T06:28:58Z</time>
      </trkpt>
      <trkpt lat="44.40649" lon="5.79317">
        <ele>801.79998779297</ele>
        <time>2013-05-12T06:28:59Z</time>
      </trkpt>
      <trkpt lat="44.4066" lon="5.7932">
        <ele>800</ele>
        <time>2013-05-12T06:29:00Z</time>
      </trkpt>
      <trkpt lat="44.4067" lon="5.79324">
        <ele>798.40002441406</ele>
        <time>2013-05-12T06:29:01Z</time>
      </trkpt>
      <trkpt lat="44.4068" lon="5.79332">
        <ele>796.79998779297</ele>
        <time>2013-05-12T06:29:02Z</time>
      </trkpt>
      <trkpt lat="44.40688" lon="5.79342">
        <ele>795.20001220703</ele>
        <time>2013-05-12T06:29:03Z</time>
      </trkpt>
      <trkpt lat="44.40697" lon="5.79351">
        <ele>793.79998779297</ele>
        <time>2013-05-12T06:29:04Z</time>
      </trkpt>
      <trkpt lat="44.40706" lon="5.79359">
        <ele>792.40002441406</ele>
        <time>2013-05-12T06:29:05Z</time>
      </trkpt>
      <trkpt lat="44.40717" lon="5.79363">
        <ele>791</ele>
        <time>2013-05-12T06:29:06Z</time>
      </trkpt>
      <trkpt lat="44.40728" lon="5.79366">
        <ele>789.59997558594</ele>
        <time>2013-05-12T06:29:07Z</time>
      </trkpt>
      <trkpt lat="44.40739" lon="5.7937">
        <ele>788</ele>
        <time>2013-05-12T06:29:08Z</time>
      </trkpt>
      <trkpt lat="44.40751" lon="5.79372">
        <ele>786.40002441406</ele>
        <time>2013-05-12T06:29:09Z</time>
      </trkpt>
      <trkpt lat="44.40764" lon="5.79373">
        <ele>785</ele>
        <time>2013-05-12T06:29:10Z</time>
      </trkpt>
      <trkpt lat="44.40778" lon="5.79373">
        <ele>783.40002441406</ele>
        <time>2013-05-12T06:29:11Z</time>
      </trkpt>
      <trkpt lat="44.40791" lon="5.79373">
        <ele>781.79998779297</ele>
        <time>2013-05-12T06:29:12Z</time>
      </trkpt>
      <trkpt lat="44.40805" lon="5.79375">
        <ele>780.20001220703</ele>
        <time>2013-05-12T06:29:13Z</time>
      </trkpt>
      <trkpt lat="44.40819" lon="5.79376">
        <ele>778.79998779297</ele>
        <time>2013-05-12T06:29:14Z</time>
      </trkpt>
      <trkpt lat="44.40832" lon="5.79378">
        <ele>777.40002441406</ele>
        <time>2013-05-12T06:29:15Z</time>
      </trkpt>
      <trkpt lat="44.40845" lon="5.79379">
        <ele>776</ele>
        <time>2013-05-12T06:29:16Z</time>
      </trkpt>
      <trkpt lat="44.40859" lon="5.79379">
        <ele>774.59997558594</ele>
        <time>2013-05-12T06:29:17Z</time>
      </trkpt>
      <trkpt lat="44.40871" lon="5.79378">
        <ele>773.40002441406</ele>
        <time>2013-05-12T06:29:18Z</time>
      </trkpt>
      <trkpt lat="44.40882" lon="5.79375">
        <ele>772.20001220703</ele>
        <time>2013-05-12T06:29:19Z</time>
      </trkpt>
      <trkpt lat="44.40894" lon="5.79372">
        <ele>770.79998779297</ele>
        <time>2013-05-12T06:29:20Z</time>
      </trkpt>
      <trkpt lat="44.40907" lon="5.7937">
        <ele>769.79998779297</ele>
        <time>2013-05-12T06:29:21Z</time>
      </trkpt>
      <trkpt lat="44.40919" lon="5.79369">
        <ele>769</ele>
        <time>2013-05-12T06:29:22Z</time>
      </trkpt>
      <trkpt lat="44.40932" lon="5.79366">
        <ele>768</ele>
        <time>2013-05-12T06:29:23Z</time>
      </trkpt>
      <trkpt lat="44.40944" lon="5.79362">
        <ele>766.79998779297</ele>
        <time>2013-05-12T06:29:24Z</time>
      </trkpt>
      <trkpt lat="44.40957" lon="5.79358">
        <ele>766.79998779297</ele>
        <time>2013-05-12T06:29:25Z</time>
      </trkpt>
      <trkpt lat="44.40969" lon="5.79356">
        <ele>764.79998779297</ele>
        <time>2013-05-12T06:29:26Z</time>
      </trkpt>
      <trkpt lat="44.40983" lon="5.79355">
        <ele>763.79998779297</ele>
        <time>2013-05-12T06:29:27Z</time>
      </trkpt>
      <trkpt lat="44.40996" lon="5.79356">
        <ele>762.79998779297</ele>
        <time>2013-05-12T06:29:28Z</time>
      </trkpt>
      <trkpt lat="44.4101" lon="5.79359">
        <ele>761.59997558594</ele>
        <time>2013-05-12T06:29:29Z</time>
      </trkpt>
      <trkpt lat="44.41037" lon="5.79374">
        <ele>759.40002441406</ele>
        <time>2013-05-12T06:29:31Z</time>
      </trkpt>
      <trkpt lat="44.41049" lon="5.79382">
        <ele>758</ele>
        <time>2013-05-12T06:29:32Z</time>
      </trkpt>
      <trkpt lat="44.41063" lon="5.79386">
        <ele>756.59997558594</ele>
        <time>2013-05-12T06:29:33Z</time>
      </trkpt>
      <trkpt lat="44.41076" lon="5.79385">
        <ele>755.20001220703</ele>
        <time>2013-05-12T06:29:34Z</time>
      </trkpt>
      <trkpt lat="44.411" lon="5.79375">
        <ele>752.20001220703</ele>
        <time>2013-05-12T06:29:36Z</time>
      </trkpt>
      <trkpt lat="44.41113" lon="5.79368">
        <ele>752.20001220703</ele>
        <time>2013-05-12T06:29:37Z</time>
      </trkpt>
      <trkpt lat="44.41125" lon="5.7936">
        <ele>749.40002441406</ele>
        <time>2013-05-12T06:29:38Z</time>
      </trkpt>
      <trkpt lat="44.41137" lon="5.79351">
        <ele>748</ele>
        <time>2013-05-12T06:29:39Z</time>
      </trkpt>
      <trkpt lat="44.41149" lon="5.79342">
        <ele>746.79998779297</ele>
        <time>2013-05-12T06:29:40Z</time>
      </trkpt>
      <trkpt lat="44.41173" lon="5.79323">
        <ele>745.40002441406</ele>
        <time>2013-05-12T06:29:42Z</time>
      </trkpt>
      <trkpt lat="44.41185" lon="5.79315">
        <ele>744.20001220703</ele>
        <time>2013-05-12T06:29:43Z</time>
      </trkpt>
      <trkpt lat="44.41197" lon="5.79308">
        <ele>743</ele>
        <time>2013-05-12T06:29:44Z</time>
      </trkpt>
      <trkpt lat="44.41209" lon="5.79303">
        <ele>743</ele>
        <time>2013-05-12T06:29:45Z</time>
      </trkpt>
      <trkpt lat="44.41222" lon="5.793">
        <ele>741.59997558594</ele>
        <time>2013-05-12T06:29:46Z</time>
      </trkpt>
      <trkpt lat="44.41235" lon="5.793">
        <ele>740.20001220703</ele>
        <time>2013-05-12T06:29:47Z</time>
      </trkpt>
      <trkpt lat="44.41247" lon="5.79302">
        <ele>738.79998779297</ele>
        <time>2013-05-12T06:29:48Z</time>
      </trkpt>
      <trkpt lat="44.41259" lon="5.79305">
        <ele>737.40002441406</ele>
        <time>2013-05-12T06:29:49Z</time>
      </trkpt>
      <trkpt lat="44.41272" lon="5.79308">
        <ele>735.79998779297</ele>
        <time>2013-05-12T06:29:50Z</time>
      </trkpt>
      <trkpt lat="44.41284" lon="5.79311">
        <ele>734.79998779297</ele>
        <time>2013-05-12T06:29:51Z</time>
      </trkpt>
      <trkpt lat="44.41297" lon="5.79314">
        <ele>733.79998779297</ele>
        <time>2013-05-12T06:29:52Z</time>
      </trkpt>
      <trkpt lat="44.41309" lon="5.79317">
        <ele>732.79998779297</ele>
        <time>2013-05-12T06:29:53Z</time>
      </trkpt>
      <trkpt lat="44.41322" lon="5.7932">
        <ele>732</ele>
        <time>2013-05-12T06:29:54Z</time>
      </trkpt>
      <trkpt lat="44.41334" lon="5.79321">
        <ele>731.20001220703</ele>
        <time>2013-05-12T06:29:55Z</time>
      </trkpt>
      <trkpt lat="44.41346" lon="5.7932">
        <ele>730</ele>
        <time>2013-05-12T06:29:56Z</time>
      </trkpt>
      <trkpt lat="44.41357" lon="5.79319">
        <ele>729</ele>
        <time>2013-05-12T06:29:57Z</time>
      </trkpt>
      <trkpt lat="44.41367" lon="5.7932">
        <ele>728</ele>
        <time>2013-05-12T06:29:58Z</time>
      </trkpt>
      <trkpt lat="44.41378" lon="5.79321">
        <ele>727</ele>
        <time>2013-05-12T06:29:59Z</time>
      </trkpt>
      <trkpt lat="44.41388" lon="5.79321">
        <ele>726</ele>
        <time>2013-05-12T06:30:00Z</time>
      </trkpt>
      <trkpt lat="44.4142" lon="5.79317">
        <ele>726</ele>
        <time>2013-05-12T06:30:03Z</time>
      </trkpt>
      <trkpt lat="44.4143" lon="5.79314">
        <ele>725.40002441406</ele>
        <time>2013-05-12T06:30:04Z</time>
      </trkpt>
      <trkpt lat="44.4144" lon="5.79312">
        <ele>725</ele>
        <time>2013-05-12T06:30:05Z</time>
      </trkpt>
      <trkpt lat="44.4145" lon="5.79311">
        <ele>724.59997558594</ele>
        <time>2013-05-12T06:30:06Z</time>
      </trkpt>
      <trkpt lat="44.41468" lon="5.79311">
        <ele>723.59997558594</ele>
        <time>2013-05-12T06:30:08Z</time>
      </trkpt>
      <trkpt lat="44.41493" lon="5.79313">
        <ele>723.59997558594</ele>
        <time>2013-05-12T06:30:11Z</time>
      </trkpt>
      <trkpt lat="44.4151" lon="5.79311">
        <ele>723.59997558594</ele>
        <time>2013-05-12T06:30:13Z</time>
      </trkpt>
      <trkpt lat="44.41525" lon="5.79306">
        <ele>723.59997558594</ele>
        <time>2013-05-12T06:30:15Z</time>
      </trkpt>
      <trkpt lat="44.4154" lon="5.79299">
        <ele>723.59997558594</ele>
        <time>2013-05-12T06:30:17Z</time>
      </trkpt>
      <trkpt lat="44.41546" lon="5.79295">
        <ele>723.20001220703</ele>
        <time>2013-05-12T06:30:18Z</time>
      </trkpt>
      <trkpt lat="44.41551" lon="5.79293">
        <ele>722.79998779297</ele>
        <time>2013-05-12T06:30:19Z</time>
      </trkpt>
      <trkpt lat="44.41558" lon="5.79289">
        <ele>721.79998779297</ele>
        <time>2013-05-12T06:30:21Z</time>
      </trkpt>
      <trkpt lat="44.4156" lon="5.79288">
        <ele>721.40002441406</ele>
        <time>2013-05-12T06:30:23Z</time>
      </trkpt>
      <trkpt lat="44.4156" lon="5.79287">
        <ele>721.40002441406</ele>
        <time>2013-05-12T06:30:34Z</time>
      </trkpt>
      <trkpt lat="44.4156" lon="5.79288">
        <ele>721.40002441406</ele>
        <time>2013-05-12T06:30:45Z</time>
      </trkpt>
      <trkpt lat="44.41559" lon="5.79288">
        <ele>721.40002441406</ele>
        <time>2013-05-12T06:30:48Z</time>
      </trkpt>
      <trkpt lat="44.41551" lon="5.7929">
        <ele>721.40002441406</ele>
        <time>2013-05-12T06:30:55Z</time>
      </trkpt>
      <trkpt lat="44.41531" lon="5.793">
        <ele>721.40002441406</ele>
        <time>2013-05-12T06:31:02Z</time>
      </trkpt>
      <trkpt lat="44.41545" lon="5.79293">
        <ele>721.40002441406</ele>
        <time>2013-05-12T06:31:07Z</time>
      </trkpt>
      <trkpt lat="44.41561" lon="5.79283">
        <ele>721.40002441406</ele>
        <time>2013-05-12T06:31:10Z</time>
      </trkpt>
      <trkpt lat="44.41573" lon="5.79276">
        <ele>721.40002441406</ele>
        <time>2013-05-12T06:31:12Z</time>
      </trkpt>
      <trkpt lat="44.41615" lon="5.7925">
        <ele>721.40002441406</ele>
        <time>2013-05-12T06:31:19Z</time>
      </trkpt>
      <trkpt lat="44.41666" lon="5.7923">
        <ele>721.40002441406</ele>
        <time>2013-05-12T06:31:28Z</time>
      </trkpt>
      <trkpt lat="44.41708" lon="5.79229">
        <ele>721.40002441406</ele>
        <time>2013-05-12T06:31:37Z</time>
      </trkpt>
      <trkpt lat="44.41749" lon="5.79226">
        <ele>721.40002441406</ele>
        <time>2013-05-12T06:31:47Z</time>
      </trkpt>
      <trkpt lat="44.41775" lon="5.79225">
        <ele>722.20001220703</ele>
        <time>2013-05-12T06:31:54Z</time>
      </trkpt>
      <trkpt lat="44.41786" lon="5.79224">
        <ele>723.40002441406</ele>
        <time>2013-05-12T06:31:57Z</time>
      </trkpt>
      <trkpt lat="44.41816" lon="5.79228">
        <ele>723.40002441406</ele>
        <time>2013-05-12T06:32:05Z</time>
      </trkpt>
      <trkpt lat="44.41843" lon="5.79236">
        <ele>723.40002441406</ele>
        <time>2013-05-12T06:32:12Z</time>
      </trkpt>
      <trkpt lat="44.41856" lon="5.7924">
        <ele>723.40002441406</ele>
        <time>2013-05-12T06:32:15Z</time>
      </trkpt>
      <trkpt lat="44.41859" lon="5.79241">
        <ele>723.40002441406</ele>
        <time>2013-05-12T06:32:16Z</time>
      </trkpt>
      <trkpt lat="44.41876" lon="5.79242">
        <ele>723.79998779297</ele>
        <time>2013-05-12T06:32:20Z</time>
      </trkpt>
      <trkpt lat="44.41881" lon="5.79242">
        <ele>724.59997558594</ele>
        <time>2013-05-12T06:32:21Z</time>
      </trkpt>
      <trkpt lat="44.4189" lon="5.79239">
        <ele>725.40002441406</ele>
        <time>2013-05-12T06:32:23Z</time>
      </trkpt>
      <trkpt lat="44.4191" lon="5.7923">
        <ele>725.40002441406</ele>
        <time>2013-05-12T06:32:28Z</time>
      </trkpt>
      <trkpt lat="44.41945" lon="5.79209">
        <ele>725.40002441406</ele>
        <time>2013-05-12T06:32:38Z</time>
      </trkpt>
      <trkpt lat="44.41967" lon="5.7919">
        <ele>726.20001220703</ele>
        <time>2013-05-12T06:32:46Z</time>
      </trkpt>
      <trkpt lat="44.41973" lon="5.79183">
        <ele>727</ele>
        <time>2013-05-12T06:32:49Z</time>
      </trkpt>
      <trkpt lat="44.41984" lon="5.79172">
        <ele>727.40002441406</ele>
        <time>2013-05-12T06:32:55Z</time>
      </trkpt>
      <trkpt lat="44.4199" lon="5.79166">
        <ele>728</ele>
        <time>2013-05-12T06:32:58Z</time>
      </trkpt>
      <trkpt lat="44.41991" lon="5.79164">
        <ele>728.40002441406</ele>
        <time>2013-05-12T06:32:59Z</time>
      </trkpt>
      <trkpt lat="44.41994" lon="5.79159">
        <ele>729.20001220703</ele>
        <time>2013-05-12T06:33:01Z</time>
      </trkpt>
      <trkpt lat="44.42011" lon="5.79141">
        <ele>730.20001220703</ele>
        <time>2013-05-12T06:33:11Z</time>
      </trkpt>
      <trkpt lat="44.42013" lon="5.7914">
        <ele>730.79998779297</ele>
        <time>2013-05-12T06:33:12Z</time>
      </trkpt>
      <trkpt lat="44.42021" lon="5.79136">
        <ele>732.20001220703</ele>
        <time>2013-05-12T06:33:16Z</time>
      </trkpt>
      <trkpt lat="44.42028" lon="5.79142">
        <ele>733.79998779297</ele>
        <time>2013-05-12T06:33:20Z</time>
      </trkpt>
      <trkpt lat="44.4203" lon="5.79147">
        <ele>734.79998779297</ele>
        <time>2013-05-12T06:33:22Z</time>
      </trkpt>
      <trkpt lat="44.42041" lon="5.7917">
        <ele>734.79998779297</ele>
        <time>2013-05-12T06:33:28Z</time>
      </trkpt>
      <trkpt lat="44.42052" lon="5.79197">
        <ele>734.79998779297</ele>
        <time>2013-05-12T06:33:34Z</time>
      </trkpt>
      <trkpt lat="44.42066" lon="5.79248">
        <ele>734.79998779297</ele>
        <time>2013-05-12T06:33:43Z</time>
      </trkpt>
      <trkpt lat="44.42074" lon="5.79302">
        <ele>734.79998779297</ele>
        <time>2013-05-12T06:33:52Z</time>
      </trkpt>
      <trkpt lat="44.42092" lon="5.79352">
        <ele>735.20001220703</ele>
        <time>2013-05-12T06:34:01Z</time>
      </trkpt>
      <trkpt lat="44.42097" lon="5.79363">
        <ele>736</ele>
        <time>2013-05-12T06:34:03Z</time>
      </trkpt>
      <trkpt lat="44.42105" lon="5.79378">
        <ele>736.79998779297</ele>
        <time>2013-05-12T06:34:06Z</time>
      </trkpt>
      <trkpt lat="44.42115" lon="5.79391">
        <ele>736.79998779297</ele>
        <time>2013-05-12T06:34:09Z</time>
      </trkpt>
      <trkpt lat="44.42143" lon="5.79417">
        <ele>736.79998779297</ele>
        <time>2013-05-12T06:34:16Z</time>
      </trkpt>
      <trkpt lat="44.42169" lon="5.79441">
        <ele>736.79998779297</ele>
        <time>2013-05-12T06:34:22Z</time>
      </trkpt>
      <trkpt lat="44.42192" lon="5.79465">
        <ele>736.79998779297</ele>
        <time>2013-05-12T06:34:28Z</time>
      </trkpt>
      <trkpt lat="44.42204" lon="5.79471">
        <ele>736.79998779297</ele>
        <time>2013-05-12T06:34:32Z</time>
      </trkpt>
      <trkpt lat="44.42216" lon="5.79483">
        <ele>736.79998779297</ele>
        <time>2013-05-12T06:34:54Z</time>
      </trkpt>
      <trkpt lat="44.42267" lon="5.79474">
        <ele>738.40002441406</ele>
        <time>2013-05-12T06:47:44Z</time>
      </trkpt>
      <trkpt lat="44.42271" lon="5.79473">
        <ele>738.40002441406</ele>
        <time>2013-05-12T06:47:46Z</time>
      </trkpt>
      <trkpt lat="44.42282" lon="5.79473">
        <ele>739.79998779297</ele>
        <time>2013-05-12T06:47:51Z</time>
      </trkpt>
      <trkpt lat="44.42304" lon="5.79473">
        <ele>740.59997558594</ele>
        <time>2013-05-12T06:48:00Z</time>
      </trkpt>
      <trkpt lat="44.42318" lon="5.79475">
        <ele>740.59997558594</ele>
        <time>2013-05-12T06:48:06Z</time>
      </trkpt>
      <trkpt lat="44.42327" lon="5.79477">
        <ele>740.59997558594</ele>
        <time>2013-05-12T06:48:10Z</time>
      </trkpt>
      <trkpt lat="44.4234" lon="5.7948">
        <ele>741</ele>
        <time>2013-05-12T06:48:16Z</time>
      </trkpt>
      <trkpt lat="44.42354" lon="5.79483">
        <ele>743.20001220703</ele>
        <time>2013-05-12T06:48:22Z</time>
      </trkpt>
      <trkpt lat="44.42361" lon="5.79486">
        <ele>744.59997558594</ele>
        <time>2013-05-12T06:48:25Z</time>
      </trkpt>
      <trkpt lat="44.42387" lon="5.79494">
        <ele>745</ele>
        <time>2013-05-12T06:48:36Z</time>
      </trkpt>
      <trkpt lat="44.42406" lon="5.79501">
        <ele>745</ele>
        <time>2013-05-12T06:48:44Z</time>
      </trkpt>
      <trkpt lat="44.42426" lon="5.79511">
        <ele>745</ele>
        <time>2013-05-12T06:48:52Z</time>
      </trkpt>
      <trkpt lat="44.4244" lon="5.79518">
        <ele>745.40002441406</ele>
        <time>2013-05-12T06:48:57Z</time>
      </trkpt>
      <trkpt lat="44.42445" lon="5.79521">
        <ele>746.20001220703</ele>
        <time>2013-05-12T06:48:59Z</time>
      </trkpt>
      <trkpt lat="44.42451" lon="5.79524">
        <ele>747</ele>
        <time>2013-05-12T06:49:01Z</time>
      </trkpt>
      <trkpt lat="44.42473" lon="5.79537">
        <ele>747</ele>
        <time>2013-05-12T06:49:09Z</time>
      </trkpt>
      <trkpt lat="44.42479" lon="5.7954">
        <ele>747</ele>
        <time>2013-05-12T06:49:11Z</time>
      </trkpt>
      <trkpt lat="44.42496" lon="5.79552">
        <ele>747</ele>
        <time>2013-05-12T06:49:17Z</time>
      </trkpt>
      <trkpt lat="44.42514" lon="5.79563">
        <ele>747</ele>
        <time>2013-05-12T06:49:23Z</time>
      </trkpt>
      <trkpt lat="44.42531" lon="5.79574">
        <ele>747.40002441406</ele>
        <time>2013-05-12T06:49:29Z</time>
      </trkpt>
      <trkpt lat="44.4254" lon="5.7958">
        <ele>748.59997558594</ele>
        <time>2013-05-12T06:49:32Z</time>
      </trkpt>
      <trkpt lat="44.42543" lon="5.79582">
        <ele>749</ele>
        <time>2013-05-12T06:49:33Z</time>
      </trkpt>
      <trkpt lat="44.42557" lon="5.79591">
        <ele>749</ele>
        <time>2013-05-12T06:49:38Z</time>
      </trkpt>
      <trkpt lat="44.42575" lon="5.79599">
        <ele>749</ele>
        <time>2013-05-12T06:49:45Z</time>
      </trkpt>
      <trkpt lat="44.42583" lon="5.79602">
        <ele>749.40002441406</ele>
        <time>2013-05-12T06:49:48Z</time>
      </trkpt>
      <trkpt lat="44.42591" lon="5.79603">
        <ele>750.79998779297</ele>
        <time>2013-05-12T06:49:51Z</time>
      </trkpt>
      <trkpt lat="44.42614" lon="5.79608">
        <ele>751.20001220703</ele>
        <time>2013-05-12T06:50:00Z</time>
      </trkpt>
      <trkpt lat="44.4262" lon="5.79609">
        <ele>752</ele>
        <time>2013-05-12T06:50:03Z</time>
      </trkpt>
      <trkpt lat="44.42637" lon="5.7961">
        <ele>753.20001220703</ele>
        <time>2013-05-12T06:50:10Z</time>
      </trkpt>
      <trkpt lat="44.42658" lon="5.79609">
        <ele>753.20001220703</ele>
        <time>2013-05-12T06:50:19Z</time>
      </trkpt>
      <trkpt lat="44.4266" lon="5.79609">
        <ele>754</ele>
        <time>2013-05-12T06:50:20Z</time>
      </trkpt>
      <trkpt lat="44.42672" lon="5.79605">
        <ele>755.20001220703</ele>
        <time>2013-05-12T06:50:24Z</time>
      </trkpt>
      <trkpt lat="44.42696" lon="5.79589">
        <ele>755.20001220703</ele>
        <time>2013-05-12T06:50:34Z</time>
      </trkpt>
      <trkpt lat="44.42708" lon="5.79577">
        <ele>755.59997558594</ele>
        <time>2013-05-12T06:50:40Z</time>
      </trkpt>
      <trkpt lat="44.42713" lon="5.7957">
        <ele>756.79998779297</ele>
        <time>2013-05-12T06:50:43Z</time>
      </trkpt>
      <trkpt lat="44.42721" lon="5.79543">
        <ele>757.20001220703</ele>
        <time>2013-05-12T06:50:51Z</time>
      </trkpt>
      <trkpt lat="44.42729" lon="5.79522">
        <ele>757.20001220703</ele>
        <time>2013-05-12T06:50:57Z</time>
      </trkpt>
      <trkpt lat="44.4274" lon="5.79505">
        <ele>757.20001220703</ele>
        <time>2013-05-12T06:51:03Z</time>
      </trkpt>
      <trkpt lat="44.42754" lon="5.79497">
        <ele>757.20001220703</ele>
        <time>2013-05-12T06:51:09Z</time>
      </trkpt>
      <trkpt lat="44.42762" lon="5.79495">
        <ele>758.20001220703</ele>
        <time>2013-05-12T06:51:12Z</time>
      </trkpt>
      <trkpt lat="44.42772" lon="5.79495">
        <ele>759.40002441406</ele>
        <time>2013-05-12T06:51:16Z</time>
      </trkpt>
      <trkpt lat="44.42782" lon="5.79495">
        <ele>761</ele>
        <time>2013-05-12T06:51:21Z</time>
      </trkpt>
      <trkpt lat="44.42791" lon="5.79496">
        <ele>761.79998779297</ele>
        <time>2013-05-12T06:51:25Z</time>
      </trkpt>
      <trkpt lat="44.42802" lon="5.79499">
        <ele>763.59997558594</ele>
        <time>2013-05-12T06:51:31Z</time>
      </trkpt>
      <trkpt lat="44.42811" lon="5.79499">
        <ele>763.59997558594</ele>
        <time>2013-05-12T06:51:35Z</time>
      </trkpt>
      <trkpt lat="44.42823" lon="5.79495">
        <ele>763.59997558594</ele>
        <time>2013-05-12T06:51:41Z</time>
      </trkpt>
      <trkpt lat="44.4284" lon="5.79481">
        <ele>764.59997558594</ele>
        <time>2013-05-12T06:51:50Z</time>
      </trkpt>
      <trkpt lat="44.42842" lon="5.79479">
        <ele>765</ele>
        <time>2013-05-12T06:51:51Z</time>
      </trkpt>
      <trkpt lat="44.42858" lon="5.79465">
        <ele>766.20001220703</ele>
        <time>2013-05-12T06:52:00Z</time>
      </trkpt>
      <trkpt lat="44.42864" lon="5.79463">
        <ele>767</ele>
        <time>2013-05-12T06:52:04Z</time>
      </trkpt>
      <trkpt lat="44.42876" lon="5.7946">
        <ele>768</ele>
        <time>2013-05-12T06:52:10Z</time>
      </trkpt>
      <trkpt lat="44.42889" lon="5.79465">
        <ele>768</ele>
        <time>2013-05-12T06:52:17Z</time>
      </trkpt>
      <trkpt lat="44.42892" lon="5.79468">
        <ele>768.40002441406</ele>
        <time>2013-05-12T06:52:19Z</time>
      </trkpt>
      <trkpt lat="44.42895" lon="5.79471">
        <ele>769.20001220703</ele>
        <time>2013-05-12T06:52:21Z</time>
      </trkpt>
      <trkpt lat="44.42911" lon="5.79483">
        <ele>770.40002441406</ele>
        <time>2013-05-12T06:52:30Z</time>
      </trkpt>
      <trkpt lat="44.42922" lon="5.79491">
        <ele>772.20001220703</ele>
        <time>2013-05-12T06:52:37Z</time>
      </trkpt>
      <trkpt lat="44.42936" lon="5.79501">
        <ele>772.20001220703</ele>
        <time>2013-05-12T06:52:44Z</time>
      </trkpt>
      <trkpt lat="44.42942" lon="5.79513">
        <ele>772.59997558594</ele>
        <time>2013-05-12T06:52:50Z</time>
      </trkpt>
      <trkpt lat="44.42944" lon="5.79522">
        <ele>774.20001220703</ele>
        <time>2013-05-12T06:52:54Z</time>
      </trkpt>
      <trkpt lat="44.42948" lon="5.79533">
        <ele>774.59997558594</ele>
        <time>2013-05-12T06:52:59Z</time>
      </trkpt>
      <trkpt lat="44.42951" lon="5.79537">
        <ele>775.40002441406</ele>
        <time>2013-05-12T06:53:01Z</time>
      </trkpt>
      <trkpt lat="44.42964" lon="5.79533">
        <ele>776.79998779297</ele>
        <time>2013-05-12T06:53:09Z</time>
      </trkpt>
      <trkpt lat="44.42966" lon="5.79529">
        <ele>777.79998779297</ele>
        <time>2013-05-12T06:53:11Z</time>
      </trkpt>
      <trkpt lat="44.42979" lon="5.79509">
        <ele>779.20001220703</ele>
        <time>2013-05-12T06:53:22Z</time>
      </trkpt>
      <trkpt lat="44.42981" lon="5.79507">
        <ele>779.59997558594</ele>
        <time>2013-05-12T06:53:23Z</time>
      </trkpt>
      <trkpt lat="44.42987" lon="5.79498">
        <ele>781</ele>
        <time>2013-05-12T06:53:28Z</time>
      </trkpt>
      <trkpt lat="44.42991" lon="5.79493">
        <ele>781.40002441406</ele>
        <time>2013-05-12T06:53:31Z</time>
      </trkpt>
      <trkpt lat="44.42994" lon="5.79489">
        <ele>782.20001220703</ele>
        <time>2013-05-12T06:53:33Z</time>
      </trkpt>
      <trkpt lat="44.43006" lon="5.79468">
        <ele>783.20001220703</ele>
        <time>2013-05-12T06:53:44Z</time>
      </trkpt>
      <trkpt lat="44.43009" lon="5.7945">
        <ele>783.59997558594</ele>
        <time>2013-05-12T06:53:51Z</time>
      </trkpt>
      <trkpt lat="44.43009" lon="5.79448">
        <ele>784.20001220703</ele>
        <time>2013-05-12T06:53:52Z</time>
      </trkpt>
      <trkpt lat="44.4301" lon="5.79438">
        <ele>786.20001220703</ele>
        <time>2013-05-12T06:53:56Z</time>
      </trkpt>
      <trkpt lat="44.4301" lon="5.79433">
        <ele>787.20001220703</ele>
        <time>2013-05-12T06:53:58Z</time>
      </trkpt>
      <trkpt lat="44.43012" lon="5.79429">
        <ele>788.20001220703</ele>
        <time>2013-05-12T06:54:00Z</time>
      </trkpt>
      <trkpt lat="44.43021" lon="5.79422">
        <ele>788.20001220703</ele>
        <time>2013-05-12T06:54:06Z</time>
      </trkpt>
      <trkpt lat="44.43042" lon="5.7941">
        <ele>788.20001220703</ele>
        <time>2013-05-12T06:54:17Z</time>
      </trkpt>
      <trkpt lat="44.43054" lon="5.79391">
        <ele>790.59997558594</ele>
        <time>2013-05-12T06:54:27Z</time>
      </trkpt>
      <trkpt lat="44.43056" lon="5.79386">
        <ele>791</ele>
        <time>2013-05-12T06:54:29Z</time>
      </trkpt>
      <trkpt lat="44.43057" lon="5.79379">
        <ele>792.40002441406</ele>
        <time>2013-05-12T06:54:32Z</time>
      </trkpt>
      <trkpt lat="44.43045" lon="5.79357">
        <ele>793.20001220703</ele>
        <time>2013-05-12T06:54:42Z</time>
      </trkpt>
      <trkpt lat="44.43039" lon="5.79354">
        <ele>794.40002441406</ele>
        <time>2013-05-12T06:54:45Z</time>
      </trkpt>
      <trkpt lat="44.4303" lon="5.79349">
        <ele>794.79998779297</ele>
        <time>2013-05-12T06:54:50Z</time>
      </trkpt>
      <trkpt lat="44.43024" lon="5.79339">
        <ele>795.20001220703</ele>
        <time>2013-05-12T06:54:55Z</time>
      </trkpt>
      <trkpt lat="44.43027" lon="5.79329">
        <ele>797</ele>
        <time>2013-05-12T06:54:59Z</time>
      </trkpt>
      <trkpt lat="44.43036" lon="5.79323">
        <ele>797.40002441406</ele>
        <time>2013-05-12T06:55:04Z</time>
      </trkpt>
      <trkpt lat="44.43043" lon="5.7932">
        <ele>799</ele>
        <time>2013-05-12T06:55:08Z</time>
      </trkpt>
      <trkpt lat="44.43064" lon="5.79321">
        <ele>799.40002441406</ele>
        <time>2013-05-12T06:55:19Z</time>
      </trkpt>
      <trkpt lat="44.43073" lon="5.79325">
        <ele>801.59997558594</ele>
        <time>2013-05-12T06:55:24Z</time>
      </trkpt>
      <trkpt lat="44.43083" lon="5.7933">
        <ele>802</ele>
        <time>2013-05-12T06:55:30Z</time>
      </trkpt>
      <trkpt lat="44.4309" lon="5.79335">
        <ele>803.20001220703</ele>
        <time>2013-05-12T06:55:34Z</time>
      </trkpt>
      <trkpt lat="44.43101" lon="5.79345">
        <ele>804</ele>
        <time>2013-05-12T06:55:40Z</time>
      </trkpt>
      <trkpt lat="44.43108" lon="5.79352">
        <ele>805.20001220703</ele>
        <time>2013-05-12T06:55:44Z</time>
      </trkpt>
      <trkpt lat="44.43115" lon="5.79361">
        <ele>805.59997558594</ele>
        <time>2013-05-12T06:55:48Z</time>
      </trkpt>
      <trkpt lat="44.43126" lon="5.79373">
        <ele>806.59997558594</ele>
        <time>2013-05-12T06:55:55Z</time>
      </trkpt>
      <trkpt lat="44.43132" lon="5.7938">
        <ele>807.79998779297</ele>
        <time>2013-05-12T06:55:59Z</time>
      </trkpt>
      <trkpt lat="44.43141" lon="5.79391">
        <ele>807.79998779297</ele>
        <time>2013-05-12T06:56:05Z</time>
      </trkpt>
      <trkpt lat="44.43145" lon="5.794">
        <ele>809.20001220703</ele>
        <time>2013-05-12T06:56:09Z</time>
      </trkpt>
      <trkpt lat="44.4315" lon="5.79426">
        <ele>810.20001220703</ele>
        <time>2013-05-12T06:56:19Z</time>
      </trkpt>
      <trkpt lat="44.43148" lon="5.79442">
        <ele>810.59997558594</ele>
        <time>2013-05-12T06:56:25Z</time>
      </trkpt>
      <trkpt lat="44.43146" lon="5.79451">
        <ele>812</ele>
        <time>2013-05-12T06:56:29Z</time>
      </trkpt>
      <trkpt lat="44.43139" lon="5.79477">
        <ele>812.59997558594</ele>
        <time>2013-05-12T06:56:40Z</time>
      </trkpt>
      <trkpt lat="44.43139" lon="5.7948">
        <ele>813.40002441406</ele>
        <time>2013-05-12T06:56:41Z</time>
      </trkpt>
      <trkpt lat="44.43138" lon="5.79491">
        <ele>814.79998779297</ele>
        <time>2013-05-12T06:56:45Z</time>
      </trkpt>
      <trkpt lat="44.43138" lon="5.79501">
        <ele>814.79998779297</ele>
        <time>2013-05-12T06:56:49Z</time>
      </trkpt>
      <trkpt lat="44.43142" lon="5.79513">
        <ele>814.79998779297</ele>
        <time>2013-05-12T06:56:54Z</time>
      </trkpt>
      <trkpt lat="44.4315" lon="5.79521">
        <ele>816.59997558594</ele>
        <time>2013-05-12T06:56:59Z</time>
      </trkpt>
      <trkpt lat="44.43154" lon="5.7952">
        <ele>817</ele>
        <time>2013-05-12T06:57:01Z</time>
      </trkpt>
      <trkpt lat="44.43158" lon="5.79508">
        <ele>818</ele>
        <time>2013-05-12T06:57:06Z</time>
      </trkpt>
      <trkpt lat="44.43158" lon="5.79499">
        <ele>819</ele>
        <time>2013-05-12T06:57:09Z</time>
      </trkpt>
      <trkpt lat="44.43159" lon="5.79479">
        <ele>819.40002441406</ele>
        <time>2013-05-12T06:57:16Z</time>
      </trkpt>
      <trkpt lat="44.43162" lon="5.79468">
        <ele>819.79998779297</ele>
        <time>2013-05-12T06:57:20Z</time>
      </trkpt>
      <trkpt lat="44.43169" lon="5.79459">
        <ele>821.59997558594</ele>
        <time>2013-05-12T06:57:25Z</time>
      </trkpt>
      <trkpt lat="44.43177" lon="5.79454">
        <ele>822</ele>
        <time>2013-05-12T06:57:29Z</time>
      </trkpt>
      <trkpt lat="44.43183" lon="5.79452">
        <ele>823.40002441406</ele>
        <time>2013-05-12T06:57:32Z</time>
      </trkpt>
      <trkpt lat="44.43196" lon="5.79447">
        <ele>823.79998779297</ele>
        <time>2013-05-12T06:57:39Z</time>
      </trkpt>
      <trkpt lat="44.43203" lon="5.79443">
        <ele>824.40002441406</ele>
        <time>2013-05-12T06:57:43Z</time>
      </trkpt>
      <trkpt lat="44.43208" lon="5.79438">
        <ele>825.79998779297</ele>
        <time>2013-05-12T06:57:46Z</time>
      </trkpt>
      <trkpt lat="44.43214" lon="5.79427">
        <ele>826.79998779297</ele>
        <time>2013-05-12T06:57:51Z</time>
      </trkpt>
      <trkpt lat="44.43216" lon="5.7942">
        <ele>828.79998779297</ele>
        <time>2013-05-12T06:57:54Z</time>
      </trkpt>
      <trkpt lat="44.43221" lon="5.79405">
        <ele>828.79998779297</ele>
        <time>2013-05-12T06:58:00Z</time>
      </trkpt>
      <trkpt lat="44.43227" lon="5.79399">
        <ele>830.40002441406</ele>
        <time>2013-05-12T06:58:05Z</time>
      </trkpt>
      <trkpt lat="44.4323" lon="5.79398">
        <ele>830.79998779297</ele>
        <time>2013-05-12T06:58:07Z</time>
      </trkpt>
      <trkpt lat="44.43243" lon="5.79388">
        <ele>831.40002441406</ele>
        <time>2013-05-12T06:58:16Z</time>
      </trkpt>
      <trkpt lat="44.43253" lon="5.79376">
        <ele>833.20001220703</ele>
        <time>2013-05-12T06:58:23Z</time>
      </trkpt>
      <trkpt lat="44.43257" lon="5.79367">
        <ele>833.59997558594</ele>
        <time>2013-05-12T06:58:28Z</time>
      </trkpt>
      <trkpt lat="44.4326" lon="5.79361">
        <ele>835</ele>
        <time>2013-05-12T06:58:31Z</time>
      </trkpt>
      <trkpt lat="44.43261" lon="5.79359">
        <ele>835.59997558594</ele>
        <time>2013-05-12T06:58:32Z</time>
      </trkpt>
      <trkpt lat="44.43277" lon="5.79338">
        <ele>837.40002441406</ele>
        <time>2013-05-12T06:58:45Z</time>
      </trkpt>
      <trkpt lat="44.43288" lon="5.79332">
        <ele>837.40002441406</ele>
        <time>2013-05-12T06:58:53Z</time>
      </trkpt>
      <trkpt lat="44.43291" lon="5.79331">
        <ele>838.40002441406</ele>
        <time>2013-05-12T06:58:55Z</time>
      </trkpt>
      <trkpt lat="44.43293" lon="5.7933">
        <ele>839</ele>
        <time>2013-05-12T06:58:56Z</time>
      </trkpt>
      <trkpt lat="44.43302" lon="5.79326">
        <ele>839.79998779297</ele>
        <time>2013-05-12T06:59:03Z</time>
      </trkpt>
      <trkpt lat="44.43313" lon="5.79325">
        <ele>839.79998779297</ele>
        <time>2013-05-12T06:59:10Z</time>
      </trkpt>
      <trkpt lat="44.43327" lon="5.79327">
        <ele>839.79998779297</ele>
        <time>2013-05-12T06:59:18Z</time>
      </trkpt>
      <trkpt lat="44.43332" lon="5.79329">
        <ele>839.79998779297</ele>
        <time>2013-05-12T06:59:20Z</time>
      </trkpt>
      <trkpt lat="44.43342" lon="5.79336">
        <ele>839.79998779297</ele>
        <time>2013-05-12T06:59:23Z</time>
      </trkpt>
      <trkpt lat="44.4335" lon="5.7934">
        <ele>839.40002441406</ele>
        <time>2013-05-12T06:59:25Z</time>
      </trkpt>
      <trkpt lat="44.43364" lon="5.7935">
        <ele>838</ele>
        <time>2013-05-12T06:59:28Z</time>
      </trkpt>
      <trkpt lat="44.43369" lon="5.79354">
        <ele>837.59997558594</ele>
        <time>2013-05-12T06:59:29Z</time>
      </trkpt>
      <trkpt lat="44.43375" lon="5.79358">
        <ele>837</ele>
        <time>2013-05-12T06:59:30Z</time>
      </trkpt>
      <trkpt lat="44.43381" lon="5.79362">
        <ele>836.40002441406</ele>
        <time>2013-05-12T06:59:31Z</time>
      </trkpt>
      <trkpt lat="44.43394" lon="5.79371">
        <ele>835.40002441406</ele>
        <time>2013-05-12T06:59:33Z</time>
      </trkpt>
      <trkpt lat="44.43401" lon="5.79375">
        <ele>834.79998779297</ele>
        <time>2013-05-12T06:59:34Z</time>
      </trkpt>
      <trkpt lat="44.43408" lon="5.79381">
        <ele>834.20001220703</ele>
        <time>2013-05-12T06:59:35Z</time>
      </trkpt>
      <trkpt lat="44.43415" lon="5.79386">
        <ele>833.59997558594</ele>
        <time>2013-05-12T06:59:36Z</time>
      </trkpt>
      <trkpt lat="44.43422" lon="5.79391">
        <ele>833</ele>
        <time>2013-05-12T06:59:37Z</time>
      </trkpt>
      <trkpt lat="44.43435" lon="5.79401">
        <ele>831.59997558594</ele>
        <time>2013-05-12T06:59:39Z</time>
      </trkpt>
      <trkpt lat="44.43441" lon="5.79405">
        <ele>831</ele>
        <time>2013-05-12T06:59:40Z</time>
      </trkpt>
      <trkpt lat="44.43454" lon="5.79415">
        <ele>830.40002441406</ele>
        <time>2013-05-12T06:59:43Z</time>
      </trkpt>
      <trkpt lat="44.43472" lon="5.79426">
        <ele>830.40002441406</ele>
        <time>2013-05-12T06:59:49Z</time>
      </trkpt>
      <trkpt lat="44.43478" lon="5.79431">
        <ele>830.79998779297</ele>
        <time>2013-05-12T06:59:52Z</time>
      </trkpt>
      <trkpt lat="44.43481" lon="5.79433">
        <ele>831.20001220703</ele>
        <time>2013-05-12T06:59:53Z</time>
      </trkpt>
      <trkpt lat="44.43492" lon="5.7944">
        <ele>832.59997558594</ele>
        <time>2013-05-12T06:59:58Z</time>
      </trkpt>
      <trkpt lat="44.43504" lon="5.79448">
        <ele>832.59997558594</ele>
        <time>2013-05-12T07:00:04Z</time>
      </trkpt>
      <trkpt lat="44.43508" lon="5.7945">
        <ele>833</ele>
        <time>2013-05-12T07:00:06Z</time>
      </trkpt>
      <trkpt lat="44.4351" lon="5.79451">
        <ele>833.40002441406</ele>
        <time>2013-05-12T07:00:07Z</time>
      </trkpt>
      <trkpt lat="44.43521" lon="5.79456">
        <ele>834.59997558594</ele>
        <time>2013-05-12T07:00:12Z</time>
      </trkpt>
      <trkpt lat="44.43526" lon="5.79462">
        <ele>835</ele>
        <time>2013-05-12T07:00:15Z</time>
      </trkpt>
      <trkpt lat="44.4353" lon="5.79471">
        <ele>836.79998779297</ele>
        <time>2013-05-12T07:00:19Z</time>
      </trkpt>
      <trkpt lat="44.43537" lon="5.79491">
        <ele>836.79998779297</ele>
        <time>2013-05-12T07:00:27Z</time>
      </trkpt>
      <trkpt lat="44.43541" lon="5.795">
        <ele>838.40002441406</ele>
        <time>2013-05-12T07:00:31Z</time>
      </trkpt>
      <trkpt lat="44.43545" lon="5.79513">
        <ele>839</ele>
        <time>2013-05-12T07:00:36Z</time>
      </trkpt>
      <trkpt lat="44.43548" lon="5.79525">
        <ele>839.40002441406</ele>
        <time>2013-05-12T07:00:41Z</time>
      </trkpt>
      <trkpt lat="44.43551" lon="5.79532">
        <ele>840.59997558594</ele>
        <time>2013-05-12T07:00:44Z</time>
      </trkpt>
      <trkpt lat="44.43559" lon="5.79558">
        <ele>841</ele>
        <time>2013-05-12T07:00:54Z</time>
      </trkpt>
      <trkpt lat="44.43563" lon="5.7957">
        <ele>841.40002441406</ele>
        <time>2013-05-12T07:00:59Z</time>
      </trkpt>
      <trkpt lat="44.43568" lon="5.79583">
        <ele>843.40002441406</ele>
        <time>2013-05-12T07:01:04Z</time>
      </trkpt>
      <trkpt lat="44.43571" lon="5.79593">
        <ele>843.40002441406</ele>
        <time>2013-05-12T07:01:08Z</time>
      </trkpt>
      <trkpt lat="44.43576" lon="5.79611">
        <ele>843.40002441406</ele>
        <time>2013-05-12T07:01:15Z</time>
      </trkpt>
      <trkpt lat="44.43581" lon="5.79622">
        <ele>845.20001220703</ele>
        <time>2013-05-12T07:01:20Z</time>
      </trkpt>
      <trkpt lat="44.43589" lon="5.79646">
        <ele>845.59997558594</ele>
        <time>2013-05-12T07:01:30Z</time>
      </trkpt>
      <trkpt lat="44.43591" lon="5.79651">
        <ele>846</ele>
        <time>2013-05-12T07:01:32Z</time>
      </trkpt>
      <trkpt lat="44.43594" lon="5.79661">
        <ele>847.40002441406</ele>
        <time>2013-05-12T07:01:36Z</time>
      </trkpt>
      <trkpt lat="44.43589" lon="5.79681">
        <ele>847.79998779297</ele>
        <time>2013-05-12T07:01:43Z</time>
      </trkpt>
      <trkpt lat="44.43583" lon="5.79694">
        <ele>847.79998779297</ele>
        <time>2013-05-12T07:01:47Z</time>
      </trkpt>
      <trkpt lat="44.43569" lon="5.79714">
        <ele>847.79998779297</ele>
        <time>2013-05-12T07:01:53Z</time>
      </trkpt>
      <trkpt lat="44.43555" lon="5.79738">
        <ele>847.79998779297</ele>
        <time>2013-05-12T07:01:59Z</time>
      </trkpt>
      <trkpt lat="44.43546" lon="5.79754">
        <ele>847.79998779297</ele>
        <time>2013-05-12T07:02:06Z</time>
      </trkpt>
      <trkpt lat="44.43549" lon="5.79766">
        <ele>847.79998779297</ele>
        <time>2013-05-12T07:02:12Z</time>
      </trkpt>
      <trkpt lat="44.43552" lon="5.79763">
        <ele>847.79998779297</ele>
        <time>2013-05-12T07:02:17Z</time>
      </trkpt>
      <trkpt lat="44.4355" lon="5.79745">
        <ele>847.79998779297</ele>
        <time>2013-05-12T07:02:23Z</time>
      </trkpt>
      <trkpt lat="44.43555" lon="5.7974">
        <ele>847.79998779297</ele>
        <time>2013-05-12T07:02:26Z</time>
      </trkpt>
      <trkpt lat="44.43557" lon="5.7974">
        <ele>847.79998779297</ele>
        <time>2013-05-12T07:02:27Z</time>
      </trkpt>
      <trkpt lat="44.43567" lon="5.79755">
        <ele>848.20001220703</ele>
        <time>2013-05-12T07:02:34Z</time>
      </trkpt>
      <trkpt lat="44.43571" lon="5.79762">
        <ele>850</ele>
        <time>2013-05-12T07:02:37Z</time>
      </trkpt>
      <trkpt lat="44.43575" lon="5.79773">
        <ele>850</ele>
        <time>2013-05-12T07:02:41Z</time>
      </trkpt>
      <trkpt lat="44.43578" lon="5.7979">
        <ele>850.40002441406</ele>
        <time>2013-05-12T07:02:47Z</time>
      </trkpt>
      <trkpt lat="44.43581" lon="5.79799">
        <ele>851.79998779297</ele>
        <time>2013-05-12T07:02:50Z</time>
      </trkpt>
      <trkpt lat="44.43582" lon="5.79802">
        <ele>852.20001220703</ele>
        <time>2013-05-12T07:02:51Z</time>
      </trkpt>
      <trkpt lat="44.43591" lon="5.79809">
        <ele>852.20001220703</ele>
        <time>2013-05-12T07:02:56Z</time>
      </trkpt>
      <trkpt lat="44.43597" lon="5.79811">
        <ele>852.20001220703</ele>
        <time>2013-05-12T07:03:00Z</time>
      </trkpt>
      <trkpt lat="44.43608" lon="5.7982">
        <ele>852.59997558594</ele>
        <time>2013-05-12T07:03:08Z</time>
      </trkpt>
      <trkpt lat="44.4361" lon="5.79823">
        <ele>854</ele>
        <time>2013-05-12T07:03:10Z</time>
      </trkpt>
      <trkpt lat="44.43617" lon="5.79834">
        <ele>854.40002441406</ele>
        <time>2013-05-12T07:03:17Z</time>
      </trkpt>
      <trkpt lat="44.43626" lon="5.79845">
        <ele>855</ele>
        <time>2013-05-12T07:03:24Z</time>
      </trkpt>
      <trkpt lat="44.43628" lon="5.79852">
        <ele>856.40002441406</ele>
        <time>2013-05-12T07:03:28Z</time>
      </trkpt>
      <trkpt lat="44.4363" lon="5.79862">
        <ele>856.79998779297</ele>
        <time>2013-05-12T07:03:34Z</time>
      </trkpt>
      <trkpt lat="44.43631" lon="5.79864">
        <ele>857.40002441406</ele>
        <time>2013-05-12T07:03:35Z</time>
      </trkpt>
      <trkpt lat="44.43631" lon="5.79872">
        <ele>859.20001220703</ele>
        <time>2013-05-12T07:03:39Z</time>
      </trkpt>
      <trkpt lat="44.43631" lon="5.79882">
        <ele>859.20001220703</ele>
        <time>2013-05-12T07:03:43Z</time>
      </trkpt>
      <trkpt lat="44.43633" lon="5.79905">
        <ele>859.20001220703</ele>
        <time>2013-05-12T07:03:52Z</time>
      </trkpt>
      <trkpt lat="44.43631" lon="5.79924">
        <ele>859.59997558594</ele>
        <time>2013-05-12T07:03:59Z</time>
      </trkpt>
      <trkpt lat="44.43632" lon="5.79931">
        <ele>860.40002441406</ele>
        <time>2013-05-12T07:04:01Z</time>
      </trkpt>
      <trkpt lat="44.43631" lon="5.79941">
        <ele>861.20001220703</ele>
        <time>2013-05-12T07:04:04Z</time>
      </trkpt>
      <trkpt lat="44.43632" lon="5.79955">
        <ele>861.20001220703</ele>
        <time>2013-05-12T07:04:09Z</time>
      </trkpt>
      <trkpt lat="44.43633" lon="5.79984">
        <ele>861.20001220703</ele>
        <time>2013-05-12T07:04:19Z</time>
      </trkpt>
      <trkpt lat="44.43634" lon="5.79999">
        <ele>861.59997558594</ele>
        <time>2013-05-12T07:04:25Z</time>
      </trkpt>
      <trkpt lat="44.43634" lon="5.80002">
        <ele>862</ele>
        <time>2013-05-12T07:04:26Z</time>
      </trkpt>
      <trkpt lat="44.43636" lon="5.8001">
        <ele>863.40002441406</ele>
        <time>2013-05-12T07:04:29Z</time>
      </trkpt>
      <trkpt lat="44.43638" lon="5.80029">
        <ele>863.40002441406</ele>
        <time>2013-05-12T07:04:35Z</time>
      </trkpt>
      <trkpt lat="44.43638" lon="5.8004">
        <ele>863.79998779297</ele>
        <time>2013-05-12T07:04:39Z</time>
      </trkpt>
      <trkpt lat="44.43639" lon="5.80051">
        <ele>865.40002441406</ele>
        <time>2013-05-12T07:04:43Z</time>
      </trkpt>
      <trkpt lat="44.4364" lon="5.80072">
        <ele>865.40002441406</ele>
        <time>2013-05-12T07:04:51Z</time>
      </trkpt>
      <trkpt lat="44.43642" lon="5.80085">
        <ele>865.40002441406</ele>
        <time>2013-05-12T07:04:57Z</time>
      </trkpt>
      <trkpt lat="44.43644" lon="5.80106">
        <ele>866.20001220703</ele>
        <time>2013-05-12T07:05:05Z</time>
      </trkpt>
      <trkpt lat="44.43645" lon="5.80114">
        <ele>867.20001220703</ele>
        <time>2013-05-12T07:05:08Z</time>
      </trkpt>
      <trkpt lat="44.43647" lon="5.80126">
        <ele>867.59997558594</ele>
        <time>2013-05-12T07:05:12Z</time>
      </trkpt>
      <trkpt lat="44.43649" lon="5.80144">
        <ele>868.40002441406</ele>
        <time>2013-05-12T07:05:19Z</time>
      </trkpt>
      <trkpt lat="44.43647" lon="5.80153">
        <ele>869.79998779297</ele>
        <time>2013-05-12T07:05:23Z</time>
      </trkpt>
      <trkpt lat="44.43644" lon="5.80161">
        <ele>869.79998779297</ele>
        <time>2013-05-12T07:05:27Z</time>
      </trkpt>
      <trkpt lat="44.43639" lon="5.80172">
        <ele>871.59997558594</ele>
        <time>2013-05-12T07:05:33Z</time>
      </trkpt>
      <trkpt lat="44.43631" lon="5.80189">
        <ele>872.40002441406</ele>
        <time>2013-05-12T07:05:41Z</time>
      </trkpt>
      <trkpt lat="44.4363" lon="5.80193">
        <ele>872.79998779297</ele>
        <time>2013-05-12T07:05:43Z</time>
      </trkpt>
      <trkpt lat="44.43624" lon="5.80208">
        <ele>874</ele>
        <time>2013-05-12T07:05:51Z</time>
      </trkpt>
      <trkpt lat="44.4362" lon="5.80216">
        <ele>874.40002441406</ele>
        <time>2013-05-12T07:05:55Z</time>
      </trkpt>
      <trkpt lat="44.43616" lon="5.80224">
        <ele>875.20001220703</ele>
        <time>2013-05-12T07:05:58Z</time>
      </trkpt>
      <trkpt lat="44.43602" lon="5.80247">
        <ele>876.20001220703</ele>
        <time>2013-05-12T07:06:06Z</time>
      </trkpt>
      <trkpt lat="44.43588" lon="5.80262">
        <ele>876.20001220703</ele>
        <time>2013-05-12T07:06:10Z</time>
      </trkpt>
      <trkpt lat="44.43577" lon="5.80284">
        <ele>875.20001220703</ele>
        <time>2013-05-12T07:06:14Z</time>
      </trkpt>
      <trkpt lat="44.43576" lon="5.80292">
        <ele>874.79998779297</ele>
        <time>2013-05-12T07:06:15Z</time>
      </trkpt>
      <trkpt lat="44.43581" lon="5.80309">
        <ele>874.40002441406</ele>
        <time>2013-05-12T07:06:17Z</time>
      </trkpt>
      <trkpt lat="44.43585" lon="5.80317">
        <ele>873.79998779297</ele>
        <time>2013-05-12T07:06:18Z</time>
      </trkpt>
      <trkpt lat="44.43588" lon="5.80324">
        <ele>872.79998779297</ele>
        <time>2013-05-12T07:06:19Z</time>
      </trkpt>
      <trkpt lat="44.43591" lon="5.80331">
        <ele>872.40002441406</ele>
        <time>2013-05-12T07:06:20Z</time>
      </trkpt>
      <trkpt lat="44.43594" lon="5.80342">
        <ele>871.79998779297</ele>
        <time>2013-05-12T07:06:22Z</time>
      </trkpt>
      <trkpt lat="44.43597" lon="5.80368">
        <ele>871.40002441406</ele>
        <time>2013-05-12T07:06:28Z</time>
      </trkpt>
      <trkpt lat="44.43598" lon="5.80381">
        <ele>872.20001220703</ele>
        <time>2013-05-12T07:06:33Z</time>
      </trkpt>
      <trkpt lat="44.43599" lon="5.80392">
        <ele>873.59997558594</ele>
        <time>2013-05-12T07:06:37Z</time>
      </trkpt>
      <trkpt lat="44.43597" lon="5.80401">
        <ele>874.40002441406</ele>
        <time>2013-05-12T07:06:41Z</time>
      </trkpt>
      <trkpt lat="44.43596" lon="5.80419">
        <ele>876.20001220703</ele>
        <time>2013-05-12T07:06:51Z</time>
      </trkpt>
      <trkpt lat="44.43596" lon="5.80421">
        <ele>877</ele>
        <time>2013-05-12T07:06:52Z</time>
      </trkpt>
      <trkpt lat="44.436" lon="5.80441">
        <ele>877.79998779297</ele>
        <time>2013-05-12T07:07:01Z</time>
      </trkpt>
      <trkpt lat="44.43604" lon="5.80467">
        <ele>877.79998779297</ele>
        <time>2013-05-12T07:07:07Z</time>
      </trkpt>
      <trkpt lat="44.43596" lon="5.80478">
        <ele>877.79998779297</ele>
        <time>2013-05-12T07:07:11Z</time>
      </trkpt>
      <trkpt lat="44.43584" lon="5.80481">
        <ele>877.79998779297</ele>
        <time>2013-05-12T07:07:17Z</time>
      </trkpt>
      <trkpt lat="44.43575" lon="5.80489">
        <ele>877.79998779297</ele>
        <time>2013-05-12T07:07:24Z</time>
      </trkpt>
      <trkpt lat="44.43566" lon="5.805">
        <ele>877.79998779297</ele>
        <time>2013-05-12T07:07:32Z</time>
      </trkpt>
      <trkpt lat="44.43566" lon="5.80501">
        <ele>878.40002441406</ele>
        <time>2013-05-12T07:07:33Z</time>
      </trkpt>
      <trkpt lat="44.43554" lon="5.8051">
        <ele>880.20001220703</ele>
        <time>2013-05-12T07:07:46Z</time>
      </trkpt>
      <trkpt lat="44.43547" lon="5.8051">
        <ele>880.79998779297</ele>
        <time>2013-05-12T07:07:52Z</time>
      </trkpt>
      <trkpt lat="44.43546" lon="5.8051">
        <ele>881.20001220703</ele>
        <time>2013-05-12T07:07:53Z</time>
      </trkpt>
      <trkpt lat="44.43545" lon="5.8051">
        <ele>881.59997558594</ele>
        <time>2013-05-12T07:07:54Z</time>
      </trkpt>
      <trkpt lat="44.43538" lon="5.8051">
        <ele>883.20001220703</ele>
        <time>2013-05-12T07:08:03Z</time>
      </trkpt>
      <trkpt lat="44.4353" lon="5.80515">
        <ele>886</ele>
        <time>2013-05-12T07:08:15Z</time>
      </trkpt>
      <trkpt lat="44.43522" lon="5.80527">
        <ele>887.79998779297</ele>
        <time>2013-05-12T07:08:31Z</time>
      </trkpt>
      <trkpt lat="44.43521" lon="5.8053">
        <ele>889.40002441406</ele>
        <time>2013-05-12T07:08:35Z</time>
      </trkpt>
      <trkpt lat="44.43518" lon="5.80537">
        <ele>889.79998779297</ele>
        <time>2013-05-12T07:08:41Z</time>
      </trkpt>
      <trkpt lat="44.43516" lon="5.8054">
        <ele>891.40002441406</ele>
        <time>2013-05-12T07:08:45Z</time>
      </trkpt>
      <trkpt lat="44.43515" lon="5.80552">
        <ele>891.79998779297</ele>
        <time>2013-05-12T07:08:54Z</time>
      </trkpt>
      <trkpt lat="44.43512" lon="5.80561">
        <ele>893.59997558594</ele>
        <time>2013-05-12T07:09:03Z</time>
      </trkpt>
      <trkpt lat="44.4351" lon="5.80568">
        <ele>894.40002441406</ele>
        <time>2013-05-12T07:09:09Z</time>
      </trkpt>
      <trkpt lat="44.43509" lon="5.80571">
        <ele>895.79998779297</ele>
        <time>2013-05-12T07:09:12Z</time>
      </trkpt>
      <trkpt lat="44.43507" lon="5.80581">
        <ele>897.40002441406</ele>
        <time>2013-05-12T07:09:24Z</time>
      </trkpt>
      <trkpt lat="44.43502" lon="5.8059">
        <ele>899.40002441406</ele>
        <time>2013-05-12T07:09:37Z</time>
      </trkpt>
      <trkpt lat="44.435" lon="5.80597">
        <ele>901.20001220703</ele>
        <time>2013-05-12T07:09:45Z</time>
      </trkpt>
      <trkpt lat="44.43496" lon="5.8061">
        <ele>902.20001220703</ele>
        <time>2013-05-12T07:09:58Z</time>
      </trkpt>
      <trkpt lat="44.43494" lon="5.80616">
        <ele>902.59997558594</ele>
        <time>2013-05-12T07:10:05Z</time>
      </trkpt>
      <trkpt lat="44.4349" lon="5.80629">
        <ele>904.79998779297</ele>
        <time>2013-05-12T07:10:18Z</time>
      </trkpt>
      <trkpt lat="44.4349" lon="5.8063">
        <ele>905.20001220703</ele>
        <time>2013-05-12T07:10:19Z</time>
      </trkpt>
      <trkpt lat="44.43489" lon="5.8063">
        <ele>905.59997558594</ele>
        <time>2013-05-12T07:10:20Z</time>
      </trkpt>
      <trkpt lat="44.43488" lon="5.8064">
        <ele>908.40002441406</ele>
        <time>2013-05-12T07:10:33Z</time>
      </trkpt>
      <trkpt lat="44.43487" lon="5.80651">
        <ele>910.40002441406</ele>
        <time>2013-05-12T07:10:43Z</time>
      </trkpt>
      <trkpt lat="44.43489" lon="5.80671">
        <ele>910.79998779297</ele>
        <time>2013-05-12T07:11:00Z</time>
      </trkpt>
      <trkpt lat="44.4349" lon="5.80683">
        <ele>913.40002441406</ele>
        <time>2013-05-12T07:11:13Z</time>
      </trkpt>
      <trkpt lat="44.43489" lon="5.80692">
        <ele>915.20001220703</ele>
        <time>2013-05-12T07:11:23Z</time>
      </trkpt>
      <trkpt lat="44.43488" lon="5.807">
        <ele>917</ele>
        <time>2013-05-12T07:11:31Z</time>
      </trkpt>
      <trkpt lat="44.43486" lon="5.8071">
        <ele>917.79998779297</ele>
        <time>2013-05-12T07:11:40Z</time>
      </trkpt>
      <trkpt lat="44.4348" lon="5.80719">
        <ele>919.79998779297</ele>
        <time>2013-05-12T07:11:52Z</time>
      </trkpt>
      <trkpt lat="44.43478" lon="5.8072">
        <ele>920.79998779297</ele>
        <time>2013-05-12T07:11:54Z</time>
      </trkpt>
      <trkpt lat="44.43467" lon="5.8072">
        <ele>921.59997558594</ele>
        <time>2013-05-12T07:12:08Z</time>
      </trkpt>
      <trkpt lat="44.4346" lon="5.80717">
        <ele>924.20001220703</ele>
        <time>2013-05-12T07:12:17Z</time>
      </trkpt>
      <trkpt lat="44.43445" lon="5.80713">
        <ele>926.20001220703</ele>
        <time>2013-05-12T07:12:31Z</time>
      </trkpt>
      <trkpt lat="44.43438" lon="5.80719">
        <ele>928</ele>
        <time>2013-05-12T07:12:40Z</time>
      </trkpt>
      <trkpt lat="44.43432" lon="5.80728">
        <ele>928</ele>
        <time>2013-05-12T07:12:49Z</time>
      </trkpt>
      <trkpt lat="44.4343" lon="5.80733">
        <ele>929</ele>
        <time>2013-05-12T07:12:53Z</time>
      </trkpt>
      <trkpt lat="44.43422" lon="5.80744">
        <ele>930.79998779297</ele>
        <time>2013-05-12T07:13:05Z</time>
      </trkpt>
      <trkpt lat="44.43419" lon="5.80752">
        <ele>932.40002441406</ele>
        <time>2013-05-12T07:13:13Z</time>
      </trkpt>
      <trkpt lat="44.4341" lon="5.80765">
        <ele>935.20001220703</ele>
        <time>2013-05-12T07:13:27Z</time>
      </trkpt>
      <trkpt lat="44.43407" lon="5.80772">
        <ele>936</ele>
        <time>2013-05-12T07:13:35Z</time>
      </trkpt>
      <trkpt lat="44.43404" lon="5.80781">
        <ele>937.20001220703</ele>
        <time>2013-05-12T07:13:42Z</time>
      </trkpt>
      <trkpt lat="44.434" lon="5.80791">
        <ele>938.40002441406</ele>
        <time>2013-05-12T07:13:50Z</time>
      </trkpt>
      <trkpt lat="44.434" lon="5.80794">
        <ele>939.20001220703</ele>
        <time>2013-05-12T07:13:52Z</time>
      </trkpt>
      <trkpt lat="44.43399" lon="5.80803">
        <ele>939.20001220703</ele>
        <time>2013-05-12T07:13:58Z</time>
      </trkpt>
      <trkpt lat="44.43399" lon="5.8081">
        <ele>941.59997558594</ele>
        <time>2013-05-12T07:14:04Z</time>
      </trkpt>
      <trkpt lat="44.43402" lon="5.8082">
        <ele>941.59997558594</ele>
        <time>2013-05-12T07:14:11Z</time>
      </trkpt>
      <trkpt lat="44.43404" lon="5.80834">
        <ele>944</ele>
        <time>2013-05-12T07:14:21Z</time>
      </trkpt>
      <trkpt lat="44.43409" lon="5.80849">
        <ele>947</ele>
        <time>2013-05-12T07:15:11Z</time>
      </trkpt>
      <trkpt lat="44.43409" lon="5.8085">
        <ele>947.40002441406</ele>
        <time>2013-05-12T07:15:12Z</time>
      </trkpt>
      <trkpt lat="44.4341" lon="5.80857">
        <ele>948.20001220703</ele>
        <time>2013-05-12T07:15:17Z</time>
      </trkpt>
      <trkpt lat="44.43412" lon="5.80866">
        <ele>948.59997558594</ele>
        <time>2013-05-12T07:15:24Z</time>
      </trkpt>
      <trkpt lat="44.43413" lon="5.8087">
        <ele>950.40002441406</ele>
        <time>2013-05-12T07:15:28Z</time>
      </trkpt>
      <trkpt lat="44.43414" lon="5.80882">
        <ele>950.79998779297</ele>
        <time>2013-05-12T07:15:37Z</time>
      </trkpt>
      <trkpt lat="44.43417" lon="5.80891">
        <ele>952.59997558594</ele>
        <time>2013-05-12T07:15:45Z</time>
      </trkpt>
      <trkpt lat="44.43418" lon="5.80902">
        <ele>953</ele>
        <time>2013-05-12T07:15:54Z</time>
      </trkpt>
      <trkpt lat="44.4342" lon="5.80918">
        <ele>955.40002441406</ele>
        <time>2013-05-12T07:16:10Z</time>
      </trkpt>
      <trkpt lat="44.4342" lon="5.80921">
        <ele>956.79998779297</ele>
        <time>2013-05-12T07:16:13Z</time>
      </trkpt>
      <trkpt lat="44.43423" lon="5.80936">
        <ele>957.59997558594</ele>
        <time>2013-05-12T07:16:23Z</time>
      </trkpt>
      <trkpt lat="44.43423" lon="5.8094">
        <ele>958.59997558594</ele>
        <time>2013-05-12T07:16:26Z</time>
      </trkpt>
      <trkpt lat="44.43427" lon="5.80952">
        <ele>959.79998779297</ele>
        <time>2013-05-12T07:16:37Z</time>
      </trkpt>
      <trkpt lat="44.43427" lon="5.80965">
        <ele>961.59997558594</ele>
        <time>2013-05-12T07:16:46Z</time>
      </trkpt>
      <trkpt lat="44.43427" lon="5.80972">
        <ele>962</ele>
        <time>2013-05-12T07:16:52Z</time>
      </trkpt>
      <trkpt lat="44.43427" lon="5.8098">
        <ele>963.79998779297</ele>
        <time>2013-05-12T07:17:00Z</time>
      </trkpt>
      <trkpt lat="44.43429" lon="5.80991">
        <ele>964.79998779297</ele>
        <time>2013-05-12T07:17:11Z</time>
      </trkpt>
      <trkpt lat="44.43428" lon="5.81005">
        <ele>966.20001220703</ele>
        <time>2013-05-12T07:17:23Z</time>
      </trkpt>
      <trkpt lat="44.43428" lon="5.81011">
        <ele>967.40002441406</ele>
        <time>2013-05-12T07:17:30Z</time>
      </trkpt>
      <trkpt lat="44.43427" lon="5.8102">
        <ele>969.20001220703</ele>
        <time>2013-05-12T07:17:45Z</time>
      </trkpt>
      <trkpt lat="44.43417" lon="5.81036">
        <ele>970.59997558594</ele>
        <time>2013-05-12T07:18:31Z</time>
      </trkpt>
      <trkpt lat="44.43413" lon="5.8104">
        <ele>972</ele>
        <time>2013-05-12T07:18:37Z</time>
      </trkpt>
      <trkpt lat="44.43409" lon="5.81045">
        <ele>973.79998779297</ele>
        <time>2013-05-12T07:18:46Z</time>
      </trkpt>
      <trkpt lat="44.43406" lon="5.8105">
        <ele>975.59997558594</ele>
        <time>2013-05-12T07:18:53Z</time>
      </trkpt>
      <trkpt lat="44.43406" lon="5.81062">
        <ele>978</ele>
        <time>2013-05-12T07:19:10Z</time>
      </trkpt>
      <trkpt lat="44.43406" lon="5.81071">
        <ele>979.40002441406</ele>
        <time>2013-05-12T07:19:19Z</time>
      </trkpt>
      <trkpt lat="44.43407" lon="5.8108">
        <ele>981.40002441406</ele>
        <time>2013-05-12T07:19:29Z</time>
      </trkpt>
      <trkpt lat="44.43409" lon="5.81091">
        <ele>983.40002441406</ele>
        <time>2013-05-12T07:19:40Z</time>
      </trkpt>
      <trkpt lat="44.43409" lon="5.81104">
        <ele>984</ele>
        <time>2013-05-12T07:19:54Z</time>
      </trkpt>
      <trkpt lat="44.43408" lon="5.8111">
        <ele>985.79998779297</ele>
        <time>2013-05-12T07:20:01Z</time>
      </trkpt>
      <trkpt lat="44.43407" lon="5.81122">
        <ele>988</ele>
        <time>2013-05-12T07:20:16Z</time>
      </trkpt>
      <trkpt lat="44.43405" lon="5.81134">
        <ele>990.59997558594</ele>
        <time>2013-05-12T07:20:34Z</time>
      </trkpt>
      <trkpt lat="44.43405" lon="5.81142">
        <ele>993</ele>
        <time>2013-05-12T07:20:43Z</time>
      </trkpt>
      <trkpt lat="44.43406" lon="5.81156">
        <ele>994.79998779297</ele>
        <time>2013-05-12T07:20:57Z</time>
      </trkpt>
      <trkpt lat="44.43407" lon="5.81161">
        <ele>996.59997558594</ele>
        <time>2013-05-12T07:21:02Z</time>
      </trkpt>
      <trkpt lat="44.43409" lon="5.81172">
        <ele>997</ele>
        <time>2013-05-12T07:21:13Z</time>
      </trkpt>
      <trkpt lat="44.4341" lon="5.81176">
        <ele>998.20001220703</ele>
        <time>2013-05-12T07:21:17Z</time>
      </trkpt>
      <trkpt lat="44.4341" lon="5.81181">
        <ele>999</ele>
        <time>2013-05-12T07:21:21Z</time>
      </trkpt>
      <trkpt lat="44.43412" lon="5.81195">
        <ele>1000.799987793</ele>
        <time>2013-05-12T07:21:35Z</time>
      </trkpt>
      <trkpt lat="44.43413" lon="5.81201">
        <ele>1002.4000244141</ele>
        <time>2013-05-12T07:21:42Z</time>
      </trkpt>
      <trkpt lat="44.43413" lon="5.81211">
        <ele>1003.200012207</ele>
        <time>2013-05-12T07:21:51Z</time>
      </trkpt>
      <trkpt lat="44.43419" lon="5.81229">
        <ele>1005.4000244141</ele>
        <time>2013-05-12T07:22:08Z</time>
      </trkpt>
      <trkpt lat="44.43419" lon="5.81231">
        <ele>1005.799987793</ele>
        <time>2013-05-12T07:22:09Z</time>
      </trkpt>
      <trkpt lat="44.4342" lon="5.81246">
        <ele>1007.4000244141</ele>
        <time>2013-05-12T07:22:19Z</time>
      </trkpt>
      <trkpt lat="44.4342" lon="5.81251">
        <ele>1008.200012207</ele>
        <time>2013-05-12T07:22:22Z</time>
      </trkpt>
      <trkpt lat="44.4342" lon="5.81253">
        <ele>1009</ele>
        <time>2013-05-12T07:22:23Z</time>
      </trkpt>
      <trkpt lat="44.4342" lon="5.81262">
        <ele>1009</ele>
        <time>2013-05-12T07:22:29Z</time>
      </trkpt>
      <trkpt lat="44.43419" lon="5.8127">
        <ele>1009.5999755859</ele>
        <time>2013-05-12T07:22:35Z</time>
      </trkpt>
      <trkpt lat="44.4342" lon="5.81273">
        <ele>1010</ele>
        <time>2013-05-12T07:22:37Z</time>
      </trkpt>
      <trkpt lat="44.43421" lon="5.81285">
        <ele>1011.4000244141</ele>
        <time>2013-05-12T07:22:47Z</time>
      </trkpt>
      <trkpt lat="44.43423" lon="5.81294">
        <ele>1011.799987793</ele>
        <time>2013-05-12T07:22:54Z</time>
      </trkpt>
      <trkpt lat="44.43425" lon="5.81311">
        <ele>1013.4000244141</ele>
        <time>2013-05-12T07:23:07Z</time>
      </trkpt>
      <trkpt lat="44.43422" lon="5.81322">
        <ele>1015.200012207</ele>
        <time>2013-05-12T07:23:17Z</time>
      </trkpt>
      <trkpt lat="44.4342" lon="5.81331">
        <ele>1016.799987793</ele>
        <time>2013-05-12T07:23:27Z</time>
      </trkpt>
      <trkpt lat="44.43419" lon="5.81341">
        <ele>1017.5999755859</ele>
        <time>2013-05-12T07:23:36Z</time>
      </trkpt>
      <trkpt lat="44.43419" lon="5.81352">
        <ele>1018.200012207</ele>
        <time>2013-05-12T07:23:44Z</time>
      </trkpt>
      <trkpt lat="44.43425" lon="5.81365">
        <ele>1020</ele>
        <time>2013-05-12T07:23:56Z</time>
      </trkpt>
      <trkpt lat="44.4343" lon="5.81368">
        <ele>1021</ele>
        <time>2013-05-12T07:24:04Z</time>
      </trkpt>
      <trkpt lat="44.43432" lon="5.81371">
        <ele>1021.799987793</ele>
        <time>2013-05-12T07:24:06Z</time>
      </trkpt>
      <trkpt lat="44.4344" lon="5.81386">
        <ele>1022.200012207</ele>
        <time>2013-05-12T07:24:15Z</time>
      </trkpt>
      <trkpt lat="44.43442" lon="5.81392">
        <ele>1022.200012207</ele>
        <time>2013-05-12T07:24:18Z</time>
      </trkpt>
      <trkpt lat="44.43444" lon="5.81403">
        <ele>1022.200012207</ele>
        <time>2013-05-12T07:24:26Z</time>
      </trkpt>
      <trkpt lat="44.43446" lon="5.81412">
        <ele>1024.1999511719</ele>
        <time>2013-05-12T07:24:33Z</time>
      </trkpt>
      <trkpt lat="44.43445" lon="5.81421">
        <ele>1025.5999755859</ele>
        <time>2013-05-12T07:24:39Z</time>
      </trkpt>
      <trkpt lat="44.43443" lon="5.81433">
        <ele>1026.4000244141</ele>
        <time>2013-05-12T07:24:50Z</time>
      </trkpt>
      <trkpt lat="44.43443" lon="5.8144">
        <ele>1027</ele>
        <time>2013-05-12T07:24:55Z</time>
      </trkpt>
      <trkpt lat="44.43445" lon="5.81456">
        <ele>1029.1999511719</ele>
        <time>2013-05-12T07:25:08Z</time>
      </trkpt>
      <trkpt lat="44.43446" lon="5.81461">
        <ele>1030.4000244141</ele>
        <time>2013-05-12T07:25:12Z</time>
      </trkpt>
      <trkpt lat="44.43449" lon="5.81475">
        <ele>1030.8000488281</ele>
        <time>2013-05-12T07:25:22Z</time>
      </trkpt>
      <trkpt lat="44.43451" lon="5.81486">
        <ele>1030.8000488281</ele>
        <time>2013-05-12T07:25:28Z</time>
      </trkpt>
      <trkpt lat="44.43457" lon="5.81502">
        <ele>1030.8000488281</ele>
        <time>2013-05-12T07:25:36Z</time>
      </trkpt>
      <trkpt lat="44.4346" lon="5.81513">
        <ele>1031.5999755859</ele>
        <time>2013-05-12T07:25:41Z</time>
      </trkpt>
      <trkpt lat="44.4346" lon="5.81521">
        <ele>1033</ele>
        <time>2013-05-12T07:25:45Z</time>
      </trkpt>
      <trkpt lat="44.43462" lon="5.81535">
        <ele>1033.4000244141</ele>
        <time>2013-05-12T07:25:54Z</time>
      </trkpt>
      <trkpt lat="44.43461" lon="5.81547">
        <ele>1035.5999755859</ele>
        <time>2013-05-12T07:26:01Z</time>
      </trkpt>
      <trkpt lat="44.43463" lon="5.81552">
        <ele>1036.4000244141</ele>
        <time>2013-05-12T07:26:04Z</time>
      </trkpt>
      <trkpt lat="44.43469" lon="5.81561">
        <ele>1037.1999511719</ele>
        <time>2013-05-12T07:26:12Z</time>
      </trkpt>
      <trkpt lat="44.43475" lon="5.81565">
        <ele>1037.5999755859</ele>
        <time>2013-05-12T07:26:17Z</time>
      </trkpt>
      <trkpt lat="44.43483" lon="5.81571">
        <ele>1039.8000488281</ele>
        <time>2013-05-12T07:26:27Z</time>
      </trkpt>
      <trkpt lat="44.43487" lon="5.8158">
        <ele>1043.8000488281</ele>
        <time>2013-05-12T07:28:30Z</time>
      </trkpt>
      <trkpt lat="44.43489" lon="5.81591">
        <ele>1045.5999755859</ele>
        <time>2013-05-12T07:28:41Z</time>
      </trkpt>
      <trkpt lat="44.43489" lon="5.81605">
        <ele>1046.4000244141</ele>
        <time>2013-05-12T07:28:53Z</time>
      </trkpt>
      <trkpt lat="44.43487" lon="5.81617">
        <ele>1049</ele>
        <time>2013-05-12T07:29:05Z</time>
      </trkpt>
      <trkpt lat="44.43488" lon="5.81622">
        <ele>1049.8000488281</ele>
        <time>2013-05-12T07:29:08Z</time>
      </trkpt>
      <trkpt lat="44.43492" lon="5.81633">
        <ele>1050.5999755859</ele>
        <time>2013-05-12T07:29:19Z</time>
      </trkpt>
      <trkpt lat="44.43497" lon="5.81641">
        <ele>1052.5999755859</ele>
        <time>2013-05-12T07:29:31Z</time>
      </trkpt>
      <trkpt lat="44.435" lon="5.81653">
        <ele>1054.8000488281</ele>
        <time>2013-05-12T07:29:45Z</time>
      </trkpt>
      <trkpt lat="44.435" lon="5.81655">
        <ele>1055.8000488281</ele>
        <time>2013-05-12T07:29:47Z</time>
      </trkpt>
      <trkpt lat="44.43499" lon="5.81663">
        <ele>1057</ele>
        <time>2013-05-12T07:29:58Z</time>
      </trkpt>
      <trkpt lat="44.43499" lon="5.81673">
        <ele>1058.5999755859</ele>
        <time>2013-05-12T07:30:10Z</time>
      </trkpt>
      <trkpt lat="44.43497" lon="5.81686">
        <ele>1061</ele>
        <time>2013-05-12T07:30:23Z</time>
      </trkpt>
      <trkpt lat="44.43499" lon="5.81692">
        <ele>1061.8000488281</ele>
        <time>2013-05-12T07:30:30Z</time>
      </trkpt>
      <trkpt lat="44.43501" lon="5.81694">
        <ele>1063.1999511719</ele>
        <time>2013-05-12T07:30:33Z</time>
      </trkpt>
      <trkpt lat="44.43515" lon="5.81695">
        <ele>1065.8000488281</ele>
        <time>2013-05-12T07:30:57Z</time>
      </trkpt>
      <trkpt lat="44.43523" lon="5.81695">
        <ele>1068.4000244141</ele>
        <time>2013-05-12T07:31:10Z</time>
      </trkpt>
      <trkpt lat="44.43533" lon="5.81687">
        <ele>1070</ele>
        <time>2013-05-12T07:31:23Z</time>
      </trkpt>
      <trkpt lat="44.43542" lon="5.81676">
        <ele>1072.5999755859</ele>
        <time>2013-05-12T07:31:39Z</time>
      </trkpt>
      <trkpt lat="44.43547" lon="5.8167">
        <ele>1074.8000488281</ele>
        <time>2013-05-12T07:31:50Z</time>
      </trkpt>
      <trkpt lat="44.43555" lon="5.81662">
        <ele>1076</ele>
        <time>2013-05-12T07:32:04Z</time>
      </trkpt>
      <trkpt lat="44.43556" lon="5.81659">
        <ele>1076.4000244141</ele>
        <time>2013-05-12T07:32:07Z</time>
      </trkpt>
      <trkpt lat="44.43561" lon="5.81653">
        <ele>1078.5999755859</ele>
        <time>2013-05-12T07:32:17Z</time>
      </trkpt>
      <trkpt lat="44.43568" lon="5.81645">
        <ele>1081.1999511719</ele>
        <time>2013-05-12T07:32:31Z</time>
      </trkpt>
      <trkpt lat="44.43571" lon="5.81644">
        <ele>1082.4000244141</ele>
        <time>2013-05-12T07:32:35Z</time>
      </trkpt>
      <trkpt lat="44.43579" lon="5.81636">
        <ele>1082.4000244141</ele>
        <time>2013-05-12T07:32:47Z</time>
      </trkpt>
      <trkpt lat="44.43584" lon="5.81631">
        <ele>1083.8000488281</ele>
        <time>2013-05-12T07:32:53Z</time>
      </trkpt>
      <trkpt lat="44.43585" lon="5.81629">
        <ele>1084.5999755859</ele>
        <time>2013-05-12T07:32:56Z</time>
      </trkpt>
      <trkpt lat="44.43591" lon="5.81623">
        <ele>1085.4000244141</ele>
        <time>2013-05-12T07:33:04Z</time>
      </trkpt>
      <trkpt lat="44.43599" lon="5.81618">
        <ele>1087</ele>
        <time>2013-05-12T07:33:14Z</time>
      </trkpt>
      <trkpt lat="44.436" lon="5.81618">
        <ele>1087.8000488281</ele>
        <time>2013-05-12T07:33:15Z</time>
      </trkpt>
      <trkpt lat="44.43615" lon="5.8161">
        <ele>1089.1999511719</ele>
        <time>2013-05-12T07:33:33Z</time>
      </trkpt>
      <trkpt lat="44.43616" lon="5.81593">
        <ele>1091.4000244141</ele>
        <time>2013-05-12T07:33:48Z</time>
      </trkpt>
      <trkpt lat="44.43617" lon="5.81589">
        <ele>1093</ele>
        <time>2013-05-12T07:33:52Z</time>
      </trkpt>
      <trkpt lat="44.4362" lon="5.81578">
        <ele>1095.1999511719</ele>
        <time>2013-05-12T07:34:05Z</time>
      </trkpt>
      <trkpt lat="44.43623" lon="5.81568">
        <ele>1096</ele>
        <time>2013-05-12T07:34:15Z</time>
      </trkpt>
      <trkpt lat="44.43624" lon="5.81557">
        <ele>1098</ele>
        <time>2013-05-12T07:34:25Z</time>
      </trkpt>
      <trkpt lat="44.43626" lon="5.81538">
        <ele>1099.8000488281</ele>
        <time>2013-05-12T07:34:45Z</time>
      </trkpt>
      <trkpt lat="44.43625" lon="5.81529">
        <ele>1102.5999755859</ele>
        <time>2013-05-12T07:34:56Z</time>
      </trkpt>
      <trkpt lat="44.43631" lon="5.81522">
        <ele>1103.5999755859</ele>
        <time>2013-05-12T07:35:05Z</time>
      </trkpt>
      <trkpt lat="44.43641" lon="5.81521">
        <ele>1104</ele>
        <time>2013-05-12T07:35:17Z</time>
      </trkpt>
      <trkpt lat="44.43652" lon="5.81535">
        <ele>1108.1999511719</ele>
        <time>2013-05-12T07:35:39Z</time>
      </trkpt>
      <trkpt lat="44.43652" lon="5.81541">
        <ele>1109.4000244141</ele>
        <time>2013-05-12T07:35:44Z</time>
      </trkpt>
      <trkpt lat="44.43652" lon="5.81555">
        <ele>1109.8000488281</ele>
        <time>2013-05-12T07:35:53Z</time>
      </trkpt>
      <trkpt lat="44.43649" lon="5.81569">
        <ele>1110.1999511719</ele>
        <time>2013-05-12T07:36:02Z</time>
      </trkpt>
      <trkpt lat="44.43649" lon="5.81571">
        <ele>1111.1999511719</ele>
        <time>2013-05-12T07:36:04Z</time>
      </trkpt>
      <trkpt lat="44.43648" lon="5.81588">
        <ele>1112.1999511719</ele>
        <time>2013-05-12T07:36:16Z</time>
      </trkpt>
      <trkpt lat="44.43648" lon="5.81591">
        <ele>1112.1999511719</ele>
        <time>2013-05-12T07:36:18Z</time>
      </trkpt>
      <trkpt lat="44.43649" lon="5.816">
        <ele>1114.1999511719</ele>
        <time>2013-05-12T07:36:34Z</time>
      </trkpt>
      <trkpt lat="44.4365" lon="5.81622">
        <ele>1114.1999511719</ele>
        <time>2013-05-12T07:37:01Z</time>
      </trkpt>
      <trkpt lat="44.43654" lon="5.81636">
        <ele>1117</ele>
        <time>2013-05-12T07:37:14Z</time>
      </trkpt>
      <trkpt lat="44.43655" lon="5.8164">
        <ele>1118.4000244141</ele>
        <time>2013-05-12T07:37:18Z</time>
      </trkpt>
      <trkpt lat="44.43657" lon="5.81655">
        <ele>1118.8000488281</ele>
        <time>2013-05-12T07:37:32Z</time>
      </trkpt>
      <trkpt lat="44.43664" lon="5.81667">
        <ele>1120.4000244141</ele>
        <time>2013-05-12T07:37:49Z</time>
      </trkpt>
      <trkpt lat="44.43666" lon="5.8167">
        <ele>1121.1999511719</ele>
        <time>2013-05-12T07:37:54Z</time>
      </trkpt>
      <trkpt lat="44.43671" lon="5.81676">
        <ele>1123</ele>
        <time>2013-05-12T07:38:03Z</time>
      </trkpt>
      <trkpt lat="44.43674" lon="5.81681">
        <ele>1124.5999755859</ele>
        <time>2013-05-12T07:38:12Z</time>
      </trkpt>
      <trkpt lat="44.43677" lon="5.81692">
        <ele>1125.4000244141</ele>
        <time>2013-05-12T07:38:26Z</time>
      </trkpt>
      <trkpt lat="44.43681" lon="5.81701">
        <ele>1127.1999511719</ele>
        <time>2013-05-12T07:38:34Z</time>
      </trkpt>
      <trkpt lat="44.43689" lon="5.81711">
        <ele>1131.1999511719</ele>
        <time>2013-05-12T07:38:56Z</time>
      </trkpt>
      <trkpt lat="44.4369" lon="5.81713">
        <ele>1131.5999755859</ele>
        <time>2013-05-12T07:39:10Z</time>
      </trkpt>
      <trkpt lat="44.437" lon="5.81716">
        <ele>1135.4000244141</ele>
        <time>2013-05-12T07:40:06Z</time>
      </trkpt>
      <trkpt lat="44.43711" lon="5.81716">
        <ele>1139.1999511719</ele>
        <time>2013-05-12T07:40:28Z</time>
      </trkpt>
      <trkpt lat="44.43721" lon="5.81721">
        <ele>1142</ele>
        <time>2013-05-12T07:40:47Z</time>
      </trkpt>
      <trkpt lat="44.43731" lon="5.81729">
        <ele>1146.4000244141</ele>
        <time>2013-05-12T07:41:07Z</time>
      </trkpt>
      <trkpt lat="44.43735" lon="5.81732">
        <ele>1146.8000488281</ele>
        <time>2013-05-12T07:41:17Z</time>
      </trkpt>
      <trkpt lat="44.4374" lon="5.81735">
        <ele>1149.1999511719</ele>
        <time>2013-05-12T07:41:29Z</time>
      </trkpt>
      <trkpt lat="44.43745" lon="5.81741">
        <ele>1151</ele>
        <time>2013-05-12T07:41:41Z</time>
      </trkpt>
      <trkpt lat="44.4375" lon="5.81748">
        <ele>1153.1999511719</ele>
        <time>2013-05-12T07:41:56Z</time>
      </trkpt>
      <trkpt lat="44.43752" lon="5.81751">
        <ele>1155.1999511719</ele>
        <time>2013-05-12T07:42:01Z</time>
      </trkpt>
      <trkpt lat="44.43757" lon="5.8176">
        <ele>1157.8000488281</ele>
        <time>2013-05-12T07:42:19Z</time>
      </trkpt>
      <trkpt lat="44.4376" lon="5.81767">
        <ele>1161</ele>
        <time>2013-05-12T07:42:31Z</time>
      </trkpt>
      <trkpt lat="44.43761" lon="5.81775">
        <ele>1161.8000488281</ele>
        <time>2013-05-12T07:42:43Z</time>
      </trkpt>
      <trkpt lat="44.43762" lon="5.81783">
        <ele>1163.8000488281</ele>
        <time>2013-05-12T07:42:53Z</time>
      </trkpt>
      <trkpt lat="44.43763" lon="5.81794">
        <ele>1165.8000488281</ele>
        <time>2013-05-12T07:43:10Z</time>
      </trkpt>
      <trkpt lat="44.43766" lon="5.81805">
        <ele>1168</ele>
        <time>2013-05-12T07:43:24Z</time>
      </trkpt>
      <trkpt lat="44.43769" lon="5.81813">
        <ele>1169.8000488281</ele>
        <time>2013-05-12T07:43:38Z</time>
      </trkpt>
      <trkpt lat="44.43771" lon="5.81816">
        <ele>1171.4000244141</ele>
        <time>2013-05-12T07:43:43Z</time>
      </trkpt>
      <trkpt lat="44.43774" lon="5.8182">
        <ele>1172.1999511719</ele>
        <time>2013-05-12T07:43:51Z</time>
      </trkpt>
      <trkpt lat="44.43776" lon="5.81831">
        <ele>1176</ele>
        <time>2013-05-12T07:44:06Z</time>
      </trkpt>
      <trkpt lat="44.43779" lon="5.81841">
        <ele>1177</ele>
        <time>2013-05-12T07:44:19Z</time>
      </trkpt>
      <trkpt lat="44.43779" lon="5.8185">
        <ele>1180.1999511719</ele>
        <time>2013-05-12T07:44:34Z</time>
      </trkpt>
      <trkpt lat="44.4378" lon="5.81859">
        <ele>1181.4000244141</ele>
        <time>2013-05-12T07:44:47Z</time>
      </trkpt>
      <trkpt lat="44.4378" lon="5.8186">
        <ele>1182.1999511719</ele>
        <time>2013-05-12T07:44:49Z</time>
      </trkpt>
      <trkpt lat="44.43781" lon="5.81872">
        <ele>1183</ele>
        <time>2013-05-12T07:45:06Z</time>
      </trkpt>
      <trkpt lat="44.43782" lon="5.81884">
        <ele>1185.5999755859</ele>
        <time>2013-05-12T07:45:22Z</time>
      </trkpt>
      <trkpt lat="44.43784" lon="5.81891">
        <ele>1188.1999511719</ele>
        <time>2013-05-12T07:45:34Z</time>
      </trkpt>
      <trkpt lat="44.43789" lon="5.81902">
        <ele>1189.8000488281</ele>
        <time>2013-05-12T07:45:51Z</time>
      </trkpt>
      <trkpt lat="44.4379" lon="5.81904">
        <ele>1190.5999755859</ele>
        <time>2013-05-12T07:45:54Z</time>
      </trkpt>
      <trkpt lat="44.43792" lon="5.8191">
        <ele>1192.4000244141</ele>
        <time>2013-05-12T07:46:03Z</time>
      </trkpt>
      <trkpt lat="44.43797" lon="5.81921">
        <ele>1194</ele>
        <time>2013-05-12T07:46:17Z</time>
      </trkpt>
      <trkpt lat="44.438" lon="5.81931">
        <ele>1197.4000244141</ele>
        <time>2013-05-12T07:46:32Z</time>
      </trkpt>
      <trkpt lat="44.438" lon="5.81934">
        <ele>1198</ele>
        <time>2013-05-12T07:46:36Z</time>
      </trkpt>
      <trkpt lat="44.43801" lon="5.8194">
        <ele>1200.5999755859</ele>
        <time>2013-05-12T07:46:47Z</time>
      </trkpt>
      <trkpt lat="44.43804" lon="5.81951">
        <ele>1202.5999755859</ele>
        <time>2013-05-12T07:47:05Z</time>
      </trkpt>
      <trkpt lat="44.43806" lon="5.8196">
        <ele>1206</ele>
        <time>2013-05-12T07:47:20Z</time>
      </trkpt>
      <trkpt lat="44.4381" lon="5.8197">
        <ele>1208.1999511719</ele>
        <time>2013-05-12T07:47:39Z</time>
      </trkpt>
      <trkpt lat="44.43811" lon="5.81973">
        <ele>1209.5999755859</ele>
        <time>2013-05-12T07:47:44Z</time>
      </trkpt>
      <trkpt lat="44.43814" lon="5.81985">
        <ele>1210.4000244141</ele>
        <time>2013-05-12T07:48:02Z</time>
      </trkpt>
      <trkpt lat="44.43816" lon="5.81991">
        <ele>1212</ele>
        <time>2013-05-12T07:48:09Z</time>
      </trkpt>
      <trkpt lat="44.43818" lon="5.82">
        <ele>1213.8000488281</ele>
        <time>2013-05-12T07:48:19Z</time>
      </trkpt>
      <trkpt lat="44.43822" lon="5.82009">
        <ele>1214.8000488281</ele>
        <time>2013-05-12T07:48:31Z</time>
      </trkpt>
      <trkpt lat="44.43822" lon="5.82018">
        <ele>1215.1999511719</ele>
        <time>2013-05-12T07:48:41Z</time>
      </trkpt>
      <trkpt lat="44.43822" lon="5.82022">
        <ele>1216.5999755859</ele>
        <time>2013-05-12T07:48:46Z</time>
      </trkpt>
      <trkpt lat="44.43824" lon="5.8203">
        <ele>1217.8000488281</ele>
        <time>2013-05-12T07:48:55Z</time>
      </trkpt>
      <trkpt lat="44.43824" lon="5.82043">
        <ele>1219.5999755859</ele>
        <time>2013-05-12T07:49:11Z</time>
      </trkpt>
      <trkpt lat="44.43821" lon="5.82054">
        <ele>1221.5999755859</ele>
        <time>2013-05-12T07:49:25Z</time>
      </trkpt>
      <trkpt lat="44.4382" lon="5.82058">
        <ele>1223.4000244141</ele>
        <time>2013-05-12T07:49:30Z</time>
      </trkpt>
      <trkpt lat="44.43819" lon="5.82067">
        <ele>1223.8000488281</ele>
        <time>2013-05-12T07:49:38Z</time>
      </trkpt>
      <trkpt lat="44.43818" lon="5.82071">
        <ele>1225</ele>
        <time>2013-05-12T07:49:42Z</time>
      </trkpt>
      <trkpt lat="44.43818" lon="5.82083">
        <ele>1226</ele>
        <time>2013-05-12T07:49:59Z</time>
      </trkpt>
      <trkpt lat="44.43818" lon="5.82091">
        <ele>1228</ele>
        <time>2013-05-12T07:50:09Z</time>
      </trkpt>
      <trkpt lat="44.43813" lon="5.82101">
        <ele>1230.5999755859</ele>
        <time>2013-05-12T07:50:24Z</time>
      </trkpt>
      <trkpt lat="44.43813" lon="5.82111">
        <ele>1232</ele>
        <time>2013-05-12T07:50:34Z</time>
      </trkpt>
      <trkpt lat="44.43811" lon="5.82122">
        <ele>1234.4000244141</ele>
        <time>2013-05-12T07:50:50Z</time>
      </trkpt>
      <trkpt lat="44.4381" lon="5.82125">
        <ele>1235.5999755859</ele>
        <time>2013-05-12T07:50:54Z</time>
      </trkpt>
      <trkpt lat="44.4381" lon="5.82129">
        <ele>1236</ele>
        <time>2013-05-12T07:50:57Z</time>
      </trkpt>
      <trkpt lat="44.4381" lon="5.8213">
        <ele>1236</ele>
        <time>2013-05-12T07:51:01Z</time>
      </trkpt>
      <trkpt lat="44.43801" lon="5.82141">
        <ele>1239.5999755859</ele>
        <time>2013-05-12T07:51:21Z</time>
      </trkpt>
      <trkpt lat="44.438" lon="5.82145">
        <ele>1241</ele>
        <time>2013-05-12T07:51:29Z</time>
      </trkpt>
      <trkpt lat="44.43795" lon="5.82151">
        <ele>1242.8000488281</ele>
        <time>2013-05-12T07:51:42Z</time>
      </trkpt>
      <trkpt lat="44.43791" lon="5.82165">
        <ele>1243.4000244141</ele>
        <time>2013-05-12T07:52:05Z</time>
      </trkpt>
      <trkpt lat="44.43791" lon="5.8217">
        <ele>1244.5999755859</ele>
        <time>2013-05-12T07:52:09Z</time>
      </trkpt>
      <trkpt lat="44.43791" lon="5.82185">
        <ele>1245.1999511719</ele>
        <time>2013-05-12T07:52:21Z</time>
      </trkpt>
      <trkpt lat="44.43791" lon="5.8219">
        <ele>1247</ele>
        <time>2013-05-12T07:52:26Z</time>
      </trkpt>
      <trkpt lat="44.4379" lon="5.822">
        <ele>1248.5999755859</ele>
        <time>2013-05-12T07:52:36Z</time>
      </trkpt>
      <trkpt lat="44.4379" lon="5.82215">
        <ele>1249.5999755859</ele>
        <time>2013-05-12T07:52:49Z</time>
      </trkpt>
      <trkpt lat="44.43789" lon="5.82224">
        <ele>1250.5999755859</ele>
        <time>2013-05-12T07:52:58Z</time>
      </trkpt>
      <trkpt lat="44.43792" lon="5.82235">
        <ele>1252.4000244141</ele>
        <time>2013-05-12T07:53:10Z</time>
      </trkpt>
      <trkpt lat="44.43793" lon="5.8224">
        <ele>1254</ele>
        <time>2013-05-12T07:53:17Z</time>
      </trkpt>
      <trkpt lat="44.43797" lon="5.82251">
        <ele>1256</ele>
        <time>2013-05-12T07:53:33Z</time>
      </trkpt>
      <trkpt lat="44.43797" lon="5.82262">
        <ele>1258.4000244141</ele>
        <time>2013-05-12T07:53:46Z</time>
      </trkpt>
      <trkpt lat="44.438" lon="5.82267">
        <ele>1260.5999755859</ele>
        <time>2013-05-12T07:53:59Z</time>
      </trkpt>
      <trkpt lat="44.43805" lon="5.82271">
        <ele>1262.1999511719</ele>
        <time>2013-05-12T07:54:14Z</time>
      </trkpt>
      <trkpt lat="44.43805" lon="5.8227">
        <ele>1264</ele>
        <time>2013-05-12T07:54:21Z</time>
      </trkpt>
      <trkpt lat="44.43809" lon="5.82275">
        <ele>1264.5999755859</ele>
        <time>2013-05-12T07:54:40Z</time>
      </trkpt>
      <trkpt lat="44.43811" lon="5.82278">
        <ele>1265.4000244141</ele>
        <time>2013-05-12T07:54:44Z</time>
      </trkpt>
      <trkpt lat="44.43813" lon="5.82281">
        <ele>1266.5999755859</ele>
        <time>2013-05-12T07:54:49Z</time>
      </trkpt>
      <trkpt lat="44.43813" lon="5.82291">
        <ele>1270</ele>
        <time>2013-05-12T07:55:01Z</time>
      </trkpt>
      <trkpt lat="44.43818" lon="5.82302">
        <ele>1271.8000488281</ele>
        <time>2013-05-12T07:55:22Z</time>
      </trkpt>
      <trkpt lat="44.43818" lon="5.82311">
        <ele>1274</ele>
        <time>2013-05-12T07:55:34Z</time>
      </trkpt>
      <trkpt lat="44.43819" lon="5.82324">
        <ele>1276.1999511719</ele>
        <time>2013-05-12T07:55:49Z</time>
      </trkpt>
      <trkpt lat="44.43819" lon="5.82338">
        <ele>1278.5999755859</ele>
        <time>2013-05-12T07:56:06Z</time>
      </trkpt>
      <trkpt lat="44.4382" lon="5.8234">
        <ele>1280</ele>
        <time>2013-05-12T07:56:10Z</time>
      </trkpt>
      <trkpt lat="44.43821" lon="5.82345">
        <ele>1280.8000488281</ele>
        <time>2013-05-12T07:56:16Z</time>
      </trkpt>
      <trkpt lat="44.43823" lon="5.82356">
        <ele>1283</ele>
        <time>2013-05-12T07:56:29Z</time>
      </trkpt>
      <trkpt lat="44.43824" lon="5.82361">
        <ele>1284.1999511719</ele>
        <time>2013-05-12T07:56:34Z</time>
      </trkpt>
      <trkpt lat="44.43824" lon="5.82372">
        <ele>1285</ele>
        <time>2013-05-12T07:56:45Z</time>
      </trkpt>
      <trkpt lat="44.4382" lon="5.82382">
        <ele>1287.5999755859</ele>
        <time>2013-05-12T07:56:59Z</time>
      </trkpt>
      <trkpt lat="44.4382" lon="5.82382">
        <ele>1288.1999511719</ele>
        <time>2013-05-12T07:57:00Z</time>
      </trkpt>
      <trkpt lat="44.43819" lon="5.82392">
        <ele>1289.4000244141</ele>
        <time>2013-05-12T07:57:13Z</time>
      </trkpt>
      <trkpt lat="44.43819" lon="5.824">
        <ele>1291.1999511719</ele>
        <time>2013-05-12T07:57:26Z</time>
      </trkpt>
      <trkpt lat="44.4382" lon="5.82403">
        <ele>1292.5999755859</ele>
        <time>2013-05-12T07:57:31Z</time>
      </trkpt>
      <trkpt lat="44.4382" lon="5.82405">
        <ele>1293</ele>
        <time>2013-05-12T07:57:35Z</time>
      </trkpt>
      <trkpt lat="44.43821" lon="5.82409">
        <ele>1294</ele>
        <time>2013-05-12T07:57:41Z</time>
      </trkpt>
      <trkpt lat="44.4382" lon="5.82412">
        <ele>1295</ele>
        <time>2013-05-12T07:57:46Z</time>
      </trkpt>
      <trkpt lat="44.43818" lon="5.82421">
        <ele>1297.1999511719</ele>
        <time>2013-05-12T07:57:58Z</time>
      </trkpt>
      <trkpt lat="44.43816" lon="5.82431">
        <ele>1299.8000488281</ele>
        <time>2013-05-12T07:58:12Z</time>
      </trkpt>
      <trkpt lat="44.43816" lon="5.82442">
        <ele>1301.8000488281</ele>
        <time>2013-05-12T07:58:26Z</time>
      </trkpt>
      <trkpt lat="44.43817" lon="5.82451">
        <ele>1303.8000488281</ele>
        <time>2013-05-12T07:58:41Z</time>
      </trkpt>
      <trkpt lat="44.43816" lon="5.82461">
        <ele>1306.5999755859</ele>
        <time>2013-05-12T07:58:58Z</time>
      </trkpt>
      <trkpt lat="44.43816" lon="5.82473">
        <ele>1309</ele>
        <time>2013-05-12T07:59:14Z</time>
      </trkpt>
      <trkpt lat="44.43816" lon="5.8248">
        <ele>1310</ele>
        <time>2013-05-12T07:59:22Z</time>
      </trkpt>
      <trkpt lat="44.43815" lon="5.8249">
        <ele>1312.1999511719</ele>
        <time>2013-05-12T07:59:33Z</time>
      </trkpt>
      <trkpt lat="44.4381" lon="5.82506">
        <ele>1314.1999511719</ele>
        <time>2013-05-12T07:59:58Z</time>
      </trkpt>
      <trkpt lat="44.4381" lon="5.82514">
        <ele>1315</ele>
        <time>2013-05-12T08:00:04Z</time>
      </trkpt>
      <trkpt lat="44.43811" lon="5.82521">
        <ele>1316</ele>
        <time>2013-05-12T08:00:11Z</time>
      </trkpt>
      <trkpt lat="44.43811" lon="5.82532">
        <ele>1317.8000488281</ele>
        <time>2013-05-12T08:00:23Z</time>
      </trkpt>
      <trkpt lat="44.4381" lon="5.8254">
        <ele>1319.1999511719</ele>
        <time>2013-05-12T08:00:32Z</time>
      </trkpt>
      <trkpt lat="44.4381" lon="5.82543">
        <ele>1320</ele>
        <time>2013-05-12T08:00:35Z</time>
      </trkpt>
      <trkpt lat="44.43808" lon="5.82551">
        <ele>1320.8000488281</ele>
        <time>2013-05-12T08:00:41Z</time>
      </trkpt>
      <trkpt lat="44.43805" lon="5.82563">
        <ele>1322.1999511719</ele>
        <time>2013-05-12T08:00:50Z</time>
      </trkpt>
      <trkpt lat="44.43804" lon="5.82572">
        <ele>1323</ele>
        <time>2013-05-12T08:00:56Z</time>
      </trkpt>
      <trkpt lat="44.43803" lon="5.82587">
        <ele>1323</ele>
        <time>2013-05-12T08:01:09Z</time>
      </trkpt>
      <trkpt lat="44.43803" lon="5.8259">
        <ele>1323.4000244141</ele>
        <time>2013-05-12T08:01:11Z</time>
      </trkpt>
      <trkpt lat="44.43802" lon="5.82601">
        <ele>1325.1999511719</ele>
        <time>2013-05-12T08:01:20Z</time>
      </trkpt>
      <trkpt lat="44.438" lon="5.82612">
        <ele>1327.1999511719</ele>
        <time>2013-05-12T08:01:30Z</time>
      </trkpt>
      <trkpt lat="44.43795" lon="5.82625">
        <ele>1328.1999511719</ele>
        <time>2013-05-12T08:01:41Z</time>
      </trkpt>
      <trkpt lat="44.43794" lon="5.82631">
        <ele>1329.4000244141</ele>
        <time>2013-05-12T08:01:47Z</time>
      </trkpt>
      <trkpt lat="44.43792" lon="5.82642">
        <ele>1330.4000244141</ele>
        <time>2013-05-12T08:01:59Z</time>
      </trkpt>
      <trkpt lat="44.43792" lon="5.82652">
        <ele>1331.5999755859</ele>
        <time>2013-05-12T08:02:07Z</time>
      </trkpt>
      <trkpt lat="44.43789" lon="5.82663">
        <ele>1332.5999755859</ele>
        <time>2013-05-12T08:02:15Z</time>
      </trkpt>
      <trkpt lat="44.43788" lon="5.82671">
        <ele>1334.1999511719</ele>
        <time>2013-05-12T08:02:24Z</time>
      </trkpt>
      <trkpt lat="44.43784" lon="5.82684">
        <ele>1335</ele>
        <time>2013-05-12T08:02:35Z</time>
      </trkpt>
      <trkpt lat="44.43782" lon="5.82694">
        <ele>1336</ele>
        <time>2013-05-12T08:02:42Z</time>
      </trkpt>
      <trkpt lat="44.4378" lon="5.82698">
        <ele>1336.4000244141</ele>
        <time>2013-05-12T08:02:45Z</time>
      </trkpt>
      <trkpt lat="44.43776" lon="5.82704">
        <ele>1337.4000244141</ele>
        <time>2013-05-12T08:02:49Z</time>
      </trkpt>
      <trkpt lat="44.43769" lon="5.82708">
        <ele>1338.8000488281</ele>
        <time>2013-05-12T08:02:56Z</time>
      </trkpt>
      <trkpt lat="44.43766" lon="5.82711">
        <ele>1339.5999755859</ele>
        <time>2013-05-12T08:02:59Z</time>
      </trkpt>
      <trkpt lat="44.4376" lon="5.82721">
        <ele>1340.8000488281</ele>
        <time>2013-05-12T08:03:09Z</time>
      </trkpt>
      <trkpt lat="44.43758" lon="5.82727">
        <ele>1341.4000244141</ele>
        <time>2013-05-12T08:03:17Z</time>
      </trkpt>
      <trkpt lat="44.43755" lon="5.82731">
        <ele>1342.1999511719</ele>
        <time>2013-05-12T08:03:23Z</time>
      </trkpt>
      <trkpt lat="44.43748" lon="5.82742">
        <ele>1344</ele>
        <time>2013-05-12T08:03:33Z</time>
      </trkpt>
      <trkpt lat="44.43746" lon="5.82751">
        <ele>1345.1999511719</ele>
        <time>2013-05-12T08:03:41Z</time>
      </trkpt>
      <trkpt lat="44.43746" lon="5.82762">
        <ele>1347</ele>
        <time>2013-05-12T08:03:50Z</time>
      </trkpt>
      <trkpt lat="44.43744" lon="5.82775">
        <ele>1347.4000244141</ele>
        <time>2013-05-12T08:04:00Z</time>
      </trkpt>
      <trkpt lat="44.4374" lon="5.82781">
        <ele>1348</ele>
        <time>2013-05-12T08:04:06Z</time>
      </trkpt>
      <trkpt lat="44.4374" lon="5.82781">
        <ele>1348.4000244141</ele>
        <time>2013-05-12T08:04:08Z</time>
      </trkpt>
      <trkpt lat="44.43737" lon="5.82792">
        <ele>1349.8000488281</ele>
        <time>2013-05-12T08:04:20Z</time>
      </trkpt>
      <trkpt lat="44.43733" lon="5.828">
        <ele>1353.4000244141</ele>
        <time>2013-05-12T08:04:46Z</time>
      </trkpt>
      <trkpt lat="44.43732" lon="5.82811">
        <ele>1356.4000244141</ele>
        <time>2013-05-12T08:06:41Z</time>
      </trkpt>
      <trkpt lat="44.43732" lon="5.82821">
        <ele>1358.5999755859</ele>
        <time>2013-05-12T08:06:53Z</time>
      </trkpt>
      <trkpt lat="44.4373" lon="5.82828">
        <ele>1360.8000488281</ele>
        <time>2013-05-12T08:07:08Z</time>
      </trkpt>
      <trkpt lat="44.43729" lon="5.82831">
        <ele>1361.1999511719</ele>
        <time>2013-05-12T08:07:11Z</time>
      </trkpt>
      <trkpt lat="44.43727" lon="5.82841">
        <ele>1365.1999511719</ele>
        <time>2013-05-12T08:07:30Z</time>
      </trkpt>
      <trkpt lat="44.43724" lon="5.82851">
        <ele>1369</ele>
        <time>2013-05-12T08:07:56Z</time>
      </trkpt>
      <trkpt lat="44.43725" lon="5.82861">
        <ele>1370.4000244141</ele>
        <time>2013-05-12T08:08:11Z</time>
      </trkpt>
      <trkpt lat="44.43726" lon="5.82872">
        <ele>1375.8000488281</ele>
        <time>2013-05-12T08:08:50Z</time>
      </trkpt>
      <trkpt lat="44.43724" lon="5.8288">
        <ele>1377.4000244141</ele>
        <time>2013-05-12T08:08:59Z</time>
      </trkpt>
      <trkpt lat="44.43716" lon="5.82893">
        <ele>1378.1999511719</ele>
        <time>2013-05-12T08:09:17Z</time>
      </trkpt>
      <trkpt lat="44.43708" lon="5.829">
        <ele>1380.8000488281</ele>
        <time>2013-05-12T08:09:33Z</time>
      </trkpt>
      <trkpt lat="44.43706" lon="5.8291">
        <ele>1383.8000488281</ele>
        <time>2013-05-12T08:09:53Z</time>
      </trkpt>
      <trkpt lat="44.437" lon="5.82915">
        <ele>1385.1999511719</ele>
        <time>2013-05-12T08:10:08Z</time>
      </trkpt>
      <trkpt lat="44.43696" lon="5.8292">
        <ele>1387</ele>
        <time>2013-05-12T08:10:16Z</time>
      </trkpt>
      <trkpt lat="44.43687" lon="5.82931">
        <ele>1389.1999511719</ele>
        <time>2013-05-12T08:10:36Z</time>
      </trkpt>
      <trkpt lat="44.4368" lon="5.82938">
        <ele>1391.4000244141</ele>
        <time>2013-05-12T08:10:50Z</time>
      </trkpt>
      <trkpt lat="44.43675" lon="5.82944">
        <ele>1391.4000244141</ele>
        <time>2013-05-12T08:11:02Z</time>
      </trkpt>
      <trkpt lat="44.4367" lon="5.82951">
        <ele>1393.8000488281</ele>
        <time>2013-05-12T08:11:17Z</time>
      </trkpt>
      <trkpt lat="44.4367" lon="5.82953">
        <ele>1394.8000488281</ele>
        <time>2013-05-12T08:11:20Z</time>
      </trkpt>
      <trkpt lat="44.43666" lon="5.82961">
        <ele>1398</ele>
        <time>2013-05-12T08:11:35Z</time>
      </trkpt>
      <trkpt lat="44.43666" lon="5.82971">
        <ele>1399.4000244141</ele>
        <time>2013-05-12T08:11:46Z</time>
      </trkpt>
      <trkpt lat="44.43664" lon="5.8298">
        <ele>1401</ele>
        <time>2013-05-12T08:11:58Z</time>
      </trkpt>
      <trkpt lat="44.43664" lon="5.82991">
        <ele>1404.5999755859</ele>
        <time>2013-05-12T08:12:21Z</time>
      </trkpt>
      <trkpt lat="44.43664" lon="5.83002">
        <ele>1408.8000488281</ele>
        <time>2013-05-12T08:12:50Z</time>
      </trkpt>
      <trkpt lat="44.43663" lon="5.8301">
        <ele>1411</ele>
        <time>2013-05-12T08:13:10Z</time>
      </trkpt>
      <trkpt lat="44.43662" lon="5.83021">
        <ele>1413.1999511719</ele>
        <time>2013-05-12T08:13:32Z</time>
      </trkpt>
      <trkpt lat="44.4366" lon="5.8303">
        <ele>1415.4000244141</ele>
        <time>2013-05-12T08:13:47Z</time>
      </trkpt>
      <trkpt lat="44.4366" lon="5.83031">
        <ele>1415.8000488281</ele>
        <time>2013-05-12T08:13:50Z</time>
      </trkpt>
      <trkpt lat="44.43657" lon="5.8304">
        <ele>1418</ele>
        <time>2013-05-12T08:14:07Z</time>
      </trkpt>
      <trkpt lat="44.43656" lon="5.83052">
        <ele>1419.8000488281</ele>
        <time>2013-05-12T08:14:27Z</time>
      </trkpt>
      <trkpt lat="44.43653" lon="5.83061">
        <ele>1421.8000488281</ele>
        <time>2013-05-12T08:14:41Z</time>
      </trkpt>
      <trkpt lat="44.4365" lon="5.83072">
        <ele>1424.8000488281</ele>
        <time>2013-05-12T08:14:58Z</time>
      </trkpt>
      <trkpt lat="44.4365" lon="5.83074">
        <ele>1425.5999755859</ele>
        <time>2013-05-12T08:15:02Z</time>
      </trkpt>
      <trkpt lat="44.43646" lon="5.83081">
        <ele>1426.4000244141</ele>
        <time>2013-05-12T08:15:18Z</time>
      </trkpt>
      <trkpt lat="44.43641" lon="5.83091">
        <ele>1430.5999755859</ele>
        <time>2013-05-12T08:15:37Z</time>
      </trkpt>
      <trkpt lat="44.43639" lon="5.83094">
        <ele>1431.1999511719</ele>
        <time>2013-05-12T08:15:45Z</time>
      </trkpt>
      <trkpt lat="44.43636" lon="5.83101">
        <ele>1433.4000244141</ele>
        <time>2013-05-12T08:15:59Z</time>
      </trkpt>
      <trkpt lat="44.43628" lon="5.83111">
        <ele>1436</ele>
        <time>2013-05-12T08:16:22Z</time>
      </trkpt>
      <trkpt lat="44.43619" lon="5.83122">
        <ele>1437.5999755859</ele>
        <time>2013-05-12T08:16:49Z</time>
      </trkpt>
      <trkpt lat="44.43609" lon="5.83129">
        <ele>1440.8000488281</ele>
        <time>2013-05-12T08:17:12Z</time>
      </trkpt>
      <trkpt lat="44.43608" lon="5.83131">
        <ele>1441.4000244141</ele>
        <time>2013-05-12T08:17:15Z</time>
      </trkpt>
      <trkpt lat="44.436" lon="5.83132">
        <ele>1444.8000488281</ele>
        <time>2013-05-12T08:17:35Z</time>
      </trkpt>
      <trkpt lat="44.43593" lon="5.83141">
        <ele>1448</ele>
        <time>2013-05-12T08:17:57Z</time>
      </trkpt>
      <trkpt lat="44.43591" lon="5.83153">
        <ele>1451.5999755859</ele>
        <time>2013-05-12T08:18:16Z</time>
      </trkpt>
      <trkpt lat="44.4359" lon="5.83159">
        <ele>1452.4000244141</ele>
        <time>2013-05-12T08:18:27Z</time>
      </trkpt>
      <trkpt lat="44.43589" lon="5.83161">
        <ele>1453.1999511719</ele>
        <time>2013-05-12T08:18:31Z</time>
      </trkpt>
      <trkpt lat="44.43587" lon="5.83173">
        <ele>1458</ele>
        <time>2013-05-12T08:19:00Z</time>
      </trkpt>
      <trkpt lat="44.43586" lon="5.83182">
        <ele>1460.1999511719</ele>
        <time>2013-05-12T08:19:15Z</time>
      </trkpt>
      <trkpt lat="44.4358" lon="5.8319">
        <ele>1462.8000488281</ele>
        <time>2013-05-12T08:19:31Z</time>
      </trkpt>
      <trkpt lat="44.43576" lon="5.83201">
        <ele>1465.5999755859</ele>
        <time>2013-05-12T08:20:11Z</time>
      </trkpt>
      <trkpt lat="44.43575" lon="5.83211">
        <ele>1467.8000488281</ele>
        <time>2013-05-12T08:20:24Z</time>
      </trkpt>
      <trkpt lat="44.43573" lon="5.83221">
        <ele>1469.1999511719</ele>
        <time>2013-05-12T08:20:35Z</time>
      </trkpt>
      <trkpt lat="44.4357" lon="5.83231">
        <ele>1471.4000244141</ele>
        <time>2013-05-12T08:20:48Z</time>
      </trkpt>
      <trkpt lat="44.4357" lon="5.83233">
        <ele>1471.8000488281</ele>
        <time>2013-05-12T08:20:51Z</time>
      </trkpt>
      <trkpt lat="44.43565" lon="5.83242">
        <ele>1474</ele>
        <time>2013-05-12T08:21:03Z</time>
      </trkpt>
      <trkpt lat="44.4356" lon="5.83251">
        <ele>1476.1999511719</ele>
        <time>2013-05-12T08:21:15Z</time>
      </trkpt>
      <trkpt lat="44.43552" lon="5.8326">
        <ele>1478.5999755859</ele>
        <time>2013-05-12T08:21:30Z</time>
      </trkpt>
      <trkpt lat="44.4355" lon="5.83265">
        <ele>1479.5999755859</ele>
        <time>2013-05-12T08:21:36Z</time>
      </trkpt>
      <trkpt lat="44.43549" lon="5.8327">
        <ele>1480.8000488281</ele>
        <time>2013-05-12T08:21:42Z</time>
      </trkpt>
      <trkpt lat="44.43547" lon="5.83281">
        <ele>1481.5999755859</ele>
        <time>2013-05-12T08:21:58Z</time>
      </trkpt>
      <trkpt lat="44.43538" lon="5.83296">
        <ele>1481.5999755859</ele>
        <time>2013-05-12T08:22:17Z</time>
      </trkpt>
      <trkpt lat="44.43541" lon="5.83302">
        <ele>1482.5999755859</ele>
        <time>2013-05-12T08:22:21Z</time>
      </trkpt>
      <trkpt lat="44.43563" lon="5.83298">
        <ele>1483.8000488281</ele>
        <time>2013-05-12T08:22:39Z</time>
      </trkpt>
      <trkpt lat="44.43571" lon="5.83299">
        <ele>1484.1999511719</ele>
        <time>2013-05-12T08:22:45Z</time>
      </trkpt>
      <trkpt lat="44.43575" lon="5.83302">
        <ele>1485.1999511719</ele>
        <time>2013-05-12T08:22:49Z</time>
      </trkpt>
      <trkpt lat="44.43577" lon="5.83311">
        <ele>1486.1999511719</ele>
        <time>2013-05-12T08:22:54Z</time>
      </trkpt>
      <trkpt lat="44.43578" lon="5.8332">
        <ele>1487</ele>
        <time>2013-05-12T08:23:00Z</time>
      </trkpt>
      <trkpt lat="44.43577" lon="5.83331">
        <ele>1487.8000488281</ele>
        <time>2013-05-12T08:23:06Z</time>
      </trkpt>
      <trkpt lat="44.43576" lon="5.83343">
        <ele>1489.1999511719</ele>
        <time>2013-05-12T08:23:12Z</time>
      </trkpt>
      <trkpt lat="44.43575" lon="5.83351">
        <ele>1490</ele>
        <time>2013-05-12T08:23:16Z</time>
      </trkpt>
      <trkpt lat="44.43576" lon="5.83363">
        <ele>1490.4000244141</ele>
        <time>2013-05-12T08:23:22Z</time>
      </trkpt>
      <trkpt lat="44.43578" lon="5.83375">
        <ele>1492.1999511719</ele>
        <time>2013-05-12T08:23:28Z</time>
      </trkpt>
      <trkpt lat="44.43577" lon="5.83383">
        <ele>1492.5999755859</ele>
        <time>2013-05-12T08:23:31Z</time>
      </trkpt>
      <trkpt lat="44.43579" lon="5.83396">
        <ele>1493</ele>
        <time>2013-05-12T08:23:37Z</time>
      </trkpt>
      <trkpt lat="44.43579" lon="5.83401">
        <ele>1493</ele>
        <time>2013-05-12T08:23:39Z</time>
      </trkpt>
      <trkpt lat="44.43584" lon="5.8342">
        <ele>1495</ele>
        <time>2013-05-12T08:23:47Z</time>
      </trkpt>
      <trkpt lat="44.43589" lon="5.83444">
        <ele>1495</ele>
        <time>2013-05-12T08:23:57Z</time>
      </trkpt>
      <trkpt lat="44.43595" lon="5.83466">
        <ele>1495</ele>
        <time>2013-05-12T08:24:07Z</time>
      </trkpt>
      <trkpt lat="44.43596" lon="5.83472">
        <ele>1495.4000244141</ele>
        <time>2013-05-12T08:24:10Z</time>
      </trkpt>
      <trkpt lat="44.43597" lon="5.83481">
        <ele>1496.1999511719</ele>
        <time>2013-05-12T08:24:14Z</time>
      </trkpt>
      <trkpt lat="44.43599" lon="5.83491">
        <ele>1496.5999755859</ele>
        <time>2013-05-12T08:24:18Z</time>
      </trkpt>
      <trkpt lat="44.43602" lon="5.83516">
        <ele>1497.1999511719</ele>
        <time>2013-05-12T08:24:29Z</time>
      </trkpt>
      <trkpt lat="44.43602" lon="5.83521">
        <ele>1497.5999755859</ele>
        <time>2013-05-12T08:24:31Z</time>
      </trkpt>
      <trkpt lat="44.43602" lon="5.83534">
        <ele>1498</ele>
        <time>2013-05-12T08:24:37Z</time>
      </trkpt>
      <trkpt lat="44.43602" lon="5.83544">
        <ele>1499.4000244141</ele>
        <time>2013-05-12T08:24:42Z</time>
      </trkpt>
      <trkpt lat="44.43603" lon="5.83554">
        <ele>1500</ele>
        <time>2013-05-12T08:24:47Z</time>
      </trkpt>
      <trkpt lat="44.43604" lon="5.83565">
        <ele>1501.1999511719</ele>
        <time>2013-05-12T08:24:53Z</time>
      </trkpt>
      <trkpt lat="44.43605" lon="5.83574">
        <ele>1501.8000488281</ele>
        <time>2013-05-12T08:24:58Z</time>
      </trkpt>
      <trkpt lat="44.43605" lon="5.8359">
        <ele>1501.8000488281</ele>
        <time>2013-05-12T08:25:06Z</time>
      </trkpt>
      <trkpt lat="44.43606" lon="5.83592">
        <ele>1502.1999511719</ele>
        <time>2013-05-12T08:25:07Z</time>
      </trkpt>
      <trkpt lat="44.43606" lon="5.83603">
        <ele>1503</ele>
        <time>2013-05-12T08:25:13Z</time>
      </trkpt>
      <trkpt lat="44.43608" lon="5.83612">
        <ele>1504.5999755859</ele>
        <time>2013-05-12T08:25:19Z</time>
      </trkpt>
      <trkpt lat="44.43609" lon="5.83623">
        <ele>1506.1999511719</ele>
        <time>2013-05-12T08:25:25Z</time>
      </trkpt>
      <trkpt lat="44.43608" lon="5.83643">
        <ele>1506.1999511719</ele>
        <time>2013-05-12T08:25:35Z</time>
      </trkpt>
      <trkpt lat="44.43609" lon="5.83652">
        <ele>1506.5999755859</ele>
        <time>2013-05-12T08:25:39Z</time>
      </trkpt>
      <trkpt lat="44.4361" lon="5.83661">
        <ele>1507.8000488281</ele>
        <time>2013-05-12T08:25:44Z</time>
      </trkpt>
      <trkpt lat="44.4361" lon="5.83665">
        <ele>1508.4000244141</ele>
        <time>2013-05-12T08:25:46Z</time>
      </trkpt>
      <trkpt lat="44.43612" lon="5.8368">
        <ele>1508.8000488281</ele>
        <time>2013-05-12T08:25:53Z</time>
      </trkpt>
      <trkpt lat="44.43613" lon="5.83681">
        <ele>1509.1999511719</ele>
        <time>2013-05-12T08:25:54Z</time>
      </trkpt>
      <trkpt lat="44.43614" lon="5.83691">
        <ele>1510</ele>
        <time>2013-05-12T08:26:00Z</time>
      </trkpt>
      <trkpt lat="44.43616" lon="5.83705">
        <ele>1511.5999755859</ele>
        <time>2013-05-12T08:26:08Z</time>
      </trkpt>
      <trkpt lat="44.43617" lon="5.83711">
        <ele>1512.4000244141</ele>
        <time>2013-05-12T08:26:12Z</time>
      </trkpt>
      <trkpt lat="44.43623" lon="5.83726">
        <ele>1513</ele>
        <time>2013-05-12T08:26:22Z</time>
      </trkpt>
      <trkpt lat="44.43624" lon="5.83731">
        <ele>1513.4000244141</ele>
        <time>2013-05-12T08:26:25Z</time>
      </trkpt>
      <trkpt lat="44.43627" lon="5.83741">
        <ele>1514.8000488281</ele>
        <time>2013-05-12T08:26:32Z</time>
      </trkpt>
      <trkpt lat="44.43631" lon="5.83751">
        <ele>1515.4000244141</ele>
        <time>2013-05-12T08:26:39Z</time>
      </trkpt>
      <trkpt lat="44.43635" lon="5.83762">
        <ele>1516.5999755859</ele>
        <time>2013-05-12T08:26:44Z</time>
      </trkpt>
      <trkpt lat="44.43644" lon="5.83784">
        <ele>1517</ele>
        <time>2013-05-12T08:26:53Z</time>
      </trkpt>
      <trkpt lat="44.43644" lon="5.83795">
        <ele>1517</ele>
        <time>2013-05-12T08:26:57Z</time>
      </trkpt>
      <trkpt lat="44.4363" lon="5.83813">
        <ele>1517</ele>
        <time>2013-05-12T08:27:03Z</time>
      </trkpt>
      <trkpt lat="44.43619" lon="5.83829">
        <ele>1517</ele>
        <time>2013-05-12T08:27:09Z</time>
      </trkpt>
      <trkpt lat="44.43612" lon="5.83844">
        <ele>1517</ele>
        <time>2013-05-12T08:27:15Z</time>
      </trkpt>
      <trkpt lat="44.4361" lon="5.83853">
        <ele>1517.5999755859</ele>
        <time>2013-05-12T08:27:19Z</time>
      </trkpt>
      <trkpt lat="44.43607" lon="5.83861">
        <ele>1518.4000244141</ele>
        <time>2013-05-12T08:27:23Z</time>
      </trkpt>
      <trkpt lat="44.43604" lon="5.83873">
        <ele>1519.4000244141</ele>
        <time>2013-05-12T08:27:27Z</time>
      </trkpt>
      <trkpt lat="44.43601" lon="5.83882">
        <ele>1520.4000244141</ele>
        <time>2013-05-12T08:27:31Z</time>
      </trkpt>
      <trkpt lat="44.43599" lon="5.83888">
        <ele>1521.5999755859</ele>
        <time>2013-05-12T08:27:34Z</time>
      </trkpt>
      <trkpt lat="44.43597" lon="5.83896">
        <ele>1522</ele>
        <time>2013-05-12T08:27:38Z</time>
      </trkpt>
      <trkpt lat="44.43596" lon="5.839">
        <ele>1522</ele>
        <time>2013-05-12T08:27:40Z</time>
      </trkpt>
      <trkpt lat="44.43594" lon="5.83911">
        <ele>1523.1999511719</ele>
        <time>2013-05-12T08:27:45Z</time>
      </trkpt>
      <trkpt lat="44.43592" lon="5.8392">
        <ele>1524.8000488281</ele>
        <time>2013-05-12T08:27:50Z</time>
      </trkpt>
      <trkpt lat="44.43589" lon="5.83931">
        <ele>1525.8000488281</ele>
        <time>2013-05-12T08:27:55Z</time>
      </trkpt>
      <trkpt lat="44.43584" lon="5.83943">
        <ele>1526.1999511719</ele>
        <time>2013-05-12T08:28:02Z</time>
      </trkpt>
      <trkpt lat="44.4358" lon="5.83954">
        <ele>1527.5999755859</ele>
        <time>2013-05-12T08:28:09Z</time>
      </trkpt>
      <trkpt lat="44.43574" lon="5.83971">
        <ele>1528.4000244141</ele>
        <time>2013-05-12T08:28:19Z</time>
      </trkpt>
      <trkpt lat="44.4357" lon="5.83981">
        <ele>1530</ele>
        <time>2013-05-12T08:28:26Z</time>
      </trkpt>
      <trkpt lat="44.43565" lon="5.83999">
        <ele>1530</ele>
        <time>2013-05-12T08:28:35Z</time>
      </trkpt>
      <trkpt lat="44.43565" lon="5.84001">
        <ele>1530.5999755859</ele>
        <time>2013-05-12T08:28:36Z</time>
      </trkpt>
      <trkpt lat="44.43563" lon="5.84013">
        <ele>1532</ele>
        <time>2013-05-12T08:28:43Z</time>
      </trkpt>
      <trkpt lat="44.4356" lon="5.84029">
        <ele>1533</ele>
        <time>2013-05-12T08:28:53Z</time>
      </trkpt>
      <trkpt lat="44.4356" lon="5.84034">
        <ele>1533.4000244141</ele>
        <time>2013-05-12T08:28:56Z</time>
      </trkpt>
      <trkpt lat="44.43561" lon="5.84042">
        <ele>1534.1999511719</ele>
        <time>2013-05-12T08:29:00Z</time>
      </trkpt>
      <trkpt lat="44.43559" lon="5.8405">
        <ele>1534.8000488281</ele>
        <time>2013-05-12T08:29:04Z</time>
      </trkpt>
      <trkpt lat="44.43558" lon="5.84061">
        <ele>1535.1999511719</ele>
        <time>2013-05-12T08:29:10Z</time>
      </trkpt>
      <trkpt lat="44.43559" lon="5.84072">
        <ele>1536</ele>
        <time>2013-05-12T08:29:16Z</time>
      </trkpt>
      <trkpt lat="44.43557" lon="5.84081">
        <ele>1536.4000244141</ele>
        <time>2013-05-12T08:29:20Z</time>
      </trkpt>
      <trkpt lat="44.43557" lon="5.8409">
        <ele>1537.1999511719</ele>
        <time>2013-05-12T08:29:25Z</time>
      </trkpt>
      <trkpt lat="44.43557" lon="5.84107">
        <ele>1538.4000244141</ele>
        <time>2013-05-12T08:29:33Z</time>
      </trkpt>
      <trkpt lat="44.43556" lon="5.84113">
        <ele>1538.8000488281</ele>
        <time>2013-05-12T08:29:36Z</time>
      </trkpt>
      <trkpt lat="44.43556" lon="5.84125">
        <ele>1540.1999511719</ele>
        <time>2013-05-12T08:29:42Z</time>
      </trkpt>
      <trkpt lat="44.43557" lon="5.84132">
        <ele>1541</ele>
        <time>2013-05-12T08:29:46Z</time>
      </trkpt>
      <trkpt lat="44.43558" lon="5.84146">
        <ele>1541</ele>
        <time>2013-05-12T08:29:53Z</time>
      </trkpt>
      <trkpt lat="44.43561" lon="5.84156">
        <ele>1541.4000244141</ele>
        <time>2013-05-12T08:29:58Z</time>
      </trkpt>
      <trkpt lat="44.43563" lon="5.84165">
        <ele>1541.4000244141</ele>
        <time>2013-05-12T08:30:01Z</time>
      </trkpt>
      <trkpt lat="44.43563" lon="5.84176">
        <ele>1542.8000488281</ele>
        <time>2013-05-12T08:30:06Z</time>
      </trkpt>
      <trkpt lat="44.43563" lon="5.84187">
        <ele>1543.1999511719</ele>
        <time>2013-05-12T08:30:10Z</time>
      </trkpt>
      <trkpt lat="44.43562" lon="5.84192">
        <ele>1543.1999511719</ele>
        <time>2013-05-12T08:30:12Z</time>
      </trkpt>
      <trkpt lat="44.43562" lon="5.84207">
        <ele>1543.5999755859</ele>
        <time>2013-05-12T08:30:17Z</time>
      </trkpt>
      <trkpt lat="44.43561" lon="5.84216">
        <ele>1544.1999511719</ele>
        <time>2013-05-12T08:30:20Z</time>
      </trkpt>
      <trkpt lat="44.43559" lon="5.84228">
        <ele>1545</ele>
        <time>2013-05-12T08:30:24Z</time>
      </trkpt>
      <trkpt lat="44.43558" lon="5.84237">
        <ele>1545.5999755859</ele>
        <time>2013-05-12T08:30:27Z</time>
      </trkpt>
      <trkpt lat="44.43553" lon="5.84258">
        <ele>1545.5999755859</ele>
        <time>2013-05-12T08:30:35Z</time>
      </trkpt>
      <trkpt lat="44.43546" lon="5.8428">
        <ele>1546</ele>
        <time>2013-05-12T08:30:44Z</time>
      </trkpt>
      <trkpt lat="44.4354" lon="5.84297">
        <ele>1547.1999511719</ele>
        <time>2013-05-12T08:30:51Z</time>
      </trkpt>
      <trkpt lat="44.43539" lon="5.84299">
        <ele>1547.1999511719</ele>
        <time>2013-05-12T08:30:52Z</time>
      </trkpt>
      <trkpt lat="44.43537" lon="5.84304">
        <ele>1547.5999755859</ele>
        <time>2013-05-12T08:30:54Z</time>
      </trkpt>
      <trkpt lat="44.43533" lon="5.84317">
        <ele>1547.5999755859</ele>
        <time>2013-05-12T08:30:59Z</time>
      </trkpt>
      <trkpt lat="44.4353" lon="5.84329">
        <ele>1548.4000244141</ele>
        <time>2013-05-12T08:31:05Z</time>
      </trkpt>
      <trkpt lat="44.4353" lon="5.84332">
        <ele>1548.4000244141</ele>
        <time>2013-05-12T08:31:06Z</time>
      </trkpt>
      <trkpt lat="44.43524" lon="5.84347">
        <ele>1549.8000488281</ele>
        <time>2013-05-12T08:31:12Z</time>
      </trkpt>
      <trkpt lat="44.43521" lon="5.84352">
        <ele>1549.8000488281</ele>
        <time>2013-05-12T08:31:15Z</time>
      </trkpt>
      <trkpt lat="44.43518" lon="5.8436">
        <ele>1550.1999511719</ele>
        <time>2013-05-12T08:31:19Z</time>
      </trkpt>
      <trkpt lat="44.43515" lon="5.84363">
        <ele>1550.1999511719</ele>
        <time>2013-05-12T08:31:21Z</time>
      </trkpt>
      <trkpt lat="44.43509" lon="5.84374">
        <ele>1551.8000488281</ele>
        <time>2013-05-12T08:31:26Z</time>
      </trkpt>
      <trkpt lat="44.43504" lon="5.84381">
        <ele>1551.8000488281</ele>
        <time>2013-05-12T08:31:29Z</time>
      </trkpt>
      <trkpt lat="44.43488" lon="5.84388">
        <ele>1551.8000488281</ele>
        <time>2013-05-12T08:31:34Z</time>
      </trkpt>
      <trkpt lat="44.43467" lon="5.84392">
        <ele>1551.8000488281</ele>
        <time>2013-05-12T08:31:41Z</time>
      </trkpt>
      <trkpt lat="44.43444" lon="5.84394">
        <ele>1552.1999511719</ele>
        <time>2013-05-12T08:31:50Z</time>
      </trkpt>
      <trkpt lat="44.43435" lon="5.84397">
        <ele>1553.1999511719</ele>
        <time>2013-05-12T08:31:54Z</time>
      </trkpt>
      <trkpt lat="44.43424" lon="5.844">
        <ele>1554</ele>
        <time>2013-05-12T08:31:59Z</time>
      </trkpt>
      <trkpt lat="44.43421" lon="5.844">
        <ele>1554</ele>
        <time>2013-05-12T08:32:00Z</time>
      </trkpt>
      <trkpt lat="44.43409" lon="5.84401">
        <ele>1554.8000488281</ele>
        <time>2013-05-12T08:32:06Z</time>
      </trkpt>
      <trkpt lat="44.43395" lon="5.84404">
        <ele>1556.1999511719</ele>
        <time>2013-05-12T08:32:13Z</time>
      </trkpt>
      <trkpt lat="44.43385" lon="5.84408">
        <ele>1556.1999511719</ele>
        <time>2013-05-12T08:32:17Z</time>
      </trkpt>
      <trkpt lat="44.43369" lon="5.84416">
        <ele>1556.1999511719</ele>
        <time>2013-05-12T08:32:23Z</time>
      </trkpt>
      <trkpt lat="44.43362" lon="5.84425">
        <ele>1556.5999755859</ele>
        <time>2013-05-12T08:32:27Z</time>
      </trkpt>
      <trkpt lat="44.43361" lon="5.8443">
        <ele>1556.5999755859</ele>
        <time>2013-05-12T08:32:29Z</time>
      </trkpt>
      <trkpt lat="44.4336" lon="5.84438">
        <ele>1557.1999511719</ele>
        <time>2013-05-12T08:32:32Z</time>
      </trkpt>
      <trkpt lat="44.43357" lon="5.84451">
        <ele>1557.5999755859</ele>
        <time>2013-05-12T08:32:35Z</time>
      </trkpt>
      <trkpt lat="44.43354" lon="5.84465">
        <ele>1558.4000244141</ele>
        <time>2013-05-12T08:32:39Z</time>
      </trkpt>
      <trkpt lat="44.43352" lon="5.84478">
        <ele>1558.4000244141</ele>
        <time>2013-05-12T08:32:42Z</time>
      </trkpt>
      <trkpt lat="44.43349" lon="5.84497">
        <ele>1558.8000488281</ele>
        <time>2013-05-12T08:32:46Z</time>
      </trkpt>
      <trkpt lat="44.43348" lon="5.8451">
        <ele>1559.1999511719</ele>
        <time>2013-05-12T08:32:49Z</time>
      </trkpt>
      <trkpt lat="44.43347" lon="5.84515">
        <ele>1559.8000488281</ele>
        <time>2013-05-12T08:32:50Z</time>
      </trkpt>
      <trkpt lat="44.43346" lon="5.84527">
        <ele>1560.1999511719</ele>
        <time>2013-05-12T08:32:53Z</time>
      </trkpt>
      <trkpt lat="44.43345" lon="5.84541">
        <ele>1560.5999755859</ele>
        <time>2013-05-12T08:32:56Z</time>
      </trkpt>
      <trkpt lat="44.43344" lon="5.84563">
        <ele>1561</ele>
        <time>2013-05-12T08:33:01Z</time>
      </trkpt>
      <trkpt lat="44.43343" lon="5.84572">
        <ele>1561.4000244141</ele>
        <time>2013-05-12T08:33:03Z</time>
      </trkpt>
      <trkpt lat="44.43341" lon="5.84581">
        <ele>1562</ele>
        <time>2013-05-12T08:33:06Z</time>
      </trkpt>
      <trkpt lat="44.43343" lon="5.8458">
        <ele>1562.8000488281</ele>
        <time>2013-05-12T08:33:10Z</time>
      </trkpt>
      <trkpt lat="44.43344" lon="5.8458">
        <ele>1562.8000488281</ele>
        <time>2013-05-12T08:44:09Z</time>
      </trkpt>
      <trkpt lat="44.43351" lon="5.84595">
        <ele>1562.8000488281</ele>
        <time>2013-05-12T08:45:29Z</time>
      </trkpt>
      <trkpt lat="44.43365" lon="5.8462">
        <ele>1563.1999511719</ele>
        <time>2013-05-12T08:45:37Z</time>
      </trkpt>
      <trkpt lat="44.43372" lon="5.84627">
        <ele>1564</ele>
        <time>2013-05-12T08:45:41Z</time>
      </trkpt>
      <trkpt lat="44.43377" lon="5.84631">
        <ele>1564.5999755859</ele>
        <time>2013-05-12T08:45:44Z</time>
      </trkpt>
      <trkpt lat="44.43382" lon="5.8464">
        <ele>1566</ele>
        <time>2013-05-12T08:45:48Z</time>
      </trkpt>
      <trkpt lat="44.43383" lon="5.84641">
        <ele>1566</ele>
        <time>2013-05-12T08:45:49Z</time>
      </trkpt>
      <trkpt lat="44.43389" lon="5.84654">
        <ele>1566.5999755859</ele>
        <time>2013-05-12T08:45:54Z</time>
      </trkpt>
      <trkpt lat="44.43391" lon="5.84655">
        <ele>1567.8000488281</ele>
        <time>2013-05-12T08:45:55Z</time>
      </trkpt>
      <trkpt lat="44.43394" lon="5.84662">
        <ele>1568.4000244141</ele>
        <time>2013-05-12T08:45:58Z</time>
      </trkpt>
      <trkpt lat="44.43399" lon="5.84674">
        <ele>1569</ele>
        <time>2013-05-12T08:46:02Z</time>
      </trkpt>
      <trkpt lat="44.43405" lon="5.84687">
        <ele>1569.5999755859</ele>
        <time>2013-05-12T08:46:06Z</time>
      </trkpt>
      <trkpt lat="44.43411" lon="5.84701">
        <ele>1569.5999755859</ele>
        <time>2013-05-12T08:46:12Z</time>
      </trkpt>
      <trkpt lat="44.43418" lon="5.84721">
        <ele>1569.5999755859</ele>
        <time>2013-05-12T08:46:17Z</time>
      </trkpt>
      <trkpt lat="44.43424" lon="5.84744">
        <ele>1569</ele>
        <time>2013-05-12T08:46:21Z</time>
      </trkpt>
      <trkpt lat="44.4343" lon="5.84761">
        <ele>1568.5999755859</ele>
        <time>2013-05-12T08:46:24Z</time>
      </trkpt>
      <trkpt lat="44.43431" lon="5.84767">
        <ele>1567.8000488281</ele>
        <time>2013-05-12T08:46:25Z</time>
      </trkpt>
      <trkpt lat="44.43432" lon="5.84776">
        <ele>1567.8000488281</ele>
        <time>2013-05-12T08:46:27Z</time>
      </trkpt>
      <trkpt lat="44.43436" lon="5.8479">
        <ele>1567</ele>
        <time>2013-05-12T08:46:31Z</time>
      </trkpt>
      <trkpt lat="44.43437" lon="5.84793">
        <ele>1565.4000244141</ele>
        <time>2013-05-12T08:46:32Z</time>
      </trkpt>
      <trkpt lat="44.43436" lon="5.84806">
        <ele>1564.8000488281</ele>
        <time>2013-05-12T08:46:37Z</time>
      </trkpt>
      <trkpt lat="44.43434" lon="5.84813">
        <ele>1564</ele>
        <time>2013-05-12T08:46:40Z</time>
      </trkpt>
      <trkpt lat="44.43432" lon="5.84822">
        <ele>1563.1999511719</ele>
        <time>2013-05-12T08:46:43Z</time>
      </trkpt>
      <trkpt lat="44.43426" lon="5.84837">
        <ele>1562.4000244141</ele>
        <time>2013-05-12T08:46:48Z</time>
      </trkpt>
      <trkpt lat="44.43424" lon="5.84851">
        <ele>1561.5999755859</ele>
        <time>2013-05-12T08:46:55Z</time>
      </trkpt>
      <trkpt lat="44.43418" lon="5.84872">
        <ele>1558.5999755859</ele>
        <time>2013-05-12T08:47:02Z</time>
      </trkpt>
      <trkpt lat="44.43418" lon="5.84883">
        <ele>1558</ele>
        <time>2013-05-12T08:47:05Z</time>
      </trkpt>
      <trkpt lat="44.43414" lon="5.84895">
        <ele>1558</ele>
        <time>2013-05-12T08:47:08Z</time>
      </trkpt>
      <trkpt lat="44.43413" lon="5.84913">
        <ele>1556.5999755859</ele>
        <time>2013-05-12T08:47:13Z</time>
      </trkpt>
      <trkpt lat="44.43404" lon="5.84927">
        <ele>1555.1999511719</ele>
        <time>2013-05-12T08:47:16Z</time>
      </trkpt>
      <trkpt lat="44.43394" lon="5.84942">
        <ele>1553.5999755859</ele>
        <time>2013-05-12T08:47:19Z</time>
      </trkpt>
      <trkpt lat="44.43393" lon="5.84953">
        <ele>1553.5999755859</ele>
        <time>2013-05-12T08:47:22Z</time>
      </trkpt>
      <trkpt lat="44.43392" lon="5.84968">
        <ele>1549.5999755859</ele>
        <time>2013-05-12T08:47:26Z</time>
      </trkpt>
      <trkpt lat="44.4339" lon="5.84976">
        <ele>1549.5999755859</ele>
        <time>2013-05-12T08:47:28Z</time>
      </trkpt>
      <trkpt lat="44.43388" lon="5.84984">
        <ele>1546</ele>
        <time>2013-05-12T08:47:30Z</time>
      </trkpt>
      <trkpt lat="44.43388" lon="5.84992">
        <ele>1544.1999511719</ele>
        <time>2013-05-12T08:47:33Z</time>
      </trkpt>
      <trkpt lat="44.43388" lon="5.85002">
        <ele>1540.8000488281</ele>
        <time>2013-05-12T08:47:37Z</time>
      </trkpt>
      <trkpt lat="44.43387" lon="5.85011">
        <ele>1536</ele>
        <time>2013-05-12T08:47:44Z</time>
      </trkpt>
      <trkpt lat="44.43387" lon="5.85022">
        <ele>1534.4000244141</ele>
        <time>2013-05-12T08:47:47Z</time>
      </trkpt>
      <trkpt lat="44.43382" lon="5.85036">
        <ele>1533.4000244141</ele>
        <time>2013-05-12T08:47:51Z</time>
      </trkpt>
      <trkpt lat="44.4338" lon="5.85048">
        <ele>1532.1999511719</ele>
        <time>2013-05-12T08:47:54Z</time>
      </trkpt>
      <trkpt lat="44.43378" lon="5.85059">
        <ele>1532.1999511719</ele>
        <time>2013-05-12T08:47:57Z</time>
      </trkpt>
      <trkpt lat="44.43378" lon="5.85061">
        <ele>1530</ele>
        <time>2013-05-12T08:47:58Z</time>
      </trkpt>
      <trkpt lat="44.4338" lon="5.85072">
        <ele>1528.5999755859</ele>
        <time>2013-05-12T08:48:02Z</time>
      </trkpt>
      <trkpt lat="44.43374" lon="5.85082">
        <ele>1526</ele>
        <time>2013-05-12T08:48:08Z</time>
      </trkpt>
      <trkpt lat="44.43367" lon="5.85087">
        <ele>1523.1999511719</ele>
        <time>2013-05-12T08:48:12Z</time>
      </trkpt>
      <trkpt lat="44.43363" lon="5.8509">
        <ele>1521.5999755859</ele>
        <time>2013-05-12T08:48:15Z</time>
      </trkpt>
      <trkpt lat="44.43355" lon="5.85091">
        <ele>1518.5999755859</ele>
        <time>2013-05-12T08:48:19Z</time>
      </trkpt>
      <trkpt lat="44.43349" lon="5.85096">
        <ele>1517</ele>
        <time>2013-05-12T08:48:22Z</time>
      </trkpt>
      <trkpt lat="44.43346" lon="5.85107">
        <ele>1515.8000488281</ele>
        <time>2013-05-12T08:48:26Z</time>
      </trkpt>
      <trkpt lat="44.43345" lon="5.85118">
        <ele>1515.8000488281</ele>
        <time>2013-05-12T08:48:28Z</time>
      </trkpt>
      <trkpt lat="44.43345" lon="5.85127">
        <ele>1514.4000244141</ele>
        <time>2013-05-12T08:48:29Z</time>
      </trkpt>
      <trkpt lat="44.43348" lon="5.85139">
        <ele>1514.4000244141</ele>
        <time>2013-05-12T08:48:31Z</time>
      </trkpt>
      <trkpt lat="44.43349" lon="5.85143">
        <ele>1514.4000244141</ele>
        <time>2013-05-12T08:48:32Z</time>
      </trkpt>
      <trkpt lat="44.43348" lon="5.8515">
        <ele>1513</ele>
        <time>2013-05-12T08:48:34Z</time>
      </trkpt>
      <trkpt lat="44.43343" lon="5.85162">
        <ele>1510.1999511719</ele>
        <time>2013-05-12T08:48:40Z</time>
      </trkpt>
      <trkpt lat="44.43335" lon="5.85177">
        <ele>1509.1999511719</ele>
        <time>2013-05-12T08:48:43Z</time>
      </trkpt>
      <trkpt lat="44.43333" lon="5.85183">
        <ele>1509.1999511719</ele>
        <time>2013-05-12T08:48:45Z</time>
      </trkpt>
      <trkpt lat="44.43322" lon="5.85197">
        <ele>1506.1999511719</ele>
        <time>2013-05-12T08:48:50Z</time>
      </trkpt>
      <trkpt lat="44.43316" lon="5.85208">
        <ele>1505.4000244141</ele>
        <time>2013-05-12T08:48:54Z</time>
      </trkpt>
      <trkpt lat="44.43315" lon="5.85217">
        <ele>1503.5999755859</ele>
        <time>2013-05-12T08:48:57Z</time>
      </trkpt>
      <trkpt lat="44.43315" lon="5.85231">
        <ele>1502.8000488281</ele>
        <time>2013-05-12T08:49:01Z</time>
      </trkpt>
      <trkpt lat="44.4332" lon="5.85242">
        <ele>1502</ele>
        <time>2013-05-12T08:49:04Z</time>
      </trkpt>
      <trkpt lat="44.43329" lon="5.85255">
        <ele>1500.1999511719</ele>
        <time>2013-05-12T08:49:08Z</time>
      </trkpt>
      <trkpt lat="44.4333" lon="5.85257">
        <ele>1500.1999511719</ele>
        <time>2013-05-12T08:49:09Z</time>
      </trkpt>
      <trkpt lat="44.43333" lon="5.85271">
        <ele>1499.1999511719</ele>
        <time>2013-05-12T08:49:12Z</time>
      </trkpt>
      <trkpt lat="44.43336" lon="5.85284">
        <ele>1498.1999511719</ele>
        <time>2013-05-12T08:49:15Z</time>
      </trkpt>
      <trkpt lat="44.43339" lon="5.85291">
        <ele>1492.8000488281</ele>
        <time>2013-05-12T08:49:27Z</time>
      </trkpt>
      <trkpt lat="44.43341" lon="5.85296">
        <ele>1490.5999755859</ele>
        <time>2013-05-12T08:49:36Z</time>
      </trkpt>
      <trkpt lat="44.4334" lon="5.85312">
        <ele>1489.8000488281</ele>
        <time>2013-05-12T08:49:45Z</time>
      </trkpt>
      <trkpt lat="44.43341" lon="5.85333">
        <ele>1489.8000488281</ele>
        <time>2013-05-12T08:49:52Z</time>
      </trkpt>
      <trkpt lat="44.43342" lon="5.85341">
        <ele>1489.4000244141</ele>
        <time>2013-05-12T08:49:55Z</time>
      </trkpt>
      <trkpt lat="44.43339" lon="5.85352">
        <ele>1489</ele>
        <time>2013-05-12T08:49:58Z</time>
      </trkpt>
      <trkpt lat="44.43336" lon="5.85368">
        <ele>1488.5999755859</ele>
        <time>2013-05-12T08:50:02Z</time>
      </trkpt>
      <trkpt lat="44.43336" lon="5.85372">
        <ele>1488</ele>
        <time>2013-05-12T08:50:05Z</time>
      </trkpt>
      <trkpt lat="44.43337" lon="5.85381">
        <ele>1487.5999755859</ele>
        <time>2013-05-12T08:50:13Z</time>
      </trkpt>
      <trkpt lat="44.43331" lon="5.85393">
        <ele>1486.1999511719</ele>
        <time>2013-05-12T08:50:29Z</time>
      </trkpt>
      <trkpt lat="44.43329" lon="5.85395">
        <ele>1485.8000488281</ele>
        <time>2013-05-12T08:50:30Z</time>
      </trkpt>
      <trkpt lat="44.43323" lon="5.85404">
        <ele>1485.1999511719</ele>
        <time>2013-05-12T08:50:34Z</time>
      </trkpt>
      <trkpt lat="44.43311" lon="5.85426">
        <ele>1485.1999511719</ele>
        <time>2013-05-12T08:50:40Z</time>
      </trkpt>
      <trkpt lat="44.43308" lon="5.85429">
        <ele>1484.8000488281</ele>
        <time>2013-05-12T08:50:41Z</time>
      </trkpt>
      <trkpt lat="44.43303" lon="5.85441">
        <ele>1484.4000244141</ele>
        <time>2013-05-12T08:50:44Z</time>
      </trkpt>
      <trkpt lat="44.43297" lon="5.85453">
        <ele>1483.8000488281</ele>
        <time>2013-05-12T08:50:48Z</time>
      </trkpt>
      <trkpt lat="44.43285" lon="5.85471">
        <ele>1481.1999511719</ele>
        <time>2013-05-12T08:50:55Z</time>
      </trkpt>
      <trkpt lat="44.43281" lon="5.85484">
        <ele>1479.4000244141</ele>
        <time>2013-05-12T08:50:58Z</time>
      </trkpt>
      <trkpt lat="44.43279" lon="5.85484">
        <ele>1478.5999755859</ele>
        <time>2013-05-12T08:51:02Z</time>
      </trkpt>
      <trkpt lat="44.43275" lon="5.85497">
        <ele>1476.5999755859</ele>
        <time>2013-05-12T08:51:10Z</time>
      </trkpt>
      <trkpt lat="44.4327" lon="5.85513">
        <ele>1476.5999755859</ele>
        <time>2013-05-12T08:51:15Z</time>
      </trkpt>
      <trkpt lat="44.43272" lon="5.85536">
        <ele>1476.5999755859</ele>
        <time>2013-05-12T08:51:21Z</time>
      </trkpt>
      <trkpt lat="44.43274" lon="5.85555">
        <ele>1476.5999755859</ele>
        <time>2013-05-12T08:51:27Z</time>
      </trkpt>
      <trkpt lat="44.43275" lon="5.85561">
        <ele>1475.5999755859</ele>
        <time>2013-05-12T08:51:29Z</time>
      </trkpt>
      <trkpt lat="44.43275" lon="5.85573">
        <ele>1475</ele>
        <time>2013-05-12T08:51:34Z</time>
      </trkpt>
      <trkpt lat="44.43276" lon="5.85583">
        <ele>1473.5999755859</ele>
        <time>2013-05-12T08:51:36Z</time>
      </trkpt>
      <trkpt lat="44.43279" lon="5.85595">
        <ele>1473.5999755859</ele>
        <time>2013-05-12T08:51:39Z</time>
      </trkpt>
      <trkpt lat="44.4328" lon="5.8561">
        <ele>1472.4000244141</ele>
        <time>2013-05-12T08:51:43Z</time>
      </trkpt>
      <trkpt lat="44.43279" lon="5.85614">
        <ele>1472.4000244141</ele>
        <time>2013-05-12T08:51:45Z</time>
      </trkpt>
      <trkpt lat="44.43272" lon="5.85624">
        <ele>1471.1999511719</ele>
        <time>2013-05-12T08:51:50Z</time>
      </trkpt>
      <trkpt lat="44.43272" lon="5.8563">
        <ele>1470.4000244141</ele>
        <time>2013-05-12T08:51:54Z</time>
      </trkpt>
      <trkpt lat="44.43272" lon="5.85652">
        <ele>1464.5999755859</ele>
        <time>2013-05-12T08:52:17Z</time>
      </trkpt>
      <trkpt lat="44.43267" lon="5.85661">
        <ele>1462.8000488281</ele>
        <time>2013-05-12T08:52:22Z</time>
      </trkpt>
      <trkpt lat="44.43258" lon="5.85684">
        <ele>1459.8000488281</ele>
        <time>2013-05-12T08:52:55Z</time>
      </trkpt>
      <trkpt lat="44.4326" lon="5.85693">
        <ele>1459.1999511719</ele>
        <time>2013-05-12T08:52:58Z</time>
      </trkpt>
      <trkpt lat="44.43262" lon="5.85705">
        <ele>1458.5999755859</ele>
        <time>2013-05-12T08:53:01Z</time>
      </trkpt>
      <trkpt lat="44.4326" lon="5.85716">
        <ele>1457.4000244141</ele>
        <time>2013-05-12T08:53:05Z</time>
      </trkpt>
      <trkpt lat="44.43258" lon="5.85724">
        <ele>1456</ele>
        <time>2013-05-12T08:53:08Z</time>
      </trkpt>
      <trkpt lat="44.43254" lon="5.85733">
        <ele>1454.5999755859</ele>
        <time>2013-05-12T08:53:12Z</time>
      </trkpt>
      <trkpt lat="44.43254" lon="5.85741">
        <ele>1454.5999755859</ele>
        <time>2013-05-12T08:53:15Z</time>
      </trkpt>
      <trkpt lat="44.43254" lon="5.85752">
        <ele>1454.5999755859</ele>
        <time>2013-05-12T08:53:21Z</time>
      </trkpt>
      <trkpt lat="44.43252" lon="5.85763">
        <ele>1454.5999755859</ele>
        <time>2013-05-12T08:53:29Z</time>
      </trkpt>
      <trkpt lat="44.43261" lon="5.85776">
        <ele>1438.1999511719</ele>
        <time>2013-05-12T08:57:22Z</time>
      </trkpt>
      <trkpt lat="44.43272" lon="5.85781">
        <ele>1436</ele>
        <time>2013-05-12T08:57:34Z</time>
      </trkpt>
      <trkpt lat="44.43275" lon="5.85793">
        <ele>1429.5999755859</ele>
        <time>2013-05-12T08:57:42Z</time>
      </trkpt>
      <trkpt lat="44.43279" lon="5.85804">
        <ele>1425.8000488281</ele>
        <time>2013-05-12T08:57:49Z</time>
      </trkpt>
      <trkpt lat="44.4328" lon="5.85804">
        <ele>1425.8000488281</ele>
        <time>2013-05-12T08:57:51Z</time>
      </trkpt>
      <trkpt lat="44.43293" lon="5.85802">
        <ele>1422.4000244141</ele>
        <time>2013-05-12T08:57:59Z</time>
      </trkpt>
      <trkpt lat="44.433" lon="5.85799">
        <ele>1419.8000488281</ele>
        <time>2013-05-12T08:58:03Z</time>
      </trkpt>
      <trkpt lat="44.43307" lon="5.8579">
        <ele>1418.4000244141</ele>
        <time>2013-05-12T08:58:06Z</time>
      </trkpt>
      <trkpt lat="44.43314" lon="5.85783">
        <ele>1415.4000244141</ele>
        <time>2013-05-12T08:58:10Z</time>
      </trkpt>
      <trkpt lat="44.4333" lon="5.85778">
        <ele>1412</ele>
        <time>2013-05-12T08:58:47Z</time>
      </trkpt>
      <trkpt lat="44.43341" lon="5.8578">
        <ele>1411.5999755859</ele>
        <time>2013-05-12T08:58:49Z</time>
      </trkpt>
      <trkpt lat="44.43344" lon="5.85782">
        <ele>1411.5999755859</ele>
        <time>2013-05-12T08:58:50Z</time>
      </trkpt>
      <trkpt lat="44.43353" lon="5.85788">
        <ele>1411.1999511719</ele>
        <time>2013-05-12T08:58:53Z</time>
      </trkpt>
      <trkpt lat="44.4336" lon="5.85795">
        <ele>1411.1999511719</ele>
        <time>2013-05-12T08:58:55Z</time>
      </trkpt>
      <trkpt lat="44.43381" lon="5.85809">
        <ele>1409.5999755859</ele>
        <time>2013-05-12T08:59:00Z</time>
      </trkpt>
      <trkpt lat="44.43389" lon="5.85817">
        <ele>1408.5999755859</ele>
        <time>2013-05-12T08:59:03Z</time>
      </trkpt>
      <trkpt lat="44.43396" lon="5.85819">
        <ele>1408.5999755859</ele>
        <time>2013-05-12T08:59:06Z</time>
      </trkpt>
      <trkpt lat="44.43398" lon="5.85821">
        <ele>1408.5999755859</ele>
        <time>2013-05-12T08:59:25Z</time>
      </trkpt>
      <trkpt lat="44.43404" lon="5.85834">
        <ele>1408.5999755859</ele>
        <time>2013-05-12T08:59:29Z</time>
      </trkpt>
      <trkpt lat="44.43407" lon="5.85842">
        <ele>1407.4000244141</ele>
        <time>2013-05-12T08:59:34Z</time>
      </trkpt>
      <trkpt lat="44.43405" lon="5.85855">
        <ele>1406.4000244141</ele>
        <time>2013-05-12T08:59:38Z</time>
      </trkpt>
      <trkpt lat="44.434" lon="5.85875">
        <ele>1405.4000244141</ele>
        <time>2013-05-12T08:59:42Z</time>
      </trkpt>
      <trkpt lat="44.43399" lon="5.85884">
        <ele>1405.4000244141</ele>
        <time>2013-05-12T08:59:44Z</time>
      </trkpt>
      <trkpt lat="44.434" lon="5.85893">
        <ele>1403</ele>
        <time>2013-05-12T08:59:46Z</time>
      </trkpt>
      <trkpt lat="44.43404" lon="5.85907">
        <ele>1403</ele>
        <time>2013-05-12T08:59:49Z</time>
      </trkpt>
      <trkpt lat="44.43405" lon="5.8591">
        <ele>1401.8000488281</ele>
        <time>2013-05-12T08:59:50Z</time>
      </trkpt>
      <trkpt lat="44.43412" lon="5.85923">
        <ele>1401.8000488281</ele>
        <time>2013-05-12T08:59:54Z</time>
      </trkpt>
      <trkpt lat="44.43417" lon="5.85931">
        <ele>1400.4000244141</ele>
        <time>2013-05-12T08:59:58Z</time>
      </trkpt>
      <trkpt lat="44.43422" lon="5.85939">
        <ele>1400.4000244141</ele>
        <time>2013-05-12T09:00:00Z</time>
      </trkpt>
      <trkpt lat="44.43427" lon="5.85947">
        <ele>1399</ele>
        <time>2013-05-12T09:00:02Z</time>
      </trkpt>
      <trkpt lat="44.43434" lon="5.85953">
        <ele>1397.5999755859</ele>
        <time>2013-05-12T09:00:05Z</time>
      </trkpt>
      <trkpt lat="44.43443" lon="5.85964">
        <ele>1396</ele>
        <time>2013-05-12T09:00:09Z</time>
      </trkpt>
      <trkpt lat="44.43445" lon="5.85971">
        <ele>1396</ele>
        <time>2013-05-12T09:00:11Z</time>
      </trkpt>
      <trkpt lat="44.43454" lon="5.85987">
        <ele>1394.5999755859</ele>
        <time>2013-05-12T09:00:15Z</time>
      </trkpt>
      <trkpt lat="44.43457" lon="5.85992">
        <ele>1393.1999511719</ele>
        <time>2013-05-12T09:00:16Z</time>
      </trkpt>
      <trkpt lat="44.43465" lon="5.86001">
        <ele>1393.1999511719</ele>
        <time>2013-05-12T09:00:18Z</time>
      </trkpt>
      <trkpt lat="44.43473" lon="5.86009">
        <ele>1391.5999755859</ele>
        <time>2013-05-12T09:00:20Z</time>
      </trkpt>
      <trkpt lat="44.43483" lon="5.86018">
        <ele>1391.5999755859</ele>
        <time>2013-05-12T09:00:22Z</time>
      </trkpt>
      <trkpt lat="44.43487" lon="5.86024">
        <ele>1391</ele>
        <time>2013-05-12T09:00:23Z</time>
      </trkpt>
      <trkpt lat="44.43493" lon="5.86029">
        <ele>1391</ele>
        <time>2013-05-12T09:00:24Z</time>
      </trkpt>
      <trkpt lat="44.43502" lon="5.86042">
        <ele>1390.4000244141</ele>
        <time>2013-05-12T09:00:26Z</time>
      </trkpt>
      <trkpt lat="44.43517" lon="5.86063">
        <ele>1390.4000244141</ele>
        <time>2013-05-12T09:00:29Z</time>
      </trkpt>
      <trkpt lat="44.43523" lon="5.8607">
        <ele>1389.1999511719</ele>
        <time>2013-05-12T09:00:30Z</time>
      </trkpt>
      <trkpt lat="44.43539" lon="5.86093">
        <ele>1388.5999755859</ele>
        <time>2013-05-12T09:00:33Z</time>
      </trkpt>
      <trkpt lat="44.4356" lon="5.86123">
        <ele>1388</ele>
        <time>2013-05-12T09:00:37Z</time>
      </trkpt>
      <trkpt lat="44.43569" lon="5.86137">
        <ele>1388</ele>
        <time>2013-05-12T09:00:39Z</time>
      </trkpt>
      <trkpt lat="44.43573" lon="5.86143">
        <ele>1387.5999755859</ele>
        <time>2013-05-12T09:00:40Z</time>
      </trkpt>
      <trkpt lat="44.43583" lon="5.86163">
        <ele>1387.5999755859</ele>
        <time>2013-05-12T09:00:43Z</time>
      </trkpt>
      <trkpt lat="44.43597" lon="5.86193">
        <ele>1385.8000488281</ele>
        <time>2013-05-12T09:00:47Z</time>
      </trkpt>
      <trkpt lat="44.43604" lon="5.86211">
        <ele>1385.8000488281</ele>
        <time>2013-05-12T09:00:49Z</time>
      </trkpt>
      <trkpt lat="44.4361" lon="5.86228">
        <ele>1384.1999511719</ele>
        <time>2013-05-12T09:00:51Z</time>
      </trkpt>
      <trkpt lat="44.43619" lon="5.86255">
        <ele>1383.1999511719</ele>
        <time>2013-05-12T09:00:54Z</time>
      </trkpt>
      <trkpt lat="44.43631" lon="5.86289">
        <ele>1380</ele>
        <time>2013-05-12T09:00:58Z</time>
      </trkpt>
      <trkpt lat="44.43634" lon="5.86296">
        <ele>1380</ele>
        <time>2013-05-12T09:00:59Z</time>
      </trkpt>
      <trkpt lat="44.43639" lon="5.86309">
        <ele>1377.8000488281</ele>
        <time>2013-05-12T09:01:01Z</time>
      </trkpt>
      <trkpt lat="44.43644" lon="5.86322">
        <ele>1377.8000488281</ele>
        <time>2013-05-12T09:01:03Z</time>
      </trkpt>
      <trkpt lat="44.43649" lon="5.86331">
        <ele>1373.4000244141</ele>
        <time>2013-05-12T09:01:05Z</time>
      </trkpt>
      <trkpt lat="44.43658" lon="5.86341">
        <ele>1371</ele>
        <time>2013-05-12T09:01:08Z</time>
      </trkpt>
      <trkpt lat="44.43665" lon="5.8635">
        <ele>1371</ele>
        <time>2013-05-12T09:01:10Z</time>
      </trkpt>
      <trkpt lat="44.4367" lon="5.86357">
        <ele>1366.4000244141</ele>
        <time>2013-05-12T09:01:12Z</time>
      </trkpt>
      <trkpt lat="44.43679" lon="5.86367">
        <ele>1363.8000488281</ele>
        <time>2013-05-12T09:01:15Z</time>
      </trkpt>
      <trkpt lat="44.43699" lon="5.86383">
        <ele>1359</ele>
        <time>2013-05-12T09:01:19Z</time>
      </trkpt>
      <trkpt lat="44.43707" lon="5.86388">
        <ele>1359</ele>
        <time>2013-05-12T09:01:21Z</time>
      </trkpt>
      <trkpt lat="44.43711" lon="5.86388">
        <ele>1356.5999755859</ele>
        <time>2013-05-12T09:01:22Z</time>
      </trkpt>
      <trkpt lat="44.43735" lon="5.86405">
        <ele>1352.1999511719</ele>
        <time>2013-05-12T09:01:26Z</time>
      </trkpt>
      <trkpt lat="44.43748" lon="5.86434">
        <ele>1349.8000488281</ele>
        <time>2013-05-12T09:01:29Z</time>
      </trkpt>
      <trkpt lat="44.43753" lon="5.86443">
        <ele>1349.8000488281</ele>
        <time>2013-05-12T09:01:30Z</time>
      </trkpt>
      <trkpt lat="44.43771" lon="5.86465">
        <ele>1344.5999755859</ele>
        <time>2013-05-12T09:01:33Z</time>
      </trkpt>
      <trkpt lat="44.43774" lon="5.8647">
        <ele>1344.5999755859</ele>
        <time>2013-05-12T09:01:34Z</time>
      </trkpt>
      <trkpt lat="44.43783" lon="5.86488">
        <ele>1341.8000488281</ele>
        <time>2013-05-12T09:01:37Z</time>
      </trkpt>
      <trkpt lat="44.43784" lon="5.86497">
        <ele>1341.8000488281</ele>
        <time>2013-05-12T09:01:38Z</time>
      </trkpt>
      <trkpt lat="44.43787" lon="5.86508">
        <ele>1339.1999511719</ele>
        <time>2013-05-12T09:01:40Z</time>
      </trkpt>
      <trkpt lat="44.4379" lon="5.86513">
        <ele>1339.1999511719</ele>
        <time>2013-05-12T09:01:41Z</time>
      </trkpt>
      <trkpt lat="44.43793" lon="5.8653">
        <ele>1339.1999511719</ele>
        <time>2013-05-12T09:01:43Z</time>
      </trkpt>
      <trkpt lat="44.43792" lon="5.86541">
        <ele>1336.5999755859</ele>
        <time>2013-05-12T09:01:44Z</time>
      </trkpt>
      <trkpt lat="44.43792" lon="5.86565">
        <ele>1333.5999755859</ele>
        <time>2013-05-12T09:01:47Z</time>
      </trkpt>
      <trkpt lat="44.43792" lon="5.8657">
        <ele>1333.5999755859</ele>
        <time>2013-05-12T09:01:48Z</time>
      </trkpt>
      <trkpt lat="44.43809" lon="5.86577">
        <ele>1326.8000488281</ele>
        <time>2013-05-12T09:01:54Z</time>
      </trkpt>
      <trkpt lat="44.43815" lon="5.86574">
        <ele>1326.8000488281</ele>
        <time>2013-05-12T09:01:55Z</time>
      </trkpt>
      <trkpt lat="44.43821" lon="5.86574">
        <ele>1326.8000488281</ele>
        <time>2013-05-12T09:01:56Z</time>
      </trkpt>
      <trkpt lat="44.4383" lon="5.86581">
        <ele>1320.4000244141</ele>
        <time>2013-05-12T09:01:58Z</time>
      </trkpt>
      <trkpt lat="44.43834" lon="5.86603">
        <ele>1318</ele>
        <time>2013-05-12T09:02:01Z</time>
      </trkpt>
      <trkpt lat="44.43834" lon="5.86612">
        <ele>1318</ele>
        <time>2013-05-12T09:02:02Z</time>
      </trkpt>
      <trkpt lat="44.43839" lon="5.86643">
        <ele>1315.5999755859</ele>
        <time>2013-05-12T09:02:05Z</time>
      </trkpt>
      <trkpt lat="44.43841" lon="5.86655">
        <ele>1315.5999755859</ele>
        <time>2013-05-12T09:02:06Z</time>
      </trkpt>
      <trkpt lat="44.43843" lon="5.86673">
        <ele>1315.5999755859</ele>
        <time>2013-05-12T09:02:08Z</time>
      </trkpt>
      <trkpt lat="44.43843" lon="5.86683">
        <ele>1313.1999511719</ele>
        <time>2013-05-12T09:02:09Z</time>
      </trkpt>
      <trkpt lat="44.43841" lon="5.86711">
        <ele>1313.1999511719</ele>
        <time>2013-05-12T09:02:12Z</time>
      </trkpt>
      <trkpt lat="44.43838" lon="5.86721">
        <ele>1313.1999511719</ele>
        <time>2013-05-12T09:02:13Z</time>
      </trkpt>
      <trkpt lat="44.43826" lon="5.8676">
        <ele>1313.1999511719</ele>
        <time>2013-05-12T09:02:17Z</time>
      </trkpt>
      <trkpt lat="44.43816" lon="5.86817">
        <ele>1313.1999511719</ele>
        <time>2013-05-12T09:02:23Z</time>
      </trkpt>
      <trkpt lat="44.43817" lon="5.86833">
        <ele>1313.1999511719</ele>
        <time>2013-05-12T09:02:25Z</time>
      </trkpt>
      <trkpt lat="44.43826" lon="5.86858">
        <ele>1313.1999511719</ele>
        <time>2013-05-12T09:02:30Z</time>
      </trkpt>
      <trkpt lat="44.43832" lon="5.86868">
        <ele>1313.1999511719</ele>
        <time>2013-05-12T09:02:32Z</time>
      </trkpt>
      <trkpt lat="44.4384" lon="5.86876">
        <ele>1313.1999511719</ele>
        <time>2013-05-12T09:02:34Z</time>
      </trkpt>
      <trkpt lat="44.43844" lon="5.86878">
        <ele>1313.1999511719</ele>
        <time>2013-05-12T09:02:35Z</time>
      </trkpt>
      <trkpt lat="44.43856" lon="5.86883">
        <ele>1313.1999511719</ele>
        <time>2013-05-12T09:02:38Z</time>
      </trkpt>
      <trkpt lat="44.43867" lon="5.86891">
        <ele>1313.1999511719</ele>
        <time>2013-05-12T09:02:41Z</time>
      </trkpt>
      <trkpt lat="44.43867" lon="5.8689">
        <ele>1313.1999511719</ele>
        <time>2013-05-12T09:02:43Z</time>
      </trkpt>
      <trkpt lat="44.43869" lon="5.86893">
        <ele>1313.1999511719</ele>
        <time>2013-05-12T09:02:53Z</time>
      </trkpt>
      <trkpt lat="44.43872" lon="5.86898">
        <ele>1313.1999511719</ele>
        <time>2013-05-12T09:02:55Z</time>
      </trkpt>
      <trkpt lat="44.43872" lon="5.86906">
        <ele>1313.1999511719</ele>
        <time>2013-05-12T09:02:58Z</time>
      </trkpt>
      <trkpt lat="44.43867" lon="5.8691">
        <ele>1313.1999511719</ele>
        <time>2013-05-12T09:03:03Z</time>
      </trkpt>
      <trkpt lat="44.43866" lon="5.8691">
        <ele>1313.1999511719</ele>
        <time>2013-05-12T09:03:06Z</time>
      </trkpt>
      <trkpt lat="44.43847" lon="5.86935">
        <ele>1294.5999755859</ele>
        <time>2013-05-12T09:03:28Z</time>
      </trkpt>
      <trkpt lat="44.4384" lon="5.86946">
        <ele>1289.4000244141</ele>
        <time>2013-05-12T09:03:32Z</time>
      </trkpt>
      <trkpt lat="44.43837" lon="5.86954">
        <ele>1289.4000244141</ele>
        <time>2013-05-12T09:03:34Z</time>
      </trkpt>
      <trkpt lat="44.43838" lon="5.86963">
        <ele>1279.1999511719</ele>
        <time>2013-05-12T09:03:36Z</time>
      </trkpt>
      <trkpt lat="44.43842" lon="5.86971">
        <ele>1279.1999511719</ele>
        <time>2013-05-12T09:03:38Z</time>
      </trkpt>
      <trkpt lat="44.43852" lon="5.86993">
        <ele>1279.1999511719</ele>
        <time>2013-05-12T09:03:43Z</time>
      </trkpt>
      <trkpt lat="44.43853" lon="5.87006">
        <ele>1279.1999511719</ele>
        <time>2013-05-12T09:03:47Z</time>
      </trkpt>
      <trkpt lat="44.43855" lon="5.87013">
        <ele>1279.1999511719</ele>
        <time>2013-05-12T09:03:49Z</time>
      </trkpt>
      <trkpt lat="44.43856" lon="5.8702">
        <ele>1279.1999511719</ele>
        <time>2013-05-12T09:03:51Z</time>
      </trkpt>
      <trkpt lat="44.4386" lon="5.87042">
        <ele>1279.1999511719</ele>
        <time>2013-05-12T09:03:59Z</time>
      </trkpt>
      <trkpt lat="44.43858" lon="5.87053">
        <ele>1279.1999511719</ele>
        <time>2013-05-12T09:04:03Z</time>
      </trkpt>
      <trkpt lat="44.43854" lon="5.87066">
        <ele>1279.1999511719</ele>
        <time>2013-05-12T09:04:09Z</time>
      </trkpt>
      <trkpt lat="44.43851" lon="5.87074">
        <ele>1279.1999511719</ele>
        <time>2013-05-12T09:04:15Z</time>
      </trkpt>
      <trkpt lat="44.43843" lon="5.87091">
        <ele>1280</ele>
        <time>2013-05-12T09:04:35Z</time>
      </trkpt>
      <trkpt lat="44.4384" lon="5.87097">
        <ele>1281.4000244141</ele>
        <time>2013-05-12T09:04:42Z</time>
      </trkpt>
      <trkpt lat="44.43829" lon="5.87102">
        <ele>1281.4000244141</ele>
        <time>2013-05-12T09:04:59Z</time>
      </trkpt>
      <trkpt lat="44.43814" lon="5.87108">
        <ele>1281.4000244141</ele>
        <time>2013-05-12T09:05:05Z</time>
      </trkpt>
      <trkpt lat="44.43794" lon="5.8712">
        <ele>1281.4000244141</ele>
        <time>2013-05-12T09:05:13Z</time>
      </trkpt>
      <trkpt lat="44.43781" lon="5.87128">
        <ele>1281.4000244141</ele>
        <time>2013-05-12T09:05:18Z</time>
      </trkpt>
      <trkpt lat="44.43763" lon="5.87144">
        <ele>1281.4000244141</ele>
        <time>2013-05-12T09:05:25Z</time>
      </trkpt>
      <trkpt lat="44.43758" lon="5.8715">
        <ele>1281.8000488281</ele>
        <time>2013-05-12T09:05:28Z</time>
      </trkpt>
      <trkpt lat="44.43749" lon="5.87161">
        <ele>1282.4000244141</ele>
        <time>2013-05-12T09:05:33Z</time>
      </trkpt>
      <trkpt lat="44.43742" lon="5.87176">
        <ele>1283.4000244141</ele>
        <time>2013-05-12T09:05:38Z</time>
      </trkpt>
      <trkpt lat="44.43738" lon="5.87185">
        <ele>1284</ele>
        <time>2013-05-12T09:05:42Z</time>
      </trkpt>
      <trkpt lat="44.43735" lon="5.87193">
        <ele>1284.4000244141</ele>
        <time>2013-05-12T09:05:45Z</time>
      </trkpt>
      <trkpt lat="44.43732" lon="5.87207">
        <ele>1285</ele>
        <time>2013-05-12T09:05:50Z</time>
      </trkpt>
      <trkpt lat="44.43732" lon="5.87221">
        <ele>1285.4000244141</ele>
        <time>2013-05-12T09:05:55Z</time>
      </trkpt>
      <trkpt lat="44.43729" lon="5.87231">
        <ele>1286</ele>
        <time>2013-05-12T09:05:59Z</time>
      </trkpt>
      <trkpt lat="44.4372" lon="5.87243">
        <ele>1287.1999511719</ele>
        <time>2013-05-12T09:06:08Z</time>
      </trkpt>
      <trkpt lat="44.43719" lon="5.87243">
        <ele>1287.8000488281</ele>
        <time>2013-05-12T09:06:09Z</time>
      </trkpt>
      <trkpt lat="44.43699" lon="5.87253">
        <ele>1288.4000244141</ele>
        <time>2013-05-12T09:06:29Z</time>
      </trkpt>
      <trkpt lat="44.43679" lon="5.87272">
        <ele>1288.4000244141</ele>
        <time>2013-05-12T09:06:38Z</time>
      </trkpt>
      <trkpt lat="44.43662" lon="5.87285">
        <ele>1288.4000244141</ele>
        <time>2013-05-12T09:06:45Z</time>
      </trkpt>
      <trkpt lat="44.43645" lon="5.87293">
        <ele>1288.4000244141</ele>
        <time>2013-05-12T09:06:51Z</time>
      </trkpt>
      <trkpt lat="44.43626" lon="5.87307">
        <ele>1288.4000244141</ele>
        <time>2013-05-12T09:06:58Z</time>
      </trkpt>
      <trkpt lat="44.43613" lon="5.8732">
        <ele>1288.4000244141</ele>
        <time>2013-05-12T09:07:03Z</time>
      </trkpt>
      <trkpt lat="44.43606" lon="5.87326">
        <ele>1288.4000244141</ele>
        <time>2013-05-12T09:07:07Z</time>
      </trkpt>
      <trkpt lat="44.43604" lon="5.87331">
        <ele>1288.4000244141</ele>
        <time>2013-05-12T09:07:12Z</time>
      </trkpt>
      <trkpt lat="44.43586" lon="5.87332">
        <ele>1288.4000244141</ele>
        <time>2013-05-12T09:07:29Z</time>
      </trkpt>
      <trkpt lat="44.43578" lon="5.87336">
        <ele>1289.1999511719</ele>
        <time>2013-05-12T09:07:33Z</time>
      </trkpt>
      <trkpt lat="44.43569" lon="5.8734">
        <ele>1289.1999511719</ele>
        <time>2013-05-12T09:07:36Z</time>
      </trkpt>
      <trkpt lat="44.43554" lon="5.87354">
        <ele>1289.5999755859</ele>
        <time>2013-05-12T09:07:42Z</time>
      </trkpt>
      <trkpt lat="44.43538" lon="5.87361">
        <ele>1290.4000244141</ele>
        <time>2013-05-12T09:07:48Z</time>
      </trkpt>
      <trkpt lat="44.43521" lon="5.87373">
        <ele>1290.4000244141</ele>
        <time>2013-05-12T09:07:53Z</time>
      </trkpt>
      <trkpt lat="44.43503" lon="5.87387">
        <ele>1290.4000244141</ele>
        <time>2013-05-12T09:07:58Z</time>
      </trkpt>
      <trkpt lat="44.43485" lon="5.874">
        <ele>1290.4000244141</ele>
        <time>2013-05-12T09:08:04Z</time>
      </trkpt>
      <trkpt lat="44.43465" lon="5.87419">
        <ele>1290.4000244141</ele>
        <time>2013-05-12T09:08:10Z</time>
      </trkpt>
      <trkpt lat="44.43447" lon="5.87427">
        <ele>1290.4000244141</ele>
        <time>2013-05-12T09:08:16Z</time>
      </trkpt>
      <trkpt lat="44.43438" lon="5.87435">
        <ele>1290.4000244141</ele>
        <time>2013-05-12T09:08:20Z</time>
      </trkpt>
      <trkpt lat="44.43421" lon="5.87448">
        <ele>1290.4000244141</ele>
        <time>2013-05-12T09:08:26Z</time>
      </trkpt>
      <trkpt lat="44.4341" lon="5.87457">
        <ele>1290.4000244141</ele>
        <time>2013-05-12T09:08:31Z</time>
      </trkpt>
      <trkpt lat="44.43398" lon="5.87467">
        <ele>1290.4000244141</ele>
        <time>2013-05-12T09:08:35Z</time>
      </trkpt>
      <trkpt lat="44.43388" lon="5.87479">
        <ele>1290.4000244141</ele>
        <time>2013-05-12T09:08:41Z</time>
      </trkpt>
      <trkpt lat="44.43387" lon="5.87481">
        <ele>1290.4000244141</ele>
        <time>2013-05-12T09:08:42Z</time>
      </trkpt>
      <trkpt lat="44.43382" lon="5.87494">
        <ele>1290.4000244141</ele>
        <time>2013-05-12T09:08:48Z</time>
      </trkpt>
      <trkpt lat="44.43379" lon="5.87508">
        <ele>1291.4000244141</ele>
        <time>2013-05-12T09:08:54Z</time>
      </trkpt>
      <trkpt lat="44.43378" lon="5.8751">
        <ele>1292</ele>
        <time>2013-05-12T09:08:55Z</time>
      </trkpt>
      <trkpt lat="44.4338" lon="5.8752">
        <ele>1292.5999755859</ele>
        <time>2013-05-12T09:08:59Z</time>
      </trkpt>
      <trkpt lat="44.43384" lon="5.87532">
        <ele>1293.1999511719</ele>
        <time>2013-05-12T09:09:04Z</time>
      </trkpt>
      <trkpt lat="44.43389" lon="5.87542">
        <ele>1294</ele>
        <time>2013-05-12T09:09:08Z</time>
      </trkpt>
      <trkpt lat="44.43391" lon="5.87549">
        <ele>1294</ele>
        <time>2013-05-12T09:09:11Z</time>
      </trkpt>
      <trkpt lat="44.43391" lon="5.87555">
        <ele>1294.5999755859</ele>
        <time>2013-05-12T09:09:13Z</time>
      </trkpt>
      <trkpt lat="44.43392" lon="5.87566">
        <ele>1294.5999755859</ele>
        <time>2013-05-12T09:09:17Z</time>
      </trkpt>
      <trkpt lat="44.43392" lon="5.87583">
        <ele>1295.5999755859</ele>
        <time>2013-05-12T09:09:22Z</time>
      </trkpt>
      <trkpt lat="44.43393" lon="5.87593">
        <ele>1295.5999755859</ele>
        <time>2013-05-12T09:09:25Z</time>
      </trkpt>
      <trkpt lat="44.43393" lon="5.8761">
        <ele>1296.8000488281</ele>
        <time>2013-05-12T09:09:32Z</time>
      </trkpt>
      <trkpt lat="44.43393" lon="5.87612">
        <ele>1296.8000488281</ele>
        <time>2013-05-12T09:09:33Z</time>
      </trkpt>
      <trkpt lat="44.43392" lon="5.8762">
        <ele>1297.1999511719</ele>
        <time>2013-05-12T09:09:36Z</time>
      </trkpt>
      <trkpt lat="44.43392" lon="5.8763">
        <ele>1297.1999511719</ele>
        <time>2013-05-12T09:09:40Z</time>
      </trkpt>
      <trkpt lat="44.43391" lon="5.87644">
        <ele>1297.1999511719</ele>
        <time>2013-05-12T09:09:46Z</time>
      </trkpt>
      <trkpt lat="44.43396" lon="5.87658">
        <ele>1297.1999511719</ele>
        <time>2013-05-12T09:09:54Z</time>
      </trkpt>
      <trkpt lat="44.43397" lon="5.8767">
        <ele>1297.1999511719</ele>
        <time>2013-05-12T09:10:01Z</time>
      </trkpt>
      <trkpt lat="44.43392" lon="5.87688">
        <ele>1297.1999511719</ele>
        <time>2013-05-12T09:10:09Z</time>
      </trkpt>
      <trkpt lat="44.43388" lon="5.87696">
        <ele>1297.1999511719</ele>
        <time>2013-05-12T09:10:12Z</time>
      </trkpt>
      <trkpt lat="44.43385" lon="5.87703">
        <ele>1297.1999511719</ele>
        <time>2013-05-12T09:10:14Z</time>
      </trkpt>
      <trkpt lat="44.43377" lon="5.87723">
        <ele>1297.5999755859</ele>
        <time>2013-05-12T09:10:19Z</time>
      </trkpt>
      <trkpt lat="44.43369" lon="5.87745">
        <ele>1298.5999755859</ele>
        <time>2013-05-12T09:10:24Z</time>
      </trkpt>
      <trkpt lat="44.43373" lon="5.87765">
        <ele>1299</ele>
        <time>2013-05-12T09:10:30Z</time>
      </trkpt>
      <trkpt lat="44.43373" lon="5.87786">
        <ele>1299.4000244141</ele>
        <time>2013-05-12T09:10:35Z</time>
      </trkpt>
      <trkpt lat="44.4338" lon="5.87798">
        <ele>1299.4000244141</ele>
        <time>2013-05-12T09:10:41Z</time>
      </trkpt>
      <trkpt lat="44.43385" lon="5.87811">
        <ele>1299.4000244141</ele>
        <time>2013-05-12T09:10:47Z</time>
      </trkpt>
      <trkpt lat="44.43392" lon="5.87823">
        <ele>1300.1999511719</ele>
        <time>2013-05-12T09:10:54Z</time>
      </trkpt>
      <trkpt lat="44.43398" lon="5.87831">
        <ele>1301</ele>
        <time>2013-05-12T09:10:59Z</time>
      </trkpt>
      <trkpt lat="44.43402" lon="5.87839">
        <ele>1301.8000488281</ele>
        <time>2013-05-12T09:11:03Z</time>
      </trkpt>
      <trkpt lat="44.43406" lon="5.87841">
        <ele>1301.8000488281</ele>
        <time>2013-05-12T09:11:06Z</time>
      </trkpt>
      <trkpt lat="44.4341" lon="5.87843">
        <ele>1305.5999755859</ele>
        <time>2013-05-12T09:11:17Z</time>
      </trkpt>
      <trkpt lat="44.43418" lon="5.87855">
        <ele>1306.1999511719</ele>
        <time>2013-05-12T09:11:32Z</time>
      </trkpt>
      <trkpt lat="44.43424" lon="5.87864">
        <ele>1306.5999755859</ele>
        <time>2013-05-12T09:11:36Z</time>
      </trkpt>
      <trkpt lat="44.43428" lon="5.87873">
        <ele>1307.4000244141</ele>
        <time>2013-05-12T09:11:40Z</time>
      </trkpt>
      <trkpt lat="44.43433" lon="5.8788">
        <ele>1308.4000244141</ele>
        <time>2013-05-12T09:11:45Z</time>
      </trkpt>
      <trkpt lat="44.43438" lon="5.87882">
        <ele>1308.4000244141</ele>
        <time>2013-05-12T09:11:49Z</time>
      </trkpt>
      <trkpt lat="44.43443" lon="5.87882">
        <ele>1308.4000244141</ele>
        <time>2013-05-12T09:11:53Z</time>
      </trkpt>
      <trkpt lat="44.4345" lon="5.87887">
        <ele>1309.8000488281</ele>
        <time>2013-05-12T09:11:59Z</time>
      </trkpt>
      <trkpt lat="44.43457" lon="5.87895">
        <ele>1310.1999511719</ele>
        <time>2013-05-12T09:12:04Z</time>
      </trkpt>
      <trkpt lat="44.43461" lon="5.87897">
        <ele>1310.5999755859</ele>
        <time>2013-05-12T09:12:08Z</time>
      </trkpt>
      <trkpt lat="44.43467" lon="5.87904">
        <ele>1312</ele>
        <time>2013-05-12T09:12:18Z</time>
      </trkpt>
      <trkpt lat="44.43475" lon="5.87911">
        <ele>1313.5999755859</ele>
        <time>2013-05-12T09:12:27Z</time>
      </trkpt>
      <trkpt lat="44.43481" lon="5.87914">
        <ele>1314</ele>
        <time>2013-05-12T09:12:32Z</time>
      </trkpt>
      <trkpt lat="44.43487" lon="5.87922">
        <ele>1314.8000488281</ele>
        <time>2013-05-12T09:12:43Z</time>
      </trkpt>
      <trkpt lat="44.43494" lon="5.87932">
        <ele>1314.8000488281</ele>
        <time>2013-05-12T09:12:51Z</time>
      </trkpt>
      <trkpt lat="44.43499" lon="5.87943">
        <ele>1314.8000488281</ele>
        <time>2013-05-12T09:12:57Z</time>
      </trkpt>
      <trkpt lat="44.43507" lon="5.87957">
        <ele>1315.4000244141</ele>
        <time>2013-05-12T09:13:05Z</time>
      </trkpt>
      <trkpt lat="44.4351" lon="5.87962">
        <ele>1315.4000244141</ele>
        <time>2013-05-12T09:13:08Z</time>
      </trkpt>
      <trkpt lat="44.43511" lon="5.87966">
        <ele>1315.8000488281</ele>
        <time>2013-05-12T09:13:10Z</time>
      </trkpt>
      <trkpt lat="44.43514" lon="5.87976">
        <ele>1316.1999511719</ele>
        <time>2013-05-12T09:13:15Z</time>
      </trkpt>
      <trkpt lat="44.43515" lon="5.87984">
        <ele>1316.5999755859</ele>
        <time>2013-05-12T09:13:19Z</time>
      </trkpt>
      <trkpt lat="44.43516" lon="5.87994">
        <ele>1317.8000488281</ele>
        <time>2013-05-12T09:13:25Z</time>
      </trkpt>
      <trkpt lat="44.43516" lon="5.88001">
        <ele>1318.8000488281</ele>
        <time>2013-05-12T09:13:31Z</time>
      </trkpt>
      <trkpt lat="44.43516" lon="5.88015">
        <ele>1320</ele>
        <time>2013-05-12T09:13:39Z</time>
      </trkpt>
      <trkpt lat="44.43519" lon="5.8802">
        <ele>1320.5999755859</ele>
        <time>2013-05-12T09:13:43Z</time>
      </trkpt>
      <trkpt lat="44.43523" lon="5.88023">
        <ele>1321.1999511719</ele>
        <time>2013-05-12T09:13:47Z</time>
      </trkpt>
      <trkpt lat="44.4353" lon="5.88029">
        <ele>1322.5999755859</ele>
        <time>2013-05-12T09:13:57Z</time>
      </trkpt>
      <trkpt lat="44.43535" lon="5.88035">
        <ele>1323</ele>
        <time>2013-05-12T09:14:02Z</time>
      </trkpt>
      <trkpt lat="44.43544" lon="5.88044">
        <ele>1323.8000488281</ele>
        <time>2013-05-12T09:14:07Z</time>
      </trkpt>
      <trkpt lat="44.43557" lon="5.88061">
        <ele>1323.8000488281</ele>
        <time>2013-05-12T09:14:18Z</time>
      </trkpt>
      <trkpt lat="44.43571" lon="5.88074">
        <ele>1323.8000488281</ele>
        <time>2013-05-12T09:14:24Z</time>
      </trkpt>
      <trkpt lat="44.43588" lon="5.88088">
        <ele>1323.8000488281</ele>
        <time>2013-05-12T09:14:31Z</time>
      </trkpt>
      <trkpt lat="44.43593" lon="5.88087">
        <ele>1323.8000488281</ele>
        <time>2013-05-12T09:14:33Z</time>
      </trkpt>
      <trkpt lat="44.43606" lon="5.88092">
        <ele>1324.1999511719</ele>
        <time>2013-05-12T09:14:39Z</time>
      </trkpt>
      <trkpt lat="44.43612" lon="5.88096">
        <ele>1324.1999511719</ele>
        <time>2013-05-12T09:14:42Z</time>
      </trkpt>
      <trkpt lat="44.43621" lon="5.88098">
        <ele>1325</ele>
        <time>2013-05-12T09:14:48Z</time>
      </trkpt>
      <trkpt lat="44.43629" lon="5.88101">
        <ele>1325.8000488281</ele>
        <time>2013-05-12T09:14:53Z</time>
      </trkpt>
      <trkpt lat="44.43637" lon="5.88103">
        <ele>1327.1999511719</ele>
        <time>2013-05-12T09:14:58Z</time>
      </trkpt>
      <trkpt lat="44.43644" lon="5.88103">
        <ele>1328</ele>
        <time>2013-05-12T09:15:02Z</time>
      </trkpt>
      <trkpt lat="44.43651" lon="5.88104">
        <ele>1328.5999755859</ele>
        <time>2013-05-12T09:15:07Z</time>
      </trkpt>
      <trkpt lat="44.43661" lon="5.88103">
        <ele>1329.1999511719</ele>
        <time>2013-05-12T09:15:14Z</time>
      </trkpt>
      <trkpt lat="44.43672" lon="5.88111">
        <ele>1330.1999511719</ele>
        <time>2013-05-12T09:15:21Z</time>
      </trkpt>
      <trkpt lat="44.43679" lon="5.8812">
        <ele>1332</ele>
        <time>2013-05-12T09:15:32Z</time>
      </trkpt>
      <trkpt lat="44.43682" lon="5.88135">
        <ele>1332.5999755859</ele>
        <time>2013-05-12T09:15:41Z</time>
      </trkpt>
      <trkpt lat="44.43683" lon="5.88141">
        <ele>1333.8000488281</ele>
        <time>2013-05-12T09:15:46Z</time>
      </trkpt>
      <trkpt lat="44.43691" lon="5.88146">
        <ele>1335.8000488281</ele>
        <time>2013-05-12T09:16:10Z</time>
      </trkpt>
      <trkpt lat="44.43709" lon="5.88151">
        <ele>1335.8000488281</ele>
        <time>2013-05-12T09:16:18Z</time>
      </trkpt>
      <trkpt lat="44.43711" lon="5.8815">
        <ele>1336.1999511719</ele>
        <time>2013-05-12T09:16:19Z</time>
      </trkpt>
      <trkpt lat="44.43712" lon="5.8815">
        <ele>1336.1999511719</ele>
        <time>2013-05-12T09:16:20Z</time>
      </trkpt>
      <trkpt lat="44.43717" lon="5.8815">
        <ele>1336.5999755859</ele>
        <time>2013-05-12T09:16:24Z</time>
      </trkpt>
      <trkpt lat="44.43722" lon="5.88152">
        <ele>1336.5999755859</ele>
        <time>2013-05-12T09:16:27Z</time>
      </trkpt>
      <trkpt lat="44.4373" lon="5.88159">
        <ele>1337.5999755859</ele>
        <time>2013-05-12T09:16:34Z</time>
      </trkpt>
      <trkpt lat="44.43735" lon="5.88161">
        <ele>1338</ele>
        <time>2013-05-12T09:16:38Z</time>
      </trkpt>
      <trkpt lat="44.43745" lon="5.8817">
        <ele>1338</ele>
        <time>2013-05-12T09:16:49Z</time>
      </trkpt>
      <trkpt lat="44.43752" lon="5.88175">
        <ele>1338.4000244141</ele>
        <time>2013-05-12T09:16:57Z</time>
      </trkpt>
      <trkpt lat="44.43755" lon="5.8818">
        <ele>1338.8000488281</ele>
        <time>2013-05-12T09:17:05Z</time>
      </trkpt>
      <trkpt lat="44.4376" lon="5.88194">
        <ele>1341</ele>
        <time>2013-05-12T09:17:20Z</time>
      </trkpt>
      <trkpt lat="44.43763" lon="5.88201">
        <ele>1341.4000244141</ele>
        <time>2013-05-12T09:17:25Z</time>
      </trkpt>
      <trkpt lat="44.43765" lon="5.88217">
        <ele>1342.4000244141</ele>
        <time>2013-05-12T09:17:41Z</time>
      </trkpt>
      <trkpt lat="44.4377" lon="5.8822">
        <ele>1342.4000244141</ele>
        <time>2013-05-12T09:17:47Z</time>
      </trkpt>
      <trkpt lat="44.43774" lon="5.88226">
        <ele>1343.1999511719</ele>
        <time>2013-05-12T09:17:53Z</time>
      </trkpt>
      <trkpt lat="44.43782" lon="5.88235">
        <ele>1344</ele>
        <time>2013-05-12T09:18:02Z</time>
      </trkpt>
      <trkpt lat="44.43787" lon="5.88242">
        <ele>1344</ele>
        <time>2013-05-12T09:18:08Z</time>
      </trkpt>
      <trkpt lat="44.43792" lon="5.88251">
        <ele>1344.5999755859</ele>
        <time>2013-05-12T09:18:16Z</time>
      </trkpt>
      <trkpt lat="44.43799" lon="5.88263">
        <ele>1346.5999755859</ele>
        <time>2013-05-12T09:18:28Z</time>
      </trkpt>
      <trkpt lat="44.43798" lon="5.88271">
        <ele>1348.1999511719</ele>
        <time>2013-05-12T09:18:36Z</time>
      </trkpt>
      <trkpt lat="44.43805" lon="5.88274">
        <ele>1349</ele>
        <time>2013-05-12T09:18:41Z</time>
      </trkpt>
      <trkpt lat="44.43814" lon="5.88278">
        <ele>1349</ele>
        <time>2013-05-12T09:18:51Z</time>
      </trkpt>
      <trkpt lat="44.43817" lon="5.88282">
        <ele>1349.4000244141</ele>
        <time>2013-05-12T09:18:54Z</time>
      </trkpt>
      <trkpt lat="44.43821" lon="5.88293">
        <ele>1350.8000488281</ele>
        <time>2013-05-12T09:19:04Z</time>
      </trkpt>
      <trkpt lat="44.43824" lon="5.88302">
        <ele>1352</ele>
        <time>2013-05-12T09:19:13Z</time>
      </trkpt>
      <trkpt lat="44.43828" lon="5.88314">
        <ele>1354.1999511719</ele>
        <time>2013-05-12T09:19:27Z</time>
      </trkpt>
      <trkpt lat="44.43831" lon="5.88322">
        <ele>1356.5999755859</ele>
        <time>2013-05-12T09:19:41Z</time>
      </trkpt>
      <trkpt lat="44.43834" lon="5.88333">
        <ele>1358.4000244141</ele>
        <time>2013-05-12T09:19:55Z</time>
      </trkpt>
      <trkpt lat="44.43839" lon="5.88341">
        <ele>1360.5999755859</ele>
        <time>2013-05-12T09:20:09Z</time>
      </trkpt>
      <trkpt lat="44.43838" lon="5.8835">
        <ele>1362.4000244141</ele>
        <time>2013-05-12T09:20:19Z</time>
      </trkpt>
      <trkpt lat="44.43837" lon="5.88361">
        <ele>1365.1999511719</ele>
        <time>2013-05-12T09:20:37Z</time>
      </trkpt>
      <trkpt lat="44.43836" lon="5.8837">
        <ele>1367</ele>
        <time>2013-05-12T09:20:48Z</time>
      </trkpt>
      <trkpt lat="44.43838" lon="5.88382">
        <ele>1369.1999511719</ele>
        <time>2013-05-12T09:21:03Z</time>
      </trkpt>
      <trkpt lat="44.43839" lon="5.88391">
        <ele>1370.8000488281</ele>
        <time>2013-05-12T09:21:12Z</time>
      </trkpt>
      <trkpt lat="44.43839" lon="5.884">
        <ele>1372.5999755859</ele>
        <time>2013-05-12T09:21:21Z</time>
      </trkpt>
      <trkpt lat="44.4384" lon="5.88409">
        <ele>1374.4000244141</ele>
        <time>2013-05-12T09:21:35Z</time>
      </trkpt>
      <trkpt lat="44.4384" lon="5.88412">
        <ele>1374.4000244141</ele>
        <time>2013-05-12T09:21:37Z</time>
      </trkpt>
      <trkpt lat="44.43847" lon="5.88425">
        <ele>1375.1999511719</ele>
        <time>2013-05-12T09:21:50Z</time>
      </trkpt>
      <trkpt lat="44.4385" lon="5.88431">
        <ele>1375.8000488281</ele>
        <time>2013-05-12T09:21:58Z</time>
      </trkpt>
      <trkpt lat="44.43851" lon="5.88433">
        <ele>1375.8000488281</ele>
        <time>2013-05-12T09:22:00Z</time>
      </trkpt>
      <trkpt lat="44.43856" lon="5.88444">
        <ele>1377.1999511719</ele>
        <time>2013-05-12T09:22:12Z</time>
      </trkpt>
      <trkpt lat="44.43861" lon="5.88452">
        <ele>1379.8000488281</ele>
        <time>2013-05-12T09:22:30Z</time>
      </trkpt>
      <trkpt lat="44.4386" lon="5.88455">
        <ele>1380.1999511719</ele>
        <time>2013-05-12T09:22:38Z</time>
      </trkpt>
      <trkpt lat="44.43861" lon="5.88457">
        <ele>1380.5999755859</ele>
        <time>2013-05-12T09:22:53Z</time>
      </trkpt>
      <trkpt lat="44.43868" lon="5.8846">
        <ele>1382.4000244141</ele>
        <time>2013-05-12T09:23:35Z</time>
      </trkpt>
      <trkpt lat="44.4387" lon="5.88462">
        <ele>1383</ele>
        <time>2013-05-12T09:23:41Z</time>
      </trkpt>
      <trkpt lat="44.4388" lon="5.88466">
        <ele>1383.4000244141</ele>
        <time>2013-05-12T09:24:01Z</time>
      </trkpt>
      <trkpt lat="44.43888" lon="5.8847">
        <ele>1384.1999511719</ele>
        <time>2013-05-12T09:24:15Z</time>
      </trkpt>
      <trkpt lat="44.4389" lon="5.8847">
        <ele>1385</ele>
        <time>2013-05-12T09:24:18Z</time>
      </trkpt>
      <trkpt lat="44.43892" lon="5.88471">
        <ele>1385</ele>
        <time>2013-05-12T09:24:22Z</time>
      </trkpt>
      <trkpt lat="44.43903" lon="5.88479">
        <ele>1389.1999511719</ele>
        <time>2013-05-12T09:24:45Z</time>
      </trkpt>
      <trkpt lat="44.43908" lon="5.88481">
        <ele>1390</ele>
        <time>2013-05-12T09:24:52Z</time>
      </trkpt>
      <trkpt lat="44.4391" lon="5.88481">
        <ele>1390.8000488281</ele>
        <time>2013-05-12T09:24:55Z</time>
      </trkpt>
      <trkpt lat="44.4391" lon="5.88481">
        <ele>1390.8000488281</ele>
        <time>2013-05-12T09:24:58Z</time>
      </trkpt>
      <trkpt lat="44.43922" lon="5.88488">
        <ele>1390.8000488281</ele>
        <time>2013-05-12T09:25:28Z</time>
      </trkpt>
      <trkpt lat="44.43927" lon="5.8849">
        <ele>1391.5999755859</ele>
        <time>2013-05-12T09:25:35Z</time>
      </trkpt>
      <trkpt lat="44.43932" lon="5.88493">
        <ele>1392.8000488281</ele>
        <time>2013-05-12T09:25:42Z</time>
      </trkpt>
      <trkpt lat="44.4394" lon="5.88494">
        <ele>1394.8000488281</ele>
        <time>2013-05-12T09:25:51Z</time>
      </trkpt>
      <trkpt lat="44.4395" lon="5.88506">
        <ele>1397.1999511719</ele>
        <time>2013-05-12T09:26:04Z</time>
      </trkpt>
      <trkpt lat="44.4395" lon="5.88507">
        <ele>1397.5999755859</ele>
        <time>2013-05-12T09:26:05Z</time>
      </trkpt>
      <trkpt lat="44.43953" lon="5.88514">
        <ele>1398</ele>
        <time>2013-05-12T09:26:10Z</time>
      </trkpt>
      <trkpt lat="44.43961" lon="5.88522">
        <ele>1399.5999755859</ele>
        <time>2013-05-12T09:26:19Z</time>
      </trkpt>
      <trkpt lat="44.43966" lon="5.88532">
        <ele>1400.5999755859</ele>
        <time>2013-05-12T09:26:29Z</time>
      </trkpt>
      <trkpt lat="44.43976" lon="5.88539">
        <ele>1400.5999755859</ele>
        <time>2013-05-12T09:26:42Z</time>
      </trkpt>
      <trkpt lat="44.43981" lon="5.88542">
        <ele>1401.5999755859</ele>
        <time>2013-05-12T09:26:48Z</time>
      </trkpt>
      <trkpt lat="44.43989" lon="5.88553">
        <ele>1401.5999755859</ele>
        <time>2013-05-12T09:27:00Z</time>
      </trkpt>
      <trkpt lat="44.43991" lon="5.88554">
        <ele>1403</ele>
        <time>2013-05-12T09:27:06Z</time>
      </trkpt>
      <trkpt lat="44.44" lon="5.88564">
        <ele>1405.1999511719</ele>
        <time>2013-05-12T09:27:16Z</time>
      </trkpt>
      <trkpt lat="44.44002" lon="5.88566">
        <ele>1405.1999511719</ele>
        <time>2013-05-12T09:27:19Z</time>
      </trkpt>
      <trkpt lat="44.44007" lon="5.88571">
        <ele>1407</ele>
        <time>2013-05-12T09:27:25Z</time>
      </trkpt>
      <trkpt lat="44.44014" lon="5.88582">
        <ele>1407.5999755859</ele>
        <time>2013-05-12T09:27:36Z</time>
      </trkpt>
      <trkpt lat="44.44019" lon="5.8859">
        <ele>1408.5999755859</ele>
        <time>2013-05-12T09:27:44Z</time>
      </trkpt>
      <trkpt lat="44.4402" lon="5.88591">
        <ele>1408.5999755859</ele>
        <time>2013-05-12T09:27:45Z</time>
      </trkpt>
      <trkpt lat="44.44031" lon="5.88599">
        <ele>1410.4000244141</ele>
        <time>2013-05-12T09:27:58Z</time>
      </trkpt>
      <trkpt lat="44.44033" lon="5.88601">
        <ele>1410.4000244141</ele>
        <time>2013-05-12T09:28:00Z</time>
      </trkpt>
      <trkpt lat="44.44038" lon="5.8861">
        <ele>1412.8000488281</ele>
        <time>2013-05-12T09:28:12Z</time>
      </trkpt>
      <trkpt lat="44.44042" lon="5.8861">
        <ele>1413.4000244141</ele>
        <time>2013-05-12T09:28:17Z</time>
      </trkpt>
      <trkpt lat="44.44044" lon="5.88609">
        <ele>1413.8000488281</ele>
        <time>2013-05-12T09:28:21Z</time>
      </trkpt>
      <trkpt lat="44.44048" lon="5.88612">
        <ele>1414.4000244141</ele>
        <time>2013-05-12T09:28:26Z</time>
      </trkpt>
      <trkpt lat="44.4405" lon="5.88613">
        <ele>1415</ele>
        <time>2013-05-12T09:28:31Z</time>
      </trkpt>
      <trkpt lat="44.44057" lon="5.88621">
        <ele>1417</ele>
        <time>2013-05-12T09:28:43Z</time>
      </trkpt>
      <trkpt lat="44.44061" lon="5.88624">
        <ele>1419.8000488281</ele>
        <time>2013-05-12T09:29:08Z</time>
      </trkpt>
      <trkpt lat="44.44062" lon="5.8863">
        <ele>1419.8000488281</ele>
        <time>2013-05-12T09:32:33Z</time>
      </trkpt>
      <trkpt lat="44.44064" lon="5.88644">
        <ele>1419.8000488281</ele>
        <time>2013-05-12T09:32:35Z</time>
      </trkpt>
      <trkpt lat="44.44048" lon="5.88678">
        <ele>1419</ele>
        <time>2013-05-12T09:32:41Z</time>
      </trkpt>
      <trkpt lat="44.44037" lon="5.88688">
        <ele>1419</ele>
        <time>2013-05-12T09:32:45Z</time>
      </trkpt>
      <trkpt lat="44.44036" lon="5.88691">
        <ele>1417.8000488281</ele>
        <time>2013-05-12T09:32:46Z</time>
      </trkpt>
      <trkpt lat="44.44038" lon="5.88703">
        <ele>1416.5999755859</ele>
        <time>2013-05-12T09:32:50Z</time>
      </trkpt>
      <trkpt lat="44.44041" lon="5.88711">
        <ele>1416.5999755859</ele>
        <time>2013-05-12T09:32:53Z</time>
      </trkpt>
      <trkpt lat="44.44043" lon="5.88721">
        <ele>1416.5999755859</ele>
        <time>2013-05-12T09:32:56Z</time>
      </trkpt>
      <trkpt lat="44.44044" lon="5.88732">
        <ele>1415.4000244141</ele>
        <time>2013-05-12T09:32:59Z</time>
      </trkpt>
      <trkpt lat="44.44049" lon="5.88744">
        <ele>1415.4000244141</ele>
        <time>2013-05-12T09:33:08Z</time>
      </trkpt>
      <trkpt lat="44.44054" lon="5.88745">
        <ele>1415.4000244141</ele>
        <time>2013-05-12T09:33:10Z</time>
      </trkpt>
      <trkpt lat="44.44073" lon="5.88756">
        <ele>1415.4000244141</ele>
        <time>2013-05-12T09:33:18Z</time>
      </trkpt>
      <trkpt lat="44.44087" lon="5.8877">
        <ele>1415.4000244141</ele>
        <time>2013-05-12T09:33:25Z</time>
      </trkpt>
      <trkpt lat="44.44086" lon="5.88781">
        <ele>1415.4000244141</ele>
        <time>2013-05-12T09:33:29Z</time>
      </trkpt>
      <trkpt lat="44.44084" lon="5.88792">
        <ele>1415.4000244141</ele>
        <time>2013-05-12T09:33:35Z</time>
      </trkpt>
      <trkpt lat="44.44075" lon="5.88816">
        <ele>1415.4000244141</ele>
        <time>2013-05-12T09:33:43Z</time>
      </trkpt>
      <trkpt lat="44.44063" lon="5.88833">
        <ele>1415.4000244141</ele>
        <time>2013-05-12T09:33:49Z</time>
      </trkpt>
      <trkpt lat="44.44053" lon="5.88847">
        <ele>1412.1999511719</ele>
        <time>2013-05-12T09:33:55Z</time>
      </trkpt>
      <trkpt lat="44.44046" lon="5.88864">
        <ele>1401</ele>
        <time>2013-05-12T09:34:01Z</time>
      </trkpt>
      <trkpt lat="44.44044" lon="5.8888">
        <ele>1395.4000244141</ele>
        <time>2013-05-12T09:34:06Z</time>
      </trkpt>
      <trkpt lat="44.44044" lon="5.88886">
        <ele>1395.4000244141</ele>
        <time>2013-05-12T09:34:07Z</time>
      </trkpt>
      <trkpt lat="44.44045" lon="5.88903">
        <ele>1395.4000244141</ele>
        <time>2013-05-12T09:34:10Z</time>
      </trkpt>
      <trkpt lat="44.44048" lon="5.8891">
        <ele>1390.4000244141</ele>
        <time>2013-05-12T09:34:11Z</time>
      </trkpt>
      <trkpt lat="44.44052" lon="5.88935">
        <ele>1385.4000244141</ele>
        <time>2013-05-12T09:34:15Z</time>
      </trkpt>
      <trkpt lat="44.44053" lon="5.88945">
        <ele>1385.4000244141</ele>
        <time>2013-05-12T09:34:17Z</time>
      </trkpt>
      <trkpt lat="44.44055" lon="5.88958">
        <ele>1376.1999511719</ele>
        <time>2013-05-12T09:34:20Z</time>
      </trkpt>
      <trkpt lat="44.44057" lon="5.8897">
        <ele>1376.1999511719</ele>
        <time>2013-05-12T09:34:23Z</time>
      </trkpt>
      <trkpt lat="44.44057" lon="5.88975">
        <ele>1372.4000244141</ele>
        <time>2013-05-12T09:34:25Z</time>
      </trkpt>
      <trkpt lat="44.44059" lon="5.88988">
        <ele>1372.4000244141</ele>
        <time>2013-05-12T09:34:29Z</time>
      </trkpt>
      <trkpt lat="44.4406" lon="5.88993">
        <ele>1368.5999755859</ele>
        <time>2013-05-12T09:34:30Z</time>
      </trkpt>
      <trkpt lat="44.44069" lon="5.89021">
        <ele>1364.8000488281</ele>
        <time>2013-05-12T09:34:35Z</time>
      </trkpt>
      <trkpt lat="44.44087" lon="5.89052">
        <ele>1357.4000244141</ele>
        <time>2013-05-12T09:34:40Z</time>
      </trkpt>
      <trkpt lat="44.4409" lon="5.89065">
        <ele>1357.4000244141</ele>
        <time>2013-05-12T09:34:43Z</time>
      </trkpt>
      <trkpt lat="44.4409" lon="5.89076">
        <ele>1353.8000488281</ele>
        <time>2013-05-12T09:34:46Z</time>
      </trkpt>
      <trkpt lat="44.4409" lon="5.89082">
        <ele>1353.8000488281</ele>
        <time>2013-05-12T09:34:49Z</time>
      </trkpt>
      <trkpt lat="44.44093" lon="5.89094">
        <ele>1353.8000488281</ele>
        <time>2013-05-12T09:34:55Z</time>
      </trkpt>
      <trkpt lat="44.44097" lon="5.89122">
        <ele>1353.8000488281</ele>
        <time>2013-05-12T09:35:01Z</time>
      </trkpt>
      <trkpt lat="44.44096" lon="5.89156">
        <ele>1346.4000244141</ele>
        <time>2013-05-12T09:35:06Z</time>
      </trkpt>
      <trkpt lat="44.44094" lon="5.89164">
        <ele>1346.4000244141</ele>
        <time>2013-05-12T09:35:07Z</time>
      </trkpt>
      <trkpt lat="44.44085" lon="5.89206">
        <ele>1346.4000244141</ele>
        <time>2013-05-12T09:35:11Z</time>
      </trkpt>
      <trkpt lat="44.44073" lon="5.89235">
        <ele>1346.4000244141</ele>
        <time>2013-05-12T09:35:14Z</time>
      </trkpt>
      <trkpt lat="44.44067" lon="5.89242">
        <ele>1346.4000244141</ele>
        <time>2013-05-12T09:35:15Z</time>
      </trkpt>
      <trkpt lat="44.44046" lon="5.89257">
        <ele>1338.1999511719</ele>
        <time>2013-05-12T09:35:18Z</time>
      </trkpt>
      <trkpt lat="44.44033" lon="5.89269">
        <ele>1338.1999511719</ele>
        <time>2013-05-12T09:35:20Z</time>
      </trkpt>
      <trkpt lat="44.44028" lon="5.89279">
        <ele>1334.4000244141</ele>
        <time>2013-05-12T09:35:21Z</time>
      </trkpt>
      <trkpt lat="44.44025" lon="5.89286">
        <ele>1334.4000244141</ele>
        <time>2013-05-12T09:35:22Z</time>
      </trkpt>
      <trkpt lat="44.4402" lon="5.89317">
        <ele>1334.4000244141</ele>
        <time>2013-05-12T09:35:25Z</time>
      </trkpt>
      <trkpt lat="44.44019" lon="5.89326">
        <ele>1330.8000488281</ele>
        <time>2013-05-12T09:35:26Z</time>
      </trkpt>
      <trkpt lat="44.44013" lon="5.89339">
        <ele>1330.8000488281</ele>
        <time>2013-05-12T09:35:28Z</time>
      </trkpt>
      <trkpt lat="44.44003" lon="5.89345">
        <ele>1327.1999511719</ele>
        <time>2013-05-12T09:35:30Z</time>
      </trkpt>
      <trkpt lat="44.43997" lon="5.89347">
        <ele>1327.1999511719</ele>
        <time>2013-05-12T09:35:31Z</time>
      </trkpt>
      <trkpt lat="44.43983" lon="5.89352">
        <ele>1327.1999511719</ele>
        <time>2013-05-12T09:35:33Z</time>
      </trkpt>
      <trkpt lat="44.43969" lon="5.89357">
        <ele>1320.1999511719</ele>
        <time>2013-05-12T09:35:35Z</time>
      </trkpt>
      <trkpt lat="44.43961" lon="5.89362">
        <ele>1320.1999511719</ele>
        <time>2013-05-12T09:35:36Z</time>
      </trkpt>
      <trkpt lat="44.43947" lon="5.89374">
        <ele>1320.1999511719</ele>
        <time>2013-05-12T09:35:38Z</time>
      </trkpt>
      <trkpt lat="44.43934" lon="5.8939">
        <ele>1316.8000488281</ele>
        <time>2013-05-12T09:35:40Z</time>
      </trkpt>
      <trkpt lat="44.43924" lon="5.89406">
        <ele>1316.8000488281</ele>
        <time>2013-05-12T09:35:42Z</time>
      </trkpt>
      <trkpt lat="44.43917" lon="5.89427">
        <ele>1313.5999755859</ele>
        <time>2013-05-12T09:35:44Z</time>
      </trkpt>
      <trkpt lat="44.43917" lon="5.89435">
        <ele>1313.5999755859</ele>
        <time>2013-05-12T09:35:45Z</time>
      </trkpt>
      <trkpt lat="44.43922" lon="5.89448">
        <ele>1313.5999755859</ele>
        <time>2013-05-12T09:35:47Z</time>
      </trkpt>
      <trkpt lat="44.43931" lon="5.89459">
        <ele>1306.8000488281</ele>
        <time>2013-05-12T09:35:49Z</time>
      </trkpt>
      <trkpt lat="44.43935" lon="5.89466">
        <ele>1306.8000488281</ele>
        <time>2013-05-12T09:35:50Z</time>
      </trkpt>
      <trkpt lat="44.4394" lon="5.89472">
        <ele>1306.8000488281</ele>
        <time>2013-05-12T09:35:51Z</time>
      </trkpt>
      <trkpt lat="44.43953" lon="5.89483">
        <ele>1306.8000488281</ele>
        <time>2013-05-12T09:35:53Z</time>
      </trkpt>
      <trkpt lat="44.43965" lon="5.89501">
        <ele>1300.1999511719</ele>
        <time>2013-05-12T09:35:56Z</time>
      </trkpt>
      <trkpt lat="44.43967" lon="5.89527">
        <ele>1297.1999511719</ele>
        <time>2013-05-12T09:35:59Z</time>
      </trkpt>
      <trkpt lat="44.43967" lon="5.89532">
        <ele>1297.1999511719</ele>
        <time>2013-05-12T09:36:00Z</time>
      </trkpt>
      <trkpt lat="44.43979" lon="5.8953">
        <ele>1297.1999511719</ele>
        <time>2013-05-12T09:36:03Z</time>
      </trkpt>
      <trkpt lat="44.43983" lon="5.89526">
        <ele>1291.4000244141</ele>
        <time>2013-05-12T09:36:04Z</time>
      </trkpt>
      <trkpt lat="44.43993" lon="5.89512">
        <ele>1291.4000244141</ele>
        <time>2013-05-12T09:36:06Z</time>
      </trkpt>
      <trkpt lat="44.44006" lon="5.89498">
        <ele>1288.4000244141</ele>
        <time>2013-05-12T09:36:09Z</time>
      </trkpt>
      <trkpt lat="44.44008" lon="5.89486">
        <ele>1288.4000244141</ele>
        <time>2013-05-12T09:36:11Z</time>
      </trkpt>
      <trkpt lat="44.44003" lon="5.89478">
        <ele>1288.4000244141</ele>
        <time>2013-05-12T09:36:12Z</time>
      </trkpt>
      <trkpt lat="44.43998" lon="5.8947">
        <ele>1285.8000488281</ele>
        <time>2013-05-12T09:36:13Z</time>
      </trkpt>
      <trkpt lat="44.43996" lon="5.89454">
        <ele>1285.8000488281</ele>
        <time>2013-05-12T09:36:15Z</time>
      </trkpt>
      <trkpt lat="44.43997" lon="5.89448">
        <ele>1285.8000488281</ele>
        <time>2013-05-12T09:36:16Z</time>
      </trkpt>
      <trkpt lat="44.44004" lon="5.8944">
        <ele>1283.4000244141</ele>
        <time>2013-05-12T09:36:18Z</time>
      </trkpt>
      <trkpt lat="44.44019" lon="5.89425">
        <ele>1281</ele>
        <time>2013-05-12T09:36:22Z</time>
      </trkpt>
      <trkpt lat="44.44025" lon="5.89429">
        <ele>1281</ele>
        <time>2013-05-12T09:36:23Z</time>
      </trkpt>
      <trkpt lat="44.44039" lon="5.89444">
        <ele>1281</ele>
        <time>2013-05-12T09:36:26Z</time>
      </trkpt>
      <trkpt lat="44.44044" lon="5.8945">
        <ele>1276.1999511719</ele>
        <time>2013-05-12T09:36:27Z</time>
      </trkpt>
      <trkpt lat="44.44054" lon="5.89464">
        <ele>1276.1999511719</ele>
        <time>2013-05-12T09:36:29Z</time>
      </trkpt>
      <trkpt lat="44.44063" lon="5.89477">
        <ele>1276.1999511719</ele>
        <time>2013-05-12T09:36:31Z</time>
      </trkpt>
      <trkpt lat="44.44061" lon="5.89491">
        <ele>1276.1999511719</ele>
        <time>2013-05-12T09:36:33Z</time>
      </trkpt>
      <trkpt lat="44.44058" lon="5.89499">
        <ele>1276.1999511719</ele>
        <time>2013-05-12T09:36:34Z</time>
      </trkpt>
      <trkpt lat="44.44053" lon="5.89515">
        <ele>1273.5999755859</ele>
        <time>2013-05-12T09:36:36Z</time>
      </trkpt>
      <trkpt lat="44.44049" lon="5.89534">
        <ele>1273.5999755859</ele>
        <time>2013-05-12T09:36:38Z</time>
      </trkpt>
      <trkpt lat="44.44048" lon="5.89543">
        <ele>1273.5999755859</ele>
        <time>2013-05-12T09:36:39Z</time>
      </trkpt>
      <trkpt lat="44.44044" lon="5.89561">
        <ele>1268</ele>
        <time>2013-05-12T09:36:41Z</time>
      </trkpt>
      <trkpt lat="44.44038" lon="5.89579">
        <ele>1268</ele>
        <time>2013-05-12T09:36:43Z</time>
      </trkpt>
      <trkpt lat="44.44033" lon="5.89598">
        <ele>1268</ele>
        <time>2013-05-12T09:36:45Z</time>
      </trkpt>
      <trkpt lat="44.4403" lon="5.89606">
        <ele>1265.1999511719</ele>
        <time>2013-05-12T09:36:46Z</time>
      </trkpt>
      <trkpt lat="44.44022" lon="5.89624">
        <ele>1265.1999511719</ele>
        <time>2013-05-12T09:36:48Z</time>
      </trkpt>
      <trkpt lat="44.44021" lon="5.89635">
        <ele>1262.5999755859</ele>
        <time>2013-05-12T09:36:50Z</time>
      </trkpt>
      <trkpt lat="44.4404" lon="5.89635">
        <ele>1262.5999755859</ele>
        <time>2013-05-12T09:36:53Z</time>
      </trkpt>
      <trkpt lat="44.44051" lon="5.89628">
        <ele>1259.8000488281</ele>
        <time>2013-05-12T09:36:55Z</time>
      </trkpt>
      <trkpt lat="44.44057" lon="5.89613">
        <ele>1259.8000488281</ele>
        <time>2013-05-12T09:36:57Z</time>
      </trkpt>
      <trkpt lat="44.4406" lon="5.89594">
        <ele>1257</ele>
        <time>2013-05-12T09:36:59Z</time>
      </trkpt>
      <trkpt lat="44.44062" lon="5.89584">
        <ele>1257</ele>
        <time>2013-05-12T09:37:00Z</time>
      </trkpt>
      <trkpt lat="44.44067" lon="5.89567">
        <ele>1257</ele>
        <time>2013-05-12T09:37:02Z</time>
      </trkpt>
      <trkpt lat="44.44072" lon="5.89563">
        <ele>1257</ele>
        <time>2013-05-12T09:37:03Z</time>
      </trkpt>
      <trkpt lat="44.44077" lon="5.89559">
        <ele>1254.4000244141</ele>
        <time>2013-05-12T09:37:04Z</time>
      </trkpt>
      <trkpt lat="44.44085" lon="5.89559">
        <ele>1251.5999755859</ele>
        <time>2013-05-12T09:37:05Z</time>
      </trkpt>
      <trkpt lat="44.44091" lon="5.89558">
        <ele>1251.5999755859</ele>
        <time>2013-05-12T09:37:06Z</time>
      </trkpt>
      <trkpt lat="44.44102" lon="5.89564">
        <ele>1251.5999755859</ele>
        <time>2013-05-12T09:37:09Z</time>
      </trkpt>
      <trkpt lat="44.44097" lon="5.89575">
        <ele>1246.8000488281</ele>
        <time>2013-05-12T09:37:11Z</time>
      </trkpt>
      <trkpt lat="44.44084" lon="5.89586">
        <ele>1246.8000488281</ele>
        <time>2013-05-12T09:37:14Z</time>
      </trkpt>
      <trkpt lat="44.4408" lon="5.8959">
        <ele>1244.8000488281</ele>
        <time>2013-05-12T09:37:15Z</time>
      </trkpt>
      <trkpt lat="44.44077" lon="5.89607">
        <ele>1244.8000488281</ele>
        <time>2013-05-12T09:37:17Z</time>
      </trkpt>
      <trkpt lat="44.44083" lon="5.89635">
        <ele>1244.8000488281</ele>
        <time>2013-05-12T09:37:20Z</time>
      </trkpt>
      <trkpt lat="44.44088" lon="5.89645">
        <ele>1241</ele>
        <time>2013-05-12T09:37:21Z</time>
      </trkpt>
      <trkpt lat="44.44092" lon="5.89654">
        <ele>1241</ele>
        <time>2013-05-12T09:37:22Z</time>
      </trkpt>
      <trkpt lat="44.44099" lon="5.89674">
        <ele>1241</ele>
        <time>2013-05-12T09:37:24Z</time>
      </trkpt>
      <trkpt lat="44.44106" lon="5.89694">
        <ele>1238.8000488281</ele>
        <time>2013-05-12T09:37:26Z</time>
      </trkpt>
      <trkpt lat="44.44119" lon="5.89736">
        <ele>1238.8000488281</ele>
        <time>2013-05-12T09:37:30Z</time>
      </trkpt>
      <trkpt lat="44.44122" lon="5.89757">
        <ele>1236.4000244141</ele>
        <time>2013-05-12T09:37:33Z</time>
      </trkpt>
      <trkpt lat="44.44124" lon="5.89773">
        <ele>1236.4000244141</ele>
        <time>2013-05-12T09:37:37Z</time>
      </trkpt>
      <trkpt lat="44.44138" lon="5.89786">
        <ele>1224.1999511719</ele>
        <time>2013-05-12T09:37:43Z</time>
      </trkpt>
      <trkpt lat="44.44157" lon="5.89807">
        <ele>1221.4000244141</ele>
        <time>2013-05-12T09:37:48Z</time>
      </trkpt>
      <trkpt lat="44.44157" lon="5.89815">
        <ele>1221.4000244141</ele>
        <time>2013-05-12T09:37:49Z</time>
      </trkpt>
      <trkpt lat="44.4416" lon="5.89843">
        <ele>1218.1999511719</ele>
        <time>2013-05-12T09:37:52Z</time>
      </trkpt>
      <trkpt lat="44.44163" lon="5.89868">
        <ele>1211.5999755859</ele>
        <time>2013-05-12T09:37:57Z</time>
      </trkpt>
      <trkpt lat="44.44165" lon="5.89873">
        <ele>1211.5999755859</ele>
        <time>2013-05-12T09:37:58Z</time>
      </trkpt>
      <trkpt lat="44.44175" lon="5.89888">
        <ele>1205.4000244141</ele>
        <time>2013-05-12T09:38:02Z</time>
      </trkpt>
      <trkpt lat="44.44178" lon="5.89893">
        <ele>1205.4000244141</ele>
        <time>2013-05-12T09:38:03Z</time>
      </trkpt>
      <trkpt lat="44.44183" lon="5.89906">
        <ele>1203.1999511719</ele>
        <time>2013-05-12T09:38:07Z</time>
      </trkpt>
      <trkpt lat="44.4419" lon="5.89921">
        <ele>1201</ele>
        <time>2013-05-12T09:38:12Z</time>
      </trkpt>
      <trkpt lat="44.44191" lon="5.89931">
        <ele>1201</ele>
        <time>2013-05-12T09:38:15Z</time>
      </trkpt>
      <trkpt lat="44.4419" lon="5.89948">
        <ele>1198.4000244141</ele>
        <time>2013-05-12T09:38:18Z</time>
      </trkpt>
      <trkpt lat="44.44191" lon="5.89957">
        <ele>1198.4000244141</ele>
        <time>2013-05-12T09:38:19Z</time>
      </trkpt>
      <trkpt lat="44.44196" lon="5.89982">
        <ele>1195.5999755859</ele>
        <time>2013-05-12T09:38:22Z</time>
      </trkpt>
      <trkpt lat="44.442" lon="5.90002">
        <ele>1195.5999755859</ele>
        <time>2013-05-12T09:38:24Z</time>
      </trkpt>
      <trkpt lat="44.44204" lon="5.90023">
        <ele>1189.4000244141</ele>
        <time>2013-05-12T09:38:27Z</time>
      </trkpt>
      <trkpt lat="44.44204" lon="5.90032">
        <ele>1189.4000244141</ele>
        <time>2013-05-12T09:38:29Z</time>
      </trkpt>
      <trkpt lat="44.44202" lon="5.90041">
        <ele>1189.4000244141</ele>
        <time>2013-05-12T09:38:31Z</time>
      </trkpt>
      <trkpt lat="44.44202" lon="5.90053">
        <ele>1189.4000244141</ele>
        <time>2013-05-12T09:38:33Z</time>
      </trkpt>
      <trkpt lat="44.44203" lon="5.90079">
        <ele>1186.1999511719</ele>
        <time>2013-05-12T09:38:37Z</time>
      </trkpt>
      <trkpt lat="44.44202" lon="5.90086">
        <ele>1183</ele>
        <time>2013-05-12T09:38:38Z</time>
      </trkpt>
      <trkpt lat="44.44201" lon="5.90109">
        <ele>1183</ele>
        <time>2013-05-12T09:38:42Z</time>
      </trkpt>
      <trkpt lat="44.44201" lon="5.90114">
        <ele>1179.5999755859</ele>
        <time>2013-05-12T09:38:43Z</time>
      </trkpt>
      <trkpt lat="44.44207" lon="5.9013">
        <ele>1176.1999511719</ele>
        <time>2013-05-12T09:38:47Z</time>
      </trkpt>
      <trkpt lat="44.44213" lon="5.90129">
        <ele>1176.1999511719</ele>
        <time>2013-05-12T09:38:51Z</time>
      </trkpt>
      <trkpt lat="44.44225" lon="5.9013">
        <ele>1169.5999755859</ele>
        <time>2013-05-12T09:38:57Z</time>
      </trkpt>
      <trkpt lat="44.44233" lon="5.90125">
        <ele>1166</ele>
        <time>2013-05-12T09:39:01Z</time>
      </trkpt>
      <trkpt lat="44.44238" lon="5.90119">
        <ele>1166</ele>
        <time>2013-05-12T09:39:04Z</time>
      </trkpt>
      <trkpt lat="44.44239" lon="5.90104">
        <ele>1158.8000488281</ele>
        <time>2013-05-12T09:39:07Z</time>
      </trkpt>
      <trkpt lat="44.44246" lon="5.90084">
        <ele>1155.5999755859</ele>
        <time>2013-05-12T09:39:11Z</time>
      </trkpt>
      <trkpt lat="44.44261" lon="5.90073">
        <ele>1152.4000244141</ele>
        <time>2013-05-12T09:39:15Z</time>
      </trkpt>
      <trkpt lat="44.44297" lon="5.90125">
        <ele>1146</ele>
        <time>2013-05-12T09:39:26Z</time>
      </trkpt>
      <trkpt lat="44.44314" lon="5.90143">
        <ele>1142.8000488281</ele>
        <time>2013-05-12T09:39:30Z</time>
      </trkpt>
      <trkpt lat="44.44336" lon="5.90161">
        <ele>1139</ele>
        <time>2013-05-12T09:39:37Z</time>
      </trkpt>
      <trkpt lat="44.44342" lon="5.90168">
        <ele>1139</ele>
        <time>2013-05-12T09:39:39Z</time>
      </trkpt>
      <trkpt lat="44.44344" lon="5.9018">
        <ele>1134.8000488281</ele>
        <time>2013-05-12T09:39:43Z</time>
      </trkpt>
      <trkpt lat="44.44344" lon="5.90199">
        <ele>1130.4000244141</ele>
        <time>2013-05-12T09:39:48Z</time>
      </trkpt>
      <trkpt lat="44.44344" lon="5.90211">
        <ele>1130.4000244141</ele>
        <time>2013-05-12T09:39:50Z</time>
      </trkpt>
      <trkpt lat="44.44348" lon="5.90232">
        <ele>1126</ele>
        <time>2013-05-12T09:39:53Z</time>
      </trkpt>
      <trkpt lat="44.44351" lon="5.9024">
        <ele>1118.4000244141</ele>
        <time>2013-05-12T09:39:54Z</time>
      </trkpt>
      <trkpt lat="44.44361" lon="5.9027">
        <ele>1114.5999755859</ele>
        <time>2013-05-12T09:40:00Z</time>
      </trkpt>
      <trkpt lat="44.44367" lon="5.90281">
        <ele>1110.1999511719</ele>
        <time>2013-05-12T09:40:04Z</time>
      </trkpt>
      <trkpt lat="44.44376" lon="5.90306">
        <ele>1110.1999511719</ele>
        <time>2013-05-12T09:40:09Z</time>
      </trkpt>
      <trkpt lat="44.44395" lon="5.90345">
        <ele>1110.1999511719</ele>
        <time>2013-05-12T09:40:16Z</time>
      </trkpt>
      <trkpt lat="44.44403" lon="5.90357">
        <ele>1103.8000488281</ele>
        <time>2013-05-12T09:40:19Z</time>
      </trkpt>
      <trkpt lat="44.44407" lon="5.90376">
        <ele>1099.8000488281</ele>
        <time>2013-05-12T09:40:22Z</time>
      </trkpt>
      <trkpt lat="44.44411" lon="5.90396">
        <ele>1099.8000488281</ele>
        <time>2013-05-12T09:40:25Z</time>
      </trkpt>
      <trkpt lat="44.44414" lon="5.90415">
        <ele>1096.1999511719</ele>
        <time>2013-05-12T09:40:27Z</time>
      </trkpt>
      <trkpt lat="44.4442" lon="5.90424">
        <ele>1096.1999511719</ele>
        <time>2013-05-12T09:40:29Z</time>
      </trkpt>
      <trkpt lat="44.44431" lon="5.90439">
        <ele>1092.5999755859</ele>
        <time>2013-05-12T09:40:32Z</time>
      </trkpt>
      <trkpt lat="44.44442" lon="5.90445">
        <ele>1092.5999755859</ele>
        <time>2013-05-12T09:40:34Z</time>
      </trkpt>
      <trkpt lat="44.4445" lon="5.90446">
        <ele>1089.1999511719</ele>
        <time>2013-05-12T09:40:36Z</time>
      </trkpt>
      <trkpt lat="44.44464" lon="5.90449">
        <ele>1085.5999755859</ele>
        <time>2013-05-12T09:40:41Z</time>
      </trkpt>
      <trkpt lat="44.44466" lon="5.9045">
        <ele>1085.5999755859</ele>
        <time>2013-05-12T09:40:42Z</time>
      </trkpt>
      <trkpt lat="44.44474" lon="5.90456">
        <ele>1082</ele>
        <time>2013-05-12T09:40:46Z</time>
      </trkpt>
      <trkpt lat="44.44484" lon="5.90463">
        <ele>1078.5999755859</ele>
        <time>2013-05-12T09:40:51Z</time>
      </trkpt>
      <trkpt lat="44.4449" lon="5.9047">
        <ele>1078.5999755859</ele>
        <time>2013-05-12T09:40:55Z</time>
      </trkpt>
      <trkpt lat="44.44492" lon="5.90471">
        <ele>1075.1999511719</ele>
        <time>2013-05-12T09:40:56Z</time>
      </trkpt>
      <trkpt lat="44.44494" lon="5.90469">
        <ele>1075.1999511719</ele>
        <time>2013-05-12T09:40:57Z</time>
      </trkpt>
      <trkpt lat="44.44503" lon="5.90466">
        <ele>1071.8000488281</ele>
        <time>2013-05-12T09:41:01Z</time>
      </trkpt>
      <trkpt lat="44.44514" lon="5.90465">
        <ele>1071.8000488281</ele>
        <time>2013-05-12T09:41:04Z</time>
      </trkpt>
      <trkpt lat="44.44521" lon="5.90466">
        <ele>1068.4000244141</ele>
        <time>2013-05-12T09:41:07Z</time>
      </trkpt>
      <trkpt lat="44.44522" lon="5.90485">
        <ele>1068.4000244141</ele>
        <time>2013-05-12T09:41:14Z</time>
      </trkpt>
      <trkpt lat="44.44526" lon="5.90505">
        <ele>1060.5999755859</ele>
        <time>2013-05-12T09:41:20Z</time>
      </trkpt>
      <trkpt lat="44.4453" lon="5.90518">
        <ele>1056.5999755859</ele>
        <time>2013-05-12T09:41:24Z</time>
      </trkpt>
      <trkpt lat="44.44534" lon="5.90526">
        <ele>1056.5999755859</ele>
        <time>2013-05-12T09:41:27Z</time>
      </trkpt>
      <trkpt lat="44.4454" lon="5.90533">
        <ele>1048.8000488281</ele>
        <time>2013-05-12T09:41:29Z</time>
      </trkpt>
      <trkpt lat="44.44545" lon="5.90538">
        <ele>1048.8000488281</ele>
        <time>2013-05-12T09:41:31Z</time>
      </trkpt>
      <trkpt lat="44.44555" lon="5.90547">
        <ele>1048.8000488281</ele>
        <time>2013-05-12T09:41:36Z</time>
      </trkpt>
      <trkpt lat="44.44559" lon="5.90552">
        <ele>1041</ele>
        <time>2013-05-12T09:41:39Z</time>
      </trkpt>
      <trkpt lat="44.44553" lon="5.90573">
        <ele>1037.1999511719</ele>
        <time>2013-05-12T09:41:45Z</time>
      </trkpt>
      <trkpt lat="44.44542" lon="5.90588">
        <ele>1033.5999755859</ele>
        <time>2013-05-12T09:41:50Z</time>
      </trkpt>
      <trkpt lat="44.44541" lon="5.90592">
        <ele>1033.5999755859</ele>
        <time>2013-05-12T09:41:51Z</time>
      </trkpt>
      <trkpt lat="44.44543" lon="5.90611">
        <ele>1030</ele>
        <time>2013-05-12T09:41:54Z</time>
      </trkpt>
      <trkpt lat="44.44548" lon="5.90641">
        <ele>1026.1999511719</ele>
        <time>2013-05-12T09:42:00Z</time>
      </trkpt>
      <trkpt lat="44.44547" lon="5.90666">
        <ele>1022</ele>
        <time>2013-05-12T09:42:05Z</time>
      </trkpt>
      <trkpt lat="44.44538" lon="5.90684">
        <ele>1013.799987793</ele>
        <time>2013-05-12T09:42:10Z</time>
      </trkpt>
      <trkpt lat="44.44537" lon="5.9069">
        <ele>1013.799987793</ele>
        <time>2013-05-12T09:42:11Z</time>
      </trkpt>
      <trkpt lat="44.44532" lon="5.90727">
        <ele>1013.799987793</ele>
        <time>2013-05-12T09:42:15Z</time>
      </trkpt>
      <trkpt lat="44.4453" lon="5.90738">
        <ele>1006</ele>
        <time>2013-05-12T09:42:16Z</time>
      </trkpt>
      <trkpt lat="44.44532" lon="5.90749">
        <ele>1006</ele>
        <time>2013-05-12T09:42:17Z</time>
      </trkpt>
      <trkpt lat="44.4453" lon="5.90768">
        <ele>1006</ele>
        <time>2013-05-12T09:42:19Z</time>
      </trkpt>
      <trkpt lat="44.44524" lon="5.90784">
        <ele>998.40002441406</ele>
        <time>2013-05-12T09:42:21Z</time>
      </trkpt>
      <trkpt lat="44.44518" lon="5.90794">
        <ele>998.40002441406</ele>
        <time>2013-05-12T09:42:23Z</time>
      </trkpt>
      <trkpt lat="44.44517" lon="5.90816">
        <ele>995</ele>
        <time>2013-05-12T09:42:27Z</time>
      </trkpt>
      <trkpt lat="44.44522" lon="5.90831">
        <ele>995</ele>
        <time>2013-05-12T09:42:29Z</time>
      </trkpt>
      <trkpt lat="44.4453" lon="5.90854">
        <ele>995</ele>
        <time>2013-05-12T09:42:32Z</time>
      </trkpt>
      <trkpt lat="44.44533" lon="5.90864">
        <ele>991.40002441406</ele>
        <time>2013-05-12T09:42:33Z</time>
      </trkpt>
      <trkpt lat="44.44534" lon="5.90878">
        <ele>991.40002441406</ele>
        <time>2013-05-12T09:42:35Z</time>
      </trkpt>
      <trkpt lat="44.44534" lon="5.90885">
        <ele>991.40002441406</ele>
        <time>2013-05-12T09:42:36Z</time>
      </trkpt>
      <trkpt lat="44.44533" lon="5.90898">
        <ele>982.59997558594</ele>
        <time>2013-05-12T09:42:38Z</time>
      </trkpt>
      <trkpt lat="44.44531" lon="5.90907">
        <ele>982.59997558594</ele>
        <time>2013-05-12T09:42:39Z</time>
      </trkpt>
      <trkpt lat="44.4453" lon="5.90917">
        <ele>982.59997558594</ele>
        <time>2013-05-12T09:42:40Z</time>
      </trkpt>
      <trkpt lat="44.44518" lon="5.90952">
        <ele>978</ele>
        <time>2013-05-12T09:42:44Z</time>
      </trkpt>
      <trkpt lat="44.44498" lon="5.90969">
        <ele>978</ele>
        <time>2013-05-12T09:42:48Z</time>
      </trkpt>
      <trkpt lat="44.44495" lon="5.90973">
        <ele>969.59997558594</ele>
        <time>2013-05-12T09:42:49Z</time>
      </trkpt>
      <trkpt lat="44.44487" lon="5.90992">
        <ele>969.59997558594</ele>
        <time>2013-05-12T09:42:52Z</time>
      </trkpt>
      <trkpt lat="44.44486" lon="5.91002">
        <ele>969.59997558594</ele>
        <time>2013-05-12T09:42:53Z</time>
      </trkpt>
      <trkpt lat="44.44474" lon="5.91055">
        <ele>969.59997558594</ele>
        <time>2013-05-12T09:42:59Z</time>
      </trkpt>
      <trkpt lat="44.44472" lon="5.91072">
        <ele>960.79998779297</ele>
        <time>2013-05-12T09:43:01Z</time>
      </trkpt>
      <trkpt lat="44.44472" lon="5.9108">
        <ele>960.79998779297</ele>
        <time>2013-05-12T09:43:02Z</time>
      </trkpt>
      <trkpt lat="44.44477" lon="5.91101">
        <ele>960.79998779297</ele>
        <time>2013-05-12T09:43:05Z</time>
      </trkpt>
      <trkpt lat="44.44473" lon="5.91116">
        <ele>951.40002441406</ele>
        <time>2013-05-12T09:43:07Z</time>
      </trkpt>
      <trkpt lat="44.44464" lon="5.91131">
        <ele>951.40002441406</ele>
        <time>2013-05-12T09:43:09Z</time>
      </trkpt>
      <trkpt lat="44.4446" lon="5.9114">
        <ele>951.40002441406</ele>
        <time>2013-05-12T09:43:10Z</time>
      </trkpt>
      <trkpt lat="44.44447" lon="5.91166">
        <ele>947</ele>
        <time>2013-05-12T09:43:13Z</time>
      </trkpt>
      <trkpt lat="44.44441" lon="5.91174">
        <ele>947</ele>
        <time>2013-05-12T09:43:14Z</time>
      </trkpt>
      <trkpt lat="44.44424" lon="5.91193">
        <ele>947</ele>
        <time>2013-05-12T09:43:17Z</time>
      </trkpt>
      <trkpt lat="44.44418" lon="5.91195">
        <ele>942.59997558594</ele>
        <time>2013-05-12T09:43:18Z</time>
      </trkpt>
      <trkpt lat="44.44396" lon="5.91197">
        <ele>942.59997558594</ele>
        <time>2013-05-12T09:43:21Z</time>
      </trkpt>
      <trkpt lat="44.44383" lon="5.91203">
        <ele>937.79998779297</ele>
        <time>2013-05-12T09:43:23Z</time>
      </trkpt>
      <trkpt lat="44.44376" lon="5.91216">
        <ele>937.79998779297</ele>
        <time>2013-05-12T09:43:25Z</time>
      </trkpt>
      <trkpt lat="44.44371" lon="5.91237">
        <ele>932.79998779297</ele>
        <time>2013-05-12T09:43:28Z</time>
      </trkpt>
      <trkpt lat="44.44358" lon="5.91261">
        <ele>932.79998779297</ele>
        <time>2013-05-12T09:43:31Z</time>
      </trkpt>
      <trkpt lat="44.44344" lon="5.91281">
        <ele>922.40002441406</ele>
        <time>2013-05-12T09:43:33Z</time>
      </trkpt>
      <trkpt lat="44.44331" lon="5.91303">
        <ele>922.40002441406</ele>
        <time>2013-05-12T09:43:35Z</time>
      </trkpt>
      <trkpt lat="44.44314" lon="5.9133">
        <ele>922.40002441406</ele>
        <time>2013-05-12T09:43:38Z</time>
      </trkpt>
      <trkpt lat="44.44305" lon="5.91335">
        <ele>912.79998779297</ele>
        <time>2013-05-12T09:43:39Z</time>
      </trkpt>
      <trkpt lat="44.44288" lon="5.91346">
        <ele>912.79998779297</ele>
        <time>2013-05-12T09:43:41Z</time>
      </trkpt>
      <trkpt lat="44.44275" lon="5.91354">
        <ele>912.79998779297</ele>
        <time>2013-05-12T09:43:43Z</time>
      </trkpt>
      <trkpt lat="44.44271" lon="5.91361">
        <ele>904.20001220703</ele>
        <time>2013-05-12T09:43:44Z</time>
      </trkpt>
      <trkpt lat="44.44268" lon="5.91368">
        <ele>904.20001220703</ele>
        <time>2013-05-12T09:43:45Z</time>
      </trkpt>
      <trkpt lat="44.44259" lon="5.91378">
        <ele>904.20001220703</ele>
        <time>2013-05-12T09:43:48Z</time>
      </trkpt>
      <trkpt lat="44.44248" lon="5.91375">
        <ele>896.40002441406</ele>
        <time>2013-05-12T09:43:50Z</time>
      </trkpt>
      <trkpt lat="44.44226" lon="5.91366">
        <ele>896.40002441406</ele>
        <time>2013-05-12T09:43:53Z</time>
      </trkpt>
      <trkpt lat="44.44193" lon="5.91353">
        <ele>896.40002441406</ele>
        <time>2013-05-12T09:43:57Z</time>
      </trkpt>
      <trkpt lat="44.44183" lon="5.91351">
        <ele>896.40002441406</ele>
        <time>2013-05-12T09:43:58Z</time>
      </trkpt>
      <trkpt lat="44.44157" lon="5.91345">
        <ele>890.59997558594</ele>
        <time>2013-05-12T09:44:01Z</time>
      </trkpt>
      <trkpt lat="44.44148" lon="5.91344">
        <ele>890.59997558594</ele>
        <time>2013-05-12T09:44:02Z</time>
      </trkpt>
      <trkpt lat="44.44109" lon="5.91339">
        <ele>885.40002441406</ele>
        <time>2013-05-12T09:44:06Z</time>
      </trkpt>
      <trkpt lat="44.44088" lon="5.91341">
        <ele>885.40002441406</ele>
        <time>2013-05-12T09:44:08Z</time>
      </trkpt>
      <trkpt lat="44.44078" lon="5.91345">
        <ele>885.40002441406</ele>
        <time>2013-05-12T09:44:09Z</time>
      </trkpt>
      <trkpt lat="44.4407" lon="5.91353">
        <ele>885.40002441406</ele>
        <time>2013-05-12T09:44:10Z</time>
      </trkpt>
      <trkpt lat="44.4406" lon="5.91376">
        <ele>881.59997558594</ele>
        <time>2013-05-12T09:44:12Z</time>
      </trkpt>
      <trkpt lat="44.44054" lon="5.91387">
        <ele>881.59997558594</ele>
        <time>2013-05-12T09:44:13Z</time>
      </trkpt>
      <trkpt lat="44.44015" lon="5.91437">
        <ele>878.40002441406</ele>
        <time>2013-05-12T09:44:18Z</time>
      </trkpt>
      <trkpt lat="44.43975" lon="5.91491">
        <ele>878.40002441406</ele>
        <time>2013-05-12T09:44:23Z</time>
      </trkpt>
      <trkpt lat="44.43969" lon="5.91504">
        <ele>875</ele>
        <time>2013-05-12T09:44:24Z</time>
      </trkpt>
      <trkpt lat="44.43946" lon="5.91558">
        <ele>875</ele>
        <time>2013-05-12T09:44:28Z</time>
      </trkpt>
      <trkpt lat="44.43939" lon="5.91571">
        <ele>873.40002441406</ele>
        <time>2013-05-12T09:44:29Z</time>
      </trkpt>
      <trkpt lat="44.43901" lon="5.91634">
        <ele>873.40002441406</ele>
        <time>2013-05-12T09:44:34Z</time>
      </trkpt>
      <trkpt lat="44.43891" lon="5.91644">
        <ele>869.79998779297</ele>
        <time>2013-05-12T09:44:35Z</time>
      </trkpt>
      <trkpt lat="44.4387" lon="5.91662">
        <ele>869.79998779297</ele>
        <time>2013-05-12T09:44:37Z</time>
      </trkpt>
      <trkpt lat="44.43825" lon="5.91704">
        <ele>867.79998779297</ele>
        <time>2013-05-12T09:44:41Z</time>
      </trkpt>
      <trkpt lat="44.43814" lon="5.91714">
        <ele>867.79998779297</ele>
        <time>2013-05-12T09:44:42Z</time>
      </trkpt>
      <trkpt lat="44.43769" lon="5.91752">
        <ele>865.59997558594</ele>
        <time>2013-05-12T09:44:46Z</time>
      </trkpt>
      <trkpt lat="44.43756" lon="5.91757">
        <ele>865.59997558594</ele>
        <time>2013-05-12T09:44:47Z</time>
      </trkpt>
      <trkpt lat="44.43744" lon="5.91763">
        <ele>865.59997558594</ele>
        <time>2013-05-12T09:44:48Z</time>
      </trkpt>
      <trkpt lat="44.43726" lon="5.91769">
        <ele>865.59997558594</ele>
        <time>2013-05-12T09:44:50Z</time>
      </trkpt>
      <trkpt lat="44.43719" lon="5.91766">
        <ele>863</ele>
        <time>2013-05-12T09:44:51Z</time>
      </trkpt>
      <trkpt lat="44.43713" lon="5.9175">
        <ele>863</ele>
        <time>2013-05-12T09:44:53Z</time>
      </trkpt>
      <trkpt lat="44.43713" lon="5.91726">
        <ele>863</ele>
        <time>2013-05-12T09:44:55Z</time>
      </trkpt>
      <trkpt lat="44.43711" lon="5.91715">
        <ele>857.79998779297</ele>
        <time>2013-05-12T09:44:56Z</time>
      </trkpt>
      <trkpt lat="44.43703" lon="5.91708">
        <ele>857.79998779297</ele>
        <time>2013-05-12T09:44:57Z</time>
      </trkpt>
      <trkpt lat="44.43694" lon="5.91708">
        <ele>857.79998779297</ele>
        <time>2013-05-12T09:44:58Z</time>
      </trkpt>
      <trkpt lat="44.43681" lon="5.91719">
        <ele>857.79998779297</ele>
        <time>2013-05-12T09:45:00Z</time>
      </trkpt>
      <trkpt lat="44.4367" lon="5.91736">
        <ele>852.40002441406</ele>
        <time>2013-05-12T09:45:02Z</time>
      </trkpt>
      <trkpt lat="44.43665" lon="5.91746">
        <ele>852.40002441406</ele>
        <time>2013-05-12T09:45:03Z</time>
      </trkpt>
      <trkpt lat="44.4366" lon="5.91755">
        <ele>852.40002441406</ele>
        <time>2013-05-12T09:45:04Z</time>
      </trkpt>
      <trkpt lat="44.43657" lon="5.91766">
        <ele>852.40002441406</ele>
        <time>2013-05-12T09:45:05Z</time>
      </trkpt>
      <trkpt lat="44.43652" lon="5.91789">
        <ele>852.40002441406</ele>
        <time>2013-05-12T09:45:07Z</time>
      </trkpt>
      <trkpt lat="44.43649" lon="5.91799">
        <ele>851.40002441406</ele>
        <time>2013-05-12T09:45:08Z</time>
      </trkpt>
      <trkpt lat="44.4364" lon="5.91806">
        <ele>851.40002441406</ele>
        <time>2013-05-12T09:45:10Z</time>
      </trkpt>
      <trkpt lat="44.43622" lon="5.91808">
        <ele>850.20001220703</ele>
        <time>2013-05-12T09:45:13Z</time>
      </trkpt>
      <trkpt lat="44.43608" lon="5.91815">
        <ele>850.20001220703</ele>
        <time>2013-05-12T09:45:15Z</time>
      </trkpt>
      <trkpt lat="44.43599" lon="5.9182">
        <ele>849</ele>
        <time>2013-05-12T09:45:20Z</time>
      </trkpt>
      <trkpt lat="44.43595" lon="5.9182">
        <ele>841.79998779297</ele>
        <time>2013-05-12T09:49:56Z</time>
      </trkpt>
      <trkpt lat="44.4357" lon="5.9181">
        <ele>844</ele>
        <time>2013-05-12T10:01:00Z</time>
      </trkpt>
      <trkpt lat="44.43538" lon="5.91788">
        <ele>844</ele>
        <time>2013-05-12T10:01:06Z</time>
      </trkpt>
      <trkpt lat="44.43525" lon="5.91795">
        <ele>843</ele>
        <time>2013-05-12T10:01:08Z</time>
      </trkpt>
      <trkpt lat="44.43523" lon="5.91804">
        <ele>842.59997558594</ele>
        <time>2013-05-12T10:01:09Z</time>
      </trkpt>
      <trkpt lat="44.43523" lon="5.91814">
        <ele>842.20001220703</ele>
        <time>2013-05-12T10:01:10Z</time>
      </trkpt>
      <trkpt lat="44.43525" lon="5.91824">
        <ele>841.79998779297</ele>
        <time>2013-05-12T10:01:11Z</time>
      </trkpt>
      <trkpt lat="44.43526" lon="5.91834">
        <ele>841.40002441406</ele>
        <time>2013-05-12T10:01:12Z</time>
      </trkpt>
      <trkpt lat="44.43526" lon="5.91843">
        <ele>841</ele>
        <time>2013-05-12T10:01:13Z</time>
      </trkpt>
      <trkpt lat="44.43525" lon="5.91851">
        <ele>840.59997558594</ele>
        <time>2013-05-12T10:01:14Z</time>
      </trkpt>
      <trkpt lat="44.43521" lon="5.91862">
        <ele>839.59997558594</ele>
        <time>2013-05-12T10:01:16Z</time>
      </trkpt>
      <trkpt lat="44.43514" lon="5.91866">
        <ele>839.59997558594</ele>
        <time>2013-05-12T10:01:18Z</time>
      </trkpt>
      <trkpt lat="44.43505" lon="5.91865">
        <ele>839.20001220703</ele>
        <time>2013-05-12T10:01:20Z</time>
      </trkpt>
      <trkpt lat="44.43496" lon="5.91865">
        <ele>838.40002441406</ele>
        <time>2013-05-12T10:01:22Z</time>
      </trkpt>
      <trkpt lat="44.43488" lon="5.91868">
        <ele>837.59997558594</ele>
        <time>2013-05-12T10:01:24Z</time>
      </trkpt>
      <trkpt lat="44.43476" lon="5.91871">
        <ele>837</ele>
        <time>2013-05-12T10:01:27Z</time>
      </trkpt>
      <trkpt lat="44.43468" lon="5.91874">
        <ele>836.20001220703</ele>
        <time>2013-05-12T10:01:29Z</time>
      </trkpt>
      <trkpt lat="44.43461" lon="5.91884">
        <ele>835.20001220703</ele>
        <time>2013-05-12T10:01:31Z</time>
      </trkpt>
      <trkpt lat="44.43458" lon="5.91892">
        <ele>834.59997558594</ele>
        <time>2013-05-12T10:01:32Z</time>
      </trkpt>
      <trkpt lat="44.43456" lon="5.91901">
        <ele>834.20001220703</ele>
        <time>2013-05-12T10:01:33Z</time>
      </trkpt>
      <trkpt lat="44.43453" lon="5.91916">
        <ele>833</ele>
        <time>2013-05-12T10:01:35Z</time>
      </trkpt>
      <trkpt lat="44.43452" lon="5.91922">
        <ele>832.59997558594</ele>
        <time>2013-05-12T10:01:36Z</time>
      </trkpt>
      <trkpt lat="44.4345" lon="5.9193">
        <ele>830.40002441406</ele>
        <time>2013-05-12T10:01:40Z</time>
      </trkpt>
      <trkpt lat="44.4346" lon="5.91941">
        <ele>828.79998779297</ele>
        <time>2013-05-12T10:01:44Z</time>
      </trkpt>
      <trkpt lat="44.43479" lon="5.91947">
        <ele>828.79998779297</ele>
        <time>2013-05-12T10:01:48Z</time>
      </trkpt>
      <trkpt lat="44.43485" lon="5.91947">
        <ele>828.79998779297</ele>
        <time>2013-05-12T10:01:49Z</time>
      </trkpt>
      <trkpt lat="44.43492" lon="5.91946">
        <ele>828.79998779297</ele>
        <time>2013-05-12T10:01:50Z</time>
      </trkpt>
      <trkpt lat="44.43504" lon="5.91937">
        <ele>827.59997558594</ele>
        <time>2013-05-12T10:01:52Z</time>
      </trkpt>
      <trkpt lat="44.43514" lon="5.91924">
        <ele>826.59997558594</ele>
        <time>2013-05-12T10:01:54Z</time>
      </trkpt>
      <trkpt lat="44.4352" lon="5.91918">
        <ele>826.20001220703</ele>
        <time>2013-05-12T10:01:55Z</time>
      </trkpt>
      <trkpt lat="44.43534" lon="5.9191">
        <ele>826.20001220703</ele>
        <time>2013-05-12T10:01:57Z</time>
      </trkpt>
      <trkpt lat="44.43542" lon="5.91908">
        <ele>825.59997558594</ele>
        <time>2013-05-12T10:01:58Z</time>
      </trkpt>
      <trkpt lat="44.43557" lon="5.9191">
        <ele>824.59997558594</ele>
        <time>2013-05-12T10:02:00Z</time>
      </trkpt>
      <trkpt lat="44.43564" lon="5.91917">
        <ele>824</ele>
        <time>2013-05-12T10:02:01Z</time>
      </trkpt>
      <trkpt lat="44.43569" lon="5.91926">
        <ele>823.59997558594</ele>
        <time>2013-05-12T10:02:02Z</time>
      </trkpt>
      <trkpt lat="44.43573" lon="5.91937">
        <ele>823</ele>
        <time>2013-05-12T10:02:03Z</time>
      </trkpt>
      <trkpt lat="44.43577" lon="5.91949">
        <ele>822.59997558594</ele>
        <time>2013-05-12T10:02:04Z</time>
      </trkpt>
      <trkpt lat="44.43583" lon="5.91959">
        <ele>821.79998779297</ele>
        <time>2013-05-12T10:02:05Z</time>
      </trkpt>
      <trkpt lat="44.43589" lon="5.9197">
        <ele>821</ele>
        <time>2013-05-12T10:02:06Z</time>
      </trkpt>
      <trkpt lat="44.43596" lon="5.91981">
        <ele>820.20001220703</ele>
        <time>2013-05-12T10:02:07Z</time>
      </trkpt>
      <trkpt lat="44.43602" lon="5.91992">
        <ele>819.20001220703</ele>
        <time>2013-05-12T10:02:08Z</time>
      </trkpt>
      <trkpt lat="44.4361" lon="5.92004">
        <ele>818.40002441406</ele>
        <time>2013-05-12T10:02:09Z</time>
      </trkpt>
      <trkpt lat="44.43618" lon="5.92013">
        <ele>817.59997558594</ele>
        <time>2013-05-12T10:02:10Z</time>
      </trkpt>
      <trkpt lat="44.43627" lon="5.92022">
        <ele>816.59997558594</ele>
        <time>2013-05-12T10:02:11Z</time>
      </trkpt>
      <trkpt lat="44.43637" lon="5.92028">
        <ele>815.59997558594</ele>
        <time>2013-05-12T10:02:12Z</time>
      </trkpt>
      <trkpt lat="44.43647" lon="5.92032">
        <ele>814.79998779297</ele>
        <time>2013-05-12T10:02:13Z</time>
      </trkpt>
      <trkpt lat="44.43659" lon="5.92034">
        <ele>814</ele>
        <time>2013-05-12T10:02:14Z</time>
      </trkpt>
      <trkpt lat="44.4367" lon="5.92036">
        <ele>813.20001220703</ele>
        <time>2013-05-12T10:02:15Z</time>
      </trkpt>
      <trkpt lat="44.43681" lon="5.92037">
        <ele>812.59997558594</ele>
        <time>2013-05-12T10:02:16Z</time>
      </trkpt>
      <trkpt lat="44.43692" lon="5.92036">
        <ele>811.79998779297</ele>
        <time>2013-05-12T10:02:17Z</time>
      </trkpt>
      <trkpt lat="44.43703" lon="5.92031">
        <ele>810.79998779297</ele>
        <time>2013-05-12T10:02:18Z</time>
      </trkpt>
      <trkpt lat="44.43712" lon="5.92025">
        <ele>810</ele>
        <time>2013-05-12T10:02:19Z</time>
      </trkpt>
      <trkpt lat="44.4372" lon="5.9202">
        <ele>808.59997558594</ele>
        <time>2013-05-12T10:02:20Z</time>
      </trkpt>
      <trkpt lat="44.4373" lon="5.92011">
        <ele>804.79998779297</ele>
        <time>2013-05-12T10:02:23Z</time>
      </trkpt>
      <trkpt lat="44.43733" lon="5.9202">
        <ele>802.20001220703</ele>
        <time>2013-05-12T10:02:25Z</time>
      </trkpt>
      <trkpt lat="44.43729" lon="5.9203">
        <ele>801</ele>
        <time>2013-05-12T10:02:27Z</time>
      </trkpt>
      <trkpt lat="44.43718" lon="5.92034">
        <ele>800.59997558594</ele>
        <time>2013-05-12T10:02:29Z</time>
      </trkpt>
      <trkpt lat="44.43708" lon="5.92042">
        <ele>799.79998779297</ele>
        <time>2013-05-12T10:02:31Z</time>
      </trkpt>
      <trkpt lat="44.43699" lon="5.92056">
        <ele>798.79998779297</ele>
        <time>2013-05-12T10:02:33Z</time>
      </trkpt>
      <trkpt lat="44.43681" lon="5.92091">
        <ele>798.40002441406</ele>
        <time>2013-05-12T10:02:37Z</time>
      </trkpt>
      <trkpt lat="44.43674" lon="5.92099">
        <ele>798</ele>
        <time>2013-05-12T10:02:38Z</time>
      </trkpt>
      <trkpt lat="44.43667" lon="5.92106">
        <ele>797.40002441406</ele>
        <time>2013-05-12T10:02:39Z</time>
      </trkpt>
      <trkpt lat="44.43659" lon="5.92112">
        <ele>796.79998779297</ele>
        <time>2013-05-12T10:02:40Z</time>
      </trkpt>
      <trkpt lat="44.43642" lon="5.92117">
        <ele>795.59997558594</ele>
        <time>2013-05-12T10:02:42Z</time>
      </trkpt>
      <trkpt lat="44.43632" lon="5.92118">
        <ele>794.79998779297</ele>
        <time>2013-05-12T10:02:43Z</time>
      </trkpt>
      <trkpt lat="44.43623" lon="5.92119">
        <ele>794.20001220703</ele>
        <time>2013-05-12T10:02:44Z</time>
      </trkpt>
      <trkpt lat="44.43613" lon="5.92123">
        <ele>793.59997558594</ele>
        <time>2013-05-12T10:02:45Z</time>
      </trkpt>
      <trkpt lat="44.43603" lon="5.92128">
        <ele>793</ele>
        <time>2013-05-12T10:02:46Z</time>
      </trkpt>
      <trkpt lat="44.43592" lon="5.92134">
        <ele>792.20001220703</ele>
        <time>2013-05-12T10:02:47Z</time>
      </trkpt>
      <trkpt lat="44.43583" lon="5.92138">
        <ele>791.59997558594</ele>
        <time>2013-05-12T10:02:48Z</time>
      </trkpt>
      <trkpt lat="44.43573" lon="5.92139">
        <ele>790.79998779297</ele>
        <time>2013-05-12T10:02:49Z</time>
      </trkpt>
      <trkpt lat="44.43565" lon="5.92137">
        <ele>790</ele>
        <time>2013-05-12T10:02:50Z</time>
      </trkpt>
      <trkpt lat="44.43559" lon="5.92132">
        <ele>789.20001220703</ele>
        <time>2013-05-12T10:02:51Z</time>
      </trkpt>
      <trkpt lat="44.43554" lon="5.92125">
        <ele>788.40002441406</ele>
        <time>2013-05-12T10:02:52Z</time>
      </trkpt>
      <trkpt lat="44.43549" lon="5.92118">
        <ele>787.59997558594</ele>
        <time>2013-05-12T10:02:53Z</time>
      </trkpt>
      <trkpt lat="44.43537" lon="5.9212">
        <ele>786.40002441406</ele>
        <time>2013-05-12T10:02:55Z</time>
      </trkpt>
      <trkpt lat="44.43534" lon="5.92126">
        <ele>785.79998779297</ele>
        <time>2013-05-12T10:02:56Z</time>
      </trkpt>
      <trkpt lat="44.43533" lon="5.92133">
        <ele>785.20001220703</ele>
        <time>2013-05-12T10:02:57Z</time>
      </trkpt>
      <trkpt lat="44.43533" lon="5.92141">
        <ele>784.59997558594</ele>
        <time>2013-05-12T10:02:58Z</time>
      </trkpt>
      <trkpt lat="44.43534" lon="5.92159">
        <ele>784</ele>
        <time>2013-05-12T10:03:00Z</time>
      </trkpt>
      <trkpt lat="44.43532" lon="5.92169">
        <ele>783.59997558594</ele>
        <time>2013-05-12T10:03:01Z</time>
      </trkpt>
      <trkpt lat="44.43529" lon="5.92177">
        <ele>782.79998779297</ele>
        <time>2013-05-12T10:03:02Z</time>
      </trkpt>
      <trkpt lat="44.43524" lon="5.92187">
        <ele>782.20001220703</ele>
        <time>2013-05-12T10:03:03Z</time>
      </trkpt>
      <trkpt lat="44.43519" lon="5.92199">
        <ele>781</ele>
        <time>2013-05-12T10:03:04Z</time>
      </trkpt>
      <trkpt lat="44.43513" lon="5.92212">
        <ele>780</ele>
        <time>2013-05-12T10:03:05Z</time>
      </trkpt>
      <trkpt lat="44.43508" lon="5.92226">
        <ele>779</ele>
        <time>2013-05-12T10:03:06Z</time>
      </trkpt>
      <trkpt lat="44.43505" lon="5.9224">
        <ele>777.79998779297</ele>
        <time>2013-05-12T10:03:07Z</time>
      </trkpt>
      <trkpt lat="44.43502" lon="5.92254">
        <ele>776.40002441406</ele>
        <time>2013-05-12T10:03:08Z</time>
      </trkpt>
      <trkpt lat="44.43501" lon="5.92268">
        <ele>775.20001220703</ele>
        <time>2013-05-12T10:03:09Z</time>
      </trkpt>
      <trkpt lat="44.435" lon="5.92283">
        <ele>773.59997558594</ele>
        <time>2013-05-12T10:03:10Z</time>
      </trkpt>
      <trkpt lat="44.43499" lon="5.92296">
        <ele>772.20001220703</ele>
        <time>2013-05-12T10:03:11Z</time>
      </trkpt>
      <trkpt lat="44.43498" lon="5.92306">
        <ele>770.59997558594</ele>
        <time>2013-05-12T10:03:12Z</time>
      </trkpt>
      <trkpt lat="44.43497" lon="5.92315">
        <ele>769</ele>
        <time>2013-05-12T10:03:13Z</time>
      </trkpt>
      <trkpt lat="44.43495" lon="5.92321">
        <ele>767.40002441406</ele>
        <time>2013-05-12T10:03:14Z</time>
      </trkpt>
      <trkpt lat="44.43489" lon="5.9233">
        <ele>764.20001220703</ele>
        <time>2013-05-12T10:03:16Z</time>
      </trkpt>
      <trkpt lat="44.43483" lon="5.92331">
        <ele>763</ele>
        <time>2013-05-12T10:03:17Z</time>
      </trkpt>
      <trkpt lat="44.43477" lon="5.92332">
        <ele>761.79998779297</ele>
        <time>2013-05-12T10:03:18Z</time>
      </trkpt>
      <trkpt lat="44.43463" lon="5.92336">
        <ele>759.79998779297</ele>
        <time>2013-05-12T10:03:20Z</time>
      </trkpt>
      <trkpt lat="44.43455" lon="5.92339">
        <ele>759</ele>
        <time>2013-05-12T10:03:21Z</time>
      </trkpt>
      <trkpt lat="44.43447" lon="5.92343">
        <ele>758.20001220703</ele>
        <time>2013-05-12T10:03:22Z</time>
      </trkpt>
      <trkpt lat="44.43439" lon="5.92346">
        <ele>757.20001220703</ele>
        <time>2013-05-12T10:03:23Z</time>
      </trkpt>
      <trkpt lat="44.43427" lon="5.92348">
        <ele>755.59997558594</ele>
        <time>2013-05-12T10:03:25Z</time>
      </trkpt>
      <trkpt lat="44.43422" lon="5.9235">
        <ele>754.59997558594</ele>
        <time>2013-05-12T10:03:26Z</time>
      </trkpt>
      <trkpt lat="44.43419" lon="5.92354">
        <ele>753.79998779297</ele>
        <time>2013-05-12T10:03:27Z</time>
      </trkpt>
      <trkpt lat="44.43417" lon="5.92362">
        <ele>753</ele>
        <time>2013-05-12T10:03:28Z</time>
      </trkpt>
      <trkpt lat="44.43414" lon="5.92371">
        <ele>752</ele>
        <time>2013-05-12T10:03:29Z</time>
      </trkpt>
      <trkpt lat="44.4341" lon="5.9238">
        <ele>751.20001220703</ele>
        <time>2013-05-12T10:03:30Z</time>
      </trkpt>
      <trkpt lat="44.43407" lon="5.92391">
        <ele>750.20001220703</ele>
        <time>2013-05-12T10:03:31Z</time>
      </trkpt>
      <trkpt lat="44.43406" lon="5.92401">
        <ele>749.40002441406</ele>
        <time>2013-05-12T10:03:32Z</time>
      </trkpt>
      <trkpt lat="44.43401" lon="5.92414">
        <ele>746.59997558594</ele>
        <time>2013-05-12T10:03:35Z</time>
      </trkpt>
      <trkpt lat="44.43398" lon="5.9242">
        <ele>745.59997558594</ele>
        <time>2013-05-12T10:03:36Z</time>
      </trkpt>
      <trkpt lat="44.43393" lon="5.92425">
        <ele>744.59997558594</ele>
        <time>2013-05-12T10:03:37Z</time>
      </trkpt>
      <trkpt lat="44.43388" lon="5.92429">
        <ele>743.59997558594</ele>
        <time>2013-05-12T10:03:38Z</time>
      </trkpt>
      <trkpt lat="44.43384" lon="5.92432">
        <ele>742.40002441406</ele>
        <time>2013-05-12T10:03:39Z</time>
      </trkpt>
      <trkpt lat="44.43379" lon="5.92432">
        <ele>740.20001220703</ele>
        <time>2013-05-12T10:03:41Z</time>
      </trkpt>
      <trkpt lat="44.43377" lon="5.92429">
        <ele>737.79998779297</ele>
        <time>2013-05-12T10:03:43Z</time>
      </trkpt>
      <trkpt lat="44.43369" lon="5.92427">
        <ele>736.20001220703</ele>
        <time>2013-05-12T10:04:43Z</time>
      </trkpt>
      <trkpt lat="44.4337" lon="5.92431">
        <ele>748.20001220703</ele>
        <time>2013-05-12T10:06:09Z</time>
      </trkpt>
      <trkpt lat="44.43372" lon="5.92448">
        <ele>748.59997558594</ele>
        <time>2013-05-12T10:06:15Z</time>
      </trkpt>
      <trkpt lat="44.43375" lon="5.92455">
        <ele>748.59997558594</ele>
        <time>2013-05-12T10:06:19Z</time>
      </trkpt>
      <trkpt lat="44.43377" lon="5.92461">
        <ele>748.59997558594</ele>
        <time>2013-05-12T10:06:28Z</time>
      </trkpt>
      <trkpt lat="44.43385" lon="5.92473">
        <ele>748.59997558594</ele>
        <time>2013-05-12T10:06:35Z</time>
      </trkpt>
      <trkpt lat="44.43389" lon="5.92481">
        <ele>749</ele>
        <time>2013-05-12T10:06:39Z</time>
      </trkpt>
      <trkpt lat="44.4339" lon="5.92484">
        <ele>749.59997558594</ele>
        <time>2013-05-12T10:06:40Z</time>
      </trkpt>
      <trkpt lat="44.43401" lon="5.92499">
        <ele>750.79998779297</ele>
        <time>2013-05-12T10:06:50Z</time>
      </trkpt>
      <trkpt lat="44.43405" lon="5.92504">
        <ele>751.20001220703</ele>
        <time>2013-05-12T10:06:54Z</time>
      </trkpt>
      <trkpt lat="44.43408" lon="5.9251">
        <ele>753</ele>
        <time>2013-05-12T10:06:58Z</time>
      </trkpt>
      <trkpt lat="44.43415" lon="5.92524">
        <ele>753</ele>
        <time>2013-05-12T10:07:06Z</time>
      </trkpt>
      <trkpt lat="44.43417" lon="5.9253">
        <ele>753.79998779297</ele>
        <time>2013-05-12T10:07:10Z</time>
      </trkpt>
      <trkpt lat="44.43422" lon="5.92549">
        <ele>755.20001220703</ele>
        <time>2013-05-12T10:07:21Z</time>
      </trkpt>
      <trkpt lat="44.43422" lon="5.92551">
        <ele>755.59997558594</ele>
        <time>2013-05-12T10:07:22Z</time>
      </trkpt>
      <trkpt lat="44.43419" lon="5.92564">
        <ele>757.59997558594</ele>
        <time>2013-05-12T10:07:31Z</time>
      </trkpt>
      <trkpt lat="44.43415" lon="5.92571">
        <ele>759.40002441406</ele>
        <time>2013-05-12T10:07:35Z</time>
      </trkpt>
      <trkpt lat="44.4341" lon="5.92584">
        <ele>759.40002441406</ele>
        <time>2013-05-12T10:07:44Z</time>
      </trkpt>
      <trkpt lat="44.4341" lon="5.92587">
        <ele>759.79998779297</ele>
        <time>2013-05-12T10:07:46Z</time>
      </trkpt>
      <trkpt lat="44.43408" lon="5.92591">
        <ele>761</ele>
        <time>2013-05-12T10:07:49Z</time>
      </trkpt>
      <trkpt lat="44.43404" lon="5.92608">
        <ele>762</ele>
        <time>2013-05-12T10:08:00Z</time>
      </trkpt>
      <trkpt lat="44.43404" lon="5.92611">
        <ele>762.40002441406</ele>
        <time>2013-05-12T10:08:01Z</time>
      </trkpt>
      <trkpt lat="44.43399" lon="5.9263">
        <ele>763.79998779297</ele>
        <time>2013-05-12T10:08:13Z</time>
      </trkpt>
      <trkpt lat="44.43388" lon="5.9265">
        <ele>765.79998779297</ele>
        <time>2013-05-12T10:08:29Z</time>
      </trkpt>
      <trkpt lat="44.43389" lon="5.9265">
        <ele>765.79998779297</ele>
        <time>2013-05-12T10:08:36Z</time>
      </trkpt>
      <trkpt lat="44.43381" lon="5.92667">
        <ele>767.79998779297</ele>
        <time>2013-05-12T10:09:25Z</time>
      </trkpt>
      <trkpt lat="44.43377" lon="5.92673">
        <ele>767.79998779297</ele>
        <time>2013-05-12T10:09:28Z</time>
      </trkpt>
      <trkpt lat="44.43364" lon="5.92687">
        <ele>767.79998779297</ele>
        <time>2013-05-12T10:09:34Z</time>
      </trkpt>
      <trkpt lat="44.43361" lon="5.9269">
        <ele>767.79998779297</ele>
        <time>2013-05-12T10:09:35Z</time>
      </trkpt>
      <trkpt lat="44.43347" lon="5.92713">
        <ele>767.79998779297</ele>
        <time>2013-05-12T10:09:41Z</time>
      </trkpt>
      <trkpt lat="44.43338" lon="5.92735">
        <ele>767.79998779297</ele>
        <time>2013-05-12T10:09:47Z</time>
      </trkpt>
      <trkpt lat="44.43328" lon="5.92763">
        <ele>767.79998779297</ele>
        <time>2013-05-12T10:09:53Z</time>
      </trkpt>
      <trkpt lat="44.43317" lon="5.92799">
        <ele>767.79998779297</ele>
        <time>2013-05-12T10:10:01Z</time>
      </trkpt>
      <trkpt lat="44.43308" lon="5.92829">
        <ele>767.79998779297</ele>
        <time>2013-05-12T10:10:08Z</time>
      </trkpt>
      <trkpt lat="44.43298" lon="5.92859">
        <ele>767.79998779297</ele>
        <time>2013-05-12T10:10:14Z</time>
      </trkpt>
      <trkpt lat="44.43296" lon="5.92876">
        <ele>768.40002441406</ele>
        <time>2013-05-12T10:10:18Z</time>
      </trkpt>
      <trkpt lat="44.43295" lon="5.92898">
        <ele>769</ele>
        <time>2013-05-12T10:10:24Z</time>
      </trkpt>
      <trkpt lat="44.43295" lon="5.92911">
        <ele>769</ele>
        <time>2013-05-12T10:10:27Z</time>
      </trkpt>
      <trkpt lat="44.43293" lon="5.92921">
        <ele>770.40002441406</ele>
        <time>2013-05-12T10:10:30Z</time>
      </trkpt>
      <trkpt lat="44.43289" lon="5.92936">
        <ele>770.40002441406</ele>
        <time>2013-05-12T10:10:34Z</time>
      </trkpt>
      <trkpt lat="44.43287" lon="5.92944">
        <ele>771.20001220703</ele>
        <time>2013-05-12T10:10:36Z</time>
      </trkpt>
      <trkpt lat="44.43281" lon="5.92965">
        <ele>772.79998779297</ele>
        <time>2013-05-12T10:10:42Z</time>
      </trkpt>
      <trkpt lat="44.43279" lon="5.92986">
        <ele>772.79998779297</ele>
        <time>2013-05-12T10:10:48Z</time>
      </trkpt>
      <trkpt lat="44.43283" lon="5.92999">
        <ele>773.20001220703</ele>
        <time>2013-05-12T10:10:54Z</time>
      </trkpt>
      <trkpt lat="44.43284" lon="5.93">
        <ele>773.59997558594</ele>
        <time>2013-05-12T10:10:55Z</time>
      </trkpt>
      <trkpt lat="44.43293" lon="5.93008">
        <ele>774.59997558594</ele>
        <time>2013-05-12T10:11:01Z</time>
      </trkpt>
      <trkpt lat="44.43293" lon="5.93011">
        <ele>774.59997558594</ele>
        <time>2013-05-12T10:11:02Z</time>
      </trkpt>
      <trkpt lat="44.43296" lon="5.93022">
        <ele>775.40002441406</ele>
        <time>2013-05-12T10:11:07Z</time>
      </trkpt>
      <trkpt lat="44.43298" lon="5.93032">
        <ele>776</ele>
        <time>2013-05-12T10:11:12Z</time>
      </trkpt>
      <trkpt lat="44.43299" lon="5.93043">
        <ele>777</ele>
        <time>2013-05-12T10:11:18Z</time>
      </trkpt>
      <trkpt lat="44.433" lon="5.93051">
        <ele>777</ele>
        <time>2013-05-12T10:11:22Z</time>
      </trkpt>
      <trkpt lat="44.433" lon="5.93052">
        <ele>777.59997558594</ele>
        <time>2013-05-12T10:11:23Z</time>
      </trkpt>
      <trkpt lat="44.433" lon="5.93061">
        <ele>779</ele>
        <time>2013-05-12T10:11:29Z</time>
      </trkpt>
      <trkpt lat="44.433" lon="5.93069">
        <ele>780.79998779297</ele>
        <time>2013-05-12T10:11:35Z</time>
      </trkpt>
      <trkpt lat="44.43297" lon="5.93077">
        <ele>780.79998779297</ele>
        <time>2013-05-12T10:11:39Z</time>
      </trkpt>
      <trkpt lat="44.43295" lon="5.9308">
        <ele>782.40002441406</ele>
        <time>2013-05-12T10:11:41Z</time>
      </trkpt>
      <trkpt lat="44.43293" lon="5.9309">
        <ele>784.20001220703</ele>
        <time>2013-05-12T10:11:47Z</time>
      </trkpt>
      <trkpt lat="44.43294" lon="5.93104">
        <ele>787</ele>
        <time>2013-05-12T10:11:58Z</time>
      </trkpt>
      <trkpt lat="44.43296" lon="5.9311">
        <ele>791.79998779297</ele>
        <time>2013-05-12T10:12:40Z</time>
      </trkpt>
      <trkpt lat="44.43301" lon="5.93121">
        <ele>797.79998779297</ele>
        <time>2013-05-12T10:13:18Z</time>
      </trkpt>
      <trkpt lat="44.4331" lon="5.93135">
        <ele>797.79998779297</ele>
        <time>2013-05-12T10:13:22Z</time>
      </trkpt>
      <trkpt lat="44.43313" lon="5.93137">
        <ele>797.79998779297</ele>
        <time>2013-05-12T10:13:23Z</time>
      </trkpt>
      <trkpt lat="44.4332" lon="5.93147">
        <ele>798.59997558594</ele>
        <time>2013-05-12T10:13:25Z</time>
      </trkpt>
      <trkpt lat="44.43325" lon="5.93152">
        <ele>798.59997558594</ele>
        <time>2013-05-12T10:13:26Z</time>
      </trkpt>
      <trkpt lat="44.43336" lon="5.93162">
        <ele>799</ele>
        <time>2013-05-12T10:13:30Z</time>
      </trkpt>
      <trkpt lat="44.43343" lon="5.93167">
        <ele>799</ele>
        <time>2013-05-12T10:13:33Z</time>
      </trkpt>
      <trkpt lat="44.43356" lon="5.93172">
        <ele>799.79998779297</ele>
        <time>2013-05-12T10:13:40Z</time>
      </trkpt>
      <trkpt lat="44.43366" lon="5.93175">
        <ele>800.59997558594</ele>
        <time>2013-05-12T10:13:46Z</time>
      </trkpt>
      <trkpt lat="44.43377" lon="5.93173">
        <ele>802</ele>
        <time>2013-05-12T10:13:53Z</time>
      </trkpt>
      <trkpt lat="44.43386" lon="5.93171">
        <ele>803</ele>
        <time>2013-05-12T10:13:59Z</time>
      </trkpt>
      <trkpt lat="44.43394" lon="5.9317">
        <ele>803.59997558594</ele>
        <time>2013-05-12T10:14:04Z</time>
      </trkpt>
      <trkpt lat="44.43403" lon="5.93168">
        <ele>804</ele>
        <time>2013-05-12T10:14:10Z</time>
      </trkpt>
      <trkpt lat="44.43412" lon="5.93167">
        <ele>804.59997558594</ele>
        <time>2013-05-12T10:14:15Z</time>
      </trkpt>
      <trkpt lat="44.43428" lon="5.93165">
        <ele>806.20001220703</ele>
        <time>2013-05-12T10:14:26Z</time>
      </trkpt>
      <trkpt lat="44.43443" lon="5.93167">
        <ele>806.20001220703</ele>
        <time>2013-05-12T10:14:33Z</time>
      </trkpt>
      <trkpt lat="44.43451" lon="5.93172">
        <ele>806.59997558594</ele>
        <time>2013-05-12T10:14:38Z</time>
      </trkpt>
      <trkpt lat="44.43465" lon="5.93186">
        <ele>808</ele>
        <time>2013-05-12T10:14:49Z</time>
      </trkpt>
      <trkpt lat="44.43477" lon="5.93188">
        <ele>808.40002441406</ele>
        <time>2013-05-12T10:14:55Z</time>
      </trkpt>
      <trkpt lat="44.43484" lon="5.93182">
        <ele>809</ele>
        <time>2013-05-12T10:15:00Z</time>
      </trkpt>
      <trkpt lat="44.43496" lon="5.93178">
        <ele>810.20001220703</ele>
        <time>2013-05-12T10:15:06Z</time>
      </trkpt>
      <trkpt lat="44.435" lon="5.93178">
        <ele>810.79998779297</ele>
        <time>2013-05-12T10:15:09Z</time>
      </trkpt>
      <trkpt lat="44.43515" lon="5.93188">
        <ele>812.59997558594</ele>
        <time>2013-05-12T10:15:18Z</time>
      </trkpt>
      <trkpt lat="44.43515" lon="5.93196">
        <ele>812.59997558594</ele>
        <time>2013-05-12T10:15:20Z</time>
      </trkpt>
      <trkpt lat="44.43509" lon="5.93224">
        <ele>813.59997558594</ele>
        <time>2013-05-12T10:15:27Z</time>
      </trkpt>
      <trkpt lat="44.43497" lon="5.93236">
        <ele>814</ele>
        <time>2013-05-12T10:15:32Z</time>
      </trkpt>
      <trkpt lat="44.43489" lon="5.93246">
        <ele>814</ele>
        <time>2013-05-12T10:15:36Z</time>
      </trkpt>
      <trkpt lat="44.43485" lon="5.9325">
        <ele>814.40002441406</ele>
        <time>2013-05-12T10:15:38Z</time>
      </trkpt>
      <trkpt lat="44.43475" lon="5.93264">
        <ele>814.40002441406</ele>
        <time>2013-05-12T10:15:42Z</time>
      </trkpt>
      <trkpt lat="44.43467" lon="5.93272">
        <ele>815.40002441406</ele>
        <time>2013-05-12T10:15:44Z</time>
      </trkpt>
      <trkpt lat="44.43457" lon="5.93281">
        <ele>815.40002441406</ele>
        <time>2013-05-12T10:15:46Z</time>
      </trkpt>
      <trkpt lat="44.43443" lon="5.93297">
        <ele>815</ele>
        <time>2013-05-12T10:15:49Z</time>
      </trkpt>
      <trkpt lat="44.4342" lon="5.93318">
        <ele>815</ele>
        <time>2013-05-12T10:15:53Z</time>
      </trkpt>
      <trkpt lat="44.43399" lon="5.93341">
        <ele>813.40002441406</ele>
        <time>2013-05-12T10:15:56Z</time>
      </trkpt>
      <trkpt lat="44.43384" lon="5.93356">
        <ele>811.40002441406</ele>
        <time>2013-05-12T10:15:58Z</time>
      </trkpt>
      <trkpt lat="44.43377" lon="5.93362">
        <ele>810.59997558594</ele>
        <time>2013-05-12T10:15:59Z</time>
      </trkpt>
      <trkpt lat="44.43371" lon="5.9337">
        <ele>810.59997558594</ele>
        <time>2013-05-12T10:16:00Z</time>
      </trkpt>
      <trkpt lat="44.43366" lon="5.93379">
        <ele>808.59997558594</ele>
        <time>2013-05-12T10:16:01Z</time>
      </trkpt>
      <trkpt lat="44.43361" lon="5.93388">
        <ele>807.59997558594</ele>
        <time>2013-05-12T10:16:02Z</time>
      </trkpt>
      <trkpt lat="44.43333" lon="5.93449">
        <ele>807.59997558594</ele>
        <time>2013-05-12T10:16:08Z</time>
      </trkpt>
      <trkpt lat="44.43328" lon="5.9346">
        <ele>807</ele>
        <time>2013-05-12T10:16:09Z</time>
      </trkpt>
      <trkpt lat="44.4332" lon="5.9348">
        <ele>807</ele>
        <time>2013-05-12T10:16:11Z</time>
      </trkpt>
      <trkpt lat="44.43309" lon="5.93498">
        <ele>807</ele>
        <time>2013-05-12T10:16:13Z</time>
      </trkpt>
      <trkpt lat="44.433" lon="5.93515">
        <ele>806</ele>
        <time>2013-05-12T10:16:15Z</time>
      </trkpt>
      <trkpt lat="44.43289" lon="5.93529">
        <ele>806</ele>
        <time>2013-05-12T10:16:17Z</time>
      </trkpt>
      <trkpt lat="44.43282" lon="5.93535">
        <ele>806</ele>
        <time>2013-05-12T10:16:18Z</time>
      </trkpt>
      <trkpt lat="44.43266" lon="5.93546">
        <ele>805.40002441406</ele>
        <time>2013-05-12T10:16:20Z</time>
      </trkpt>
      <trkpt lat="44.43257" lon="5.93551">
        <ele>805</ele>
        <time>2013-05-12T10:16:21Z</time>
      </trkpt>
      <trkpt lat="44.43249" lon="5.93557">
        <ele>805</ele>
        <time>2013-05-12T10:16:22Z</time>
      </trkpt>
      <trkpt lat="44.43242" lon="5.93565">
        <ele>805</ele>
        <time>2013-05-12T10:16:23Z</time>
      </trkpt>
      <trkpt lat="44.43227" lon="5.93583">
        <ele>805</ele>
        <time>2013-05-12T10:16:25Z</time>
      </trkpt>
      <trkpt lat="44.43219" lon="5.93592">
        <ele>804.40002441406</ele>
        <time>2013-05-12T10:16:26Z</time>
      </trkpt>
      <trkpt lat="44.43194" lon="5.93628">
        <ele>804.40002441406</ele>
        <time>2013-05-12T10:16:29Z</time>
      </trkpt>
      <trkpt lat="44.43187" lon="5.93642">
        <ele>804.40002441406</ele>
        <time>2013-05-12T10:16:30Z</time>
      </trkpt>
      <trkpt lat="44.43169" lon="5.93664">
        <ele>801.20001220703</ele>
        <time>2013-05-12T10:16:32Z</time>
      </trkpt>
      <trkpt lat="44.43139" lon="5.93687">
        <ele>801.20001220703</ele>
        <time>2013-05-12T10:16:35Z</time>
      </trkpt>
      <trkpt lat="44.43123" lon="5.93699">
        <ele>799</ele>
        <time>2013-05-12T10:16:37Z</time>
      </trkpt>
      <trkpt lat="44.43115" lon="5.93704">
        <ele>796.79998779297</ele>
        <time>2013-05-12T10:16:38Z</time>
      </trkpt>
      <trkpt lat="44.43107" lon="5.93707">
        <ele>796.79998779297</ele>
        <time>2013-05-12T10:16:39Z</time>
      </trkpt>
      <trkpt lat="44.43093" lon="5.93703">
        <ele>796.79998779297</ele>
        <time>2013-05-12T10:16:41Z</time>
      </trkpt>
      <trkpt lat="44.43078" lon="5.93698">
        <ele>794.59997558594</ele>
        <time>2013-05-12T10:16:43Z</time>
      </trkpt>
      <trkpt lat="44.4307" lon="5.93698">
        <ele>792.59997558594</ele>
        <time>2013-05-12T10:16:44Z</time>
      </trkpt>
      <trkpt lat="44.43051" lon="5.93706">
        <ele>792.59997558594</ele>
        <time>2013-05-12T10:16:46Z</time>
      </trkpt>
      <trkpt lat="44.43023" lon="5.93734">
        <ele>790.40002441406</ele>
        <time>2013-05-12T10:16:49Z</time>
      </trkpt>
      <trkpt lat="44.42997" lon="5.93752">
        <ele>790.40002441406</ele>
        <time>2013-05-12T10:16:52Z</time>
      </trkpt>
      <trkpt lat="44.4299" lon="5.9378">
        <ele>787.79998779297</ele>
        <time>2013-05-12T10:16:55Z</time>
      </trkpt>
      <trkpt lat="44.42989" lon="5.9379">
        <ele>787.79998779297</ele>
        <time>2013-05-12T10:16:56Z</time>
      </trkpt>
      <trkpt lat="44.42979" lon="5.93835">
        <ele>782.40002441406</ele>
        <time>2013-05-12T10:17:01Z</time>
      </trkpt>
      <trkpt lat="44.42975" lon="5.93868">
        <ele>782.40002441406</ele>
        <time>2013-05-12T10:17:05Z</time>
      </trkpt>
      <trkpt lat="44.42972" lon="5.93874">
        <ele>779.79998779297</ele>
        <time>2013-05-12T10:17:06Z</time>
      </trkpt>
      <trkpt lat="44.42969" lon="5.9388">
        <ele>777</ele>
        <time>2013-05-12T10:17:07Z</time>
      </trkpt>
      <trkpt lat="44.4295" lon="5.93911">
        <ele>776.79998779297</ele>
        <time>2013-05-12T10:17:12Z</time>
      </trkpt>
      <trkpt lat="44.42946" lon="5.93917">
        <ele>776.79998779297</ele>
        <time>2013-05-12T10:17:13Z</time>
      </trkpt>
      <trkpt lat="44.42939" lon="5.93935">
        <ele>776.79998779297</ele>
        <time>2013-05-12T10:17:15Z</time>
      </trkpt>
      <trkpt lat="44.42931" lon="5.93956">
        <ele>776.79998779297</ele>
        <time>2013-05-12T10:17:17Z</time>
      </trkpt>
      <trkpt lat="44.42928" lon="5.93968">
        <ele>776.20001220703</ele>
        <time>2013-05-12T10:17:18Z</time>
      </trkpt>
      <trkpt lat="44.42906" lon="5.94019">
        <ele>776.20001220703</ele>
        <time>2013-05-12T10:17:22Z</time>
      </trkpt>
      <trkpt lat="44.42897" lon="5.94032">
        <ele>775.20001220703</ele>
        <time>2013-05-12T10:17:23Z</time>
      </trkpt>
      <trkpt lat="44.4289" lon="5.94046">
        <ele>773.79998779297</ele>
        <time>2013-05-12T10:17:24Z</time>
      </trkpt>
      <trkpt lat="44.42882" lon="5.94061">
        <ele>773.79998779297</ele>
        <time>2013-05-12T10:17:25Z</time>
      </trkpt>
      <trkpt lat="44.42876" lon="5.94077">
        <ele>773.79998779297</ele>
        <time>2013-05-12T10:17:26Z</time>
      </trkpt>
      <trkpt lat="44.42866" lon="5.94108">
        <ele>773.79998779297</ele>
        <time>2013-05-12T10:17:28Z</time>
      </trkpt>
      <trkpt lat="44.42859" lon="5.94122">
        <ele>771.79998779297</ele>
        <time>2013-05-12T10:17:29Z</time>
      </trkpt>
      <trkpt lat="44.4285" lon="5.94134">
        <ele>770</ele>
        <time>2013-05-12T10:17:30Z</time>
      </trkpt>
      <trkpt lat="44.42841" lon="5.94148">
        <ele>770</ele>
        <time>2013-05-12T10:17:31Z</time>
      </trkpt>
      <trkpt lat="44.42808" lon="5.942">
        <ele>768</ele>
        <time>2013-05-12T10:17:35Z</time>
      </trkpt>
      <trkpt lat="44.428" lon="5.94213">
        <ele>766</ele>
        <time>2013-05-12T10:17:36Z</time>
      </trkpt>
      <trkpt lat="44.42783" lon="5.94239">
        <ele>766</ele>
        <time>2013-05-12T10:17:38Z</time>
      </trkpt>
      <trkpt lat="44.42765" lon="5.9428">
        <ele>763.79998779297</ele>
        <time>2013-05-12T10:17:42Z</time>
      </trkpt>
      <trkpt lat="44.42765" lon="5.94307">
        <ele>763.79998779297</ele>
        <time>2013-05-12T10:17:45Z</time>
      </trkpt>
      <trkpt lat="44.42773" lon="5.94322">
        <ele>763.79998779297</ele>
        <time>2013-05-12T10:17:47Z</time>
      </trkpt>
      <trkpt lat="44.42775" lon="5.94335">
        <ele>759.40002441406</ele>
        <time>2013-05-12T10:17:49Z</time>
      </trkpt>
      <trkpt lat="44.42773" lon="5.94354">
        <ele>759.40002441406</ele>
        <time>2013-05-12T10:17:53Z</time>
      </trkpt>
      <trkpt lat="44.42772" lon="5.94387">
        <ele>755</ele>
        <time>2013-05-12T10:17:59Z</time>
      </trkpt>
      <trkpt lat="44.42772" lon="5.94392">
        <ele>750.40002441406</ele>
        <time>2013-05-12T10:18:00Z</time>
      </trkpt>
      <trkpt lat="44.42771" lon="5.94428">
        <ele>750.79998779297</ele>
        <time>2013-05-12T10:18:06Z</time>
      </trkpt>
      <trkpt lat="44.42766" lon="5.94469">
        <ele>751.59997558594</ele>
        <time>2013-05-12T10:18:12Z</time>
      </trkpt>
      <trkpt lat="44.42766" lon="5.94475">
        <ele>751.59997558594</ele>
        <time>2013-05-12T10:18:13Z</time>
      </trkpt>
      <trkpt lat="44.42765" lon="5.945">
        <ele>751.59997558594</ele>
        <time>2013-05-12T10:18:17Z</time>
      </trkpt>
      <trkpt lat="44.42766" lon="5.94506">
        <ele>752</ele>
        <time>2013-05-12T10:18:18Z</time>
      </trkpt>
      <trkpt lat="44.42767" lon="5.94511">
        <ele>752</ele>
        <time>2013-05-12T10:18:19Z</time>
      </trkpt>
      <trkpt lat="44.42772" lon="5.94533">
        <ele>752</ele>
        <time>2013-05-12T10:18:23Z</time>
      </trkpt>
      <trkpt lat="44.42779" lon="5.9455">
        <ele>752.40002441406</ele>
        <time>2013-05-12T10:18:26Z</time>
      </trkpt>
      <trkpt lat="44.42781" lon="5.94556">
        <ele>752.40002441406</ele>
        <time>2013-05-12T10:18:27Z</time>
      </trkpt>
      <trkpt lat="44.42784" lon="5.94575">
        <ele>752.40002441406</ele>
        <time>2013-05-12T10:18:30Z</time>
      </trkpt>
      <trkpt lat="44.42777" lon="5.94607">
        <ele>753</ele>
        <time>2013-05-12T10:18:36Z</time>
      </trkpt>
      <trkpt lat="44.42764" lon="5.94622">
        <ele>753</ele>
        <time>2013-05-12T10:18:41Z</time>
      </trkpt>
      <trkpt lat="44.42757" lon="5.94649">
        <ele>754</ele>
        <time>2013-05-12T10:18:48Z</time>
      </trkpt>
      <trkpt lat="44.42757" lon="5.94657">
        <ele>754</ele>
        <time>2013-05-12T10:18:50Z</time>
      </trkpt>
      <trkpt lat="44.42758" lon="5.94674">
        <ele>754.59997558594</ele>
        <time>2013-05-12T10:18:54Z</time>
      </trkpt>
      <trkpt lat="44.42759" lon="5.94686">
        <ele>754.59997558594</ele>
        <time>2013-05-12T10:18:57Z</time>
      </trkpt>
      <trkpt lat="44.4276" lon="5.94695">
        <ele>755.40002441406</ele>
        <time>2013-05-12T10:18:59Z</time>
      </trkpt>
      <trkpt lat="44.42759" lon="5.9471">
        <ele>755.40002441406</ele>
        <time>2013-05-12T10:19:02Z</time>
      </trkpt>
      <trkpt lat="44.42758" lon="5.9472">
        <ele>756.79998779297</ele>
        <time>2013-05-12T10:19:05Z</time>
      </trkpt>
      <trkpt lat="44.42758" lon="5.94728">
        <ele>756.79998779297</ele>
        <time>2013-05-12T10:19:08Z</time>
      </trkpt>
      <trkpt lat="44.4276" lon="5.94735">
        <ele>758.20001220703</ele>
        <time>2013-05-12T10:19:11Z</time>
      </trkpt>
      <trkpt lat="44.42764" lon="5.94741">
        <ele>758.20001220703</ele>
        <time>2013-05-12T10:19:15Z</time>
      </trkpt>
      <trkpt lat="44.4277" lon="5.94748">
        <ele>758.59997558594</ele>
        <time>2013-05-12T10:19:20Z</time>
      </trkpt>
      <trkpt lat="44.42778" lon="5.94752">
        <ele>764.40002441406</ele>
        <time>2013-05-12T10:19:46Z</time>
      </trkpt>
      <trkpt lat="44.42781" lon="5.94753">
        <ele>765</ele>
        <time>2013-05-12T10:19:51Z</time>
      </trkpt>
      <trkpt lat="44.42796" lon="5.94766">
        <ele>765</ele>
        <time>2013-05-12T10:20:00Z</time>
      </trkpt>
      <trkpt lat="44.42801" lon="5.94769">
        <ele>765.59997558594</ele>
        <time>2013-05-12T10:20:03Z</time>
      </trkpt>
      <trkpt lat="44.42806" lon="5.94772">
        <ele>765.59997558594</ele>
        <time>2013-05-12T10:20:06Z</time>
      </trkpt>
      <trkpt lat="44.4281" lon="5.94776">
        <ele>766.40002441406</ele>
        <time>2013-05-12T10:20:09Z</time>
      </trkpt>
      <trkpt lat="44.42825" lon="5.9478">
        <ele>767.59997558594</ele>
        <time>2013-05-12T10:20:19Z</time>
      </trkpt>
      <trkpt lat="44.42828" lon="5.94781">
        <ele>768.79998779297</ele>
        <time>2013-05-12T10:20:21Z</time>
      </trkpt>
      <trkpt lat="44.42836" lon="5.94785">
        <ele>768.79998779297</ele>
        <time>2013-05-12T10:20:26Z</time>
      </trkpt>
      <trkpt lat="44.42843" lon="5.94781">
        <ele>770.59997558594</ele>
        <time>2013-05-12T10:20:32Z</time>
      </trkpt>
      <trkpt lat="44.42852" lon="5.94782">
        <ele>772</ele>
        <time>2013-05-12T10:20:38Z</time>
      </trkpt>
      <trkpt lat="44.42865" lon="5.94778">
        <ele>772.79998779297</ele>
        <time>2013-05-12T10:20:49Z</time>
      </trkpt>
      <trkpt lat="44.42877" lon="5.94772">
        <ele>774.20001220703</ele>
        <time>2013-05-12T10:20:56Z</time>
      </trkpt>
      <trkpt lat="44.42886" lon="5.94773">
        <ele>774.20001220703</ele>
        <time>2013-05-12T10:21:01Z</time>
      </trkpt>
      <trkpt lat="44.42901" lon="5.94778">
        <ele>774.20001220703</ele>
        <time>2013-05-12T10:21:05Z</time>
      </trkpt>
      <trkpt lat="44.42926" lon="5.9478">
        <ele>774.20001220703</ele>
        <time>2013-05-12T10:21:11Z</time>
      </trkpt>
      <trkpt lat="44.42952" lon="5.94789">
        <ele>774.20001220703</ele>
        <time>2013-05-12T10:21:17Z</time>
      </trkpt>
      <trkpt lat="44.42962" lon="5.94787">
        <ele>774.20001220703</ele>
        <time>2013-05-12T10:21:20Z</time>
      </trkpt>
      <trkpt lat="44.42984" lon="5.94794">
        <ele>774.20001220703</ele>
        <time>2013-05-12T10:21:25Z</time>
      </trkpt>
      <trkpt lat="44.43006" lon="5.94798">
        <ele>772.79998779297</ele>
        <time>2013-05-12T10:21:29Z</time>
      </trkpt>
      <trkpt lat="44.43011" lon="5.94799">
        <ele>772.79998779297</ele>
        <time>2013-05-12T10:21:30Z</time>
      </trkpt>
      <trkpt lat="44.43023" lon="5.94801">
        <ele>772.79998779297</ele>
        <time>2013-05-12T10:21:33Z</time>
      </trkpt>
      <trkpt lat="44.4304" lon="5.94806">
        <ele>772.79998779297</ele>
        <time>2013-05-12T10:21:37Z</time>
      </trkpt>
      <trkpt lat="44.4305" lon="5.94804">
        <ele>771.59997558594</ele>
        <time>2013-05-12T10:21:39Z</time>
      </trkpt>
      <trkpt lat="44.43061" lon="5.94809">
        <ele>771.59997558594</ele>
        <time>2013-05-12T10:21:42Z</time>
      </trkpt>
      <trkpt lat="44.43064" lon="5.94811">
        <ele>770.20001220703</ele>
        <time>2013-05-12T10:21:43Z</time>
      </trkpt>
      <trkpt lat="44.43072" lon="5.94809">
        <ele>767</ele>
        <time>2013-05-12T10:21:49Z</time>
      </trkpt>
      <trkpt lat="44.43082" lon="5.94811">
        <ele>761.59997558594</ele>
        <time>2013-05-12T10:22:07Z</time>
      </trkpt>
      <trkpt lat="44.4309" lon="5.9482">
        <ele>760.79998779297</ele>
        <time>2013-05-12T10:22:12Z</time>
      </trkpt>
      <trkpt lat="44.43093" lon="5.94832">
        <ele>760</ele>
        <time>2013-05-12T10:22:26Z</time>
      </trkpt>
      <trkpt lat="44.43097" lon="5.94843">
        <ele>760</ele>
        <time>2013-05-12T10:22:32Z</time>
      </trkpt>
      <trkpt lat="44.43109" lon="5.94868">
        <ele>760</ele>
        <time>2013-05-12T10:22:38Z</time>
      </trkpt>
      <trkpt lat="44.43122" lon="5.94896">
        <ele>760</ele>
        <time>2013-05-12T10:22:45Z</time>
      </trkpt>
      <trkpt lat="44.43122" lon="5.94901">
        <ele>760</ele>
        <time>2013-05-12T10:22:46Z</time>
      </trkpt>
      <trkpt lat="44.43119" lon="5.94912">
        <ele>759</ele>
        <time>2013-05-12T10:22:48Z</time>
      </trkpt>
      <trkpt lat="44.43119" lon="5.94937">
        <ele>757.40002441406</ele>
        <time>2013-05-12T10:22:53Z</time>
      </trkpt>
      <trkpt lat="44.43129" lon="5.9497">
        <ele>757.40002441406</ele>
        <time>2013-05-12T10:22:58Z</time>
      </trkpt>
      <trkpt lat="44.4313" lon="5.94977">
        <ele>756.79998779297</ele>
        <time>2013-05-12T10:22:59Z</time>
      </trkpt>
      <trkpt lat="44.43133" lon="5.94994">
        <ele>756.79998779297</ele>
        <time>2013-05-12T10:23:01Z</time>
      </trkpt>
      <trkpt lat="44.43136" lon="5.95012">
        <ele>756.79998779297</ele>
        <time>2013-05-12T10:23:03Z</time>
      </trkpt>
      <trkpt lat="44.43139" lon="5.9502">
        <ele>755.79998779297</ele>
        <time>2013-05-12T10:23:04Z</time>
      </trkpt>
      <trkpt lat="44.43143" lon="5.95035">
        <ele>755.79998779297</ele>
        <time>2013-05-12T10:23:06Z</time>
      </trkpt>
      <trkpt lat="44.43143" lon="5.95044">
        <ele>755.79998779297</ele>
        <time>2013-05-12T10:23:07Z</time>
      </trkpt>
      <trkpt lat="44.43137" lon="5.95072">
        <ele>753</ele>
        <time>2013-05-12T10:23:10Z</time>
      </trkpt>
      <trkpt lat="44.43134" lon="5.95081">
        <ele>753</ele>
        <time>2013-05-12T10:23:11Z</time>
      </trkpt>
      <trkpt lat="44.43117" lon="5.9511">
        <ele>753</ele>
        <time>2013-05-12T10:23:15Z</time>
      </trkpt>
      <trkpt lat="44.4311" lon="5.95117">
        <ele>749.20001220703</ele>
        <time>2013-05-12T10:23:16Z</time>
      </trkpt>
      <trkpt lat="44.43101" lon="5.95131">
        <ele>749.20001220703</ele>
        <time>2013-05-12T10:23:18Z</time>
      </trkpt>
      <trkpt lat="44.43098" lon="5.95138">
        <ele>749.20001220703</ele>
        <time>2013-05-12T10:23:19Z</time>
      </trkpt>
      <trkpt lat="44.43091" lon="5.95154">
        <ele>745</ele>
        <time>2013-05-12T10:23:22Z</time>
      </trkpt>
      <trkpt lat="44.43089" lon="5.95162">
        <ele>745</ele>
        <time>2013-05-12T10:23:24Z</time>
      </trkpt>
      <trkpt lat="44.43093" lon="5.95164">
        <ele>745</ele>
        <time>2013-05-12T10:23:26Z</time>
      </trkpt>
      <trkpt lat="44.43115" lon="5.95154">
        <ele>743.20001220703</ele>
        <time>2013-05-12T10:23:32Z</time>
      </trkpt>
      <trkpt lat="44.43121" lon="5.95153">
        <ele>739.59997558594</ele>
        <time>2013-05-12T10:23:33Z</time>
      </trkpt>
      <trkpt lat="44.43131" lon="5.95146">
        <ele>739.59997558594</ele>
        <time>2013-05-12T10:23:35Z</time>
      </trkpt>
      <trkpt lat="44.43147" lon="5.95123">
        <ele>736</ele>
        <time>2013-05-12T10:23:39Z</time>
      </trkpt>
      <trkpt lat="44.43155" lon="5.95105">
        <ele>736</ele>
        <time>2013-05-12T10:23:42Z</time>
      </trkpt>
      <trkpt lat="44.43158" lon="5.95099">
        <ele>736</ele>
        <time>2013-05-12T10:23:43Z</time>
      </trkpt>
      <trkpt lat="44.43166" lon="5.95076">
        <ele>736</ele>
        <time>2013-05-12T10:23:47Z</time>
      </trkpt>
      <trkpt lat="44.43179" lon="5.9506">
        <ele>736</ele>
        <time>2013-05-12T10:23:51Z</time>
      </trkpt>
      <trkpt lat="44.4319" lon="5.95054">
        <ele>736</ele>
        <time>2013-05-12T10:23:54Z</time>
      </trkpt>
      <trkpt lat="44.432" lon="5.95051">
        <ele>736</ele>
        <time>2013-05-12T10:23:57Z</time>
      </trkpt>
      <trkpt lat="44.43218" lon="5.95039">
        <ele>736</ele>
        <time>2013-05-12T10:24:05Z</time>
      </trkpt>
      <trkpt lat="44.43223" lon="5.95033">
        <ele>736</ele>
        <time>2013-05-12T10:24:08Z</time>
      </trkpt>
      <trkpt lat="44.43225" lon="5.95026">
        <ele>736</ele>
        <time>2013-05-12T10:24:11Z</time>
      </trkpt>
      <trkpt lat="44.43231" lon="5.95007">
        <ele>737</ele>
        <time>2013-05-12T10:24:20Z</time>
      </trkpt>
      <trkpt lat="44.43235" lon="5.94998">
        <ele>737.59997558594</ele>
        <time>2013-05-12T10:24:25Z</time>
      </trkpt>
      <trkpt lat="44.43238" lon="5.94986">
        <ele>738.20001220703</ele>
        <time>2013-05-12T10:24:31Z</time>
      </trkpt>
      <trkpt lat="44.4324" lon="5.94973">
        <ele>739.40002441406</ele>
        <time>2013-05-12T10:24:37Z</time>
      </trkpt>
      <trkpt lat="44.43242" lon="5.9496">
        <ele>740.79998779297</ele>
        <time>2013-05-12T10:24:43Z</time>
      </trkpt>
      <trkpt lat="44.43245" lon="5.94955">
        <ele>740.79998779297</ele>
        <time>2013-05-12T10:24:46Z</time>
      </trkpt>
      <trkpt lat="44.43252" lon="5.94945">
        <ele>742.40002441406</ele>
        <time>2013-05-12T10:24:54Z</time>
      </trkpt>
      <trkpt lat="44.43259" lon="5.94938">
        <ele>743.79998779297</ele>
        <time>2013-05-12T10:25:00Z</time>
      </trkpt>
      <trkpt lat="44.43267" lon="5.94933">
        <ele>745.20001220703</ele>
        <time>2013-05-12T10:25:06Z</time>
      </trkpt>
      <trkpt lat="44.43274" lon="5.94934">
        <ele>745.59997558594</ele>
        <time>2013-05-12T10:25:11Z</time>
      </trkpt>
      <trkpt lat="44.4328" lon="5.94935">
        <ele>745.59997558594</ele>
        <time>2013-05-12T10:25:15Z</time>
      </trkpt>
      <trkpt lat="44.43295" lon="5.94938">
        <ele>747.40002441406</ele>
        <time>2013-05-12T10:25:23Z</time>
      </trkpt>
      <trkpt lat="44.43305" lon="5.94937">
        <ele>748.79998779297</ele>
        <time>2013-05-12T10:25:29Z</time>
      </trkpt>
      <trkpt lat="44.43314" lon="5.94937">
        <ele>749.40002441406</ele>
        <time>2013-05-12T10:25:34Z</time>
      </trkpt>
      <trkpt lat="44.43323" lon="5.94935">
        <ele>750</ele>
        <time>2013-05-12T10:25:40Z</time>
      </trkpt>
      <trkpt lat="44.43333" lon="5.94934">
        <ele>751.40002441406</ele>
        <time>2013-05-12T10:25:46Z</time>
      </trkpt>
      <trkpt lat="44.43343" lon="5.94933">
        <ele>752.59997558594</ele>
        <time>2013-05-12T10:25:52Z</time>
      </trkpt>
      <trkpt lat="44.43351" lon="5.94931">
        <ele>753.59997558594</ele>
        <time>2013-05-12T10:25:58Z</time>
      </trkpt>
      <trkpt lat="44.43359" lon="5.9493">
        <ele>754</ele>
        <time>2013-05-12T10:26:03Z</time>
      </trkpt>
      <trkpt lat="44.43365" lon="5.94929">
        <ele>754</ele>
        <time>2013-05-12T10:26:08Z</time>
      </trkpt>
      <trkpt lat="44.43375" lon="5.94927">
        <ele>755.59997558594</ele>
        <time>2013-05-12T10:26:15Z</time>
      </trkpt>
      <trkpt lat="44.43386" lon="5.94926">
        <ele>756.59997558594</ele>
        <time>2013-05-12T10:26:21Z</time>
      </trkpt>
      <trkpt lat="44.43394" lon="5.94927">
        <ele>757.20001220703</ele>
        <time>2013-05-12T10:26:26Z</time>
      </trkpt>
      <trkpt lat="44.43404" lon="5.94928">
        <ele>757.59997558594</ele>
        <time>2013-05-12T10:26:32Z</time>
      </trkpt>
      <trkpt lat="44.43411" lon="5.9493">
        <ele>757.59997558594</ele>
        <time>2013-05-12T10:26:36Z</time>
      </trkpt>
      <trkpt lat="44.43414" lon="5.94931">
        <ele>758.20001220703</ele>
        <time>2013-05-12T10:26:38Z</time>
      </trkpt>
      <trkpt lat="44.43424" lon="5.94934">
        <ele>759.59997558594</ele>
        <time>2013-05-12T10:26:44Z</time>
      </trkpt>
      <trkpt lat="44.43433" lon="5.94936">
        <ele>761</ele>
        <time>2013-05-12T10:26:50Z</time>
      </trkpt>
      <trkpt lat="44.43443" lon="5.94941">
        <ele>761.59997558594</ele>
        <time>2013-05-12T10:26:57Z</time>
      </trkpt>
      <trkpt lat="44.43456" lon="5.94946">
        <ele>762.20001220703</ele>
        <time>2013-05-12T10:27:06Z</time>
      </trkpt>
      <trkpt lat="44.43465" lon="5.94951">
        <ele>764.79998779297</ele>
        <time>2013-05-12T10:27:13Z</time>
      </trkpt>
      <trkpt lat="44.43473" lon="5.94954">
        <ele>765.40002441406</ele>
        <time>2013-05-12T10:27:18Z</time>
      </trkpt>
      <trkpt lat="44.43481" lon="5.94957">
        <ele>766.40002441406</ele>
        <time>2013-05-12T10:27:24Z</time>
      </trkpt>
      <trkpt lat="44.43499" lon="5.94959">
        <ele>768</ele>
        <time>2013-05-12T10:27:36Z</time>
      </trkpt>
      <trkpt lat="44.43504" lon="5.94958">
        <ele>768</ele>
        <time>2013-05-12T10:27:39Z</time>
      </trkpt>
      <trkpt lat="44.43515" lon="5.94951">
        <ele>769.59997558594</ele>
        <time>2013-05-12T10:27:47Z</time>
      </trkpt>
      <trkpt lat="44.43516" lon="5.9495">
        <ele>769.59997558594</ele>
        <time>2013-05-12T10:27:48Z</time>
      </trkpt>
      <trkpt lat="44.43522" lon="5.94942">
        <ele>770</ele>
        <time>2013-05-12T10:27:53Z</time>
      </trkpt>
      <trkpt lat="44.43526" lon="5.94936">
        <ele>770</ele>
        <time>2013-05-12T10:27:57Z</time>
      </trkpt>
      <trkpt lat="44.43534" lon="5.94927">
        <ele>771</ele>
        <time>2013-05-12T10:28:03Z</time>
      </trkpt>
      <trkpt lat="44.43542" lon="5.9492">
        <ele>772.40002441406</ele>
        <time>2013-05-12T10:28:10Z</time>
      </trkpt>
      <trkpt lat="44.43555" lon="5.94913">
        <ele>772.79998779297</ele>
        <time>2013-05-12T10:28:19Z</time>
      </trkpt>
      <trkpt lat="44.4356" lon="5.94912">
        <ele>773.20001220703</ele>
        <time>2013-05-12T10:28:22Z</time>
      </trkpt>
      <trkpt lat="44.43574" lon="5.94916">
        <ele>773.79998779297</ele>
        <time>2013-05-12T10:28:28Z</time>
      </trkpt>
      <trkpt lat="44.43589" lon="5.94921">
        <ele>774.59997558594</ele>
        <time>2013-05-12T10:28:34Z</time>
      </trkpt>
      <trkpt lat="44.43602" lon="5.94925">
        <ele>775.20001220703</ele>
        <time>2013-05-12T10:28:39Z</time>
      </trkpt>
      <trkpt lat="44.43612" lon="5.94929">
        <ele>775.20001220703</ele>
        <time>2013-05-12T10:28:43Z</time>
      </trkpt>
      <trkpt lat="44.43626" lon="5.94933">
        <ele>775.20001220703</ele>
        <time>2013-05-12T10:28:49Z</time>
      </trkpt>
      <trkpt lat="44.43637" lon="5.94935">
        <ele>775.20001220703</ele>
        <time>2013-05-12T10:28:55Z</time>
      </trkpt>
      <trkpt lat="44.43641" lon="5.94936">
        <ele>775.59997558594</ele>
        <time>2013-05-12T10:28:57Z</time>
      </trkpt>
      <trkpt lat="44.43651" lon="5.94941">
        <ele>778</ele>
        <time>2013-05-12T10:29:03Z</time>
      </trkpt>
      <trkpt lat="44.43664" lon="5.94951">
        <ele>779</ele>
        <time>2013-05-12T10:29:10Z</time>
      </trkpt>
      <trkpt lat="44.43672" lon="5.94962">
        <ele>779.79998779297</ele>
        <time>2013-05-12T10:29:16Z</time>
      </trkpt>
      <trkpt lat="44.4368" lon="5.94973">
        <ele>780.20001220703</ele>
        <time>2013-05-12T10:29:21Z</time>
      </trkpt>
      <trkpt lat="44.43684" lon="5.94981">
        <ele>780.59997558594</ele>
        <time>2013-05-12T10:29:25Z</time>
      </trkpt>
      <trkpt lat="44.43692" lon="5.94996">
        <ele>782</ele>
        <time>2013-05-12T10:29:33Z</time>
      </trkpt>
      <trkpt lat="44.437" lon="5.95005">
        <ele>782.59997558594</ele>
        <time>2013-05-12T10:29:39Z</time>
      </trkpt>
      <trkpt lat="44.43704" lon="5.95013">
        <ele>782.59997558594</ele>
        <time>2013-05-12T10:29:43Z</time>
      </trkpt>
      <trkpt lat="44.43712" lon="5.95022">
        <ele>783.79998779297</ele>
        <time>2013-05-12T10:29:49Z</time>
      </trkpt>
      <trkpt lat="44.43723" lon="5.95032">
        <ele>786</ele>
        <time>2013-05-12T10:29:56Z</time>
      </trkpt>
      <trkpt lat="44.43735" lon="5.95044">
        <ele>786.59997558594</ele>
        <time>2013-05-12T10:30:05Z</time>
      </trkpt>
      <trkpt lat="44.43748" lon="5.95053">
        <ele>787.59997558594</ele>
        <time>2013-05-12T10:30:13Z</time>
      </trkpt>
      <trkpt lat="44.43765" lon="5.95064">
        <ele>788.79998779297</ele>
        <time>2013-05-12T10:30:21Z</time>
      </trkpt>
      <trkpt lat="44.43781" lon="5.95071">
        <ele>788.79998779297</ele>
        <time>2013-05-12T10:30:27Z</time>
      </trkpt>
      <trkpt lat="44.438" lon="5.95079">
        <ele>788.79998779297</ele>
        <time>2013-05-12T10:30:33Z</time>
      </trkpt>
      <trkpt lat="44.43831" lon="5.95092">
        <ele>788.79998779297</ele>
        <time>2013-05-12T10:30:42Z</time>
      </trkpt>
      <trkpt lat="44.43863" lon="5.95102">
        <ele>788.79998779297</ele>
        <time>2013-05-12T10:30:50Z</time>
      </trkpt>
      <trkpt lat="44.43902" lon="5.95115">
        <ele>788.79998779297</ele>
        <time>2013-05-12T10:30:59Z</time>
      </trkpt>
      <trkpt lat="44.43922" lon="5.95132">
        <ele>788.79998779297</ele>
        <time>2013-05-12T10:31:04Z</time>
      </trkpt>
      <trkpt lat="44.43953" lon="5.95166">
        <ele>788.79998779297</ele>
        <time>2013-05-12T10:31:12Z</time>
      </trkpt>
      <trkpt lat="44.43989" lon="5.95211">
        <ele>788.79998779297</ele>
        <time>2013-05-12T10:31:22Z</time>
      </trkpt>
      <trkpt lat="44.43995" lon="5.95222">
        <ele>788.79998779297</ele>
        <time>2013-05-12T10:31:24Z</time>
      </trkpt>
      <trkpt lat="44.43998" lon="5.95234">
        <ele>788.79998779297</ele>
        <time>2013-05-12T10:31:26Z</time>
      </trkpt>
      <trkpt lat="44.44001" lon="5.95248">
        <ele>788.79998779297</ele>
        <time>2013-05-12T10:31:28Z</time>
      </trkpt>
      <trkpt lat="44.44001" lon="5.95269">
        <ele>788.79998779297</ele>
        <time>2013-05-12T10:31:31Z</time>
      </trkpt>
      <trkpt lat="44.43995" lon="5.95322">
        <ele>788.79998779297</ele>
        <time>2013-05-12T10:31:38Z</time>
      </trkpt>
      <trkpt lat="44.43987" lon="5.95371">
        <ele>788.79998779297</ele>
        <time>2013-05-12T10:31:45Z</time>
      </trkpt>
      <trkpt lat="44.4398" lon="5.95435">
        <ele>788.79998779297</ele>
        <time>2013-05-12T10:31:53Z</time>
      </trkpt>
      <trkpt lat="44.4398" lon="5.95444">
        <ele>788.79998779297</ele>
        <time>2013-05-12T10:31:54Z</time>
      </trkpt>
      <trkpt lat="44.43982" lon="5.9548">
        <ele>788.79998779297</ele>
        <time>2013-05-12T10:31:58Z</time>
      </trkpt>
      <trkpt lat="44.43993" lon="5.95531">
        <ele>788.79998779297</ele>
        <time>2013-05-12T10:32:04Z</time>
      </trkpt>
      <trkpt lat="44.44024" lon="5.95591">
        <ele>788.79998779297</ele>
        <time>2013-05-12T10:32:12Z</time>
      </trkpt>
      <trkpt lat="44.44042" lon="5.95643">
        <ele>788.79998779297</ele>
        <time>2013-05-12T10:32:18Z</time>
      </trkpt>
      <trkpt lat="44.44043" lon="5.95653">
        <ele>788.79998779297</ele>
        <time>2013-05-12T10:32:19Z</time>
      </trkpt>
      <trkpt lat="44.44047" lon="5.95702">
        <ele>787.79998779297</ele>
        <time>2013-05-12T10:32:24Z</time>
      </trkpt>
      <trkpt lat="44.44047" lon="5.95712">
        <ele>787.79998779297</ele>
        <time>2013-05-12T10:32:25Z</time>
      </trkpt>
      <trkpt lat="44.44047" lon="5.95744">
        <ele>787.79998779297</ele>
        <time>2013-05-12T10:32:28Z</time>
      </trkpt>
      <trkpt lat="44.44049" lon="5.95754">
        <ele>787.20001220703</ele>
        <time>2013-05-12T10:32:29Z</time>
      </trkpt>
      <trkpt lat="44.44052" lon="5.95764">
        <ele>786.40002441406</ele>
        <time>2013-05-12T10:32:30Z</time>
      </trkpt>
      <trkpt lat="44.44073" lon="5.9579">
        <ele>786.40002441406</ele>
        <time>2013-05-12T10:32:33Z</time>
      </trkpt>
      <trkpt lat="44.44094" lon="5.95793">
        <ele>785.79998779297</ele>
        <time>2013-05-12T10:32:36Z</time>
      </trkpt>
      <trkpt lat="44.44106" lon="5.95778">
        <ele>785.79998779297</ele>
        <time>2013-05-12T10:32:38Z</time>
      </trkpt>
      <trkpt lat="44.44114" lon="5.95758">
        <ele>785.79998779297</ele>
        <time>2013-05-12T10:32:40Z</time>
      </trkpt>
      <trkpt lat="44.44118" lon="5.95748">
        <ele>785</ele>
        <time>2013-05-12T10:32:41Z</time>
      </trkpt>
      <trkpt lat="44.44123" lon="5.95739">
        <ele>785</ele>
        <time>2013-05-12T10:32:42Z</time>
      </trkpt>
      <trkpt lat="44.44146" lon="5.95709">
        <ele>785</ele>
        <time>2013-05-12T10:32:46Z</time>
      </trkpt>
      <trkpt lat="44.44152" lon="5.95702">
        <ele>784</ele>
        <time>2013-05-12T10:32:47Z</time>
      </trkpt>
      <trkpt lat="44.44182" lon="5.95669">
        <ele>784</ele>
        <time>2013-05-12T10:32:52Z</time>
      </trkpt>
      <trkpt lat="44.4422" lon="5.95631">
        <ele>782</ele>
        <time>2013-05-12T10:32:58Z</time>
      </trkpt>
      <trkpt lat="44.44227" lon="5.95628">
        <ele>781.40002441406</ele>
        <time>2013-05-12T10:32:59Z</time>
      </trkpt>
      <trkpt lat="44.44242" lon="5.95626">
        <ele>781.40002441406</ele>
        <time>2013-05-12T10:33:01Z</time>
      </trkpt>
      <trkpt lat="44.44257" lon="5.95627">
        <ele>781.40002441406</ele>
        <time>2013-05-12T10:33:03Z</time>
      </trkpt>
      <trkpt lat="44.44264" lon="5.95629">
        <ele>780.59997558594</ele>
        <time>2013-05-12T10:33:04Z</time>
      </trkpt>
      <trkpt lat="44.44271" lon="5.95632">
        <ele>780.59997558594</ele>
        <time>2013-05-12T10:33:05Z</time>
      </trkpt>
      <trkpt lat="44.44305" lon="5.95647">
        <ele>779.79998779297</ele>
        <time>2013-05-12T10:33:10Z</time>
      </trkpt>
      <trkpt lat="44.44312" lon="5.9565">
        <ele>779.79998779297</ele>
        <time>2013-05-12T10:33:11Z</time>
      </trkpt>
      <trkpt lat="44.44347" lon="5.95664">
        <ele>778</ele>
        <time>2013-05-12T10:33:16Z</time>
      </trkpt>
      <trkpt lat="44.44361" lon="5.9567">
        <ele>778</ele>
        <time>2013-05-12T10:33:18Z</time>
      </trkpt>
      <trkpt lat="44.44382" lon="5.95691">
        <ele>776</ele>
        <time>2013-05-12T10:33:22Z</time>
      </trkpt>
      <trkpt lat="44.44391" lon="5.95703">
        <ele>776</ele>
        <time>2013-05-12T10:33:24Z</time>
      </trkpt>
      <trkpt lat="44.44403" lon="5.9572">
        <ele>775</ele>
        <time>2013-05-12T10:33:27Z</time>
      </trkpt>
      <trkpt lat="44.44408" lon="5.95729">
        <ele>775</ele>
        <time>2013-05-12T10:33:29Z</time>
      </trkpt>
      <trkpt lat="44.44411" lon="5.95749">
        <ele>775</ele>
        <time>2013-05-12T10:33:33Z</time>
      </trkpt>
      <trkpt lat="44.44411" lon="5.95754">
        <ele>775</ele>
        <time>2013-05-12T10:33:34Z</time>
      </trkpt>
      <trkpt lat="44.44407" lon="5.95777">
        <ele>775</ele>
        <time>2013-05-12T10:33:39Z</time>
      </trkpt>
      <trkpt lat="44.44395" lon="5.958">
        <ele>775</ele>
        <time>2013-05-12T10:33:45Z</time>
      </trkpt>
      <trkpt lat="44.44382" lon="5.95805">
        <ele>775</ele>
        <time>2013-05-12T10:33:49Z</time>
      </trkpt>
      <trkpt lat="44.4436" lon="5.95805">
        <ele>775</ele>
        <time>2013-05-12T10:33:56Z</time>
      </trkpt>
      <trkpt lat="44.44358" lon="5.95806">
        <ele>775.40002441406</ele>
        <time>2013-05-12T10:33:57Z</time>
      </trkpt>
      <trkpt lat="44.44349" lon="5.95806">
        <ele>776.79998779297</ele>
        <time>2013-05-12T10:34:00Z</time>
      </trkpt>
      <trkpt lat="44.44331" lon="5.95805">
        <ele>776.79998779297</ele>
        <time>2013-05-12T10:34:06Z</time>
      </trkpt>
      <trkpt lat="44.44328" lon="5.95805">
        <ele>777.79998779297</ele>
        <time>2013-05-12T10:34:07Z</time>
      </trkpt>
      <trkpt lat="44.44309" lon="5.95815">
        <ele>778.59997558594</ele>
        <time>2013-05-12T10:34:13Z</time>
      </trkpt>
      <trkpt lat="44.44302" lon="5.95825">
        <ele>778.59997558594</ele>
        <time>2013-05-12T10:34:15Z</time>
      </trkpt>
      <trkpt lat="44.44291" lon="5.9584">
        <ele>779.20001220703</ele>
        <time>2013-05-12T10:34:18Z</time>
      </trkpt>
      <trkpt lat="44.44282" lon="5.95854">
        <ele>779.20001220703</ele>
        <time>2013-05-12T10:34:22Z</time>
      </trkpt>
      <trkpt lat="44.44278" lon="5.95859">
        <ele>779.59997558594</ele>
        <time>2013-05-12T10:34:24Z</time>
      </trkpt>
      <trkpt lat="44.44267" lon="5.95875">
        <ele>779.59997558594</ele>
        <time>2013-05-12T10:34:32Z</time>
      </trkpt>
      <trkpt lat="44.44257" lon="5.95886">
        <ele>779.59997558594</ele>
        <time>2013-05-12T10:34:39Z</time>
      </trkpt>
      <trkpt lat="44.4425" lon="5.9589">
        <ele>780.59997558594</ele>
        <time>2013-05-12T10:34:43Z</time>
      </trkpt>
      <trkpt lat="44.44241" lon="5.959">
        <ele>781.79998779297</ele>
        <time>2013-05-12T10:34:49Z</time>
      </trkpt>
      <trkpt lat="44.44233" lon="5.95912">
        <ele>783</ele>
        <time>2013-05-12T10:34:55Z</time>
      </trkpt>
      <trkpt lat="44.44228" lon="5.95925">
        <ele>783.59997558594</ele>
        <time>2013-05-12T10:35:00Z</time>
      </trkpt>
      <trkpt lat="44.44225" lon="5.95932">
        <ele>783.59997558594</ele>
        <time>2013-05-12T10:35:03Z</time>
      </trkpt>
      <trkpt lat="44.44222" lon="5.95941">
        <ele>784.40002441406</ele>
        <time>2013-05-12T10:35:06Z</time>
      </trkpt>
      <trkpt lat="44.44219" lon="5.95958">
        <ele>785.79998779297</ele>
        <time>2013-05-12T10:35:12Z</time>
      </trkpt>
      <trkpt lat="44.44215" lon="5.95975">
        <ele>786.40002441406</ele>
        <time>2013-05-12T10:35:18Z</time>
      </trkpt>
      <trkpt lat="44.44204" lon="5.95995">
        <ele>786.40002441406</ele>
        <time>2013-05-12T10:35:26Z</time>
      </trkpt>
      <trkpt lat="44.44201" lon="5.96003">
        <ele>787.40002441406</ele>
        <time>2013-05-12T10:35:29Z</time>
      </trkpt>
      <trkpt lat="44.44197" lon="5.96017">
        <ele>787.40002441406</ele>
        <time>2013-05-12T10:35:33Z</time>
      </trkpt>
      <trkpt lat="44.44195" lon="5.96042">
        <ele>788.40002441406</ele>
        <time>2013-05-12T10:35:40Z</time>
      </trkpt>
      <trkpt lat="44.44198" lon="5.96064">
        <ele>788.79998779297</ele>
        <time>2013-05-12T10:35:46Z</time>
      </trkpt>
      <trkpt lat="44.44197" lon="5.96082">
        <ele>788.79998779297</ele>
        <time>2013-05-12T10:35:51Z</time>
      </trkpt>
      <trkpt lat="44.44185" lon="5.96096">
        <ele>789.40002441406</ele>
        <time>2013-05-12T10:35:57Z</time>
      </trkpt>
      <trkpt lat="44.4418" lon="5.96098">
        <ele>790</ele>
        <time>2013-05-12T10:35:59Z</time>
      </trkpt>
      <trkpt lat="44.44169" lon="5.96099">
        <ele>790</ele>
        <time>2013-05-12T10:36:03Z</time>
      </trkpt>
      <trkpt lat="44.4415" lon="5.96097">
        <ele>791.59997558594</ele>
        <time>2013-05-12T10:36:09Z</time>
      </trkpt>
      <trkpt lat="44.44143" lon="5.96098">
        <ele>793.20001220703</ele>
        <time>2013-05-12T10:36:11Z</time>
      </trkpt>
      <trkpt lat="44.44129" lon="5.96105">
        <ele>793.20001220703</ele>
        <time>2013-05-12T10:36:15Z</time>
      </trkpt>
      <trkpt lat="44.44121" lon="5.96113">
        <ele>794</ele>
        <time>2013-05-12T10:36:17Z</time>
      </trkpt>
      <trkpt lat="44.44112" lon="5.96127">
        <ele>794</ele>
        <time>2013-05-12T10:36:20Z</time>
      </trkpt>
      <trkpt lat="44.44103" lon="5.96152">
        <ele>794</ele>
        <time>2013-05-12T10:36:24Z</time>
      </trkpt>
      <trkpt lat="44.44099" lon="5.96166">
        <ele>794</ele>
        <time>2013-05-12T10:36:26Z</time>
      </trkpt>
      <trkpt lat="44.44085" lon="5.96213">
        <ele>794</ele>
        <time>2013-05-12T10:36:32Z</time>
      </trkpt>
      <trkpt lat="44.44074" lon="5.9625">
        <ele>793.59997558594</ele>
        <time>2013-05-12T10:36:36Z</time>
      </trkpt>
      <trkpt lat="44.44065" lon="5.9628">
        <ele>793.59997558594</ele>
        <time>2013-05-12T10:36:39Z</time>
      </trkpt>
      <trkpt lat="44.44056" lon="5.9631">
        <ele>792.59997558594</ele>
        <time>2013-05-12T10:36:42Z</time>
      </trkpt>
      <trkpt lat="44.44038" lon="5.96367">
        <ele>791.59997558594</ele>
        <time>2013-05-12T10:36:48Z</time>
      </trkpt>
      <trkpt lat="44.44035" lon="5.96382">
        <ele>791.59997558594</ele>
        <time>2013-05-12T10:36:51Z</time>
      </trkpt>
      <trkpt lat="44.44043" lon="5.96388">
        <ele>789.79998779297</ele>
        <time>2013-05-12T10:36:59Z</time>
      </trkpt>
      <trkpt lat="44.44056" lon="5.96394">
        <ele>789.79998779297</ele>
        <time>2013-05-12T10:37:28Z</time>
      </trkpt>
      <trkpt lat="44.44062" lon="5.96396">
        <ele>790.59997558594</ele>
        <time>2013-05-12T10:37:34Z</time>
      </trkpt>
      <trkpt lat="44.44072" lon="5.96399">
        <ele>792</ele>
        <time>2013-05-12T10:37:45Z</time>
      </trkpt>
      <trkpt lat="44.44077" lon="5.964">
        <ele>793.20001220703</ele>
        <time>2013-05-12T10:37:51Z</time>
      </trkpt>
      <trkpt lat="44.44083" lon="5.96401">
        <ele>794.20001220703</ele>
        <time>2013-05-12T10:37:57Z</time>
      </trkpt>
      <trkpt lat="44.44091" lon="5.96402">
        <ele>795.79998779297</ele>
        <time>2013-05-12T10:38:08Z</time>
      </trkpt>
      <trkpt lat="44.44101" lon="5.96406">
        <ele>798</ele>
        <time>2013-05-12T10:38:23Z</time>
      </trkpt>
      <trkpt lat="44.44115" lon="5.96402">
        <ele>800.20001220703</ele>
        <time>2013-05-12T10:38:43Z</time>
      </trkpt>
      <trkpt lat="44.4412" lon="5.96398">
        <ele>800.59997558594</ele>
        <time>2013-05-12T10:38:49Z</time>
      </trkpt>
      <trkpt lat="44.44133" lon="5.96395">
        <ele>802</ele>
        <time>2013-05-12T10:39:03Z</time>
      </trkpt>
      <trkpt lat="44.44137" lon="5.96404">
        <ele>803.79998779297</ele>
        <time>2013-05-12T10:39:14Z</time>
      </trkpt>
      <trkpt lat="44.44138" lon="5.96411">
        <ele>804.59997558594</ele>
        <time>2013-05-12T10:39:20Z</time>
      </trkpt>
      <trkpt lat="44.4414" lon="5.96422">
        <ele>806</ele>
        <time>2013-05-12T10:39:34Z</time>
      </trkpt>
      <trkpt lat="44.44142" lon="5.96435">
        <ele>806</ele>
        <time>2013-05-12T10:39:41Z</time>
      </trkpt>
      <trkpt lat="44.44144" lon="5.9644">
        <ele>806.79998779297</ele>
        <time>2013-05-12T10:39:47Z</time>
      </trkpt>
      <trkpt lat="44.44145" lon="5.96451">
        <ele>808.20001220703</ele>
        <time>2013-05-12T10:40:08Z</time>
      </trkpt>
      <trkpt lat="44.4415" lon="5.96466">
        <ele>808.20001220703</ele>
        <time>2013-05-12T10:40:15Z</time>
      </trkpt>
      <trkpt lat="44.44153" lon="5.96472">
        <ele>809</ele>
        <time>2013-05-12T10:40:18Z</time>
      </trkpt>
      <trkpt lat="44.44154" lon="5.9648">
        <ele>809.40002441406</ele>
        <time>2013-05-12T10:40:23Z</time>
      </trkpt>
      <trkpt lat="44.44159" lon="5.96494">
        <ele>809.79998779297</ele>
        <time>2013-05-12T10:40:29Z</time>
      </trkpt>
      <trkpt lat="44.44162" lon="5.96511">
        <ele>810.20001220703</ele>
        <time>2013-05-12T10:40:35Z</time>
      </trkpt>
      <trkpt lat="44.44165" lon="5.96527">
        <ele>810.20001220703</ele>
        <time>2013-05-12T10:40:42Z</time>
      </trkpt>
      <trkpt lat="44.44172" lon="5.96537">
        <ele>810.20001220703</ele>
        <time>2013-05-12T10:40:47Z</time>
      </trkpt>
      <trkpt lat="44.4418" lon="5.96539">
        <ele>810.20001220703</ele>
        <time>2013-05-12T10:40:54Z</time>
      </trkpt>
      <trkpt lat="44.4419" lon="5.96541">
        <ele>810.79998779297</ele>
        <time>2013-05-12T10:41:03Z</time>
      </trkpt>
      <trkpt lat="44.44202" lon="5.96549">
        <ele>812.20001220703</ele>
        <time>2013-05-12T10:41:15Z</time>
      </trkpt>
      <trkpt lat="44.44207" lon="5.96551">
        <ele>813.40002441406</ele>
        <time>2013-05-12T10:41:24Z</time>
      </trkpt>
      <trkpt lat="44.4421" lon="5.9655">
        <ele>814.59997558594</ele>
        <time>2013-05-12T10:41:27Z</time>
      </trkpt>
      <trkpt lat="44.44212" lon="5.9655">
        <ele>814.59997558594</ele>
        <time>2013-05-12T10:41:29Z</time>
      </trkpt>
      <trkpt lat="44.44221" lon="5.96549">
        <ele>815.20001220703</ele>
        <time>2013-05-12T10:41:38Z</time>
      </trkpt>
      <trkpt lat="44.44226" lon="5.9655">
        <ele>816</ele>
        <time>2013-05-12T10:41:44Z</time>
      </trkpt>
      <trkpt lat="44.44232" lon="5.9655">
        <ele>816.59997558594</ele>
        <time>2013-05-12T10:41:50Z</time>
      </trkpt>
      <trkpt lat="44.44236" lon="5.96536">
        <ele>819.20001220703</ele>
        <time>2013-05-12T10:45:07Z</time>
      </trkpt>
      <trkpt lat="44.44246" lon="5.96513">
        <ele>819.20001220703</ele>
        <time>2013-05-12T10:45:17Z</time>
      </trkpt>
      <trkpt lat="44.44254" lon="5.9649">
        <ele>819.20001220703</ele>
        <time>2013-05-12T10:45:26Z</time>
      </trkpt>
      <trkpt lat="44.44256" lon="5.96485">
        <ele>819.59997558594</ele>
        <time>2013-05-12T10:45:28Z</time>
      </trkpt>
      <trkpt lat="44.4426" lon="5.96471">
        <ele>820.20001220703</ele>
        <time>2013-05-12T10:45:34Z</time>
      </trkpt>
      <trkpt lat="44.44265" lon="5.96457">
        <ele>820.59997558594</ele>
        <time>2013-05-12T10:45:40Z</time>
      </trkpt>
      <trkpt lat="44.44267" lon="5.96449">
        <ele>820.59997558594</ele>
        <time>2013-05-12T10:45:43Z</time>
      </trkpt>
      <trkpt lat="44.44272" lon="5.96429">
        <ele>822.59997558594</ele>
        <time>2013-05-12T10:45:51Z</time>
      </trkpt>
      <trkpt lat="44.44276" lon="5.96415">
        <ele>824</ele>
        <time>2013-05-12T10:45:57Z</time>
      </trkpt>
      <trkpt lat="44.44281" lon="5.96405">
        <ele>824</ele>
        <time>2013-05-12T10:46:02Z</time>
      </trkpt>
      <trkpt lat="44.44287" lon="5.96391">
        <ele>824.79998779297</ele>
        <time>2013-05-12T10:46:08Z</time>
      </trkpt>
      <trkpt lat="44.44289" lon="5.96389">
        <ele>825.20001220703</ele>
        <time>2013-05-12T10:46:09Z</time>
      </trkpt>
      <trkpt lat="44.44292" lon="5.96384">
        <ele>825.20001220703</ele>
        <time>2013-05-12T10:46:12Z</time>
      </trkpt>
      <trkpt lat="44.44294" lon="5.96379">
        <ele>825.79998779297</ele>
        <time>2013-05-12T10:46:14Z</time>
      </trkpt>
      <trkpt lat="44.443" lon="5.96369">
        <ele>825.79998779297</ele>
        <time>2013-05-12T10:46:19Z</time>
      </trkpt>
      <trkpt lat="44.44316" lon="5.96348">
        <ele>826.20001220703</ele>
        <time>2013-05-12T10:46:31Z</time>
      </trkpt>
      <trkpt lat="44.44329" lon="5.96334">
        <ele>827.20001220703</ele>
        <time>2013-05-12T10:46:40Z</time>
      </trkpt>
      <trkpt lat="44.44333" lon="5.96331">
        <ele>827.20001220703</ele>
        <time>2013-05-12T10:46:42Z</time>
      </trkpt>
      <trkpt lat="44.44339" lon="5.96326">
        <ele>827.79998779297</ele>
        <time>2013-05-12T10:46:45Z</time>
      </trkpt>
      <trkpt lat="44.44344" lon="5.96322">
        <ele>827.79998779297</ele>
        <time>2013-05-12T10:46:48Z</time>
      </trkpt>
      <trkpt lat="44.44349" lon="5.96318">
        <ele>828.40002441406</ele>
        <time>2013-05-12T10:46:51Z</time>
      </trkpt>
      <trkpt lat="44.44352" lon="5.96315">
        <ele>828.40002441406</ele>
        <time>2013-05-12T10:46:53Z</time>
      </trkpt>
      <trkpt lat="44.44366" lon="5.96303">
        <ele>829.59997558594</ele>
        <time>2013-05-12T10:47:00Z</time>
      </trkpt>
      <trkpt lat="44.4437" lon="5.96299">
        <ele>830.20001220703</ele>
        <time>2013-05-12T10:47:02Z</time>
      </trkpt>
      <trkpt lat="44.44371" lon="5.96296">
        <ele>830.79998779297</ele>
        <time>2013-05-12T10:47:03Z</time>
      </trkpt>
      <trkpt lat="44.4438" lon="5.9628">
        <ele>830.79998779297</ele>
        <time>2013-05-12T10:47:08Z</time>
      </trkpt>
      <trkpt lat="44.44391" lon="5.96253">
        <ele>830.79998779297</ele>
        <time>2013-05-12T10:47:16Z</time>
      </trkpt>
      <trkpt lat="44.44398" lon="5.96229">
        <ele>830.79998779297</ele>
        <time>2013-05-12T10:47:23Z</time>
      </trkpt>
      <trkpt lat="44.44404" lon="5.962">
        <ele>830.79998779297</ele>
        <time>2013-05-12T10:47:31Z</time>
      </trkpt>
      <trkpt lat="44.44407" lon="5.9618">
        <ele>831.40002441406</ele>
        <time>2013-05-12T10:47:37Z</time>
      </trkpt>
      <trkpt lat="44.44407" lon="5.96177">
        <ele>831.40002441406</ele>
        <time>2013-05-12T10:47:38Z</time>
      </trkpt>
      <trkpt lat="44.4441" lon="5.96161">
        <ele>832.20001220703</ele>
        <time>2013-05-12T10:47:43Z</time>
      </trkpt>
      <trkpt lat="44.44413" lon="5.96151">
        <ele>832.20001220703</ele>
        <time>2013-05-12T10:47:46Z</time>
      </trkpt>
      <trkpt lat="44.44417" lon="5.96144">
        <ele>833.20001220703</ele>
        <time>2013-05-12T10:47:49Z</time>
      </trkpt>
      <trkpt lat="44.44423" lon="5.96139">
        <ele>833.20001220703</ele>
        <time>2013-05-12T10:47:52Z</time>
      </trkpt>
      <trkpt lat="44.44439" lon="5.9613">
        <ele>834.59997558594</ele>
        <time>2013-05-12T10:48:00Z</time>
      </trkpt>
      <trkpt lat="44.44442" lon="5.9613">
        <ele>835.20001220703</ele>
        <time>2013-05-12T10:48:01Z</time>
      </trkpt>
      <trkpt lat="44.44453" lon="5.96131">
        <ele>835.59997558594</ele>
        <time>2013-05-12T10:48:06Z</time>
      </trkpt>
      <trkpt lat="44.44481" lon="5.96137">
        <ele>835.59997558594</ele>
        <time>2013-05-12T10:48:14Z</time>
      </trkpt>
      <trkpt lat="44.44499" lon="5.96135">
        <ele>835.59997558594</ele>
        <time>2013-05-12T10:48:19Z</time>
      </trkpt>
      <trkpt lat="44.44513" lon="5.96134">
        <ele>835.59997558594</ele>
        <time>2013-05-12T10:48:22Z</time>
      </trkpt>
      <trkpt lat="44.44523" lon="5.96137">
        <ele>835.59997558594</ele>
        <time>2013-05-12T10:48:24Z</time>
      </trkpt>
      <trkpt lat="44.44537" lon="5.96151">
        <ele>835.59997558594</ele>
        <time>2013-05-12T10:48:27Z</time>
      </trkpt>
      <trkpt lat="44.44542" lon="5.96156">
        <ele>835.59997558594</ele>
        <time>2013-05-12T10:48:28Z</time>
      </trkpt>
      <trkpt lat="44.44554" lon="5.96159">
        <ele>835</ele>
        <time>2013-05-12T10:48:30Z</time>
      </trkpt>
      <trkpt lat="44.4456" lon="5.96156">
        <ele>835</ele>
        <time>2013-05-12T10:48:31Z</time>
      </trkpt>
      <trkpt lat="44.44569" lon="5.96141">
        <ele>835</ele>
        <time>2013-05-12T10:48:33Z</time>
      </trkpt>
      <trkpt lat="44.44575" lon="5.96124">
        <ele>834.59997558594</ele>
        <time>2013-05-12T10:48:35Z</time>
      </trkpt>
      <trkpt lat="44.44576" lon="5.96116">
        <ele>834</ele>
        <time>2013-05-12T10:48:36Z</time>
      </trkpt>
      <trkpt lat="44.44577" lon="5.96108">
        <ele>834</ele>
        <time>2013-05-12T10:48:37Z</time>
      </trkpt>
      <trkpt lat="44.44581" lon="5.96088">
        <ele>834</ele>
        <time>2013-05-12T10:48:40Z</time>
      </trkpt>
      <trkpt lat="44.44596" lon="5.9607">
        <ele>833.40002441406</ele>
        <time>2013-05-12T10:48:45Z</time>
      </trkpt>
      <trkpt lat="44.44598" lon="5.96067">
        <ele>833.40002441406</ele>
        <time>2013-05-12T10:48:46Z</time>
      </trkpt>
      <trkpt lat="44.446" lon="5.96065">
        <ele>832</ele>
        <time>2013-05-12T10:48:47Z</time>
      </trkpt>
      <trkpt lat="44.44613" lon="5.96056">
        <ele>832</ele>
        <time>2013-05-12T10:48:52Z</time>
      </trkpt>
      <trkpt lat="44.44626" lon="5.9605">
        <ele>832</ele>
        <time>2013-05-12T10:48:57Z</time>
      </trkpt>
      <trkpt lat="44.44632" lon="5.96048">
        <ele>830.79998779297</ele>
        <time>2013-05-12T10:48:59Z</time>
      </trkpt>
      <trkpt lat="44.44653" lon="5.96046">
        <ele>832.20001220703</ele>
        <time>2013-05-12T10:49:08Z</time>
      </trkpt>
      <trkpt lat="44.44666" lon="5.96047">
        <ele>833.20001220703</ele>
        <time>2013-05-12T10:49:14Z</time>
      </trkpt>
      <trkpt lat="44.44677" lon="5.96047">
        <ele>833.59997558594</ele>
        <time>2013-05-12T10:49:20Z</time>
      </trkpt>
      <trkpt lat="44.44683" lon="5.96047">
        <ele>834.20001220703</ele>
        <time>2013-05-12T10:49:23Z</time>
      </trkpt>
      <trkpt lat="44.44697" lon="5.96047">
        <ele>834.59997558594</ele>
        <time>2013-05-12T10:49:31Z</time>
      </trkpt>
      <trkpt lat="44.44707" lon="5.96049">
        <ele>835.79998779297</ele>
        <time>2013-05-12T10:49:37Z</time>
      </trkpt>
      <trkpt lat="44.44717" lon="5.96049">
        <ele>837.79998779297</ele>
        <time>2013-05-12T10:49:43Z</time>
      </trkpt>
      <trkpt lat="44.4472" lon="5.9605">
        <ele>838.20001220703</ele>
        <time>2013-05-12T10:49:45Z</time>
      </trkpt>
      <trkpt lat="44.44733" lon="5.96051">
        <ele>839.40002441406</ele>
        <time>2013-05-12T10:49:53Z</time>
      </trkpt>
      <trkpt lat="44.44749" lon="5.96051">
        <ele>840.40002441406</ele>
        <time>2013-05-12T10:50:02Z</time>
      </trkpt>
      <trkpt lat="44.4477" lon="5.96052">
        <ele>840.40002441406</ele>
        <time>2013-05-12T10:50:11Z</time>
      </trkpt>
      <trkpt lat="44.44774" lon="5.96052">
        <ele>840.79998779297</ele>
        <time>2013-05-12T10:50:13Z</time>
      </trkpt>
      <trkpt lat="44.44786" lon="5.96055">
        <ele>841.40002441406</ele>
        <time>2013-05-12T10:50:18Z</time>
      </trkpt>
      <trkpt lat="44.44801" lon="5.96055">
        <ele>842.20001220703</ele>
        <time>2013-05-12T10:50:24Z</time>
      </trkpt>
      <trkpt lat="44.44822" lon="5.96057">
        <ele>842.79998779297</ele>
        <time>2013-05-12T10:50:32Z</time>
      </trkpt>
      <trkpt lat="44.44844" lon="5.96046">
        <ele>842.79998779297</ele>
        <time>2013-05-12T10:50:39Z</time>
      </trkpt>
      <trkpt lat="44.44852" lon="5.96044">
        <ele>843.59997558594</ele>
        <time>2013-05-12T10:50:42Z</time>
      </trkpt>
      <trkpt lat="44.44862" lon="5.96043">
        <ele>844</ele>
        <time>2013-05-12T10:50:47Z</time>
      </trkpt>
      <trkpt lat="44.44874" lon="5.96042">
        <ele>845</ele>
        <time>2013-05-12T10:50:53Z</time>
      </trkpt>
      <trkpt lat="44.44885" lon="5.96041">
        <ele>845.59997558594</ele>
        <time>2013-05-12T10:50:59Z</time>
      </trkpt>
      <trkpt lat="44.44894" lon="5.96038">
        <ele>846.20001220703</ele>
        <time>2013-05-12T10:51:04Z</time>
      </trkpt>
      <trkpt lat="44.44904" lon="5.9603">
        <ele>847.40002441406</ele>
        <time>2013-05-12T10:51:10Z</time>
      </trkpt>
      <trkpt lat="44.44906" lon="5.96029">
        <ele>848.20001220703</ele>
        <time>2013-05-12T10:51:11Z</time>
      </trkpt>
      <trkpt lat="44.44915" lon="5.96018">
        <ele>848.79998779297</ele>
        <time>2013-05-12T10:51:17Z</time>
      </trkpt>
      <trkpt lat="44.44924" lon="5.96006">
        <ele>849.79998779297</ele>
        <time>2013-05-12T10:51:23Z</time>
      </trkpt>
      <trkpt lat="44.44931" lon="5.95999">
        <ele>849.79998779297</ele>
        <time>2013-05-12T10:51:28Z</time>
      </trkpt>
      <trkpt lat="44.44945" lon="5.95996">
        <ele>850.40002441406</ele>
        <time>2013-05-12T10:51:34Z</time>
      </trkpt>
      <trkpt lat="44.44962" lon="5.95996">
        <ele>851</ele>
        <time>2013-05-12T10:51:40Z</time>
      </trkpt>
      <trkpt lat="44.44977" lon="5.95999">
        <ele>851.59997558594</ele>
        <time>2013-05-12T10:51:44Z</time>
      </trkpt>
      <trkpt lat="44.44981" lon="5.96003">
        <ele>851.59997558594</ele>
        <time>2013-05-12T10:51:45Z</time>
      </trkpt>
      <trkpt lat="44.45009" lon="5.96022">
        <ele>851.59997558594</ele>
        <time>2013-05-12T10:51:49Z</time>
      </trkpt>
      <trkpt lat="44.45044" lon="5.96051">
        <ele>851.59997558594</ele>
        <time>2013-05-12T10:51:53Z</time>
      </trkpt>
      <trkpt lat="44.45058" lon="5.9606">
        <ele>851.59997558594</ele>
        <time>2013-05-12T10:51:55Z</time>
      </trkpt>
      <trkpt lat="44.45064" lon="5.96061">
        <ele>851.59997558594</ele>
        <time>2013-05-12T10:51:56Z</time>
      </trkpt>
      <trkpt lat="44.4508" lon="5.96049">
        <ele>850.59997558594</ele>
        <time>2013-05-12T10:51:59Z</time>
      </trkpt>
      <trkpt lat="44.45081" lon="5.96046">
        <ele>849.79998779297</ele>
        <time>2013-05-12T10:52:00Z</time>
      </trkpt>
      <trkpt lat="44.4508" lon="5.96041">
        <ele>849.79998779297</ele>
        <time>2013-05-12T10:52:02Z</time>
      </trkpt>
      <trkpt lat="44.45082" lon="5.96041">
        <ele>848.79998779297</ele>
        <time>2013-05-12T10:52:05Z</time>
      </trkpt>
      <trkpt lat="44.45107" lon="5.96063">
        <ele>852.20001220703</ele>
        <time>2013-05-12T10:53:15Z</time>
      </trkpt>
      <trkpt lat="44.45114" lon="5.96072">
        <ele>852.59997558594</ele>
        <time>2013-05-12T10:53:20Z</time>
      </trkpt>
      <trkpt lat="44.45121" lon="5.96079">
        <ele>853.59997558594</ele>
        <time>2013-05-12T10:53:26Z</time>
      </trkpt>
      <trkpt lat="44.45129" lon="5.96087">
        <ele>854</ele>
        <time>2013-05-12T10:53:32Z</time>
      </trkpt>
      <trkpt lat="44.45136" lon="5.96094">
        <ele>855</ele>
        <time>2013-05-12T10:53:37Z</time>
      </trkpt>
      <trkpt lat="44.45143" lon="5.96099">
        <ele>856</ele>
        <time>2013-05-12T10:53:43Z</time>
      </trkpt>
      <trkpt lat="44.45153" lon="5.96106">
        <ele>857.20001220703</ele>
        <time>2013-05-12T10:53:49Z</time>
      </trkpt>
      <trkpt lat="44.45161" lon="5.96113">
        <ele>857.59997558594</ele>
        <time>2013-05-12T10:53:55Z</time>
      </trkpt>
      <trkpt lat="44.45169" lon="5.96121">
        <ele>858.20001220703</ele>
        <time>2013-05-12T10:54:01Z</time>
      </trkpt>
      <trkpt lat="44.4518" lon="5.96131">
        <ele>858.59997558594</ele>
        <time>2013-05-12T10:54:07Z</time>
      </trkpt>
      <trkpt lat="44.45182" lon="5.96135">
        <ele>858.59997558594</ele>
        <time>2013-05-12T10:54:09Z</time>
      </trkpt>
      <trkpt lat="44.45187" lon="5.96141">
        <ele>859.20001220703</ele>
        <time>2013-05-12T10:54:13Z</time>
      </trkpt>
      <trkpt lat="44.45193" lon="5.96147">
        <ele>859.79998779297</ele>
        <time>2013-05-12T10:54:17Z</time>
      </trkpt>
      <trkpt lat="44.45195" lon="5.9615">
        <ele>860.20001220703</ele>
        <time>2013-05-12T10:54:19Z</time>
      </trkpt>
      <trkpt lat="44.45201" lon="5.96159">
        <ele>860.20001220703</ele>
        <time>2013-05-12T10:54:24Z</time>
      </trkpt>
      <trkpt lat="44.45201" lon="5.9616">
        <ele>860.79998779297</ele>
        <time>2013-05-12T10:54:25Z</time>
      </trkpt>
      <trkpt lat="44.45213" lon="5.96168">
        <ele>863.20001220703</ele>
        <time>2013-05-12T10:54:36Z</time>
      </trkpt>
      <trkpt lat="44.45218" lon="5.96172">
        <ele>863.20001220703</ele>
        <time>2013-05-12T10:54:40Z</time>
      </trkpt>
      <trkpt lat="44.45221" lon="5.96173">
        <ele>863.79998779297</ele>
        <time>2013-05-12T10:54:42Z</time>
      </trkpt>
      <trkpt lat="44.45226" lon="5.96181">
        <ele>864.20001220703</ele>
        <time>2013-05-12T10:54:48Z</time>
      </trkpt>
      <trkpt lat="44.4523" lon="5.96188">
        <ele>864.59997558594</ele>
        <time>2013-05-12T10:54:54Z</time>
      </trkpt>
      <trkpt lat="44.45232" lon="5.96191">
        <ele>865.40002441406</ele>
        <time>2013-05-12T10:54:59Z</time>
      </trkpt>
      <trkpt lat="44.45242" lon="5.96199">
        <ele>867.40002441406</ele>
        <time>2013-05-12T10:55:14Z</time>
      </trkpt>
      <trkpt lat="44.45255" lon="5.96193">
        <ele>870.20001220703</ele>
        <time>2013-05-12T10:55:30Z</time>
      </trkpt>
      <trkpt lat="44.45262" lon="5.96197">
        <ele>869.40002441406</ele>
        <time>2013-05-12T10:55:34Z</time>
      </trkpt>
      <trkpt lat="44.45274" lon="5.96194">
        <ele>869.40002441406</ele>
        <time>2013-05-12T10:55:38Z</time>
      </trkpt>
      <trkpt lat="44.4528" lon="5.96178">
        <ele>868.59997558594</ele>
        <time>2013-05-12T10:55:45Z</time>
      </trkpt>
      <trkpt lat="44.4529" lon="5.96173">
        <ele>876.79998779297</ele>
        <time>2013-05-12T10:57:42Z</time>
      </trkpt>
      <trkpt lat="44.453" lon="5.96178">
        <ele>885.79998779297</ele>
        <time>2013-05-12T10:59:22Z</time>
      </trkpt>
      <trkpt lat="44.45303" lon="5.96184">
        <ele>891</ele>
        <time>2013-05-12T10:59:56Z</time>
      </trkpt>
      <trkpt lat="44.45303" lon="5.96191">
        <ele>892.40002441406</ele>
        <time>2013-05-12T11:00:02Z</time>
      </trkpt>
      <trkpt lat="44.45306" lon="5.9621">
        <ele>894</ele>
        <time>2013-05-12T11:00:14Z</time>
      </trkpt>
      <trkpt lat="44.4531" lon="5.96218">
        <ele>894.79998779297</ele>
        <time>2013-05-12T11:00:20Z</time>
      </trkpt>
      <trkpt lat="44.45314" lon="5.96224">
        <ele>894.79998779297</ele>
        <time>2013-05-12T11:00:26Z</time>
      </trkpt>
      <trkpt lat="44.45323" lon="5.96236">
        <ele>895.79998779297</ele>
        <time>2013-05-12T11:00:37Z</time>
      </trkpt>
      <trkpt lat="44.45335" lon="5.96245">
        <ele>897</ele>
        <time>2013-05-12T11:00:43Z</time>
      </trkpt>
      <trkpt lat="44.45346" lon="5.9626">
        <ele>897.40002441406</ele>
        <time>2013-05-12T11:01:00Z</time>
      </trkpt>
      <trkpt lat="44.45351" lon="5.9627">
        <ele>899</ele>
        <time>2013-05-12T11:01:07Z</time>
      </trkpt>
      <trkpt lat="44.45359" lon="5.96281">
        <ele>900</ele>
        <time>2013-05-12T11:01:13Z</time>
      </trkpt>
      <trkpt lat="44.45362" lon="5.96284">
        <ele>900</ele>
        <time>2013-05-12T11:01:16Z</time>
      </trkpt>
      <trkpt lat="44.45368" lon="5.9629">
        <ele>900.79998779297</ele>
        <time>2013-05-12T11:01:24Z</time>
      </trkpt>
      <trkpt lat="44.45368" lon="5.963">
        <ele>902.40002441406</ele>
        <time>2013-05-12T11:01:36Z</time>
      </trkpt>
      <trkpt lat="44.4537" lon="5.96305">
        <ele>903</ele>
        <time>2013-05-12T11:01:41Z</time>
      </trkpt>
      <trkpt lat="44.45371" lon="5.96311">
        <ele>903</ele>
        <time>2013-05-12T11:01:46Z</time>
      </trkpt>
      <trkpt lat="44.4537" lon="5.96318">
        <ele>904.79998779297</ele>
        <time>2013-05-12T11:01:54Z</time>
      </trkpt>
      <trkpt lat="44.45369" lon="5.96323">
        <ele>905.20001220703</ele>
        <time>2013-05-12T11:02:01Z</time>
      </trkpt>
      <trkpt lat="44.45372" lon="5.96327">
        <ele>906.40002441406</ele>
        <time>2013-05-12T11:02:08Z</time>
      </trkpt>
      <trkpt lat="44.45375" lon="5.96332">
        <ele>907.40002441406</ele>
        <time>2013-05-12T11:02:19Z</time>
      </trkpt>
      <trkpt lat="44.4538" lon="5.96337">
        <ele>910.20001220703</ele>
        <time>2013-05-12T11:02:38Z</time>
      </trkpt>
      <trkpt lat="44.45391" lon="5.9633">
        <ele>913</ele>
        <time>2013-05-12T11:03:05Z</time>
      </trkpt>
      <trkpt lat="44.45397" lon="5.9633">
        <ele>918.20001220703</ele>
        <time>2013-05-12T11:05:51Z</time>
      </trkpt>
      <trkpt lat="44.45394" lon="5.96339">
        <ele>918.20001220703</ele>
        <time>2013-05-12T11:12:04Z</time>
      </trkpt>
      <trkpt lat="44.45393" lon="5.96344">
        <ele>918.20001220703</ele>
        <time>2013-05-12T11:12:05Z</time>
      </trkpt>
      <trkpt lat="44.45388" lon="5.96364">
        <ele>918.20001220703</ele>
        <time>2013-05-12T11:12:11Z</time>
      </trkpt>
      <trkpt lat="44.45391" lon="5.96383">
        <ele>918.20001220703</ele>
        <time>2013-05-12T11:12:17Z</time>
      </trkpt>
      <trkpt lat="44.45399" lon="5.9639">
        <ele>918.20001220703</ele>
        <time>2013-05-12T11:12:21Z</time>
      </trkpt>
      <trkpt lat="44.45411" lon="5.96397">
        <ele>918.20001220703</ele>
        <time>2013-05-12T11:12:25Z</time>
      </trkpt>
      <trkpt lat="44.45415" lon="5.96403">
        <ele>918.20001220703</ele>
        <time>2013-05-12T11:12:27Z</time>
      </trkpt>
      <trkpt lat="44.45422" lon="5.9641">
        <ele>918.20001220703</ele>
        <time>2013-05-12T11:12:30Z</time>
      </trkpt>
      <trkpt lat="44.45426" lon="5.96413">
        <ele>918.79998779297</ele>
        <time>2013-05-12T11:12:32Z</time>
      </trkpt>
      <trkpt lat="44.45433" lon="5.96416">
        <ele>918.79998779297</ele>
        <time>2013-05-12T11:12:36Z</time>
      </trkpt>
      <trkpt lat="44.45444" lon="5.96411">
        <ele>919.20001220703</ele>
        <time>2013-05-12T11:12:42Z</time>
      </trkpt>
      <trkpt lat="44.45455" lon="5.96407">
        <ele>919.59997558594</ele>
        <time>2013-05-12T11:12:48Z</time>
      </trkpt>
      <trkpt lat="44.45465" lon="5.96407">
        <ele>920.40002441406</ele>
        <time>2013-05-12T11:12:53Z</time>
      </trkpt>
      <trkpt lat="44.45475" lon="5.96412">
        <ele>921</ele>
        <time>2013-05-12T11:12:58Z</time>
      </trkpt>
      <trkpt lat="44.45481" lon="5.96413">
        <ele>922.20001220703</ele>
        <time>2013-05-12T11:13:01Z</time>
      </trkpt>
      <trkpt lat="44.45491" lon="5.96421">
        <ele>923</ele>
        <time>2013-05-12T11:13:06Z</time>
      </trkpt>
      <trkpt lat="44.45507" lon="5.96433">
        <ele>923</ele>
        <time>2013-05-12T11:13:13Z</time>
      </trkpt>
      <trkpt lat="44.45516" lon="5.96443">
        <ele>923.40002441406</ele>
        <time>2013-05-12T11:13:18Z</time>
      </trkpt>
      <trkpt lat="44.45529" lon="5.96451">
        <ele>923.79998779297</ele>
        <time>2013-05-12T11:13:23Z</time>
      </trkpt>
      <trkpt lat="44.45532" lon="5.96451">
        <ele>924.20001220703</ele>
        <time>2013-05-12T11:13:24Z</time>
      </trkpt>
      <trkpt lat="44.45544" lon="5.96451">
        <ele>924.20001220703</ele>
        <time>2013-05-12T11:13:27Z</time>
      </trkpt>
      <trkpt lat="44.45552" lon="5.96451">
        <ele>924.59997558594</ele>
        <time>2013-05-12T11:13:29Z</time>
      </trkpt>
      <trkpt lat="44.45568" lon="5.9646">
        <ele>924.59997558594</ele>
        <time>2013-05-12T11:13:33Z</time>
      </trkpt>
      <trkpt lat="44.45574" lon="5.96464">
        <ele>924</ele>
        <time>2013-05-12T11:13:35Z</time>
      </trkpt>
      <trkpt lat="44.45581" lon="5.96462">
        <ele>924</ele>
        <time>2013-05-12T11:13:37Z</time>
      </trkpt>
      <trkpt lat="44.45597" lon="5.96466">
        <ele>922.79998779297</ele>
        <time>2013-05-12T11:13:41Z</time>
      </trkpt>
      <trkpt lat="44.45601" lon="5.96469">
        <ele>922.79998779297</ele>
        <time>2013-05-12T11:13:42Z</time>
      </trkpt>
      <trkpt lat="44.45607" lon="5.96474">
        <ele>922.79998779297</ele>
        <time>2013-05-12T11:13:44Z</time>
      </trkpt>
      <trkpt lat="44.45613" lon="5.96485">
        <ele>920.79998779297</ele>
        <time>2013-05-12T11:13:47Z</time>
      </trkpt>
      <trkpt lat="44.45616" lon="5.96491">
        <ele>920.79998779297</ele>
        <time>2013-05-12T11:13:51Z</time>
      </trkpt>
      <trkpt lat="44.45621" lon="5.96493">
        <ele>919</ele>
        <time>2013-05-12T11:14:13Z</time>
      </trkpt>
      <trkpt lat="44.45626" lon="5.9649">
        <ele>919</ele>
        <time>2013-05-12T11:14:20Z</time>
      </trkpt>
      <trkpt lat="44.45636" lon="5.96492">
        <ele>919</ele>
        <time>2013-05-12T11:14:26Z</time>
      </trkpt>
      <trkpt lat="44.45647" lon="5.96498">
        <ele>919</ele>
        <time>2013-05-12T11:14:32Z</time>
      </trkpt>
      <trkpt lat="44.45655" lon="5.96505">
        <ele>920.20001220703</ele>
        <time>2013-05-12T11:14:39Z</time>
      </trkpt>
      <trkpt lat="44.45662" lon="5.96507">
        <ele>920.59997558594</ele>
        <time>2013-05-12T11:14:44Z</time>
      </trkpt>
      <trkpt lat="44.45675" lon="5.96517">
        <ele>920.59997558594</ele>
        <time>2013-05-12T11:14:49Z</time>
      </trkpt>
      <trkpt lat="44.45676" lon="5.96524">
        <ele>921.20001220703</ele>
        <time>2013-05-12T11:14:52Z</time>
      </trkpt>
      <trkpt lat="44.45678" lon="5.96538">
        <ele>922.20001220703</ele>
        <time>2013-05-12T11:14:58Z</time>
      </trkpt>
      <trkpt lat="44.45677" lon="5.96545">
        <ele>922.20001220703</ele>
        <time>2013-05-12T11:15:02Z</time>
      </trkpt>
      <trkpt lat="44.45678" lon="5.96559">
        <ele>923.59997558594</ele>
        <time>2013-05-12T11:15:10Z</time>
      </trkpt>
      <trkpt lat="44.45677" lon="5.9656">
        <ele>924.20001220703</ele>
        <time>2013-05-12T11:15:11Z</time>
      </trkpt>
      <trkpt lat="44.45681" lon="5.96561">
        <ele>925</ele>
        <time>2013-05-12T11:15:22Z</time>
      </trkpt>
      <trkpt lat="44.45686" lon="5.96577">
        <ele>927.59997558594</ele>
        <time>2013-05-12T11:17:43Z</time>
      </trkpt>
      <trkpt lat="44.45689" lon="5.96595">
        <ele>927.59997558594</ele>
        <time>2013-05-12T11:17:51Z</time>
      </trkpt>
      <trkpt lat="44.45691" lon="5.966">
        <ele>928.20001220703</ele>
        <time>2013-05-12T11:17:54Z</time>
      </trkpt>
      <trkpt lat="44.45692" lon="5.966">
        <ele>928.20001220703</ele>
        <time>2013-05-12T11:17:56Z</time>
      </trkpt>
      <trkpt lat="44.45702" lon="5.96614">
        <ele>930.20001220703</ele>
        <time>2013-05-12T11:18:15Z</time>
      </trkpt>
      <trkpt lat="44.45705" lon="5.96626">
        <ele>932</ele>
        <time>2013-05-12T11:18:23Z</time>
      </trkpt>
      <trkpt lat="44.45708" lon="5.96631">
        <ele>932</ele>
        <time>2013-05-12T11:18:27Z</time>
      </trkpt>
      <trkpt lat="44.45713" lon="5.96639">
        <ele>932.79998779297</ele>
        <time>2013-05-12T11:18:35Z</time>
      </trkpt>
      <trkpt lat="44.45716" lon="5.96642">
        <ele>932.79998779297</ele>
        <time>2013-05-12T11:18:38Z</time>
      </trkpt>
      <trkpt lat="44.4572" lon="5.96654">
        <ele>933.79998779297</ele>
        <time>2013-05-12T11:18:46Z</time>
      </trkpt>
      <trkpt lat="44.45722" lon="5.96657">
        <ele>933.79998779297</ele>
        <time>2013-05-12T11:18:48Z</time>
      </trkpt>
      <trkpt lat="44.45724" lon="5.96662">
        <ele>934.79998779297</ele>
        <time>2013-05-12T11:18:52Z</time>
      </trkpt>
      <trkpt lat="44.45726" lon="5.96671">
        <ele>936</ele>
        <time>2013-05-12T11:18:58Z</time>
      </trkpt>
      <trkpt lat="44.4573" lon="5.96678">
        <ele>937.20001220703</ele>
        <time>2013-05-12T11:19:04Z</time>
      </trkpt>
      <trkpt lat="44.45732" lon="5.96681">
        <ele>937.20001220703</ele>
        <time>2013-05-12T11:19:06Z</time>
      </trkpt>
      <trkpt lat="44.45739" lon="5.96696">
        <ele>939.79998779297</ele>
        <time>2013-05-12T11:19:21Z</time>
      </trkpt>
      <trkpt lat="44.45741" lon="5.96703">
        <ele>940.79998779297</ele>
        <time>2013-05-12T11:19:27Z</time>
      </trkpt>
      <trkpt lat="44.45743" lon="5.96711">
        <ele>941.40002441406</ele>
        <time>2013-05-12T11:19:33Z</time>
      </trkpt>
      <trkpt lat="44.45751" lon="5.96707">
        <ele>941.79998779297</ele>
        <time>2013-05-12T11:19:44Z</time>
      </trkpt>
      <trkpt lat="44.45755" lon="5.96699">
        <ele>943</ele>
        <time>2013-05-12T11:19:55Z</time>
      </trkpt>
      <trkpt lat="44.45761" lon="5.96699">
        <ele>944</ele>
        <time>2013-05-12T11:20:01Z</time>
      </trkpt>
      <trkpt lat="44.45774" lon="5.96702">
        <ele>947.20001220703</ele>
        <time>2013-05-12T11:20:20Z</time>
      </trkpt>
      <trkpt lat="44.45781" lon="5.96709">
        <ele>949.79998779297</ele>
        <time>2013-05-12T11:20:32Z</time>
      </trkpt>
      <trkpt lat="44.45783" lon="5.96714">
        <ele>950.40002441406</ele>
        <time>2013-05-12T11:20:37Z</time>
      </trkpt>
      <trkpt lat="44.45787" lon="5.96723">
        <ele>952</ele>
        <time>2013-05-12T11:20:49Z</time>
      </trkpt>
      <trkpt lat="44.4579" lon="5.96727">
        <ele>952.79998779297</ele>
        <time>2013-05-12T11:20:55Z</time>
      </trkpt>
      <trkpt lat="44.45794" lon="5.96733">
        <ele>954.20001220703</ele>
        <time>2013-05-12T11:21:06Z</time>
      </trkpt>
      <trkpt lat="44.45795" lon="5.96744">
        <ele>956.20001220703</ele>
        <time>2013-05-12T11:21:17Z</time>
      </trkpt>
      <trkpt lat="44.45797" lon="5.9675">
        <ele>958</ele>
        <time>2013-05-12T11:21:28Z</time>
      </trkpt>
      <trkpt lat="44.458" lon="5.96756">
        <ele>959.20001220703</ele>
        <time>2013-05-12T11:21:35Z</time>
      </trkpt>
      <trkpt lat="44.45802" lon="5.96761">
        <ele>960.40002441406</ele>
        <time>2013-05-12T11:21:41Z</time>
      </trkpt>
      <trkpt lat="44.45805" lon="5.9676">
        <ele>961.40002441406</ele>
        <time>2013-05-12T11:21:50Z</time>
      </trkpt>
      <trkpt lat="44.45812" lon="5.96759">
        <ele>963.59997558594</ele>
        <time>2013-05-12T11:22:04Z</time>
      </trkpt>
      <trkpt lat="44.45818" lon="5.96762">
        <ele>965</ele>
        <time>2013-05-12T11:22:25Z</time>
      </trkpt>
      <trkpt lat="44.45822" lon="5.96766">
        <ele>965.79998779297</ele>
        <time>2013-05-12T11:22:33Z</time>
      </trkpt>
      <trkpt lat="44.45829" lon="5.96772">
        <ele>967.79998779297</ele>
        <time>2013-05-12T11:22:44Z</time>
      </trkpt>
      <trkpt lat="44.4583" lon="5.96772">
        <ele>967.79998779297</ele>
        <time>2013-05-12T11:22:45Z</time>
      </trkpt>
      <trkpt lat="44.45837" lon="5.96781">
        <ele>971.40002441406</ele>
        <time>2013-05-12T11:23:02Z</time>
      </trkpt>
      <trkpt lat="44.45845" lon="5.96791">
        <ele>972.59997558594</ele>
        <time>2013-05-12T11:23:16Z</time>
      </trkpt>
      <trkpt lat="44.45854" lon="5.96784">
        <ele>973.40002441406</ele>
        <time>2013-05-12T11:23:25Z</time>
      </trkpt>
      <trkpt lat="44.45859" lon="5.96779">
        <ele>974.20001220703</ele>
        <time>2013-05-12T11:23:31Z</time>
      </trkpt>
      <trkpt lat="44.45861" lon="5.96778">
        <ele>974.20001220703</ele>
        <time>2013-05-12T11:23:34Z</time>
      </trkpt>
      <trkpt lat="44.45869" lon="5.96781">
        <ele>976.40002441406</ele>
        <time>2013-05-12T11:23:48Z</time>
      </trkpt>
      <trkpt lat="44.45873" lon="5.96784">
        <ele>977.59997558594</ele>
        <time>2013-05-12T11:23:54Z</time>
      </trkpt>
      <trkpt lat="44.45881" lon="5.9679">
        <ele>978.20001220703</ele>
        <time>2013-05-12T11:24:04Z</time>
      </trkpt>
      <trkpt lat="44.45882" lon="5.9679">
        <ele>978.79998779297</ele>
        <time>2013-05-12T11:24:05Z</time>
      </trkpt>
      <trkpt lat="44.45885" lon="5.96776">
        <ele>980.20001220703</ele>
        <time>2013-05-12T11:24:17Z</time>
      </trkpt>
      <trkpt lat="44.4589" lon="5.96775">
        <ele>980.59997558594</ele>
        <time>2013-05-12T11:24:22Z</time>
      </trkpt>
      <trkpt lat="44.45896" lon="5.96767">
        <ele>981</ele>
        <time>2013-05-12T11:24:32Z</time>
      </trkpt>
      <trkpt lat="44.45896" lon="5.96757">
        <ele>983.20001220703</ele>
        <time>2013-05-12T11:24:40Z</time>
      </trkpt>
      <trkpt lat="44.45901" lon="5.9675">
        <ele>984.20001220703</ele>
        <time>2013-05-12T11:24:51Z</time>
      </trkpt>
      <trkpt lat="44.45903" lon="5.96749">
        <ele>984.20001220703</ele>
        <time>2013-05-12T11:24:53Z</time>
      </trkpt>
      <trkpt lat="44.45912" lon="5.96739">
        <ele>985.59997558594</ele>
        <time>2013-05-12T11:25:08Z</time>
      </trkpt>
      <trkpt lat="44.45923" lon="5.96733">
        <ele>988.40002441406</ele>
        <time>2013-05-12T11:25:26Z</time>
      </trkpt>
      <trkpt lat="44.45927" lon="5.96741">
        <ele>990.59997558594</ele>
        <time>2013-05-12T11:25:43Z</time>
      </trkpt>
      <trkpt lat="44.45928" lon="5.96755">
        <ele>995.59997558594</ele>
        <time>2013-05-12T11:26:03Z</time>
      </trkpt>
      <trkpt lat="44.45931" lon="5.96757">
        <ele>995.59997558594</ele>
        <time>2013-05-12T11:26:08Z</time>
      </trkpt>
      <trkpt lat="44.45941" lon="5.96757">
        <ele>999.40002441406</ele>
        <time>2013-05-12T11:26:26Z</time>
      </trkpt>
      <trkpt lat="44.45951" lon="5.96756">
        <ele>1002.4000244141</ele>
        <time>2013-05-12T11:26:43Z</time>
      </trkpt>
      <trkpt lat="44.4596" lon="5.96751">
        <ele>1005.4000244141</ele>
        <time>2013-05-12T11:27:00Z</time>
      </trkpt>
      <trkpt lat="44.45963" lon="5.96749">
        <ele>1006.200012207</ele>
        <time>2013-05-12T11:27:06Z</time>
      </trkpt>
      <trkpt lat="44.45966" lon="5.96738">
        <ele>1008.799987793</ele>
        <time>2013-05-12T11:27:23Z</time>
      </trkpt>
      <trkpt lat="44.45971" lon="5.96731">
        <ele>1010.799987793</ele>
        <time>2013-05-12T11:27:35Z</time>
      </trkpt>
      <trkpt lat="44.45974" lon="5.96727">
        <ele>1012</ele>
        <time>2013-05-12T11:27:41Z</time>
      </trkpt>
      <trkpt lat="44.45981" lon="5.96719">
        <ele>1013.799987793</ele>
        <time>2013-05-12T11:27:52Z</time>
      </trkpt>
      <trkpt lat="44.45995" lon="5.96708">
        <ele>1016.4000244141</ele>
        <time>2013-05-12T11:28:10Z</time>
      </trkpt>
      <trkpt lat="44.46002" lon="5.96707">
        <ele>1016.799987793</ele>
        <time>2013-05-12T11:28:21Z</time>
      </trkpt>
      <trkpt lat="44.46012" lon="5.96707">
        <ele>1018.200012207</ele>
        <time>2013-05-12T11:28:35Z</time>
      </trkpt>
      <trkpt lat="44.46017" lon="5.9671">
        <ele>1020.4000244141</ele>
        <time>2013-05-12T11:28:44Z</time>
      </trkpt>
      <trkpt lat="44.4602" lon="5.96713">
        <ele>1022.200012207</ele>
        <time>2013-05-12T11:28:50Z</time>
      </trkpt>
      <trkpt lat="44.46032" lon="5.96714">
        <ele>1026</ele>
        <time>2013-05-12T11:29:13Z</time>
      </trkpt>
      <trkpt lat="44.46042" lon="5.96709">
        <ele>1029.5999755859</ele>
        <time>2013-05-12T11:29:31Z</time>
      </trkpt>
      <trkpt lat="44.4605" lon="5.96697">
        <ele>1031.5999755859</ele>
        <time>2013-05-12T11:29:47Z</time>
      </trkpt>
      <trkpt lat="44.46049" lon="5.96695">
        <ele>1032.4000244141</ele>
        <time>2013-05-12T11:29:48Z</time>
      </trkpt>
      <trkpt lat="44.46048" lon="5.96688">
        <ele>1033.8000488281</ele>
        <time>2013-05-12T11:29:54Z</time>
      </trkpt>
      <trkpt lat="44.4605" lon="5.96686">
        <ele>1033.8000488281</ele>
        <time>2013-05-12T11:29:57Z</time>
      </trkpt>
      <trkpt lat="44.46061" lon="5.96689">
        <ele>1036.8000488281</ele>
        <time>2013-05-12T11:30:23Z</time>
      </trkpt>
      <trkpt lat="44.46063" lon="5.9669">
        <ele>1037.4000244141</ele>
        <time>2013-05-12T11:30:29Z</time>
      </trkpt>
      <trkpt lat="44.46072" lon="5.96694">
        <ele>1040.1999511719</ele>
        <time>2013-05-12T11:30:46Z</time>
      </trkpt>
      <trkpt lat="44.46082" lon="5.9669">
        <ele>1044.5999755859</ele>
        <time>2013-05-12T11:31:08Z</time>
      </trkpt>
      <trkpt lat="44.46083" lon="5.96704">
        <ele>1046.8000488281</ele>
        <time>2013-05-12T11:31:25Z</time>
      </trkpt>
      <trkpt lat="44.46093" lon="5.96706">
        <ele>1048.4000244141</ele>
        <time>2013-05-12T11:31:37Z</time>
      </trkpt>
      <trkpt lat="44.46101" lon="5.96704">
        <ele>1049.8000488281</ele>
        <time>2013-05-12T11:31:48Z</time>
      </trkpt>
      <trkpt lat="44.4611" lon="5.96705">
        <ele>1053.5999755859</ele>
        <time>2013-05-12T11:32:06Z</time>
      </trkpt>
      <trkpt lat="44.4611" lon="5.96706">
        <ele>1054.1999511719</ele>
        <time>2013-05-12T11:32:12Z</time>
      </trkpt>
      <trkpt lat="44.4611" lon="5.96706">
        <ele>1054.8000488281</ele>
        <time>2013-05-12T11:32:17Z</time>
      </trkpt>
      <trkpt lat="44.46107" lon="5.9671">
        <ele>1054.8000488281</ele>
        <time>2013-05-12T11:34:14Z</time>
      </trkpt>
      <trkpt lat="44.46106" lon="5.96713">
        <ele>1054.8000488281</ele>
        <time>2013-05-12T11:35:45Z</time>
      </trkpt>
      <trkpt lat="44.46111" lon="5.96715">
        <ele>1052.5999755859</ele>
        <time>2013-05-12T11:41:17Z</time>
      </trkpt>
      <trkpt lat="44.46112" lon="5.96732">
        <ele>1052.5999755859</ele>
        <time>2013-05-12T11:41:29Z</time>
      </trkpt>
      <trkpt lat="44.46111" lon="5.96759">
        <ele>1052.5999755859</ele>
        <time>2013-05-12T11:41:35Z</time>
      </trkpt>
      <trkpt lat="44.46112" lon="5.96793">
        <ele>1052.5999755859</ele>
        <time>2013-05-12T11:41:41Z</time>
      </trkpt>
      <trkpt lat="44.46119" lon="5.96825">
        <ele>1052.5999755859</ele>
        <time>2013-05-12T11:41:47Z</time>
      </trkpt>
      <trkpt lat="44.46118" lon="5.96833">
        <ele>1052.5999755859</ele>
        <time>2013-05-12T11:41:49Z</time>
      </trkpt>
      <trkpt lat="44.46113" lon="5.96841">
        <ele>1052.5999755859</ele>
        <time>2013-05-12T11:41:51Z</time>
      </trkpt>
      <trkpt lat="44.46106" lon="5.96852">
        <ele>1052.5999755859</ele>
        <time>2013-05-12T11:41:53Z</time>
      </trkpt>
      <trkpt lat="44.461" lon="5.96863">
        <ele>1052.5999755859</ele>
        <time>2013-05-12T11:41:55Z</time>
      </trkpt>
      <trkpt lat="44.46088" lon="5.96888">
        <ele>1052.1999511719</ele>
        <time>2013-05-12T11:41:58Z</time>
      </trkpt>
      <trkpt lat="44.46085" lon="5.96896">
        <ele>1052.1999511719</ele>
        <time>2013-05-12T11:41:59Z</time>
      </trkpt>
      <trkpt lat="44.46072" lon="5.96928">
        <ele>1051.8000488281</ele>
        <time>2013-05-12T11:42:04Z</time>
      </trkpt>
      <trkpt lat="44.46061" lon="5.96949">
        <ele>1051</ele>
        <time>2013-05-12T11:42:09Z</time>
      </trkpt>
      <trkpt lat="44.46059" lon="5.96952">
        <ele>1050.1999511719</ele>
        <time>2013-05-12T11:42:10Z</time>
      </trkpt>
      <trkpt lat="44.46045" lon="5.96961">
        <ele>1050.1999511719</ele>
        <time>2013-05-12T11:42:14Z</time>
      </trkpt>
      <trkpt lat="44.46036" lon="5.96969">
        <ele>1048.4000244141</ele>
        <time>2013-05-12T11:42:16Z</time>
      </trkpt>
      <trkpt lat="44.46023" lon="5.96984">
        <ele>1048.4000244141</ele>
        <time>2013-05-12T11:42:19Z</time>
      </trkpt>
      <trkpt lat="44.46017" lon="5.96995">
        <ele>1047.4000244141</ele>
        <time>2013-05-12T11:42:21Z</time>
      </trkpt>
      <trkpt lat="44.46009" lon="5.9701">
        <ele>1047.4000244141</ele>
        <time>2013-05-12T11:42:24Z</time>
      </trkpt>
      <trkpt lat="44.46" lon="5.97025">
        <ele>1046.4000244141</ele>
        <time>2013-05-12T11:42:27Z</time>
      </trkpt>
      <trkpt lat="44.45988" lon="5.97041">
        <ele>1046.4000244141</ele>
        <time>2013-05-12T11:42:30Z</time>
      </trkpt>
      <trkpt lat="44.45979" lon="5.97055">
        <ele>1045.4000244141</ele>
        <time>2013-05-12T11:42:32Z</time>
      </trkpt>
      <trkpt lat="44.45974" lon="5.97065">
        <ele>1044.4000244141</ele>
        <time>2013-05-12T11:42:34Z</time>
      </trkpt>
      <trkpt lat="44.45971" lon="5.97076">
        <ele>1044.4000244141</ele>
        <time>2013-05-12T11:42:36Z</time>
      </trkpt>
      <trkpt lat="44.45967" lon="5.9709">
        <ele>1043.5999755859</ele>
        <time>2013-05-12T11:42:38Z</time>
      </trkpt>
      <trkpt lat="44.45956" lon="5.9712">
        <ele>1042.8000488281</ele>
        <time>2013-05-12T11:42:43Z</time>
      </trkpt>
      <trkpt lat="44.4594" lon="5.97151">
        <ele>1041.1999511719</ele>
        <time>2013-05-12T11:42:47Z</time>
      </trkpt>
      <trkpt lat="44.45929" lon="5.97175">
        <ele>1040.4000244141</ele>
        <time>2013-05-12T11:42:50Z</time>
      </trkpt>
      <trkpt lat="44.45915" lon="5.97203">
        <ele>1040.4000244141</ele>
        <time>2013-05-12T11:42:54Z</time>
      </trkpt>
      <trkpt lat="44.45908" lon="5.97212">
        <ele>1039.5999755859</ele>
        <time>2013-05-12T11:42:56Z</time>
      </trkpt>
      <trkpt lat="44.45902" lon="5.97221">
        <ele>1039.5999755859</ele>
        <time>2013-05-12T11:42:58Z</time>
      </trkpt>
      <trkpt lat="44.45895" lon="5.97233">
        <ele>1038.8000488281</ele>
        <time>2013-05-12T11:43:01Z</time>
      </trkpt>
      <trkpt lat="44.45889" lon="5.97247">
        <ele>1038</ele>
        <time>2013-05-12T11:43:05Z</time>
      </trkpt>
      <trkpt lat="44.45874" lon="5.97267">
        <ele>1038</ele>
        <time>2013-05-12T11:43:12Z</time>
      </trkpt>
      <trkpt lat="44.45847" lon="5.97296">
        <ele>1038</ele>
        <time>2013-05-12T11:43:20Z</time>
      </trkpt>
      <trkpt lat="44.45817" lon="5.97312">
        <ele>1038</ele>
        <time>2013-05-12T11:43:26Z</time>
      </trkpt>
      <trkpt lat="44.458" lon="5.97327">
        <ele>1038</ele>
        <time>2013-05-12T11:43:31Z</time>
      </trkpt>
      <trkpt lat="44.45783" lon="5.97356">
        <ele>1038</ele>
        <time>2013-05-12T11:43:38Z</time>
      </trkpt>
      <trkpt lat="44.45778" lon="5.97368">
        <ele>1037.4000244141</ele>
        <time>2013-05-12T11:43:40Z</time>
      </trkpt>
      <trkpt lat="44.45774" lon="5.97385">
        <ele>1037.4000244141</ele>
        <time>2013-05-12T11:43:43Z</time>
      </trkpt>
      <trkpt lat="44.45773" lon="5.97391">
        <ele>1037.4000244141</ele>
        <time>2013-05-12T11:43:44Z</time>
      </trkpt>
      <trkpt lat="44.45771" lon="5.97404">
        <ele>1037</ele>
        <time>2013-05-12T11:43:46Z</time>
      </trkpt>
      <trkpt lat="44.45769" lon="5.97412">
        <ele>1037</ele>
        <time>2013-05-12T11:43:47Z</time>
      </trkpt>
      <trkpt lat="44.45768" lon="5.97426">
        <ele>1037</ele>
        <time>2013-05-12T11:43:49Z</time>
      </trkpt>
      <trkpt lat="44.45766" lon="5.97436">
        <ele>1036.5999755859</ele>
        <time>2013-05-12T11:43:51Z</time>
      </trkpt>
      <trkpt lat="44.45764" lon="5.97447">
        <ele>1036</ele>
        <time>2013-05-12T11:43:54Z</time>
      </trkpt>
      <trkpt lat="44.45763" lon="5.97457">
        <ele>1035.5999755859</ele>
        <time>2013-05-12T11:43:57Z</time>
      </trkpt>
      <trkpt lat="44.45763" lon="5.97473">
        <ele>1035.5999755859</ele>
        <time>2013-05-12T11:44:00Z</time>
      </trkpt>
      <trkpt lat="44.45762" lon="5.9751">
        <ele>1035.5999755859</ele>
        <time>2013-05-12T11:44:06Z</time>
      </trkpt>
      <trkpt lat="44.45766" lon="5.97543">
        <ele>1035.5999755859</ele>
        <time>2013-05-12T11:44:13Z</time>
      </trkpt>
      <trkpt lat="44.45773" lon="5.97569">
        <ele>1035.5999755859</ele>
        <time>2013-05-12T11:44:21Z</time>
      </trkpt>
      <trkpt lat="44.45786" lon="5.97583">
        <ele>1035.5999755859</ele>
        <time>2013-05-12T11:44:27Z</time>
      </trkpt>
      <trkpt lat="44.4579" lon="5.97605">
        <ele>1035.5999755859</ele>
        <time>2013-05-12T11:44:33Z</time>
      </trkpt>
      <trkpt lat="44.45787" lon="5.97611">
        <ele>1035.5999755859</ele>
        <time>2013-05-12T11:44:34Z</time>
      </trkpt>
      <trkpt lat="44.45775" lon="5.97631">
        <ele>1035.5999755859</ele>
        <time>2013-05-12T11:44:37Z</time>
      </trkpt>
      <trkpt lat="44.45758" lon="5.97648">
        <ele>1035.5999755859</ele>
        <time>2013-05-12T11:44:40Z</time>
      </trkpt>
      <trkpt lat="44.45755" lon="5.97666">
        <ele>1035.5999755859</ele>
        <time>2013-05-12T11:44:42Z</time>
      </trkpt>
      <trkpt lat="44.45752" lon="5.97676">
        <ele>1035.5999755859</ele>
        <time>2013-05-12T11:44:43Z</time>
      </trkpt>
      <trkpt lat="44.45749" lon="5.97685">
        <ele>1035</ele>
        <time>2013-05-12T11:44:44Z</time>
      </trkpt>
      <trkpt lat="44.45729" lon="5.97722">
        <ele>1034.5999755859</ele>
        <time>2013-05-12T11:44:49Z</time>
      </trkpt>
      <trkpt lat="44.45717" lon="5.97741">
        <ele>1034.5999755859</ele>
        <time>2013-05-12T11:44:52Z</time>
      </trkpt>
      <trkpt lat="44.45701" lon="5.97755">
        <ele>1033.8000488281</ele>
        <time>2013-05-12T11:44:55Z</time>
      </trkpt>
      <trkpt lat="44.45684" lon="5.97769">
        <ele>1033.8000488281</ele>
        <time>2013-05-12T11:44:58Z</time>
      </trkpt>
      <trkpt lat="44.4567" lon="5.97775">
        <ele>1031.5999755859</ele>
        <time>2013-05-12T11:45:01Z</time>
      </trkpt>
      <trkpt lat="44.45649" lon="5.97783">
        <ele>1030.5999755859</ele>
        <time>2013-05-12T11:45:06Z</time>
      </trkpt>
      <trkpt lat="44.45633" lon="5.97789">
        <ele>1028.4000244141</ele>
        <time>2013-05-12T11:45:12Z</time>
      </trkpt>
      <trkpt lat="44.45631" lon="5.9779">
        <ele>1028.4000244141</ele>
        <time>2013-05-12T11:45:13Z</time>
      </trkpt>
      <trkpt lat="44.45613" lon="5.97796">
        <ele>1028.4000244141</ele>
        <time>2013-05-12T11:45:20Z</time>
      </trkpt>
      <trkpt lat="44.45605" lon="5.978">
        <ele>1028.8000488281</ele>
        <time>2013-05-12T11:45:24Z</time>
      </trkpt>
      <trkpt lat="44.45599" lon="5.97802">
        <ele>1030.5999755859</ele>
        <time>2013-05-12T11:45:52Z</time>
      </trkpt>
      <trkpt lat="44.45579" lon="5.97816">
        <ele>1032.5999755859</ele>
        <time>2013-05-12T11:46:02Z</time>
      </trkpt>
      <trkpt lat="44.45571" lon="5.97823">
        <ele>1033.1999511719</ele>
        <time>2013-05-12T11:46:07Z</time>
      </trkpt>
      <trkpt lat="44.45569" lon="5.97825">
        <ele>1033.5999755859</ele>
        <time>2013-05-12T11:46:08Z</time>
      </trkpt>
      <trkpt lat="44.45563" lon="5.97831">
        <ele>1034</ele>
        <time>2013-05-12T11:46:13Z</time>
      </trkpt>
      <trkpt lat="44.45558" lon="5.97837">
        <ele>1034</ele>
        <time>2013-05-12T11:46:17Z</time>
      </trkpt>
      <trkpt lat="44.45547" lon="5.97845">
        <ele>1035.4000244141</ele>
        <time>2013-05-12T11:46:25Z</time>
      </trkpt>
      <trkpt lat="44.45538" lon="5.97848">
        <ele>1035.8000488281</ele>
        <time>2013-05-12T11:46:30Z</time>
      </trkpt>
      <trkpt lat="44.45531" lon="5.97853">
        <ele>1036.5999755859</ele>
        <time>2013-05-12T11:46:36Z</time>
      </trkpt>
      <trkpt lat="44.45525" lon="5.97856">
        <ele>1037.1999511719</ele>
        <time>2013-05-12T11:46:41Z</time>
      </trkpt>
      <trkpt lat="44.4552" lon="5.97858">
        <ele>1038.1999511719</ele>
        <time>2013-05-12T11:46:47Z</time>
      </trkpt>
      <trkpt lat="44.45512" lon="5.97865">
        <ele>1038.8000488281</ele>
        <time>2013-05-12T11:46:53Z</time>
      </trkpt>
      <trkpt lat="44.45504" lon="5.97868">
        <ele>1039.5999755859</ele>
        <time>2013-05-12T11:46:59Z</time>
      </trkpt>
      <trkpt lat="44.45497" lon="5.9787">
        <ele>1040.1999511719</ele>
        <time>2013-05-12T11:47:04Z</time>
      </trkpt>
      <trkpt lat="44.45489" lon="5.97872">
        <ele>1041.4000244141</ele>
        <time>2013-05-12T11:47:11Z</time>
      </trkpt>
      <trkpt lat="44.4548" lon="5.97874">
        <ele>1042</ele>
        <time>2013-05-12T11:47:16Z</time>
      </trkpt>
      <trkpt lat="44.45469" lon="5.97877">
        <ele>1043</ele>
        <time>2013-05-12T11:47:23Z</time>
      </trkpt>
      <trkpt lat="44.45452" lon="5.9788">
        <ele>1043.4000244141</ele>
        <time>2013-05-12T11:47:35Z</time>
      </trkpt>
      <trkpt lat="44.45436" lon="5.97889">
        <ele>1043.4000244141</ele>
        <time>2013-05-12T11:47:39Z</time>
      </trkpt>
      <trkpt lat="44.45432" lon="5.97892">
        <ele>1043.4000244141</ele>
        <time>2013-05-12T11:47:40Z</time>
      </trkpt>
      <trkpt lat="44.45413" lon="5.97904">
        <ele>1043.4000244141</ele>
        <time>2013-05-12T11:47:46Z</time>
      </trkpt>
      <trkpt lat="44.45395" lon="5.9791">
        <ele>1043.4000244141</ele>
        <time>2013-05-12T11:47:52Z</time>
      </trkpt>
      <trkpt lat="44.4537" lon="5.97917">
        <ele>1043.4000244141</ele>
        <time>2013-05-12T11:47:58Z</time>
      </trkpt>
      <trkpt lat="44.45365" lon="5.97922">
        <ele>1043.4000244141</ele>
        <time>2013-05-12T11:47:59Z</time>
      </trkpt>
      <trkpt lat="44.45356" lon="5.97932">
        <ele>1043.4000244141</ele>
        <time>2013-05-12T11:48:01Z</time>
      </trkpt>
      <trkpt lat="44.45347" lon="5.97944">
        <ele>1043.4000244141</ele>
        <time>2013-05-12T11:48:03Z</time>
      </trkpt>
      <trkpt lat="44.45339" lon="5.97952">
        <ele>1042.5999755859</ele>
        <time>2013-05-12T11:48:05Z</time>
      </trkpt>
      <trkpt lat="44.4532" lon="5.9797">
        <ele>1042.1999511719</ele>
        <time>2013-05-12T11:48:11Z</time>
      </trkpt>
      <trkpt lat="44.45316" lon="5.97971">
        <ele>1041.8000488281</ele>
        <time>2013-05-12T11:48:12Z</time>
      </trkpt>
      <trkpt lat="44.453" lon="5.97979">
        <ele>1041.4000244141</ele>
        <time>2013-05-12T11:48:17Z</time>
      </trkpt>
      <trkpt lat="44.45297" lon="5.97981">
        <ele>1041.4000244141</ele>
        <time>2013-05-12T11:48:18Z</time>
      </trkpt>
      <trkpt lat="44.4527" lon="5.97996">
        <ele>1041.4000244141</ele>
        <time>2013-05-12T11:48:27Z</time>
      </trkpt>
      <trkpt lat="44.45261" lon="5.98001">
        <ele>1042</ele>
        <time>2013-05-12T11:48:30Z</time>
      </trkpt>
      <trkpt lat="44.45248" lon="5.98009">
        <ele>1042</ele>
        <time>2013-05-12T11:48:34Z</time>
      </trkpt>
      <trkpt lat="44.45241" lon="5.98012">
        <ele>1042.5999755859</ele>
        <time>2013-05-12T11:48:36Z</time>
      </trkpt>
      <trkpt lat="44.45231" lon="5.98022">
        <ele>1042.5999755859</ele>
        <time>2013-05-12T11:48:41Z</time>
      </trkpt>
      <trkpt lat="44.4523" lon="5.98025">
        <ele>1043.1999511719</ele>
        <time>2013-05-12T11:48:42Z</time>
      </trkpt>
      <trkpt lat="44.45227" lon="5.9803">
        <ele>1043.1999511719</ele>
        <time>2013-05-12T11:48:44Z</time>
      </trkpt>
      <trkpt lat="44.45226" lon="5.98044">
        <ele>1044</ele>
        <time>2013-05-12T11:48:49Z</time>
      </trkpt>
      <trkpt lat="44.45222" lon="5.98059">
        <ele>1044.8000488281</ele>
        <time>2013-05-12T11:48:55Z</time>
      </trkpt>
      <trkpt lat="44.45219" lon="5.98076">
        <ele>1046.5999755859</ele>
        <time>2013-05-12T11:49:00Z</time>
      </trkpt>
      <trkpt lat="44.45218" lon="5.98094">
        <ele>1046.5999755859</ele>
        <time>2013-05-12T11:49:04Z</time>
      </trkpt>
      <trkpt lat="44.45218" lon="5.98104">
        <ele>1048.4000244141</ele>
        <time>2013-05-12T11:49:06Z</time>
      </trkpt>
      <trkpt lat="44.45217" lon="5.98121">
        <ele>1048.4000244141</ele>
        <time>2013-05-12T11:49:09Z</time>
      </trkpt>
      <trkpt lat="44.45215" lon="5.98133">
        <ele>1048.4000244141</ele>
        <time>2013-05-12T11:49:11Z</time>
      </trkpt>
      <trkpt lat="44.45212" lon="5.98145">
        <ele>1049.1999511719</ele>
        <time>2013-05-12T11:49:13Z</time>
      </trkpt>
      <trkpt lat="44.45207" lon="5.9816">
        <ele>1049.1999511719</ele>
        <time>2013-05-12T11:49:16Z</time>
      </trkpt>
      <trkpt lat="44.45195" lon="5.98184">
        <ele>1049.1999511719</ele>
        <time>2013-05-12T11:49:20Z</time>
      </trkpt>
      <trkpt lat="44.45191" lon="5.98203">
        <ele>1049.1999511719</ele>
        <time>2013-05-12T11:49:23Z</time>
      </trkpt>
      <trkpt lat="44.4519" lon="5.98233">
        <ele>1049.1999511719</ele>
        <time>2013-05-12T11:49:29Z</time>
      </trkpt>
      <trkpt lat="44.45191" lon="5.98256">
        <ele>1049.1999511719</ele>
        <time>2013-05-12T11:49:35Z</time>
      </trkpt>
      <trkpt lat="44.45194" lon="5.98271">
        <ele>1050</ele>
        <time>2013-05-12T11:49:41Z</time>
      </trkpt>
      <trkpt lat="44.45195" lon="5.9829">
        <ele>1051.4000244141</ele>
        <time>2013-05-12T11:49:47Z</time>
      </trkpt>
      <trkpt lat="44.45195" lon="5.98306">
        <ele>1051.4000244141</ele>
        <time>2013-05-12T11:49:51Z</time>
      </trkpt>
      <trkpt lat="44.45193" lon="5.98314">
        <ele>1052.1999511719</ele>
        <time>2013-05-12T11:49:53Z</time>
      </trkpt>
      <trkpt lat="44.45189" lon="5.98328">
        <ele>1052.1999511719</ele>
        <time>2013-05-12T11:49:56Z</time>
      </trkpt>
      <trkpt lat="44.45186" lon="5.98336">
        <ele>1052.1999511719</ele>
        <time>2013-05-12T11:49:58Z</time>
      </trkpt>
      <trkpt lat="44.45179" lon="5.98355">
        <ele>1053.8000488281</ele>
        <time>2013-05-12T11:50:04Z</time>
      </trkpt>
      <trkpt lat="44.45173" lon="5.98373">
        <ele>1055</ele>
        <time>2013-05-12T11:50:11Z</time>
      </trkpt>
      <trkpt lat="44.45171" lon="5.98381">
        <ele>1055</ele>
        <time>2013-05-12T11:50:14Z</time>
      </trkpt>
      <trkpt lat="44.45168" lon="5.98388">
        <ele>1055.4000244141</ele>
        <time>2013-05-12T11:50:17Z</time>
      </trkpt>
      <trkpt lat="44.45166" lon="5.984">
        <ele>1055.4000244141</ele>
        <time>2013-05-12T11:50:21Z</time>
      </trkpt>
      <trkpt lat="44.45166" lon="5.98402">
        <ele>1056.1999511719</ele>
        <time>2013-05-12T11:50:22Z</time>
      </trkpt>
      <trkpt lat="44.45162" lon="5.98416">
        <ele>1056.8000488281</ele>
        <time>2013-05-12T11:50:28Z</time>
      </trkpt>
      <trkpt lat="44.45155" lon="5.98432">
        <ele>1058.5999755859</ele>
        <time>2013-05-12T11:50:34Z</time>
      </trkpt>
      <trkpt lat="44.4515" lon="5.98441">
        <ele>1058.5999755859</ele>
        <time>2013-05-12T11:50:37Z</time>
      </trkpt>
      <trkpt lat="44.45142" lon="5.98453">
        <ele>1060.4000244141</ele>
        <time>2013-05-12T11:50:40Z</time>
      </trkpt>
      <trkpt lat="44.45136" lon="5.98463">
        <ele>1060.4000244141</ele>
        <time>2013-05-12T11:50:42Z</time>
      </trkpt>
      <trkpt lat="44.45127" lon="5.98477">
        <ele>1061.1999511719</ele>
        <time>2013-05-12T11:50:45Z</time>
      </trkpt>
      <trkpt lat="44.45118" lon="5.98491">
        <ele>1061.1999511719</ele>
        <time>2013-05-12T11:50:48Z</time>
      </trkpt>
      <trkpt lat="44.45112" lon="5.98511">
        <ele>1061.1999511719</ele>
        <time>2013-05-12T11:50:52Z</time>
      </trkpt>
      <trkpt lat="44.45114" lon="5.98527">
        <ele>1061.1999511719</ele>
        <time>2013-05-12T11:53:46Z</time>
      </trkpt>
      <trkpt lat="44.45115" lon="5.98538">
        <ele>1061.1999511719</ele>
        <time>2013-05-12T11:53:49Z</time>
      </trkpt>
      <trkpt lat="44.45113" lon="5.98544">
        <ele>1061.1999511719</ele>
        <time>2013-05-12T11:53:51Z</time>
      </trkpt>
      <trkpt lat="44.45113" lon="5.9855">
        <ele>1061.1999511719</ele>
        <time>2013-05-12T11:53:53Z</time>
      </trkpt>
      <trkpt lat="44.45111" lon="5.98576">
        <ele>1061.1999511719</ele>
        <time>2013-05-12T11:53:59Z</time>
      </trkpt>
      <trkpt lat="44.45107" lon="5.98618">
        <ele>1061.1999511719</ele>
        <time>2013-05-12T11:54:05Z</time>
      </trkpt>
      <trkpt lat="44.45101" lon="5.98647">
        <ele>1060.5999755859</ele>
        <time>2013-05-12T11:54:08Z</time>
      </trkpt>
      <trkpt lat="44.45101" lon="5.98658">
        <ele>1060.5999755859</ele>
        <time>2013-05-12T11:54:09Z</time>
      </trkpt>
      <trkpt lat="44.45102" lon="5.98669">
        <ele>1060.5999755859</ele>
        <time>2013-05-12T11:54:10Z</time>
      </trkpt>
      <trkpt lat="44.45114" lon="5.98711">
        <ele>1059.4000244141</ele>
        <time>2013-05-12T11:54:14Z</time>
      </trkpt>
      <trkpt lat="44.45116" lon="5.98722">
        <ele>1059.4000244141</ele>
        <time>2013-05-12T11:54:15Z</time>
      </trkpt>
      <trkpt lat="44.45124" lon="5.98775">
        <ele>1057.8000488281</ele>
        <time>2013-05-12T11:54:19Z</time>
      </trkpt>
      <trkpt lat="44.45125" lon="5.98789">
        <ele>1056</ele>
        <time>2013-05-12T11:54:20Z</time>
      </trkpt>
      <trkpt lat="44.45129" lon="5.98815">
        <ele>1056</ele>
        <time>2013-05-12T11:54:22Z</time>
      </trkpt>
      <trkpt lat="44.45134" lon="5.98836">
        <ele>1056</ele>
        <time>2013-05-12T11:54:24Z</time>
      </trkpt>
      <trkpt lat="44.45135" lon="5.98846">
        <ele>1053.8000488281</ele>
        <time>2013-05-12T11:54:25Z</time>
      </trkpt>
      <trkpt lat="44.45136" lon="5.98854">
        <ele>1051.5999755859</ele>
        <time>2013-05-12T11:54:26Z</time>
      </trkpt>
      <trkpt lat="44.45135" lon="5.98861">
        <ele>1051.5999755859</ele>
        <time>2013-05-12T11:54:27Z</time>
      </trkpt>
      <trkpt lat="44.45132" lon="5.98886">
        <ele>1049.1999511719</ele>
        <time>2013-05-12T11:54:31Z</time>
      </trkpt>
      <trkpt lat="44.45127" lon="5.98913">
        <ele>1049.1999511719</ele>
        <time>2013-05-12T11:54:36Z</time>
      </trkpt>
      <trkpt lat="44.45104" lon="5.98947">
        <ele>1044.4000244141</ele>
        <time>2013-05-12T11:54:42Z</time>
      </trkpt>
      <trkpt lat="44.451" lon="5.98954">
        <ele>1038.5999755859</ele>
        <time>2013-05-12T11:54:43Z</time>
      </trkpt>
      <trkpt lat="44.45081" lon="5.98978">
        <ele>1038.5999755859</ele>
        <time>2013-05-12T11:54:47Z</time>
      </trkpt>
      <trkpt lat="44.45071" lon="5.9899">
        <ele>1032.4000244141</ele>
        <time>2013-05-12T11:54:49Z</time>
      </trkpt>
      <trkpt lat="44.45063" lon="5.99">
        <ele>1032.4000244141</ele>
        <time>2013-05-12T11:54:51Z</time>
      </trkpt>
      <trkpt lat="44.4506" lon="5.99003">
        <ele>1032.4000244141</ele>
        <time>2013-05-12T11:54:52Z</time>
      </trkpt>
      <trkpt lat="44.45046" lon="5.99007">
        <ele>1026</ele>
        <time>2013-05-12T11:54:55Z</time>
      </trkpt>
      <trkpt lat="44.45024" lon="5.99012">
        <ele>1023.5999755859</ele>
        <time>2013-05-12T11:55:00Z</time>
      </trkpt>
      <trkpt lat="44.4502" lon="5.99014">
        <ele>1021.200012207</ele>
        <time>2013-05-12T11:55:01Z</time>
      </trkpt>
      <trkpt lat="44.45002" lon="5.9902">
        <ele>1021.200012207</ele>
        <time>2013-05-12T11:55:05Z</time>
      </trkpt>
      <trkpt lat="44.44997" lon="5.99023">
        <ele>1018.799987793</ele>
        <time>2013-05-12T11:55:06Z</time>
      </trkpt>
      <trkpt lat="44.44976" lon="5.99045">
        <ele>1014</ele>
        <time>2013-05-12T11:55:12Z</time>
      </trkpt>
      <trkpt lat="44.44972" lon="5.9905">
        <ele>1014</ele>
        <time>2013-05-12T11:55:13Z</time>
      </trkpt>
      <trkpt lat="44.44961" lon="5.99069">
        <ele>1014</ele>
        <time>2013-05-12T11:55:17Z</time>
      </trkpt>
      <trkpt lat="44.44958" lon="5.99074">
        <ele>1014</ele>
        <time>2013-05-12T11:55:18Z</time>
      </trkpt>
      <trkpt lat="44.44937" lon="5.99093">
        <ele>1014</ele>
        <time>2013-05-12T11:55:24Z</time>
      </trkpt>
      <trkpt lat="44.44929" lon="5.99096">
        <ele>1014</ele>
        <time>2013-05-12T11:55:26Z</time>
      </trkpt>
      <trkpt lat="44.44913" lon="5.99097">
        <ele>1014</ele>
        <time>2013-05-12T11:55:29Z</time>
      </trkpt>
      <trkpt lat="44.44877" lon="5.991">
        <ele>1014</ele>
        <time>2013-05-12T11:55:36Z</time>
      </trkpt>
      <trkpt lat="44.44835" lon="5.99119">
        <ele>1014</ele>
        <time>2013-05-12T11:55:43Z</time>
      </trkpt>
      <trkpt lat="44.44797" lon="5.99133">
        <ele>1014</ele>
        <time>2013-05-12T11:55:49Z</time>
      </trkpt>
      <trkpt lat="44.4477" lon="5.99128">
        <ele>1014</ele>
        <time>2013-05-12T11:55:54Z</time>
      </trkpt>
      <trkpt lat="44.44741" lon="5.99128">
        <ele>1014</ele>
        <time>2013-05-12T11:56:02Z</time>
      </trkpt>
      <trkpt lat="44.44739" lon="5.9914">
        <ele>1014</ele>
        <time>2013-05-12T11:56:04Z</time>
      </trkpt>
      <trkpt lat="44.44738" lon="5.99156">
        <ele>1014</ele>
        <time>2013-05-12T11:56:06Z</time>
      </trkpt>
      <trkpt lat="44.4474" lon="5.99181">
        <ele>1014</ele>
        <time>2013-05-12T11:56:09Z</time>
      </trkpt>
      <trkpt lat="44.44742" lon="5.99189">
        <ele>1014</ele>
        <time>2013-05-12T11:56:10Z</time>
      </trkpt>
      <trkpt lat="44.44751" lon="5.99203">
        <ele>1014</ele>
        <time>2013-05-12T11:56:12Z</time>
      </trkpt>
      <trkpt lat="44.4476" lon="5.99214">
        <ele>1014</ele>
        <time>2013-05-12T11:56:14Z</time>
      </trkpt>
      <trkpt lat="44.44762" lon="5.99221">
        <ele>1013.5999755859</ele>
        <time>2013-05-12T11:56:16Z</time>
      </trkpt>
      <trkpt lat="44.44757" lon="5.99228">
        <ele>1013</ele>
        <time>2013-05-12T11:56:19Z</time>
      </trkpt>
      <trkpt lat="44.44753" lon="5.99232">
        <ele>1013</ele>
        <time>2013-05-12T11:56:21Z</time>
      </trkpt>
      <trkpt lat="44.44751" lon="5.99241">
        <ele>1012.5999755859</ele>
        <time>2013-05-12T11:56:23Z</time>
      </trkpt>
      <trkpt lat="44.44751" lon="5.99263">
        <ele>1012.5999755859</ele>
        <time>2013-05-12T11:56:28Z</time>
      </trkpt>
      <trkpt lat="44.44756" lon="5.99284">
        <ele>1011.4000244141</ele>
        <time>2013-05-12T11:56:33Z</time>
      </trkpt>
      <trkpt lat="44.44758" lon="5.99297">
        <ele>1010</ele>
        <time>2013-05-12T11:56:35Z</time>
      </trkpt>
      <trkpt lat="44.44759" lon="5.99305">
        <ele>1010</ele>
        <time>2013-05-12T11:56:36Z</time>
      </trkpt>
      <trkpt lat="44.44759" lon="5.99312">
        <ele>1010</ele>
        <time>2013-05-12T11:56:37Z</time>
      </trkpt>
      <trkpt lat="44.44762" lon="5.99349">
        <ele>1007.799987793</ele>
        <time>2013-05-12T11:56:41Z</time>
      </trkpt>
      <trkpt lat="44.44762" lon="5.99358">
        <ele>1007.799987793</ele>
        <time>2013-05-12T11:56:42Z</time>
      </trkpt>
      <trkpt lat="44.44761" lon="5.99389">
        <ele>1006.4000244141</ele>
        <time>2013-05-12T11:56:46Z</time>
      </trkpt>
      <trkpt lat="44.4476" lon="5.99396">
        <ele>1006.4000244141</ele>
        <time>2013-05-12T11:56:47Z</time>
      </trkpt>
      <trkpt lat="44.4476" lon="5.99411">
        <ele>1006.4000244141</ele>
        <time>2013-05-12T11:56:49Z</time>
      </trkpt>
      <trkpt lat="44.44762" lon="5.99423">
        <ele>1006.4000244141</ele>
        <time>2013-05-12T11:56:51Z</time>
      </trkpt>
      <trkpt lat="44.44763" lon="5.99437">
        <ele>1004.200012207</ele>
        <time>2013-05-12T11:56:55Z</time>
      </trkpt>
      <trkpt lat="44.44772" lon="5.99428">
        <ele>998.59997558594</ele>
        <time>2013-05-12T11:56:58Z</time>
      </trkpt>
      <trkpt lat="44.4478" lon="5.99421">
        <ele>998.59997558594</ele>
        <time>2013-05-12T11:57:00Z</time>
      </trkpt>
      <trkpt lat="44.4479" lon="5.99416">
        <ele>998.59997558594</ele>
        <time>2013-05-12T11:57:02Z</time>
      </trkpt>
      <trkpt lat="44.44802" lon="5.99411">
        <ele>992.59997558594</ele>
        <time>2013-05-12T11:57:04Z</time>
      </trkpt>
      <trkpt lat="44.44807" lon="5.99408">
        <ele>992.59997558594</ele>
        <time>2013-05-12T11:57:05Z</time>
      </trkpt>
      <trkpt lat="44.4481" lon="5.99406">
        <ele>992.59997558594</ele>
        <time>2013-05-12T11:57:06Z</time>
      </trkpt>
      <trkpt lat="44.4482" lon="5.99405">
        <ele>984.20001220703</ele>
        <time>2013-05-12T11:57:15Z</time>
      </trkpt>
      <trkpt lat="44.44825" lon="5.99427">
        <ele>975</ele>
        <time>2013-05-12T11:57:42Z</time>
      </trkpt>
      <trkpt lat="44.44825" lon="5.99442">
        <ele>974.40002441406</ele>
        <time>2013-05-12T11:57:44Z</time>
      </trkpt>
      <trkpt lat="44.44826" lon="5.99453">
        <ele>974.40002441406</ele>
        <time>2013-05-12T11:57:46Z</time>
      </trkpt>
      <trkpt lat="44.44829" lon="5.99472">
        <ele>972.20001220703</ele>
        <time>2013-05-12T11:57:50Z</time>
      </trkpt>
      <trkpt lat="44.44829" lon="5.99487">
        <ele>972.20001220703</ele>
        <time>2013-05-12T11:57:52Z</time>
      </trkpt>
      <trkpt lat="44.44826" lon="5.99511">
        <ele>972.20001220703</ele>
        <time>2013-05-12T11:57:55Z</time>
      </trkpt>
      <trkpt lat="44.4481" lon="5.9955">
        <ele>966.79998779297</ele>
        <time>2013-05-12T11:58:01Z</time>
      </trkpt>
      <trkpt lat="44.44808" lon="5.99569">
        <ele>966.79998779297</ele>
        <time>2013-05-12T11:58:04Z</time>
      </trkpt>
      <trkpt lat="44.44807" lon="5.99593">
        <ele>963.20001220703</ele>
        <time>2013-05-12T11:58:07Z</time>
      </trkpt>
      <trkpt lat="44.44805" lon="5.99607">
        <ele>963.20001220703</ele>
        <time>2013-05-12T11:58:09Z</time>
      </trkpt>
      <trkpt lat="44.44805" lon="5.99613">
        <ele>963.20001220703</ele>
        <time>2013-05-12T11:58:10Z</time>
      </trkpt>
      <trkpt lat="44.44802" lon="5.99636">
        <ele>959.79998779297</ele>
        <time>2013-05-12T11:58:13Z</time>
      </trkpt>
      <trkpt lat="44.44806" lon="5.9965">
        <ele>959.79998779297</ele>
        <time>2013-05-12T11:58:15Z</time>
      </trkpt>
      <trkpt lat="44.44814" lon="5.99666">
        <ele>959.79998779297</ele>
        <time>2013-05-12T11:58:19Z</time>
      </trkpt>
      <trkpt lat="44.44808" lon="5.9968">
        <ele>959.79998779297</ele>
        <time>2013-05-12T11:58:22Z</time>
      </trkpt>
      <trkpt lat="44.44807" lon="5.99692">
        <ele>959.40002441406</ele>
        <time>2013-05-12T11:58:24Z</time>
      </trkpt>
      <trkpt lat="44.44809" lon="5.99713">
        <ele>959.40002441406</ele>
        <time>2013-05-12T11:58:27Z</time>
      </trkpt>
      <trkpt lat="44.44811" lon="5.99731">
        <ele>956</ele>
        <time>2013-05-12T11:58:30Z</time>
      </trkpt>
      <trkpt lat="44.4481" lon="5.99743">
        <ele>956</ele>
        <time>2013-05-12T11:58:32Z</time>
      </trkpt>
      <trkpt lat="44.4481" lon="5.99762">
        <ele>956</ele>
        <time>2013-05-12T11:58:35Z</time>
      </trkpt>
      <trkpt lat="44.44801" lon="5.9978">
        <ele>951.40002441406</ele>
        <time>2013-05-12T11:58:40Z</time>
      </trkpt>
      <trkpt lat="44.44801" lon="5.99786">
        <ele>947.79998779297</ele>
        <time>2013-05-12T11:58:42Z</time>
      </trkpt>
      <trkpt lat="44.44807" lon="5.99798">
        <ele>947.79998779297</ele>
        <time>2013-05-12T11:58:46Z</time>
      </trkpt>
      <trkpt lat="44.44814" lon="5.99816">
        <ele>946</ele>
        <time>2013-05-12T11:58:52Z</time>
      </trkpt>
      <trkpt lat="44.44819" lon="5.99842">
        <ele>946</ele>
        <time>2013-05-12T11:58:59Z</time>
      </trkpt>
      <trkpt lat="44.44826" lon="5.99857">
        <ele>941.40002441406</ele>
        <time>2013-05-12T11:59:04Z</time>
      </trkpt>
      <trkpt lat="44.44827" lon="5.99861">
        <ele>938.79998779297</ele>
        <time>2013-05-12T11:59:05Z</time>
      </trkpt>
      <trkpt lat="44.44828" lon="5.99884">
        <ele>933.79998779297</ele>
        <time>2013-05-12T11:59:13Z</time>
      </trkpt>
      <trkpt lat="44.4483" lon="5.99897">
        <ele>933.79998779297</ele>
        <time>2013-05-12T11:59:18Z</time>
      </trkpt>
      <trkpt lat="44.44831" lon="5.99898">
        <ele>930.79998779297</ele>
        <time>2013-05-12T11:59:19Z</time>
      </trkpt>
      <trkpt lat="44.44835" lon="5.99902">
        <ele>929.40002441406</ele>
        <time>2013-05-12T11:59:24Z</time>
      </trkpt>
      <trkpt lat="44.44844" lon="5.99909">
        <ele>928</ele>
        <time>2013-05-12T11:59:34Z</time>
      </trkpt>
      <trkpt lat="44.44846" lon="5.99914">
        <ele>926.79998779297</ele>
        <time>2013-05-12T11:59:40Z</time>
      </trkpt>
      <trkpt lat="44.44843" lon="5.99928">
        <ele>924.20001220703</ele>
        <time>2013-05-12T11:59:46Z</time>
      </trkpt>
      <trkpt lat="44.44843" lon="5.99936">
        <ele>924.20001220703</ele>
        <time>2013-05-12T11:59:49Z</time>
      </trkpt>
      <trkpt lat="44.44841" lon="5.99949">
        <ele>922.20001220703</ele>
        <time>2013-05-12T11:59:52Z</time>
      </trkpt>
      <trkpt lat="44.44839" lon="5.99957">
        <ele>922.20001220703</ele>
        <time>2013-05-12T11:59:54Z</time>
      </trkpt>
      <trkpt lat="44.4484" lon="5.99973">
        <ele>921.20001220703</ele>
        <time>2013-05-12T11:59:57Z</time>
      </trkpt>
      <trkpt lat="44.44842" lon="5.99978">
        <ele>920.40002441406</ele>
        <time>2013-05-12T11:59:58Z</time>
      </trkpt>
      <trkpt lat="44.44844" lon="5.99982">
        <ele>920.40002441406</ele>
        <time>2013-05-12T11:59:59Z</time>
      </trkpt>
      <trkpt lat="44.44855" lon="6.00002">
        <ele>919.40002441406</ele>
        <time>2013-05-12T12:00:03Z</time>
      </trkpt>
      <trkpt lat="44.44872" lon="6.00042">
        <ele>916.59997558594</ele>
        <time>2013-05-12T12:00:09Z</time>
      </trkpt>
      <trkpt lat="44.44872" lon="6.00052">
        <ele>916.59997558594</ele>
        <time>2013-05-12T12:00:10Z</time>
      </trkpt>
      <trkpt lat="44.44872" lon="6.00074">
        <ele>916.59997558594</ele>
        <time>2013-05-12T12:00:12Z</time>
      </trkpt>
      <trkpt lat="44.4487" lon="6.00085">
        <ele>916.59997558594</ele>
        <time>2013-05-12T12:00:13Z</time>
      </trkpt>
      <trkpt lat="44.44867" lon="6.00105">
        <ele>912.40002441406</ele>
        <time>2013-05-12T12:00:15Z</time>
      </trkpt>
      <trkpt lat="44.44864" lon="6.00117">
        <ele>912.40002441406</ele>
        <time>2013-05-12T12:00:16Z</time>
      </trkpt>
      <trkpt lat="44.44862" lon="6.00127">
        <ele>912.40002441406</ele>
        <time>2013-05-12T12:00:17Z</time>
      </trkpt>
      <trkpt lat="44.44852" lon="6.00161">
        <ele>907.20001220703</ele>
        <time>2013-05-12T12:00:21Z</time>
      </trkpt>
      <trkpt lat="44.44841" lon="6.00194">
        <ele>907.20001220703</ele>
        <time>2013-05-12T12:00:25Z</time>
      </trkpt>
      <trkpt lat="44.44838" lon="6.00199">
        <ele>904.40002441406</ele>
        <time>2013-05-12T12:00:26Z</time>
      </trkpt>
      <trkpt lat="44.44836" lon="6.00204">
        <ele>904.40002441406</ele>
        <time>2013-05-12T12:00:27Z</time>
      </trkpt>
      <trkpt lat="44.44833" lon="6.00217">
        <ele>904.40002441406</ele>
        <time>2013-05-12T12:00:29Z</time>
      </trkpt>
      <trkpt lat="44.44833" lon="6.00225">
        <ele>904.40002441406</ele>
        <time>2013-05-12T12:00:30Z</time>
      </trkpt>
      <trkpt lat="44.44838" lon="6.00241">
        <ele>898.59997558594</ele>
        <time>2013-05-12T12:00:32Z</time>
      </trkpt>
      <trkpt lat="44.44837" lon="6.00257">
        <ele>898.59997558594</ele>
        <time>2013-05-12T12:00:34Z</time>
      </trkpt>
      <trkpt lat="44.44835" lon="6.00262">
        <ele>898.59997558594</ele>
        <time>2013-05-12T12:00:35Z</time>
      </trkpt>
      <trkpt lat="44.44827" lon="6.00271">
        <ele>892.79998779297</ele>
        <time>2013-05-12T12:00:38Z</time>
      </trkpt>
      <trkpt lat="44.44814" lon="6.0029">
        <ele>892.79998779297</ele>
        <time>2013-05-12T12:00:42Z</time>
      </trkpt>
      <trkpt lat="44.44799" lon="6.00346">
        <ele>887.40002441406</ele>
        <time>2013-05-12T12:00:49Z</time>
      </trkpt>
      <trkpt lat="44.44793" lon="6.00373">
        <ele>887.40002441406</ele>
        <time>2013-05-12T12:00:52Z</time>
      </trkpt>
      <trkpt lat="44.44791" lon="6.00401">
        <ele>882</ele>
        <time>2013-05-12T12:00:55Z</time>
      </trkpt>
      <trkpt lat="44.44787" lon="6.00435">
        <ele>882</ele>
        <time>2013-05-12T12:00:59Z</time>
      </trkpt>
      <trkpt lat="44.44783" lon="6.00445">
        <ele>882</ele>
        <time>2013-05-12T12:01:00Z</time>
      </trkpt>
      <trkpt lat="44.44778" lon="6.00455">
        <ele>880.20001220703</ele>
        <time>2013-05-12T12:01:01Z</time>
      </trkpt>
      <trkpt lat="44.44771" lon="6.00473">
        <ele>880.20001220703</ele>
        <time>2013-05-12T12:01:03Z</time>
      </trkpt>
      <trkpt lat="44.44765" lon="6.00488">
        <ele>880.20001220703</ele>
        <time>2013-05-12T12:01:05Z</time>
      </trkpt>
      <trkpt lat="44.44761" lon="6.00493">
        <ele>876.20001220703</ele>
        <time>2013-05-12T12:01:06Z</time>
      </trkpt>
      <trkpt lat="44.44748" lon="6.00509">
        <ele>876.20001220703</ele>
        <time>2013-05-12T12:01:09Z</time>
      </trkpt>
      <trkpt lat="44.44744" lon="6.00516">
        <ele>876.20001220703</ele>
        <time>2013-05-12T12:01:10Z</time>
      </trkpt>
      <trkpt lat="44.44739" lon="6.00528">
        <ele>873.79998779297</ele>
        <time>2013-05-12T12:01:12Z</time>
      </trkpt>
      <trkpt lat="44.44735" lon="6.00544">
        <ele>873.79998779297</ele>
        <time>2013-05-12T12:01:14Z</time>
      </trkpt>
      <trkpt lat="44.44727" lon="6.00582">
        <ele>871.20001220703</ele>
        <time>2013-05-12T12:01:18Z</time>
      </trkpt>
      <trkpt lat="44.44723" lon="6.00592">
        <ele>871.20001220703</ele>
        <time>2013-05-12T12:01:19Z</time>
      </trkpt>
      <trkpt lat="44.44708" lon="6.00616">
        <ele>871.20001220703</ele>
        <time>2013-05-12T12:01:22Z</time>
      </trkpt>
      <trkpt lat="44.44703" lon="6.00625">
        <ele>869.79998779297</ele>
        <time>2013-05-12T12:01:23Z</time>
      </trkpt>
      <trkpt lat="44.44685" lon="6.00666">
        <ele>869.79998779297</ele>
        <time>2013-05-12T12:01:27Z</time>
      </trkpt>
      <trkpt lat="44.44679" lon="6.00672">
        <ele>869.79998779297</ele>
        <time>2013-05-12T12:01:28Z</time>
      </trkpt>
      <trkpt lat="44.44667" lon="6.00678">
        <ele>867.20001220703</ele>
        <time>2013-05-12T12:01:30Z</time>
      </trkpt>
      <trkpt lat="44.44651" lon="6.00682">
        <ele>867.20001220703</ele>
        <time>2013-05-12T12:01:33Z</time>
      </trkpt>
      <trkpt lat="44.44642" lon="6.00686">
        <ele>867.20001220703</ele>
        <time>2013-05-12T12:01:35Z</time>
      </trkpt>
      <trkpt lat="44.44621" lon="6.00698">
        <ele>867.20001220703</ele>
        <time>2013-05-12T12:01:39Z</time>
      </trkpt>
      <trkpt lat="44.44602" lon="6.00703">
        <ele>864.59997558594</ele>
        <time>2013-05-12T12:01:42Z</time>
      </trkpt>
      <trkpt lat="44.44593" lon="6.00704">
        <ele>864.59997558594</ele>
        <time>2013-05-12T12:01:44Z</time>
      </trkpt>
      <trkpt lat="44.44579" lon="6.00704">
        <ele>864.59997558594</ele>
        <time>2013-05-12T12:01:47Z</time>
      </trkpt>
      <trkpt lat="44.44564" lon="6.00697">
        <ele>863.20001220703</ele>
        <time>2013-05-12T12:01:50Z</time>
      </trkpt>
      <trkpt lat="44.44556" lon="6.00703">
        <ele>863.20001220703</ele>
        <time>2013-05-12T12:01:53Z</time>
      </trkpt>
      <trkpt lat="44.44564" lon="6.00711">
        <ele>863.20001220703</ele>
        <time>2013-05-12T12:01:56Z</time>
      </trkpt>
      <trkpt lat="44.44572" lon="6.00717">
        <ele>863.20001220703</ele>
        <time>2013-05-12T12:01:58Z</time>
      </trkpt>
      <trkpt lat="44.44576" lon="6.00723">
        <ele>862</ele>
        <time>2013-05-12T12:02:00Z</time>
      </trkpt>
      <trkpt lat="44.4457" lon="6.00731">
        <ele>853.20001220703</ele>
        <time>2013-05-12T12:05:38Z</time>
      </trkpt>
      <trkpt lat="44.44566" lon="6.00735">
        <ele>852.79998779297</ele>
        <time>2013-05-12T12:05:39Z</time>
      </trkpt>
      <trkpt lat="44.44554" lon="6.00743">
        <ele>852.79998779297</ele>
        <time>2013-05-12T12:05:41Z</time>
      </trkpt>
      <trkpt lat="44.44529" lon="6.00759">
        <ele>852</ele>
        <time>2013-05-12T12:05:44Z</time>
      </trkpt>
      <trkpt lat="44.4452" lon="6.00765">
        <ele>852</ele>
        <time>2013-05-12T12:05:45Z</time>
      </trkpt>
      <trkpt lat="44.44498" lon="6.00787">
        <ele>852</ele>
        <time>2013-05-12T12:05:48Z</time>
      </trkpt>
      <trkpt lat="44.44494" lon="6.00796">
        <ele>852</ele>
        <time>2013-05-12T12:05:49Z</time>
      </trkpt>
      <trkpt lat="44.44492" lon="6.00808">
        <ele>848.59997558594</ele>
        <time>2013-05-12T12:05:50Z</time>
      </trkpt>
      <trkpt lat="44.44487" lon="6.00831">
        <ele>848.59997558594</ele>
        <time>2013-05-12T12:05:52Z</time>
      </trkpt>
      <trkpt lat="44.4448" lon="6.00855">
        <ele>848.59997558594</ele>
        <time>2013-05-12T12:05:54Z</time>
      </trkpt>
      <trkpt lat="44.44471" lon="6.00876">
        <ele>844.59997558594</ele>
        <time>2013-05-12T12:05:56Z</time>
      </trkpt>
      <trkpt lat="44.44453" lon="6.00902">
        <ele>844.59997558594</ele>
        <time>2013-05-12T12:05:59Z</time>
      </trkpt>
      <trkpt lat="44.44431" lon="6.00925">
        <ele>841.20001220703</ele>
        <time>2013-05-12T12:06:02Z</time>
      </trkpt>
      <trkpt lat="44.44424" lon="6.00934">
        <ele>841.20001220703</ele>
        <time>2013-05-12T12:06:03Z</time>
      </trkpt>
      <trkpt lat="44.44418" lon="6.00943">
        <ele>841.20001220703</ele>
        <time>2013-05-12T12:06:04Z</time>
      </trkpt>
      <trkpt lat="44.4441" lon="6.00964">
        <ele>841.20001220703</ele>
        <time>2013-05-12T12:06:06Z</time>
      </trkpt>
      <trkpt lat="44.44409" lon="6.00976">
        <ele>839.79998779297</ele>
        <time>2013-05-12T12:06:07Z</time>
      </trkpt>
      <trkpt lat="44.4441" lon="6.00987">
        <ele>839.79998779297</ele>
        <time>2013-05-12T12:06:08Z</time>
      </trkpt>
      <trkpt lat="44.44422" lon="6.01019">
        <ele>839.79998779297</ele>
        <time>2013-05-12T12:06:11Z</time>
      </trkpt>
      <trkpt lat="44.44427" lon="6.01029">
        <ele>839.79998779297</ele>
        <time>2013-05-12T12:06:12Z</time>
      </trkpt>
      <trkpt lat="44.44434" lon="6.01038">
        <ele>836</ele>
        <time>2013-05-12T12:06:13Z</time>
      </trkpt>
      <trkpt lat="44.44442" lon="6.01047">
        <ele>836</ele>
        <time>2013-05-12T12:06:14Z</time>
      </trkpt>
      <trkpt lat="44.44468" lon="6.01075">
        <ele>836</ele>
        <time>2013-05-12T12:06:17Z</time>
      </trkpt>
      <trkpt lat="44.44474" lon="6.01087">
        <ele>836</ele>
        <time>2013-05-12T12:06:18Z</time>
      </trkpt>
      <trkpt lat="44.4448" lon="6.011">
        <ele>832.20001220703</ele>
        <time>2013-05-12T12:06:19Z</time>
      </trkpt>
      <trkpt lat="44.44486" lon="6.01127">
        <ele>832.20001220703</ele>
        <time>2013-05-12T12:06:21Z</time>
      </trkpt>
      <trkpt lat="44.44489" lon="6.01137">
        <ele>832.20001220703</ele>
        <time>2013-05-12T12:06:22Z</time>
      </trkpt>
      <trkpt lat="44.445" lon="6.01151">
        <ele>829.79998779297</ele>
        <time>2013-05-12T12:06:24Z</time>
      </trkpt>
      <trkpt lat="44.44508" lon="6.01155">
        <ele>827.40002441406</ele>
        <time>2013-05-12T12:06:25Z</time>
      </trkpt>
      <trkpt lat="44.44527" lon="6.01154">
        <ele>827.40002441406</ele>
        <time>2013-05-12T12:06:27Z</time>
      </trkpt>
      <trkpt lat="44.44551" lon="6.01136">
        <ele>824.79998779297</ele>
        <time>2013-05-12T12:06:30Z</time>
      </trkpt>
      <trkpt lat="44.44564" lon="6.01117">
        <ele>824.79998779297</ele>
        <time>2013-05-12T12:06:32Z</time>
      </trkpt>
      <trkpt lat="44.4458" lon="6.01097">
        <ele>824.79998779297</ele>
        <time>2013-05-12T12:06:34Z</time>
      </trkpt>
      <trkpt lat="44.44588" lon="6.01089">
        <ele>824.79998779297</ele>
        <time>2013-05-12T12:06:35Z</time>
      </trkpt>
      <trkpt lat="44.44598" lon="6.01083">
        <ele>820</ele>
        <time>2013-05-12T12:06:36Z</time>
      </trkpt>
      <trkpt lat="44.44606" lon="6.01075">
        <ele>820</ele>
        <time>2013-05-12T12:06:37Z</time>
      </trkpt>
      <trkpt lat="44.44626" lon="6.01044">
        <ele>820</ele>
        <time>2013-05-12T12:06:40Z</time>
      </trkpt>
      <trkpt lat="44.44638" lon="6.01024">
        <ele>815</ele>
        <time>2013-05-12T12:06:42Z</time>
      </trkpt>
      <trkpt lat="44.44643" lon="6.01021">
        <ele>815</ele>
        <time>2013-05-12T12:06:43Z</time>
      </trkpt>
      <trkpt lat="44.44649" lon="6.01019">
        <ele>815</ele>
        <time>2013-05-12T12:06:44Z</time>
      </trkpt>
      <trkpt lat="44.44654" lon="6.0102">
        <ele>815</ele>
        <time>2013-05-12T12:06:45Z</time>
      </trkpt>
      <trkpt lat="44.44666" lon="6.01018">
        <ele>815</ele>
        <time>2013-05-12T12:06:47Z</time>
      </trkpt>
      <trkpt lat="44.44673" lon="6.01015">
        <ele>809.59997558594</ele>
        <time>2013-05-12T12:06:48Z</time>
      </trkpt>
      <trkpt lat="44.44698" lon="6.01009">
        <ele>809.59997558594</ele>
        <time>2013-05-12T12:06:52Z</time>
      </trkpt>
      <trkpt lat="44.44704" lon="6.01005">
        <ele>807.20001220703</ele>
        <time>2013-05-12T12:06:53Z</time>
      </trkpt>
      <trkpt lat="44.44711" lon="6.01002">
        <ele>804.79998779297</ele>
        <time>2013-05-12T12:06:54Z</time>
      </trkpt>
      <trkpt lat="44.44725" lon="6.01001">
        <ele>804.79998779297</ele>
        <time>2013-05-12T12:06:56Z</time>
      </trkpt>
      <trkpt lat="44.44734" lon="6.00991">
        <ele>804.79998779297</ele>
        <time>2013-05-12T12:06:58Z</time>
      </trkpt>
      <trkpt lat="44.44737" lon="6.00983">
        <ele>804.79998779297</ele>
        <time>2013-05-12T12:06:59Z</time>
      </trkpt>
      <trkpt lat="44.44739" lon="6.00976">
        <ele>802.59997558594</ele>
        <time>2013-05-12T12:07:00Z</time>
      </trkpt>
      <trkpt lat="44.44754" lon="6.00973">
        <ele>802.59997558594</ele>
        <time>2013-05-12T12:07:03Z</time>
      </trkpt>
      <trkpt lat="44.44768" lon="6.0097">
        <ele>800.40002441406</ele>
        <time>2013-05-12T12:07:05Z</time>
      </trkpt>
      <trkpt lat="44.4478" lon="6.00961">
        <ele>800.40002441406</ele>
        <time>2013-05-12T12:07:07Z</time>
      </trkpt>
      <trkpt lat="44.44804" lon="6.00935">
        <ele>796</ele>
        <time>2013-05-12T12:07:11Z</time>
      </trkpt>
      <trkpt lat="44.44812" lon="6.00916">
        <ele>796</ele>
        <time>2013-05-12T12:07:14Z</time>
      </trkpt>
      <trkpt lat="44.44821" lon="6.00925">
        <ele>791.40002441406</ele>
        <time>2013-05-12T12:07:17Z</time>
      </trkpt>
      <trkpt lat="44.44823" lon="6.00941">
        <ele>791.40002441406</ele>
        <time>2013-05-12T12:07:19Z</time>
      </trkpt>
      <trkpt lat="44.44817" lon="6.00965">
        <ele>789.20001220703</ele>
        <time>2013-05-12T12:07:22Z</time>
      </trkpt>
      <trkpt lat="44.44814" lon="6.00975">
        <ele>789.20001220703</ele>
        <time>2013-05-12T12:07:23Z</time>
      </trkpt>
      <trkpt lat="44.44804" lon="6.01014">
        <ele>789.20001220703</ele>
        <time>2013-05-12T12:07:27Z</time>
      </trkpt>
      <trkpt lat="44.44799" lon="6.0102">
        <ele>786.79998779297</ele>
        <time>2013-05-12T12:07:28Z</time>
      </trkpt>
      <trkpt lat="44.4479" lon="6.01026">
        <ele>786.79998779297</ele>
        <time>2013-05-12T12:07:30Z</time>
      </trkpt>
      <trkpt lat="44.44787" lon="6.01037">
        <ele>786.79998779297</ele>
        <time>2013-05-12T12:07:32Z</time>
      </trkpt>
      <trkpt lat="44.44788" lon="6.01051">
        <ele>782.20001220703</ele>
        <time>2013-05-12T12:07:34Z</time>
      </trkpt>
      <trkpt lat="44.44769" lon="6.01072">
        <ele>782.20001220703</ele>
        <time>2013-05-12T12:07:38Z</time>
      </trkpt>
      <trkpt lat="44.44746" lon="6.01114">
        <ele>779.79998779297</ele>
        <time>2013-05-12T12:07:43Z</time>
      </trkpt>
      <trkpt lat="44.44736" lon="6.01129">
        <ele>777.79998779297</ele>
        <time>2013-05-12T12:07:45Z</time>
      </trkpt>
      <trkpt lat="44.44715" lon="6.01164">
        <ele>777.79998779297</ele>
        <time>2013-05-12T12:07:49Z</time>
      </trkpt>
      <trkpt lat="44.44706" lon="6.01178">
        <ele>773</ele>
        <time>2013-05-12T12:07:51Z</time>
      </trkpt>
      <trkpt lat="44.447" lon="6.01181">
        <ele>770.59997558594</ele>
        <time>2013-05-12T12:07:52Z</time>
      </trkpt>
      <trkpt lat="44.44696" lon="6.01183">
        <ele>768.79998779297</ele>
        <time>2013-05-12T12:07:53Z</time>
      </trkpt>
      <trkpt lat="44.44697" lon="6.01193">
        <ele>767</ele>
        <time>2013-05-12T12:07:56Z</time>
      </trkpt>
      <trkpt lat="44.44707" lon="6.01191">
        <ele>767</ele>
        <time>2013-05-12T12:07:59Z</time>
      </trkpt>
      <trkpt lat="44.44712" lon="6.0119">
        <ele>763.79998779297</ele>
        <time>2013-05-12T12:08:00Z</time>
      </trkpt>
      <trkpt lat="44.4472" lon="6.0119">
        <ele>763.79998779297</ele>
        <time>2013-05-12T12:08:01Z</time>
      </trkpt>
      <trkpt lat="44.44727" lon="6.0119">
        <ele>763.79998779297</ele>
        <time>2013-05-12T12:08:02Z</time>
      </trkpt>
      <trkpt lat="44.44741" lon="6.01188">
        <ele>763.79998779297</ele>
        <time>2013-05-12T12:08:04Z</time>
      </trkpt>
      <trkpt lat="44.44756" lon="6.01187">
        <ele>761</ele>
        <time>2013-05-12T12:08:06Z</time>
      </trkpt>
      <trkpt lat="44.44785" lon="6.01179">
        <ele>761</ele>
        <time>2013-05-12T12:08:10Z</time>
      </trkpt>
      <trkpt lat="44.44794" lon="6.01178">
        <ele>759.40002441406</ele>
        <time>2013-05-12T12:08:11Z</time>
      </trkpt>
      <trkpt lat="44.44802" lon="6.01177">
        <ele>758</ele>
        <time>2013-05-12T12:08:12Z</time>
      </trkpt>
      <trkpt lat="44.44815" lon="6.01174">
        <ele>758</ele>
        <time>2013-05-12T12:08:14Z</time>
      </trkpt>
      <trkpt lat="44.44828" lon="6.01172">
        <ele>756.20001220703</ele>
        <time>2013-05-12T12:08:17Z</time>
      </trkpt>
      <trkpt lat="44.4481" lon="6.01188">
        <ele>752.59997558594</ele>
        <time>2013-05-12T12:08:23Z</time>
      </trkpt>
      <trkpt lat="44.44785" lon="6.01206">
        <ele>752.59997558594</ele>
        <time>2013-05-12T12:08:27Z</time>
      </trkpt>
      <trkpt lat="44.44778" lon="6.01212">
        <ele>750.79998779297</ele>
        <time>2013-05-12T12:08:28Z</time>
      </trkpt>
      <trkpt lat="44.44765" lon="6.01223">
        <ele>750.79998779297</ele>
        <time>2013-05-12T12:08:30Z</time>
      </trkpt>
      <trkpt lat="44.44757" lon="6.01233">
        <ele>750.79998779297</ele>
        <time>2013-05-12T12:08:32Z</time>
      </trkpt>
      <trkpt lat="44.44767" lon="6.01235">
        <ele>749</ele>
        <time>2013-05-12T12:08:36Z</time>
      </trkpt>
      <trkpt lat="44.44771" lon="6.01232">
        <ele>749</ele>
        <time>2013-05-12T12:08:37Z</time>
      </trkpt>
      <trkpt lat="44.44781" lon="6.01229">
        <ele>744.79998779297</ele>
        <time>2013-05-12T12:08:39Z</time>
      </trkpt>
      <trkpt lat="44.44816" lon="6.01219">
        <ele>744.79998779297</ele>
        <time>2013-05-12T12:08:44Z</time>
      </trkpt>
      <trkpt lat="44.44824" lon="6.01221">
        <ele>741</ele>
        <time>2013-05-12T12:08:45Z</time>
      </trkpt>
      <trkpt lat="44.44839" lon="6.01219">
        <ele>741</ele>
        <time>2013-05-12T12:08:47Z</time>
      </trkpt>
      <trkpt lat="44.44868" lon="6.01208">
        <ele>737.20001220703</ele>
        <time>2013-05-12T12:08:51Z</time>
      </trkpt>
      <trkpt lat="44.44874" lon="6.0121">
        <ele>737.20001220703</ele>
        <time>2013-05-12T12:08:52Z</time>
      </trkpt>
      <trkpt lat="44.44876" lon="6.01194">
        <ele>733.40002441406</ele>
        <time>2013-05-12T12:08:56Z</time>
      </trkpt>
      <trkpt lat="44.44874" lon="6.01185">
        <ele>733.40002441406</ele>
        <time>2013-05-12T12:08:57Z</time>
      </trkpt>
      <trkpt lat="44.44875" lon="6.01172">
        <ele>733.40002441406</ele>
        <time>2013-05-12T12:08:59Z</time>
      </trkpt>
      <trkpt lat="44.44881" lon="6.01173">
        <ele>731.59997558594</ele>
        <time>2013-05-12T12:09:01Z</time>
      </trkpt>
      <trkpt lat="44.44892" lon="6.01191">
        <ele>731.59997558594</ele>
        <time>2013-05-12T12:09:04Z</time>
      </trkpt>
      <trkpt lat="44.44899" lon="6.01202">
        <ele>727.59997558594</ele>
        <time>2013-05-12T12:09:06Z</time>
      </trkpt>
      <trkpt lat="44.44898" lon="6.01217">
        <ele>727.59997558594</ele>
        <time>2013-05-12T12:09:09Z</time>
      </trkpt>
      <trkpt lat="44.44904" lon="6.01213">
        <ele>727.59997558594</ele>
        <time>2013-05-12T12:09:10Z</time>
      </trkpt>
      <trkpt lat="44.44904" lon="6.01207">
        <ele>727.59997558594</ele>
        <time>2013-05-12T12:09:11Z</time>
      </trkpt>
      <trkpt lat="44.44904" lon="6.01199">
        <ele>723.79998779297</ele>
        <time>2013-05-12T12:09:12Z</time>
      </trkpt>
      <trkpt lat="44.44907" lon="6.01183">
        <ele>723.79998779297</ele>
        <time>2013-05-12T12:09:14Z</time>
      </trkpt>
      <trkpt lat="44.44908" lon="6.01174">
        <ele>723.79998779297</ele>
        <time>2013-05-12T12:09:15Z</time>
      </trkpt>
      <trkpt lat="44.44911" lon="6.0115">
        <ele>720.40002441406</ele>
        <time>2013-05-12T12:09:18Z</time>
      </trkpt>
      <trkpt lat="44.44917" lon="6.01131">
        <ele>720.40002441406</ele>
        <time>2013-05-12T12:09:21Z</time>
      </trkpt>
      <trkpt lat="44.44927" lon="6.0112">
        <ele>718.79998779297</ele>
        <time>2013-05-12T12:09:23Z</time>
      </trkpt>
      <trkpt lat="44.4494" lon="6.01115">
        <ele>718.79998779297</ele>
        <time>2013-05-12T12:09:25Z</time>
      </trkpt>
      <trkpt lat="44.44955" lon="6.0112">
        <ele>715.40002441406</ele>
        <time>2013-05-12T12:09:28Z</time>
      </trkpt>
      <trkpt lat="44.44965" lon="6.01119">
        <ele>715.40002441406</ele>
        <time>2013-05-12T12:09:30Z</time>
      </trkpt>
      <trkpt lat="44.4497" lon="6.01121">
        <ele>715.40002441406</ele>
        <time>2013-05-12T12:09:31Z</time>
      </trkpt>
      <trkpt lat="44.44973" lon="6.01123">
        <ele>715.40002441406</ele>
        <time>2013-05-12T12:09:32Z</time>
      </trkpt>
      <trkpt lat="44.44969" lon="6.01128">
        <ele>715.40002441406</ele>
        <time>2013-05-12T12:09:33Z</time>
      </trkpt>
      <trkpt lat="44.44967" lon="6.01131">
        <ele>711.79998779297</ele>
        <time>2013-05-12T12:09:34Z</time>
      </trkpt>
      <trkpt lat="44.44954" lon="6.01143">
        <ele>711.79998779297</ele>
        <time>2013-05-12T12:09:38Z</time>
      </trkpt>
      <trkpt lat="44.44958" lon="6.01162">
        <ele>710.40002441406</ele>
        <time>2013-05-12T12:09:41Z</time>
      </trkpt>
      <trkpt lat="44.44959" lon="6.01185">
        <ele>707.20001220703</ele>
        <time>2013-05-12T12:09:44Z</time>
      </trkpt>
      <trkpt lat="44.44955" lon="6.01208">
        <ele>707.20001220703</ele>
        <time>2013-05-12T12:09:47Z</time>
      </trkpt>
      <trkpt lat="44.44952" lon="6.01223">
        <ele>704.79998779297</ele>
        <time>2013-05-12T12:09:50Z</time>
      </trkpt>
      <trkpt lat="44.44961" lon="6.01232">
        <ele>704.79998779297</ele>
        <time>2013-05-12T12:09:52Z</time>
      </trkpt>
      <trkpt lat="44.44986" lon="6.01232">
        <ele>704.79998779297</ele>
        <time>2013-05-12T12:09:56Z</time>
      </trkpt>
      <trkpt lat="44.45" lon="6.01216">
        <ele>703.20001220703</ele>
        <time>2013-05-12T12:10:00Z</time>
      </trkpt>
      <trkpt lat="44.45002" lon="6.01209">
        <ele>703.20001220703</ele>
        <time>2013-05-12T12:10:01Z</time>
      </trkpt>
      <trkpt lat="44.45" lon="6.01198">
        <ele>703.20001220703</ele>
        <time>2013-05-12T12:10:02Z</time>
      </trkpt>
      <trkpt lat="44.45007" lon="6.01201">
        <ele>699.40002441406</ele>
        <time>2013-05-12T12:10:06Z</time>
      </trkpt>
      <trkpt lat="44.45006" lon="6.01223">
        <ele>699.40002441406</ele>
        <time>2013-05-12T12:10:10Z</time>
      </trkpt>
      <trkpt lat="44.45007" lon="6.01236">
        <ele>695.59997558594</ele>
        <time>2013-05-12T12:10:12Z</time>
      </trkpt>
      <trkpt lat="44.4501" lon="6.01242">
        <ele>695.59997558594</ele>
        <time>2013-05-12T12:10:13Z</time>
      </trkpt>
      <trkpt lat="44.45013" lon="6.01247">
        <ele>695.59997558594</ele>
        <time>2013-05-12T12:10:14Z</time>
      </trkpt>
      <trkpt lat="44.45012" lon="6.01267">
        <ele>695.59997558594</ele>
        <time>2013-05-12T12:10:17Z</time>
      </trkpt>
      <trkpt lat="44.4501" lon="6.01275">
        <ele>695.59997558594</ele>
        <time>2013-05-12T12:10:18Z</time>
      </trkpt>
      <trkpt lat="44.45007" lon="6.01283">
        <ele>694.20001220703</ele>
        <time>2013-05-12T12:10:19Z</time>
      </trkpt>
      <trkpt lat="44.44991" lon="6.01314">
        <ele>694.20001220703</ele>
        <time>2013-05-12T12:10:23Z</time>
      </trkpt>
      <trkpt lat="44.44981" lon="6.01328">
        <ele>692.79998779297</ele>
        <time>2013-05-12T12:10:25Z</time>
      </trkpt>
      <trkpt lat="44.44971" lon="6.01338">
        <ele>692.79998779297</ele>
        <time>2013-05-12T12:10:27Z</time>
      </trkpt>
      <trkpt lat="44.44968" lon="6.01343">
        <ele>692.79998779297</ele>
        <time>2013-05-12T12:10:28Z</time>
      </trkpt>
      <trkpt lat="44.44972" lon="6.01348">
        <ele>689.20001220703</ele>
        <time>2013-05-12T12:10:32Z</time>
      </trkpt>
      <trkpt lat="44.44981" lon="6.01348">
        <ele>679.79998779297</ele>
        <time>2013-05-12T12:12:23Z</time>
      </trkpt>
      <trkpt lat="44.44994" lon="6.01348">
        <ele>679.79998779297</ele>
        <time>2013-05-12T12:12:26Z</time>
      </trkpt>
      <trkpt lat="44.45003" lon="6.01344">
        <ele>679.79998779297</ele>
        <time>2013-05-12T12:12:28Z</time>
      </trkpt>
      <trkpt lat="44.45023" lon="6.01342">
        <ele>679.40002441406</ele>
        <time>2013-05-12T12:12:32Z</time>
      </trkpt>
      <trkpt lat="44.45034" lon="6.01338">
        <ele>678.79998779297</ele>
        <time>2013-05-12T12:12:34Z</time>
      </trkpt>
      <trkpt lat="44.45037" lon="6.01341">
        <ele>677.79998779297</ele>
        <time>2013-05-12T12:12:35Z</time>
      </trkpt>
      <trkpt lat="44.45041" lon="6.01345">
        <ele>677.79998779297</ele>
        <time>2013-05-12T12:12:36Z</time>
      </trkpt>
      <trkpt lat="44.4504" lon="6.01367">
        <ele>676</ele>
        <time>2013-05-12T12:12:40Z</time>
      </trkpt>
      <trkpt lat="44.45032" lon="6.01396">
        <ele>675</ele>
        <time>2013-05-12T12:12:45Z</time>
      </trkpt>
      <trkpt lat="44.45046" lon="6.01399">
        <ele>675</ele>
        <time>2013-05-12T12:12:48Z</time>
      </trkpt>
      <trkpt lat="44.45054" lon="6.0139">
        <ele>674.20001220703</ele>
        <time>2013-05-12T12:12:50Z</time>
      </trkpt>
      <trkpt lat="44.45056" lon="6.01385">
        <ele>672.79998779297</ele>
        <time>2013-05-12T12:12:51Z</time>
      </trkpt>
      <trkpt lat="44.45065" lon="6.01364">
        <ele>672.79998779297</ele>
        <time>2013-05-12T12:12:56Z</time>
      </trkpt>
      <trkpt lat="44.4507" lon="6.01356">
        <ele>670.40002441406</ele>
        <time>2013-05-12T12:12:58Z</time>
      </trkpt>
      <trkpt lat="44.45071" lon="6.01352">
        <ele>669</ele>
        <time>2013-05-12T12:12:59Z</time>
      </trkpt>
      <trkpt lat="44.45071" lon="6.01349">
        <ele>667.79998779297</ele>
        <time>2013-05-12T12:13:00Z</time>
      </trkpt>
      <trkpt lat="44.45076" lon="6.01338">
        <ele>666.40002441406</ele>
        <time>2013-05-12T12:13:05Z</time>
      </trkpt>
      <trkpt lat="44.45085" lon="6.01346">
        <ele>665.20001220703</ele>
        <time>2013-05-12T12:13:09Z</time>
      </trkpt>
      <trkpt lat="44.45087" lon="6.0135">
        <ele>665.20001220703</ele>
        <time>2013-05-12T12:13:10Z</time>
      </trkpt>
      <trkpt lat="44.45091" lon="6.0137">
        <ele>665.20001220703</ele>
        <time>2013-05-12T12:13:14Z</time>
      </trkpt>
      <trkpt lat="44.45095" lon="6.01402">
        <ele>665.20001220703</ele>
        <time>2013-05-12T12:13:18Z</time>
      </trkpt>
      <trkpt lat="44.451" lon="6.0143">
        <ele>663.79998779297</ele>
        <time>2013-05-12T12:13:23Z</time>
      </trkpt>
      <trkpt lat="44.45102" lon="6.01468">
        <ele>662.59997558594</ele>
        <time>2013-05-12T12:13:28Z</time>
      </trkpt>
      <trkpt lat="44.45105" lon="6.01477">
        <ele>661.40002441406</ele>
        <time>2013-05-12T12:13:29Z</time>
      </trkpt>
      <trkpt lat="44.45107" lon="6.01486">
        <ele>661.40002441406</ele>
        <time>2013-05-12T12:13:30Z</time>
      </trkpt>
      <trkpt lat="44.45114" lon="6.01502">
        <ele>661.40002441406</ele>
        <time>2013-05-12T12:13:32Z</time>
      </trkpt>
      <trkpt lat="44.4512" lon="6.01514">
        <ele>659.79998779297</ele>
        <time>2013-05-12T12:13:34Z</time>
      </trkpt>
      <trkpt lat="44.4513" lon="6.01519">
        <ele>659.79998779297</ele>
        <time>2013-05-12T12:13:36Z</time>
      </trkpt>
      <trkpt lat="44.4515" lon="6.01521">
        <ele>656.79998779297</ele>
        <time>2013-05-12T12:13:39Z</time>
      </trkpt>
      <trkpt lat="44.45163" lon="6.01529">
        <ele>656.79998779297</ele>
        <time>2013-05-12T12:13:41Z</time>
      </trkpt>
      <trkpt lat="44.45167" lon="6.01537">
        <ele>656.79998779297</ele>
        <time>2013-05-12T12:13:42Z</time>
      </trkpt>
      <trkpt lat="44.45172" lon="6.01553">
        <ele>655.20001220703</ele>
        <time>2013-05-12T12:13:44Z</time>
      </trkpt>
      <trkpt lat="44.45174" lon="6.01561">
        <ele>655.20001220703</ele>
        <time>2013-05-12T12:13:45Z</time>
      </trkpt>
      <trkpt lat="44.45181" lon="6.01593">
        <ele>653.59997558594</ele>
        <time>2013-05-12T12:13:49Z</time>
      </trkpt>
      <trkpt lat="44.45183" lon="6.01601">
        <ele>652</ele>
        <time>2013-05-12T12:13:50Z</time>
      </trkpt>
      <trkpt lat="44.45195" lon="6.01618">
        <ele>652</ele>
        <time>2013-05-12T12:13:54Z</time>
      </trkpt>
      <trkpt lat="44.45195" lon="6.01621">
        <ele>650.59997558594</ele>
        <time>2013-05-12T12:13:55Z</time>
      </trkpt>
      <trkpt lat="44.45191" lon="6.01631">
        <ele>649.20001220703</ele>
        <time>2013-05-12T12:13:58Z</time>
      </trkpt>
      <trkpt lat="44.45189" lon="6.01642">
        <ele>646.79998779297</ele>
        <time>2013-05-12T12:14:01Z</time>
      </trkpt>
      <trkpt lat="44.45193" lon="6.01657">
        <ele>646.79998779297</ele>
        <time>2013-05-12T12:14:05Z</time>
      </trkpt>
      <trkpt lat="44.45204" lon="6.01669">
        <ele>645.79998779297</ele>
        <time>2013-05-12T12:14:09Z</time>
      </trkpt>
      <trkpt lat="44.45209" lon="6.01675">
        <ele>644.79998779297</ele>
        <time>2013-05-12T12:14:11Z</time>
      </trkpt>
      <trkpt lat="44.45211" lon="6.01679">
        <ele>644</ele>
        <time>2013-05-12T12:14:12Z</time>
      </trkpt>
      <trkpt lat="44.45214" lon="6.01683">
        <ele>644</ele>
        <time>2013-05-12T12:14:13Z</time>
      </trkpt>
      <trkpt lat="44.45226" lon="6.017">
        <ele>643</ele>
        <time>2013-05-12T12:14:17Z</time>
      </trkpt>
      <trkpt lat="44.45245" lon="6.01719">
        <ele>641.40002441406</ele>
        <time>2013-05-12T12:14:23Z</time>
      </trkpt>
      <trkpt lat="44.45258" lon="6.01728">
        <ele>640.40002441406</ele>
        <time>2013-05-12T12:14:27Z</time>
      </trkpt>
      <trkpt lat="44.45258" lon="6.01732">
        <ele>640.40002441406</ele>
        <time>2013-05-12T12:14:28Z</time>
      </trkpt>
      <trkpt lat="44.4527" lon="6.01755">
        <ele>640.40002441406</ele>
        <time>2013-05-12T12:14:33Z</time>
      </trkpt>
      <trkpt lat="44.45283" lon="6.01774">
        <ele>640</ele>
        <time>2013-05-12T12:14:37Z</time>
      </trkpt>
      <trkpt lat="44.45289" lon="6.01784">
        <ele>639.59997558594</ele>
        <time>2013-05-12T12:14:41Z</time>
      </trkpt>
      <trkpt lat="44.45294" lon="6.01794">
        <ele>639.20001220703</ele>
        <time>2013-05-12T12:14:43Z</time>
      </trkpt>
      <trkpt lat="44.45298" lon="6.01801">
        <ele>638.59997558594</ele>
        <time>2013-05-12T12:14:44Z</time>
      </trkpt>
      <trkpt lat="44.45306" lon="6.01815">
        <ele>638.59997558594</ele>
        <time>2013-05-12T12:14:46Z</time>
      </trkpt>
      <trkpt lat="44.45311" lon="6.01831">
        <ele>638.59997558594</ele>
        <time>2013-05-12T12:14:48Z</time>
      </trkpt>
      <trkpt lat="44.45317" lon="6.01862">
        <ele>638</ele>
        <time>2013-05-12T12:14:52Z</time>
      </trkpt>
      <trkpt lat="44.45317" lon="6.01871">
        <ele>638</ele>
        <time>2013-05-12T12:14:53Z</time>
      </trkpt>
      <trkpt lat="44.45319" lon="6.01923">
        <ele>637</ele>
        <time>2013-05-12T12:14:58Z</time>
      </trkpt>
      <trkpt lat="44.45319" lon="6.01933">
        <ele>636</ele>
        <time>2013-05-12T12:14:59Z</time>
      </trkpt>
      <trkpt lat="44.45323" lon="6.01974">
        <ele>636</ele>
        <time>2013-05-12T12:15:03Z</time>
      </trkpt>
      <trkpt lat="44.45324" lon="6.0199">
        <ele>634.59997558594</ele>
        <time>2013-05-12T12:15:05Z</time>
      </trkpt>
      <trkpt lat="44.45326" lon="6.02012">
        <ele>634.59997558594</ele>
        <time>2013-05-12T12:15:08Z</time>
      </trkpt>
      <trkpt lat="44.45331" lon="6.02024">
        <ele>633.20001220703</ele>
        <time>2013-05-12T12:15:10Z</time>
      </trkpt>
      <trkpt lat="44.45341" lon="6.02035">
        <ele>633.20001220703</ele>
        <time>2013-05-12T12:15:12Z</time>
      </trkpt>
      <trkpt lat="44.45345" lon="6.0204">
        <ele>633.20001220703</ele>
        <time>2013-05-12T12:15:13Z</time>
      </trkpt>
      <trkpt lat="44.45353" lon="6.02049">
        <ele>631.79998779297</ele>
        <time>2013-05-12T12:15:15Z</time>
      </trkpt>
      <trkpt lat="44.45357" lon="6.02051">
        <ele>631.79998779297</ele>
        <time>2013-05-12T12:15:16Z</time>
      </trkpt>
      <trkpt lat="44.45369" lon="6.0205">
        <ele>631.79998779297</ele>
        <time>2013-05-12T12:15:20Z</time>
      </trkpt>
      <trkpt lat="44.45372" lon="6.02049">
        <ele>630.40002441406</ele>
        <time>2013-05-12T12:15:21Z</time>
      </trkpt>
      <trkpt lat="44.45386" lon="6.02038">
        <ele>629</ele>
        <time>2013-05-12T12:15:26Z</time>
      </trkpt>
      <trkpt lat="44.45399" lon="6.02029">
        <ele>627.59997558594</ele>
        <time>2013-05-12T12:15:30Z</time>
      </trkpt>
      <trkpt lat="44.45407" lon="6.0203">
        <ele>626.20001220703</ele>
        <time>2013-05-12T12:15:32Z</time>
      </trkpt>
      <trkpt lat="44.45412" lon="6.02045">
        <ele>626.20001220703</ele>
        <time>2013-05-12T12:15:36Z</time>
      </trkpt>
      <trkpt lat="44.45414" lon="6.0206">
        <ele>626.20001220703</ele>
        <time>2013-05-12T12:15:39Z</time>
      </trkpt>
      <trkpt lat="44.45423" lon="6.02099">
        <ele>626.20001220703</ele>
        <time>2013-05-12T12:15:47Z</time>
      </trkpt>
      <trkpt lat="44.45428" lon="6.02124">
        <ele>626.20001220703</ele>
        <time>2013-05-12T12:15:53Z</time>
      </trkpt>
      <trkpt lat="44.4543" lon="6.02138">
        <ele>626.59997558594</ele>
        <time>2013-05-12T12:15:56Z</time>
      </trkpt>
      <trkpt lat="44.45432" lon="6.02143">
        <ele>627</ele>
        <time>2013-05-12T12:15:57Z</time>
      </trkpt>
      <trkpt lat="44.45435" lon="6.0216">
        <ele>627</ele>
        <time>2013-05-12T12:16:00Z</time>
      </trkpt>
      <trkpt lat="44.45436" lon="6.02173">
        <ele>627.79998779297</ele>
        <time>2013-05-12T12:16:02Z</time>
      </trkpt>
      <trkpt lat="44.45441" lon="6.02201">
        <ele>627.79998779297</ele>
        <time>2013-05-12T12:16:06Z</time>
      </trkpt>
      <trkpt lat="44.45428" lon="6.02227">
        <ele>628.40002441406</ele>
        <time>2013-05-12T12:16:10Z</time>
      </trkpt>
      <trkpt lat="44.45409" lon="6.02234">
        <ele>628.40002441406</ele>
        <time>2013-05-12T12:16:13Z</time>
      </trkpt>
      <trkpt lat="44.45382" lon="6.0224">
        <ele>627.79998779297</ele>
        <time>2013-05-12T12:16:17Z</time>
      </trkpt>
      <trkpt lat="44.45377" lon="6.02247">
        <ele>627.79998779297</ele>
        <time>2013-05-12T12:16:18Z</time>
      </trkpt>
      <trkpt lat="44.45371" lon="6.02268">
        <ele>627.79998779297</ele>
        <time>2013-05-12T12:16:20Z</time>
      </trkpt>
      <trkpt lat="44.45369" lon="6.02291">
        <ele>627.40002441406</ele>
        <time>2013-05-12T12:16:22Z</time>
      </trkpt>
      <trkpt lat="44.45369" lon="6.02303">
        <ele>626.59997558594</ele>
        <time>2013-05-12T12:16:23Z</time>
      </trkpt>
      <trkpt lat="44.45369" lon="6.02315">
        <ele>626.59997558594</ele>
        <time>2013-05-12T12:16:24Z</time>
      </trkpt>
      <trkpt lat="44.45366" lon="6.02361">
        <ele>625.79998779297</ele>
        <time>2013-05-12T12:16:28Z</time>
      </trkpt>
      <trkpt lat="44.45364" lon="6.02372">
        <ele>625.79998779297</ele>
        <time>2013-05-12T12:16:29Z</time>
      </trkpt>
      <trkpt lat="44.45357" lon="6.02403">
        <ele>625.79998779297</ele>
        <time>2013-05-12T12:16:32Z</time>
      </trkpt>
      <trkpt lat="44.45354" lon="6.02413">
        <ele>625</ele>
        <time>2013-05-12T12:16:33Z</time>
      </trkpt>
      <trkpt lat="44.45353" lon="6.02423">
        <ele>624.20001220703</ele>
        <time>2013-05-12T12:16:34Z</time>
      </trkpt>
      <trkpt lat="44.45346" lon="6.02465">
        <ele>623.20001220703</ele>
        <time>2013-05-12T12:16:38Z</time>
      </trkpt>
      <trkpt lat="44.45346" lon="6.02475">
        <ele>622.40002441406</ele>
        <time>2013-05-12T12:16:39Z</time>
      </trkpt>
      <trkpt lat="44.45347" lon="6.02486">
        <ele>622.40002441406</ele>
        <time>2013-05-12T12:16:40Z</time>
      </trkpt>
      <trkpt lat="44.45353" lon="6.02528">
        <ele>621.59997558594</ele>
        <time>2013-05-12T12:16:44Z</time>
      </trkpt>
      <trkpt lat="44.45354" lon="6.02538">
        <ele>621</ele>
        <time>2013-05-12T12:16:45Z</time>
      </trkpt>
      <trkpt lat="44.45356" lon="6.02547">
        <ele>621</ele>
        <time>2013-05-12T12:16:46Z</time>
      </trkpt>
      <trkpt lat="44.45365" lon="6.02586">
        <ele>620.20001220703</ele>
        <time>2013-05-12T12:16:50Z</time>
      </trkpt>
      <trkpt lat="44.45367" lon="6.02596">
        <ele>619.40002441406</ele>
        <time>2013-05-12T12:16:51Z</time>
      </trkpt>
      <trkpt lat="44.45371" lon="6.02605">
        <ele>619.40002441406</ele>
        <time>2013-05-12T12:16:52Z</time>
      </trkpt>
      <trkpt lat="44.45375" lon="6.02614">
        <ele>619.40002441406</ele>
        <time>2013-05-12T12:16:53Z</time>
      </trkpt>
      <trkpt lat="44.45383" lon="6.02631">
        <ele>618.59997558594</ele>
        <time>2013-05-12T12:16:55Z</time>
      </trkpt>
      <trkpt lat="44.45396" lon="6.02654">
        <ele>618.59997558594</ele>
        <time>2013-05-12T12:16:58Z</time>
      </trkpt>
      <trkpt lat="44.4542" lon="6.02695">
        <ele>618.59997558594</ele>
        <time>2013-05-12T12:17:03Z</time>
      </trkpt>
      <trkpt lat="44.4544" lon="6.02729">
        <ele>618.20001220703</ele>
        <time>2013-05-12T12:17:07Z</time>
      </trkpt>
      <trkpt lat="44.45444" lon="6.02737">
        <ele>617.79998779297</ele>
        <time>2013-05-12T12:17:08Z</time>
      </trkpt>
      <trkpt lat="44.45468" lon="6.02778">
        <ele>617.20001220703</ele>
        <time>2013-05-12T12:17:13Z</time>
      </trkpt>
      <trkpt lat="44.45494" lon="6.02825">
        <ele>616.79998779297</ele>
        <time>2013-05-12T12:17:18Z</time>
      </trkpt>
      <trkpt lat="44.455" lon="6.02834">
        <ele>616.40002441406</ele>
        <time>2013-05-12T12:17:19Z</time>
      </trkpt>
      <trkpt lat="44.45506" lon="6.02843">
        <ele>616.40002441406</ele>
        <time>2013-05-12T12:17:20Z</time>
      </trkpt>
      <trkpt lat="44.45516" lon="6.02862">
        <ele>616.40002441406</ele>
        <time>2013-05-12T12:17:22Z</time>
      </trkpt>
      <trkpt lat="44.45527" lon="6.02882">
        <ele>615.79998779297</ele>
        <time>2013-05-12T12:17:24Z</time>
      </trkpt>
      <trkpt lat="44.45533" lon="6.02892">
        <ele>615.40002441406</ele>
        <time>2013-05-12T12:17:25Z</time>
      </trkpt>
      <trkpt lat="44.45543" lon="6.02914">
        <ele>615.40002441406</ele>
        <time>2013-05-12T12:17:27Z</time>
      </trkpt>
      <trkpt lat="44.45557" lon="6.02949">
        <ele>614.79998779297</ele>
        <time>2013-05-12T12:17:30Z</time>
      </trkpt>
      <trkpt lat="44.45575" lon="6.02979">
        <ele>614.79998779297</ele>
        <time>2013-05-12T12:17:33Z</time>
      </trkpt>
      <trkpt lat="44.45581" lon="6.02989">
        <ele>614.79998779297</ele>
        <time>2013-05-12T12:17:34Z</time>
      </trkpt>
      <trkpt lat="44.45587" lon="6.02998">
        <ele>614.20001220703</ele>
        <time>2013-05-12T12:17:35Z</time>
      </trkpt>
      <trkpt lat="44.45594" lon="6.03007">
        <ele>613.79998779297</ele>
        <time>2013-05-12T12:17:36Z</time>
      </trkpt>
      <trkpt lat="44.4562" lon="6.03042">
        <ele>613.79998779297</ele>
        <time>2013-05-12T12:17:40Z</time>
      </trkpt>
      <trkpt lat="44.45626" lon="6.03051">
        <ele>613.79998779297</ele>
        <time>2013-05-12T12:17:41Z</time>
      </trkpt>
      <trkpt lat="44.45648" lon="6.03092">
        <ele>613.79998779297</ele>
        <time>2013-05-12T12:17:45Z</time>
      </trkpt>
      <trkpt lat="44.45662" lon="6.03126">
        <ele>613.79998779297</ele>
        <time>2013-05-12T12:17:48Z</time>
      </trkpt>
      <trkpt lat="44.45667" lon="6.03137">
        <ele>613.79998779297</ele>
        <time>2013-05-12T12:17:49Z</time>
      </trkpt>
      <trkpt lat="44.45688" lon="6.03194">
        <ele>613.79998779297</ele>
        <time>2013-05-12T12:17:54Z</time>
      </trkpt>
      <trkpt lat="44.45694" lon="6.03215">
        <ele>613.79998779297</ele>
        <time>2013-05-12T12:17:56Z</time>
      </trkpt>
      <trkpt lat="44.45695" lon="6.03227">
        <ele>613.79998779297</ele>
        <time>2013-05-12T12:17:57Z</time>
      </trkpt>
      <trkpt lat="44.45697" lon="6.03258">
        <ele>613.79998779297</ele>
        <time>2013-05-12T12:18:00Z</time>
      </trkpt>
      <trkpt lat="44.45698" lon="6.03268">
        <ele>613.79998779297</ele>
        <time>2013-05-12T12:18:01Z</time>
      </trkpt>
      <trkpt lat="44.45701" lon="6.03279">
        <ele>613.79998779297</ele>
        <time>2013-05-12T12:18:02Z</time>
      </trkpt>
      <trkpt lat="44.45707" lon="6.03311">
        <ele>613.79998779297</ele>
        <time>2013-05-12T12:18:05Z</time>
      </trkpt>
      <trkpt lat="44.45714" lon="6.03366">
        <ele>613.79998779297</ele>
        <time>2013-05-12T12:18:10Z</time>
      </trkpt>
      <trkpt lat="44.4572" lon="6.03375">
        <ele>613.79998779297</ele>
        <time>2013-05-12T12:18:11Z</time>
      </trkpt>
      <trkpt lat="44.45741" lon="6.03406">
        <ele>613.79998779297</ele>
        <time>2013-05-12T12:18:15Z</time>
      </trkpt>
      <trkpt lat="44.45764" lon="6.03447">
        <ele>613.79998779297</ele>
        <time>2013-05-12T12:18:20Z</time>
      </trkpt>
      <trkpt lat="44.4577" lon="6.03451">
        <ele>613.79998779297</ele>
        <time>2013-05-12T12:18:21Z</time>
      </trkpt>
      <trkpt lat="44.45797" lon="6.03456">
        <ele>613.79998779297</ele>
        <time>2013-05-12T12:18:25Z</time>
      </trkpt>
      <trkpt lat="44.45841" lon="6.03463">
        <ele>613.79998779297</ele>
        <time>2013-05-12T12:18:33Z</time>
      </trkpt>
      <trkpt lat="44.45883" lon="6.03471">
        <ele>613.79998779297</ele>
        <time>2013-05-12T12:18:42Z</time>
      </trkpt>
      <trkpt lat="44.45898" lon="6.03471">
        <ele>614.79998779297</ele>
        <time>2013-05-12T12:18:48Z</time>
      </trkpt>
      <trkpt lat="44.45892" lon="6.03466">
        <ele>614.79998779297</ele>
        <time>2013-05-12T12:18:51Z</time>
      </trkpt>
      <trkpt lat="44.45884" lon="6.03466">
        <ele>614.79998779297</ele>
        <time>2013-05-12T12:18:53Z</time>
      </trkpt>
      <trkpt lat="44.45875" lon="6.03464">
        <ele>615.79998779297</ele>
        <time>2013-05-12T12:18:55Z</time>
      </trkpt>
      <trkpt lat="44.45852" lon="6.0346">
        <ele>616.40002441406</ele>
        <time>2013-05-12T12:18:59Z</time>
      </trkpt>
      <trkpt lat="44.45833" lon="6.03457">
        <ele>616.40002441406</ele>
        <time>2013-05-12T12:19:02Z</time>
      </trkpt>
      <trkpt lat="44.45786" lon="6.03449">
        <ele>616.40002441406</ele>
        <time>2013-05-12T12:19:09Z</time>
      </trkpt>
      <trkpt lat="44.45758" lon="6.0344">
        <ele>616.40002441406</ele>
        <time>2013-05-12T12:19:13Z</time>
      </trkpt>
      <trkpt lat="44.4574" lon="6.03441">
        <ele>616.40002441406</ele>
        <time>2013-05-12T12:19:16Z</time>
      </trkpt>
      <trkpt lat="44.45733" lon="6.03468">
        <ele>616.40002441406</ele>
        <time>2013-05-12T12:19:20Z</time>
      </trkpt>
      <trkpt lat="44.45743" lon="6.03499">
        <ele>616.40002441406</ele>
        <time>2013-05-12T12:19:23Z</time>
      </trkpt>
      <trkpt lat="44.45753" lon="6.03557">
        <ele>616.40002441406</ele>
        <time>2013-05-12T12:19:29Z</time>
      </trkpt>
      <trkpt lat="44.45767" lon="6.03612">
        <ele>616.40002441406</ele>
        <time>2013-05-12T12:19:36Z</time>
      </trkpt>
      <trkpt lat="44.45778" lon="6.03626">
        <ele>616.40002441406</ele>
        <time>2013-05-12T12:19:39Z</time>
      </trkpt>
      <trkpt lat="44.45788" lon="6.03632">
        <ele>616.40002441406</ele>
        <time>2013-05-12T12:19:41Z</time>
      </trkpt>
      <trkpt lat="44.45811" lon="6.03648">
        <ele>616.40002441406</ele>
        <time>2013-05-12T12:19:46Z</time>
      </trkpt>
      <trkpt lat="44.45847" lon="6.03674">
        <ele>616.40002441406</ele>
        <time>2013-05-12T12:19:54Z</time>
      </trkpt>
      <trkpt lat="44.45892" lon="6.03705">
        <ele>616.40002441406</ele>
        <time>2013-05-12T12:20:04Z</time>
      </trkpt>
      <trkpt lat="44.45905" lon="6.03712">
        <ele>616.40002441406</ele>
        <time>2013-05-12T12:20:07Z</time>
      </trkpt>
      <trkpt lat="44.45913" lon="6.03713">
        <ele>616.40002441406</ele>
        <time>2013-05-12T12:20:09Z</time>
      </trkpt>
      <trkpt lat="44.45925" lon="6.03719">
        <ele>616.40002441406</ele>
        <time>2013-05-12T12:20:14Z</time>
      </trkpt>
      <trkpt lat="44.45932" lon="6.03727">
        <ele>616.40002441406</ele>
        <time>2013-05-12T12:20:17Z</time>
      </trkpt>
      <trkpt lat="44.4594" lon="6.03735">
        <ele>616.40002441406</ele>
        <time>2013-05-12T12:20:20Z</time>
      </trkpt>
      <trkpt lat="44.45953" lon="6.03744">
        <ele>616.40002441406</ele>
        <time>2013-05-12T12:20:26Z</time>
      </trkpt>
      <trkpt lat="44.45951" lon="6.03738">
        <ele>616.40002441406</ele>
        <time>2013-05-12T12:20:29Z</time>
      </trkpt>
      <trkpt lat="44.45948" lon="6.03736">
        <ele>616.40002441406</ele>
        <time>2013-05-12T12:20:30Z</time>
      </trkpt>
      <trkpt lat="44.4594" lon="6.03739">
        <ele>616.40002441406</ele>
        <time>2013-05-12T12:20:34Z</time>
      </trkpt>
      <trkpt lat="44.45951" lon="6.03745">
        <ele>616.40002441406</ele>
        <time>2013-05-12T12:20:38Z</time>
      </trkpt>
      <trkpt lat="44.45961" lon="6.0376">
        <ele>616.40002441406</ele>
        <time>2013-05-12T12:20:44Z</time>
      </trkpt>
      <trkpt lat="44.45975" lon="6.03768">
        <ele>616.40002441406</ele>
        <time>2013-05-12T12:20:49Z</time>
      </trkpt>
      <trkpt lat="44.45988" lon="6.03762">
        <ele>616.40002441406</ele>
        <time>2013-05-12T12:20:53Z</time>
      </trkpt>
      <trkpt lat="44.46004" lon="6.03778">
        <ele>616.79998779297</ele>
        <time>2013-05-12T12:20:59Z</time>
      </trkpt>
      <trkpt lat="44.46016" lon="6.03784">
        <ele>616.79998779297</ele>
        <time>2013-05-12T12:21:02Z</time>
      </trkpt>
      <trkpt lat="44.46024" lon="6.03782">
        <ele>617.40002441406</ele>
        <time>2013-05-12T12:21:04Z</time>
      </trkpt>
      <trkpt lat="44.46027" lon="6.03779">
        <ele>617.79998779297</ele>
        <time>2013-05-12T12:21:05Z</time>
      </trkpt>
      <trkpt lat="44.46037" lon="6.03767">
        <ele>617.79998779297</ele>
        <time>2013-05-12T12:21:08Z</time>
      </trkpt>
      <trkpt lat="44.46041" lon="6.03757">
        <ele>618.20001220703</ele>
        <time>2013-05-12T12:21:10Z</time>
      </trkpt>
      <trkpt lat="44.46046" lon="6.03741">
        <ele>618.20001220703</ele>
        <time>2013-05-12T12:21:13Z</time>
      </trkpt>
      <trkpt lat="44.46049" lon="6.03733">
        <ele>618.79998779297</ele>
        <time>2013-05-12T12:21:15Z</time>
      </trkpt>
      <trkpt lat="44.46056" lon="6.03734">
        <ele>618.79998779297</ele>
        <time>2013-05-12T12:21:17Z</time>
      </trkpt>
      <trkpt lat="44.46059" lon="6.03741">
        <ele>618.79998779297</ele>
        <time>2013-05-12T12:21:27Z</time>
      </trkpt>
      <trkpt lat="44.46061" lon="6.0374">
        <ele>618.79998779297</ele>
        <time>2013-05-12T12:22:22Z</time>
      </trkpt>
      <trkpt lat="44.46064" lon="6.03734">
        <ele>618.79998779297</ele>
        <time>2013-05-12T12:22:33Z</time>
      </trkpt>
      <trkpt lat="44.46059" lon="6.03736">
        <ele>618.79998779297</ele>
        <time>2013-05-12T12:23:19Z</time>
      </trkpt>
      <trkpt lat="44.46055" lon="6.03741">
        <ele>618.79998779297</ele>
        <time>2013-05-12T12:23:48Z</time>
      </trkpt>
      <trkpt lat="44.46056" lon="6.0374">
        <ele>620.79998779297</ele>
        <time>2013-05-12T12:30:05Z</time>
      </trkpt>
      <trkpt lat="44.46054" lon="6.03728">
        <ele>620.79998779297</ele>
        <time>2013-05-12T12:33:38Z</time>
      </trkpt>
      <trkpt lat="44.46052" lon="6.03718">
        <ele>620.79998779297</ele>
        <time>2013-05-12T12:33:42Z</time>
      </trkpt>
      <trkpt lat="44.46059" lon="6.03696">
        <ele>620.79998779297</ele>
        <time>2013-05-12T12:33:48Z</time>
      </trkpt>
      <trkpt lat="44.46067" lon="6.03678">
        <ele>620.79998779297</ele>
        <time>2013-05-12T12:33:54Z</time>
      </trkpt>
      <trkpt lat="44.4607" lon="6.03668">
        <ele>620.79998779297</ele>
        <time>2013-05-12T12:33:57Z</time>
      </trkpt>
      <trkpt lat="44.46078" lon="6.03656">
        <ele>620.79998779297</ele>
        <time>2013-05-12T12:34:02Z</time>
      </trkpt>
      <trkpt lat="44.46089" lon="6.03659">
        <ele>620.79998779297</ele>
        <time>2013-05-12T12:34:06Z</time>
      </trkpt>
      <trkpt lat="44.46095" lon="6.03676">
        <ele>620.79998779297</ele>
        <time>2013-05-12T12:34:10Z</time>
      </trkpt>
      <trkpt lat="44.46105" lon="6.03714">
        <ele>620.79998779297</ele>
        <time>2013-05-12T12:34:19Z</time>
      </trkpt>
      <trkpt lat="44.46124" lon="6.03778">
        <ele>620.79998779297</ele>
        <time>2013-05-12T12:34:32Z</time>
      </trkpt>
      <trkpt lat="44.46138" lon="6.03836">
        <ele>620.79998779297</ele>
        <time>2013-05-12T12:34:42Z</time>
      </trkpt>
      <trkpt lat="44.46151" lon="6.03887">
        <ele>620.79998779297</ele>
        <time>2013-05-12T12:34:51Z</time>
      </trkpt>
      <trkpt lat="44.46152" lon="6.03892">
        <ele>620.79998779297</ele>
        <time>2013-05-12T12:34:52Z</time>
      </trkpt>
      <trkpt lat="44.46155" lon="6.03903">
        <ele>620.79998779297</ele>
        <time>2013-05-12T12:34:54Z</time>
      </trkpt>
      <trkpt lat="44.46168" lon="6.03947">
        <ele>620.79998779297</ele>
        <time>2013-05-12T12:35:02Z</time>
      </trkpt>
      <trkpt lat="44.46169" lon="6.03952">
        <ele>620.79998779297</ele>
        <time>2013-05-12T12:35:03Z</time>
      </trkpt>
      <trkpt lat="44.46172" lon="6.03961">
        <ele>620.79998779297</ele>
        <time>2013-05-12T12:35:05Z</time>
      </trkpt>
      <trkpt lat="44.46177" lon="6.03978">
        <ele>620.79998779297</ele>
        <time>2013-05-12T12:35:08Z</time>
      </trkpt>
      <trkpt lat="44.46188" lon="6.04012">
        <ele>620.79998779297</ele>
        <time>2013-05-12T12:35:14Z</time>
      </trkpt>
      <trkpt lat="44.46205" lon="6.04079">
        <ele>620.79998779297</ele>
        <time>2013-05-12T12:35:26Z</time>
      </trkpt>
      <trkpt lat="44.46215" lon="6.0414">
        <ele>620.79998779297</ele>
        <time>2013-05-12T12:35:37Z</time>
      </trkpt>
      <trkpt lat="44.46221" lon="6.04173">
        <ele>620.79998779297</ele>
        <time>2013-05-12T12:35:43Z</time>
      </trkpt>
      <trkpt lat="44.46228" lon="6.04201">
        <ele>620.79998779297</ele>
        <time>2013-05-12T12:35:48Z</time>
      </trkpt>
      <trkpt lat="44.46246" lon="6.04252">
        <ele>620.79998779297</ele>
        <time>2013-05-12T12:35:57Z</time>
      </trkpt>
      <trkpt lat="44.46266" lon="6.04294">
        <ele>620.79998779297</ele>
        <time>2013-05-12T12:36:05Z</time>
      </trkpt>
      <trkpt lat="44.46298" lon="6.04356">
        <ele>620.79998779297</ele>
        <time>2013-05-12T12:36:17Z</time>
      </trkpt>
      <trkpt lat="44.46309" lon="6.04376">
        <ele>620.79998779297</ele>
        <time>2013-05-12T12:36:21Z</time>
      </trkpt>
      <trkpt lat="44.46328" lon="6.04418">
        <ele>620.79998779297</ele>
        <time>2013-05-12T12:36:29Z</time>
      </trkpt>
      <trkpt lat="44.4633" lon="6.04423">
        <ele>620.79998779297</ele>
        <time>2013-05-12T12:36:30Z</time>
      </trkpt>
      <trkpt lat="44.4634" lon="6.04453">
        <ele>621.79998779297</ele>
        <time>2013-05-12T12:36:36Z</time>
      </trkpt>
      <trkpt lat="44.46346" lon="6.04475">
        <ele>621.79998779297</ele>
        <time>2013-05-12T12:36:40Z</time>
      </trkpt>
      <trkpt lat="44.46347" lon="6.0448">
        <ele>623.79998779297</ele>
        <time>2013-05-12T12:36:41Z</time>
      </trkpt>
      <trkpt lat="44.46355" lon="6.04513">
        <ele>628.59997558594</ele>
        <time>2013-05-12T12:36:47Z</time>
      </trkpt>
      <trkpt lat="44.46359" lon="6.04536">
        <ele>631.20001220703</ele>
        <time>2013-05-12T12:36:51Z</time>
      </trkpt>
      <trkpt lat="44.46365" lon="6.04563">
        <ele>631.20001220703</ele>
        <time>2013-05-12T12:36:55Z</time>
      </trkpt>
      <trkpt lat="44.46374" lon="6.04601">
        <ele>636</ele>
        <time>2013-05-12T12:37:00Z</time>
      </trkpt>
      <trkpt lat="44.46379" lon="6.04618">
        <ele>636</ele>
        <time>2013-05-12T12:37:02Z</time>
      </trkpt>
      <trkpt lat="44.46394" lon="6.04691">
        <ele>636</ele>
        <time>2013-05-12T12:37:10Z</time>
      </trkpt>
      <trkpt lat="44.46399" lon="6.04715">
        <ele>636</ele>
        <time>2013-05-12T12:37:13Z</time>
      </trkpt>
      <trkpt lat="44.464" lon="6.0472">
        <ele>636</ele>
        <time>2013-05-12T12:37:14Z</time>
      </trkpt>
      <trkpt lat="44.46401" lon="6.04731">
        <ele>636</ele>
        <time>2013-05-12T12:37:18Z</time>
      </trkpt>
      <trkpt lat="44.46404" lon="6.04755">
        <ele>636</ele>
        <time>2013-05-12T12:38:01Z</time>
      </trkpt>
      <trkpt lat="44.46405" lon="6.04769">
        <ele>636</ele>
        <time>2013-05-12T12:38:08Z</time>
      </trkpt>
      <trkpt lat="44.46406" lon="6.04772">
        <ele>636</ele>
        <time>2013-05-12T12:38:09Z</time>
      </trkpt>
      <trkpt lat="44.46407" lon="6.04781">
        <ele>636</ele>
        <time>2013-05-12T12:38:13Z</time>
      </trkpt>
      <trkpt lat="44.46407" lon="6.04791">
        <ele>636</ele>
        <time>2013-05-12T12:38:17Z</time>
      </trkpt>
      <trkpt lat="44.46406" lon="6.04809">
        <ele>635.59997558594</ele>
        <time>2013-05-12T12:38:23Z</time>
      </trkpt>
      <trkpt lat="44.46407" lon="6.04811">
        <ele>635.59997558594</ele>
        <time>2013-05-12T12:38:25Z</time>
      </trkpt>
      <trkpt lat="44.46407" lon="6.04802">
        <ele>634.40002441406</ele>
        <time>2013-05-12T12:39:11Z</time>
      </trkpt>
      <trkpt lat="44.46408" lon="6.04798">
        <ele>634</ele>
        <time>2013-05-12T12:39:13Z</time>
      </trkpt>
      <trkpt lat="44.46407" lon="6.04787">
        <ele>634</ele>
        <time>2013-05-12T12:39:19Z</time>
      </trkpt>
      <trkpt lat="44.46406" lon="6.04775">
        <ele>634</ele>
        <time>2013-05-12T12:39:25Z</time>
      </trkpt>
      <trkpt lat="44.46405" lon="6.0477">
        <ele>634</ele>
        <time>2013-05-12T12:39:29Z</time>
      </trkpt>
      <trkpt lat="44.46404" lon="6.04759">
        <ele>634</ele>
        <time>2013-05-12T12:39:56Z</time>
      </trkpt>
      <trkpt lat="44.46401" lon="6.04745">
        <ele>634</ele>
        <time>2013-05-12T12:40:06Z</time>
      </trkpt>
      <trkpt lat="44.464" lon="6.04738">
        <ele>634</ele>
        <time>2013-05-12T12:40:10Z</time>
      </trkpt>
      <trkpt lat="44.46401" lon="6.04729">
        <ele>634</ele>
        <time>2013-05-12T12:40:17Z</time>
      </trkpt>
      <trkpt lat="44.46402" lon="6.0473">
        <ele>634</ele>
        <time>2013-05-12T12:40:27Z</time>
      </trkpt>
      <trkpt lat="44.46402" lon="6.04742">
        <ele>634</ele>
        <time>2013-05-12T12:40:39Z</time>
      </trkpt>
      <trkpt lat="44.46403" lon="6.04751">
        <ele>634</ele>
        <time>2013-05-12T12:40:42Z</time>
      </trkpt>
      <trkpt lat="44.46404" lon="6.04762">
        <ele>634</ele>
        <time>2013-05-12T12:40:49Z</time>
      </trkpt>
      <trkpt lat="44.46406" lon="6.04772">
        <ele>634</ele>
        <time>2013-05-12T12:43:14Z</time>
      </trkpt>
      <trkpt lat="44.46406" lon="6.04792">
        <ele>634</ele>
        <time>2013-05-12T12:43:18Z</time>
      </trkpt>
      <trkpt lat="44.46407" lon="6.0481">
        <ele>634</ele>
        <time>2013-05-12T12:43:21Z</time>
      </trkpt>
      <trkpt lat="44.46407" lon="6.0483">
        <ele>634</ele>
        <time>2013-05-12T12:43:24Z</time>
      </trkpt>
      <trkpt lat="44.46408" lon="6.0485">
        <ele>634</ele>
        <time>2013-05-12T12:43:27Z</time>
      </trkpt>
      <trkpt lat="44.46409" lon="6.04907">
        <ele>634</ele>
        <time>2013-05-12T12:43:35Z</time>
      </trkpt>
      <trkpt lat="44.46411" lon="6.04944">
        <ele>634</ele>
        <time>2013-05-12T12:43:40Z</time>
      </trkpt>
      <trkpt lat="44.46411" lon="6.04951">
        <ele>634</ele>
        <time>2013-05-12T12:43:41Z</time>
      </trkpt>
      <trkpt lat="44.4641" lon="6.05003">
        <ele>634</ele>
        <time>2013-05-12T12:43:48Z</time>
      </trkpt>
      <trkpt lat="44.4641" lon="6.05018">
        <ele>634</ele>
        <time>2013-05-12T12:43:50Z</time>
      </trkpt>
      <trkpt lat="44.46406" lon="6.05072">
        <ele>634</ele>
        <time>2013-05-12T12:43:57Z</time>
      </trkpt>
      <trkpt lat="44.46405" lon="6.05088">
        <ele>634</ele>
        <time>2013-05-12T12:43:59Z</time>
      </trkpt>
      <trkpt lat="44.46399" lon="6.05162">
        <ele>634</ele>
        <time>2013-05-12T12:44:09Z</time>
      </trkpt>
      <trkpt lat="44.46394" lon="6.05212">
        <ele>634</ele>
        <time>2013-05-12T12:44:16Z</time>
      </trkpt>
      <trkpt lat="44.46392" lon="6.05225">
        <ele>634</ele>
        <time>2013-05-12T12:44:18Z</time>
      </trkpt>
      <trkpt lat="44.4639" lon="6.05231">
        <ele>634</ele>
        <time>2013-05-12T12:44:19Z</time>
      </trkpt>
      <trkpt lat="44.46392" lon="6.05275">
        <ele>634</ele>
        <time>2013-05-12T12:44:26Z</time>
      </trkpt>
      <trkpt lat="44.46402" lon="6.05304">
        <ele>634</ele>
        <time>2013-05-12T12:44:32Z</time>
      </trkpt>
      <trkpt lat="44.46414" lon="6.05336">
        <ele>634</ele>
        <time>2013-05-12T12:44:38Z</time>
      </trkpt>
      <trkpt lat="44.46422" lon="6.05365">
        <ele>634.40002441406</ele>
        <time>2013-05-12T12:44:44Z</time>
      </trkpt>
      <trkpt lat="44.46426" lon="6.05375">
        <ele>634.40002441406</ele>
        <time>2013-05-12T12:44:46Z</time>
      </trkpt>
      <trkpt lat="44.4643" lon="6.05388">
        <ele>634.79998779297</ele>
        <time>2013-05-12T12:44:49Z</time>
      </trkpt>
      <trkpt lat="44.46434" lon="6.05402">
        <ele>634.79998779297</ele>
        <time>2013-05-12T12:44:52Z</time>
      </trkpt>
      <trkpt lat="44.46444" lon="6.05429">
        <ele>635.79998779297</ele>
        <time>2013-05-12T12:44:58Z</time>
      </trkpt>
      <trkpt lat="44.46447" lon="6.05437">
        <ele>635.79998779297</ele>
        <time>2013-05-12T12:45:00Z</time>
      </trkpt>
      <trkpt lat="44.46449" lon="6.05445">
        <ele>636.40002441406</ele>
        <time>2013-05-12T12:45:02Z</time>
      </trkpt>
      <trkpt lat="44.46453" lon="6.05467">
        <ele>637</ele>
        <time>2013-05-12T12:45:07Z</time>
      </trkpt>
      <trkpt lat="44.4646" lon="6.05489">
        <ele>637.59997558594</ele>
        <time>2013-05-12T12:45:12Z</time>
      </trkpt>
      <trkpt lat="44.46465" lon="6.05502">
        <ele>637.59997558594</ele>
        <time>2013-05-12T12:45:15Z</time>
      </trkpt>
      <trkpt lat="44.46469" lon="6.05512">
        <ele>638.20001220703</ele>
        <time>2013-05-12T12:45:17Z</time>
      </trkpt>
      <trkpt lat="44.4648" lon="6.05532">
        <ele>638.59997558594</ele>
        <time>2013-05-12T12:45:22Z</time>
      </trkpt>
      <trkpt lat="44.46481" lon="6.05535">
        <ele>638.59997558594</ele>
        <time>2013-05-12T12:45:25Z</time>
      </trkpt>
      <trkpt lat="44.46495" lon="6.05523">
        <ele>640.20001220703</ele>
        <time>2013-05-12T12:45:48Z</time>
      </trkpt>
      <trkpt lat="44.46511" lon="6.05518">
        <ele>640.59997558594</ele>
        <time>2013-05-12T12:45:58Z</time>
      </trkpt>
      <trkpt lat="44.46521" lon="6.05517">
        <ele>640.59997558594</ele>
        <time>2013-05-12T12:46:05Z</time>
      </trkpt>
      <trkpt lat="44.46535" lon="6.05514">
        <ele>640.59997558594</ele>
        <time>2013-05-12T12:46:26Z</time>
      </trkpt>
      <trkpt lat="44.46542" lon="6.05519">
        <ele>640.59997558594</ele>
        <time>2013-05-12T12:46:37Z</time>
      </trkpt>
      <trkpt lat="44.46545" lon="6.05527">
        <ele>640.59997558594</ele>
        <time>2013-05-12T12:46:47Z</time>
      </trkpt>
      <trkpt lat="44.46543" lon="6.05534">
        <ele>640.59997558594</ele>
        <time>2013-05-12T12:46:56Z</time>
      </trkpt>
      <trkpt lat="44.46539" lon="6.05541">
        <ele>640.59997558594</ele>
        <time>2013-05-12T12:47:09Z</time>
      </trkpt>
      <trkpt lat="44.46539" lon="6.05552">
        <ele>640.59997558594</ele>
        <time>2013-05-12T12:47:30Z</time>
      </trkpt>
      <trkpt lat="44.4654" lon="6.05556">
        <ele>640.59997558594</ele>
        <time>2013-05-12T12:47:37Z</time>
      </trkpt>
      <trkpt lat="44.46543" lon="6.05564">
        <ele>640.59997558594</ele>
        <time>2013-05-12T12:47:49Z</time>
      </trkpt>
      <trkpt lat="44.46547" lon="6.05571">
        <ele>640.59997558594</ele>
        <time>2013-05-12T12:47:59Z</time>
      </trkpt>
      <trkpt lat="44.46553" lon="6.05583">
        <ele>650</ele>
        <time>2013-05-12T12:48:09Z</time>
      </trkpt>
      <trkpt lat="44.46561" lon="6.05589">
        <ele>654.20001220703</ele>
        <time>2013-05-12T12:48:18Z</time>
      </trkpt>
      <trkpt lat="44.46562" lon="6.0559">
        <ele>658.40002441406</ele>
        <time>2013-05-12T12:48:19Z</time>
      </trkpt>
      <trkpt lat="44.46568" lon="6.05603">
        <ele>667</ele>
        <time>2013-05-12T12:48:32Z</time>
      </trkpt>
      <trkpt lat="44.4657" lon="6.05607">
        <ele>667.59997558594</ele>
        <time>2013-05-12T12:48:37Z</time>
      </trkpt>
      <trkpt lat="44.46571" lon="6.0561">
        <ele>668</ele>
        <time>2013-05-12T12:48:42Z</time>
      </trkpt>
      <trkpt lat="44.46576" lon="6.0562">
        <ele>671.79998779297</ele>
        <time>2013-05-12T12:48:57Z</time>
      </trkpt>
      <trkpt lat="44.46581" lon="6.0563">
        <ele>674.40002441406</ele>
        <time>2013-05-12T12:49:10Z</time>
      </trkpt>
      <trkpt lat="44.46584" lon="6.05633">
        <ele>675</ele>
        <time>2013-05-12T12:49:15Z</time>
      </trkpt>
      <trkpt lat="44.46589" lon="6.05641">
        <ele>676.59997558594</ele>
        <time>2013-05-12T12:49:24Z</time>
      </trkpt>
      <trkpt lat="44.46591" lon="6.05644">
        <ele>677.20001220703</ele>
        <time>2013-05-12T12:49:29Z</time>
      </trkpt>
      <trkpt lat="44.46597" lon="6.05651">
        <ele>678.59997558594</ele>
        <time>2013-05-12T12:49:38Z</time>
      </trkpt>
      <trkpt lat="44.46601" lon="6.05654">
        <ele>679.40002441406</ele>
        <time>2013-05-12T12:49:43Z</time>
      </trkpt>
      <trkpt lat="44.46608" lon="6.05662">
        <ele>680.79998779297</ele>
        <time>2013-05-12T12:49:52Z</time>
      </trkpt>
      <trkpt lat="44.46611" lon="6.05663">
        <ele>681.20001220703</ele>
        <time>2013-05-12T12:49:55Z</time>
      </trkpt>
      <trkpt lat="44.46621" lon="6.05675">
        <ele>683</ele>
        <time>2013-05-12T12:50:07Z</time>
      </trkpt>
      <trkpt lat="44.4663" lon="6.05685">
        <ele>683</ele>
        <time>2013-05-12T12:50:17Z</time>
      </trkpt>
      <trkpt lat="44.46632" lon="6.05687">
        <ele>683.40002441406</ele>
        <time>2013-05-12T12:50:20Z</time>
      </trkpt>
      <trkpt lat="44.46638" lon="6.05692">
        <ele>684.79998779297</ele>
        <time>2013-05-12T12:50:27Z</time>
      </trkpt>
      <trkpt lat="44.4664" lon="6.05695">
        <ele>685.20001220703</ele>
        <time>2013-05-12T12:50:30Z</time>
      </trkpt>
      <trkpt lat="44.46649" lon="6.05701">
        <ele>685.79998779297</ele>
        <time>2013-05-12T12:50:40Z</time>
      </trkpt>
      <trkpt lat="44.46652" lon="6.05704">
        <ele>687</ele>
        <time>2013-05-12T12:50:44Z</time>
      </trkpt>
      <trkpt lat="44.46666" lon="6.05713">
        <ele>688</ele>
        <time>2013-05-12T12:50:59Z</time>
      </trkpt>
      <trkpt lat="44.46671" lon="6.05717">
        <ele>688.79998779297</ele>
        <time>2013-05-12T12:51:05Z</time>
      </trkpt>
      <trkpt lat="44.46675" lon="6.0572">
        <ele>689.59997558594</ele>
        <time>2013-05-12T12:51:09Z</time>
      </trkpt>
      <trkpt lat="44.46682" lon="6.05724">
        <ele>690</ele>
        <time>2013-05-12T12:51:16Z</time>
      </trkpt>
      <trkpt lat="44.46687" lon="6.0572">
        <ele>692.40002441406</ele>
        <time>2013-05-12T12:51:27Z</time>
      </trkpt>
      <trkpt lat="44.46684" lon="6.0571">
        <ele>693.40002441406</ele>
        <time>2013-05-12T12:51:34Z</time>
      </trkpt>
      <trkpt lat="44.46691" lon="6.05698">
        <ele>694</ele>
        <time>2013-05-12T12:51:44Z</time>
      </trkpt>
      <trkpt lat="44.46701" lon="6.05694">
        <ele>695.79998779297</ele>
        <time>2013-05-12T12:51:55Z</time>
      </trkpt>
      <trkpt lat="44.46713" lon="6.05694">
        <ele>698.40002441406</ele>
        <time>2013-05-12T12:52:09Z</time>
      </trkpt>
      <trkpt lat="44.4672" lon="6.05693">
        <ele>700.40002441406</ele>
        <time>2013-05-12T12:52:26Z</time>
      </trkpt>
      <trkpt lat="44.4673" lon="6.05695">
        <ele>700.40002441406</ele>
        <time>2013-05-12T12:52:34Z</time>
      </trkpt>
      <trkpt lat="44.46746" lon="6.057">
        <ele>700.40002441406</ele>
        <time>2013-05-12T12:52:47Z</time>
      </trkpt>
      <trkpt lat="44.46752" lon="6.05701">
        <ele>701</ele>
        <time>2013-05-12T12:52:51Z</time>
      </trkpt>
      <trkpt lat="44.46761" lon="6.05705">
        <ele>702.20001220703</ele>
        <time>2013-05-12T12:52:58Z</time>
      </trkpt>
      <trkpt lat="44.4677" lon="6.0571">
        <ele>702.79998779297</ele>
        <time>2013-05-12T12:53:05Z</time>
      </trkpt>
      <trkpt lat="44.46782" lon="6.05717">
        <ele>703.20001220703</ele>
        <time>2013-05-12T12:53:15Z</time>
      </trkpt>
      <trkpt lat="44.46786" lon="6.0572">
        <ele>704</ele>
        <time>2013-05-12T12:53:19Z</time>
      </trkpt>
      <trkpt lat="44.46793" lon="6.05726">
        <ele>705.79998779297</ele>
        <time>2013-05-12T12:53:26Z</time>
      </trkpt>
      <trkpt lat="44.46799" lon="6.05731">
        <ele>707</ele>
        <time>2013-05-12T12:53:33Z</time>
      </trkpt>
      <trkpt lat="44.46801" lon="6.05732">
        <ele>707.40002441406</ele>
        <time>2013-05-12T12:53:37Z</time>
      </trkpt>
      <trkpt lat="44.46817" lon="6.05742">
        <ele>709.40002441406</ele>
        <time>2013-05-12T12:54:03Z</time>
      </trkpt>
      <trkpt lat="44.4682" lon="6.05744">
        <ele>709.79998779297</ele>
        <time>2013-05-12T12:54:07Z</time>
      </trkpt>
      <trkpt lat="44.46829" lon="6.05751">
        <ele>713</ele>
        <time>2013-05-12T12:54:24Z</time>
      </trkpt>
      <trkpt lat="44.46832" lon="6.05753">
        <ele>713</ele>
        <time>2013-05-12T12:54:29Z</time>
      </trkpt>
      <trkpt lat="44.46841" lon="6.05758">
        <ele>714.40002441406</ele>
        <time>2013-05-12T12:54:41Z</time>
      </trkpt>
      <trkpt lat="44.46845" lon="6.05761">
        <ele>716.40002441406</ele>
        <time>2013-05-12T12:54:48Z</time>
      </trkpt>
      <trkpt lat="44.46851" lon="6.05765">
        <ele>718</ele>
        <time>2013-05-12T12:54:59Z</time>
      </trkpt>
      <trkpt lat="44.46856" lon="6.0577">
        <ele>720</ele>
        <time>2013-05-12T12:55:11Z</time>
      </trkpt>
      <trkpt lat="44.46866" lon="6.05772">
        <ele>720.79998779297</ele>
        <time>2013-05-12T12:55:23Z</time>
      </trkpt>
      <trkpt lat="44.4687" lon="6.05773">
        <ele>721.59997558594</ele>
        <time>2013-05-12T12:55:30Z</time>
      </trkpt>
      <trkpt lat="44.46881" lon="6.05777">
        <ele>724.20001220703</ele>
        <time>2013-05-12T12:55:49Z</time>
      </trkpt>
      <trkpt lat="44.46887" lon="6.05781">
        <ele>725</ele>
        <time>2013-05-12T12:55:55Z</time>
      </trkpt>
      <trkpt lat="44.4689" lon="6.05783">
        <ele>726</ele>
        <time>2013-05-12T12:55:59Z</time>
      </trkpt>
      <trkpt lat="44.469" lon="6.05791">
        <ele>728</ele>
        <time>2013-05-12T12:56:16Z</time>
      </trkpt>
      <trkpt lat="44.46911" lon="6.05796">
        <ele>728.40002441406</ele>
        <time>2013-05-12T12:56:29Z</time>
      </trkpt>
      <trkpt lat="44.46917" lon="6.05801">
        <ele>730.40002441406</ele>
        <time>2013-05-12T12:56:38Z</time>
      </trkpt>
      <trkpt lat="44.46921" lon="6.05804">
        <ele>731.40002441406</ele>
        <time>2013-05-12T12:56:45Z</time>
      </trkpt>
      <trkpt lat="44.4693" lon="6.0581">
        <ele>735.20001220703</ele>
        <time>2013-05-12T12:57:03Z</time>
      </trkpt>
      <trkpt lat="44.46934" lon="6.05812">
        <ele>735.20001220703</ele>
        <time>2013-05-12T12:57:07Z</time>
      </trkpt>
      <trkpt lat="44.46941" lon="6.05817">
        <ele>736.20001220703</ele>
        <time>2013-05-12T12:57:17Z</time>
      </trkpt>
      <trkpt lat="44.46947" lon="6.05821">
        <ele>738</ele>
        <time>2013-05-12T12:57:27Z</time>
      </trkpt>
      <trkpt lat="44.46951" lon="6.05823">
        <ele>739.40002441406</ele>
        <time>2013-05-12T12:57:34Z</time>
      </trkpt>
      <trkpt lat="44.4696" lon="6.05831">
        <ele>741.20001220703</ele>
        <time>2013-05-12T12:57:48Z</time>
      </trkpt>
      <trkpt lat="44.4697" lon="6.05839">
        <ele>744.59997558594</ele>
        <time>2013-05-12T12:58:06Z</time>
      </trkpt>
      <trkpt lat="44.46973" lon="6.05841">
        <ele>744.59997558594</ele>
        <time>2013-05-12T12:58:14Z</time>
      </trkpt>
      <trkpt lat="44.46984" lon="6.05852">
        <ele>746</ele>
        <time>2013-05-12T12:58:27Z</time>
      </trkpt>
      <trkpt lat="44.46992" lon="6.05858">
        <ele>746.79998779297</ele>
        <time>2013-05-12T12:58:34Z</time>
      </trkpt>
      <trkpt lat="44.46995" lon="6.05861">
        <ele>747.20001220703</ele>
        <time>2013-05-12T12:58:38Z</time>
      </trkpt>
      <trkpt lat="44.47002" lon="6.05866">
        <ele>748</ele>
        <time>2013-05-12T12:58:45Z</time>
      </trkpt>
      <trkpt lat="44.47006" lon="6.05871">
        <ele>750.59997558594</ele>
        <time>2013-05-12T12:58:56Z</time>
      </trkpt>
      <trkpt lat="44.47006" lon="6.05893">
        <ele>751</ele>
        <time>2013-05-12T12:59:07Z</time>
      </trkpt>
      <trkpt lat="44.47015" lon="6.05898">
        <ele>751</ele>
        <time>2013-05-12T12:59:11Z</time>
      </trkpt>
      <trkpt lat="44.47027" lon="6.05901">
        <ele>750.40002441406</ele>
        <time>2013-05-12T12:59:14Z</time>
      </trkpt>
      <trkpt lat="44.47033" lon="6.05905">
        <ele>750.40002441406</ele>
        <time>2013-05-12T12:59:16Z</time>
      </trkpt>
      <trkpt lat="44.47045" lon="6.05914">
        <ele>747.79998779297</ele>
        <time>2013-05-12T12:59:21Z</time>
      </trkpt>
      <trkpt lat="44.47053" lon="6.05921">
        <ele>747.20001220703</ele>
        <time>2013-05-12T12:59:25Z</time>
      </trkpt>
      <trkpt lat="44.47069" lon="6.05929">
        <ele>744.59997558594</ele>
        <time>2013-05-12T12:59:32Z</time>
      </trkpt>
      <trkpt lat="44.47071" lon="6.05929">
        <ele>744.59997558594</ele>
        <time>2013-05-12T12:59:33Z</time>
      </trkpt>
      <trkpt lat="44.47077" lon="6.05931">
        <ele>742.59997558594</ele>
        <time>2013-05-12T12:59:35Z</time>
      </trkpt>
      <trkpt lat="44.47082" lon="6.05934">
        <ele>742.59997558594</ele>
        <time>2013-05-12T12:59:38Z</time>
      </trkpt>
      <trkpt lat="44.47092" lon="6.05928">
        <ele>740.40002441406</ele>
        <time>2013-05-12T12:59:42Z</time>
      </trkpt>
      <trkpt lat="44.47101" lon="6.05924">
        <ele>739.40002441406</ele>
        <time>2013-05-12T12:59:46Z</time>
      </trkpt>
      <trkpt lat="44.47121" lon="6.05931">
        <ele>734.40002441406</ele>
        <time>2013-05-12T13:00:50Z</time>
      </trkpt>
      <trkpt lat="44.47127" lon="6.05929">
        <ele>733</ele>
        <time>2013-05-12T13:00:53Z</time>
      </trkpt>
      <trkpt lat="44.47131" lon="6.05927">
        <ele>731.59997558594</ele>
        <time>2013-05-12T13:00:55Z</time>
      </trkpt>
      <trkpt lat="44.47141" lon="6.0593">
        <ele>730.79998779297</ele>
        <time>2013-05-12T13:01:01Z</time>
      </trkpt>
      <trkpt lat="44.4714" lon="6.05934">
        <ele>730.79998779297</ele>
        <time>2013-05-12T13:01:03Z</time>
      </trkpt>
      <trkpt lat="44.47137" lon="6.0594">
        <ele>730.40002441406</ele>
        <time>2013-05-12T13:01:09Z</time>
      </trkpt>
      <trkpt lat="44.47129" lon="6.05945">
        <ele>729.20001220703</ele>
        <time>2013-05-12T13:01:26Z</time>
      </trkpt>
      <trkpt lat="44.47119" lon="6.05952">
        <ele>731.59997558594</ele>
        <time>2013-05-12T13:01:40Z</time>
      </trkpt>
      <trkpt lat="44.47114" lon="6.05963">
        <ele>733.40002441406</ele>
        <time>2013-05-12T13:02:03Z</time>
      </trkpt>
      <trkpt lat="44.47113" lon="6.0597">
        <ele>733.79998779297</ele>
        <time>2013-05-12T13:02:12Z</time>
      </trkpt>
      <trkpt lat="44.47112" lon="6.05982">
        <ele>736.40002441406</ele>
        <time>2013-05-12T13:02:29Z</time>
      </trkpt>
      <trkpt lat="44.47112" lon="6.05991">
        <ele>737.59997558594</ele>
        <time>2013-05-12T13:02:46Z</time>
      </trkpt>
      <trkpt lat="44.47112" lon="6.06001">
        <ele>739.79998779297</ele>
        <time>2013-05-12T13:02:57Z</time>
      </trkpt>
      <trkpt lat="44.47114" lon="6.06013">
        <ele>743.79998779297</ele>
        <time>2013-05-12T13:03:22Z</time>
      </trkpt>
      <trkpt lat="44.4712" lon="6.06016">
        <ele>747</ele>
        <time>2013-05-12T13:03:39Z</time>
      </trkpt>
      <trkpt lat="44.47121" lon="6.06021">
        <ele>748.59997558594</ele>
        <time>2013-05-12T13:03:46Z</time>
      </trkpt>
      <trkpt lat="44.4713" lon="6.0602">
        <ele>752.40002441406</ele>
        <time>2013-05-12T13:04:18Z</time>
      </trkpt>
      <trkpt lat="44.47131" lon="6.0602">
        <ele>753.40002441406</ele>
        <time>2013-05-12T13:04:21Z</time>
      </trkpt>
      <trkpt lat="44.47139" lon="6.0603">
        <ele>755.79998779297</ele>
        <time>2013-05-12T13:04:46Z</time>
      </trkpt>
      <trkpt lat="44.4714" lon="6.06032">
        <ele>756.20001220703</ele>
        <time>2013-05-12T13:04:49Z</time>
      </trkpt>
      <trkpt lat="44.47147" lon="6.06026">
        <ele>760.79998779297</ele>
        <time>2013-05-12T13:05:18Z</time>
      </trkpt>
      <trkpt lat="44.47148" lon="6.0602">
        <ele>761.59997558594</ele>
        <time>2013-05-12T13:05:24Z</time>
      </trkpt>
      <trkpt lat="44.47151" lon="6.06016">
        <ele>762.79998779297</ele>
        <time>2013-05-12T13:05:31Z</time>
      </trkpt>
      <trkpt lat="44.47153" lon="6.06009">
        <ele>763.59997558594</ele>
        <time>2013-05-12T13:05:42Z</time>
      </trkpt>
      <trkpt lat="44.47157" lon="6.05999">
        <ele>766.20001220703</ele>
        <time>2013-05-12T13:06:04Z</time>
      </trkpt>
      <trkpt lat="44.47159" lon="6.06003">
        <ele>767.40002441406</ele>
        <time>2013-05-12T13:06:28Z</time>
      </trkpt>
      <trkpt lat="44.4716" lon="6.06005">
        <ele>768.20001220703</ele>
        <time>2013-05-12T13:06:31Z</time>
      </trkpt>
      <trkpt lat="44.47162" lon="6.0601">
        <ele>769.59997558594</ele>
        <time>2013-05-12T13:06:41Z</time>
      </trkpt>
      <trkpt lat="44.47169" lon="6.06021">
        <ele>774</ele>
        <time>2013-05-12T13:07:05Z</time>
      </trkpt>
      <trkpt lat="44.47171" lon="6.06023">
        <ele>775.59997558594</ele>
        <time>2013-05-12T13:07:09Z</time>
      </trkpt>
      <trkpt lat="44.47178" lon="6.0603">
        <ele>778.20001220703</ele>
        <time>2013-05-12T13:07:30Z</time>
      </trkpt>
      <trkpt lat="44.4718" lon="6.06032">
        <ele>779.20001220703</ele>
        <time>2013-05-12T13:07:37Z</time>
      </trkpt>
      <trkpt lat="44.47191" lon="6.0604">
        <ele>782.59997558594</ele>
        <time>2013-05-12T13:08:02Z</time>
      </trkpt>
      <trkpt lat="44.47194" lon="6.06043">
        <ele>783.40002441406</ele>
        <time>2013-05-12T13:08:09Z</time>
      </trkpt>
      <trkpt lat="44.472" lon="6.06047">
        <ele>785</ele>
        <time>2013-05-12T13:08:23Z</time>
      </trkpt>
      <trkpt lat="44.47208" lon="6.06052">
        <ele>786.79998779297</ele>
        <time>2013-05-12T13:08:43Z</time>
      </trkpt>
      <trkpt lat="44.47212" lon="6.06056">
        <ele>788.79998779297</ele>
        <time>2013-05-12T13:08:51Z</time>
      </trkpt>
      <trkpt lat="44.47218" lon="6.0606">
        <ele>789.20001220703</ele>
        <time>2013-05-12T13:09:01Z</time>
      </trkpt>
      <trkpt lat="44.4722" lon="6.06062">
        <ele>789.20001220703</ele>
        <time>2013-05-12T13:09:05Z</time>
      </trkpt>
      <trkpt lat="44.47231" lon="6.06071">
        <ele>793.20001220703</ele>
        <time>2013-05-12T13:09:26Z</time>
      </trkpt>
      <trkpt lat="44.47239" lon="6.06081">
        <ele>795.59997558594</ele>
        <time>2013-05-12T13:09:47Z</time>
      </trkpt>
      <trkpt lat="44.4724" lon="6.06083">
        <ele>796</ele>
        <time>2013-05-12T13:09:51Z</time>
      </trkpt>
      <trkpt lat="44.47251" lon="6.0609">
        <ele>799.40002441406</ele>
        <time>2013-05-12T13:10:23Z</time>
      </trkpt>
      <trkpt lat="44.47252" lon="6.0609">
        <ele>800.40002441406</ele>
        <time>2013-05-12T13:10:26Z</time>
      </trkpt>
      <trkpt lat="44.47258" lon="6.061">
        <ele>804.59997558594</ele>
        <time>2013-05-12T13:10:50Z</time>
      </trkpt>
      <trkpt lat="44.47263" lon="6.061">
        <ele>804.59997558594</ele>
        <time>2013-05-12T13:11:02Z</time>
      </trkpt>
      <trkpt lat="44.47264" lon="6.061">
        <ele>805</ele>
        <time>2013-05-12T13:11:05Z</time>
      </trkpt>
      <trkpt lat="44.47269" lon="6.0611">
        <ele>808</ele>
        <time>2013-05-12T13:11:32Z</time>
      </trkpt>
      <trkpt lat="44.47271" lon="6.06112">
        <ele>809</ele>
        <time>2013-05-12T13:11:36Z</time>
      </trkpt>
      <trkpt lat="44.47276" lon="6.06121">
        <ele>812.59997558594</ele>
        <time>2013-05-12T13:11:58Z</time>
      </trkpt>
      <trkpt lat="44.47281" lon="6.06123">
        <ele>813.40002441406</ele>
        <time>2013-05-12T13:12:08Z</time>
      </trkpt>
      <trkpt lat="44.47286" lon="6.06131">
        <ele>816.40002441406</ele>
        <time>2013-05-12T13:12:25Z</time>
      </trkpt>
      <trkpt lat="44.4729" lon="6.06135">
        <ele>818.40002441406</ele>
        <time>2013-05-12T13:12:38Z</time>
      </trkpt>
      <trkpt lat="44.47294" lon="6.06141">
        <ele>820.40002441406</ele>
        <time>2013-05-12T13:12:51Z</time>
      </trkpt>
      <trkpt lat="44.47289" lon="6.0615">
        <ele>822.59997558594</ele>
        <time>2013-05-12T13:13:07Z</time>
      </trkpt>
      <trkpt lat="44.47289" lon="6.06152">
        <ele>822.59997558594</ele>
        <time>2013-05-12T13:13:14Z</time>
      </trkpt>
      <trkpt lat="44.47286" lon="6.06162">
        <ele>822.59997558594</ele>
        <time>2013-05-12T13:13:31Z</time>
      </trkpt>
      <trkpt lat="44.47279" lon="6.06174">
        <ele>822.59997558594</ele>
        <time>2013-05-12T13:13:45Z</time>
      </trkpt>
      <trkpt lat="44.47276" lon="6.06191">
        <ele>822.59997558594</ele>
        <time>2013-05-12T13:13:51Z</time>
      </trkpt>
      <trkpt lat="44.47276" lon="6.06205">
        <ele>822.59997558594</ele>
        <time>2013-05-12T13:13:58Z</time>
      </trkpt>
      <trkpt lat="44.47279" lon="6.0621">
        <ele>823.79998779297</ele>
        <time>2013-05-12T13:14:28Z</time>
      </trkpt>
      <trkpt lat="44.47283" lon="6.06216">
        <ele>825</ele>
        <time>2013-05-12T13:14:39Z</time>
      </trkpt>
      <trkpt lat="44.47287" lon="6.06221">
        <ele>827.20001220703</ele>
        <time>2013-05-12T13:14:50Z</time>
      </trkpt>
      <trkpt lat="44.4729" lon="6.06222">
        <ele>828.79998779297</ele>
        <time>2013-05-12T13:14:57Z</time>
      </trkpt>
      <trkpt lat="44.47301" lon="6.06229">
        <ele>833.40002441406</ele>
        <time>2013-05-12T13:15:32Z</time>
      </trkpt>
      <trkpt lat="44.47302" lon="6.0623">
        <ele>833.79998779297</ele>
        <time>2013-05-12T13:15:36Z</time>
      </trkpt>
      <trkpt lat="44.47311" lon="6.06236">
        <ele>837.20001220703</ele>
        <time>2013-05-12T13:16:00Z</time>
      </trkpt>
      <trkpt lat="44.47319" lon="6.06242">
        <ele>839.59997558594</ele>
        <time>2013-05-12T13:16:21Z</time>
      </trkpt>
      <trkpt lat="44.47321" lon="6.06243">
        <ele>840</ele>
        <time>2013-05-12T13:16:24Z</time>
      </trkpt>
      <trkpt lat="44.47321" lon="6.06251">
        <ele>841.40002441406</ele>
        <time>2013-05-12T13:16:35Z</time>
      </trkpt>
      <trkpt lat="44.47323" lon="6.06262">
        <ele>843.40002441406</ele>
        <time>2013-05-12T13:16:49Z</time>
      </trkpt>
      <trkpt lat="44.47327" lon="6.06271">
        <ele>845.20001220703</ele>
        <time>2013-05-12T13:16:59Z</time>
      </trkpt>
      <trkpt lat="44.4733" lon="6.06273">
        <ele>846</ele>
        <time>2013-05-12T13:17:03Z</time>
      </trkpt>
      <trkpt lat="44.47346" lon="6.06272">
        <ele>846.59997558594</ele>
        <time>2013-05-12T13:17:23Z</time>
      </trkpt>
      <trkpt lat="44.47351" lon="6.06272">
        <ele>848.20001220703</ele>
        <time>2013-05-12T13:17:31Z</time>
      </trkpt>
      <trkpt lat="44.47362" lon="6.06273">
        <ele>849.79998779297</ele>
        <time>2013-05-12T13:17:45Z</time>
      </trkpt>
      <trkpt lat="44.47375" lon="6.06274">
        <ele>850.79998779297</ele>
        <time>2013-05-12T13:18:03Z</time>
      </trkpt>
      <trkpt lat="44.4738" lon="6.06274">
        <ele>851.59997558594</ele>
        <time>2013-05-12T13:18:11Z</time>
      </trkpt>
      <trkpt lat="44.47392" lon="6.06274">
        <ele>854.40002441406</ele>
        <time>2013-05-12T13:18:27Z</time>
      </trkpt>
      <trkpt lat="44.47404" lon="6.06274">
        <ele>855.20001220703</ele>
        <time>2013-05-12T13:18:43Z</time>
      </trkpt>
      <trkpt lat="44.47412" lon="6.06276">
        <ele>857.20001220703</ele>
        <time>2013-05-12T13:18:55Z</time>
      </trkpt>
      <trkpt lat="44.47423" lon="6.06283">
        <ele>858.59997558594</ele>
        <time>2013-05-12T13:19:09Z</time>
      </trkpt>
      <trkpt lat="44.47433" lon="6.0629">
        <ele>860</ele>
        <time>2013-05-12T13:19:23Z</time>
      </trkpt>
      <trkpt lat="44.47437" lon="6.06289">
        <ele>860</ele>
        <time>2013-05-12T13:19:35Z</time>
      </trkpt>
      <trkpt lat="44.47446" lon="6.06295">
        <ele>860</ele>
        <time>2013-05-12T13:20:06Z</time>
      </trkpt>
      <trkpt lat="44.4745" lon="6.06297">
        <ele>860.59997558594</ele>
        <time>2013-05-12T13:20:08Z</time>
      </trkpt>
      <trkpt lat="44.4746" lon="6.06302">
        <ele>862</ele>
        <time>2013-05-12T13:20:15Z</time>
      </trkpt>
      <trkpt lat="44.47469" lon="6.06313">
        <ele>863</ele>
        <time>2013-05-12T13:20:22Z</time>
      </trkpt>
      <trkpt lat="44.47473" lon="6.0632">
        <ele>863.79998779297</ele>
        <time>2013-05-12T13:20:26Z</time>
      </trkpt>
      <trkpt lat="44.47476" lon="6.06324">
        <ele>864.40002441406</ele>
        <time>2013-05-12T13:20:29Z</time>
      </trkpt>
      <trkpt lat="44.47482" lon="6.06328">
        <ele>865.20001220703</ele>
        <time>2013-05-12T13:20:33Z</time>
      </trkpt>
      <trkpt lat="44.47486" lon="6.06331">
        <ele>865.79998779297</ele>
        <time>2013-05-12T13:20:37Z</time>
      </trkpt>
      <trkpt lat="44.4749" lon="6.06334">
        <ele>866.59997558594</ele>
        <time>2013-05-12T13:20:40Z</time>
      </trkpt>
      <trkpt lat="44.475" lon="6.06342">
        <ele>868</ele>
        <time>2013-05-12T13:20:47Z</time>
      </trkpt>
      <trkpt lat="44.47511" lon="6.06349">
        <ele>869.40002441406</ele>
        <time>2013-05-12T13:20:54Z</time>
      </trkpt>
      <trkpt lat="44.4752" lon="6.06351">
        <ele>869.40002441406</ele>
        <time>2013-05-12T13:20:58Z</time>
      </trkpt>
      <trkpt lat="44.4753" lon="6.06365">
        <ele>869.40002441406</ele>
        <time>2013-05-12T13:21:06Z</time>
      </trkpt>
      <trkpt lat="44.47532" lon="6.06369">
        <ele>870.20001220703</ele>
        <time>2013-05-12T13:21:08Z</time>
      </trkpt>
      <trkpt lat="44.47535" lon="6.06375">
        <ele>870.59997558594</ele>
        <time>2013-05-12T13:21:11Z</time>
      </trkpt>
      <trkpt lat="44.47539" lon="6.06381">
        <ele>871.40002441406</ele>
        <time>2013-05-12T13:21:15Z</time>
      </trkpt>
      <trkpt lat="44.4754" lon="6.06383">
        <ele>871.40002441406</ele>
        <time>2013-05-12T13:21:16Z</time>
      </trkpt>
      <trkpt lat="44.47551" lon="6.06393">
        <ele>873.59997558594</ele>
        <time>2013-05-12T13:21:25Z</time>
      </trkpt>
      <trkpt lat="44.47562" lon="6.06399">
        <ele>873.59997558594</ele>
        <time>2013-05-12T13:21:34Z</time>
      </trkpt>
      <trkpt lat="44.47564" lon="6.064">
        <ele>874.40002441406</ele>
        <time>2013-05-12T13:21:36Z</time>
      </trkpt>
      <trkpt lat="44.47571" lon="6.06404">
        <ele>875.40002441406</ele>
        <time>2013-05-12T13:21:43Z</time>
      </trkpt>
      <trkpt lat="44.47581" lon="6.06409">
        <ele>877.20001220703</ele>
        <time>2013-05-12T13:21:53Z</time>
      </trkpt>
      <trkpt lat="44.4759" lon="6.06414">
        <ele>878.59997558594</ele>
        <time>2013-05-12T13:22:02Z</time>
      </trkpt>
      <trkpt lat="44.47602" lon="6.0642">
        <ele>880.79998779297</ele>
        <time>2013-05-12T13:22:12Z</time>
      </trkpt>
      <trkpt lat="44.47605" lon="6.06422">
        <ele>881.59997558594</ele>
        <time>2013-05-12T13:22:15Z</time>
      </trkpt>
      <trkpt lat="44.47613" lon="6.06428">
        <ele>882.40002441406</ele>
        <time>2013-05-12T13:22:22Z</time>
      </trkpt>
      <trkpt lat="44.47624" lon="6.06432">
        <ele>882.40002441406</ele>
        <time>2013-05-12T13:22:29Z</time>
      </trkpt>
      <trkpt lat="44.47635" lon="6.06438">
        <ele>884.20001220703</ele>
        <time>2013-05-12T13:22:36Z</time>
      </trkpt>
      <trkpt lat="44.47642" lon="6.06442">
        <ele>884.59997558594</ele>
        <time>2013-05-12T13:22:40Z</time>
      </trkpt>
      <trkpt lat="44.47652" lon="6.06448">
        <ele>884.59997558594</ele>
        <time>2013-05-12T13:22:43Z</time>
      </trkpt>
      <trkpt lat="44.47661" lon="6.06458">
        <ele>884.59997558594</ele>
        <time>2013-05-12T13:22:48Z</time>
      </trkpt>
      <trkpt lat="44.47667" lon="6.06463">
        <ele>885</ele>
        <time>2013-05-12T13:22:51Z</time>
      </trkpt>
      <trkpt lat="44.47673" lon="6.06467">
        <ele>885.79998779297</ele>
        <time>2013-05-12T13:22:54Z</time>
      </trkpt>
      <trkpt lat="44.4768" lon="6.0647">
        <ele>886.79998779297</ele>
        <time>2013-05-12T13:22:57Z</time>
      </trkpt>
      <trkpt lat="44.47698" lon="6.06481">
        <ele>886.79998779297</ele>
        <time>2013-05-12T13:23:04Z</time>
      </trkpt>
      <trkpt lat="44.47721" lon="6.06489">
        <ele>886.79998779297</ele>
        <time>2013-05-12T13:23:12Z</time>
      </trkpt>
      <trkpt lat="44.47742" lon="6.06493">
        <ele>886.79998779297</ele>
        <time>2013-05-12T13:23:18Z</time>
      </trkpt>
      <trkpt lat="44.47759" lon="6.065">
        <ele>886.79998779297</ele>
        <time>2013-05-12T13:23:23Z</time>
      </trkpt>
      <trkpt lat="44.47772" lon="6.06512">
        <ele>886.79998779297</ele>
        <time>2013-05-12T13:23:28Z</time>
      </trkpt>
      <trkpt lat="44.47783" lon="6.06521">
        <ele>886.79998779297</ele>
        <time>2013-05-12T13:23:32Z</time>
      </trkpt>
      <trkpt lat="44.47788" lon="6.06535">
        <ele>887.79998779297</ele>
        <time>2013-05-12T13:23:36Z</time>
      </trkpt>
      <trkpt lat="44.47792" lon="6.06542">
        <ele>887.79998779297</ele>
        <time>2013-05-12T13:23:39Z</time>
      </trkpt>
      <trkpt lat="44.47803" lon="6.06556">
        <ele>889.59997558594</ele>
        <time>2013-05-12T13:23:47Z</time>
      </trkpt>
      <trkpt lat="44.47809" lon="6.06561">
        <ele>890.40002441406</ele>
        <time>2013-05-12T13:23:50Z</time>
      </trkpt>
      <trkpt lat="44.47817" lon="6.06566">
        <ele>891</ele>
        <time>2013-05-12T13:23:54Z</time>
      </trkpt>
      <trkpt lat="44.47822" lon="6.0657">
        <ele>892</ele>
        <time>2013-05-12T13:23:57Z</time>
      </trkpt>
      <trkpt lat="44.47828" lon="6.06585">
        <ele>892.40002441406</ele>
        <time>2013-05-12T13:24:01Z</time>
      </trkpt>
      <trkpt lat="44.47831" lon="6.06595">
        <ele>892.40002441406</ele>
        <time>2013-05-12T13:24:03Z</time>
      </trkpt>
      <trkpt lat="44.47834" lon="6.06601">
        <ele>893.59997558594</ele>
        <time>2013-05-12T13:24:04Z</time>
      </trkpt>
      <trkpt lat="44.47847" lon="6.06627">
        <ele>893</ele>
        <time>2013-05-12T13:24:08Z</time>
      </trkpt>
      <trkpt lat="44.47859" lon="6.06657">
        <ele>893</ele>
        <time>2013-05-12T13:24:12Z</time>
      </trkpt>
      <trkpt lat="44.4786" lon="6.06662">
        <ele>893</ele>
        <time>2013-05-12T13:24:13Z</time>
      </trkpt>
      <trkpt lat="44.47864" lon="6.06674">
        <ele>892</ele>
        <time>2013-05-12T13:24:15Z</time>
      </trkpt>
      <trkpt lat="44.4787" lon="6.06683">
        <ele>892</ele>
        <time>2013-05-12T13:24:17Z</time>
      </trkpt>
      <trkpt lat="44.47884" lon="6.06685">
        <ele>889</ele>
        <time>2013-05-12T13:24:20Z</time>
      </trkpt>
      <trkpt lat="44.47892" lon="6.06679">
        <ele>887.40002441406</ele>
        <time>2013-05-12T13:24:22Z</time>
      </trkpt>
      <trkpt lat="44.47904" lon="6.06669">
        <ele>884.40002441406</ele>
        <time>2013-05-12T13:24:25Z</time>
      </trkpt>
      <trkpt lat="44.4791" lon="6.0667">
        <ele>884.40002441406</ele>
        <time>2013-05-12T13:24:26Z</time>
      </trkpt>
      <trkpt lat="44.47916" lon="6.0667">
        <ele>884.40002441406</ele>
        <time>2013-05-12T13:24:27Z</time>
      </trkpt>
      <trkpt lat="44.47921" lon="6.06669">
        <ele>881.40002441406</ele>
        <time>2013-05-12T13:24:28Z</time>
      </trkpt>
      <trkpt lat="44.47933" lon="6.06669">
        <ele>878.59997558594</ele>
        <time>2013-05-12T13:24:32Z</time>
      </trkpt>
      <trkpt lat="44.4794" lon="6.06675">
        <ele>878.59997558594</ele>
        <time>2013-05-12T13:24:34Z</time>
      </trkpt>
      <trkpt lat="44.47942" lon="6.06677">
        <ele>877</ele>
        <time>2013-05-12T13:24:35Z</time>
      </trkpt>
      <trkpt lat="44.4796" lon="6.06682">
        <ele>877</ele>
        <time>2013-05-12T13:24:41Z</time>
      </trkpt>
      <trkpt lat="44.47979" lon="6.06676">
        <ele>876.59997558594</ele>
        <time>2013-05-12T13:24:47Z</time>
      </trkpt>
      <trkpt lat="44.47985" lon="6.06679">
        <ele>876</ele>
        <time>2013-05-12T13:24:50Z</time>
      </trkpt>
      <trkpt lat="44.4799" lon="6.06683">
        <ele>876</ele>
        <time>2013-05-12T13:24:52Z</time>
      </trkpt>
      <trkpt lat="44.48005" lon="6.06688">
        <ele>874.20001220703</ele>
        <time>2013-05-12T13:24:56Z</time>
      </trkpt>
      <trkpt lat="44.48009" lon="6.06693">
        <ele>873.59997558594</ele>
        <time>2013-05-12T13:24:57Z</time>
      </trkpt>
      <trkpt lat="44.48019" lon="6.06696">
        <ele>873</ele>
        <time>2013-05-12T13:25:00Z</time>
      </trkpt>
      <trkpt lat="44.48022" lon="6.06696">
        <ele>872.20001220703</ele>
        <time>2013-05-12T13:25:01Z</time>
      </trkpt>
      <trkpt lat="44.48044" lon="6.06702">
        <ele>871.79998779297</ele>
        <time>2013-05-12T13:25:07Z</time>
      </trkpt>
      <trkpt lat="44.48056" lon="6.06702">
        <ele>871.20001220703</ele>
        <time>2013-05-12T13:25:10Z</time>
      </trkpt>
      <trkpt lat="44.4806" lon="6.06701">
        <ele>870.40002441406</ele>
        <time>2013-05-12T13:25:11Z</time>
      </trkpt>
      <trkpt lat="44.48075" lon="6.06701">
        <ele>869.59997558594</ele>
        <time>2013-05-12T13:25:14Z</time>
      </trkpt>
      <trkpt lat="44.48078" lon="6.06699">
        <ele>868.40002441406</ele>
        <time>2013-05-12T13:25:15Z</time>
      </trkpt>
      <trkpt lat="44.48081" lon="6.06697">
        <ele>868.40002441406</ele>
        <time>2013-05-12T13:25:16Z</time>
      </trkpt>
      <trkpt lat="44.48093" lon="6.06693">
        <ele>867.40002441406</ele>
        <time>2013-05-12T13:25:20Z</time>
      </trkpt>
      <trkpt lat="44.48102" lon="6.06706">
        <ele>863.20001220703</ele>
        <time>2013-05-12T13:25:25Z</time>
      </trkpt>
      <trkpt lat="44.48111" lon="6.06713">
        <ele>862</ele>
        <time>2013-05-12T13:25:28Z</time>
      </trkpt>
      <trkpt lat="44.48113" lon="6.06723">
        <ele>859.79998779297</ele>
        <time>2013-05-12T13:25:32Z</time>
      </trkpt>
      <trkpt lat="44.48113" lon="6.06742">
        <ele>859.79998779297</ele>
        <time>2013-05-12T13:25:39Z</time>
      </trkpt>
      <trkpt lat="44.48112" lon="6.06756">
        <ele>859.79998779297</ele>
        <time>2013-05-12T13:25:44Z</time>
      </trkpt>
      <trkpt lat="44.48119" lon="6.06776">
        <ele>859.79998779297</ele>
        <time>2013-05-12T13:25:50Z</time>
      </trkpt>
      <trkpt lat="44.48141" lon="6.06787">
        <ele>859.79998779297</ele>
        <time>2013-05-12T13:25:56Z</time>
      </trkpt>
      <trkpt lat="44.48158" lon="6.06801">
        <ele>859.79998779297</ele>
        <time>2013-05-12T13:26:02Z</time>
      </trkpt>
      <trkpt lat="44.48167" lon="6.06813">
        <ele>859.79998779297</ele>
        <time>2013-05-12T13:26:08Z</time>
      </trkpt>
      <trkpt lat="44.48177" lon="6.06833">
        <ele>859.79998779297</ele>
        <time>2013-05-12T13:26:13Z</time>
      </trkpt>
      <trkpt lat="44.48185" lon="6.06846">
        <ele>859</ele>
        <time>2013-05-12T13:26:16Z</time>
      </trkpt>
      <trkpt lat="44.48191" lon="6.06855">
        <ele>859</ele>
        <time>2013-05-12T13:26:18Z</time>
      </trkpt>
      <trkpt lat="44.482" lon="6.06852">
        <ele>858</ele>
        <time>2013-05-12T13:26:22Z</time>
      </trkpt>
      <trkpt lat="44.48215" lon="6.06871">
        <ele>857.59997558594</ele>
        <time>2013-05-12T13:26:30Z</time>
      </trkpt>
      <trkpt lat="44.48225" lon="6.06872">
        <ele>857.59997558594</ele>
        <time>2013-05-12T13:26:32Z</time>
      </trkpt>
      <trkpt lat="44.48243" lon="6.0687">
        <ele>857.59997558594</ele>
        <time>2013-05-12T13:26:37Z</time>
      </trkpt>
      <trkpt lat="44.48256" lon="6.0687">
        <ele>857.20001220703</ele>
        <time>2013-05-12T13:26:41Z</time>
      </trkpt>
      <trkpt lat="44.48259" lon="6.0687">
        <ele>857.20001220703</ele>
        <time>2013-05-12T13:26:42Z</time>
      </trkpt>
      <trkpt lat="44.48264" lon="6.06872">
        <ele>856.59997558594</ele>
        <time>2013-05-12T13:26:44Z</time>
      </trkpt>
      <trkpt lat="44.48275" lon="6.06871">
        <ele>856.20001220703</ele>
        <time>2013-05-12T13:26:47Z</time>
      </trkpt>
      <trkpt lat="44.4829" lon="6.06876">
        <ele>854.59997558594</ele>
        <time>2013-05-12T13:26:51Z</time>
      </trkpt>
      <trkpt lat="44.48301" lon="6.0688">
        <ele>853.59997558594</ele>
        <time>2013-05-12T13:26:54Z</time>
      </trkpt>
      <trkpt lat="44.48305" lon="6.0688">
        <ele>852.79998779297</ele>
        <time>2013-05-12T13:26:55Z</time>
      </trkpt>
      <trkpt lat="44.48319" lon="6.06882">
        <ele>851</ele>
        <time>2013-05-12T13:26:59Z</time>
      </trkpt>
      <trkpt lat="44.48326" lon="6.06887">
        <ele>850</ele>
        <time>2013-05-12T13:27:02Z</time>
      </trkpt>
      <trkpt lat="44.48331" lon="6.06889">
        <ele>850</ele>
        <time>2013-05-12T13:27:04Z</time>
      </trkpt>
      <trkpt lat="44.48343" lon="6.06893">
        <ele>850</ele>
        <time>2013-05-12T13:27:09Z</time>
      </trkpt>
      <trkpt lat="44.48363" lon="6.06898">
        <ele>850</ele>
        <time>2013-05-12T13:27:16Z</time>
      </trkpt>
      <trkpt lat="44.48382" lon="6.06906">
        <ele>850</ele>
        <time>2013-05-12T13:27:23Z</time>
      </trkpt>
      <trkpt lat="44.48391" lon="6.06904">
        <ele>849.59997558594</ele>
        <time>2013-05-12T13:27:26Z</time>
      </trkpt>
      <trkpt lat="44.48402" lon="6.06904">
        <ele>849</ele>
        <time>2013-05-12T13:27:30Z</time>
      </trkpt>
      <trkpt lat="44.48412" lon="6.069">
        <ele>847.79998779297</ele>
        <time>2013-05-12T13:27:33Z</time>
      </trkpt>
      <trkpt lat="44.48422" lon="6.06899">
        <ele>846.79998779297</ele>
        <time>2013-05-12T13:27:37Z</time>
      </trkpt>
      <trkpt lat="44.4843" lon="6.06896">
        <ele>840.79998779297</ele>
        <time>2013-05-12T13:27:50Z</time>
      </trkpt>
      <trkpt lat="44.4843" lon="6.069">
        <ele>843.20001220703</ele>
        <time>2013-05-12T13:28:33Z</time>
      </trkpt>
      <trkpt lat="44.4843" lon="6.06901">
        <ele>844.40002441406</ele>
        <time>2013-05-12T13:28:39Z</time>
      </trkpt>
      <trkpt lat="44.4843" lon="6.06917">
        <ele>847.20001220703</ele>
        <time>2013-05-12T13:29:15Z</time>
      </trkpt>
      <trkpt lat="44.4843" lon="6.06921">
        <ele>847.20001220703</ele>
        <time>2013-05-12T13:29:18Z</time>
      </trkpt>
      <trkpt lat="44.48428" lon="6.06938">
        <ele>847.20001220703</ele>
        <time>2013-05-12T13:29:26Z</time>
      </trkpt>
      <trkpt lat="44.48425" lon="6.06945">
        <ele>847.59997558594</ele>
        <time>2013-05-12T13:29:31Z</time>
      </trkpt>
      <trkpt lat="44.48423" lon="6.06953">
        <ele>848.59997558594</ele>
        <time>2013-05-12T13:29:35Z</time>
      </trkpt>
      <trkpt lat="44.48424" lon="6.06969">
        <ele>849.40002441406</ele>
        <time>2013-05-12T13:29:44Z</time>
      </trkpt>
      <trkpt lat="44.48425" lon="6.06973">
        <ele>849.79998779297</ele>
        <time>2013-05-12T13:29:47Z</time>
      </trkpt>
      <trkpt lat="44.48431" lon="6.06979">
        <ele>851.59997558594</ele>
        <time>2013-05-12T13:29:52Z</time>
      </trkpt>
      <trkpt lat="44.48446" lon="6.06979">
        <ele>852</ele>
        <time>2013-05-12T13:30:05Z</time>
      </trkpt>
      <trkpt lat="44.48452" lon="6.06977">
        <ele>853.40002441406</ele>
        <time>2013-05-12T13:30:11Z</time>
      </trkpt>
      <trkpt lat="44.48463" lon="6.0698">
        <ele>854</ele>
        <time>2013-05-12T13:30:21Z</time>
      </trkpt>
      <trkpt lat="44.48475" lon="6.06981">
        <ele>854</ele>
        <time>2013-05-12T13:30:27Z</time>
      </trkpt>
      <trkpt lat="44.48485" lon="6.06985">
        <ele>854.79998779297</ele>
        <time>2013-05-12T13:30:34Z</time>
      </trkpt>
      <trkpt lat="44.48491" lon="6.06991">
        <ele>855.79998779297</ele>
        <time>2013-05-12T13:30:39Z</time>
      </trkpt>
      <trkpt lat="44.48503" lon="6.07001">
        <ele>856.20001220703</ele>
        <time>2013-05-12T13:30:48Z</time>
      </trkpt>
      <trkpt lat="44.48512" lon="6.07004">
        <ele>857.40002441406</ele>
        <time>2013-05-12T13:30:52Z</time>
      </trkpt>
      <trkpt lat="44.48532" lon="6.07014">
        <ele>858.20001220703</ele>
        <time>2013-05-12T13:31:04Z</time>
      </trkpt>
      <trkpt lat="44.48549" lon="6.07021">
        <ele>858.20001220703</ele>
        <time>2013-05-12T13:31:13Z</time>
      </trkpt>
      <trkpt lat="44.48561" lon="6.07024">
        <ele>858.20001220703</ele>
        <time>2013-05-12T13:31:20Z</time>
      </trkpt>
      <trkpt lat="44.48575" lon="6.07019">
        <ele>858.20001220703</ele>
        <time>2013-05-12T13:31:26Z</time>
      </trkpt>
      <trkpt lat="44.48589" lon="6.07006">
        <ele>858.59997558594</ele>
        <time>2013-05-12T13:31:31Z</time>
      </trkpt>
      <trkpt lat="44.48594" lon="6.06998">
        <ele>858.59997558594</ele>
        <time>2013-05-12T13:31:33Z</time>
      </trkpt>
      <trkpt lat="44.48602" lon="6.06982">
        <ele>859.40002441406</ele>
        <time>2013-05-12T13:31:37Z</time>
      </trkpt>
      <trkpt lat="44.48604" lon="6.06978">
        <ele>859.79998779297</ele>
        <time>2013-05-12T13:31:38Z</time>
      </trkpt>
      <trkpt lat="44.48609" lon="6.06967">
        <ele>860.40002441406</ele>
        <time>2013-05-12T13:31:41Z</time>
      </trkpt>
      <trkpt lat="44.48615" lon="6.06956">
        <ele>860.40002441406</ele>
        <time>2013-05-12T13:31:46Z</time>
      </trkpt>
      <trkpt lat="44.48621" lon="6.06945">
        <ele>860.79998779297</ele>
        <time>2013-05-12T13:31:51Z</time>
      </trkpt>
      <trkpt lat="44.48627" lon="6.0694">
        <ele>861.20001220703</ele>
        <time>2013-05-12T13:31:54Z</time>
      </trkpt>
      <trkpt lat="44.48636" lon="6.06934">
        <ele>862.40002441406</ele>
        <time>2013-05-12T13:31:58Z</time>
      </trkpt>
      <trkpt lat="44.48641" lon="6.06934">
        <ele>862.40002441406</ele>
        <time>2013-05-12T13:32:01Z</time>
      </trkpt>
      <trkpt lat="44.48653" lon="6.06935">
        <ele>864.59997558594</ele>
        <time>2013-05-12T13:32:09Z</time>
      </trkpt>
      <trkpt lat="44.48663" lon="6.06938">
        <ele>865</ele>
        <time>2013-05-12T13:32:15Z</time>
      </trkpt>
      <trkpt lat="44.48669" lon="6.0694">
        <ele>866.20001220703</ele>
        <time>2013-05-12T13:32:19Z</time>
      </trkpt>
      <trkpt lat="44.48677" lon="6.06942">
        <ele>866.59997558594</ele>
        <time>2013-05-12T13:32:23Z</time>
      </trkpt>
      <trkpt lat="44.48682" lon="6.06942">
        <ele>866.59997558594</ele>
        <time>2013-05-12T13:32:25Z</time>
      </trkpt>
      <trkpt lat="44.48695" lon="6.06944">
        <ele>867.40002441406</ele>
        <time>2013-05-12T13:32:32Z</time>
      </trkpt>
      <trkpt lat="44.48701" lon="6.06944">
        <ele>867.79998779297</ele>
        <time>2013-05-12T13:32:35Z</time>
      </trkpt>
      <trkpt lat="44.48713" lon="6.06945">
        <ele>868.59997558594</ele>
        <time>2013-05-12T13:32:42Z</time>
      </trkpt>
      <trkpt lat="44.48724" lon="6.06946">
        <ele>869.40002441406</ele>
        <time>2013-05-12T13:32:48Z</time>
      </trkpt>
      <trkpt lat="44.48731" lon="6.06947">
        <ele>870.40002441406</ele>
        <time>2013-05-12T13:32:53Z</time>
      </trkpt>
      <trkpt lat="44.48742" lon="6.06947">
        <ele>871.20001220703</ele>
        <time>2013-05-12T13:32:59Z</time>
      </trkpt>
      <trkpt lat="44.48753" lon="6.06944">
        <ele>873</ele>
        <time>2013-05-12T13:33:10Z</time>
      </trkpt>
      <trkpt lat="44.48762" lon="6.06944">
        <ele>875</ele>
        <time>2013-05-12T13:33:19Z</time>
      </trkpt>
      <trkpt lat="44.4877" lon="6.06943">
        <ele>876.20001220703</ele>
        <time>2013-05-12T13:33:27Z</time>
      </trkpt>
      <trkpt lat="44.48785" lon="6.0694">
        <ele>878</ele>
        <time>2013-05-12T13:33:40Z</time>
      </trkpt>
      <trkpt lat="44.4879" lon="6.06939">
        <ele>878.40002441406</ele>
        <time>2013-05-12T13:33:43Z</time>
      </trkpt>
      <trkpt lat="44.48809" lon="6.06936">
        <ele>879.20001220703</ele>
        <time>2013-05-12T13:33:48Z</time>
      </trkpt>
      <trkpt lat="44.48819" lon="6.06934">
        <ele>879.59997558594</ele>
        <time>2013-05-12T13:33:50Z</time>
      </trkpt>
      <trkpt lat="44.48828" lon="6.06925">
        <ele>879.59997558594</ele>
        <time>2013-05-12T13:33:52Z</time>
      </trkpt>
      <trkpt lat="44.48832" lon="6.0692">
        <ele>879.20001220703</ele>
        <time>2013-05-12T13:33:53Z</time>
      </trkpt>
      <trkpt lat="44.48838" lon="6.0691">
        <ele>878.20001220703</ele>
        <time>2013-05-12T13:33:55Z</time>
      </trkpt>
      <trkpt lat="44.48841" lon="6.06903">
        <ele>877.40002441406</ele>
        <time>2013-05-12T13:33:57Z</time>
      </trkpt>
      <trkpt lat="44.4885" lon="6.06894">
        <ele>877.40002441406</ele>
        <time>2013-05-12T13:34:02Z</time>
      </trkpt>
      <trkpt lat="44.48863" lon="6.06886">
        <ele>878.20001220703</ele>
        <time>2013-05-12T13:34:09Z</time>
      </trkpt>
      <trkpt lat="44.48873" lon="6.06876">
        <ele>879.40002441406</ele>
        <time>2013-05-12T13:34:16Z</time>
      </trkpt>
      <trkpt lat="44.48881" lon="6.0687">
        <ele>880.20001220703</ele>
        <time>2013-05-12T13:34:22Z</time>
      </trkpt>
      <trkpt lat="44.4889" lon="6.06855">
        <ele>882</ele>
        <time>2013-05-12T13:34:31Z</time>
      </trkpt>
      <trkpt lat="44.48895" lon="6.06848">
        <ele>883.59997558594</ele>
        <time>2013-05-12T13:34:37Z</time>
      </trkpt>
      <trkpt lat="44.48905" lon="6.06841">
        <ele>883.59997558594</ele>
        <time>2013-05-12T13:34:46Z</time>
      </trkpt>
      <trkpt lat="44.4891" lon="6.0684">
        <ele>885.59997558594</ele>
        <time>2013-05-12T13:34:50Z</time>
      </trkpt>
      <trkpt lat="44.48912" lon="6.06839">
        <ele>885.59997558594</ele>
        <time>2013-05-12T13:34:52Z</time>
      </trkpt>
      <trkpt lat="44.48925" lon="6.06835">
        <ele>886</ele>
        <time>2013-05-12T13:35:03Z</time>
      </trkpt>
      <trkpt lat="44.48931" lon="6.06828">
        <ele>889</ele>
        <time>2013-05-12T13:35:14Z</time>
      </trkpt>
      <trkpt lat="44.48933" lon="6.06817">
        <ele>890.79998779297</ele>
        <time>2013-05-12T13:35:21Z</time>
      </trkpt>
      <trkpt lat="44.48936" lon="6.06809">
        <ele>891.59997558594</ele>
        <time>2013-05-12T13:35:25Z</time>
      </trkpt>
      <trkpt lat="44.48939" lon="6.06798">
        <ele>892.79998779297</ele>
        <time>2013-05-12T13:35:31Z</time>
      </trkpt>
      <trkpt lat="44.4894" lon="6.06785">
        <ele>893.20001220703</ele>
        <time>2013-05-12T13:35:38Z</time>
      </trkpt>
      <trkpt lat="44.48941" lon="6.06779">
        <ele>894.20001220703</ele>
        <time>2013-05-12T13:35:41Z</time>
      </trkpt>
      <trkpt lat="44.4894" lon="6.06773">
        <ele>894.59997558594</ele>
        <time>2013-05-12T13:35:44Z</time>
      </trkpt>
      <trkpt lat="44.4894" lon="6.06768">
        <ele>895</ele>
        <time>2013-05-12T13:35:47Z</time>
      </trkpt>
      <trkpt lat="44.48941" lon="6.06758">
        <ele>895.79998779297</ele>
        <time>2013-05-12T13:35:54Z</time>
      </trkpt>
      <trkpt lat="44.48955" lon="6.06751">
        <ele>897.20001220703</ele>
        <time>2013-05-12T13:36:11Z</time>
      </trkpt>
      <trkpt lat="44.48962" lon="6.06753">
        <ele>898</ele>
        <time>2013-05-12T13:36:16Z</time>
      </trkpt>
      <trkpt lat="44.48973" lon="6.06754">
        <ele>899.40002441406</ele>
        <time>2013-05-12T13:36:24Z</time>
      </trkpt>
      <trkpt lat="44.48983" lon="6.06759">
        <ele>899.40002441406</ele>
        <time>2013-05-12T13:36:30Z</time>
      </trkpt>
      <trkpt lat="44.48991" lon="6.06764">
        <ele>900.40002441406</ele>
        <time>2013-05-12T13:36:34Z</time>
      </trkpt>
      <trkpt lat="44.48998" lon="6.06771">
        <ele>901.40002441406</ele>
        <time>2013-05-12T13:36:38Z</time>
      </trkpt>
      <trkpt lat="44.49002" lon="6.06776">
        <ele>901.79998779297</ele>
        <time>2013-05-12T13:36:41Z</time>
      </trkpt>
      <trkpt lat="44.49017" lon="6.06764">
        <ele>901.79998779297</ele>
        <time>2013-05-12T13:36:48Z</time>
      </trkpt>
      <trkpt lat="44.49023" lon="6.06751">
        <ele>901.79998779297</ele>
        <time>2013-05-12T13:36:52Z</time>
      </trkpt>
      <trkpt lat="44.49024" lon="6.06748">
        <ele>901.79998779297</ele>
        <time>2013-05-12T13:36:53Z</time>
      </trkpt>
      <trkpt lat="44.49029" lon="6.06728">
        <ele>901.79998779297</ele>
        <time>2013-05-12T13:36:59Z</time>
      </trkpt>
      <trkpt lat="44.4903" lon="6.06714">
        <ele>901.79998779297</ele>
        <time>2013-05-12T13:37:04Z</time>
      </trkpt>
      <trkpt lat="44.4903" lon="6.06704">
        <ele>903</ele>
        <time>2013-05-12T13:37:09Z</time>
      </trkpt>
      <trkpt lat="44.4903" lon="6.06697">
        <ele>903.40002441406</ele>
        <time>2013-05-12T13:37:12Z</time>
      </trkpt>
      <trkpt lat="44.4903" lon="6.06695">
        <ele>903.40002441406</ele>
        <time>2013-05-12T13:37:13Z</time>
      </trkpt>
      <trkpt lat="44.49032" lon="6.06688">
        <ele>904.59997558594</ele>
        <time>2013-05-12T13:37:16Z</time>
      </trkpt>
      <trkpt lat="44.49039" lon="6.06673">
        <ele>905</ele>
        <time>2013-05-12T13:37:22Z</time>
      </trkpt>
      <trkpt lat="44.49041" lon="6.06671">
        <ele>906</ele>
        <time>2013-05-12T13:37:23Z</time>
      </trkpt>
      <trkpt lat="44.49055" lon="6.06654">
        <ele>906</ele>
        <time>2013-05-12T13:37:28Z</time>
      </trkpt>
      <trkpt lat="44.49067" lon="6.06633">
        <ele>906</ele>
        <time>2013-05-12T13:37:32Z</time>
      </trkpt>
      <trkpt lat="44.4907" lon="6.06629">
        <ele>906</ele>
        <time>2013-05-12T13:37:33Z</time>
      </trkpt>
      <trkpt lat="44.49094" lon="6.06606">
        <ele>906</ele>
        <time>2013-05-12T13:37:39Z</time>
      </trkpt>
      <trkpt lat="44.49107" lon="6.066">
        <ele>905</ele>
        <time>2013-05-12T13:37:43Z</time>
      </trkpt>
      <trkpt lat="44.49121" lon="6.06584">
        <ele>903.59997558594</ele>
        <time>2013-05-12T13:37:46Z</time>
      </trkpt>
      <trkpt lat="44.49135" lon="6.06568">
        <ele>902.59997558594</ele>
        <time>2013-05-12T13:37:49Z</time>
      </trkpt>
      <trkpt lat="44.49147" lon="6.06553">
        <ele>901.59997558594</ele>
        <time>2013-05-12T13:37:52Z</time>
      </trkpt>
      <trkpt lat="44.49152" lon="6.06548">
        <ele>899</ele>
        <time>2013-05-12T13:37:53Z</time>
      </trkpt>
      <trkpt lat="44.49166" lon="6.06534">
        <ele>897.79998779297</ele>
        <time>2013-05-12T13:37:56Z</time>
      </trkpt>
      <trkpt lat="44.49173" lon="6.06528">
        <ele>896.40002441406</ele>
        <time>2013-05-12T13:37:58Z</time>
      </trkpt>
      <trkpt lat="44.49181" lon="6.06524">
        <ele>893.40002441406</ele>
        <time>2013-05-12T13:38:00Z</time>
      </trkpt>
      <trkpt lat="44.49194" lon="6.06523">
        <ele>892</ele>
        <time>2013-05-12T13:38:03Z</time>
      </trkpt>
      <trkpt lat="44.49211" lon="6.06518">
        <ele>887.79998779297</ele>
        <time>2013-05-12T13:38:07Z</time>
      </trkpt>
      <trkpt lat="44.49226" lon="6.06521">
        <ele>886.40002441406</ele>
        <time>2013-05-12T13:38:10Z</time>
      </trkpt>
      <trkpt lat="44.49232" lon="6.06522">
        <ele>885</ele>
        <time>2013-05-12T13:38:11Z</time>
      </trkpt>
      <trkpt lat="44.49245" lon="6.06518">
        <ele>883.59997558594</ele>
        <time>2013-05-12T13:38:14Z</time>
      </trkpt>
      <trkpt lat="44.49252" lon="6.06514">
        <ele>882</ele>
        <time>2013-05-12T13:38:16Z</time>
      </trkpt>
      <trkpt lat="44.49263" lon="6.06515">
        <ele>879</ele>
        <time>2013-05-12T13:38:20Z</time>
      </trkpt>
      <trkpt lat="44.49269" lon="6.06524">
        <ele>876.20001220703</ele>
        <time>2013-05-12T13:38:23Z</time>
      </trkpt>
      <trkpt lat="44.49273" lon="6.06529">
        <ele>876.20001220703</ele>
        <time>2013-05-12T13:38:25Z</time>
      </trkpt>
      <trkpt lat="44.49276" lon="6.06535">
        <ele>873.20001220703</ele>
        <time>2013-05-12T13:38:27Z</time>
      </trkpt>
      <trkpt lat="44.49282" lon="6.06548">
        <ele>871.59997558594</ele>
        <time>2013-05-12T13:38:30Z</time>
      </trkpt>
      <trkpt lat="44.49287" lon="6.06551">
        <ele>871.59997558594</ele>
        <time>2013-05-12T13:38:31Z</time>
      </trkpt>
      <trkpt lat="44.49298" lon="6.06566">
        <ele>870</ele>
        <time>2013-05-12T13:38:34Z</time>
      </trkpt>
      <trkpt lat="44.49311" lon="6.06578">
        <ele>869.20001220703</ele>
        <time>2013-05-12T13:38:37Z</time>
      </trkpt>
      <trkpt lat="44.49321" lon="6.06577">
        <ele>869.20001220703</ele>
        <time>2013-05-12T13:38:40Z</time>
      </trkpt>
      <trkpt lat="44.49338" lon="6.06579">
        <ele>866.40002441406</ele>
        <time>2013-05-12T13:38:44Z</time>
      </trkpt>
      <trkpt lat="44.49345" lon="6.06582">
        <ele>866.40002441406</ele>
        <time>2013-05-12T13:38:46Z</time>
      </trkpt>
      <trkpt lat="44.49351" lon="6.06586">
        <ele>865.40002441406</ele>
        <time>2013-05-12T13:38:48Z</time>
      </trkpt>
      <trkpt lat="44.49361" lon="6.06586">
        <ele>864.40002441406</ele>
        <time>2013-05-12T13:38:50Z</time>
      </trkpt>
      <trkpt lat="44.49372" lon="6.06587">
        <ele>863.59997558594</ele>
        <time>2013-05-12T13:38:52Z</time>
      </trkpt>
      <trkpt lat="44.49389" lon="6.06587">
        <ele>861.59997558594</ele>
        <time>2013-05-12T13:38:55Z</time>
      </trkpt>
      <trkpt lat="44.49395" lon="6.06581">
        <ele>861.59997558594</ele>
        <time>2013-05-12T13:38:58Z</time>
      </trkpt>
      <trkpt lat="44.49399" lon="6.06579">
        <ele>859.40002441406</ele>
        <time>2013-05-12T13:39:00Z</time>
      </trkpt>
      <trkpt lat="44.49404" lon="6.06576">
        <ele>857.59997558594</ele>
        <time>2013-05-12T13:39:03Z</time>
      </trkpt>
      <trkpt lat="44.49421" lon="6.06571">
        <ele>856</ele>
        <time>2013-05-12T13:39:08Z</time>
      </trkpt>
      <trkpt lat="44.49429" lon="6.06568">
        <ele>856</ele>
        <time>2013-05-12T13:39:10Z</time>
      </trkpt>
      <trkpt lat="44.49432" lon="6.06566">
        <ele>855.40002441406</ele>
        <time>2013-05-12T13:39:11Z</time>
      </trkpt>
      <trkpt lat="44.49448" lon="6.06561">
        <ele>853.40002441406</ele>
        <time>2013-05-12T13:39:15Z</time>
      </trkpt>
      <trkpt lat="44.49458" lon="6.06558">
        <ele>852.79998779297</ele>
        <time>2013-05-12T13:39:18Z</time>
      </trkpt>
      <trkpt lat="44.49461" lon="6.06555">
        <ele>852.20001220703</ele>
        <time>2013-05-12T13:39:19Z</time>
      </trkpt>
      <trkpt lat="44.49471" lon="6.06547">
        <ele>851</ele>
        <time>2013-05-12T13:39:24Z</time>
      </trkpt>
      <trkpt lat="44.4948" lon="6.06542">
        <ele>849.40002441406</ele>
        <time>2013-05-12T13:39:31Z</time>
      </trkpt>
      <trkpt lat="44.49487" lon="6.0654">
        <ele>846.20001220703</ele>
        <time>2013-05-12T13:39:48Z</time>
      </trkpt>
      <trkpt lat="44.49514" lon="6.06529">
        <ele>844.79998779297</ele>
        <time>2013-05-12T13:39:54Z</time>
      </trkpt>
      <trkpt lat="44.49522" lon="6.06524">
        <ele>843.59997558594</ele>
        <time>2013-05-12T13:39:57Z</time>
      </trkpt>
      <trkpt lat="44.49532" lon="6.06521">
        <ele>842.20001220703</ele>
        <time>2013-05-12T13:40:02Z</time>
      </trkpt>
      <trkpt lat="44.49537" lon="6.06518">
        <ele>840.79998779297</ele>
        <time>2013-05-12T13:40:05Z</time>
      </trkpt>
      <trkpt lat="44.49544" lon="6.06514">
        <ele>840.20001220703</ele>
        <time>2013-05-12T13:40:08Z</time>
      </trkpt>
      <trkpt lat="44.49547" lon="6.06507">
        <ele>839</ele>
        <time>2013-05-12T13:40:11Z</time>
      </trkpt>
      <trkpt lat="44.49551" lon="6.06503">
        <ele>837.59997558594</ele>
        <time>2013-05-12T13:40:14Z</time>
      </trkpt>
      <trkpt lat="44.49561" lon="6.06499">
        <ele>836.20001220703</ele>
        <time>2013-05-12T13:40:17Z</time>
      </trkpt>
      <trkpt lat="44.49572" lon="6.06495">
        <ele>834.79998779297</ele>
        <time>2013-05-12T13:40:21Z</time>
      </trkpt>
      <trkpt lat="44.49581" lon="6.06495">
        <ele>833.59997558594</ele>
        <time>2013-05-12T13:40:24Z</time>
      </trkpt>
      <trkpt lat="44.49591" lon="6.06498">
        <ele>831.59997558594</ele>
        <time>2013-05-12T13:40:29Z</time>
      </trkpt>
      <trkpt lat="44.49602" lon="6.06497">
        <ele>830.59997558594</ele>
        <time>2013-05-12T13:40:33Z</time>
      </trkpt>
      <trkpt lat="44.49614" lon="6.06497">
        <ele>829.40002441406</ele>
        <time>2013-05-12T13:40:38Z</time>
      </trkpt>
      <trkpt lat="44.4963" lon="6.06498">
        <ele>829.40002441406</ele>
        <time>2013-05-12T13:40:45Z</time>
      </trkpt>
      <trkpt lat="44.49639" lon="6.06504">
        <ele>828.59997558594</ele>
        <time>2013-05-12T13:40:49Z</time>
      </trkpt>
      <trkpt lat="44.49642" lon="6.0651">
        <ele>828.59997558594</ele>
        <time>2013-05-12T13:40:51Z</time>
      </trkpt>
      <trkpt lat="44.49654" lon="6.06515">
        <ele>827.59997558594</ele>
        <time>2013-05-12T13:40:54Z</time>
      </trkpt>
      <trkpt lat="44.49664" lon="6.06512">
        <ele>825.59997558594</ele>
        <time>2013-05-12T13:40:59Z</time>
      </trkpt>
      <trkpt lat="44.49679" lon="6.06509">
        <ele>824.59997558594</ele>
        <time>2013-05-12T13:41:06Z</time>
      </trkpt>
      <trkpt lat="44.49686" lon="6.06507">
        <ele>823.79998779297</ele>
        <time>2013-05-12T13:41:09Z</time>
      </trkpt>
      <trkpt lat="44.49694" lon="6.06503">
        <ele>823.40002441406</ele>
        <time>2013-05-12T13:41:13Z</time>
      </trkpt>
      <trkpt lat="44.49702" lon="6.065">
        <ele>822.40002441406</ele>
        <time>2013-05-12T13:41:16Z</time>
      </trkpt>
      <trkpt lat="44.49711" lon="6.06499">
        <ele>821.20001220703</ele>
        <time>2013-05-12T13:41:20Z</time>
      </trkpt>
      <trkpt lat="44.4972" lon="6.06492">
        <ele>820</ele>
        <time>2013-05-12T13:41:25Z</time>
      </trkpt>
      <trkpt lat="44.49731" lon="6.06487">
        <ele>818.59997558594</ele>
        <time>2013-05-12T13:41:30Z</time>
      </trkpt>
      <trkpt lat="44.49744" lon="6.0648">
        <ele>816.79998779297</ele>
        <time>2013-05-12T13:41:35Z</time>
      </trkpt>
      <trkpt lat="44.49754" lon="6.06468">
        <ele>814.79998779297</ele>
        <time>2013-05-12T13:41:40Z</time>
      </trkpt>
      <trkpt lat="44.49765" lon="6.06466">
        <ele>811.79998779297</ele>
        <time>2013-05-12T13:41:44Z</time>
      </trkpt>
      <trkpt lat="44.49774" lon="6.0646">
        <ele>810</ele>
        <time>2013-05-12T13:41:47Z</time>
      </trkpt>
      <trkpt lat="44.49778" lon="6.06456">
        <ele>810</ele>
        <time>2013-05-12T13:41:49Z</time>
      </trkpt>
      <trkpt lat="44.4978" lon="6.06454">
        <ele>808.40002441406</ele>
        <time>2013-05-12T13:41:50Z</time>
      </trkpt>
      <trkpt lat="44.49799" lon="6.06445">
        <ele>805.59997558594</ele>
        <time>2013-05-12T13:41:56Z</time>
      </trkpt>
      <trkpt lat="44.49802" lon="6.06441">
        <ele>805</ele>
        <time>2013-05-12T13:41:58Z</time>
      </trkpt>
      <trkpt lat="44.49805" lon="6.06438">
        <ele>804.20001220703</ele>
        <time>2013-05-12T13:42:00Z</time>
      </trkpt>
      <trkpt lat="44.49813" lon="6.06421">
        <ele>801.59997558594</ele>
        <time>2013-05-12T13:42:05Z</time>
      </trkpt>
      <trkpt lat="44.49815" lon="6.06411">
        <ele>801.59997558594</ele>
        <time>2013-05-12T13:42:07Z</time>
      </trkpt>
      <trkpt lat="44.49815" lon="6.06408">
        <ele>800.59997558594</ele>
        <time>2013-05-12T13:42:08Z</time>
      </trkpt>
      <trkpt lat="44.49817" lon="6.06396">
        <ele>799.40002441406</ele>
        <time>2013-05-12T13:42:11Z</time>
      </trkpt>
      <trkpt lat="44.49817" lon="6.06387">
        <ele>799.40002441406</ele>
        <time>2013-05-12T13:42:13Z</time>
      </trkpt>
      <trkpt lat="44.49812" lon="6.06369">
        <ele>797.59997558594</ele>
        <time>2013-05-12T13:42:16Z</time>
      </trkpt>
      <trkpt lat="44.49815" lon="6.06358">
        <ele>794.40002441406</ele>
        <time>2013-05-12T13:42:20Z</time>
      </trkpt>
      <trkpt lat="44.49822" lon="6.06353">
        <ele>793.79998779297</ele>
        <time>2013-05-12T13:42:23Z</time>
      </trkpt>
      <trkpt lat="44.49834" lon="6.06343">
        <ele>793.79998779297</ele>
        <time>2013-05-12T13:42:27Z</time>
      </trkpt>
      <trkpt lat="44.49841" lon="6.06339">
        <ele>793.79998779297</ele>
        <time>2013-05-12T13:42:30Z</time>
      </trkpt>
      <trkpt lat="44.49863" lon="6.06324">
        <ele>793.79998779297</ele>
        <time>2013-05-12T13:42:39Z</time>
      </trkpt>
      <trkpt lat="44.49879" lon="6.06309">
        <ele>793.79998779297</ele>
        <time>2013-05-12T13:42:45Z</time>
      </trkpt>
      <trkpt lat="44.49883" lon="6.06303">
        <ele>793.79998779297</ele>
        <time>2013-05-12T13:42:47Z</time>
      </trkpt>
      <trkpt lat="44.499" lon="6.06286">
        <ele>793.79998779297</ele>
        <time>2013-05-12T13:42:52Z</time>
      </trkpt>
      <trkpt lat="44.49908" lon="6.06245">
        <ele>793.79998779297</ele>
        <time>2013-05-12T13:42:58Z</time>
      </trkpt>
      <trkpt lat="44.4991" lon="6.06239">
        <ele>793.79998779297</ele>
        <time>2013-05-12T13:42:59Z</time>
      </trkpt>
      <trkpt lat="44.49912" lon="6.06226">
        <ele>793.79998779297</ele>
        <time>2013-05-12T13:43:01Z</time>
      </trkpt>
      <trkpt lat="44.49919" lon="6.06209">
        <ele>793.79998779297</ele>
        <time>2013-05-12T13:43:04Z</time>
      </trkpt>
      <trkpt lat="44.49925" lon="6.06201">
        <ele>793.79998779297</ele>
        <time>2013-05-12T13:43:06Z</time>
      </trkpt>
      <trkpt lat="44.49943" lon="6.06187">
        <ele>793.79998779297</ele>
        <time>2013-05-12T13:43:11Z</time>
      </trkpt>
      <trkpt lat="44.49952" lon="6.06183">
        <ele>793.79998779297</ele>
        <time>2013-05-12T13:43:13Z</time>
      </trkpt>
      <trkpt lat="44.49974" lon="6.06178">
        <ele>793.79998779297</ele>
        <time>2013-05-12T13:43:18Z</time>
      </trkpt>
      <trkpt lat="44.50016" lon="6.06171">
        <ele>793.79998779297</ele>
        <time>2013-05-12T13:43:27Z</time>
      </trkpt>
      <trkpt lat="44.50021" lon="6.06173">
        <ele>793.79998779297</ele>
        <time>2013-05-12T13:43:28Z</time>
      </trkpt>
      <trkpt lat="44.50037" lon="6.06176">
        <ele>793.79998779297</ele>
        <time>2013-05-12T13:43:32Z</time>
      </trkpt>
      <trkpt lat="44.50042" lon="6.06176">
        <ele>793.79998779297</ele>
        <time>2013-05-12T13:43:33Z</time>
      </trkpt>
      <trkpt lat="44.50051" lon="6.06174">
        <ele>793.79998779297</ele>
        <time>2013-05-12T13:43:35Z</time>
      </trkpt>
      <trkpt lat="44.50069" lon="6.06165">
        <ele>793.20001220703</ele>
        <time>2013-05-12T13:43:39Z</time>
      </trkpt>
      <trkpt lat="44.50074" lon="6.0616">
        <ele>792.79998779297</ele>
        <time>2013-05-12T13:43:40Z</time>
      </trkpt>
      <trkpt lat="44.50082" lon="6.0615">
        <ele>791.79998779297</ele>
        <time>2013-05-12T13:43:42Z</time>
      </trkpt>
      <trkpt lat="44.50086" lon="6.06145">
        <ele>791.79998779297</ele>
        <time>2013-05-12T13:43:43Z</time>
      </trkpt>
      <trkpt lat="44.50098" lon="6.06131">
        <ele>791.40002441406</ele>
        <time>2013-05-12T13:43:46Z</time>
      </trkpt>
      <trkpt lat="44.50111" lon="6.06116">
        <ele>790.79998779297</ele>
        <time>2013-05-12T13:43:49Z</time>
      </trkpt>
      <trkpt lat="44.50121" lon="6.06106">
        <ele>790.79998779297</ele>
        <time>2013-05-12T13:43:51Z</time>
      </trkpt>
      <trkpt lat="44.50129" lon="6.06097">
        <ele>790</ele>
        <time>2013-05-12T13:43:53Z</time>
      </trkpt>
      <trkpt lat="44.50139" lon="6.06088">
        <ele>790</ele>
        <time>2013-05-12T13:43:55Z</time>
      </trkpt>
      <trkpt lat="44.50144" lon="6.06085">
        <ele>788.79998779297</ele>
        <time>2013-05-12T13:43:56Z</time>
      </trkpt>
      <trkpt lat="44.50163" lon="6.06079">
        <ele>788.79998779297</ele>
        <time>2013-05-12T13:43:59Z</time>
      </trkpt>
      <trkpt lat="44.5017" lon="6.06077">
        <ele>788</ele>
        <time>2013-05-12T13:44:00Z</time>
      </trkpt>
      <trkpt lat="44.50186" lon="6.06069">
        <ele>787</ele>
        <time>2013-05-12T13:44:02Z</time>
      </trkpt>
      <trkpt lat="44.50195" lon="6.06063">
        <ele>785.79998779297</ele>
        <time>2013-05-12T13:44:03Z</time>
      </trkpt>
      <trkpt lat="44.50204" lon="6.06056">
        <ele>784.40002441406</ele>
        <time>2013-05-12T13:44:04Z</time>
      </trkpt>
      <trkpt lat="44.50224" lon="6.06046">
        <ele>784.40002441406</ele>
        <time>2013-05-12T13:44:06Z</time>
      </trkpt>
      <trkpt lat="44.50235" lon="6.06043">
        <ele>783</ele>
        <time>2013-05-12T13:44:07Z</time>
      </trkpt>
      <trkpt lat="44.50247" lon="6.06041">
        <ele>781.59997558594</ele>
        <time>2013-05-12T13:44:08Z</time>
      </trkpt>
      <trkpt lat="44.50267" lon="6.06038">
        <ele>780.20001220703</ele>
        <time>2013-05-12T13:44:10Z</time>
      </trkpt>
      <trkpt lat="44.50276" lon="6.06035">
        <ele>780.20001220703</ele>
        <time>2013-05-12T13:44:11Z</time>
      </trkpt>
      <trkpt lat="44.50284" lon="6.06029">
        <ele>780.20001220703</ele>
        <time>2013-05-12T13:44:12Z</time>
      </trkpt>
      <trkpt lat="44.50292" lon="6.06022">
        <ele>777.79998779297</ele>
        <time>2013-05-12T13:44:13Z</time>
      </trkpt>
      <trkpt lat="44.50309" lon="6.06012">
        <ele>777.79998779297</ele>
        <time>2013-05-12T13:44:15Z</time>
      </trkpt>
      <trkpt lat="44.50318" lon="6.0601">
        <ele>776.79998779297</ele>
        <time>2013-05-12T13:44:16Z</time>
      </trkpt>
      <trkpt lat="44.50327" lon="6.06008">
        <ele>776.79998779297</ele>
        <time>2013-05-12T13:44:17Z</time>
      </trkpt>
      <trkpt lat="44.50346" lon="6.06008">
        <ele>775.79998779297</ele>
        <time>2013-05-12T13:44:19Z</time>
      </trkpt>
      <trkpt lat="44.50355" lon="6.06007">
        <ele>774.79998779297</ele>
        <time>2013-05-12T13:44:20Z</time>
      </trkpt>
      <trkpt lat="44.50372" lon="6.06007">
        <ele>774</ele>
        <time>2013-05-12T13:44:22Z</time>
      </trkpt>
      <trkpt lat="44.50394" lon="6.06008">
        <ele>773.20001220703</ele>
        <time>2013-05-12T13:44:25Z</time>
      </trkpt>
      <trkpt lat="44.504" lon="6.0601">
        <ele>773.20001220703</ele>
        <time>2013-05-12T13:44:26Z</time>
      </trkpt>
      <trkpt lat="44.50413" lon="6.06018">
        <ele>772.59997558594</ele>
        <time>2013-05-12T13:44:28Z</time>
      </trkpt>
      <trkpt lat="44.50426" lon="6.06026">
        <ele>772</ele>
        <time>2013-05-12T13:44:30Z</time>
      </trkpt>
      <trkpt lat="44.50432" lon="6.06029">
        <ele>771.40002441406</ele>
        <time>2013-05-12T13:44:31Z</time>
      </trkpt>
      <trkpt lat="44.50453" lon="6.0603">
        <ele>771.40002441406</ele>
        <time>2013-05-12T13:44:34Z</time>
      </trkpt>
      <trkpt lat="44.50467" lon="6.06026">
        <ele>770.59997558594</ele>
        <time>2013-05-12T13:44:36Z</time>
      </trkpt>
      <trkpt lat="44.50474" lon="6.06024">
        <ele>770.59997558594</ele>
        <time>2013-05-12T13:44:37Z</time>
      </trkpt>
      <trkpt lat="44.50481" lon="6.06022">
        <ele>770</ele>
        <time>2013-05-12T13:44:38Z</time>
      </trkpt>
      <trkpt lat="44.50505" lon="6.06019">
        <ele>769.20001220703</ele>
        <time>2013-05-12T13:44:41Z</time>
      </trkpt>
      <trkpt lat="44.50518" lon="6.06019">
        <ele>768.59997558594</ele>
        <time>2013-05-12T13:44:43Z</time>
      </trkpt>
      <trkpt lat="44.50542" lon="6.0602">
        <ele>767.79998779297</ele>
        <time>2013-05-12T13:44:46Z</time>
      </trkpt>
      <trkpt lat="44.50558" lon="6.0602">
        <ele>767.20001220703</ele>
        <time>2013-05-12T13:44:48Z</time>
      </trkpt>
      <trkpt lat="44.50575" lon="6.06019">
        <ele>766.20001220703</ele>
        <time>2013-05-12T13:44:50Z</time>
      </trkpt>
      <trkpt lat="44.50626" lon="6.06018">
        <ele>764</ele>
        <time>2013-05-12T13:44:56Z</time>
      </trkpt>
      <trkpt lat="44.50642" lon="6.06019">
        <ele>762.79998779297</ele>
        <time>2013-05-12T13:44:58Z</time>
      </trkpt>
      <trkpt lat="44.50663" lon="6.06021">
        <ele>761.59997558594</ele>
        <time>2013-05-12T13:45:01Z</time>
      </trkpt>
      <trkpt lat="44.5067" lon="6.06022">
        <ele>760.40002441406</ele>
        <time>2013-05-12T13:45:02Z</time>
      </trkpt>
      <trkpt lat="44.50684" lon="6.06026">
        <ele>759.59997558594</ele>
        <time>2013-05-12T13:45:04Z</time>
      </trkpt>
      <trkpt lat="44.50707" lon="6.06028">
        <ele>758.20001220703</ele>
        <time>2013-05-12T13:45:07Z</time>
      </trkpt>
      <trkpt lat="44.50731" lon="6.06028">
        <ele>757.20001220703</ele>
        <time>2013-05-12T13:45:10Z</time>
      </trkpt>
      <trkpt lat="44.50756" lon="6.06027">
        <ele>755.20001220703</ele>
        <time>2013-05-12T13:45:13Z</time>
      </trkpt>
      <trkpt lat="44.5078" lon="6.06027">
        <ele>754</ele>
        <time>2013-05-12T13:45:16Z</time>
      </trkpt>
      <trkpt lat="44.50787" lon="6.0603">
        <ele>754</ele>
        <time>2013-05-12T13:45:17Z</time>
      </trkpt>
      <trkpt lat="44.508" lon="6.06037">
        <ele>752.79998779297</ele>
        <time>2013-05-12T13:45:19Z</time>
      </trkpt>
      <trkpt lat="44.50813" lon="6.06042">
        <ele>752.79998779297</ele>
        <time>2013-05-12T13:45:21Z</time>
      </trkpt>
      <trkpt lat="44.50827" lon="6.06042">
        <ele>751.59997558594</ele>
        <time>2013-05-12T13:45:23Z</time>
      </trkpt>
      <trkpt lat="44.50834" lon="6.06041">
        <ele>749.20001220703</ele>
        <time>2013-05-12T13:45:24Z</time>
      </trkpt>
      <trkpt lat="44.50841" lon="6.06038">
        <ele>749.20001220703</ele>
        <time>2013-05-12T13:45:25Z</time>
      </trkpt>
      <trkpt lat="44.50854" lon="6.06033">
        <ele>748</ele>
        <time>2013-05-12T13:45:27Z</time>
      </trkpt>
      <trkpt lat="44.50866" lon="6.0603">
        <ele>747</ele>
        <time>2013-05-12T13:45:29Z</time>
      </trkpt>
      <trkpt lat="44.50877" lon="6.06029">
        <ele>745.79998779297</ele>
        <time>2013-05-12T13:45:31Z</time>
      </trkpt>
      <trkpt lat="44.50895" lon="6.06025">
        <ele>744.20001220703</ele>
        <time>2013-05-12T13:45:34Z</time>
      </trkpt>
      <trkpt lat="44.50912" lon="6.06018">
        <ele>743.59997558594</ele>
        <time>2013-05-12T13:45:37Z</time>
      </trkpt>
      <trkpt lat="44.50924" lon="6.06012">
        <ele>743</ele>
        <time>2013-05-12T13:45:39Z</time>
      </trkpt>
      <trkpt lat="44.50934" lon="6.06005">
        <ele>743</ele>
        <time>2013-05-12T13:45:41Z</time>
      </trkpt>
      <trkpt lat="44.50951" lon="6.05996">
        <ele>742</ele>
        <time>2013-05-12T13:45:44Z</time>
      </trkpt>
      <trkpt lat="44.50963" lon="6.0599">
        <ele>740.79998779297</ele>
        <time>2013-05-12T13:45:46Z</time>
      </trkpt>
      <trkpt lat="44.50982" lon="6.05983">
        <ele>739.40002441406</ele>
        <time>2013-05-12T13:45:49Z</time>
      </trkpt>
      <trkpt lat="44.50995" lon="6.05978">
        <ele>739.40002441406</ele>
        <time>2013-05-12T13:45:51Z</time>
      </trkpt>
      <trkpt lat="44.51002" lon="6.05976">
        <ele>739.40002441406</ele>
        <time>2013-05-12T13:45:52Z</time>
      </trkpt>
      <trkpt lat="44.51016" lon="6.05973">
        <ele>739.40002441406</ele>
        <time>2013-05-12T13:45:54Z</time>
      </trkpt>
      <trkpt lat="44.51023" lon="6.0597">
        <ele>738.79998779297</ele>
        <time>2013-05-12T13:45:55Z</time>
      </trkpt>
      <trkpt lat="44.5103" lon="6.05968">
        <ele>737.79998779297</ele>
        <time>2013-05-12T13:45:56Z</time>
      </trkpt>
      <trkpt lat="44.51044" lon="6.05964">
        <ele>736.20001220703</ele>
        <time>2013-05-12T13:45:58Z</time>
      </trkpt>
      <trkpt lat="44.51052" lon="6.05963">
        <ele>735.20001220703</ele>
        <time>2013-05-12T13:45:59Z</time>
      </trkpt>
      <trkpt lat="44.51081" lon="6.05957">
        <ele>734.59997558594</ele>
        <time>2013-05-12T13:46:03Z</time>
      </trkpt>
      <trkpt lat="44.51094" lon="6.05956">
        <ele>734.59997558594</ele>
        <time>2013-05-12T13:46:05Z</time>
      </trkpt>
      <trkpt lat="44.51108" lon="6.0596">
        <ele>733</ele>
        <time>2013-05-12T13:46:08Z</time>
      </trkpt>
      <trkpt lat="44.51112" lon="6.05961">
        <ele>732.40002441406</ele>
        <time>2013-05-12T13:46:09Z</time>
      </trkpt>
      <trkpt lat="44.51123" lon="6.05967">
        <ele>731.20001220703</ele>
        <time>2013-05-12T13:46:12Z</time>
      </trkpt>
      <trkpt lat="44.51131" lon="6.05972">
        <ele>731.20001220703</ele>
        <time>2013-05-12T13:46:14Z</time>
      </trkpt>
      <trkpt lat="44.51145" lon="6.0598">
        <ele>730</ele>
        <time>2013-05-12T13:46:17Z</time>
      </trkpt>
      <trkpt lat="44.51159" lon="6.0598">
        <ele>729.40002441406</ele>
        <time>2013-05-12T13:46:20Z</time>
      </trkpt>
      <trkpt lat="44.51167" lon="6.05978">
        <ele>729.40002441406</ele>
        <time>2013-05-12T13:46:22Z</time>
      </trkpt>
      <trkpt lat="44.51177" lon="6.05974">
        <ele>729.40002441406</ele>
        <time>2013-05-12T13:46:25Z</time>
      </trkpt>
      <trkpt lat="44.51187" lon="6.0597">
        <ele>729.79998779297</ele>
        <time>2013-05-12T13:46:28Z</time>
      </trkpt>
      <trkpt lat="44.51194" lon="6.05968">
        <ele>730.20001220703</ele>
        <time>2013-05-12T13:46:30Z</time>
      </trkpt>
      <trkpt lat="44.512" lon="6.05966">
        <ele>730.59997558594</ele>
        <time>2013-05-12T13:46:32Z</time>
      </trkpt>
      <trkpt lat="44.5121" lon="6.05962">
        <ele>731</ele>
        <time>2013-05-12T13:46:35Z</time>
      </trkpt>
      <trkpt lat="44.51222" lon="6.05965">
        <ele>731.40002441406</ele>
        <time>2013-05-12T13:46:40Z</time>
      </trkpt>
      <trkpt lat="44.51237" lon="6.05965">
        <ele>732</ele>
        <time>2013-05-12T13:46:46Z</time>
      </trkpt>
      <trkpt lat="44.51244" lon="6.05965">
        <ele>732.40002441406</ele>
        <time>2013-05-12T13:46:49Z</time>
      </trkpt>
      <trkpt lat="44.51254" lon="6.05964">
        <ele>733.40002441406</ele>
        <time>2013-05-12T13:46:53Z</time>
      </trkpt>
      <trkpt lat="44.51261" lon="6.05963">
        <ele>733.79998779297</ele>
        <time>2013-05-12T13:46:56Z</time>
      </trkpt>
      <trkpt lat="44.51272" lon="6.0596">
        <ele>733.79998779297</ele>
        <time>2013-05-12T13:47:00Z</time>
      </trkpt>
      <trkpt lat="44.51287" lon="6.05957">
        <ele>734.40002441406</ele>
        <time>2013-05-12T13:47:05Z</time>
      </trkpt>
      <trkpt lat="44.51296" lon="6.05955">
        <ele>735</ele>
        <time>2013-05-12T13:47:08Z</time>
      </trkpt>
      <trkpt lat="44.51301" lon="6.05954">
        <ele>735.40002441406</ele>
        <time>2013-05-12T13:47:10Z</time>
      </trkpt>
      <trkpt lat="44.51312" lon="6.05953">
        <ele>736.40002441406</ele>
        <time>2013-05-12T13:47:14Z</time>
      </trkpt>
      <trkpt lat="44.51323" lon="6.05953">
        <ele>736.40002441406</ele>
        <time>2013-05-12T13:47:18Z</time>
      </trkpt>
      <trkpt lat="44.51332" lon="6.05955">
        <ele>736.79998779297</ele>
        <time>2013-05-12T13:47:21Z</time>
      </trkpt>
      <trkpt lat="44.51347" lon="6.05957">
        <ele>738.20001220703</ele>
        <time>2013-05-12T13:47:26Z</time>
      </trkpt>
      <trkpt lat="44.51354" lon="6.05958">
        <ele>738.59997558594</ele>
        <time>2013-05-12T13:47:28Z</time>
      </trkpt>
      <trkpt lat="44.5137" lon="6.05959">
        <ele>738.59997558594</ele>
        <time>2013-05-12T13:47:32Z</time>
      </trkpt>
      <trkpt lat="44.51389" lon="6.05954">
        <ele>738</ele>
        <time>2013-05-12T13:47:36Z</time>
      </trkpt>
      <trkpt lat="44.514" lon="6.05952">
        <ele>737.20001220703</ele>
        <time>2013-05-12T13:47:38Z</time>
      </trkpt>
      <trkpt lat="44.51412" lon="6.05949">
        <ele>736.79998779297</ele>
        <time>2013-05-12T13:47:40Z</time>
      </trkpt>
      <trkpt lat="44.51431" lon="6.05943">
        <ele>735.40002441406</ele>
        <time>2013-05-12T13:47:43Z</time>
      </trkpt>
      <trkpt lat="44.51444" lon="6.05938">
        <ele>734.79998779297</ele>
        <time>2013-05-12T13:47:45Z</time>
      </trkpt>
      <trkpt lat="44.51463" lon="6.05932">
        <ele>734</ele>
        <time>2013-05-12T13:47:48Z</time>
      </trkpt>
      <trkpt lat="44.51477" lon="6.0593">
        <ele>733.59997558594</ele>
        <time>2013-05-12T13:47:50Z</time>
      </trkpt>
      <trkpt lat="44.5149" lon="6.05929">
        <ele>733.59997558594</ele>
        <time>2013-05-12T13:47:52Z</time>
      </trkpt>
      <trkpt lat="44.51511" lon="6.05927">
        <ele>731.59997558594</ele>
        <time>2013-05-12T13:47:55Z</time>
      </trkpt>
      <trkpt lat="44.51525" lon="6.05926">
        <ele>731.20001220703</ele>
        <time>2013-05-12T13:47:57Z</time>
      </trkpt>
      <trkpt lat="44.5154" lon="6.05924">
        <ele>731.20001220703</ele>
        <time>2013-05-12T13:47:59Z</time>
      </trkpt>
      <trkpt lat="44.51547" lon="6.05923">
        <ele>730</ele>
        <time>2013-05-12T13:48:00Z</time>
      </trkpt>
      <trkpt lat="44.51554" lon="6.05921">
        <ele>730</ele>
        <time>2013-05-12T13:48:01Z</time>
      </trkpt>
      <trkpt lat="44.51562" lon="6.05919">
        <ele>729.20001220703</ele>
        <time>2013-05-12T13:48:02Z</time>
      </trkpt>
      <trkpt lat="44.51586" lon="6.05913">
        <ele>727.79998779297</ele>
        <time>2013-05-12T13:48:05Z</time>
      </trkpt>
      <trkpt lat="44.51604" lon="6.05909">
        <ele>726.20001220703</ele>
        <time>2013-05-12T13:48:07Z</time>
      </trkpt>
      <trkpt lat="44.51621" lon="6.05904">
        <ele>726.20001220703</ele>
        <time>2013-05-12T13:48:09Z</time>
      </trkpt>
      <trkpt lat="44.51651" lon="6.05893">
        <ele>724.59997558594</ele>
        <time>2013-05-12T13:48:12Z</time>
      </trkpt>
      <trkpt lat="44.51667" lon="6.05883">
        <ele>722.79998779297</ele>
        <time>2013-05-12T13:48:14Z</time>
      </trkpt>
      <trkpt lat="44.51674" lon="6.05877">
        <ele>722.79998779297</ele>
        <time>2013-05-12T13:48:15Z</time>
      </trkpt>
      <trkpt lat="44.51687" lon="6.05863">
        <ele>721.79998779297</ele>
        <time>2013-05-12T13:48:17Z</time>
      </trkpt>
      <trkpt lat="44.51701" lon="6.05851">
        <ele>720</ele>
        <time>2013-05-12T13:48:19Z</time>
      </trkpt>
      <trkpt lat="44.51722" lon="6.05843">
        <ele>720</ele>
        <time>2013-05-12T13:48:22Z</time>
      </trkpt>
      <trkpt lat="44.51745" lon="6.05841">
        <ele>719.20001220703</ele>
        <time>2013-05-12T13:48:25Z</time>
      </trkpt>
      <trkpt lat="44.51751" lon="6.0584">
        <ele>719.20001220703</ele>
        <time>2013-05-12T13:48:26Z</time>
      </trkpt>
      <trkpt lat="44.5176" lon="6.05836">
        <ele>718.59997558594</ele>
        <time>2013-05-12T13:48:28Z</time>
      </trkpt>
      <trkpt lat="44.51772" lon="6.05828">
        <ele>717.40002441406</ele>
        <time>2013-05-12T13:48:33Z</time>
      </trkpt>
      <trkpt lat="44.51782" lon="6.05828">
        <ele>715.20001220703</ele>
        <time>2013-05-12T13:48:37Z</time>
      </trkpt>
      <trkpt lat="44.51791" lon="6.05831">
        <ele>715.20001220703</ele>
        <time>2013-05-12T13:48:39Z</time>
      </trkpt>
      <trkpt lat="44.51805" lon="6.05836">
        <ele>715.20001220703</ele>
        <time>2013-05-12T13:48:42Z</time>
      </trkpt>
      <trkpt lat="44.51814" lon="6.05839">
        <ele>714.40002441406</ele>
        <time>2013-05-12T13:48:44Z</time>
      </trkpt>
      <trkpt lat="44.51824" lon="6.05842">
        <ele>713.79998779297</ele>
        <time>2013-05-12T13:48:46Z</time>
      </trkpt>
      <trkpt lat="44.5184" lon="6.05845">
        <ele>713</ele>
        <time>2013-05-12T13:48:49Z</time>
      </trkpt>
      <trkpt lat="44.51851" lon="6.05846">
        <ele>713</ele>
        <time>2013-05-12T13:48:51Z</time>
      </trkpt>
      <trkpt lat="44.51864" lon="6.0585">
        <ele>713</ele>
        <time>2013-05-12T13:48:55Z</time>
      </trkpt>
      <trkpt lat="44.51872" lon="6.05848">
        <ele>711.79998779297</ele>
        <time>2013-05-12T13:49:08Z</time>
      </trkpt>
      <trkpt lat="44.51888" lon="6.05846">
        <ele>710.79998779297</ele>
        <time>2013-05-12T13:49:12Z</time>
      </trkpt>
      <trkpt lat="44.51892" lon="6.05846">
        <ele>710.79998779297</ele>
        <time>2013-05-12T13:49:13Z</time>
      </trkpt>
      <trkpt lat="44.51905" lon="6.05842">
        <ele>710.79998779297</ele>
        <time>2013-05-12T13:49:16Z</time>
      </trkpt>
      <trkpt lat="44.51922" lon="6.05838">
        <ele>710.79998779297</ele>
        <time>2013-05-12T13:49:21Z</time>
      </trkpt>
      <trkpt lat="44.51933" lon="6.05836">
        <ele>710.79998779297</ele>
        <time>2013-05-12T13:49:24Z</time>
      </trkpt>
      <trkpt lat="44.5195" lon="6.0583">
        <ele>710.79998779297</ele>
        <time>2013-05-12T13:49:29Z</time>
      </trkpt>
      <trkpt lat="44.51957" lon="6.05829">
        <ele>710.79998779297</ele>
        <time>2013-05-12T13:49:31Z</time>
      </trkpt>
      <trkpt lat="44.51977" lon="6.05825">
        <ele>710.79998779297</ele>
        <time>2013-05-12T13:49:39Z</time>
      </trkpt>
      <trkpt lat="44.51989" lon="6.05823">
        <ele>710.79998779297</ele>
        <time>2013-05-12T13:49:46Z</time>
      </trkpt>
      <trkpt lat="44.51998" lon="6.0582">
        <ele>710</ele>
        <time>2013-05-12T13:49:51Z</time>
      </trkpt>
      <trkpt lat="44.52002" lon="6.05819">
        <ele>709.59997558594</ele>
        <time>2013-05-12T13:49:53Z</time>
      </trkpt>
      <trkpt lat="44.52015" lon="6.05815">
        <ele>708.79998779297</ele>
        <time>2013-05-12T13:49:58Z</time>
      </trkpt>
      <trkpt lat="44.52024" lon="6.05813">
        <ele>708.79998779297</ele>
        <time>2013-05-12T13:50:01Z</time>
      </trkpt>
      <trkpt lat="44.5204" lon="6.05808">
        <ele>708.79998779297</ele>
        <time>2013-05-12T13:50:07Z</time>
      </trkpt>
      <trkpt lat="44.52058" lon="6.05796">
        <ele>708.40002441406</ele>
        <time>2013-05-12T13:50:14Z</time>
      </trkpt>
      <trkpt lat="44.5206" lon="6.05785">
        <ele>707.40002441406</ele>
        <time>2013-05-12T13:50:17Z</time>
      </trkpt>
      <trkpt lat="44.52057" lon="6.05781">
        <ele>707</ele>
        <time>2013-05-12T13:50:19Z</time>
      </trkpt>
      <trkpt lat="44.52053" lon="6.05775">
        <ele>706.59997558594</ele>
        <time>2013-05-12T13:50:22Z</time>
      </trkpt>
      <trkpt lat="44.5205" lon="6.05771">
        <ele>706.59997558594</ele>
        <time>2013-05-12T13:50:25Z</time>
      </trkpt>
      <trkpt lat="44.52047" lon="6.05768">
        <ele>706.59997558594</ele>
        <time>2013-05-12T13:50:27Z</time>
      </trkpt>
      <trkpt lat="44.52038" lon="6.05759">
        <ele>707</ele>
        <time>2013-05-12T13:50:32Z</time>
      </trkpt>
      <trkpt lat="44.52032" lon="6.05747">
        <ele>708.20001220703</ele>
        <time>2013-05-12T13:50:36Z</time>
      </trkpt>
      <trkpt lat="44.5203" lon="6.05728">
        <ele>708.79998779297</ele>
        <time>2013-05-12T13:50:41Z</time>
      </trkpt>
      <trkpt lat="44.52032" lon="6.05695">
        <ele>708.79998779297</ele>
        <time>2013-05-12T13:50:50Z</time>
      </trkpt>
      <trkpt lat="44.52035" lon="6.05663">
        <ele>708.79998779297</ele>
        <time>2013-05-12T13:50:59Z</time>
      </trkpt>
      <trkpt lat="44.52037" lon="6.05633">
        <ele>708.79998779297</ele>
        <time>2013-05-12T13:51:08Z</time>
      </trkpt>
      <trkpt lat="44.52038" lon="6.05614">
        <ele>709.20001220703</ele>
        <time>2013-05-12T13:51:14Z</time>
      </trkpt>
      <trkpt lat="44.52038" lon="6.05608">
        <ele>710</ele>
        <time>2013-05-12T13:51:16Z</time>
      </trkpt>
      <trkpt lat="44.52039" lon="6.05597">
        <ele>710.79998779297</ele>
        <time>2013-05-12T13:51:20Z</time>
      </trkpt>
      <trkpt lat="44.52039" lon="6.05586">
        <ele>710.79998779297</ele>
        <time>2013-05-12T13:51:25Z</time>
      </trkpt>
      <trkpt lat="44.52037" lon="6.05567">
        <ele>710.79998779297</ele>
        <time>2013-05-12T13:51:33Z</time>
      </trkpt>
      <trkpt lat="44.52031" lon="6.05543">
        <ele>710.79998779297</ele>
        <time>2013-05-12T13:51:42Z</time>
      </trkpt>
      <trkpt lat="44.52029" lon="6.05537">
        <ele>711.40002441406</ele>
        <time>2013-05-12T13:51:44Z</time>
      </trkpt>
      <trkpt lat="44.52028" lon="6.05528">
        <ele>712.20001220703</ele>
        <time>2013-05-12T13:51:47Z</time>
      </trkpt>
      <trkpt lat="44.52024" lon="6.05516">
        <ele>713.20001220703</ele>
        <time>2013-05-12T13:51:51Z</time>
      </trkpt>
      <trkpt lat="44.52017" lon="6.05495">
        <ele>713.20001220703</ele>
        <time>2013-05-12T13:51:58Z</time>
      </trkpt>
      <trkpt lat="44.52013" lon="6.05487">
        <ele>713.20001220703</ele>
        <time>2013-05-12T13:52:01Z</time>
      </trkpt>
      <trkpt lat="44.52008" lon="6.05477">
        <ele>714.20001220703</ele>
        <time>2013-05-12T13:52:05Z</time>
      </trkpt>
      <trkpt lat="44.52003" lon="6.0547">
        <ele>715</ele>
        <time>2013-05-12T13:52:08Z</time>
      </trkpt>
      <trkpt lat="44.51999" lon="6.05466">
        <ele>715.59997558594</ele>
        <time>2013-05-12T13:52:10Z</time>
      </trkpt>
      <trkpt lat="44.51991" lon="6.05458">
        <ele>717.20001220703</ele>
        <time>2013-05-12T13:52:15Z</time>
      </trkpt>
      <trkpt lat="44.51986" lon="6.05456">
        <ele>717.79998779297</ele>
        <time>2013-05-12T13:52:17Z</time>
      </trkpt>
      <trkpt lat="44.5198" lon="6.05452">
        <ele>717.79998779297</ele>
        <time>2013-05-12T13:52:20Z</time>
      </trkpt>
      <trkpt lat="44.51966" lon="6.05446">
        <ele>717.79998779297</ele>
        <time>2013-05-12T13:52:26Z</time>
      </trkpt>
      <trkpt lat="44.51956" lon="6.05444">
        <ele>717.79998779297</ele>
        <time>2013-05-12T13:52:30Z</time>
      </trkpt>
      <trkpt lat="44.51942" lon="6.05446">
        <ele>717.79998779297</ele>
        <time>2013-05-12T13:52:35Z</time>
      </trkpt>
      <trkpt lat="44.51926" lon="6.05449">
        <ele>717.79998779297</ele>
        <time>2013-05-12T13:52:40Z</time>
      </trkpt>
      <trkpt lat="44.51914" lon="6.05447">
        <ele>717.79998779297</ele>
        <time>2013-05-12T13:52:44Z</time>
      </trkpt>
      <trkpt lat="44.51908" lon="6.05444">
        <ele>717.79998779297</ele>
        <time>2013-05-12T13:52:46Z</time>
      </trkpt>
      <trkpt lat="44.51889" lon="6.05421">
        <ele>717.79998779297</ele>
        <time>2013-05-12T13:52:54Z</time>
      </trkpt>
      <trkpt lat="44.51866" lon="6.05387">
        <ele>718.59997558594</ele>
        <time>2013-05-12T13:53:05Z</time>
      </trkpt>
      <trkpt lat="44.5186" lon="6.05379">
        <ele>719</ele>
        <time>2013-05-12T13:53:08Z</time>
      </trkpt>
      <trkpt lat="44.51857" lon="6.05373">
        <ele>719.59997558594</ele>
        <time>2013-05-12T13:53:10Z</time>
      </trkpt>
      <trkpt lat="44.51851" lon="6.05365">
        <ele>720</ele>
        <time>2013-05-12T13:53:13Z</time>
      </trkpt>
      <trkpt lat="44.51842" lon="6.05351">
        <ele>720</ele>
        <time>2013-05-12T13:53:18Z</time>
      </trkpt>
      <trkpt lat="44.51835" lon="6.0534">
        <ele>720.40002441406</ele>
        <time>2013-05-12T13:53:22Z</time>
      </trkpt>
      <trkpt lat="44.51832" lon="6.05335">
        <ele>721.20001220703</ele>
        <time>2013-05-12T13:53:24Z</time>
      </trkpt>
      <trkpt lat="44.51829" lon="6.0533">
        <ele>721.79998779297</ele>
        <time>2013-05-12T13:53:26Z</time>
      </trkpt>
      <trkpt lat="44.51823" lon="6.05323">
        <ele>722.20001220703</ele>
        <time>2013-05-12T13:53:29Z</time>
      </trkpt>
      <trkpt lat="44.5182" lon="6.05319">
        <ele>722.59997558594</ele>
        <time>2013-05-12T13:53:31Z</time>
      </trkpt>
      <trkpt lat="44.51806" lon="6.05305">
        <ele>724.59997558594</ele>
        <time>2013-05-12T13:53:40Z</time>
      </trkpt>
      <trkpt lat="44.51799" lon="6.05298">
        <ele>725</ele>
        <time>2013-05-12T13:53:45Z</time>
      </trkpt>
      <trkpt lat="44.51788" lon="6.05287">
        <ele>727</ele>
        <time>2013-05-12T13:53:55Z</time>
      </trkpt>
      <trkpt lat="44.5178" lon="6.0528">
        <ele>729.20001220703</ele>
        <time>2013-05-12T13:54:02Z</time>
      </trkpt>
      <trkpt lat="44.5177" lon="6.05275">
        <ele>730.79998779297</ele>
        <time>2013-05-12T13:54:09Z</time>
      </trkpt>
      <trkpt lat="44.51761" lon="6.0527">
        <ele>731.59997558594</ele>
        <time>2013-05-12T13:54:17Z</time>
      </trkpt>
      <trkpt lat="44.51758" lon="6.05269">
        <ele>732.40002441406</ele>
        <time>2013-05-12T13:54:19Z</time>
      </trkpt>
      <trkpt lat="44.51748" lon="6.05265">
        <ele>734.59997558594</ele>
        <time>2013-05-12T13:54:28Z</time>
      </trkpt>
      <trkpt lat="44.5174" lon="6.05264">
        <ele>735.79998779297</ele>
        <time>2013-05-12T13:54:35Z</time>
      </trkpt>
      <trkpt lat="44.51728" lon="6.05263">
        <ele>737.79998779297</ele>
        <time>2013-05-12T13:54:45Z</time>
      </trkpt>
      <trkpt lat="44.51719" lon="6.0526">
        <ele>739.59997558594</ele>
        <time>2013-05-12T13:54:53Z</time>
      </trkpt>
      <trkpt lat="44.51716" lon="6.0526">
        <ele>740</ele>
        <time>2013-05-12T13:54:55Z</time>
      </trkpt>
      <trkpt lat="44.51709" lon="6.05257">
        <ele>740.79998779297</ele>
        <time>2013-05-12T13:55:02Z</time>
      </trkpt>
      <trkpt lat="44.51699" lon="6.0525">
        <ele>742.20001220703</ele>
        <time>2013-05-12T13:55:11Z</time>
      </trkpt>
      <trkpt lat="44.51682" lon="6.05235">
        <ele>744.79998779297</ele>
        <time>2013-05-12T13:55:24Z</time>
      </trkpt>
      <trkpt lat="44.5168" lon="6.05232">
        <ele>745.20001220703</ele>
        <time>2013-05-12T13:55:26Z</time>
      </trkpt>
      <trkpt lat="44.5168" lon="6.05226">
        <ele>745.59997558594</ele>
        <time>2013-05-12T13:55:29Z</time>
      </trkpt>
      <trkpt lat="44.51682" lon="6.05222">
        <ele>746</ele>
        <time>2013-05-12T13:55:31Z</time>
      </trkpt>
      <trkpt lat="44.51686" lon="6.0522">
        <ele>746.40002441406</ele>
        <time>2013-05-12T13:55:34Z</time>
      </trkpt>
      <trkpt lat="44.5169" lon="6.05221">
        <ele>746.40002441406</ele>
        <time>2013-05-12T13:55:36Z</time>
      </trkpt>
      <trkpt lat="44.51695" lon="6.05225">
        <ele>746.40002441406</ele>
        <time>2013-05-12T13:55:39Z</time>
      </trkpt>
      <trkpt lat="44.51707" lon="6.05233">
        <ele>746.40002441406</ele>
        <time>2013-05-12T13:55:45Z</time>
      </trkpt>
      <trkpt lat="44.51716" lon="6.05235">
        <ele>746.40002441406</ele>
        <time>2013-05-12T13:55:49Z</time>
      </trkpt>
      <trkpt lat="44.51722" lon="6.05233">
        <ele>747</ele>
        <time>2013-05-12T13:55:51Z</time>
      </trkpt>
      <trkpt lat="44.51725" lon="6.05226">
        <ele>747.79998779297</ele>
        <time>2013-05-12T13:55:54Z</time>
      </trkpt>
      <trkpt lat="44.51723" lon="6.05215">
        <ele>748.79998779297</ele>
        <time>2013-05-12T13:55:58Z</time>
      </trkpt>
      <trkpt lat="44.5172" lon="6.0521">
        <ele>749.20001220703</ele>
        <time>2013-05-12T13:56:01Z</time>
      </trkpt>
      <trkpt lat="44.51704" lon="6.05198">
        <ele>750.79998779297</ele>
        <time>2013-05-12T13:56:10Z</time>
      </trkpt>
      <trkpt lat="44.517" lon="6.05195">
        <ele>751.20001220703</ele>
        <time>2013-05-12T13:56:13Z</time>
      </trkpt>
      <trkpt lat="44.51697" lon="6.05189">
        <ele>752.20001220703</ele>
        <time>2013-05-12T13:56:16Z</time>
      </trkpt>
      <trkpt lat="44.51697" lon="6.05176">
        <ele>753</ele>
        <time>2013-05-12T13:56:21Z</time>
      </trkpt>
      <trkpt lat="44.51699" lon="6.0516">
        <ele>753</ele>
        <time>2013-05-12T13:56:26Z</time>
      </trkpt>
      <trkpt lat="44.51701" lon="6.05158">
        <ele>753</ele>
        <time>2013-05-12T13:56:27Z</time>
      </trkpt>
      <trkpt lat="44.51708" lon="6.05139">
        <ele>753</ele>
        <time>2013-05-12T13:56:34Z</time>
      </trkpt>
      <trkpt lat="44.51712" lon="6.0513">
        <ele>754</ele>
        <time>2013-05-12T13:56:37Z</time>
      </trkpt>
      <trkpt lat="44.51715" lon="6.05125">
        <ele>754.40002441406</ele>
        <time>2013-05-12T13:56:39Z</time>
      </trkpt>
      <trkpt lat="44.51718" lon="6.05116">
        <ele>754.79998779297</ele>
        <time>2013-05-12T13:56:41Z</time>
      </trkpt>
      <trkpt lat="44.51721" lon="6.05112">
        <ele>754.79998779297</ele>
        <time>2013-05-12T13:56:42Z</time>
      </trkpt>
      <trkpt lat="44.5173" lon="6.05109">
        <ele>754.40002441406</ele>
        <time>2013-05-12T13:56:44Z</time>
      </trkpt>
      <trkpt lat="44.51746" lon="6.05115">
        <ele>753.40002441406</ele>
        <time>2013-05-12T13:56:47Z</time>
      </trkpt>
      <trkpt lat="44.51756" lon="6.05121">
        <ele>753</ele>
        <time>2013-05-12T13:56:49Z</time>
      </trkpt>
      <trkpt lat="44.5177" lon="6.05129">
        <ele>752.59997558594</ele>
        <time>2013-05-12T13:56:52Z</time>
      </trkpt>
      <trkpt lat="44.51777" lon="6.05132">
        <ele>751.59997558594</ele>
        <time>2013-05-12T13:56:54Z</time>
      </trkpt>
      <trkpt lat="44.51785" lon="6.05133">
        <ele>751.20001220703</ele>
        <time>2013-05-12T13:56:56Z</time>
      </trkpt>
      <trkpt lat="44.51796" lon="6.05132">
        <ele>750.79998779297</ele>
        <time>2013-05-12T13:56:59Z</time>
      </trkpt>
      <trkpt lat="44.51806" lon="6.05127">
        <ele>751.59997558594</ele>
        <time>2013-05-12T13:57:04Z</time>
      </trkpt>
      <trkpt lat="44.51814" lon="6.05123">
        <ele>753.40002441406</ele>
        <time>2013-05-12T13:57:09Z</time>
      </trkpt>
      <trkpt lat="44.51819" lon="6.05119">
        <ele>754.59997558594</ele>
        <time>2013-05-12T13:57:13Z</time>
      </trkpt>
      <trkpt lat="44.51821" lon="6.05119">
        <ele>755</ele>
        <time>2013-05-12T13:57:14Z</time>
      </trkpt>
      <trkpt lat="44.51831" lon="6.05114">
        <ele>757.40002441406</ele>
        <time>2013-05-12T13:57:21Z</time>
      </trkpt>
      <trkpt lat="44.51842" lon="6.05113">
        <ele>757.40002441406</ele>
        <time>2013-05-12T13:57:27Z</time>
      </trkpt>
      <trkpt lat="44.51851" lon="6.05114">
        <ele>758.79998779297</ele>
        <time>2013-05-12T13:57:32Z</time>
      </trkpt>
      <trkpt lat="44.51862" lon="6.05118">
        <ele>760.59997558594</ele>
        <time>2013-05-12T13:57:37Z</time>
      </trkpt>
      <trkpt lat="44.51867" lon="6.0512">
        <ele>761.59997558594</ele>
        <time>2013-05-12T13:57:39Z</time>
      </trkpt>
      <trkpt lat="44.51876" lon="6.05121">
        <ele>761.59997558594</ele>
        <time>2013-05-12T13:57:42Z</time>
      </trkpt>
      <trkpt lat="44.51893" lon="6.05122">
        <ele>761.59997558594</ele>
        <time>2013-05-12T13:57:49Z</time>
      </trkpt>
      <trkpt lat="44.51914" lon="6.05119">
        <ele>761.59997558594</ele>
        <time>2013-05-12T13:57:56Z</time>
      </trkpt>
      <trkpt lat="44.51929" lon="6.05115">
        <ele>761.59997558594</ele>
        <time>2013-05-12T13:58:00Z</time>
      </trkpt>
      <trkpt lat="44.51945" lon="6.05112">
        <ele>761.59997558594</ele>
        <time>2013-05-12T13:58:03Z</time>
      </trkpt>
      <trkpt lat="44.51952" lon="6.05111">
        <ele>761.59997558594</ele>
        <time>2013-05-12T13:58:04Z</time>
      </trkpt>
      <trkpt lat="44.5196" lon="6.05107">
        <ele>761.59997558594</ele>
        <time>2013-05-12T13:58:05Z</time>
      </trkpt>
      <trkpt lat="44.51967" lon="6.05105">
        <ele>761.20001220703</ele>
        <time>2013-05-12T13:58:06Z</time>
      </trkpt>
      <trkpt lat="44.51981" lon="6.05098">
        <ele>761.20001220703</ele>
        <time>2013-05-12T13:58:08Z</time>
      </trkpt>
      <trkpt lat="44.51999" lon="6.05079">
        <ele>760.79998779297</ele>
        <time>2013-05-12T13:58:11Z</time>
      </trkpt>
      <trkpt lat="44.52011" lon="6.05066">
        <ele>760.79998779297</ele>
        <time>2013-05-12T13:58:13Z</time>
      </trkpt>
      <trkpt lat="44.52026" lon="6.05056">
        <ele>760</ele>
        <time>2013-05-12T13:58:15Z</time>
      </trkpt>
      <trkpt lat="44.52034" lon="6.05054">
        <ele>759.40002441406</ele>
        <time>2013-05-12T13:58:16Z</time>
      </trkpt>
      <trkpt lat="44.5204" lon="6.05051">
        <ele>759.40002441406</ele>
        <time>2013-05-12T13:58:17Z</time>
      </trkpt>
      <trkpt lat="44.52046" lon="6.05048">
        <ele>759.40002441406</ele>
        <time>2013-05-12T13:58:18Z</time>
      </trkpt>
      <trkpt lat="44.52054" lon="6.05045">
        <ele>757.79998779297</ele>
        <time>2013-05-12T13:58:20Z</time>
      </trkpt>
      <trkpt lat="44.52061" lon="6.0504">
        <ele>757.20001220703</ele>
        <time>2013-05-12T13:58:22Z</time>
      </trkpt>
      <trkpt lat="44.52064" lon="6.05038">
        <ele>757.59997558594</ele>
        <time>2013-05-12T13:58:23Z</time>
      </trkpt>
      <trkpt lat="44.52073" lon="6.05029">
        <ele>758.59997558594</ele>
        <time>2013-05-12T13:58:26Z</time>
      </trkpt>
      <trkpt lat="44.52081" lon="6.05013">
        <ele>760.59997558594</ele>
        <time>2013-05-12T13:58:30Z</time>
      </trkpt>
      <trkpt lat="44.52083" lon="6.05005">
        <ele>761.20001220703</ele>
        <time>2013-05-12T13:58:32Z</time>
      </trkpt>
      <trkpt lat="44.52084" lon="6.05">
        <ele>761.79998779297</ele>
        <time>2013-05-12T13:58:33Z</time>
      </trkpt>
      <trkpt lat="44.52079" lon="6.04974">
        <ele>762.20001220703</ele>
        <time>2013-05-12T13:58:40Z</time>
      </trkpt>
      <trkpt lat="44.52075" lon="6.0497">
        <ele>763</ele>
        <time>2013-05-12T13:58:42Z</time>
      </trkpt>
      <trkpt lat="44.52066" lon="6.04962">
        <ele>763.79998779297</ele>
        <time>2013-05-12T13:58:46Z</time>
      </trkpt>
      <trkpt lat="44.52057" lon="6.04959">
        <ele>764.40002441406</ele>
        <time>2013-05-12T13:58:49Z</time>
      </trkpt>
      <trkpt lat="44.52047" lon="6.04957">
        <ele>765.20001220703</ele>
        <time>2013-05-12T13:58:52Z</time>
      </trkpt>
      <trkpt lat="44.5204" lon="6.04955">
        <ele>766.20001220703</ele>
        <time>2013-05-12T13:58:54Z</time>
      </trkpt>
      <trkpt lat="44.52018" lon="6.04942">
        <ele>766.20001220703</ele>
        <time>2013-05-12T13:59:01Z</time>
      </trkpt>
      <trkpt lat="44.52003" lon="6.0492">
        <ele>766.20001220703</ele>
        <time>2013-05-12T13:59:08Z</time>
      </trkpt>
      <trkpt lat="44.51992" lon="6.04891">
        <ele>766.20001220703</ele>
        <time>2013-05-12T13:59:14Z</time>
      </trkpt>
      <trkpt lat="44.51992" lon="6.04858">
        <ele>766.20001220703</ele>
        <time>2013-05-12T13:59:19Z</time>
      </trkpt>
      <trkpt lat="44.51994" lon="6.04848">
        <ele>766.59997558594</ele>
        <time>2013-05-12T13:59:21Z</time>
      </trkpt>
      <trkpt lat="44.51994" lon="6.04834">
        <ele>767.40002441406</ele>
        <time>2013-05-12T13:59:25Z</time>
      </trkpt>
      <trkpt lat="44.51992" lon="6.04828">
        <ele>767.79998779297</ele>
        <time>2013-05-12T13:59:26Z</time>
      </trkpt>
      <trkpt lat="44.5199" lon="6.04821">
        <ele>767.79998779297</ele>
        <time>2013-05-12T13:59:27Z</time>
      </trkpt>
      <trkpt lat="44.51988" lon="6.04815">
        <ele>768.20001220703</ele>
        <time>2013-05-12T13:59:28Z</time>
      </trkpt>
      <trkpt lat="44.51986" lon="6.0481">
        <ele>768.20001220703</ele>
        <time>2013-05-12T13:59:29Z</time>
      </trkpt>
      <trkpt lat="44.51984" lon="6.04796">
        <ele>768.20001220703</ele>
        <time>2013-05-12T13:59:31Z</time>
      </trkpt>
      <trkpt lat="44.51982" lon="6.0475">
        <ele>768.20001220703</ele>
        <time>2013-05-12T13:59:39Z</time>
      </trkpt>
      <trkpt lat="44.51978" lon="6.04721">
        <ele>768.59997558594</ele>
        <time>2013-05-12T13:59:45Z</time>
      </trkpt>
      <trkpt lat="44.51978" lon="6.0471">
        <ele>769</ele>
        <time>2013-05-12T13:59:47Z</time>
      </trkpt>
      <trkpt lat="44.51978" lon="6.04705">
        <ele>769</ele>
        <time>2013-05-12T13:59:48Z</time>
      </trkpt>
      <trkpt lat="44.51978" lon="6.047">
        <ele>769.40002441406</ele>
        <time>2013-05-12T13:59:49Z</time>
      </trkpt>
      <trkpt lat="44.51976" lon="6.04684">
        <ele>770.40002441406</ele>
        <time>2013-05-12T13:59:52Z</time>
      </trkpt>
      <trkpt lat="44.51972" lon="6.04668">
        <ele>770.40002441406</ele>
        <time>2013-05-12T13:59:55Z</time>
      </trkpt>
      <trkpt lat="44.51968" lon="6.04649">
        <ele>770.40002441406</ele>
        <time>2013-05-12T13:59:58Z</time>
      </trkpt>
      <trkpt lat="44.51963" lon="6.04623">
        <ele>770.40002441406</ele>
        <time>2013-05-12T14:00:02Z</time>
      </trkpt>
      <trkpt lat="44.51953" lon="6.04577">
        <ele>770.40002441406</ele>
        <time>2013-05-12T14:00:08Z</time>
      </trkpt>
      <trkpt lat="44.51942" lon="6.04541">
        <ele>769.59997558594</ele>
        <time>2013-05-12T14:00:12Z</time>
      </trkpt>
      <trkpt lat="44.51936" lon="6.04524">
        <ele>769</ele>
        <time>2013-05-12T14:00:14Z</time>
      </trkpt>
      <trkpt lat="44.51933" lon="6.04516">
        <ele>768.59997558594</ele>
        <time>2013-05-12T14:00:15Z</time>
      </trkpt>
      <trkpt lat="44.5193" lon="6.04509">
        <ele>768.20001220703</ele>
        <time>2013-05-12T14:00:16Z</time>
      </trkpt>
      <trkpt lat="44.51921" lon="6.04481">
        <ele>768.20001220703</ele>
        <time>2013-05-12T14:00:20Z</time>
      </trkpt>
      <trkpt lat="44.51901" lon="6.0442">
        <ele>768.20001220703</ele>
        <time>2013-05-12T14:00:31Z</time>
      </trkpt>
      <trkpt lat="44.51899" lon="6.04415">
        <ele>768.59997558594</ele>
        <time>2013-05-12T14:00:32Z</time>
      </trkpt>
      <trkpt lat="44.51895" lon="6.04404">
        <ele>769.59997558594</ele>
        <time>2013-05-12T14:00:34Z</time>
      </trkpt>
      <trkpt lat="44.51892" lon="6.04395">
        <ele>770</ele>
        <time>2013-05-12T14:00:36Z</time>
      </trkpt>
      <trkpt lat="44.51888" lon="6.04382">
        <ele>770.40002441406</ele>
        <time>2013-05-12T14:00:39Z</time>
      </trkpt>
      <trkpt lat="44.51883" lon="6.0437">
        <ele>770.40002441406</ele>
        <time>2013-05-12T14:00:42Z</time>
      </trkpt>
      <trkpt lat="44.51876" lon="6.04351">
        <ele>770.40002441406</ele>
        <time>2013-05-12T14:00:47Z</time>
      </trkpt>
      <trkpt lat="44.51873" lon="6.04341">
        <ele>770.79998779297</ele>
        <time>2013-05-12T14:00:50Z</time>
      </trkpt>
      <trkpt lat="44.51873" lon="6.04338">
        <ele>771.20001220703</ele>
        <time>2013-05-12T14:00:51Z</time>
      </trkpt>
      <trkpt lat="44.51882" lon="6.04331">
        <ele>772.40002441406</ele>
        <time>2013-05-12T14:00:56Z</time>
      </trkpt>
      <trkpt lat="44.519" lon="6.04335">
        <ele>773.20001220703</ele>
        <time>2013-05-12T14:01:03Z</time>
      </trkpt>
      <trkpt lat="44.51915" lon="6.04339">
        <ele>774.59997558594</ele>
        <time>2013-05-12T14:01:11Z</time>
      </trkpt>
      <trkpt lat="44.51925" lon="6.04342">
        <ele>775.40002441406</ele>
        <time>2013-05-12T14:01:17Z</time>
      </trkpt>
      <trkpt lat="44.51933" lon="6.04344">
        <ele>776.79998779297</ele>
        <time>2013-05-12T14:01:22Z</time>
      </trkpt>
      <trkpt lat="44.51943" lon="6.04346">
        <ele>777.20001220703</ele>
        <time>2013-05-12T14:01:29Z</time>
      </trkpt>
      <trkpt lat="44.51951" lon="6.04348">
        <ele>778.79998779297</ele>
        <time>2013-05-12T14:01:33Z</time>
      </trkpt>
      <trkpt lat="44.51962" lon="6.04352">
        <ele>780.59997558594</ele>
        <time>2013-05-12T14:01:40Z</time>
      </trkpt>
      <trkpt lat="44.51973" lon="6.04358">
        <ele>781.40002441406</ele>
        <time>2013-05-12T14:01:47Z</time>
      </trkpt>
      <trkpt lat="44.51975" lon="6.04361">
        <ele>782.40002441406</ele>
        <time>2013-05-12T14:01:49Z</time>
      </trkpt>
      <trkpt lat="44.51986" lon="6.04369">
        <ele>783.40002441406</ele>
        <time>2013-05-12T14:01:58Z</time>
      </trkpt>
      <trkpt lat="44.51989" lon="6.04372">
        <ele>784.40002441406</ele>
        <time>2013-05-12T14:02:01Z</time>
      </trkpt>
      <trkpt lat="44.51991" lon="6.04374">
        <ele>785.20001220703</ele>
        <time>2013-05-12T14:02:03Z</time>
      </trkpt>
      <trkpt lat="44.51999" lon="6.04381">
        <ele>785.79998779297</ele>
        <time>2013-05-12T14:02:08Z</time>
      </trkpt>
      <trkpt lat="44.52004" lon="6.04385">
        <ele>786.59997558594</ele>
        <time>2013-05-12T14:02:13Z</time>
      </trkpt>
      <trkpt lat="44.52011" lon="6.04388">
        <ele>787.79998779297</ele>
        <time>2013-05-12T14:02:18Z</time>
      </trkpt>
      <trkpt lat="44.52022" lon="6.04396">
        <ele>787.79998779297</ele>
        <time>2013-05-12T14:02:26Z</time>
      </trkpt>
      <trkpt lat="44.52038" lon="6.04404">
        <ele>787.79998779297</ele>
        <time>2013-05-12T14:02:33Z</time>
      </trkpt>
      <trkpt lat="44.52051" lon="6.04409">
        <ele>788.20001220703</ele>
        <time>2013-05-12T14:02:37Z</time>
      </trkpt>
      <trkpt lat="44.52053" lon="6.0441">
        <ele>788.20001220703</ele>
        <time>2013-05-12T14:02:38Z</time>
      </trkpt>
      <trkpt lat="44.5206" lon="6.04412">
        <ele>789.20001220703</ele>
        <time>2013-05-12T14:02:42Z</time>
      </trkpt>
      <trkpt lat="44.52073" lon="6.04413">
        <ele>791.40002441406</ele>
        <time>2013-05-12T14:02:49Z</time>
      </trkpt>
      <trkpt lat="44.52094" lon="6.04418">
        <ele>792.79998779297</ele>
        <time>2013-05-12T14:02:57Z</time>
      </trkpt>
      <trkpt lat="44.52117" lon="6.0442">
        <ele>792.79998779297</ele>
        <time>2013-05-12T14:03:04Z</time>
      </trkpt>
      <trkpt lat="44.52121" lon="6.04421">
        <ele>792.79998779297</ele>
        <time>2013-05-12T14:03:05Z</time>
      </trkpt>
      <trkpt lat="44.52135" lon="6.04426">
        <ele>792.79998779297</ele>
        <time>2013-05-12T14:03:09Z</time>
      </trkpt>
      <trkpt lat="44.52152" lon="6.04431">
        <ele>792.79998779297</ele>
        <time>2013-05-12T14:03:15Z</time>
      </trkpt>
      <trkpt lat="44.52168" lon="6.04434">
        <ele>792.79998779297</ele>
        <time>2013-05-12T14:03:20Z</time>
      </trkpt>
      <trkpt lat="44.52184" lon="6.04438">
        <ele>792.79998779297</ele>
        <time>2013-05-12T14:03:26Z</time>
      </trkpt>
      <trkpt lat="44.52197" lon="6.04446">
        <ele>792.79998779297</ele>
        <time>2013-05-12T14:03:33Z</time>
      </trkpt>
      <trkpt lat="44.522" lon="6.0445">
        <ele>794.20001220703</ele>
        <time>2013-05-12T14:03:35Z</time>
      </trkpt>
      <trkpt lat="44.52202" lon="6.04452">
        <ele>794.59997558594</ele>
        <time>2013-05-12T14:03:36Z</time>
      </trkpt>
      <trkpt lat="44.5221" lon="6.04461">
        <ele>795.20001220703</ele>
        <time>2013-05-12T14:03:40Z</time>
      </trkpt>
      <trkpt lat="44.5223" lon="6.04473">
        <ele>795.20001220703</ele>
        <time>2013-05-12T14:03:45Z</time>
      </trkpt>
      <trkpt lat="44.52251" lon="6.04479">
        <ele>794.59997558594</ele>
        <time>2013-05-12T14:03:48Z</time>
      </trkpt>
      <trkpt lat="44.52259" lon="6.04482">
        <ele>794.20001220703</ele>
        <time>2013-05-12T14:03:49Z</time>
      </trkpt>
      <trkpt lat="44.52268" lon="6.04487">
        <ele>794.20001220703</ele>
        <time>2013-05-12T14:03:50Z</time>
      </trkpt>
      <trkpt lat="44.52276" lon="6.04492">
        <ele>793</ele>
        <time>2013-05-12T14:03:51Z</time>
      </trkpt>
      <trkpt lat="44.52284" lon="6.04496">
        <ele>792.40002441406</ele>
        <time>2013-05-12T14:03:52Z</time>
      </trkpt>
      <trkpt lat="44.52292" lon="6.04502">
        <ele>791.59997558594</ele>
        <time>2013-05-12T14:03:53Z</time>
      </trkpt>
      <trkpt lat="44.52304" lon="6.04511">
        <ele>791</ele>
        <time>2013-05-12T14:03:55Z</time>
      </trkpt>
      <trkpt lat="44.52313" lon="6.04509">
        <ele>788.79998779297</ele>
        <time>2013-05-12T14:03:57Z</time>
      </trkpt>
      <trkpt lat="44.52324" lon="6.04504">
        <ele>787.40002441406</ele>
        <time>2013-05-12T14:03:59Z</time>
      </trkpt>
      <trkpt lat="44.5233" lon="6.04495">
        <ele>786</ele>
        <time>2013-05-12T14:04:01Z</time>
      </trkpt>
      <trkpt lat="44.52337" lon="6.04486">
        <ele>786</ele>
        <time>2013-05-12T14:04:03Z</time>
      </trkpt>
      <trkpt lat="44.52353" lon="6.04469">
        <ele>786</ele>
        <time>2013-05-12T14:04:07Z</time>
      </trkpt>
      <trkpt lat="44.52376" lon="6.04454">
        <ele>784.40002441406</ele>
        <time>2013-05-12T14:04:10Z</time>
      </trkpt>
      <trkpt lat="44.52382" lon="6.04449">
        <ele>784</ele>
        <time>2013-05-12T14:04:11Z</time>
      </trkpt>
      <trkpt lat="44.52392" lon="6.04437">
        <ele>783</ele>
        <time>2013-05-12T14:04:13Z</time>
      </trkpt>
      <trkpt lat="44.52401" lon="6.04433">
        <ele>782</ele>
        <time>2013-05-12T14:04:15Z</time>
      </trkpt>
      <trkpt lat="44.52414" lon="6.04437">
        <ele>780.79998779297</ele>
        <time>2013-05-12T14:04:18Z</time>
      </trkpt>
      <trkpt lat="44.5242" lon="6.04439">
        <ele>780.79998779297</ele>
        <time>2013-05-12T14:04:19Z</time>
      </trkpt>
      <trkpt lat="44.52427" lon="6.0444">
        <ele>779.79998779297</ele>
        <time>2013-05-12T14:04:20Z</time>
      </trkpt>
      <trkpt lat="44.52433" lon="6.04441">
        <ele>779.40002441406</ele>
        <time>2013-05-12T14:04:21Z</time>
      </trkpt>
      <trkpt lat="44.52444" lon="6.04441">
        <ele>779</ele>
        <time>2013-05-12T14:04:23Z</time>
      </trkpt>
      <trkpt lat="44.52451" lon="6.04441">
        <ele>779</ele>
        <time>2013-05-12T14:04:24Z</time>
      </trkpt>
      <trkpt lat="44.52464" lon="6.04441">
        <ele>778.59997558594</ele>
        <time>2013-05-12T14:04:26Z</time>
      </trkpt>
      <trkpt lat="44.52472" lon="6.04442">
        <ele>778.20001220703</ele>
        <time>2013-05-12T14:04:27Z</time>
      </trkpt>
      <trkpt lat="44.52485" lon="6.04447">
        <ele>777.59997558594</ele>
        <time>2013-05-12T14:04:29Z</time>
      </trkpt>
      <trkpt lat="44.52488" lon="6.04452">
        <ele>776.79998779297</ele>
        <time>2013-05-12T14:04:30Z</time>
      </trkpt>
      <trkpt lat="44.52493" lon="6.04462">
        <ele>776.40002441406</ele>
        <time>2013-05-12T14:04:32Z</time>
      </trkpt>
      <trkpt lat="44.52509" lon="6.04474">
        <ele>775.20001220703</ele>
        <time>2013-05-12T14:04:35Z</time>
      </trkpt>
      <trkpt lat="44.52514" lon="6.04477">
        <ele>774.59997558594</ele>
        <time>2013-05-12T14:04:36Z</time>
      </trkpt>
      <trkpt lat="44.52518" lon="6.04482">
        <ele>774.20001220703</ele>
        <time>2013-05-12T14:04:37Z</time>
      </trkpt>
      <trkpt lat="44.52526" lon="6.04489">
        <ele>773.59997558594</ele>
        <time>2013-05-12T14:04:39Z</time>
      </trkpt>
      <trkpt lat="44.52531" lon="6.04492">
        <ele>772.59997558594</ele>
        <time>2013-05-12T14:04:40Z</time>
      </trkpt>
      <trkpt lat="44.5254" lon="6.04498">
        <ele>771.59997558594</ele>
        <time>2013-05-12T14:04:42Z</time>
      </trkpt>
      <trkpt lat="44.52547" lon="6.04503">
        <ele>771.20001220703</ele>
        <time>2013-05-12T14:04:44Z</time>
      </trkpt>
      <trkpt lat="44.52555" lon="6.04506">
        <ele>770.20001220703</ele>
        <time>2013-05-12T14:04:47Z</time>
      </trkpt>
      <trkpt lat="44.52563" lon="6.0451">
        <ele>769.79998779297</ele>
        <time>2013-05-12T14:04:49Z</time>
      </trkpt>
      <trkpt lat="44.52566" lon="6.04512">
        <ele>768.79998779297</ele>
        <time>2013-05-12T14:04:50Z</time>
      </trkpt>
      <trkpt lat="44.52585" lon="6.04517">
        <ele>766.40002441406</ele>
        <time>2013-05-12T14:05:17Z</time>
      </trkpt>
      <trkpt lat="44.52592" lon="6.04517">
        <ele>765.20001220703</ele>
        <time>2013-05-12T14:05:19Z</time>
      </trkpt>
      <trkpt lat="44.526" lon="6.04518">
        <ele>764.79998779297</ele>
        <time>2013-05-12T14:05:21Z</time>
      </trkpt>
      <trkpt lat="44.52626" lon="6.04508">
        <ele>764.20001220703</ele>
        <time>2013-05-12T14:05:27Z</time>
      </trkpt>
      <trkpt lat="44.52642" lon="6.04476">
        <ele>764.20001220703</ele>
        <time>2013-05-12T14:05:31Z</time>
      </trkpt>
      <trkpt lat="44.52652" lon="6.04447">
        <ele>764.20001220703</ele>
        <time>2013-05-12T14:05:34Z</time>
      </trkpt>
      <trkpt lat="44.52657" lon="6.04439">
        <ele>764.20001220703</ele>
        <time>2013-05-12T14:05:35Z</time>
      </trkpt>
      <trkpt lat="44.52676" lon="6.04393">
        <ele>764.20001220703</ele>
        <time>2013-05-12T14:05:40Z</time>
      </trkpt>
      <trkpt lat="44.52678" lon="6.04379">
        <ele>764.20001220703</ele>
        <time>2013-05-12T14:05:41Z</time>
      </trkpt>
      <trkpt lat="44.52676" lon="6.04337">
        <ele>764.20001220703</ele>
        <time>2013-05-12T14:05:44Z</time>
      </trkpt>
      <trkpt lat="44.52669" lon="6.04257">
        <ele>764.20001220703</ele>
        <time>2013-05-12T14:05:49Z</time>
      </trkpt>
      <trkpt lat="44.52668" lon="6.04225">
        <ele>762.79998779297</ele>
        <time>2013-05-12T14:05:51Z</time>
      </trkpt>
      <trkpt lat="44.52669" lon="6.04209">
        <ele>760.20001220703</ele>
        <time>2013-05-12T14:05:52Z</time>
      </trkpt>
      <trkpt lat="44.52671" lon="6.04194">
        <ele>753.40002441406</ele>
        <time>2013-05-12T14:05:53Z</time>
      </trkpt>
      <trkpt lat="44.52673" lon="6.04181">
        <ele>753.40002441406</ele>
        <time>2013-05-12T14:05:54Z</time>
      </trkpt>
      <trkpt lat="44.52676" lon="6.04167">
        <ele>749.79998779297</ele>
        <time>2013-05-12T14:05:55Z</time>
      </trkpt>
      <trkpt lat="44.52677" lon="6.04155">
        <ele>746.40002441406</ele>
        <time>2013-05-12T14:05:56Z</time>
      </trkpt>
      <trkpt lat="44.52675" lon="6.04142">
        <ele>743</ele>
        <time>2013-05-12T14:05:57Z</time>
      </trkpt>
      <trkpt lat="44.52668" lon="6.04109">
        <ele>743</ele>
        <time>2013-05-12T14:06:00Z</time>
      </trkpt>
      <trkpt lat="44.52671" lon="6.041">
        <ele>743</ele>
        <time>2013-05-12T14:06:01Z</time>
      </trkpt>
      <trkpt lat="44.52681" lon="6.04084">
        <ele>743</ele>
        <time>2013-05-12T14:06:05Z</time>
      </trkpt>
      <trkpt lat="44.52691" lon="6.04089">
        <ele>743</ele>
        <time>2013-05-12T14:06:08Z</time>
      </trkpt>
      <trkpt lat="44.52718" lon="6.04102">
        <ele>743.40002441406</ele>
        <time>2013-05-12T14:06:16Z</time>
      </trkpt>
      <trkpt lat="44.52722" lon="6.04104">
        <ele>743.79998779297</ele>
        <time>2013-05-12T14:06:17Z</time>
      </trkpt>
      <trkpt lat="44.52732" lon="6.0411">
        <ele>745.20001220703</ele>
        <time>2013-05-12T14:06:20Z</time>
      </trkpt>
      <trkpt lat="44.52745" lon="6.04113">
        <ele>745.59997558594</ele>
        <time>2013-05-12T14:06:23Z</time>
      </trkpt>
      <trkpt lat="44.52753" lon="6.04116">
        <ele>746</ele>
        <time>2013-05-12T14:06:25Z</time>
      </trkpt>
      <trkpt lat="44.52763" lon="6.0412">
        <ele>747.59997558594</ele>
        <time>2013-05-12T14:06:28Z</time>
      </trkpt>
      <trkpt lat="44.52776" lon="6.04125">
        <ele>748</ele>
        <time>2013-05-12T14:06:32Z</time>
      </trkpt>
      <trkpt lat="44.52785" lon="6.04127">
        <ele>749.40002441406</ele>
        <time>2013-05-12T14:06:35Z</time>
      </trkpt>
      <trkpt lat="44.52799" lon="6.04133">
        <ele>750</ele>
        <time>2013-05-12T14:06:40Z</time>
      </trkpt>
      <trkpt lat="44.5282" lon="6.04142">
        <ele>750.40002441406</ele>
        <time>2013-05-12T14:06:48Z</time>
      </trkpt>
      <trkpt lat="44.52832" lon="6.04147">
        <ele>752</ele>
        <time>2013-05-12T14:06:53Z</time>
      </trkpt>
      <trkpt lat="44.52856" lon="6.04161">
        <ele>752.40002441406</ele>
        <time>2013-05-12T14:07:02Z</time>
      </trkpt>
      <trkpt lat="44.52861" lon="6.04164">
        <ele>752.79998779297</ele>
        <time>2013-05-12T14:07:04Z</time>
      </trkpt>
      <trkpt lat="44.52879" lon="6.04175">
        <ele>754.20001220703</ele>
        <time>2013-05-12T14:07:11Z</time>
      </trkpt>
      <trkpt lat="44.52887" lon="6.0418">
        <ele>755</ele>
        <time>2013-05-12T14:07:14Z</time>
      </trkpt>
      <trkpt lat="44.52892" lon="6.04184">
        <ele>755.79998779297</ele>
        <time>2013-05-12T14:07:16Z</time>
      </trkpt>
      <trkpt lat="44.52906" lon="6.04193">
        <ele>756.20001220703</ele>
        <time>2013-05-12T14:07:22Z</time>
      </trkpt>
      <trkpt lat="44.52925" lon="6.04205">
        <ele>756.20001220703</ele>
        <time>2013-05-12T14:07:30Z</time>
      </trkpt>
      <trkpt lat="44.52935" lon="6.04211">
        <ele>757</ele>
        <time>2013-05-12T14:07:34Z</time>
      </trkpt>
      <trkpt lat="44.52942" lon="6.04215">
        <ele>758.20001220703</ele>
        <time>2013-05-12T14:07:37Z</time>
      </trkpt>
      <trkpt lat="44.52953" lon="6.0422">
        <ele>758.59997558594</ele>
        <time>2013-05-12T14:07:42Z</time>
      </trkpt>
      <trkpt lat="44.52961" lon="6.04226">
        <ele>760.20001220703</ele>
        <time>2013-05-12T14:07:46Z</time>
      </trkpt>
      <trkpt lat="44.52971" lon="6.04233">
        <ele>760.59997558594</ele>
        <time>2013-05-12T14:07:51Z</time>
      </trkpt>
      <trkpt lat="44.5298" lon="6.0424">
        <ele>762.20001220703</ele>
        <time>2013-05-12T14:07:55Z</time>
      </trkpt>
      <trkpt lat="44.53" lon="6.04252">
        <ele>762.20001220703</ele>
        <time>2013-05-12T14:08:03Z</time>
      </trkpt>
      <trkpt lat="44.53016" lon="6.04266">
        <ele>762.59997558594</ele>
        <time>2013-05-12T14:08:10Z</time>
      </trkpt>
      <trkpt lat="44.53021" lon="6.04269">
        <ele>763.40002441406</ele>
        <time>2013-05-12T14:08:12Z</time>
      </trkpt>
      <trkpt lat="44.53024" lon="6.04271">
        <ele>763.79998779297</ele>
        <time>2013-05-12T14:08:13Z</time>
      </trkpt>
      <trkpt lat="44.53046" lon="6.04282">
        <ele>764.20001220703</ele>
        <time>2013-05-12T14:08:21Z</time>
      </trkpt>
      <trkpt lat="44.53069" lon="6.04295">
        <ele>764.20001220703</ele>
        <time>2013-05-12T14:08:30Z</time>
      </trkpt>
      <trkpt lat="44.53089" lon="6.04306">
        <ele>764.20001220703</ele>
        <time>2013-05-12T14:08:37Z</time>
      </trkpt>
      <trkpt lat="44.53117" lon="6.04316">
        <ele>764.20001220703</ele>
        <time>2013-05-12T14:08:46Z</time>
      </trkpt>
      <trkpt lat="44.53121" lon="6.04318">
        <ele>764.79998779297</ele>
        <time>2013-05-12T14:08:47Z</time>
      </trkpt>
      <trkpt lat="44.53127" lon="6.0432">
        <ele>765.59997558594</ele>
        <time>2013-05-12T14:08:49Z</time>
      </trkpt>
      <trkpt lat="44.53134" lon="6.04323">
        <ele>766</ele>
        <time>2013-05-12T14:08:51Z</time>
      </trkpt>
      <trkpt lat="44.53147" lon="6.04327">
        <ele>766.40002441406</ele>
        <time>2013-05-12T14:08:55Z</time>
      </trkpt>
      <trkpt lat="44.53174" lon="6.04338">
        <ele>766.40002441406</ele>
        <time>2013-05-12T14:09:05Z</time>
      </trkpt>
      <trkpt lat="44.53182" lon="6.04341">
        <ele>767.59997558594</ele>
        <time>2013-05-12T14:09:08Z</time>
      </trkpt>
      <trkpt lat="44.53192" lon="6.04344">
        <ele>769.20001220703</ele>
        <time>2013-05-12T14:09:12Z</time>
      </trkpt>
      <trkpt lat="44.5321" lon="6.0435">
        <ele>769.20001220703</ele>
        <time>2013-05-12T14:09:20Z</time>
      </trkpt>
      <trkpt lat="44.53224" lon="6.04354">
        <ele>770.59997558594</ele>
        <time>2013-05-12T14:09:26Z</time>
      </trkpt>
      <trkpt lat="44.53242" lon="6.04357">
        <ele>772</ele>
        <time>2013-05-12T14:09:34Z</time>
      </trkpt>
      <trkpt lat="44.53257" lon="6.04361">
        <ele>773.59997558594</ele>
        <time>2013-05-12T14:09:40Z</time>
      </trkpt>
      <trkpt lat="44.53269" lon="6.04363">
        <ele>773.59997558594</ele>
        <time>2013-05-12T14:09:45Z</time>
      </trkpt>
      <trkpt lat="44.53276" lon="6.04364">
        <ele>774.20001220703</ele>
        <time>2013-05-12T14:09:48Z</time>
      </trkpt>
      <trkpt lat="44.53281" lon="6.04365">
        <ele>775.20001220703</ele>
        <time>2013-05-12T14:09:50Z</time>
      </trkpt>
      <trkpt lat="44.53291" lon="6.04367">
        <ele>776</ele>
        <time>2013-05-12T14:09:54Z</time>
      </trkpt>
      <trkpt lat="44.53303" lon="6.04371">
        <ele>775.59997558594</ele>
        <time>2013-05-12T14:09:58Z</time>
      </trkpt>
      <trkpt lat="44.53312" lon="6.04376">
        <ele>774.79998779297</ele>
        <time>2013-05-12T14:10:01Z</time>
      </trkpt>
      <trkpt lat="44.53321" lon="6.04382">
        <ele>775.40002441406</ele>
        <time>2013-05-12T14:10:04Z</time>
      </trkpt>
      <trkpt lat="44.53334" lon="6.04394">
        <ele>776</ele>
        <time>2013-05-12T14:10:09Z</time>
      </trkpt>
      <trkpt lat="44.53356" lon="6.04415">
        <ele>776</ele>
        <time>2013-05-12T14:10:16Z</time>
      </trkpt>
      <trkpt lat="44.53382" lon="6.04443">
        <ele>776</ele>
        <time>2013-05-12T14:10:23Z</time>
      </trkpt>
      <trkpt lat="44.53422" lon="6.04482">
        <ele>776</ele>
        <time>2013-05-12T14:10:33Z</time>
      </trkpt>
      <trkpt lat="44.53458" lon="6.04521">
        <ele>776</ele>
        <time>2013-05-12T14:10:42Z</time>
      </trkpt>
      <trkpt lat="44.53484" lon="6.04546">
        <ele>776</ele>
        <time>2013-05-12T14:10:49Z</time>
      </trkpt>
      <trkpt lat="44.5351" lon="6.04588">
        <ele>776</ele>
        <time>2013-05-12T14:10:57Z</time>
      </trkpt>
      <trkpt lat="44.53545" lon="6.04646">
        <ele>776</ele>
        <time>2013-05-12T14:11:07Z</time>
      </trkpt>
      <trkpt lat="44.53572" lon="6.0469">
        <ele>776</ele>
        <time>2013-05-12T14:11:15Z</time>
      </trkpt>
      <trkpt lat="44.53596" lon="6.0473">
        <ele>776</ele>
        <time>2013-05-12T14:11:22Z</time>
      </trkpt>
      <trkpt lat="44.53601" lon="6.04741">
        <ele>776</ele>
        <time>2013-05-12T14:11:24Z</time>
      </trkpt>
      <trkpt lat="44.53616" lon="6.0477">
        <ele>776</ele>
        <time>2013-05-12T14:11:29Z</time>
      </trkpt>
      <trkpt lat="44.5364" lon="6.04812">
        <ele>776</ele>
        <time>2013-05-12T14:11:38Z</time>
      </trkpt>
      <trkpt lat="44.53649" lon="6.0482">
        <ele>777.20001220703</ele>
        <time>2013-05-12T14:11:42Z</time>
      </trkpt>
      <trkpt lat="44.53653" lon="6.04825">
        <ele>777.59997558594</ele>
        <time>2013-05-12T14:11:43Z</time>
      </trkpt>
      <trkpt lat="44.53667" lon="6.04857">
        <ele>778.20001220703</ele>
        <time>2013-05-12T14:11:50Z</time>
      </trkpt>
      <trkpt lat="44.53689" lon="6.04896">
        <ele>778.20001220703</ele>
        <time>2013-05-12T14:11:58Z</time>
      </trkpt>
      <trkpt lat="44.53704" lon="6.04916">
        <ele>778.59997558594</ele>
        <time>2013-05-12T14:12:03Z</time>
      </trkpt>
      <trkpt lat="44.53711" lon="6.04921">
        <ele>779.40002441406</ele>
        <time>2013-05-12T14:12:05Z</time>
      </trkpt>
      <trkpt lat="44.53734" lon="6.04947">
        <ele>781</ele>
        <time>2013-05-12T14:12:13Z</time>
      </trkpt>
      <trkpt lat="44.53737" lon="6.04951">
        <ele>781.59997558594</ele>
        <time>2013-05-12T14:12:14Z</time>
      </trkpt>
      <trkpt lat="44.53743" lon="6.04959">
        <ele>782.40002441406</ele>
        <time>2013-05-12T14:12:16Z</time>
      </trkpt>
      <trkpt lat="44.53748" lon="6.04967">
        <ele>782.40002441406</ele>
        <time>2013-05-12T14:12:18Z</time>
      </trkpt>
      <trkpt lat="44.53753" lon="6.04977">
        <ele>782.40002441406</ele>
        <time>2013-05-12T14:12:20Z</time>
      </trkpt>
      <trkpt lat="44.53755" lon="6.04982">
        <ele>783</ele>
        <time>2013-05-12T14:12:21Z</time>
      </trkpt>
      <trkpt lat="44.53762" lon="6.05001">
        <ele>784.20001220703</ele>
        <time>2013-05-12T14:12:24Z</time>
      </trkpt>
      <trkpt lat="44.53766" lon="6.05012">
        <ele>784.79998779297</ele>
        <time>2013-05-12T14:12:26Z</time>
      </trkpt>
      <trkpt lat="44.53769" lon="6.05024">
        <ele>784.79998779297</ele>
        <time>2013-05-12T14:12:28Z</time>
      </trkpt>
      <trkpt lat="44.5377" lon="6.05037">
        <ele>784.79998779297</ele>
        <time>2013-05-12T14:12:30Z</time>
      </trkpt>
      <trkpt lat="44.5377" lon="6.05044">
        <ele>784.79998779297</ele>
        <time>2013-05-12T14:12:31Z</time>
      </trkpt>
      <trkpt lat="44.53772" lon="6.05057">
        <ele>784.79998779297</ele>
        <time>2013-05-12T14:12:33Z</time>
      </trkpt>
      <trkpt lat="44.53775" lon="6.05088">
        <ele>784.79998779297</ele>
        <time>2013-05-12T14:12:37Z</time>
      </trkpt>
      <trkpt lat="44.53774" lon="6.05129">
        <ele>784.79998779297</ele>
        <time>2013-05-12T14:12:43Z</time>
      </trkpt>
      <trkpt lat="44.53774" lon="6.05135">
        <ele>784.79998779297</ele>
        <time>2013-05-12T14:12:44Z</time>
      </trkpt>
      <trkpt lat="44.53772" lon="6.05142">
        <ele>784.79998779297</ele>
        <time>2013-05-12T14:12:45Z</time>
      </trkpt>
      <trkpt lat="44.53766" lon="6.05152">
        <ele>784.79998779297</ele>
        <time>2013-05-12T14:12:47Z</time>
      </trkpt>
      <trkpt lat="44.53758" lon="6.05158">
        <ele>783.79998779297</ele>
        <time>2013-05-12T14:12:49Z</time>
      </trkpt>
      <trkpt lat="44.53753" lon="6.0516">
        <ele>783.40002441406</ele>
        <time>2013-05-12T14:12:50Z</time>
      </trkpt>
      <trkpt lat="44.5374" lon="6.0516">
        <ele>782.79998779297</ele>
        <time>2013-05-12T14:12:52Z</time>
      </trkpt>
      <trkpt lat="44.53734" lon="6.05159">
        <ele>782.40002441406</ele>
        <time>2013-05-12T14:12:53Z</time>
      </trkpt>
      <trkpt lat="44.53701" lon="6.05156">
        <ele>782.40002441406</ele>
        <time>2013-05-12T14:12:58Z</time>
      </trkpt>
      <trkpt lat="44.53646" lon="6.05148">
        <ele>782.40002441406</ele>
        <time>2013-05-12T14:13:05Z</time>
      </trkpt>
      <trkpt lat="44.53593" lon="6.05129">
        <ele>782.40002441406</ele>
        <time>2013-05-12T14:13:11Z</time>
      </trkpt>
      <trkpt lat="44.53585" lon="6.05124">
        <ele>782.40002441406</ele>
        <time>2013-05-12T14:13:12Z</time>
      </trkpt>
      <trkpt lat="44.5355" lon="6.05091">
        <ele>782.40002441406</ele>
        <time>2013-05-12T14:13:16Z</time>
      </trkpt>
      <trkpt lat="44.53543" lon="6.05083">
        <ele>782.40002441406</ele>
        <time>2013-05-12T14:13:17Z</time>
      </trkpt>
      <trkpt lat="44.53502" lon="6.0503">
        <ele>782.40002441406</ele>
        <time>2013-05-12T14:13:23Z</time>
      </trkpt>
      <trkpt lat="44.53496" lon="6.05027">
        <ele>782.40002441406</ele>
        <time>2013-05-12T14:13:24Z</time>
      </trkpt>
      <trkpt lat="44.53491" lon="6.05033">
        <ele>782.40002441406</ele>
        <time>2013-05-12T14:13:25Z</time>
      </trkpt>
      <trkpt lat="44.53489" lon="6.05051">
        <ele>782.40002441406</ele>
        <time>2013-05-12T14:13:27Z</time>
      </trkpt>
      <trkpt lat="44.53487" lon="6.0506">
        <ele>782.40002441406</ele>
        <time>2013-05-12T14:13:28Z</time>
      </trkpt>
      <trkpt lat="44.53481" lon="6.05077">
        <ele>782.40002441406</ele>
        <time>2013-05-12T14:13:30Z</time>
      </trkpt>
      <trkpt lat="44.53469" lon="6.05096">
        <ele>782.40002441406</ele>
        <time>2013-05-12T14:13:33Z</time>
      </trkpt>
      <trkpt lat="44.53453" lon="6.05103">
        <ele>782.40002441406</ele>
        <time>2013-05-12T14:13:37Z</time>
      </trkpt>
      <trkpt lat="44.53451" lon="6.05115">
        <ele>782.40002441406</ele>
        <time>2013-05-12T14:13:40Z</time>
      </trkpt>
      <trkpt lat="44.53459" lon="6.05133">
        <ele>782.40002441406</ele>
        <time>2013-05-12T14:13:44Z</time>
      </trkpt>
      <trkpt lat="44.53459" lon="6.05172">
        <ele>782.40002441406</ele>
        <time>2013-05-12T14:13:50Z</time>
      </trkpt>
      <trkpt lat="44.53464" lon="6.05206">
        <ele>782.40002441406</ele>
        <time>2013-05-12T14:13:54Z</time>
      </trkpt>
      <trkpt lat="44.53469" lon="6.05214">
        <ele>782.40002441406</ele>
        <time>2013-05-12T14:13:55Z</time>
      </trkpt>
      <trkpt lat="44.5348" lon="6.05227">
        <ele>782</ele>
        <time>2013-05-12T14:13:57Z</time>
      </trkpt>
      <trkpt lat="44.53487" lon="6.05231">
        <ele>782</ele>
        <time>2013-05-12T14:13:58Z</time>
      </trkpt>
      <trkpt lat="44.53511" lon="6.05242">
        <ele>782</ele>
        <time>2013-05-12T14:14:01Z</time>
      </trkpt>
      <trkpt lat="44.5356" lon="6.0528">
        <ele>782</ele>
        <time>2013-05-12T14:14:07Z</time>
      </trkpt>
      <trkpt lat="44.53607" lon="6.05323">
        <ele>780.20001220703</ele>
        <time>2013-05-12T14:14:13Z</time>
      </trkpt>
      <trkpt lat="44.53651" lon="6.05366">
        <ele>780.20001220703</ele>
        <time>2013-05-12T14:14:19Z</time>
      </trkpt>
      <trkpt lat="44.53688" lon="6.05402">
        <ele>780.20001220703</ele>
        <time>2013-05-12T14:14:25Z</time>
      </trkpt>
      <trkpt lat="44.53688" lon="6.05428">
        <ele>780.20001220703</ele>
        <time>2013-05-12T14:14:28Z</time>
      </trkpt>
      <trkpt lat="44.53675" lon="6.05458">
        <ele>780.20001220703</ele>
        <time>2013-05-12T14:14:31Z</time>
      </trkpt>
      <trkpt lat="44.5366" lon="6.05502">
        <ele>780.20001220703</ele>
        <time>2013-05-12T14:14:36Z</time>
      </trkpt>
      <trkpt lat="44.53645" lon="6.05511">
        <ele>780.20001220703</ele>
        <time>2013-05-12T14:14:39Z</time>
      </trkpt>
      <trkpt lat="44.53643" lon="6.05533">
        <ele>780.20001220703</ele>
        <time>2013-05-12T14:14:42Z</time>
      </trkpt>
      <trkpt lat="44.53652" lon="6.05545">
        <ele>780.20001220703</ele>
        <time>2013-05-12T14:14:43Z</time>
      </trkpt>
      <trkpt lat="44.53673" lon="6.05567">
        <ele>780.20001220703</ele>
        <time>2013-05-12T14:14:46Z</time>
      </trkpt>
      <trkpt lat="44.53678" lon="6.05572">
        <ele>780.20001220703</ele>
        <time>2013-05-12T14:14:47Z</time>
      </trkpt>
      <trkpt lat="44.53679" lon="6.05581">
        <ele>780.20001220703</ele>
        <time>2013-05-12T14:14:48Z</time>
      </trkpt>
      <trkpt lat="44.53677" lon="6.05593">
        <ele>780.20001220703</ele>
        <time>2013-05-12T14:14:49Z</time>
      </trkpt>
      <trkpt lat="44.53668" lon="6.05614">
        <ele>780.20001220703</ele>
        <time>2013-05-12T14:14:51Z</time>
      </trkpt>
      <trkpt lat="44.53664" lon="6.05622">
        <ele>780.20001220703</ele>
        <time>2013-05-12T14:14:52Z</time>
      </trkpt>
      <trkpt lat="44.53655" lon="6.05626">
        <ele>780.20001220703</ele>
        <time>2013-05-12T14:14:53Z</time>
      </trkpt>
      <trkpt lat="44.53645" lon="6.05628">
        <ele>780.20001220703</ele>
        <time>2013-05-12T14:14:54Z</time>
      </trkpt>
      <trkpt lat="44.53634" lon="6.05631">
        <ele>777.40002441406</ele>
        <time>2013-05-12T14:14:55Z</time>
      </trkpt>
      <trkpt lat="44.53605" lon="6.05641">
        <ele>777.40002441406</ele>
        <time>2013-05-12T14:14:58Z</time>
      </trkpt>
      <trkpt lat="44.53592" lon="6.05649">
        <ele>777.40002441406</ele>
        <time>2013-05-12T14:15:00Z</time>
      </trkpt>
      <trkpt lat="44.53588" lon="6.05654">
        <ele>777.40002441406</ele>
        <time>2013-05-12T14:15:01Z</time>
      </trkpt>
      <trkpt lat="44.5359" lon="6.05665">
        <ele>777.40002441406</ele>
        <time>2013-05-12T14:15:02Z</time>
      </trkpt>
      <trkpt lat="44.5359" lon="6.05674">
        <ele>777.40002441406</ele>
        <time>2013-05-12T14:15:03Z</time>
      </trkpt>
      <trkpt lat="44.53594" lon="6.05684">
        <ele>777.40002441406</ele>
        <time>2013-05-12T14:15:04Z</time>
      </trkpt>
      <trkpt lat="44.536" lon="6.05702">
        <ele>777.40002441406</ele>
        <time>2013-05-12T14:15:06Z</time>
      </trkpt>
      <trkpt lat="44.53622" lon="6.05732">
        <ele>777.40002441406</ele>
        <time>2013-05-12T14:15:10Z</time>
      </trkpt>
      <trkpt lat="44.53627" lon="6.05741">
        <ele>773.59997558594</ele>
        <time>2013-05-12T14:15:11Z</time>
      </trkpt>
      <trkpt lat="44.53661" lon="6.0579">
        <ele>773.59997558594</ele>
        <time>2013-05-12T14:15:17Z</time>
      </trkpt>
      <trkpt lat="44.53704" lon="6.05851">
        <ele>773.59997558594</ele>
        <time>2013-05-12T14:15:25Z</time>
      </trkpt>
      <trkpt lat="44.53711" lon="6.05866">
        <ele>768.59997558594</ele>
        <time>2013-05-12T14:15:27Z</time>
      </trkpt>
      <trkpt lat="44.53728" lon="6.05895">
        <ele>768.59997558594</ele>
        <time>2013-05-12T14:15:31Z</time>
      </trkpt>
      <trkpt lat="44.53766" lon="6.05954">
        <ele>768.59997558594</ele>
        <time>2013-05-12T14:15:40Z</time>
      </trkpt>
      <trkpt lat="44.53772" lon="6.05967">
        <ele>768.59997558594</ele>
        <time>2013-05-12T14:15:42Z</time>
      </trkpt>
      <trkpt lat="44.53781" lon="6.05981">
        <ele>758.59997558594</ele>
        <time>2013-05-12T14:15:44Z</time>
      </trkpt>
      <trkpt lat="44.53796" lon="6.06003">
        <ele>758.59997558594</ele>
        <time>2013-05-12T14:15:48Z</time>
      </trkpt>
      <trkpt lat="44.53806" lon="6.0601">
        <ele>758.59997558594</ele>
        <time>2013-05-12T14:15:51Z</time>
      </trkpt>
      <trkpt lat="44.53821" lon="6.06012">
        <ele>758.59997558594</ele>
        <time>2013-05-12T14:15:55Z</time>
      </trkpt>
      <trkpt lat="44.53844" lon="6.06015">
        <ele>748.59997558594</ele>
        <time>2013-05-12T14:16:00Z</time>
      </trkpt>
      <trkpt lat="44.53862" lon="6.06017">
        <ele>748.59997558594</ele>
        <time>2013-05-12T14:16:04Z</time>
      </trkpt>
      <trkpt lat="44.53894" lon="6.06019">
        <ele>748.59997558594</ele>
        <time>2013-05-12T14:16:11Z</time>
      </trkpt>
      <trkpt lat="44.53898" lon="6.0602">
        <ele>748.59997558594</ele>
        <time>2013-05-12T14:16:12Z</time>
      </trkpt>
      <trkpt lat="44.53902" lon="6.0602">
        <ele>748.59997558594</ele>
        <time>2013-05-12T14:16:13Z</time>
      </trkpt>
      <trkpt lat="44.5391" lon="6.06019">
        <ele>748.59997558594</ele>
        <time>2013-05-12T14:16:16Z</time>
      </trkpt>
      <trkpt lat="44.53908" lon="6.06012">
        <ele>748.59997558594</ele>
        <time>2013-05-12T14:16:20Z</time>
      </trkpt>
      <trkpt lat="44.53894" lon="6.06015">
        <ele>748.59997558594</ele>
        <time>2013-05-12T14:16:24Z</time>
      </trkpt>
      <trkpt lat="44.53882" lon="6.06013">
        <ele>748.59997558594</ele>
        <time>2013-05-12T14:16:27Z</time>
      </trkpt>
      <trkpt lat="44.53873" lon="6.06012">
        <ele>748.59997558594</ele>
        <time>2013-05-12T14:16:29Z</time>
      </trkpt>
      <trkpt lat="44.53831" lon="6.06008">
        <ele>748.59997558594</ele>
        <time>2013-05-12T14:16:37Z</time>
      </trkpt>
      <trkpt lat="44.53815" lon="6.0601">
        <ele>748.59997558594</ele>
        <time>2013-05-12T14:16:41Z</time>
      </trkpt>
      <trkpt lat="44.53823" lon="6.0599">
        <ele>748.59997558594</ele>
        <time>2013-05-12T14:16:52Z</time>
      </trkpt>
      <trkpt lat="44.53841" lon="6.05966">
        <ele>748.59997558594</ele>
        <time>2013-05-12T14:16:59Z</time>
      </trkpt>
      <trkpt lat="44.53857" lon="6.05947">
        <ele>748.59997558594</ele>
        <time>2013-05-12T14:17:04Z</time>
      </trkpt>
      <trkpt lat="44.53874" lon="6.0592">
        <ele>748.59997558594</ele>
        <time>2013-05-12T14:17:09Z</time>
      </trkpt>
      <trkpt lat="44.53881" lon="6.05906">
        <ele>749</ele>
        <time>2013-05-12T14:17:12Z</time>
      </trkpt>
      <trkpt lat="44.53891" lon="6.05891">
        <ele>749</ele>
        <time>2013-05-12T14:17:15Z</time>
      </trkpt>
      <trkpt lat="44.53901" lon="6.05874">
        <ele>749</ele>
        <time>2013-05-12T14:17:20Z</time>
      </trkpt>
      <trkpt lat="44.53909" lon="6.0587">
        <ele>749</ele>
        <time>2013-05-12T14:17:22Z</time>
      </trkpt>
      <trkpt lat="44.53922" lon="6.05862">
        <ele>749</ele>
        <time>2013-05-12T14:17:26Z</time>
      </trkpt>
      <trkpt lat="44.53928" lon="6.05859">
        <ele>749.40002441406</ele>
        <time>2013-05-12T14:17:29Z</time>
      </trkpt>
      <trkpt lat="44.53942" lon="6.05847">
        <ele>749.40002441406</ele>
        <time>2013-05-12T14:17:35Z</time>
      </trkpt>
      <trkpt lat="44.53971" lon="6.05835">
        <ele>749.40002441406</ele>
        <time>2013-05-12T14:17:41Z</time>
      </trkpt>
      <trkpt lat="44.53988" lon="6.05833">
        <ele>749.40002441406</ele>
        <time>2013-05-12T14:17:44Z</time>
      </trkpt>
      <trkpt lat="44.53996" lon="6.05829">
        <ele>750.20001220703</ele>
        <time>2013-05-12T14:17:46Z</time>
      </trkpt>
      <trkpt lat="44.54003" lon="6.05822">
        <ele>750.20001220703</ele>
        <time>2013-05-12T14:17:48Z</time>
      </trkpt>
      <trkpt lat="44.5401" lon="6.05813">
        <ele>750.20001220703</ele>
        <time>2013-05-12T14:17:50Z</time>
      </trkpt>
      <trkpt lat="44.54024" lon="6.05791">
        <ele>750.20001220703</ele>
        <time>2013-05-12T14:17:55Z</time>
      </trkpt>
      <trkpt lat="44.54044" lon="6.05763">
        <ele>750.20001220703</ele>
        <time>2013-05-12T14:18:02Z</time>
      </trkpt>
      <trkpt lat="44.54061" lon="6.05751">
        <ele>750.20001220703</ele>
        <time>2013-05-12T14:18:07Z</time>
      </trkpt>
      <trkpt lat="44.54086" lon="6.0577">
        <ele>750.20001220703</ele>
        <time>2013-05-12T14:18:15Z</time>
      </trkpt>
      <trkpt lat="44.54095" lon="6.05785">
        <ele>752</ele>
        <time>2013-05-12T14:18:19Z</time>
      </trkpt>
      <trkpt lat="44.541" lon="6.05791">
        <ele>753</ele>
        <time>2013-05-12T14:18:21Z</time>
      </trkpt>
      <trkpt lat="44.5411" lon="6.05803">
        <ele>756</ele>
        <time>2013-05-12T14:18:24Z</time>
      </trkpt>
      <trkpt lat="44.54117" lon="6.05816">
        <ele>756</ele>
        <time>2013-05-12T14:18:27Z</time>
      </trkpt>
      <trkpt lat="44.54116" lon="6.05821">
        <ele>756</ele>
        <time>2013-05-12T14:18:28Z</time>
      </trkpt>
      <trkpt lat="44.54111" lon="6.0583">
        <ele>756</ele>
        <time>2013-05-12T14:18:30Z</time>
      </trkpt>
      <trkpt lat="44.54103" lon="6.0584">
        <ele>756</ele>
        <time>2013-05-12T14:18:32Z</time>
      </trkpt>
      <trkpt lat="44.54094" lon="6.05856">
        <ele>756</ele>
        <time>2013-05-12T14:18:35Z</time>
      </trkpt>
      <trkpt lat="44.54084" lon="6.05866">
        <ele>756</ele>
        <time>2013-05-12T14:18:37Z</time>
      </trkpt>
      <trkpt lat="44.54073" lon="6.05871">
        <ele>756</ele>
        <time>2013-05-12T14:18:39Z</time>
      </trkpt>
      <trkpt lat="44.54068" lon="6.05874">
        <ele>756</ele>
        <time>2013-05-12T14:18:40Z</time>
      </trkpt>
      <trkpt lat="44.54062" lon="6.05885">
        <ele>756</ele>
        <time>2013-05-12T14:18:42Z</time>
      </trkpt>
      <trkpt lat="44.5406" lon="6.0589">
        <ele>756</ele>
        <time>2013-05-12T14:18:43Z</time>
      </trkpt>
      <trkpt lat="44.5405" lon="6.05903">
        <ele>756</ele>
        <time>2013-05-12T14:18:48Z</time>
      </trkpt>
      <trkpt lat="44.54039" lon="6.0592">
        <ele>756</ele>
        <time>2013-05-12T14:18:53Z</time>
      </trkpt>
      <trkpt lat="44.54036" lon="6.05924">
        <ele>756</ele>
        <time>2013-05-12T14:18:57Z</time>
      </trkpt>
      <trkpt lat="44.54029" lon="6.05918">
        <ele>756</ele>
        <time>2013-05-12T14:19:17Z</time>
      </trkpt>
    </trkseg>
  </trk>
</gpx>